<?xml version="1.0" encoding="UTF-8"?>
<gpx version="1.1" creator="https://www.youtrack.es" xsi:schemaLocation="http://www.topografix.com/GPX/1/1 http://www.topografix.com/GPX/1/1/gpx.xsd http://www.garmin.com/xmlschemas/GpxExtensions/v3 http://www.garmin.com/xmlschemas/GpxExtensionsv3.xsd http://www.garmin.com/xmlschemas/TrackPointExtension/v1 http://www.garmin.com/xmlschemas/TrackPointExtensionv1.xsd" xmlns:gpxtpx="http://www.garmin.com/xmlschemas/TrackPointExtension/v1" xmlns:gpxx="http://www.garmin.com/xmlschemas/GpxExtensions/v3" xmlns:xsi="http://www.w3.org/2001/XMLSchema-instance">
  <metadata>
    <link href="https://www.youtrack.es">
      <text>YouTrack.es</text>
    </link>
    <time>2026-05-09T01:05:45Z</time>
  </metadata>
  <trk>
    <src>https://www.youtrack.es</src>
    <link href="https://www.youtrack.es/ruta/24898-istres--st-marti-de-llemena">
      <text>YouTrack.es</text>
    </link>
    <trkseg>
      <trkpt lat="43.568485" lon="4.960059">
        <ele>39.28042</ele>
        <time>2021-07-01T09:30:48Z</time>
      </trkpt>
      <trkpt lat="43.568485" lon="4.960069">
        <ele>38.96457</ele>
        <time>2021-07-01T09:30:49Z</time>
      </trkpt>
      <trkpt lat="43.568485" lon="4.960069">
        <ele>38.70456</ele>
        <time>2021-07-01T09:30:50Z</time>
      </trkpt>
      <trkpt lat="43.568508" lon="4.960082">
        <ele>38.85183</ele>
        <time>2021-07-01T09:30:51Z</time>
      </trkpt>
      <trkpt lat="43.568611" lon="4.960125">
        <ele>39.23654</ele>
        <time>2021-07-01T09:30:52Z</time>
      </trkpt>
      <trkpt lat="43.568680" lon="4.960079">
        <ele>39.47561</ele>
        <time>2021-07-01T09:30:53Z</time>
      </trkpt>
      <trkpt lat="43.568756" lon="4.960053">
        <ele>39.50827</ele>
        <time>2021-07-01T09:30:54Z</time>
      </trkpt>
      <trkpt lat="43.568806" lon="4.960067">
        <ele>40.58773</ele>
        <time>2021-07-01T09:30:55Z</time>
      </trkpt>
      <trkpt lat="43.568844" lon="4.960116">
        <ele>41.30478</ele>
        <time>2021-07-01T09:30:56Z</time>
      </trkpt>
      <trkpt lat="43.568844" lon="4.960178">
        <ele>42.45712</ele>
        <time>2021-07-01T09:30:57Z</time>
      </trkpt>
      <trkpt lat="43.568836" lon="4.960204">
        <ele>41.90164</ele>
        <time>2021-07-01T09:30:58Z</time>
      </trkpt>
      <trkpt lat="43.568817" lon="4.960223">
        <ele>42.26413</ele>
        <time>2021-07-01T09:30:59Z</time>
      </trkpt>
      <trkpt lat="43.568764" lon="4.960284">
        <ele>41.87271</ele>
        <time>2021-07-01T09:31:00Z</time>
      </trkpt>
      <trkpt lat="43.568676" lon="4.960280">
        <ele>41.59860</ele>
        <time>2021-07-01T09:31:01Z</time>
      </trkpt>
      <trkpt lat="43.568604" lon="4.960322">
        <ele>41.67636</ele>
        <time>2021-07-01T09:31:02Z</time>
      </trkpt>
      <trkpt lat="43.568520" lon="4.960363">
        <ele>41.57504</ele>
        <time>2021-07-01T09:31:03Z</time>
      </trkpt>
      <trkpt lat="43.568443" lon="4.960402">
        <ele>41.60354</ele>
        <time>2021-07-01T09:31:04Z</time>
      </trkpt>
      <trkpt lat="43.568363" lon="4.960431">
        <ele>41.21530</ele>
        <time>2021-07-01T09:31:05Z</time>
      </trkpt>
      <trkpt lat="43.568298" lon="4.960448">
        <ele>41.26217</ele>
        <time>2021-07-01T09:31:06Z</time>
      </trkpt>
      <trkpt lat="43.568283" lon="4.960452">
        <ele>41.37857</ele>
        <time>2021-07-01T09:31:07Z</time>
      </trkpt>
      <trkpt lat="43.568283" lon="4.960453">
        <ele>41.37930</ele>
        <time>2021-07-01T09:31:08Z</time>
      </trkpt>
      <trkpt lat="43.568253" lon="4.960461">
        <ele>41.64340</ele>
        <time>2021-07-01T09:31:09Z</time>
      </trkpt>
      <trkpt lat="43.568237" lon="4.960608">
        <ele>41.50460</ele>
        <time>2021-07-01T09:31:10Z</time>
      </trkpt>
      <trkpt lat="43.568214" lon="4.960743">
        <ele>41.54422</ele>
        <time>2021-07-01T09:31:11Z</time>
      </trkpt>
      <trkpt lat="43.568146" lon="4.960869">
        <ele>41.51559</ele>
        <time>2021-07-01T09:31:12Z</time>
      </trkpt>
      <trkpt lat="43.568123" lon="4.960896">
        <ele>41.41045</ele>
        <time>2021-07-01T09:31:13Z</time>
      </trkpt>
      <trkpt lat="43.568005" lon="4.961038">
        <ele>41.90026</ele>
        <time>2021-07-01T09:31:14Z</time>
      </trkpt>
      <trkpt lat="43.567883" lon="4.961145">
        <ele>42.12898</ele>
        <time>2021-07-01T09:31:15Z</time>
      </trkpt>
      <trkpt lat="43.567745" lon="4.961254">
        <ele>42.19550</ele>
        <time>2021-07-01T09:31:16Z</time>
      </trkpt>
      <trkpt lat="43.567604" lon="4.961371">
        <ele>42.02343</ele>
        <time>2021-07-01T09:31:17Z</time>
      </trkpt>
      <trkpt lat="43.567455" lon="4.961485">
        <ele>42.10670</ele>
        <time>2021-07-01T09:31:18Z</time>
      </trkpt>
      <trkpt lat="43.567310" lon="4.961592">
        <ele>41.82558</ele>
        <time>2021-07-01T09:31:19Z</time>
      </trkpt>
      <trkpt lat="43.567150" lon="4.961707">
        <ele>41.52648</ele>
        <time>2021-07-01T09:31:20Z</time>
      </trkpt>
      <trkpt lat="43.566982" lon="4.961808">
        <ele>41.18495</ele>
        <time>2021-07-01T09:31:21Z</time>
      </trkpt>
      <trkpt lat="43.566811" lon="4.961879">
        <ele>41.60258</ele>
        <time>2021-07-01T09:31:22Z</time>
      </trkpt>
      <trkpt lat="43.566811" lon="4.961879">
        <ele>41.52912</ele>
        <time>2021-07-01T09:31:23Z</time>
      </trkpt>
      <trkpt lat="43.566635" lon="4.961938">
        <ele>41.11213</ele>
        <time>2021-07-01T09:31:24Z</time>
      </trkpt>
      <trkpt lat="43.566460" lon="4.961996">
        <ele>41.13885</ele>
        <time>2021-07-01T09:31:25Z</time>
      </trkpt>
      <trkpt lat="43.566288" lon="4.962051">
        <ele>41.14279</ele>
        <time>2021-07-01T09:31:26Z</time>
      </trkpt>
      <trkpt lat="43.566105" lon="4.962110">
        <ele>39.93167</ele>
        <time>2021-07-01T09:31:27Z</time>
      </trkpt>
      <trkpt lat="43.565918" lon="4.962171">
        <ele>40.05038</ele>
        <time>2021-07-01T09:31:28Z</time>
      </trkpt>
      <trkpt lat="43.565735" lon="4.962234">
        <ele>40.10592</ele>
        <time>2021-07-01T09:31:29Z</time>
      </trkpt>
      <trkpt lat="43.565548" lon="4.962298">
        <ele>40.76805</ele>
        <time>2021-07-01T09:31:30Z</time>
      </trkpt>
      <trkpt lat="43.565369" lon="4.962372">
        <ele>39.90810</ele>
        <time>2021-07-01T09:31:31Z</time>
      </trkpt>
      <trkpt lat="43.565220" lon="4.962439">
        <ele>38.97821</ele>
        <time>2021-07-01T09:31:32Z</time>
      </trkpt>
      <trkpt lat="43.565090" lon="4.962499">
        <ele>38.22575</ele>
        <time>2021-07-01T09:31:33Z</time>
      </trkpt>
      <trkpt lat="43.564964" lon="4.962600">
        <ele>37.06910</ele>
        <time>2021-07-01T09:31:34Z</time>
      </trkpt>
      <trkpt lat="43.564854" lon="4.962688">
        <ele>34.70958</ele>
        <time>2021-07-01T09:31:35Z</time>
      </trkpt>
      <trkpt lat="43.564743" lon="4.962773">
        <ele>33.89674</ele>
        <time>2021-07-01T09:31:36Z</time>
      </trkpt>
      <trkpt lat="43.564629" lon="4.962798">
        <ele>33.23641</ele>
        <time>2021-07-01T09:31:37Z</time>
      </trkpt>
      <trkpt lat="43.564522" lon="4.962756">
        <ele>33.15055</ele>
        <time>2021-07-01T09:31:38Z</time>
      </trkpt>
      <trkpt lat="43.564404" lon="4.962701">
        <ele>33.37428</ele>
        <time>2021-07-01T09:31:39Z</time>
      </trkpt>
      <trkpt lat="43.564285" lon="4.962611">
        <ele>33.66401</ele>
        <time>2021-07-01T09:31:40Z</time>
      </trkpt>
      <trkpt lat="43.564175" lon="4.962536">
        <ele>33.80989</ele>
        <time>2021-07-01T09:31:41Z</time>
      </trkpt>
      <trkpt lat="43.564064" lon="4.962445">
        <ele>34.25466</ele>
        <time>2021-07-01T09:31:42Z</time>
      </trkpt>
      <trkpt lat="43.563953" lon="4.962355">
        <ele>34.74561</ele>
        <time>2021-07-01T09:31:43Z</time>
      </trkpt>
      <trkpt lat="43.563793" lon="4.962216">
        <ele>35.00181</ele>
        <time>2021-07-01T09:31:44Z</time>
      </trkpt>
      <trkpt lat="43.563671" lon="4.962045">
        <ele>36.71362</ele>
        <time>2021-07-01T09:31:45Z</time>
      </trkpt>
      <trkpt lat="43.563583" lon="4.961893">
        <ele>37.35637</ele>
        <time>2021-07-01T09:31:46Z</time>
      </trkpt>
      <trkpt lat="43.563522" lon="4.961781">
        <ele>37.19434</ele>
        <time>2021-07-01T09:31:47Z</time>
      </trkpt>
      <trkpt lat="43.563438" lon="4.961695">
        <ele>37.33863</ele>
        <time>2021-07-01T09:31:48Z</time>
      </trkpt>
      <trkpt lat="43.563339" lon="4.961635">
        <ele>37.36570</ele>
        <time>2021-07-01T09:31:49Z</time>
      </trkpt>
      <trkpt lat="43.563244" lon="4.961598">
        <ele>37.57212</ele>
        <time>2021-07-01T09:31:50Z</time>
      </trkpt>
      <trkpt lat="43.563145" lon="4.961593">
        <ele>37.18048</ele>
        <time>2021-07-01T09:31:51Z</time>
      </trkpt>
      <trkpt lat="43.563023" lon="4.961623">
        <ele>37.52843</ele>
        <time>2021-07-01T09:31:52Z</time>
      </trkpt>
      <trkpt lat="43.562878" lon="4.961695">
        <ele>37.64720</ele>
        <time>2021-07-01T09:31:53Z</time>
      </trkpt>
      <trkpt lat="43.562737" lon="4.961789">
        <ele>38.20242</ele>
        <time>2021-07-01T09:31:54Z</time>
      </trkpt>
      <trkpt lat="43.562576" lon="4.961910">
        <ele>39.35918</ele>
        <time>2021-07-01T09:31:55Z</time>
      </trkpt>
      <trkpt lat="43.562576" lon="4.961910">
        <ele>39.34068</ele>
        <time>2021-07-01T09:31:56Z</time>
      </trkpt>
      <trkpt lat="43.562447" lon="4.962020">
        <ele>39.44021</ele>
        <time>2021-07-01T09:31:57Z</time>
      </trkpt>
      <trkpt lat="43.562309" lon="4.962128">
        <ele>39.50219</ele>
        <time>2021-07-01T09:31:58Z</time>
      </trkpt>
      <trkpt lat="43.562191" lon="4.962211">
        <ele>38.57528</ele>
        <time>2021-07-01T09:31:59Z</time>
      </trkpt>
      <trkpt lat="43.562084" lon="4.962284">
        <ele>37.59845</ele>
        <time>2021-07-01T09:32:00Z</time>
      </trkpt>
      <trkpt lat="43.562012" lon="4.962363">
        <ele>36.85387</ele>
        <time>2021-07-01T09:32:01Z</time>
      </trkpt>
      <trkpt lat="43.561977" lon="4.962450">
        <ele>36.09098</ele>
        <time>2021-07-01T09:32:02Z</time>
      </trkpt>
      <trkpt lat="43.561958" lon="4.962574">
        <ele>36.09036</ele>
        <time>2021-07-01T09:32:03Z</time>
      </trkpt>
      <trkpt lat="43.561958" lon="4.962717">
        <ele>36.54594</ele>
        <time>2021-07-01T09:32:04Z</time>
      </trkpt>
      <trkpt lat="43.561981" lon="4.962876">
        <ele>37.50637</ele>
        <time>2021-07-01T09:32:05Z</time>
      </trkpt>
      <trkpt lat="43.562031" lon="4.963048">
        <ele>37.17161</ele>
        <time>2021-07-01T09:32:06Z</time>
      </trkpt>
      <trkpt lat="43.562073" lon="4.963147">
        <ele>36.87283</ele>
        <time>2021-07-01T09:32:07Z</time>
      </trkpt>
      <trkpt lat="43.562096" lon="4.963201">
        <ele>36.16765</ele>
        <time>2021-07-01T09:32:08Z</time>
      </trkpt>
      <trkpt lat="43.562096" lon="4.963202">
        <ele>36.12944</ele>
        <time>2021-07-01T09:32:09Z</time>
      </trkpt>
      <trkpt lat="43.562023" lon="4.963235">
        <ele>36.04194</ele>
        <time>2021-07-01T09:32:10Z</time>
      </trkpt>
      <trkpt lat="43.561966" lon="4.963243">
        <ele>35.86446</ele>
        <time>2021-07-01T09:32:11Z</time>
      </trkpt>
      <trkpt lat="43.561932" lon="4.963247">
        <ele>35.70322</ele>
        <time>2021-07-01T09:32:12Z</time>
      </trkpt>
      <trkpt lat="43.561890" lon="4.963252">
        <ele>35.73734</ele>
        <time>2021-07-01T09:32:13Z</time>
      </trkpt>
      <trkpt lat="43.561859" lon="4.963249">
        <ele>35.66422</ele>
        <time>2021-07-01T09:32:14Z</time>
      </trkpt>
      <trkpt lat="43.561844" lon="4.963245">
        <ele>35.59624</ele>
        <time>2021-07-01T09:32:15Z</time>
      </trkpt>
      <trkpt lat="43.561813" lon="4.963239">
        <ele>35.67232</ele>
        <time>2021-07-01T09:32:16Z</time>
      </trkpt>
      <trkpt lat="43.561790" lon="4.963230">
        <ele>35.74155</ele>
        <time>2021-07-01T09:32:17Z</time>
      </trkpt>
      <trkpt lat="43.561790" lon="4.963230">
        <ele>35.65436</ele>
        <time>2021-07-01T09:32:18Z</time>
      </trkpt>
      <trkpt lat="43.561790" lon="4.963230">
        <ele>35.73555</ele>
        <time>2021-07-01T09:32:19Z</time>
      </trkpt>
      <trkpt lat="43.561790" lon="4.963230">
        <ele>35.77773</ele>
        <time>2021-07-01T09:32:20Z</time>
      </trkpt>
      <trkpt lat="43.561790" lon="4.963230">
        <ele>35.89668</ele>
        <time>2021-07-01T09:32:21Z</time>
      </trkpt>
      <trkpt lat="43.561787" lon="4.963227">
        <ele>35.83387</ele>
        <time>2021-07-01T09:32:22Z</time>
      </trkpt>
      <trkpt lat="43.561737" lon="4.963207">
        <ele>35.79115</ele>
        <time>2021-07-01T09:32:23Z</time>
      </trkpt>
      <trkpt lat="43.561737" lon="4.963207">
        <ele>35.81732</ele>
        <time>2021-07-01T09:32:24Z</time>
      </trkpt>
      <trkpt lat="43.561737" lon="4.963207">
        <ele>35.78179</ele>
        <time>2021-07-01T09:32:25Z</time>
      </trkpt>
      <trkpt lat="43.561737" lon="4.963207">
        <ele>35.83994</ele>
        <time>2021-07-01T09:32:26Z</time>
      </trkpt>
      <trkpt lat="43.561737" lon="4.963207">
        <ele>35.92804</ele>
        <time>2021-07-01T09:32:27Z</time>
      </trkpt>
      <trkpt lat="43.561733" lon="4.963206">
        <ele>35.86881</ele>
        <time>2021-07-01T09:32:28Z</time>
      </trkpt>
      <trkpt lat="43.561726" lon="4.963202">
        <ele>35.80119</ele>
        <time>2021-07-01T09:32:29Z</time>
      </trkpt>
      <trkpt lat="43.561710" lon="4.963196">
        <ele>35.91574</ele>
        <time>2021-07-01T09:32:30Z</time>
      </trkpt>
      <trkpt lat="43.561707" lon="4.963195">
        <ele>35.92109</ele>
        <time>2021-07-01T09:32:31Z</time>
      </trkpt>
      <trkpt lat="43.561707" lon="4.963195">
        <ele>35.90149</ele>
        <time>2021-07-01T09:32:32Z</time>
      </trkpt>
      <trkpt lat="43.561707" lon="4.963195">
        <ele>35.84143</ele>
        <time>2021-07-01T09:32:33Z</time>
      </trkpt>
      <trkpt lat="43.561707" lon="4.963195">
        <ele>35.90516</ele>
        <time>2021-07-01T09:32:34Z</time>
      </trkpt>
      <trkpt lat="43.561707" lon="4.963195">
        <ele>35.86367</ele>
        <time>2021-07-01T09:32:35Z</time>
      </trkpt>
      <trkpt lat="43.561707" lon="4.963195">
        <ele>35.84064</ele>
        <time>2021-07-01T09:32:36Z</time>
      </trkpt>
      <trkpt lat="43.561707" lon="4.963195">
        <ele>35.82973</ele>
        <time>2021-07-01T09:32:37Z</time>
      </trkpt>
      <trkpt lat="43.561707" lon="4.963195">
        <ele>35.83891</ele>
        <time>2021-07-01T09:32:38Z</time>
      </trkpt>
      <trkpt lat="43.561707" lon="4.963195">
        <ele>35.92394</ele>
        <time>2021-07-01T09:32:39Z</time>
      </trkpt>
      <trkpt lat="43.561707" lon="4.963195">
        <ele>35.92809</ele>
        <time>2021-07-01T09:32:40Z</time>
      </trkpt>
      <trkpt lat="43.561707" lon="4.963195">
        <ele>36.00077</ele>
        <time>2021-07-01T09:32:41Z</time>
      </trkpt>
      <trkpt lat="43.561707" lon="4.963195">
        <ele>36.03192</ele>
        <time>2021-07-01T09:32:42Z</time>
      </trkpt>
      <trkpt lat="43.561707" lon="4.963195">
        <ele>36.05775</ele>
        <time>2021-07-01T09:32:43Z</time>
      </trkpt>
      <trkpt lat="43.561707" lon="4.963195">
        <ele>36.08966</ele>
        <time>2021-07-01T09:32:44Z</time>
      </trkpt>
      <trkpt lat="43.561707" lon="4.963195">
        <ele>36.08945</ele>
        <time>2021-07-01T09:32:45Z</time>
      </trkpt>
      <trkpt lat="43.561707" lon="4.963195">
        <ele>35.95525</ele>
        <time>2021-07-01T09:32:46Z</time>
      </trkpt>
      <trkpt lat="43.561707" lon="4.963195">
        <ele>35.92155</ele>
        <time>2021-07-01T09:32:47Z</time>
      </trkpt>
      <trkpt lat="43.561707" lon="4.963195">
        <ele>35.75572</ele>
        <time>2021-07-01T09:32:48Z</time>
      </trkpt>
      <trkpt lat="43.561707" lon="4.963195">
        <ele>35.75545</ele>
        <time>2021-07-01T09:32:49Z</time>
      </trkpt>
      <trkpt lat="43.561707" lon="4.963195">
        <ele>35.79205</ele>
        <time>2021-07-01T09:32:50Z</time>
      </trkpt>
      <trkpt lat="43.561707" lon="4.963195">
        <ele>35.73603</ele>
        <time>2021-07-01T09:32:51Z</time>
      </trkpt>
      <trkpt lat="43.561707" lon="4.963195">
        <ele>35.86543</ele>
        <time>2021-07-01T09:32:52Z</time>
      </trkpt>
      <trkpt lat="43.561707" lon="4.963195">
        <ele>36.09517</ele>
        <time>2021-07-01T09:32:53Z</time>
      </trkpt>
      <trkpt lat="43.561707" lon="4.963195">
        <ele>36.05446</ele>
        <time>2021-07-01T09:32:54Z</time>
      </trkpt>
      <trkpt lat="43.561707" lon="4.963195">
        <ele>35.93290</ele>
        <time>2021-07-01T09:32:55Z</time>
      </trkpt>
      <trkpt lat="43.561707" lon="4.963195">
        <ele>36.00476</ele>
        <time>2021-07-01T09:32:56Z</time>
      </trkpt>
      <trkpt lat="43.561707" lon="4.963195">
        <ele>35.90671</ele>
        <time>2021-07-01T09:32:57Z</time>
      </trkpt>
      <trkpt lat="43.561707" lon="4.963195">
        <ele>35.73129</ele>
        <time>2021-07-01T09:32:58Z</time>
      </trkpt>
      <trkpt lat="43.561707" lon="4.963195">
        <ele>35.61652</ele>
        <time>2021-07-01T09:32:59Z</time>
      </trkpt>
      <trkpt lat="43.561707" lon="4.963195">
        <ele>35.63908</ele>
        <time>2021-07-01T09:33:00Z</time>
      </trkpt>
      <trkpt lat="43.561707" lon="4.963195">
        <ele>35.66328</ele>
        <time>2021-07-01T09:33:01Z</time>
      </trkpt>
      <trkpt lat="43.561707" lon="4.963195">
        <ele>35.72459</ele>
        <time>2021-07-01T09:33:02Z</time>
      </trkpt>
      <trkpt lat="43.561707" lon="4.963195">
        <ele>35.73507</ele>
        <time>2021-07-01T09:33:03Z</time>
      </trkpt>
      <trkpt lat="43.561707" lon="4.963195">
        <ele>35.83694</ele>
        <time>2021-07-01T09:33:04Z</time>
      </trkpt>
      <trkpt lat="43.561707" lon="4.963195">
        <ele>35.71788</ele>
        <time>2021-07-01T09:33:05Z</time>
      </trkpt>
      <trkpt lat="43.561707" lon="4.963195">
        <ele>35.74648</ele>
        <time>2021-07-01T09:33:06Z</time>
      </trkpt>
      <trkpt lat="43.561707" lon="4.963195">
        <ele>35.72438</ele>
        <time>2021-07-01T09:33:07Z</time>
      </trkpt>
      <trkpt lat="43.561707" lon="4.963195">
        <ele>35.84650</ele>
        <time>2021-07-01T09:33:08Z</time>
      </trkpt>
      <trkpt lat="43.561707" lon="4.963195">
        <ele>35.80006</ele>
        <time>2021-07-01T09:33:09Z</time>
      </trkpt>
      <trkpt lat="43.561707" lon="4.963195">
        <ele>35.79510</ele>
        <time>2021-07-01T09:33:10Z</time>
      </trkpt>
      <trkpt lat="43.561707" lon="4.963195">
        <ele>35.64462</ele>
        <time>2021-07-01T09:33:11Z</time>
      </trkpt>
      <trkpt lat="43.561707" lon="4.963195">
        <ele>35.60389</ele>
        <time>2021-07-01T09:33:12Z</time>
      </trkpt>
      <trkpt lat="43.561707" lon="4.963195">
        <ele>35.55928</ele>
        <time>2021-07-01T09:33:13Z</time>
      </trkpt>
      <trkpt lat="43.561707" lon="4.963195">
        <ele>35.66751</ele>
        <time>2021-07-01T09:33:14Z</time>
      </trkpt>
      <trkpt lat="43.561707" lon="4.963195">
        <ele>35.68558</ele>
        <time>2021-07-01T09:33:15Z</time>
      </trkpt>
      <trkpt lat="43.561707" lon="4.963195">
        <ele>35.73090</ele>
        <time>2021-07-01T09:33:16Z</time>
      </trkpt>
      <trkpt lat="43.561707" lon="4.963195">
        <ele>35.74436</ele>
        <time>2021-07-01T09:33:17Z</time>
      </trkpt>
      <trkpt lat="43.561707" lon="4.963195">
        <ele>35.76035</ele>
        <time>2021-07-01T09:33:18Z</time>
      </trkpt>
      <trkpt lat="43.561707" lon="4.963195">
        <ele>35.83541</ele>
        <time>2021-07-01T09:33:19Z</time>
      </trkpt>
      <trkpt lat="43.561707" lon="4.963195">
        <ele>35.84977</ele>
        <time>2021-07-01T09:33:20Z</time>
      </trkpt>
      <trkpt lat="43.561707" lon="4.963195">
        <ele>35.93261</ele>
        <time>2021-07-01T09:33:21Z</time>
      </trkpt>
      <trkpt lat="43.561707" lon="4.963195">
        <ele>36.08621</ele>
        <time>2021-07-01T09:33:22Z</time>
      </trkpt>
      <trkpt lat="43.561707" lon="4.963195">
        <ele>35.97176</ele>
        <time>2021-07-01T09:33:23Z</time>
      </trkpt>
      <trkpt lat="43.561707" lon="4.963195">
        <ele>35.95931</ele>
        <time>2021-07-01T09:33:24Z</time>
      </trkpt>
      <trkpt lat="43.561707" lon="4.963195">
        <ele>35.90977</ele>
        <time>2021-07-01T09:33:25Z</time>
      </trkpt>
      <trkpt lat="43.561707" lon="4.963195">
        <ele>35.86801</ele>
        <time>2021-07-01T09:33:26Z</time>
      </trkpt>
      <trkpt lat="43.561707" lon="4.963195">
        <ele>35.95345</ele>
        <time>2021-07-01T09:33:27Z</time>
      </trkpt>
      <trkpt lat="43.561707" lon="4.963195">
        <ele>35.73886</ele>
        <time>2021-07-01T09:33:28Z</time>
      </trkpt>
      <trkpt lat="43.561707" lon="4.963195">
        <ele>35.76254</ele>
        <time>2021-07-01T09:33:29Z</time>
      </trkpt>
      <trkpt lat="43.561707" lon="4.963195">
        <ele>35.73391</ele>
        <time>2021-07-01T09:33:30Z</time>
      </trkpt>
      <trkpt lat="43.561707" lon="4.963195">
        <ele>35.78888</ele>
        <time>2021-07-01T09:33:31Z</time>
      </trkpt>
      <trkpt lat="43.561687" lon="4.963187">
        <ele>35.77826</ele>
        <time>2021-07-01T09:33:32Z</time>
      </trkpt>
      <trkpt lat="43.561680" lon="4.963184">
        <ele>35.89294</ele>
        <time>2021-07-01T09:33:33Z</time>
      </trkpt>
      <trkpt lat="43.561661" lon="4.963176">
        <ele>36.02256</ele>
        <time>2021-07-01T09:33:34Z</time>
      </trkpt>
      <trkpt lat="43.561619" lon="4.963156">
        <ele>36.01299</ele>
        <time>2021-07-01T09:33:35Z</time>
      </trkpt>
      <trkpt lat="43.561588" lon="4.963140">
        <ele>36.04412</ele>
        <time>2021-07-01T09:33:36Z</time>
      </trkpt>
      <trkpt lat="43.561562" lon="4.963127">
        <ele>35.96740</ele>
        <time>2021-07-01T09:33:37Z</time>
      </trkpt>
      <trkpt lat="43.561539" lon="4.963114">
        <ele>36.09123</ele>
        <time>2021-07-01T09:33:38Z</time>
      </trkpt>
      <trkpt lat="43.561493" lon="4.963076">
        <ele>36.02461</ele>
        <time>2021-07-01T09:33:39Z</time>
      </trkpt>
      <trkpt lat="43.561470" lon="4.963043">
        <ele>35.99861</ele>
        <time>2021-07-01T09:33:40Z</time>
      </trkpt>
      <trkpt lat="43.561440" lon="4.962999">
        <ele>35.82276</ele>
        <time>2021-07-01T09:33:41Z</time>
      </trkpt>
      <trkpt lat="43.561405" lon="4.962953">
        <ele>36.02703</ele>
        <time>2021-07-01T09:33:42Z</time>
      </trkpt>
      <trkpt lat="43.561382" lon="4.962935">
        <ele>36.08609</ele>
        <time>2021-07-01T09:33:43Z</time>
      </trkpt>
      <trkpt lat="43.561352" lon="4.962917">
        <ele>36.18006</ele>
        <time>2021-07-01T09:33:44Z</time>
      </trkpt>
      <trkpt lat="43.561321" lon="4.962894">
        <ele>36.27037</ele>
        <time>2021-07-01T09:33:45Z</time>
      </trkpt>
      <trkpt lat="43.561279" lon="4.962876">
        <ele>36.25418</ele>
        <time>2021-07-01T09:33:46Z</time>
      </trkpt>
      <trkpt lat="43.561249" lon="4.962861">
        <ele>36.33295</ele>
        <time>2021-07-01T09:33:47Z</time>
      </trkpt>
      <trkpt lat="43.561211" lon="4.962845">
        <ele>36.49741</ele>
        <time>2021-07-01T09:33:48Z</time>
      </trkpt>
      <trkpt lat="43.561165" lon="4.962822">
        <ele>36.49023</ele>
        <time>2021-07-01T09:33:49Z</time>
      </trkpt>
      <trkpt lat="43.561134" lon="4.962790">
        <ele>36.36315</ele>
        <time>2021-07-01T09:33:50Z</time>
      </trkpt>
      <trkpt lat="43.561108" lon="4.962743">
        <ele>36.58138</ele>
        <time>2021-07-01T09:33:51Z</time>
      </trkpt>
      <trkpt lat="43.561096" lon="4.962694">
        <ele>36.56749</ele>
        <time>2021-07-01T09:33:52Z</time>
      </trkpt>
      <trkpt lat="43.561096" lon="4.962694">
        <ele>37.20477</ele>
        <time>2021-07-01T09:33:53Z</time>
      </trkpt>
      <trkpt lat="43.561085" lon="4.962660">
        <ele>36.50984</ele>
        <time>2021-07-01T09:33:54Z</time>
      </trkpt>
      <trkpt lat="43.561077" lon="4.962631">
        <ele>36.87936</ele>
        <time>2021-07-01T09:33:55Z</time>
      </trkpt>
      <trkpt lat="43.561073" lon="4.962618">
        <ele>36.54678</ele>
        <time>2021-07-01T09:33:56Z</time>
      </trkpt>
      <trkpt lat="43.561073" lon="4.962612">
        <ele>36.57412</ele>
        <time>2021-07-01T09:33:57Z</time>
      </trkpt>
      <trkpt lat="43.561073" lon="4.962612">
        <ele>36.64459</ele>
        <time>2021-07-01T09:33:58Z</time>
      </trkpt>
      <trkpt lat="43.561073" lon="4.962612">
        <ele>36.83099</ele>
        <time>2021-07-01T09:33:59Z</time>
      </trkpt>
      <trkpt lat="43.561073" lon="4.962612">
        <ele>36.85781</ele>
        <time>2021-07-01T09:34:00Z</time>
      </trkpt>
      <trkpt lat="43.561073" lon="4.962612">
        <ele>36.87708</ele>
        <time>2021-07-01T09:34:01Z</time>
      </trkpt>
      <trkpt lat="43.561073" lon="4.962612">
        <ele>36.83935</ele>
        <time>2021-07-01T09:34:02Z</time>
      </trkpt>
      <trkpt lat="43.561073" lon="4.962612">
        <ele>36.78724</ele>
        <time>2021-07-01T09:34:03Z</time>
      </trkpt>
      <trkpt lat="43.561073" lon="4.962612">
        <ele>36.76020</ele>
        <time>2021-07-01T09:34:04Z</time>
      </trkpt>
      <trkpt lat="43.561073" lon="4.962612">
        <ele>36.79420</ele>
        <time>2021-07-01T09:34:05Z</time>
      </trkpt>
      <trkpt lat="43.561073" lon="4.962612">
        <ele>37.14597</ele>
        <time>2021-07-01T09:34:06Z</time>
      </trkpt>
      <trkpt lat="43.561073" lon="4.962612">
        <ele>37.39699</ele>
        <time>2021-07-01T09:34:07Z</time>
      </trkpt>
      <trkpt lat="43.561062" lon="4.962583">
        <ele>38.36609</ele>
        <time>2021-07-01T09:34:08Z</time>
      </trkpt>
      <trkpt lat="43.561108" lon="4.962523">
        <ele>39.16887</ele>
        <time>2021-07-01T09:34:09Z</time>
      </trkpt>
      <trkpt lat="43.561234" lon="4.962433">
        <ele>39.33002</ele>
        <time>2021-07-01T09:34:10Z</time>
      </trkpt>
      <trkpt lat="43.561390" lon="4.962324">
        <ele>40.55053</ele>
        <time>2021-07-01T09:34:11Z</time>
      </trkpt>
      <trkpt lat="43.561516" lon="4.962237">
        <ele>40.56623</ele>
        <time>2021-07-01T09:34:12Z</time>
      </trkpt>
      <trkpt lat="43.561653" lon="4.962140">
        <ele>40.69260</ele>
        <time>2021-07-01T09:34:13Z</time>
      </trkpt>
      <trkpt lat="43.561813" lon="4.962029">
        <ele>41.33052</ele>
        <time>2021-07-01T09:34:14Z</time>
      </trkpt>
      <trkpt lat="43.561977" lon="4.961914">
        <ele>41.87465</ele>
        <time>2021-07-01T09:34:15Z</time>
      </trkpt>
      <trkpt lat="43.562145" lon="4.961795">
        <ele>38.25430</ele>
        <time>2021-07-01T09:34:16Z</time>
      </trkpt>
      <trkpt lat="43.562309" lon="4.961643">
        <ele>38.28720</ele>
        <time>2021-07-01T09:34:17Z</time>
      </trkpt>
      <trkpt lat="43.562489" lon="4.961509">
        <ele>38.39950</ele>
        <time>2021-07-01T09:34:18Z</time>
      </trkpt>
      <trkpt lat="43.562691" lon="4.961361">
        <ele>38.60312</ele>
        <time>2021-07-01T09:34:19Z</time>
      </trkpt>
      <trkpt lat="43.562881" lon="4.961220">
        <ele>38.69308</ele>
        <time>2021-07-01T09:34:20Z</time>
      </trkpt>
      <trkpt lat="43.563080" lon="4.961091">
        <ele>38.69357</ele>
        <time>2021-07-01T09:34:21Z</time>
      </trkpt>
      <trkpt lat="43.563290" lon="4.960936">
        <ele>38.78268</ele>
        <time>2021-07-01T09:34:22Z</time>
      </trkpt>
      <trkpt lat="43.563496" lon="4.960790">
        <ele>39.27267</ele>
        <time>2021-07-01T09:34:23Z</time>
      </trkpt>
      <trkpt lat="43.563709" lon="4.960639">
        <ele>39.28701</ele>
        <time>2021-07-01T09:34:24Z</time>
      </trkpt>
      <trkpt lat="43.563915" lon="4.960491">
        <ele>39.36410</ele>
        <time>2021-07-01T09:34:25Z</time>
      </trkpt>
      <trkpt lat="43.564137" lon="4.960335">
        <ele>39.72042</ele>
        <time>2021-07-01T09:34:26Z</time>
      </trkpt>
      <trkpt lat="43.564358" lon="4.960176">
        <ele>39.79715</ele>
        <time>2021-07-01T09:34:27Z</time>
      </trkpt>
      <trkpt lat="43.564575" lon="4.960022">
        <ele>39.61123</ele>
        <time>2021-07-01T09:34:28Z</time>
      </trkpt>
      <trkpt lat="43.564800" lon="4.959862">
        <ele>39.73001</ele>
        <time>2021-07-01T09:34:29Z</time>
      </trkpt>
      <trkpt lat="43.564800" lon="4.959862">
        <ele>39.55319</ele>
        <time>2021-07-01T09:34:30Z</time>
      </trkpt>
      <trkpt lat="43.565018" lon="4.959708">
        <ele>39.80545</ele>
        <time>2021-07-01T09:34:31Z</time>
      </trkpt>
      <trkpt lat="43.565235" lon="4.959552">
        <ele>39.81491</ele>
        <time>2021-07-01T09:34:32Z</time>
      </trkpt>
      <trkpt lat="43.565468" lon="4.959387">
        <ele>39.99734</ele>
        <time>2021-07-01T09:34:33Z</time>
      </trkpt>
      <trkpt lat="43.565689" lon="4.959230">
        <ele>40.05325</ele>
        <time>2021-07-01T09:34:34Z</time>
      </trkpt>
      <trkpt lat="43.565914" lon="4.959070">
        <ele>40.20114</ele>
        <time>2021-07-01T09:34:35Z</time>
      </trkpt>
      <trkpt lat="43.566147" lon="4.958903">
        <ele>40.37881</ele>
        <time>2021-07-01T09:34:36Z</time>
      </trkpt>
      <trkpt lat="43.566380" lon="4.958735">
        <ele>40.20016</ele>
        <time>2021-07-01T09:34:37Z</time>
      </trkpt>
      <trkpt lat="43.566616" lon="4.958566">
        <ele>40.05587</ele>
        <time>2021-07-01T09:34:38Z</time>
      </trkpt>
      <trkpt lat="43.566841" lon="4.958402">
        <ele>40.09591</ele>
        <time>2021-07-01T09:34:39Z</time>
      </trkpt>
      <trkpt lat="43.567078" lon="4.958231">
        <ele>39.99337</ele>
        <time>2021-07-01T09:34:40Z</time>
      </trkpt>
      <trkpt lat="43.567326" lon="4.958051">
        <ele>40.17141</ele>
        <time>2021-07-01T09:34:41Z</time>
      </trkpt>
      <trkpt lat="43.567574" lon="4.957872">
        <ele>40.23825</ele>
        <time>2021-07-01T09:34:42Z</time>
      </trkpt>
      <trkpt lat="43.567814" lon="4.957700">
        <ele>40.52688</ele>
        <time>2021-07-01T09:34:43Z</time>
      </trkpt>
      <trkpt lat="43.568050" lon="4.957527">
        <ele>40.50192</ele>
        <time>2021-07-01T09:34:44Z</time>
      </trkpt>
      <trkpt lat="43.568291" lon="4.957353">
        <ele>40.73025</ele>
        <time>2021-07-01T09:34:45Z</time>
      </trkpt>
      <trkpt lat="43.568531" lon="4.957180">
        <ele>40.68753</ele>
        <time>2021-07-01T09:34:46Z</time>
      </trkpt>
      <trkpt lat="43.568768" lon="4.957008">
        <ele>40.50576</ele>
        <time>2021-07-01T09:34:47Z</time>
      </trkpt>
      <trkpt lat="43.568996" lon="4.956840">
        <ele>40.56173</ele>
        <time>2021-07-01T09:34:48Z</time>
      </trkpt>
      <trkpt lat="43.569233" lon="4.956670">
        <ele>40.67575</ele>
        <time>2021-07-01T09:34:49Z</time>
      </trkpt>
      <trkpt lat="43.569473" lon="4.956496">
        <ele>40.76052</ele>
        <time>2021-07-01T09:34:50Z</time>
      </trkpt>
      <trkpt lat="43.569710" lon="4.956321">
        <ele>40.97146</ele>
        <time>2021-07-01T09:34:51Z</time>
      </trkpt>
      <trkpt lat="43.569923" lon="4.956164">
        <ele>41.14645</ele>
        <time>2021-07-01T09:34:52Z</time>
      </trkpt>
      <trkpt lat="43.570137" lon="4.956014">
        <ele>41.09426</ele>
        <time>2021-07-01T09:34:53Z</time>
      </trkpt>
      <trkpt lat="43.570351" lon="4.955866">
        <ele>41.06582</ele>
        <time>2021-07-01T09:34:54Z</time>
      </trkpt>
      <trkpt lat="43.570557" lon="4.955713">
        <ele>41.03579</ele>
        <time>2021-07-01T09:34:55Z</time>
      </trkpt>
      <trkpt lat="43.570747" lon="4.955571">
        <ele>40.84524</ele>
        <time>2021-07-01T09:34:56Z</time>
      </trkpt>
      <trkpt lat="43.570946" lon="4.955423">
        <ele>40.84488</ele>
        <time>2021-07-01T09:34:57Z</time>
      </trkpt>
      <trkpt lat="43.571136" lon="4.955293">
        <ele>40.62338</ele>
        <time>2021-07-01T09:34:58Z</time>
      </trkpt>
      <trkpt lat="43.571327" lon="4.955165">
        <ele>40.70590</ele>
        <time>2021-07-01T09:34:59Z</time>
      </trkpt>
      <trkpt lat="43.571548" lon="4.955016">
        <ele>40.77053</ele>
        <time>2021-07-01T09:35:00Z</time>
      </trkpt>
      <trkpt lat="43.571819" lon="4.954826">
        <ele>40.88601</ele>
        <time>2021-07-01T09:35:01Z</time>
      </trkpt>
      <trkpt lat="43.572105" lon="4.954619">
        <ele>41.09256</ele>
        <time>2021-07-01T09:35:02Z</time>
      </trkpt>
      <trkpt lat="43.572392" lon="4.954409">
        <ele>41.44333</ele>
        <time>2021-07-01T09:35:03Z</time>
      </trkpt>
      <trkpt lat="43.572617" lon="4.954245">
        <ele>41.41549</ele>
        <time>2021-07-01T09:35:04Z</time>
      </trkpt>
      <trkpt lat="43.572617" lon="4.954245">
        <ele>41.33352</ele>
        <time>2021-07-01T09:35:05Z</time>
      </trkpt>
      <trkpt lat="43.572861" lon="4.954070">
        <ele>41.68838</ele>
        <time>2021-07-01T09:35:06Z</time>
      </trkpt>
      <trkpt lat="43.573090" lon="4.953903">
        <ele>41.73446</ele>
        <time>2021-07-01T09:35:07Z</time>
      </trkpt>
      <trkpt lat="43.573334" lon="4.953726">
        <ele>41.65127</ele>
        <time>2021-07-01T09:35:08Z</time>
      </trkpt>
      <trkpt lat="43.573570" lon="4.953555">
        <ele>41.47659</ele>
        <time>2021-07-01T09:35:09Z</time>
      </trkpt>
      <trkpt lat="43.573811" lon="4.953381">
        <ele>41.64071</ele>
        <time>2021-07-01T09:35:10Z</time>
      </trkpt>
      <trkpt lat="43.574059" lon="4.953200">
        <ele>41.37686</ele>
        <time>2021-07-01T09:35:11Z</time>
      </trkpt>
      <trkpt lat="43.574299" lon="4.953027">
        <ele>41.32296</ele>
        <time>2021-07-01T09:35:12Z</time>
      </trkpt>
      <trkpt lat="43.574528" lon="4.952863">
        <ele>41.46011</ele>
        <time>2021-07-01T09:35:13Z</time>
      </trkpt>
      <trkpt lat="43.574764" lon="4.952691">
        <ele>41.70474</ele>
        <time>2021-07-01T09:35:14Z</time>
      </trkpt>
      <trkpt lat="43.575020" lon="4.952508">
        <ele>41.74936</ele>
        <time>2021-07-01T09:35:15Z</time>
      </trkpt>
      <trkpt lat="43.575279" lon="4.952319">
        <ele>42.09225</ele>
        <time>2021-07-01T09:35:16Z</time>
      </trkpt>
      <trkpt lat="43.575542" lon="4.952131">
        <ele>42.34988</ele>
        <time>2021-07-01T09:35:17Z</time>
      </trkpt>
      <trkpt lat="43.575790" lon="4.951953">
        <ele>42.18960</ele>
        <time>2021-07-01T09:35:18Z</time>
      </trkpt>
      <trkpt lat="43.576038" lon="4.951772">
        <ele>42.12893</ele>
        <time>2021-07-01T09:35:19Z</time>
      </trkpt>
      <trkpt lat="43.576290" lon="4.951592">
        <ele>42.21096</ele>
        <time>2021-07-01T09:35:20Z</time>
      </trkpt>
      <trkpt lat="43.576530" lon="4.951419">
        <ele>42.26205</ele>
        <time>2021-07-01T09:35:21Z</time>
      </trkpt>
      <trkpt lat="43.576763" lon="4.951250">
        <ele>42.33969</ele>
        <time>2021-07-01T09:35:22Z</time>
      </trkpt>
      <trkpt lat="43.576969" lon="4.951101">
        <ele>42.12057</ele>
        <time>2021-07-01T09:35:23Z</time>
      </trkpt>
      <trkpt lat="43.577168" lon="4.950960">
        <ele>42.14187</ele>
        <time>2021-07-01T09:35:24Z</time>
      </trkpt>
      <trkpt lat="43.577354" lon="4.950827">
        <ele>42.37332</ele>
        <time>2021-07-01T09:35:25Z</time>
      </trkpt>
      <trkpt lat="43.577541" lon="4.950690">
        <ele>42.47134</ele>
        <time>2021-07-01T09:35:26Z</time>
      </trkpt>
      <trkpt lat="43.577728" lon="4.950556">
        <ele>42.86740</ele>
        <time>2021-07-01T09:35:27Z</time>
      </trkpt>
      <trkpt lat="43.577908" lon="4.950426">
        <ele>43.06515</ele>
        <time>2021-07-01T09:35:28Z</time>
      </trkpt>
      <trkpt lat="43.578091" lon="4.950295">
        <ele>42.91562</ele>
        <time>2021-07-01T09:35:29Z</time>
      </trkpt>
      <trkpt lat="43.578278" lon="4.950160">
        <ele>42.77279</ele>
        <time>2021-07-01T09:35:30Z</time>
      </trkpt>
      <trkpt lat="43.578472" lon="4.950021">
        <ele>42.86917</ele>
        <time>2021-07-01T09:35:31Z</time>
      </trkpt>
      <trkpt lat="43.578659" lon="4.949886">
        <ele>42.87747</ele>
        <time>2021-07-01T09:35:32Z</time>
      </trkpt>
      <trkpt lat="43.578850" lon="4.949748">
        <ele>43.17935</ele>
        <time>2021-07-01T09:35:33Z</time>
      </trkpt>
      <trkpt lat="43.579025" lon="4.949623">
        <ele>43.39676</ele>
        <time>2021-07-01T09:35:34Z</time>
      </trkpt>
      <trkpt lat="43.579208" lon="4.949489">
        <ele>43.49954</ele>
        <time>2021-07-01T09:35:35Z</time>
      </trkpt>
      <trkpt lat="43.579384" lon="4.949365">
        <ele>42.89175</ele>
        <time>2021-07-01T09:35:36Z</time>
      </trkpt>
      <trkpt lat="43.579552" lon="4.949242">
        <ele>43.06076</ele>
        <time>2021-07-01T09:35:37Z</time>
      </trkpt>
      <trkpt lat="43.579735" lon="4.949111">
        <ele>42.97262</ele>
        <time>2021-07-01T09:35:38Z</time>
      </trkpt>
      <trkpt lat="43.579910" lon="4.948987">
        <ele>43.15170</ele>
        <time>2021-07-01T09:35:39Z</time>
      </trkpt>
      <trkpt lat="43.580097" lon="4.948854">
        <ele>43.54086</ele>
        <time>2021-07-01T09:35:40Z</time>
      </trkpt>
      <trkpt lat="43.580097" lon="4.948854">
        <ele>43.43960</ele>
        <time>2021-07-01T09:35:41Z</time>
      </trkpt>
      <trkpt lat="43.580292" lon="4.948718">
        <ele>43.61709</ele>
        <time>2021-07-01T09:35:42Z</time>
      </trkpt>
      <trkpt lat="43.580498" lon="4.948574">
        <ele>43.53573</ele>
        <time>2021-07-01T09:35:43Z</time>
      </trkpt>
      <trkpt lat="43.580688" lon="4.948439">
        <ele>43.54208</ele>
        <time>2021-07-01T09:35:44Z</time>
      </trkpt>
      <trkpt lat="43.580887" lon="4.948301">
        <ele>43.55032</ele>
        <time>2021-07-01T09:35:45Z</time>
      </trkpt>
      <trkpt lat="43.581078" lon="4.948166">
        <ele>43.54098</ele>
        <time>2021-07-01T09:35:46Z</time>
      </trkpt>
      <trkpt lat="43.581268" lon="4.948027">
        <ele>43.51736</ele>
        <time>2021-07-01T09:35:47Z</time>
      </trkpt>
      <trkpt lat="43.581467" lon="4.947882">
        <ele>43.46432</ele>
        <time>2021-07-01T09:35:48Z</time>
      </trkpt>
      <trkpt lat="43.581661" lon="4.947742">
        <ele>43.37008</ele>
        <time>2021-07-01T09:35:49Z</time>
      </trkpt>
      <trkpt lat="43.581848" lon="4.947604">
        <ele>43.02627</ele>
        <time>2021-07-01T09:35:50Z</time>
      </trkpt>
      <trkpt lat="43.582054" lon="4.947454">
        <ele>42.91714</ele>
        <time>2021-07-01T09:35:51Z</time>
      </trkpt>
      <trkpt lat="43.582283" lon="4.947288">
        <ele>43.26919</ele>
        <time>2021-07-01T09:35:52Z</time>
      </trkpt>
      <trkpt lat="43.582520" lon="4.947120">
        <ele>43.00320</ele>
        <time>2021-07-01T09:35:53Z</time>
      </trkpt>
      <trkpt lat="43.582718" lon="4.946983">
        <ele>43.03500</ele>
        <time>2021-07-01T09:35:54Z</time>
      </trkpt>
      <trkpt lat="43.582897" lon="4.946886">
        <ele>42.97970</ele>
        <time>2021-07-01T09:35:55Z</time>
      </trkpt>
      <trkpt lat="43.583084" lon="4.946786">
        <ele>43.01919</ele>
        <time>2021-07-01T09:35:56Z</time>
      </trkpt>
      <trkpt lat="43.583256" lon="4.946684">
        <ele>42.79208</ele>
        <time>2021-07-01T09:35:57Z</time>
      </trkpt>
      <trkpt lat="43.583424" lon="4.946583">
        <ele>42.76327</ele>
        <time>2021-07-01T09:35:58Z</time>
      </trkpt>
      <trkpt lat="43.583603" lon="4.946487">
        <ele>42.98336</ele>
        <time>2021-07-01T09:35:59Z</time>
      </trkpt>
      <trkpt lat="43.583790" lon="4.946388">
        <ele>43.10861</ele>
        <time>2021-07-01T09:36:00Z</time>
      </trkpt>
      <trkpt lat="43.583977" lon="4.946293">
        <ele>43.33780</ele>
        <time>2021-07-01T09:36:01Z</time>
      </trkpt>
      <trkpt lat="43.584179" lon="4.946198">
        <ele>43.27847</ele>
        <time>2021-07-01T09:36:02Z</time>
      </trkpt>
      <trkpt lat="43.584370" lon="4.946117">
        <ele>43.24142</ele>
        <time>2021-07-01T09:36:03Z</time>
      </trkpt>
      <trkpt lat="43.584572" lon="4.946037">
        <ele>43.92874</ele>
        <time>2021-07-01T09:36:04Z</time>
      </trkpt>
      <trkpt lat="43.584797" lon="4.945960">
        <ele>44.45370</ele>
        <time>2021-07-01T09:36:05Z</time>
      </trkpt>
      <trkpt lat="43.585011" lon="4.945887">
        <ele>44.82235</ele>
        <time>2021-07-01T09:36:06Z</time>
      </trkpt>
      <trkpt lat="43.585220" lon="4.945816">
        <ele>45.09109</ele>
        <time>2021-07-01T09:36:07Z</time>
      </trkpt>
      <trkpt lat="43.585438" lon="4.945757">
        <ele>45.20944</ele>
        <time>2021-07-01T09:36:08Z</time>
      </trkpt>
      <trkpt lat="43.585640" lon="4.945703">
        <ele>45.33908</ele>
        <time>2021-07-01T09:36:09Z</time>
      </trkpt>
      <trkpt lat="43.585857" lon="4.945650">
        <ele>45.65084</ele>
        <time>2021-07-01T09:36:10Z</time>
      </trkpt>
      <trkpt lat="43.586052" lon="4.945616">
        <ele>45.94369</ele>
        <time>2021-07-01T09:36:11Z</time>
      </trkpt>
      <trkpt lat="43.586239" lon="4.945583">
        <ele>46.46420</ele>
        <time>2021-07-01T09:36:12Z</time>
      </trkpt>
      <trkpt lat="43.586422" lon="4.945554">
        <ele>46.30960</ele>
        <time>2021-07-01T09:36:13Z</time>
      </trkpt>
      <trkpt lat="43.586422" lon="4.945554">
        <ele>46.98812</ele>
        <time>2021-07-01T09:36:14Z</time>
      </trkpt>
      <trkpt lat="43.586624" lon="4.945536">
        <ele>47.68966</ele>
        <time>2021-07-01T09:36:15Z</time>
      </trkpt>
      <trkpt lat="43.586815" lon="4.945519">
        <ele>48.38467</ele>
        <time>2021-07-01T09:36:16Z</time>
      </trkpt>
      <trkpt lat="43.587002" lon="4.945456">
        <ele>49.11197</ele>
        <time>2021-07-01T09:36:17Z</time>
      </trkpt>
      <trkpt lat="43.587208" lon="4.945432">
        <ele>49.74856</ele>
        <time>2021-07-01T09:36:18Z</time>
      </trkpt>
      <trkpt lat="43.587418" lon="4.945425">
        <ele>50.11746</ele>
        <time>2021-07-01T09:36:19Z</time>
      </trkpt>
      <trkpt lat="43.587608" lon="4.945421">
        <ele>50.50924</ele>
        <time>2021-07-01T09:36:20Z</time>
      </trkpt>
      <trkpt lat="43.587799" lon="4.945421">
        <ele>50.72891</ele>
        <time>2021-07-01T09:36:21Z</time>
      </trkpt>
      <trkpt lat="43.587994" lon="4.945426">
        <ele>51.11563</ele>
        <time>2021-07-01T09:36:22Z</time>
      </trkpt>
      <trkpt lat="43.588211" lon="4.945446">
        <ele>52.12631</ele>
        <time>2021-07-01T09:36:23Z</time>
      </trkpt>
      <trkpt lat="43.588428" lon="4.945466">
        <ele>52.55954</ele>
        <time>2021-07-01T09:36:24Z</time>
      </trkpt>
      <trkpt lat="43.588634" lon="4.945487">
        <ele>52.71798</ele>
        <time>2021-07-01T09:36:25Z</time>
      </trkpt>
      <trkpt lat="43.588840" lon="4.945508">
        <ele>52.31967</ele>
        <time>2021-07-01T09:36:26Z</time>
      </trkpt>
      <trkpt lat="43.589050" lon="4.945531">
        <ele>52.02841</ele>
        <time>2021-07-01T09:36:27Z</time>
      </trkpt>
      <trkpt lat="43.589272" lon="4.945555">
        <ele>51.71518</ele>
        <time>2021-07-01T09:36:28Z</time>
      </trkpt>
      <trkpt lat="43.589485" lon="4.945579">
        <ele>51.22781</ele>
        <time>2021-07-01T09:36:29Z</time>
      </trkpt>
      <trkpt lat="43.589695" lon="4.945602">
        <ele>50.73617</ele>
        <time>2021-07-01T09:36:30Z</time>
      </trkpt>
      <trkpt lat="43.589909" lon="4.945610">
        <ele>50.43740</ele>
        <time>2021-07-01T09:36:31Z</time>
      </trkpt>
      <trkpt lat="43.590130" lon="4.945612">
        <ele>49.83175</ele>
        <time>2021-07-01T09:36:32Z</time>
      </trkpt>
      <trkpt lat="43.590347" lon="4.945596">
        <ele>49.41879</ele>
        <time>2021-07-01T09:36:33Z</time>
      </trkpt>
      <trkpt lat="43.590557" lon="4.945541">
        <ele>48.84842</ele>
        <time>2021-07-01T09:36:34Z</time>
      </trkpt>
      <trkpt lat="43.590763" lon="4.945467">
        <ele>48.26883</ele>
        <time>2021-07-01T09:36:35Z</time>
      </trkpt>
      <trkpt lat="43.590977" lon="4.945376">
        <ele>47.41726</ele>
        <time>2021-07-01T09:36:36Z</time>
      </trkpt>
      <trkpt lat="43.591179" lon="4.945248">
        <ele>47.01571</ele>
        <time>2021-07-01T09:36:37Z</time>
      </trkpt>
      <trkpt lat="43.591370" lon="4.945124">
        <ele>46.55288</ele>
        <time>2021-07-01T09:36:38Z</time>
      </trkpt>
      <trkpt lat="43.591415" lon="4.945096">
        <ele>46.50314</ele>
        <time>2021-07-01T09:36:39Z</time>
      </trkpt>
      <trkpt lat="43.591743" lon="4.944879">
        <ele>46.33291</ele>
        <time>2021-07-01T09:36:40Z</time>
      </trkpt>
      <trkpt lat="43.592033" lon="4.944685">
        <ele>46.59884</ele>
        <time>2021-07-01T09:36:41Z</time>
      </trkpt>
      <trkpt lat="43.592293" lon="4.944510">
        <ele>46.41555</ele>
        <time>2021-07-01T09:36:42Z</time>
      </trkpt>
      <trkpt lat="43.592632" lon="4.944280">
        <ele>46.06216</ele>
        <time>2021-07-01T09:36:43Z</time>
      </trkpt>
      <trkpt lat="43.592941" lon="4.944072">
        <ele>45.90316</ele>
        <time>2021-07-01T09:36:44Z</time>
      </trkpt>
      <trkpt lat="43.593224" lon="4.943883">
        <ele>46.09640</ele>
        <time>2021-07-01T09:36:45Z</time>
      </trkpt>
      <trkpt lat="43.593494" lon="4.943700">
        <ele>46.47860</ele>
        <time>2021-07-01T09:36:46Z</time>
      </trkpt>
      <trkpt lat="43.593784" lon="4.943508">
        <ele>46.39566</ele>
        <time>2021-07-01T09:36:47Z</time>
      </trkpt>
      <trkpt lat="43.594082" lon="4.943313">
        <ele>46.56875</ele>
        <time>2021-07-01T09:36:48Z</time>
      </trkpt>
      <trkpt lat="43.594391" lon="4.943111">
        <ele>47.03445</ele>
        <time>2021-07-01T09:36:49Z</time>
      </trkpt>
      <trkpt lat="43.594677" lon="4.942918">
        <ele>46.96365</ele>
        <time>2021-07-01T09:36:50Z</time>
      </trkpt>
      <trkpt lat="43.594677" lon="4.942918">
        <ele>47.01602</ele>
        <time>2021-07-01T09:36:51Z</time>
      </trkpt>
      <trkpt lat="43.594955" lon="4.942699">
        <ele>47.09408</ele>
        <time>2021-07-01T09:36:52Z</time>
      </trkpt>
      <trkpt lat="43.595222" lon="4.942461">
        <ele>46.97012</ele>
        <time>2021-07-01T09:36:53Z</time>
      </trkpt>
      <trkpt lat="43.595486" lon="4.942231">
        <ele>46.91250</ele>
        <time>2021-07-01T09:36:54Z</time>
      </trkpt>
      <trkpt lat="43.595757" lon="4.941997">
        <ele>46.96133</ele>
        <time>2021-07-01T09:36:55Z</time>
      </trkpt>
      <trkpt lat="43.596008" lon="4.941736">
        <ele>46.88589</ele>
        <time>2021-07-01T09:36:56Z</time>
      </trkpt>
      <trkpt lat="43.596256" lon="4.941442">
        <ele>46.96200</ele>
        <time>2021-07-01T09:36:57Z</time>
      </trkpt>
      <trkpt lat="43.596493" lon="4.941136">
        <ele>47.16952</ele>
        <time>2021-07-01T09:36:58Z</time>
      </trkpt>
      <trkpt lat="43.596725" lon="4.940825">
        <ele>46.65756</ele>
        <time>2021-07-01T09:36:59Z</time>
      </trkpt>
      <trkpt lat="43.596951" lon="4.940480">
        <ele>46.91964</ele>
        <time>2021-07-01T09:37:00Z</time>
      </trkpt>
      <trkpt lat="43.597164" lon="4.940135">
        <ele>46.76638</ele>
        <time>2021-07-01T09:37:01Z</time>
      </trkpt>
      <trkpt lat="43.597363" lon="4.939794">
        <ele>46.63180</ele>
        <time>2021-07-01T09:37:02Z</time>
      </trkpt>
      <trkpt lat="43.597557" lon="4.939424">
        <ele>46.85800</ele>
        <time>2021-07-01T09:37:03Z</time>
      </trkpt>
      <trkpt lat="43.597786" lon="4.939085">
        <ele>47.05905</ele>
        <time>2021-07-01T09:37:04Z</time>
      </trkpt>
      <trkpt lat="43.597988" lon="4.938741">
        <ele>47.09420</ele>
        <time>2021-07-01T09:37:05Z</time>
      </trkpt>
      <trkpt lat="43.598167" lon="4.938387">
        <ele>47.09652</ele>
        <time>2021-07-01T09:37:06Z</time>
      </trkpt>
      <trkpt lat="43.598343" lon="4.938034">
        <ele>47.07650</ele>
        <time>2021-07-01T09:37:07Z</time>
      </trkpt>
      <trkpt lat="43.598511" lon="4.937698">
        <ele>47.00454</ele>
        <time>2021-07-01T09:37:08Z</time>
      </trkpt>
      <trkpt lat="43.598679" lon="4.937350">
        <ele>47.00265</ele>
        <time>2021-07-01T09:37:09Z</time>
      </trkpt>
      <trkpt lat="43.598858" lon="4.936994">
        <ele>46.71383</ele>
        <time>2021-07-01T09:37:10Z</time>
      </trkpt>
      <trkpt lat="43.599026" lon="4.936653">
        <ele>46.52768</ele>
        <time>2021-07-01T09:37:11Z</time>
      </trkpt>
      <trkpt lat="43.599197" lon="4.936311">
        <ele>46.91439</ele>
        <time>2021-07-01T09:37:12Z</time>
      </trkpt>
      <trkpt lat="43.599339" lon="4.936025">
        <ele>46.70163</ele>
        <time>2021-07-01T09:37:13Z</time>
      </trkpt>
      <trkpt lat="43.599483" lon="4.935778">
        <ele>46.73581</ele>
        <time>2021-07-01T09:37:14Z</time>
      </trkpt>
      <trkpt lat="43.599628" lon="4.935535">
        <ele>46.65506</ele>
        <time>2021-07-01T09:37:15Z</time>
      </trkpt>
      <trkpt lat="43.599781" lon="4.935301">
        <ele>46.46127</ele>
        <time>2021-07-01T09:37:16Z</time>
      </trkpt>
      <trkpt lat="43.599960" lon="4.935047">
        <ele>46.19827</ele>
        <time>2021-07-01T09:37:17Z</time>
      </trkpt>
      <trkpt lat="43.600136" lon="4.934810">
        <ele>45.79904</ele>
        <time>2021-07-01T09:37:18Z</time>
      </trkpt>
      <trkpt lat="43.600296" lon="4.934610">
        <ele>45.44589</ele>
        <time>2021-07-01T09:37:19Z</time>
      </trkpt>
      <trkpt lat="43.600468" lon="4.934428">
        <ele>44.79025</ele>
        <time>2021-07-01T09:37:20Z</time>
      </trkpt>
      <trkpt lat="43.600662" lon="4.934247">
        <ele>44.93856</ele>
        <time>2021-07-01T09:37:21Z</time>
      </trkpt>
      <trkpt lat="43.600842" lon="4.934079">
        <ele>45.00900</ele>
        <time>2021-07-01T09:37:22Z</time>
      </trkpt>
      <trkpt lat="43.601025" lon="4.933861">
        <ele>45.09872</ele>
        <time>2021-07-01T09:37:23Z</time>
      </trkpt>
      <trkpt lat="43.601025" lon="4.933861">
        <ele>45.21371</ele>
        <time>2021-07-01T09:37:24Z</time>
      </trkpt>
      <trkpt lat="43.601265" lon="4.933688">
        <ele>45.39260</ele>
        <time>2021-07-01T09:37:25Z</time>
      </trkpt>
      <trkpt lat="43.601570" lon="4.933469">
        <ele>45.94772</ele>
        <time>2021-07-01T09:37:26Z</time>
      </trkpt>
      <trkpt lat="43.601883" lon="4.933244">
        <ele>46.25051</ele>
        <time>2021-07-01T09:37:27Z</time>
      </trkpt>
      <trkpt lat="43.602123" lon="4.933057">
        <ele>45.98345</ele>
        <time>2021-07-01T09:37:28Z</time>
      </trkpt>
      <trkpt lat="43.602367" lon="4.932864">
        <ele>46.23864</ele>
        <time>2021-07-01T09:37:29Z</time>
      </trkpt>
      <trkpt lat="43.602589" lon="4.932688">
        <ele>46.38616</ele>
        <time>2021-07-01T09:37:30Z</time>
      </trkpt>
      <trkpt lat="43.602798" lon="4.932523">
        <ele>46.31615</ele>
        <time>2021-07-01T09:37:31Z</time>
      </trkpt>
      <trkpt lat="43.602997" lon="4.932409">
        <ele>46.40276</ele>
        <time>2021-07-01T09:37:32Z</time>
      </trkpt>
      <trkpt lat="43.603184" lon="4.932326">
        <ele>46.19036</ele>
        <time>2021-07-01T09:37:33Z</time>
      </trkpt>
      <trkpt lat="43.603329" lon="4.932227">
        <ele>42.95941</ele>
        <time>2021-07-01T09:37:34Z</time>
      </trkpt>
      <trkpt lat="43.603474" lon="4.932195">
        <ele>38.41365</ele>
        <time>2021-07-01T09:37:35Z</time>
      </trkpt>
      <trkpt lat="43.603596" lon="4.932225">
        <ele>37.25210</ele>
        <time>2021-07-01T09:37:36Z</time>
      </trkpt>
      <trkpt lat="43.603699" lon="4.932124">
        <ele>36.95908</ele>
        <time>2021-07-01T09:37:37Z</time>
      </trkpt>
      <trkpt lat="43.603733" lon="4.932033">
        <ele>37.43151</ele>
        <time>2021-07-01T09:37:38Z</time>
      </trkpt>
      <trkpt lat="43.603733" lon="4.932033">
        <ele>37.67989</ele>
        <time>2021-07-01T09:37:39Z</time>
      </trkpt>
      <trkpt lat="43.603733" lon="4.932033">
        <ele>38.31009</ele>
        <time>2021-07-01T09:37:40Z</time>
      </trkpt>
      <trkpt lat="43.603733" lon="4.932033">
        <ele>38.71645</ele>
        <time>2021-07-01T09:37:41Z</time>
      </trkpt>
      <trkpt lat="43.603710" lon="4.931867">
        <ele>38.91402</ele>
        <time>2021-07-01T09:37:42Z</time>
      </trkpt>
      <trkpt lat="43.603752" lon="4.931835">
        <ele>39.43276</ele>
        <time>2021-07-01T09:37:43Z</time>
      </trkpt>
      <trkpt lat="43.603935" lon="4.931716">
        <ele>40.10502</ele>
        <time>2021-07-01T09:37:44Z</time>
      </trkpt>
      <trkpt lat="43.604019" lon="4.931654">
        <ele>41.56212</ele>
        <time>2021-07-01T09:37:45Z</time>
      </trkpt>
      <trkpt lat="43.604225" lon="4.931515">
        <ele>44.41210</ele>
        <time>2021-07-01T09:37:46Z</time>
      </trkpt>
      <trkpt lat="43.604458" lon="4.931352">
        <ele>44.85015</ele>
        <time>2021-07-01T09:37:47Z</time>
      </trkpt>
      <trkpt lat="43.604656" lon="4.931210">
        <ele>45.18621</ele>
        <time>2021-07-01T09:37:48Z</time>
      </trkpt>
      <trkpt lat="43.604897" lon="4.931039">
        <ele>45.20647</ele>
        <time>2021-07-01T09:37:49Z</time>
      </trkpt>
      <trkpt lat="43.605141" lon="4.930863">
        <ele>45.51586</ele>
        <time>2021-07-01T09:37:50Z</time>
      </trkpt>
      <trkpt lat="43.605385" lon="4.930690">
        <ele>45.77745</ele>
        <time>2021-07-01T09:37:51Z</time>
      </trkpt>
      <trkpt lat="43.605610" lon="4.930527">
        <ele>46.17711</ele>
        <time>2021-07-01T09:37:52Z</time>
      </trkpt>
      <trkpt lat="43.605610" lon="4.930527">
        <ele>45.98467</ele>
        <time>2021-07-01T09:37:53Z</time>
      </trkpt>
      <trkpt lat="43.605839" lon="4.930364">
        <ele>45.49920</ele>
        <time>2021-07-01T09:37:54Z</time>
      </trkpt>
      <trkpt lat="43.606075" lon="4.930190">
        <ele>45.43224</ele>
        <time>2021-07-01T09:37:55Z</time>
      </trkpt>
      <trkpt lat="43.606327" lon="4.930005">
        <ele>45.56682</ele>
        <time>2021-07-01T09:37:56Z</time>
      </trkpt>
      <trkpt lat="43.606579" lon="4.929826">
        <ele>44.92998</ele>
        <time>2021-07-01T09:37:57Z</time>
      </trkpt>
      <trkpt lat="43.606857" lon="4.929630">
        <ele>45.23662</ele>
        <time>2021-07-01T09:37:58Z</time>
      </trkpt>
      <trkpt lat="43.607147" lon="4.929422">
        <ele>45.21776</ele>
        <time>2021-07-01T09:37:59Z</time>
      </trkpt>
      <trkpt lat="43.607430" lon="4.929223">
        <ele>45.55321</ele>
        <time>2021-07-01T09:38:00Z</time>
      </trkpt>
      <trkpt lat="43.607712" lon="4.929021">
        <ele>45.41411</ele>
        <time>2021-07-01T09:38:01Z</time>
      </trkpt>
      <trkpt lat="43.607994" lon="4.928820">
        <ele>45.53685</ele>
        <time>2021-07-01T09:38:02Z</time>
      </trkpt>
      <trkpt lat="43.608284" lon="4.928597">
        <ele>45.71459</ele>
        <time>2021-07-01T09:38:03Z</time>
      </trkpt>
      <trkpt lat="43.608578" lon="4.928388">
        <ele>45.95049</ele>
        <time>2021-07-01T09:38:04Z</time>
      </trkpt>
      <trkpt lat="43.608883" lon="4.928181">
        <ele>46.51470</ele>
        <time>2021-07-01T09:38:05Z</time>
      </trkpt>
      <trkpt lat="43.609173" lon="4.927985">
        <ele>47.22197</ele>
        <time>2021-07-01T09:38:06Z</time>
      </trkpt>
      <trkpt lat="43.609474" lon="4.927810">
        <ele>47.37322</ele>
        <time>2021-07-01T09:38:07Z</time>
      </trkpt>
      <trkpt lat="43.609791" lon="4.927665">
        <ele>47.14739</ele>
        <time>2021-07-01T09:38:08Z</time>
      </trkpt>
      <trkpt lat="43.610088" lon="4.927536">
        <ele>47.31127</ele>
        <time>2021-07-01T09:38:09Z</time>
      </trkpt>
      <trkpt lat="43.610401" lon="4.927403">
        <ele>47.79174</ele>
        <time>2021-07-01T09:38:10Z</time>
      </trkpt>
      <trkpt lat="43.610718" lon="4.927267">
        <ele>47.21312</ele>
        <time>2021-07-01T09:38:11Z</time>
      </trkpt>
      <trkpt lat="43.611023" lon="4.927136">
        <ele>46.92931</ele>
        <time>2021-07-01T09:38:12Z</time>
      </trkpt>
      <trkpt lat="43.611320" lon="4.927008">
        <ele>46.92559</ele>
        <time>2021-07-01T09:38:13Z</time>
      </trkpt>
      <trkpt lat="43.611549" lon="4.926910">
        <ele>47.04338</ele>
        <time>2021-07-01T09:38:14Z</time>
      </trkpt>
      <trkpt lat="43.611786" lon="4.926811">
        <ele>47.26097</ele>
        <time>2021-07-01T09:38:15Z</time>
      </trkpt>
      <trkpt lat="43.612019" lon="4.926721">
        <ele>47.17986</ele>
        <time>2021-07-01T09:38:16Z</time>
      </trkpt>
      <trkpt lat="43.612251" lon="4.926629">
        <ele>47.46129</ele>
        <time>2021-07-01T09:38:17Z</time>
      </trkpt>
      <trkpt lat="43.612495" lon="4.926527">
        <ele>47.67760</ele>
        <time>2021-07-01T09:38:18Z</time>
      </trkpt>
      <trkpt lat="43.612720" lon="4.926425">
        <ele>48.17333</ele>
        <time>2021-07-01T09:38:19Z</time>
      </trkpt>
      <trkpt lat="43.612946" lon="4.926319">
        <ele>48.89513</ele>
        <time>2021-07-01T09:38:20Z</time>
      </trkpt>
      <trkpt lat="43.613194" lon="4.926208">
        <ele>48.95263</ele>
        <time>2021-07-01T09:38:21Z</time>
      </trkpt>
      <trkpt lat="43.613430" lon="4.926108">
        <ele>48.78557</ele>
        <time>2021-07-01T09:38:22Z</time>
      </trkpt>
      <trkpt lat="43.613430" lon="4.926108">
        <ele>48.90136</ele>
        <time>2021-07-01T09:38:23Z</time>
      </trkpt>
      <trkpt lat="43.613655" lon="4.926013">
        <ele>48.88250</ele>
        <time>2021-07-01T09:38:24Z</time>
      </trkpt>
      <trkpt lat="43.613869" lon="4.925922">
        <ele>49.01451</ele>
        <time>2021-07-01T09:38:25Z</time>
      </trkpt>
      <trkpt lat="43.614094" lon="4.925827">
        <ele>48.59166</ele>
        <time>2021-07-01T09:38:26Z</time>
      </trkpt>
      <trkpt lat="43.614330" lon="4.925727">
        <ele>48.52190</ele>
        <time>2021-07-01T09:38:27Z</time>
      </trkpt>
      <trkpt lat="43.614582" lon="4.925620">
        <ele>48.48980</ele>
        <time>2021-07-01T09:38:28Z</time>
      </trkpt>
      <trkpt lat="43.614861" lon="4.925503">
        <ele>48.29912</ele>
        <time>2021-07-01T09:38:29Z</time>
      </trkpt>
      <trkpt lat="43.615189" lon="4.925365">
        <ele>48.29461</ele>
        <time>2021-07-01T09:38:30Z</time>
      </trkpt>
      <trkpt lat="43.615494" lon="4.925234">
        <ele>48.17168</ele>
        <time>2021-07-01T09:38:31Z</time>
      </trkpt>
      <trkpt lat="43.615860" lon="4.925077">
        <ele>47.64666</ele>
        <time>2021-07-01T09:38:32Z</time>
      </trkpt>
      <trkpt lat="43.616219" lon="4.924924">
        <ele>47.56554</ele>
        <time>2021-07-01T09:38:33Z</time>
      </trkpt>
      <trkpt lat="43.616547" lon="4.924785">
        <ele>47.54796</ele>
        <time>2021-07-01T09:38:34Z</time>
      </trkpt>
      <trkpt lat="43.616840" lon="4.924660">
        <ele>47.32384</ele>
        <time>2021-07-01T09:38:35Z</time>
      </trkpt>
      <trkpt lat="43.617149" lon="4.924528">
        <ele>47.05260</ele>
        <time>2021-07-01T09:38:36Z</time>
      </trkpt>
      <trkpt lat="43.617466" lon="4.924392">
        <ele>46.86535</ele>
        <time>2021-07-01T09:38:37Z</time>
      </trkpt>
      <trkpt lat="43.617798" lon="4.924248">
        <ele>46.97216</ele>
        <time>2021-07-01T09:38:38Z</time>
      </trkpt>
      <trkpt lat="43.618134" lon="4.924101">
        <ele>47.04967</ele>
        <time>2021-07-01T09:38:39Z</time>
      </trkpt>
      <trkpt lat="43.618446" lon="4.923965">
        <ele>46.95531</ele>
        <time>2021-07-01T09:38:40Z</time>
      </trkpt>
      <trkpt lat="43.618759" lon="4.923830">
        <ele>47.01207</ele>
        <time>2021-07-01T09:38:41Z</time>
      </trkpt>
      <trkpt lat="43.619068" lon="4.923695">
        <ele>46.79729</ele>
        <time>2021-07-01T09:38:42Z</time>
      </trkpt>
      <trkpt lat="43.619392" lon="4.923555">
        <ele>46.94597</ele>
        <time>2021-07-01T09:38:43Z</time>
      </trkpt>
      <trkpt lat="43.619720" lon="4.923412">
        <ele>46.60381</ele>
        <time>2021-07-01T09:38:44Z</time>
      </trkpt>
      <trkpt lat="43.620056" lon="4.923266">
        <ele>46.37420</ele>
        <time>2021-07-01T09:38:45Z</time>
      </trkpt>
      <trkpt lat="43.620388" lon="4.923122">
        <ele>46.41222</ele>
        <time>2021-07-01T09:38:46Z</time>
      </trkpt>
      <trkpt lat="43.620705" lon="4.922985">
        <ele>46.70739</ele>
        <time>2021-07-01T09:38:47Z</time>
      </trkpt>
      <trkpt lat="43.621017" lon="4.922848">
        <ele>46.74700</ele>
        <time>2021-07-01T09:38:48Z</time>
      </trkpt>
      <trkpt lat="43.621330" lon="4.922710">
        <ele>46.88567</ele>
        <time>2021-07-01T09:38:49Z</time>
      </trkpt>
      <trkpt lat="43.621651" lon="4.922569">
        <ele>46.49242</ele>
        <time>2021-07-01T09:38:50Z</time>
      </trkpt>
      <trkpt lat="43.621986" lon="4.922421">
        <ele>46.45177</ele>
        <time>2021-07-01T09:38:51Z</time>
      </trkpt>
      <trkpt lat="43.622292" lon="4.922288">
        <ele>46.26189</ele>
        <time>2021-07-01T09:38:52Z</time>
      </trkpt>
      <trkpt lat="43.622623" lon="4.922146">
        <ele>46.27135</ele>
        <time>2021-07-01T09:38:53Z</time>
      </trkpt>
      <trkpt lat="43.622959" lon="4.922003">
        <ele>45.91161</ele>
        <time>2021-07-01T09:38:54Z</time>
      </trkpt>
      <trkpt lat="43.623287" lon="4.921862">
        <ele>45.81444</ele>
        <time>2021-07-01T09:38:55Z</time>
      </trkpt>
      <trkpt lat="43.623611" lon="4.921724">
        <ele>45.84673</ele>
        <time>2021-07-01T09:38:56Z</time>
      </trkpt>
      <trkpt lat="43.623947" lon="4.921579">
        <ele>45.54015</ele>
        <time>2021-07-01T09:38:57Z</time>
      </trkpt>
      <trkpt lat="43.624283" lon="4.921433">
        <ele>45.78020</ele>
        <time>2021-07-01T09:38:58Z</time>
      </trkpt>
      <trkpt lat="43.624626" lon="4.921281">
        <ele>45.80132</ele>
        <time>2021-07-01T09:38:59Z</time>
      </trkpt>
      <trkpt lat="43.624626" lon="4.921281">
        <ele>45.55547</ele>
        <time>2021-07-01T09:39:00Z</time>
      </trkpt>
      <trkpt lat="43.624969" lon="4.921131">
        <ele>45.45385</ele>
        <time>2021-07-01T09:39:01Z</time>
      </trkpt>
      <trkpt lat="43.625301" lon="4.920987">
        <ele>45.55980</ele>
        <time>2021-07-01T09:39:02Z</time>
      </trkpt>
      <trkpt lat="43.625629" lon="4.920842">
        <ele>45.74468</ele>
        <time>2021-07-01T09:39:03Z</time>
      </trkpt>
      <trkpt lat="43.625942" lon="4.920704">
        <ele>45.54766</ele>
        <time>2021-07-01T09:39:04Z</time>
      </trkpt>
      <trkpt lat="43.626259" lon="4.920567">
        <ele>45.33648</ele>
        <time>2021-07-01T09:39:05Z</time>
      </trkpt>
      <trkpt lat="43.626560" lon="4.920433">
        <ele>45.43309</ele>
        <time>2021-07-01T09:39:06Z</time>
      </trkpt>
      <trkpt lat="43.626888" lon="4.920290">
        <ele>45.56957</ele>
        <time>2021-07-01T09:39:07Z</time>
      </trkpt>
      <trkpt lat="43.627228" lon="4.920141">
        <ele>45.60161</ele>
        <time>2021-07-01T09:39:08Z</time>
      </trkpt>
      <trkpt lat="43.627556" lon="4.919997">
        <ele>45.43981</ele>
        <time>2021-07-01T09:39:09Z</time>
      </trkpt>
      <trkpt lat="43.627876" lon="4.919856">
        <ele>45.06469</ele>
        <time>2021-07-01T09:39:10Z</time>
      </trkpt>
      <trkpt lat="43.628193" lon="4.919718">
        <ele>45.09392</ele>
        <time>2021-07-01T09:39:11Z</time>
      </trkpt>
      <trkpt lat="43.628494" lon="4.919585">
        <ele>45.00969</ele>
        <time>2021-07-01T09:39:12Z</time>
      </trkpt>
      <trkpt lat="43.628799" lon="4.919452">
        <ele>45.30236</ele>
        <time>2021-07-01T09:39:13Z</time>
      </trkpt>
      <trkpt lat="43.629097" lon="4.919326">
        <ele>44.87578</ele>
        <time>2021-07-01T09:39:14Z</time>
      </trkpt>
      <trkpt lat="43.629391" lon="4.919201">
        <ele>44.98204</ele>
        <time>2021-07-01T09:39:15Z</time>
      </trkpt>
      <trkpt lat="43.629681" lon="4.919080">
        <ele>45.00414</ele>
        <time>2021-07-01T09:39:16Z</time>
      </trkpt>
      <trkpt lat="43.629967" lon="4.918958">
        <ele>45.09453</ele>
        <time>2021-07-01T09:39:17Z</time>
      </trkpt>
      <trkpt lat="43.630245" lon="4.918841">
        <ele>45.11577</ele>
        <time>2021-07-01T09:39:18Z</time>
      </trkpt>
      <trkpt lat="43.630524" lon="4.918724">
        <ele>45.18316</ele>
        <time>2021-07-01T09:39:19Z</time>
      </trkpt>
      <trkpt lat="43.630787" lon="4.918612">
        <ele>45.26085</ele>
        <time>2021-07-01T09:39:20Z</time>
      </trkpt>
      <trkpt lat="43.631050" lon="4.918502">
        <ele>45.62047</ele>
        <time>2021-07-01T09:39:21Z</time>
      </trkpt>
      <trkpt lat="43.631279" lon="4.918405">
        <ele>45.83446</ele>
        <time>2021-07-01T09:39:22Z</time>
      </trkpt>
      <trkpt lat="43.631504" lon="4.918308">
        <ele>45.93767</ele>
        <time>2021-07-01T09:39:23Z</time>
      </trkpt>
      <trkpt lat="43.631733" lon="4.918210">
        <ele>45.88720</ele>
        <time>2021-07-01T09:39:24Z</time>
      </trkpt>
      <trkpt lat="43.631958" lon="4.918114">
        <ele>46.17424</ele>
        <time>2021-07-01T09:39:25Z</time>
      </trkpt>
      <trkpt lat="43.632195" lon="4.918014">
        <ele>46.66649</ele>
        <time>2021-07-01T09:39:26Z</time>
      </trkpt>
      <trkpt lat="43.632427" lon="4.917914">
        <ele>46.95189</ele>
        <time>2021-07-01T09:39:27Z</time>
      </trkpt>
      <trkpt lat="43.632427" lon="4.917914">
        <ele>47.00945</ele>
        <time>2021-07-01T09:39:28Z</time>
      </trkpt>
      <trkpt lat="43.632648" lon="4.917820">
        <ele>47.09990</ele>
        <time>2021-07-01T09:39:29Z</time>
      </trkpt>
      <trkpt lat="43.632847" lon="4.917736">
        <ele>47.07390</ele>
        <time>2021-07-01T09:39:30Z</time>
      </trkpt>
      <trkpt lat="43.633038" lon="4.917654">
        <ele>47.28087</ele>
        <time>2021-07-01T09:39:31Z</time>
      </trkpt>
      <trkpt lat="43.633217" lon="4.917577">
        <ele>46.44744</ele>
        <time>2021-07-01T09:39:32Z</time>
      </trkpt>
      <trkpt lat="43.633408" lon="4.917497">
        <ele>46.47374</ele>
        <time>2021-07-01T09:39:33Z</time>
      </trkpt>
      <trkpt lat="43.633595" lon="4.917417">
        <ele>46.21575</ele>
        <time>2021-07-01T09:39:34Z</time>
      </trkpt>
      <trkpt lat="43.633766" lon="4.917344">
        <ele>35.47039</ele>
        <time>2021-07-01T09:39:35Z</time>
      </trkpt>
      <trkpt lat="43.633926" lon="4.917275">
        <ele>34.99450</ele>
        <time>2021-07-01T09:39:36Z</time>
      </trkpt>
      <trkpt lat="43.634087" lon="4.917206">
        <ele>35.98331</ele>
        <time>2021-07-01T09:39:37Z</time>
      </trkpt>
      <trkpt lat="43.634262" lon="4.917132">
        <ele>45.76854</ele>
        <time>2021-07-01T09:39:38Z</time>
      </trkpt>
      <trkpt lat="43.634449" lon="4.917052">
        <ele>46.01659</ele>
        <time>2021-07-01T09:39:39Z</time>
      </trkpt>
      <trkpt lat="43.634682" lon="4.916952">
        <ele>46.76366</ele>
        <time>2021-07-01T09:39:40Z</time>
      </trkpt>
      <trkpt lat="43.634941" lon="4.916842">
        <ele>46.89122</ele>
        <time>2021-07-01T09:39:41Z</time>
      </trkpt>
      <trkpt lat="43.635201" lon="4.916732">
        <ele>48.06121</ele>
        <time>2021-07-01T09:39:42Z</time>
      </trkpt>
      <trkpt lat="43.635456" lon="4.916622">
        <ele>47.74370</ele>
        <time>2021-07-01T09:39:43Z</time>
      </trkpt>
      <trkpt lat="43.635704" lon="4.916517">
        <ele>47.89537</ele>
        <time>2021-07-01T09:39:44Z</time>
      </trkpt>
      <trkpt lat="43.635937" lon="4.916418">
        <ele>47.55278</ele>
        <time>2021-07-01T09:39:45Z</time>
      </trkpt>
      <trkpt lat="43.636166" lon="4.916320">
        <ele>47.65209</ele>
        <time>2021-07-01T09:39:46Z</time>
      </trkpt>
      <trkpt lat="43.636379" lon="4.916229">
        <ele>47.25304</ele>
        <time>2021-07-01T09:39:47Z</time>
      </trkpt>
      <trkpt lat="43.636593" lon="4.916138">
        <ele>47.24187</ele>
        <time>2021-07-01T09:39:48Z</time>
      </trkpt>
      <trkpt lat="43.636784" lon="4.916057">
        <ele>46.98229</ele>
        <time>2021-07-01T09:39:49Z</time>
      </trkpt>
      <trkpt lat="43.636967" lon="4.915978">
        <ele>47.33190</ele>
        <time>2021-07-01T09:39:50Z</time>
      </trkpt>
      <trkpt lat="43.637138" lon="4.915905">
        <ele>36.54276</ele>
        <time>2021-07-01T09:39:51Z</time>
      </trkpt>
      <trkpt lat="43.637299" lon="4.915836">
        <ele>35.90310</ele>
        <time>2021-07-01T09:39:52Z</time>
      </trkpt>
      <trkpt lat="43.637447" lon="4.915773">
        <ele>35.93517</ele>
        <time>2021-07-01T09:39:53Z</time>
      </trkpt>
      <trkpt lat="43.637596" lon="4.915710">
        <ele>35.05953</ele>
        <time>2021-07-01T09:39:54Z</time>
      </trkpt>
      <trkpt lat="43.637737" lon="4.915650">
        <ele>34.26746</ele>
        <time>2021-07-01T09:39:55Z</time>
      </trkpt>
      <trkpt lat="43.637737" lon="4.915650">
        <ele>34.12697</ele>
        <time>2021-07-01T09:39:56Z</time>
      </trkpt>
      <trkpt lat="43.637878" lon="4.915582">
        <ele>34.37364</ele>
        <time>2021-07-01T09:39:57Z</time>
      </trkpt>
      <trkpt lat="43.638016" lon="4.915516">
        <ele>34.71881</ele>
        <time>2021-07-01T09:39:58Z</time>
      </trkpt>
      <trkpt lat="43.638165" lon="4.915440">
        <ele>34.04854</ele>
        <time>2021-07-01T09:39:59Z</time>
      </trkpt>
      <trkpt lat="43.638313" lon="4.915368">
        <ele>34.80139</ele>
        <time>2021-07-01T09:40:00Z</time>
      </trkpt>
      <trkpt lat="43.638447" lon="4.915315">
        <ele>34.61129</ele>
        <time>2021-07-01T09:40:01Z</time>
      </trkpt>
      <trkpt lat="43.638588" lon="4.915258">
        <ele>34.62904</ele>
        <time>2021-07-01T09:40:02Z</time>
      </trkpt>
      <trkpt lat="43.638714" lon="4.915211">
        <ele>33.92943</ele>
        <time>2021-07-01T09:40:03Z</time>
      </trkpt>
      <trkpt lat="43.638824" lon="4.915158">
        <ele>34.02521</ele>
        <time>2021-07-01T09:40:04Z</time>
      </trkpt>
      <trkpt lat="43.638954" lon="4.915095">
        <ele>33.88197</ele>
        <time>2021-07-01T09:40:05Z</time>
      </trkpt>
      <trkpt lat="43.639080" lon="4.915060">
        <ele>33.02619</ele>
        <time>2021-07-01T09:40:06Z</time>
      </trkpt>
      <trkpt lat="43.639122" lon="4.915065">
        <ele>32.32985</ele>
        <time>2021-07-01T09:40:07Z</time>
      </trkpt>
      <trkpt lat="43.639206" lon="4.915063">
        <ele>32.26321</ele>
        <time>2021-07-01T09:40:08Z</time>
      </trkpt>
      <trkpt lat="43.639259" lon="4.915057">
        <ele>32.50993</ele>
        <time>2021-07-01T09:40:09Z</time>
      </trkpt>
      <trkpt lat="43.639324" lon="4.915048">
        <ele>32.88812</ele>
        <time>2021-07-01T09:40:10Z</time>
      </trkpt>
      <trkpt lat="43.639389" lon="4.915040">
        <ele>32.86457</ele>
        <time>2021-07-01T09:40:11Z</time>
      </trkpt>
      <trkpt lat="43.639442" lon="4.915035">
        <ele>32.57904</ele>
        <time>2021-07-01T09:40:12Z</time>
      </trkpt>
      <trkpt lat="43.639488" lon="4.915035">
        <ele>32.33897</ele>
        <time>2021-07-01T09:40:13Z</time>
      </trkpt>
      <trkpt lat="43.639526" lon="4.915035">
        <ele>32.40947</ele>
        <time>2021-07-01T09:40:14Z</time>
      </trkpt>
      <trkpt lat="43.639572" lon="4.915035">
        <ele>32.45070</ele>
        <time>2021-07-01T09:40:15Z</time>
      </trkpt>
      <trkpt lat="43.639664" lon="4.915035">
        <ele>33.58216</ele>
        <time>2021-07-01T09:40:16Z</time>
      </trkpt>
      <trkpt lat="43.639740" lon="4.915085">
        <ele>34.09908</ele>
        <time>2021-07-01T09:40:17Z</time>
      </trkpt>
      <trkpt lat="43.639839" lon="4.915225">
        <ele>34.71509</ele>
        <time>2021-07-01T09:40:18Z</time>
      </trkpt>
      <trkpt lat="43.639961" lon="4.915282">
        <ele>34.59774</ele>
        <time>2021-07-01T09:40:19Z</time>
      </trkpt>
      <trkpt lat="43.640049" lon="4.915281">
        <ele>34.39849</ele>
        <time>2021-07-01T09:40:20Z</time>
      </trkpt>
      <trkpt lat="43.640141" lon="4.915251">
        <ele>34.30936</ele>
        <time>2021-07-01T09:40:21Z</time>
      </trkpt>
      <trkpt lat="43.640224" lon="4.915159">
        <ele>34.46944</ele>
        <time>2021-07-01T09:40:22Z</time>
      </trkpt>
      <trkpt lat="43.640293" lon="4.915004">
        <ele>34.63215</ele>
        <time>2021-07-01T09:40:23Z</time>
      </trkpt>
      <trkpt lat="43.640301" lon="4.914836">
        <ele>35.06247</ele>
        <time>2021-07-01T09:40:24Z</time>
      </trkpt>
      <trkpt lat="43.640266" lon="4.914689">
        <ele>35.55191</ele>
        <time>2021-07-01T09:40:25Z</time>
      </trkpt>
      <trkpt lat="43.640205" lon="4.914562">
        <ele>35.21867</ele>
        <time>2021-07-01T09:40:26Z</time>
      </trkpt>
      <trkpt lat="43.640110" lon="4.914479">
        <ele>34.63593</ele>
        <time>2021-07-01T09:40:27Z</time>
      </trkpt>
      <trkpt lat="43.640060" lon="4.914440">
        <ele>34.87868</ele>
        <time>2021-07-01T09:40:28Z</time>
      </trkpt>
      <trkpt lat="43.639980" lon="4.914229">
        <ele>35.06704</ele>
        <time>2021-07-01T09:40:29Z</time>
      </trkpt>
      <trkpt lat="43.639980" lon="4.914229">
        <ele>35.26160</ele>
        <time>2021-07-01T09:40:30Z</time>
      </trkpt>
      <trkpt lat="43.639935" lon="4.914015">
        <ele>36.40553</ele>
        <time>2021-07-01T09:40:31Z</time>
      </trkpt>
      <trkpt lat="43.639896" lon="4.913774">
        <ele>37.07431</ele>
        <time>2021-07-01T09:40:32Z</time>
      </trkpt>
      <trkpt lat="43.639851" lon="4.913474">
        <ele>45.19103</ele>
        <time>2021-07-01T09:40:33Z</time>
      </trkpt>
      <trkpt lat="43.639805" lon="4.913190">
        <ele>45.11809</ele>
        <time>2021-07-01T09:40:34Z</time>
      </trkpt>
      <trkpt lat="43.639740" lon="4.912883">
        <ele>45.34966</ele>
        <time>2021-07-01T09:40:35Z</time>
      </trkpt>
      <trkpt lat="43.639732" lon="4.912550">
        <ele>44.70226</ele>
        <time>2021-07-01T09:40:36Z</time>
      </trkpt>
      <trkpt lat="43.639732" lon="4.912162">
        <ele>44.79692</ele>
        <time>2021-07-01T09:40:37Z</time>
      </trkpt>
      <trkpt lat="43.639736" lon="4.911797">
        <ele>44.40068</ele>
        <time>2021-07-01T09:40:38Z</time>
      </trkpt>
      <trkpt lat="43.639736" lon="4.911441">
        <ele>44.64623</ele>
        <time>2021-07-01T09:40:39Z</time>
      </trkpt>
      <trkpt lat="43.639736" lon="4.911121">
        <ele>44.36339</ele>
        <time>2021-07-01T09:40:40Z</time>
      </trkpt>
      <trkpt lat="43.639740" lon="4.910781">
        <ele>44.00475</ele>
        <time>2021-07-01T09:40:41Z</time>
      </trkpt>
      <trkpt lat="43.639740" lon="4.910453">
        <ele>44.01433</ele>
        <time>2021-07-01T09:40:42Z</time>
      </trkpt>
      <trkpt lat="43.639740" lon="4.910165">
        <ele>44.06359</ele>
        <time>2021-07-01T09:40:43Z</time>
      </trkpt>
      <trkpt lat="43.639744" lon="4.909879">
        <ele>44.23082</ele>
        <time>2021-07-01T09:40:44Z</time>
      </trkpt>
      <trkpt lat="43.639744" lon="4.909597">
        <ele>44.46044</ele>
        <time>2021-07-01T09:40:45Z</time>
      </trkpt>
      <trkpt lat="43.639744" lon="4.909325">
        <ele>43.83495</ele>
        <time>2021-07-01T09:40:46Z</time>
      </trkpt>
      <trkpt lat="43.639740" lon="4.908995">
        <ele>43.95678</ele>
        <time>2021-07-01T09:40:47Z</time>
      </trkpt>
      <trkpt lat="43.639736" lon="4.908576">
        <ele>43.69585</ele>
        <time>2021-07-01T09:40:48Z</time>
      </trkpt>
      <trkpt lat="43.639732" lon="4.908058">
        <ele>43.54863</ele>
        <time>2021-07-01T09:40:49Z</time>
      </trkpt>
      <trkpt lat="43.639729" lon="4.907544">
        <ele>43.33910</ele>
        <time>2021-07-01T09:40:50Z</time>
      </trkpt>
      <trkpt lat="43.639725" lon="4.906980">
        <ele>43.27617</ele>
        <time>2021-07-01T09:40:51Z</time>
      </trkpt>
      <trkpt lat="43.639721" lon="4.906354">
        <ele>43.09087</ele>
        <time>2021-07-01T09:40:52Z</time>
      </trkpt>
      <trkpt lat="43.639717" lon="4.905794">
        <ele>43.43743</ele>
        <time>2021-07-01T09:40:53Z</time>
      </trkpt>
      <trkpt lat="43.639713" lon="4.905324">
        <ele>43.06762</ele>
        <time>2021-07-01T09:40:54Z</time>
      </trkpt>
      <trkpt lat="43.639713" lon="4.904882">
        <ele>42.68779</ele>
        <time>2021-07-01T09:40:55Z</time>
      </trkpt>
      <trkpt lat="43.639709" lon="4.904445">
        <ele>42.66845</ele>
        <time>2021-07-01T09:40:56Z</time>
      </trkpt>
      <trkpt lat="43.639709" lon="4.904036">
        <ele>42.86132</ele>
        <time>2021-07-01T09:40:57Z</time>
      </trkpt>
      <trkpt lat="43.639713" lon="4.903635">
        <ele>42.65490</ele>
        <time>2021-07-01T09:40:58Z</time>
      </trkpt>
      <trkpt lat="43.639713" lon="4.903229">
        <ele>42.56444</ele>
        <time>2021-07-01T09:40:59Z</time>
      </trkpt>
      <trkpt lat="43.639713" lon="4.903229">
        <ele>42.63549</ele>
        <time>2021-07-01T09:41:00Z</time>
      </trkpt>
      <trkpt lat="43.639713" lon="4.902823">
        <ele>42.73632</ele>
        <time>2021-07-01T09:41:01Z</time>
      </trkpt>
      <trkpt lat="43.639717" lon="4.902399">
        <ele>42.54576</ele>
        <time>2021-07-01T09:41:02Z</time>
      </trkpt>
      <trkpt lat="43.639717" lon="4.901985">
        <ele>42.58440</ele>
        <time>2021-07-01T09:41:03Z</time>
      </trkpt>
      <trkpt lat="43.639721" lon="4.901568">
        <ele>42.78832</ele>
        <time>2021-07-01T09:41:04Z</time>
      </trkpt>
      <trkpt lat="43.639713" lon="4.901154">
        <ele>42.81157</ele>
        <time>2021-07-01T09:41:05Z</time>
      </trkpt>
      <trkpt lat="43.639709" lon="4.900739">
        <ele>42.65245</ele>
        <time>2021-07-01T09:41:06Z</time>
      </trkpt>
      <trkpt lat="43.639702" lon="4.900348">
        <ele>42.91954</ele>
        <time>2021-07-01T09:41:07Z</time>
      </trkpt>
      <trkpt lat="43.639694" lon="4.899942">
        <ele>42.99828</ele>
        <time>2021-07-01T09:41:08Z</time>
      </trkpt>
      <trkpt lat="43.639690" lon="4.899523">
        <ele>42.20067</ele>
        <time>2021-07-01T09:41:09Z</time>
      </trkpt>
      <trkpt lat="43.639687" lon="4.899104">
        <ele>41.97472</ele>
        <time>2021-07-01T09:41:10Z</time>
      </trkpt>
      <trkpt lat="43.639679" lon="4.898705">
        <ele>41.61699</ele>
        <time>2021-07-01T09:41:11Z</time>
      </trkpt>
      <trkpt lat="43.639675" lon="4.898311">
        <ele>41.82201</ele>
        <time>2021-07-01T09:41:12Z</time>
      </trkpt>
      <trkpt lat="43.639668" lon="4.897922">
        <ele>41.84281</ele>
        <time>2021-07-01T09:41:13Z</time>
      </trkpt>
      <trkpt lat="43.639664" lon="4.897538">
        <ele>41.82535</ele>
        <time>2021-07-01T09:41:14Z</time>
      </trkpt>
      <trkpt lat="43.639660" lon="4.897156">
        <ele>41.65348</ele>
        <time>2021-07-01T09:41:15Z</time>
      </trkpt>
      <trkpt lat="43.639656" lon="4.896793">
        <ele>41.64115</ele>
        <time>2021-07-01T09:41:16Z</time>
      </trkpt>
      <trkpt lat="43.639652" lon="4.896427">
        <ele>41.69767</ele>
        <time>2021-07-01T09:41:17Z</time>
      </trkpt>
      <trkpt lat="43.639652" lon="4.896080">
        <ele>41.43033</ele>
        <time>2021-07-01T09:41:18Z</time>
      </trkpt>
      <trkpt lat="43.639648" lon="4.895726">
        <ele>41.39096</ele>
        <time>2021-07-01T09:41:19Z</time>
      </trkpt>
      <trkpt lat="43.639648" lon="4.895383">
        <ele>41.26340</ele>
        <time>2021-07-01T09:41:20Z</time>
      </trkpt>
      <trkpt lat="43.639645" lon="4.895037">
        <ele>41.17093</ele>
        <time>2021-07-01T09:41:21Z</time>
      </trkpt>
      <trkpt lat="43.639645" lon="4.894733">
        <ele>40.81473</ele>
        <time>2021-07-01T09:41:22Z</time>
      </trkpt>
      <trkpt lat="43.639645" lon="4.894432">
        <ele>40.84745</ele>
        <time>2021-07-01T09:41:23Z</time>
      </trkpt>
      <trkpt lat="43.639641" lon="4.894131">
        <ele>40.85239</ele>
        <time>2021-07-01T09:41:24Z</time>
      </trkpt>
      <trkpt lat="43.639641" lon="4.893821">
        <ele>40.85373</ele>
        <time>2021-07-01T09:41:25Z</time>
      </trkpt>
      <trkpt lat="43.639637" lon="4.893528">
        <ele>40.43436</ele>
        <time>2021-07-01T09:41:26Z</time>
      </trkpt>
      <trkpt lat="43.639629" lon="4.893253">
        <ele>40.53122</ele>
        <time>2021-07-01T09:41:27Z</time>
      </trkpt>
      <trkpt lat="43.639626" lon="4.892979">
        <ele>40.71958</ele>
        <time>2021-07-01T09:41:28Z</time>
      </trkpt>
      <trkpt lat="43.639618" lon="4.892717">
        <ele>40.71140</ele>
        <time>2021-07-01T09:41:29Z</time>
      </trkpt>
      <trkpt lat="43.639614" lon="4.892431">
        <ele>40.78366</ele>
        <time>2021-07-01T09:41:30Z</time>
      </trkpt>
      <trkpt lat="43.639614" lon="4.892143">
        <ele>40.59037</ele>
        <time>2021-07-01T09:41:31Z</time>
      </trkpt>
      <trkpt lat="43.639614" lon="4.891853">
        <ele>40.45353</ele>
        <time>2021-07-01T09:41:32Z</time>
      </trkpt>
      <trkpt lat="43.639614" lon="4.891853">
        <ele>40.28153</ele>
        <time>2021-07-01T09:41:33Z</time>
      </trkpt>
      <trkpt lat="43.639610" lon="4.891536">
        <ele>40.44999</ele>
        <time>2021-07-01T09:41:34Z</time>
      </trkpt>
      <trkpt lat="43.639603" lon="4.891213">
        <ele>40.42154</ele>
        <time>2021-07-01T09:41:35Z</time>
      </trkpt>
      <trkpt lat="43.639591" lon="4.890896">
        <ele>40.38309</ele>
        <time>2021-07-01T09:41:36Z</time>
      </trkpt>
      <trkpt lat="43.639580" lon="4.890556">
        <ele>40.39334</ele>
        <time>2021-07-01T09:41:37Z</time>
      </trkpt>
      <trkpt lat="43.639572" lon="4.890229">
        <ele>40.06278</ele>
        <time>2021-07-01T09:41:38Z</time>
      </trkpt>
      <trkpt lat="43.639572" lon="4.889909">
        <ele>40.35270</ele>
        <time>2021-07-01T09:41:39Z</time>
      </trkpt>
      <trkpt lat="43.639572" lon="4.889613">
        <ele>40.66001</ele>
        <time>2021-07-01T09:41:40Z</time>
      </trkpt>
      <trkpt lat="43.639576" lon="4.889325">
        <ele>40.74417</ele>
        <time>2021-07-01T09:41:41Z</time>
      </trkpt>
      <trkpt lat="43.639576" lon="4.889057">
        <ele>40.88138</ele>
        <time>2021-07-01T09:41:42Z</time>
      </trkpt>
      <trkpt lat="43.639576" lon="4.888767">
        <ele>41.17942</ele>
        <time>2021-07-01T09:41:43Z</time>
      </trkpt>
      <trkpt lat="43.639576" lon="4.888482">
        <ele>41.28922</ele>
        <time>2021-07-01T09:41:44Z</time>
      </trkpt>
      <trkpt lat="43.639576" lon="4.888175">
        <ele>41.39023</ele>
        <time>2021-07-01T09:41:45Z</time>
      </trkpt>
      <trkpt lat="43.639580" lon="4.887864">
        <ele>41.56693</ele>
        <time>2021-07-01T09:41:46Z</time>
      </trkpt>
      <trkpt lat="43.639591" lon="4.887548">
        <ele>41.83365</ele>
        <time>2021-07-01T09:41:47Z</time>
      </trkpt>
      <trkpt lat="43.639603" lon="4.887262">
        <ele>41.84836</ele>
        <time>2021-07-01T09:41:48Z</time>
      </trkpt>
      <trkpt lat="43.639614" lon="4.886992">
        <ele>41.17234</ele>
        <time>2021-07-01T09:41:49Z</time>
      </trkpt>
      <trkpt lat="43.639626" lon="4.886706">
        <ele>41.02738</ele>
        <time>2021-07-01T09:41:50Z</time>
      </trkpt>
      <trkpt lat="43.639637" lon="4.886419">
        <ele>40.95603</ele>
        <time>2021-07-01T09:41:51Z</time>
      </trkpt>
      <trkpt lat="43.639648" lon="4.886129">
        <ele>40.77433</ele>
        <time>2021-07-01T09:41:52Z</time>
      </trkpt>
      <trkpt lat="43.639660" lon="4.885822">
        <ele>40.80014</ele>
        <time>2021-07-01T09:41:53Z</time>
      </trkpt>
      <trkpt lat="43.639671" lon="4.885533">
        <ele>40.68894</ele>
        <time>2021-07-01T09:41:54Z</time>
      </trkpt>
      <trkpt lat="43.639683" lon="4.885240">
        <ele>40.26444</ele>
        <time>2021-07-01T09:41:55Z</time>
      </trkpt>
      <trkpt lat="43.639694" lon="4.884956">
        <ele>39.88913</ele>
        <time>2021-07-01T09:41:56Z</time>
      </trkpt>
      <trkpt lat="43.639706" lon="4.884648">
        <ele>39.87436</ele>
        <time>2021-07-01T09:41:57Z</time>
      </trkpt>
      <trkpt lat="43.639717" lon="4.884364">
        <ele>40.18601</ele>
        <time>2021-07-01T09:41:58Z</time>
      </trkpt>
      <trkpt lat="43.639721" lon="4.884074">
        <ele>40.55918</ele>
        <time>2021-07-01T09:41:59Z</time>
      </trkpt>
      <trkpt lat="43.639721" lon="4.883790">
        <ele>40.88852</ele>
        <time>2021-07-01T09:42:00Z</time>
      </trkpt>
      <trkpt lat="43.639721" lon="4.883498">
        <ele>40.85501</ele>
        <time>2021-07-01T09:42:01Z</time>
      </trkpt>
      <trkpt lat="43.639721" lon="4.883225">
        <ele>40.82126</ele>
        <time>2021-07-01T09:42:02Z</time>
      </trkpt>
      <trkpt lat="43.639717" lon="4.882938">
        <ele>40.46140</ele>
        <time>2021-07-01T09:42:03Z</time>
      </trkpt>
      <trkpt lat="43.639717" lon="4.882651">
        <ele>40.41837</ele>
        <time>2021-07-01T09:42:04Z</time>
      </trkpt>
      <trkpt lat="43.639713" lon="4.882345">
        <ele>41.03989</ele>
        <time>2021-07-01T09:42:05Z</time>
      </trkpt>
      <trkpt lat="43.639713" lon="4.882345">
        <ele>40.42124</ele>
        <time>2021-07-01T09:42:06Z</time>
      </trkpt>
      <trkpt lat="43.639709" lon="4.882052">
        <ele>40.39811</ele>
        <time>2021-07-01T09:42:07Z</time>
      </trkpt>
      <trkpt lat="43.639709" lon="4.881753">
        <ele>40.20047</ele>
        <time>2021-07-01T09:42:08Z</time>
      </trkpt>
      <trkpt lat="43.639706" lon="4.881447">
        <ele>40.19834</ele>
        <time>2021-07-01T09:42:09Z</time>
      </trkpt>
      <trkpt lat="43.639706" lon="4.881166">
        <ele>40.53800</ele>
        <time>2021-07-01T09:42:10Z</time>
      </trkpt>
      <trkpt lat="43.639706" lon="4.880878">
        <ele>39.79837</ele>
        <time>2021-07-01T09:42:11Z</time>
      </trkpt>
      <trkpt lat="43.639702" lon="4.880584">
        <ele>39.84763</ele>
        <time>2021-07-01T09:42:12Z</time>
      </trkpt>
      <trkpt lat="43.639702" lon="4.880293">
        <ele>40.15738</ele>
        <time>2021-07-01T09:42:13Z</time>
      </trkpt>
      <trkpt lat="43.639702" lon="4.879997">
        <ele>40.33396</ele>
        <time>2021-07-01T09:42:14Z</time>
      </trkpt>
      <trkpt lat="43.639698" lon="4.879671">
        <ele>40.06388</ele>
        <time>2021-07-01T09:42:15Z</time>
      </trkpt>
      <trkpt lat="43.639698" lon="4.879274">
        <ele>39.68607</ele>
        <time>2021-07-01T09:42:16Z</time>
      </trkpt>
      <trkpt lat="43.639694" lon="4.878838">
        <ele>39.88620</ele>
        <time>2021-07-01T09:42:17Z</time>
      </trkpt>
      <trkpt lat="43.639694" lon="4.878421">
        <ele>39.85331</ele>
        <time>2021-07-01T09:42:18Z</time>
      </trkpt>
      <trkpt lat="43.639690" lon="4.878010">
        <ele>39.72367</ele>
        <time>2021-07-01T09:42:19Z</time>
      </trkpt>
      <trkpt lat="43.639690" lon="4.877578">
        <ele>39.73050</ele>
        <time>2021-07-01T09:42:20Z</time>
      </trkpt>
      <trkpt lat="43.639687" lon="4.877147">
        <ele>39.63193</ele>
        <time>2021-07-01T09:42:21Z</time>
      </trkpt>
      <trkpt lat="43.639687" lon="4.876705">
        <ele>39.46415</ele>
        <time>2021-07-01T09:42:22Z</time>
      </trkpt>
      <trkpt lat="43.639683" lon="4.876253">
        <ele>39.70438</ele>
        <time>2021-07-01T09:42:23Z</time>
      </trkpt>
      <trkpt lat="43.639683" lon="4.875824">
        <ele>39.72715</ele>
        <time>2021-07-01T09:42:24Z</time>
      </trkpt>
      <trkpt lat="43.639679" lon="4.875397">
        <ele>39.74411</ele>
        <time>2021-07-01T09:42:25Z</time>
      </trkpt>
      <trkpt lat="43.639679" lon="4.874951">
        <ele>39.73874</ele>
        <time>2021-07-01T09:42:26Z</time>
      </trkpt>
      <trkpt lat="43.639675" lon="4.874501">
        <ele>40.11869</ele>
        <time>2021-07-01T09:42:27Z</time>
      </trkpt>
      <trkpt lat="43.639675" lon="4.874065">
        <ele>40.11319</ele>
        <time>2021-07-01T09:42:28Z</time>
      </trkpt>
      <trkpt lat="43.639675" lon="4.873623">
        <ele>40.08146</ele>
        <time>2021-07-01T09:42:29Z</time>
      </trkpt>
      <trkpt lat="43.639679" lon="4.873165">
        <ele>39.98154</ele>
        <time>2021-07-01T09:42:30Z</time>
      </trkpt>
      <trkpt lat="43.639668" lon="4.872725">
        <ele>39.46408</ele>
        <time>2021-07-01T09:42:31Z</time>
      </trkpt>
      <trkpt lat="43.639660" lon="4.872271">
        <ele>39.48069</ele>
        <time>2021-07-01T09:42:32Z</time>
      </trkpt>
      <trkpt lat="43.639652" lon="4.871832">
        <ele>39.65592</ele>
        <time>2021-07-01T09:42:33Z</time>
      </trkpt>
      <trkpt lat="43.639641" lon="4.871374">
        <ele>39.51712</ele>
        <time>2021-07-01T09:42:34Z</time>
      </trkpt>
      <trkpt lat="43.639633" lon="4.870952">
        <ele>39.85141</ele>
        <time>2021-07-01T09:42:35Z</time>
      </trkpt>
      <trkpt lat="43.639626" lon="4.870467">
        <ele>40.14981</ele>
        <time>2021-07-01T09:42:36Z</time>
      </trkpt>
      <trkpt lat="43.639614" lon="4.869990">
        <ele>39.73691</ele>
        <time>2021-07-01T09:42:37Z</time>
      </trkpt>
      <trkpt lat="43.639606" lon="4.869555">
        <ele>39.66220</ele>
        <time>2021-07-01T09:42:38Z</time>
      </trkpt>
      <trkpt lat="43.639606" lon="4.869555">
        <ele>39.65342</ele>
        <time>2021-07-01T09:42:39Z</time>
      </trkpt>
      <trkpt lat="43.639584" lon="4.869090">
        <ele>39.51474</ele>
        <time>2021-07-01T09:42:40Z</time>
      </trkpt>
      <trkpt lat="43.639565" lon="4.868665">
        <ele>39.35630</ele>
        <time>2021-07-01T09:42:41Z</time>
      </trkpt>
      <trkpt lat="43.639542" lon="4.868223">
        <ele>39.38266</ele>
        <time>2021-07-01T09:42:42Z</time>
      </trkpt>
      <trkpt lat="43.639523" lon="4.867770">
        <ele>39.29819</ele>
        <time>2021-07-01T09:42:43Z</time>
      </trkpt>
      <trkpt lat="43.639503" lon="4.867348">
        <ele>38.65909</ele>
        <time>2021-07-01T09:42:44Z</time>
      </trkpt>
      <trkpt lat="43.639484" lon="4.866940">
        <ele>38.65458</ele>
        <time>2021-07-01T09:42:45Z</time>
      </trkpt>
      <trkpt lat="43.639465" lon="4.866523">
        <ele>38.46238</ele>
        <time>2021-07-01T09:42:46Z</time>
      </trkpt>
      <trkpt lat="43.639446" lon="4.866138">
        <ele>38.50962</ele>
        <time>2021-07-01T09:42:47Z</time>
      </trkpt>
      <trkpt lat="43.639427" lon="4.865745">
        <ele>38.49912</ele>
        <time>2021-07-01T09:42:48Z</time>
      </trkpt>
      <trkpt lat="43.639408" lon="4.865353">
        <ele>38.22104</ele>
        <time>2021-07-01T09:42:49Z</time>
      </trkpt>
      <trkpt lat="43.639393" lon="4.864964">
        <ele>38.12790</ele>
        <time>2021-07-01T09:42:50Z</time>
      </trkpt>
      <trkpt lat="43.639374" lon="4.864611">
        <ele>37.80893</ele>
        <time>2021-07-01T09:42:51Z</time>
      </trkpt>
      <trkpt lat="43.639359" lon="4.864276">
        <ele>37.59897</ele>
        <time>2021-07-01T09:42:52Z</time>
      </trkpt>
      <trkpt lat="43.639343" lon="4.863939">
        <ele>37.73636</ele>
        <time>2021-07-01T09:42:53Z</time>
      </trkpt>
      <trkpt lat="43.639328" lon="4.863597">
        <ele>37.62094</ele>
        <time>2021-07-01T09:42:54Z</time>
      </trkpt>
      <trkpt lat="43.639313" lon="4.863243">
        <ele>37.61356</ele>
        <time>2021-07-01T09:42:55Z</time>
      </trkpt>
      <trkpt lat="43.639294" lon="4.862882">
        <ele>37.54245</ele>
        <time>2021-07-01T09:42:56Z</time>
      </trkpt>
      <trkpt lat="43.639278" lon="4.862530">
        <ele>37.69584</ele>
        <time>2021-07-01T09:42:57Z</time>
      </trkpt>
      <trkpt lat="43.639263" lon="4.862210">
        <ele>37.51572</ele>
        <time>2021-07-01T09:42:58Z</time>
      </trkpt>
      <trkpt lat="43.639248" lon="4.861906">
        <ele>37.31925</ele>
        <time>2021-07-01T09:42:59Z</time>
      </trkpt>
      <trkpt lat="43.639236" lon="4.861627">
        <ele>37.13315</ele>
        <time>2021-07-01T09:43:00Z</time>
      </trkpt>
      <trkpt lat="43.639221" lon="4.861353">
        <ele>36.75303</ele>
        <time>2021-07-01T09:43:01Z</time>
      </trkpt>
      <trkpt lat="43.639210" lon="4.861066">
        <ele>36.65555</ele>
        <time>2021-07-01T09:43:02Z</time>
      </trkpt>
      <trkpt lat="43.639194" lon="4.860785">
        <ele>36.47934</ele>
        <time>2021-07-01T09:43:03Z</time>
      </trkpt>
      <trkpt lat="43.639183" lon="4.860497">
        <ele>36.48661</ele>
        <time>2021-07-01T09:43:04Z</time>
      </trkpt>
      <trkpt lat="43.639168" lon="4.860207">
        <ele>36.42997</ele>
        <time>2021-07-01T09:43:05Z</time>
      </trkpt>
      <trkpt lat="43.639156" lon="4.859911">
        <ele>36.35703</ele>
        <time>2021-07-01T09:43:06Z</time>
      </trkpt>
      <trkpt lat="43.639141" lon="4.859602">
        <ele>36.06125</ele>
        <time>2021-07-01T09:43:07Z</time>
      </trkpt>
      <trkpt lat="43.639126" lon="4.859303">
        <ele>35.72355</ele>
        <time>2021-07-01T09:43:08Z</time>
      </trkpt>
      <trkpt lat="43.639114" lon="4.859008">
        <ele>35.48093</ele>
        <time>2021-07-01T09:43:09Z</time>
      </trkpt>
      <trkpt lat="43.639099" lon="4.858694">
        <ele>35.25394</ele>
        <time>2021-07-01T09:43:10Z</time>
      </trkpt>
      <trkpt lat="43.639084" lon="4.858402">
        <ele>35.14255</ele>
        <time>2021-07-01T09:43:11Z</time>
      </trkpt>
      <trkpt lat="43.639069" lon="4.858034">
        <ele>34.79148</ele>
        <time>2021-07-01T09:43:12Z</time>
      </trkpt>
      <trkpt lat="43.639042" lon="4.857522">
        <ele>34.90097</ele>
        <time>2021-07-01T09:43:13Z</time>
      </trkpt>
      <trkpt lat="43.639019" lon="4.857024">
        <ele>34.35251</ele>
        <time>2021-07-01T09:43:14Z</time>
      </trkpt>
      <trkpt lat="43.639000" lon="4.856548">
        <ele>34.09116</ele>
        <time>2021-07-01T09:43:15Z</time>
      </trkpt>
      <trkpt lat="43.638985" lon="4.856157">
        <ele>33.63205</ele>
        <time>2021-07-01T09:43:16Z</time>
      </trkpt>
      <trkpt lat="43.638969" lon="4.855799">
        <ele>33.60563</ele>
        <time>2021-07-01T09:43:17Z</time>
      </trkpt>
      <trkpt lat="43.638969" lon="4.855799">
        <ele>33.81467</ele>
        <time>2021-07-01T09:43:18Z</time>
      </trkpt>
      <trkpt lat="43.638954" lon="4.855453">
        <ele>33.89817</ele>
        <time>2021-07-01T09:43:19Z</time>
      </trkpt>
      <trkpt lat="43.638939" lon="4.855127">
        <ele>33.79313</ele>
        <time>2021-07-01T09:43:20Z</time>
      </trkpt>
      <trkpt lat="43.638927" lon="4.854845">
        <ele>33.38932</ele>
        <time>2021-07-01T09:43:21Z</time>
      </trkpt>
      <trkpt lat="43.638916" lon="4.854569">
        <ele>33.44584</ele>
        <time>2021-07-01T09:43:22Z</time>
      </trkpt>
      <trkpt lat="43.638905" lon="4.854300">
        <ele>33.08255</ele>
        <time>2021-07-01T09:43:23Z</time>
      </trkpt>
      <trkpt lat="43.638889" lon="4.854000">
        <ele>33.01542</ele>
        <time>2021-07-01T09:43:24Z</time>
      </trkpt>
      <trkpt lat="43.638882" lon="4.853730">
        <ele>32.82315</ele>
        <time>2021-07-01T09:43:25Z</time>
      </trkpt>
      <trkpt lat="43.638870" lon="4.853464">
        <ele>32.46512</ele>
        <time>2021-07-01T09:43:26Z</time>
      </trkpt>
      <trkpt lat="43.638859" lon="4.853193">
        <ele>32.57785</ele>
        <time>2021-07-01T09:43:27Z</time>
      </trkpt>
      <trkpt lat="43.638847" lon="4.852930">
        <ele>32.05820</ele>
        <time>2021-07-01T09:43:28Z</time>
      </trkpt>
      <trkpt lat="43.638836" lon="4.852677">
        <ele>32.05356</ele>
        <time>2021-07-01T09:43:29Z</time>
      </trkpt>
      <trkpt lat="43.638824" lon="4.852429">
        <ele>22.76507</ele>
        <time>2021-07-01T09:43:30Z</time>
      </trkpt>
      <trkpt lat="43.638817" lon="4.852189">
        <ele>20.97244</ele>
        <time>2021-07-01T09:43:31Z</time>
      </trkpt>
      <trkpt lat="43.638805" lon="4.851969">
        <ele>21.27036</ele>
        <time>2021-07-01T09:43:32Z</time>
      </trkpt>
      <trkpt lat="43.638798" lon="4.851738">
        <ele>22.25920</ele>
        <time>2021-07-01T09:43:33Z</time>
      </trkpt>
      <trkpt lat="43.638786" lon="4.851485">
        <ele>22.68768</ele>
        <time>2021-07-01T09:43:34Z</time>
      </trkpt>
      <trkpt lat="43.638779" lon="4.851254">
        <ele>22.44126</ele>
        <time>2021-07-01T09:43:35Z</time>
      </trkpt>
      <trkpt lat="43.638767" lon="4.851018">
        <ele>22.43727</ele>
        <time>2021-07-01T09:43:36Z</time>
      </trkpt>
      <trkpt lat="43.638760" lon="4.850803">
        <ele>22.62089</ele>
        <time>2021-07-01T09:43:37Z</time>
      </trkpt>
      <trkpt lat="43.638748" lon="4.850589">
        <ele>21.05013</ele>
        <time>2021-07-01T09:43:38Z</time>
      </trkpt>
      <trkpt lat="43.638741" lon="4.850352">
        <ele>21.79592</ele>
        <time>2021-07-01T09:43:39Z</time>
      </trkpt>
      <trkpt lat="43.638729" lon="4.850088">
        <ele>31.31919</ele>
        <time>2021-07-01T09:43:40Z</time>
      </trkpt>
      <trkpt lat="43.638718" lon="4.849810">
        <ele>31.45676</ele>
        <time>2021-07-01T09:43:41Z</time>
      </trkpt>
      <trkpt lat="43.638706" lon="4.849544">
        <ele>31.49356</ele>
        <time>2021-07-01T09:43:42Z</time>
      </trkpt>
      <trkpt lat="43.638699" lon="4.849299">
        <ele>31.51560</ele>
        <time>2021-07-01T09:43:43Z</time>
      </trkpt>
      <trkpt lat="43.638687" lon="4.849038">
        <ele>31.32773</ele>
        <time>2021-07-01T09:43:44Z</time>
      </trkpt>
      <trkpt lat="43.638676" lon="4.848761">
        <ele>31.51114</ele>
        <time>2021-07-01T09:43:45Z</time>
      </trkpt>
      <trkpt lat="43.638664" lon="4.848484">
        <ele>31.13865</ele>
        <time>2021-07-01T09:43:46Z</time>
      </trkpt>
      <trkpt lat="43.638657" lon="4.848218">
        <ele>31.47654</ele>
        <time>2021-07-01T09:43:47Z</time>
      </trkpt>
      <trkpt lat="43.638668" lon="4.847953">
        <ele>31.03891</ele>
        <time>2021-07-01T09:43:48Z</time>
      </trkpt>
      <trkpt lat="43.638660" lon="4.847708">
        <ele>30.71189</ele>
        <time>2021-07-01T09:43:49Z</time>
      </trkpt>
      <trkpt lat="43.638657" lon="4.847458">
        <ele>20.01918</ele>
        <time>2021-07-01T09:43:50Z</time>
      </trkpt>
      <trkpt lat="43.638649" lon="4.847217">
        <ele>19.87009</ele>
        <time>2021-07-01T09:43:51Z</time>
      </trkpt>
      <trkpt lat="43.638641" lon="4.846979">
        <ele>19.49109</ele>
        <time>2021-07-01T09:43:52Z</time>
      </trkpt>
      <trkpt lat="43.638634" lon="4.846729">
        <ele>30.12864</ele>
        <time>2021-07-01T09:43:53Z</time>
      </trkpt>
      <trkpt lat="43.638626" lon="4.846457">
        <ele>29.97336</ele>
        <time>2021-07-01T09:43:54Z</time>
      </trkpt>
      <trkpt lat="43.638626" lon="4.846457">
        <ele>29.73850</ele>
        <time>2021-07-01T09:43:55Z</time>
      </trkpt>
      <trkpt lat="43.638618" lon="4.846188">
        <ele>29.56314</ele>
        <time>2021-07-01T09:43:56Z</time>
      </trkpt>
      <trkpt lat="43.638611" lon="4.845915">
        <ele>29.74472</ele>
        <time>2021-07-01T09:43:57Z</time>
      </trkpt>
      <trkpt lat="43.638599" lon="4.845636">
        <ele>29.71274</ele>
        <time>2021-07-01T09:43:58Z</time>
      </trkpt>
      <trkpt lat="43.638584" lon="4.845374">
        <ele>29.61008</ele>
        <time>2021-07-01T09:43:59Z</time>
      </trkpt>
      <trkpt lat="43.638569" lon="4.845117">
        <ele>28.98545</ele>
        <time>2021-07-01T09:44:00Z</time>
      </trkpt>
      <trkpt lat="43.638561" lon="4.844845">
        <ele>29.05875</ele>
        <time>2021-07-01T09:44:01Z</time>
      </trkpt>
      <trkpt lat="43.638523" lon="4.844540">
        <ele>29.14646</ele>
        <time>2021-07-01T09:44:02Z</time>
      </trkpt>
      <trkpt lat="43.638523" lon="4.844274">
        <ele>29.34232</ele>
        <time>2021-07-01T09:44:03Z</time>
      </trkpt>
      <trkpt lat="43.638519" lon="4.844004">
        <ele>29.29892</ele>
        <time>2021-07-01T09:44:04Z</time>
      </trkpt>
      <trkpt lat="43.638519" lon="4.843744">
        <ele>28.83420</ele>
        <time>2021-07-01T09:44:05Z</time>
      </trkpt>
      <trkpt lat="43.638515" lon="4.843460">
        <ele>29.14109</ele>
        <time>2021-07-01T09:44:06Z</time>
      </trkpt>
      <trkpt lat="43.638512" lon="4.843203">
        <ele>28.38828</ele>
        <time>2021-07-01T09:44:07Z</time>
      </trkpt>
      <trkpt lat="43.638508" lon="4.842946">
        <ele>28.14359</ele>
        <time>2021-07-01T09:44:08Z</time>
      </trkpt>
      <trkpt lat="43.638504" lon="4.842668">
        <ele>28.22532</ele>
        <time>2021-07-01T09:44:09Z</time>
      </trkpt>
      <trkpt lat="43.638500" lon="4.842393">
        <ele>28.31150</ele>
        <time>2021-07-01T09:44:10Z</time>
      </trkpt>
      <trkpt lat="43.638496" lon="4.842134">
        <ele>28.25595</ele>
        <time>2021-07-01T09:44:11Z</time>
      </trkpt>
      <trkpt lat="43.638493" lon="4.841880">
        <ele>28.16422</ele>
        <time>2021-07-01T09:44:12Z</time>
      </trkpt>
      <trkpt lat="43.638489" lon="4.841619">
        <ele>28.42746</ele>
        <time>2021-07-01T09:44:13Z</time>
      </trkpt>
      <trkpt lat="43.638481" lon="4.841352">
        <ele>28.68876</ele>
        <time>2021-07-01T09:44:14Z</time>
      </trkpt>
      <trkpt lat="43.638477" lon="4.841084">
        <ele>28.67173</ele>
        <time>2021-07-01T09:44:15Z</time>
      </trkpt>
      <trkpt lat="43.638474" lon="4.840815">
        <ele>28.83591</ele>
        <time>2021-07-01T09:44:16Z</time>
      </trkpt>
      <trkpt lat="43.638470" lon="4.840545">
        <ele>28.50968</ele>
        <time>2021-07-01T09:44:17Z</time>
      </trkpt>
      <trkpt lat="43.638466" lon="4.840273">
        <ele>28.42368</ele>
        <time>2021-07-01T09:44:18Z</time>
      </trkpt>
      <trkpt lat="43.638454" lon="4.839996">
        <ele>28.08561</ele>
        <time>2021-07-01T09:44:19Z</time>
      </trkpt>
      <trkpt lat="43.638447" lon="4.839748">
        <ele>28.00559</ele>
        <time>2021-07-01T09:44:20Z</time>
      </trkpt>
      <trkpt lat="43.638435" lon="4.839481">
        <ele>27.82273</ele>
        <time>2021-07-01T09:44:21Z</time>
      </trkpt>
      <trkpt lat="43.638424" lon="4.839232">
        <ele>27.62503</ele>
        <time>2021-07-01T09:44:22Z</time>
      </trkpt>
      <trkpt lat="43.638409" lon="4.838955">
        <ele>27.68528</ele>
        <time>2021-07-01T09:44:23Z</time>
      </trkpt>
      <trkpt lat="43.638397" lon="4.838703">
        <ele>27.71183</ele>
        <time>2021-07-01T09:44:24Z</time>
      </trkpt>
      <trkpt lat="43.638382" lon="4.838408">
        <ele>27.66050</ele>
        <time>2021-07-01T09:44:25Z</time>
      </trkpt>
      <trkpt lat="43.638382" lon="4.838177">
        <ele>27.67020</ele>
        <time>2021-07-01T09:44:26Z</time>
      </trkpt>
      <trkpt lat="43.638382" lon="4.838177">
        <ele>27.39347</ele>
        <time>2021-07-01T09:44:27Z</time>
      </trkpt>
      <trkpt lat="43.638393" lon="4.837892">
        <ele>27.98124</ele>
        <time>2021-07-01T09:44:28Z</time>
      </trkpt>
      <trkpt lat="43.638405" lon="4.837633">
        <ele>28.00815</ele>
        <time>2021-07-01T09:44:29Z</time>
      </trkpt>
      <trkpt lat="43.638416" lon="4.837337">
        <ele>28.22965</ele>
        <time>2021-07-01T09:44:30Z</time>
      </trkpt>
      <trkpt lat="43.638424" lon="4.837083">
        <ele>28.47751</ele>
        <time>2021-07-01T09:44:31Z</time>
      </trkpt>
      <trkpt lat="43.638454" lon="4.836836">
        <ele>28.21585</ele>
        <time>2021-07-01T09:44:32Z</time>
      </trkpt>
      <trkpt lat="43.638489" lon="4.836571">
        <ele>15.91606</ele>
        <time>2021-07-01T09:44:33Z</time>
      </trkpt>
      <trkpt lat="43.638519" lon="4.836318">
        <ele>17.10626</ele>
        <time>2021-07-01T09:44:34Z</time>
      </trkpt>
      <trkpt lat="43.638554" lon="4.836091">
        <ele>17.99441</ele>
        <time>2021-07-01T09:44:35Z</time>
      </trkpt>
      <trkpt lat="43.638592" lon="4.835838">
        <ele>18.12954</ele>
        <time>2021-07-01T09:44:36Z</time>
      </trkpt>
      <trkpt lat="43.638626" lon="4.835602">
        <ele>18.35580</ele>
        <time>2021-07-01T09:44:37Z</time>
      </trkpt>
      <trkpt lat="43.638664" lon="4.835364">
        <ele>16.87317</ele>
        <time>2021-07-01T09:44:38Z</time>
      </trkpt>
      <trkpt lat="43.638699" lon="4.835135">
        <ele>16.65325</ele>
        <time>2021-07-01T09:44:39Z</time>
      </trkpt>
      <trkpt lat="43.638729" lon="4.834910">
        <ele>17.16097</ele>
        <time>2021-07-01T09:44:40Z</time>
      </trkpt>
      <trkpt lat="43.638767" lon="4.834678">
        <ele>17.42707</ele>
        <time>2021-07-01T09:44:41Z</time>
      </trkpt>
      <trkpt lat="43.638790" lon="4.834458">
        <ele>17.00946</ele>
        <time>2021-07-01T09:44:42Z</time>
      </trkpt>
      <trkpt lat="43.638813" lon="4.834239">
        <ele>16.77913</ele>
        <time>2021-07-01T09:44:43Z</time>
      </trkpt>
      <trkpt lat="43.638836" lon="4.833994">
        <ele>16.99324</ele>
        <time>2021-07-01T09:44:44Z</time>
      </trkpt>
      <trkpt lat="43.638844" lon="4.833759">
        <ele>16.73512</ele>
        <time>2021-07-01T09:44:45Z</time>
      </trkpt>
      <trkpt lat="43.638847" lon="4.833531">
        <ele>17.00921</ele>
        <time>2021-07-01T09:44:46Z</time>
      </trkpt>
      <trkpt lat="43.638851" lon="4.833311">
        <ele>16.84831</ele>
        <time>2021-07-01T09:44:47Z</time>
      </trkpt>
      <trkpt lat="43.638840" lon="4.833088">
        <ele>16.94202</ele>
        <time>2021-07-01T09:44:48Z</time>
      </trkpt>
      <trkpt lat="43.638824" lon="4.832867">
        <ele>18.01779</ele>
        <time>2021-07-01T09:44:49Z</time>
      </trkpt>
      <trkpt lat="43.638809" lon="4.832657">
        <ele>17.44391</ele>
        <time>2021-07-01T09:44:50Z</time>
      </trkpt>
      <trkpt lat="43.638794" lon="4.832440">
        <ele>16.78507</ele>
        <time>2021-07-01T09:44:51Z</time>
      </trkpt>
      <trkpt lat="43.638783" lon="4.832232">
        <ele>16.91584</ele>
        <time>2021-07-01T09:44:52Z</time>
      </trkpt>
      <trkpt lat="43.638748" lon="4.832042">
        <ele>16.45893</ele>
        <time>2021-07-01T09:44:53Z</time>
      </trkpt>
      <trkpt lat="43.638699" lon="4.831826">
        <ele>16.87659</ele>
        <time>2021-07-01T09:44:54Z</time>
      </trkpt>
      <trkpt lat="43.638641" lon="4.831595">
        <ele>17.34427</ele>
        <time>2021-07-01T09:44:55Z</time>
      </trkpt>
      <trkpt lat="43.638580" lon="4.831420">
        <ele>16.79691</ele>
        <time>2021-07-01T09:44:56Z</time>
      </trkpt>
      <trkpt lat="43.638508" lon="4.831219">
        <ele>16.29229</ele>
        <time>2021-07-01T09:44:57Z</time>
      </trkpt>
      <trkpt lat="43.638447" lon="4.831054">
        <ele>16.77446</ele>
        <time>2021-07-01T09:44:58Z</time>
      </trkpt>
      <trkpt lat="43.638393" lon="4.830905">
        <ele>16.37516</ele>
        <time>2021-07-01T09:44:59Z</time>
      </trkpt>
      <trkpt lat="43.638340" lon="4.830734">
        <ele>17.19230</ele>
        <time>2021-07-01T09:45:00Z</time>
      </trkpt>
      <trkpt lat="43.638309" lon="4.830569">
        <ele>15.79179</ele>
        <time>2021-07-01T09:45:01Z</time>
      </trkpt>
      <trkpt lat="43.638256" lon="4.830419">
        <ele>15.33515</ele>
        <time>2021-07-01T09:45:02Z</time>
      </trkpt>
      <trkpt lat="43.638191" lon="4.830252">
        <ele>15.65072</ele>
        <time>2021-07-01T09:45:03Z</time>
      </trkpt>
      <trkpt lat="43.638191" lon="4.830252">
        <ele>15.51104</ele>
        <time>2021-07-01T09:45:04Z</time>
      </trkpt>
      <trkpt lat="43.638145" lon="4.830130">
        <ele>15.22545</ele>
        <time>2021-07-01T09:45:05Z</time>
      </trkpt>
      <trkpt lat="43.638103" lon="4.830014">
        <ele>13.97297</ele>
        <time>2021-07-01T09:45:06Z</time>
      </trkpt>
      <trkpt lat="43.638073" lon="4.829934">
        <ele>13.54174</ele>
        <time>2021-07-01T09:45:07Z</time>
      </trkpt>
      <trkpt lat="43.638046" lon="4.829856">
        <ele>13.75874</ele>
        <time>2021-07-01T09:45:08Z</time>
      </trkpt>
      <trkpt lat="43.638016" lon="4.829777">
        <ele>13.56489</ele>
        <time>2021-07-01T09:45:09Z</time>
      </trkpt>
      <trkpt lat="43.637985" lon="4.829698">
        <ele>13.91535</ele>
        <time>2021-07-01T09:45:10Z</time>
      </trkpt>
      <trkpt lat="43.637955" lon="4.829616">
        <ele>14.01611</ele>
        <time>2021-07-01T09:45:11Z</time>
      </trkpt>
      <trkpt lat="43.637932" lon="4.829550">
        <ele>13.73765</ele>
        <time>2021-07-01T09:45:12Z</time>
      </trkpt>
      <trkpt lat="43.637913" lon="4.829492">
        <ele>13.50080</ele>
        <time>2021-07-01T09:45:13Z</time>
      </trkpt>
      <trkpt lat="43.637897" lon="4.829441">
        <ele>13.85165</ele>
        <time>2021-07-01T09:45:14Z</time>
      </trkpt>
      <trkpt lat="43.637882" lon="4.829396">
        <ele>13.45353</ele>
        <time>2021-07-01T09:45:15Z</time>
      </trkpt>
      <trkpt lat="43.637871" lon="4.829355">
        <ele>13.37242</ele>
        <time>2021-07-01T09:45:16Z</time>
      </trkpt>
      <trkpt lat="43.637859" lon="4.829326">
        <ele>13.10458</ele>
        <time>2021-07-01T09:45:17Z</time>
      </trkpt>
      <trkpt lat="43.637856" lon="4.829311">
        <ele>13.06339</ele>
        <time>2021-07-01T09:45:18Z</time>
      </trkpt>
      <trkpt lat="43.637856" lon="4.829308">
        <ele>13.10235</ele>
        <time>2021-07-01T09:45:19Z</time>
      </trkpt>
      <trkpt lat="43.637856" lon="4.829308">
        <ele>13.10381</ele>
        <time>2021-07-01T09:45:20Z</time>
      </trkpt>
      <trkpt lat="43.637856" lon="4.829308">
        <ele>13.06990</ele>
        <time>2021-07-01T09:45:21Z</time>
      </trkpt>
      <trkpt lat="43.637856" lon="4.829308">
        <ele>13.00271</ele>
        <time>2021-07-01T09:45:22Z</time>
      </trkpt>
      <trkpt lat="43.637856" lon="4.829308">
        <ele>13.08376</ele>
        <time>2021-07-01T09:45:23Z</time>
      </trkpt>
      <trkpt lat="43.637856" lon="4.829308">
        <ele>12.82082</ele>
        <time>2021-07-01T09:45:24Z</time>
      </trkpt>
      <trkpt lat="43.637856" lon="4.829308">
        <ele>12.65333</ele>
        <time>2021-07-01T09:45:25Z</time>
      </trkpt>
      <trkpt lat="43.637856" lon="4.829308">
        <ele>12.93600</ele>
        <time>2021-07-01T09:45:26Z</time>
      </trkpt>
      <trkpt lat="43.637856" lon="4.829308">
        <ele>13.09401</ele>
        <time>2021-07-01T09:45:27Z</time>
      </trkpt>
      <trkpt lat="43.637856" lon="4.829308">
        <ele>12.99580</ele>
        <time>2021-07-01T09:45:28Z</time>
      </trkpt>
      <trkpt lat="43.637856" lon="4.829306">
        <ele>13.04054</ele>
        <time>2021-07-01T09:45:29Z</time>
      </trkpt>
      <trkpt lat="43.637836" lon="4.829247">
        <ele>13.25580</ele>
        <time>2021-07-01T09:45:30Z</time>
      </trkpt>
      <trkpt lat="43.637859" lon="4.829133">
        <ele>14.02186</ele>
        <time>2021-07-01T09:45:31Z</time>
      </trkpt>
      <trkpt lat="43.637848" lon="4.828990">
        <ele>14.55707</ele>
        <time>2021-07-01T09:45:32Z</time>
      </trkpt>
      <trkpt lat="43.637779" lon="4.828850">
        <ele>14.71902</ele>
        <time>2021-07-01T09:45:33Z</time>
      </trkpt>
      <trkpt lat="43.637760" lon="4.828818">
        <ele>14.44092</ele>
        <time>2021-07-01T09:45:34Z</time>
      </trkpt>
      <trkpt lat="43.637760" lon="4.828818">
        <ele>14.60137</ele>
        <time>2021-07-01T09:45:35Z</time>
      </trkpt>
      <trkpt lat="43.637756" lon="4.828744">
        <ele>14.06788</ele>
        <time>2021-07-01T09:45:36Z</time>
      </trkpt>
      <trkpt lat="43.637756" lon="4.828744">
        <ele>14.16386</ele>
        <time>2021-07-01T09:45:37Z</time>
      </trkpt>
      <trkpt lat="43.637779" lon="4.828350">
        <ele>13.98253</ele>
        <time>2021-07-01T09:45:38Z</time>
      </trkpt>
      <trkpt lat="43.637783" lon="4.828271">
        <ele>13.73046</ele>
        <time>2021-07-01T09:45:39Z</time>
      </trkpt>
      <trkpt lat="43.637791" lon="4.828121">
        <ele>13.54160</ele>
        <time>2021-07-01T09:45:40Z</time>
      </trkpt>
      <trkpt lat="43.637791" lon="4.828121">
        <ele>12.58755</ele>
        <time>2021-07-01T09:45:41Z</time>
      </trkpt>
      <trkpt lat="43.637791" lon="4.828086">
        <ele>12.27997</ele>
        <time>2021-07-01T09:45:42Z</time>
      </trkpt>
      <trkpt lat="43.637791" lon="4.828077">
        <ele>12.10643</ele>
        <time>2021-07-01T09:45:43Z</time>
      </trkpt>
      <trkpt lat="43.637791" lon="4.828077">
        <ele>12.00399</ele>
        <time>2021-07-01T09:45:44Z</time>
      </trkpt>
      <trkpt lat="43.637791" lon="4.828077">
        <ele>12.02597</ele>
        <time>2021-07-01T09:45:45Z</time>
      </trkpt>
      <trkpt lat="43.637791" lon="4.828077">
        <ele>12.09612</ele>
        <time>2021-07-01T09:45:46Z</time>
      </trkpt>
      <trkpt lat="43.637791" lon="4.828077">
        <ele>12.19449</ele>
        <time>2021-07-01T09:45:47Z</time>
      </trkpt>
      <trkpt lat="43.637791" lon="4.828077">
        <ele>12.02370</ele>
        <time>2021-07-01T09:45:48Z</time>
      </trkpt>
      <trkpt lat="43.637791" lon="4.828077">
        <ele>12.11855</ele>
        <time>2021-07-01T09:45:49Z</time>
      </trkpt>
      <trkpt lat="43.637791" lon="4.828077">
        <ele>12.09257</ele>
        <time>2021-07-01T09:45:50Z</time>
      </trkpt>
      <trkpt lat="43.637791" lon="4.828077">
        <ele>11.84052</ele>
        <time>2021-07-01T09:45:51Z</time>
      </trkpt>
      <trkpt lat="43.637791" lon="4.828077">
        <ele>11.94087</ele>
        <time>2021-07-01T09:45:52Z</time>
      </trkpt>
      <trkpt lat="43.637791" lon="4.828077">
        <ele>11.80914</ele>
        <time>2021-07-01T09:45:53Z</time>
      </trkpt>
      <trkpt lat="43.637791" lon="4.828077">
        <ele>11.88206</ele>
        <time>2021-07-01T09:45:54Z</time>
      </trkpt>
      <trkpt lat="43.637791" lon="4.828077">
        <ele>11.70163</ele>
        <time>2021-07-01T09:45:55Z</time>
      </trkpt>
      <trkpt lat="43.637791" lon="4.828077">
        <ele>12.01646</ele>
        <time>2021-07-01T09:45:56Z</time>
      </trkpt>
      <trkpt lat="43.637791" lon="4.828077">
        <ele>11.92803</ele>
        <time>2021-07-01T09:45:57Z</time>
      </trkpt>
      <trkpt lat="43.637791" lon="4.828077">
        <ele>12.02098</ele>
        <time>2021-07-01T09:45:58Z</time>
      </trkpt>
      <trkpt lat="43.637791" lon="4.828077">
        <ele>12.26651</ele>
        <time>2021-07-01T09:45:59Z</time>
      </trkpt>
      <trkpt lat="43.637791" lon="4.828077">
        <ele>12.10560</ele>
        <time>2021-07-01T09:46:00Z</time>
      </trkpt>
      <trkpt lat="43.637791" lon="4.828077">
        <ele>12.11579</ele>
        <time>2021-07-01T09:46:01Z</time>
      </trkpt>
      <trkpt lat="43.637791" lon="4.828077">
        <ele>12.16266</ele>
        <time>2021-07-01T09:46:02Z</time>
      </trkpt>
      <trkpt lat="43.637791" lon="4.828077">
        <ele>12.10636</ele>
        <time>2021-07-01T09:46:03Z</time>
      </trkpt>
      <trkpt lat="43.637791" lon="4.828077">
        <ele>12.00155</ele>
        <time>2021-07-01T09:46:04Z</time>
      </trkpt>
      <trkpt lat="43.637791" lon="4.828077">
        <ele>12.15895</ele>
        <time>2021-07-01T09:46:05Z</time>
      </trkpt>
      <trkpt lat="43.637791" lon="4.828077">
        <ele>12.31336</ele>
        <time>2021-07-01T09:46:06Z</time>
      </trkpt>
      <trkpt lat="43.637791" lon="4.828077">
        <ele>12.43327</ele>
        <time>2021-07-01T09:46:07Z</time>
      </trkpt>
      <trkpt lat="43.637791" lon="4.828077">
        <ele>12.67406</ele>
        <time>2021-07-01T09:46:08Z</time>
      </trkpt>
      <trkpt lat="43.637791" lon="4.828077">
        <ele>12.60453</ele>
        <time>2021-07-01T09:46:09Z</time>
      </trkpt>
      <trkpt lat="43.637791" lon="4.828077">
        <ele>12.61817</ele>
        <time>2021-07-01T09:46:10Z</time>
      </trkpt>
      <trkpt lat="43.637791" lon="4.828077">
        <ele>12.51932</ele>
        <time>2021-07-01T09:46:11Z</time>
      </trkpt>
      <trkpt lat="43.637791" lon="4.828077">
        <ele>12.23984</ele>
        <time>2021-07-01T09:46:12Z</time>
      </trkpt>
      <trkpt lat="43.637791" lon="4.828077">
        <ele>12.25513</ele>
        <time>2021-07-01T09:46:13Z</time>
      </trkpt>
      <trkpt lat="43.637791" lon="4.828077">
        <ele>12.32568</ele>
        <time>2021-07-01T09:46:14Z</time>
      </trkpt>
      <trkpt lat="43.637791" lon="4.828077">
        <ele>12.44612</ele>
        <time>2021-07-01T09:46:15Z</time>
      </trkpt>
      <trkpt lat="43.637791" lon="4.828077">
        <ele>12.39536</ele>
        <time>2021-07-01T09:46:16Z</time>
      </trkpt>
      <trkpt lat="43.637791" lon="4.828077">
        <ele>12.29858</ele>
        <time>2021-07-01T09:46:17Z</time>
      </trkpt>
      <trkpt lat="43.637791" lon="4.828077">
        <ele>12.29772</ele>
        <time>2021-07-01T09:46:18Z</time>
      </trkpt>
      <trkpt lat="43.637791" lon="4.828077">
        <ele>12.28329</ele>
        <time>2021-07-01T09:46:19Z</time>
      </trkpt>
      <trkpt lat="43.637791" lon="4.828077">
        <ele>12.23024</ele>
        <time>2021-07-01T09:46:20Z</time>
      </trkpt>
      <trkpt lat="43.637791" lon="4.828077">
        <ele>12.27284</ele>
        <time>2021-07-01T09:46:21Z</time>
      </trkpt>
      <trkpt lat="43.637791" lon="4.828077">
        <ele>12.17507</ele>
        <time>2021-07-01T09:46:22Z</time>
      </trkpt>
      <trkpt lat="43.637791" lon="4.828077">
        <ele>12.36241</ele>
        <time>2021-07-01T09:46:23Z</time>
      </trkpt>
      <trkpt lat="43.637791" lon="4.828077">
        <ele>12.32310</ele>
        <time>2021-07-01T09:46:24Z</time>
      </trkpt>
      <trkpt lat="43.637791" lon="4.828077">
        <ele>12.38918</ele>
        <time>2021-07-01T09:46:25Z</time>
      </trkpt>
      <trkpt lat="43.637791" lon="4.828077">
        <ele>12.33244</ele>
        <time>2021-07-01T09:46:26Z</time>
      </trkpt>
      <trkpt lat="43.637791" lon="4.828077">
        <ele>12.26271</ele>
        <time>2021-07-01T09:46:27Z</time>
      </trkpt>
      <trkpt lat="43.637791" lon="4.828077">
        <ele>12.48445</ele>
        <time>2021-07-01T09:46:28Z</time>
      </trkpt>
      <trkpt lat="43.637791" lon="4.828077">
        <ele>12.23796</ele>
        <time>2021-07-01T09:46:29Z</time>
      </trkpt>
      <trkpt lat="43.637791" lon="4.828077">
        <ele>12.31507</ele>
        <time>2021-07-01T09:46:30Z</time>
      </trkpt>
      <trkpt lat="43.637791" lon="4.828077">
        <ele>12.32328</ele>
        <time>2021-07-01T09:46:31Z</time>
      </trkpt>
      <trkpt lat="43.637791" lon="4.828077">
        <ele>12.25668</ele>
        <time>2021-07-01T09:46:32Z</time>
      </trkpt>
      <trkpt lat="43.637791" lon="4.828077">
        <ele>12.52594</ele>
        <time>2021-07-01T09:46:33Z</time>
      </trkpt>
      <trkpt lat="43.637791" lon="4.828077">
        <ele>12.33638</ele>
        <time>2021-07-01T09:46:34Z</time>
      </trkpt>
      <trkpt lat="43.637791" lon="4.828077">
        <ele>12.48359</ele>
        <time>2021-07-01T09:46:35Z</time>
      </trkpt>
      <trkpt lat="43.637791" lon="4.828077">
        <ele>12.30105</ele>
        <time>2021-07-01T09:46:36Z</time>
      </trkpt>
      <trkpt lat="43.637791" lon="4.828077">
        <ele>12.35900</ele>
        <time>2021-07-01T09:46:37Z</time>
      </trkpt>
      <trkpt lat="43.637791" lon="4.828077">
        <ele>12.34496</ele>
        <time>2021-07-01T09:46:38Z</time>
      </trkpt>
      <trkpt lat="43.637794" lon="4.828056">
        <ele>12.42371</ele>
        <time>2021-07-01T09:46:39Z</time>
      </trkpt>
      <trkpt lat="43.637794" lon="4.828001">
        <ele>12.36560</ele>
        <time>2021-07-01T09:46:40Z</time>
      </trkpt>
      <trkpt lat="43.637794" lon="4.827999">
        <ele>12.65024</ele>
        <time>2021-07-01T09:46:41Z</time>
      </trkpt>
      <trkpt lat="43.637703" lon="4.828272">
        <ele>14.13525</ele>
        <time>2021-07-01T09:46:42Z</time>
      </trkpt>
      <trkpt lat="43.637695" lon="4.828419">
        <ele>14.27279</ele>
        <time>2021-07-01T09:46:43Z</time>
      </trkpt>
      <trkpt lat="43.637676" lon="4.828619">
        <ele>14.12996</ele>
        <time>2021-07-01T09:46:44Z</time>
      </trkpt>
      <trkpt lat="43.637661" lon="4.828728">
        <ele>14.64504</ele>
        <time>2021-07-01T09:46:45Z</time>
      </trkpt>
      <trkpt lat="43.637611" lon="4.828773">
        <ele>15.12095</ele>
        <time>2021-07-01T09:46:46Z</time>
      </trkpt>
      <trkpt lat="43.637516" lon="4.828821">
        <ele>14.67112</ele>
        <time>2021-07-01T09:46:47Z</time>
      </trkpt>
      <trkpt lat="43.637428" lon="4.828992">
        <ele>14.63620</ele>
        <time>2021-07-01T09:46:48Z</time>
      </trkpt>
      <trkpt lat="43.637405" lon="4.829165">
        <ele>15.75723</ele>
        <time>2021-07-01T09:46:49Z</time>
      </trkpt>
      <trkpt lat="43.637257" lon="4.829310">
        <ele>16.11671</ele>
        <time>2021-07-01T09:46:50Z</time>
      </trkpt>
      <trkpt lat="43.637131" lon="4.829524">
        <ele>15.77897</ele>
        <time>2021-07-01T09:46:51Z</time>
      </trkpt>
      <trkpt lat="43.637066" lon="4.829691">
        <ele>16.33985</ele>
        <time>2021-07-01T09:46:52Z</time>
      </trkpt>
      <trkpt lat="43.637043" lon="4.829902">
        <ele>16.99079</ele>
        <time>2021-07-01T09:46:53Z</time>
      </trkpt>
      <trkpt lat="43.637058" lon="4.830121">
        <ele>17.34710</ele>
        <time>2021-07-01T09:46:54Z</time>
      </trkpt>
      <trkpt lat="43.637112" lon="4.830302">
        <ele>18.10541</ele>
        <time>2021-07-01T09:46:55Z</time>
      </trkpt>
      <trkpt lat="43.637218" lon="4.830523">
        <ele>20.14244</ele>
        <time>2021-07-01T09:46:56Z</time>
      </trkpt>
      <trkpt lat="43.637341" lon="4.830771">
        <ele>27.61606</ele>
        <time>2021-07-01T09:46:57Z</time>
      </trkpt>
      <trkpt lat="43.637463" lon="4.831023">
        <ele>27.42643</ele>
        <time>2021-07-01T09:46:58Z</time>
      </trkpt>
      <trkpt lat="43.637596" lon="4.831295">
        <ele>27.62021</ele>
        <time>2021-07-01T09:46:59Z</time>
      </trkpt>
      <trkpt lat="43.637726" lon="4.831554">
        <ele>27.78916</ele>
        <time>2021-07-01T09:47:00Z</time>
      </trkpt>
      <trkpt lat="43.637859" lon="4.831827">
        <ele>27.98563</ele>
        <time>2021-07-01T09:47:01Z</time>
      </trkpt>
      <trkpt lat="43.637993" lon="4.832089">
        <ele>28.25193</ele>
        <time>2021-07-01T09:47:02Z</time>
      </trkpt>
      <trkpt lat="43.638126" lon="4.832354">
        <ele>27.95395</ele>
        <time>2021-07-01T09:47:03Z</time>
      </trkpt>
      <trkpt lat="43.638229" lon="4.832560">
        <ele>28.11832</ele>
        <time>2021-07-01T09:47:04Z</time>
      </trkpt>
      <trkpt lat="43.638248" lon="4.832607">
        <ele>27.93412</ele>
        <time>2021-07-01T09:47:05Z</time>
      </trkpt>
      <trkpt lat="43.638351" lon="4.832969">
        <ele>21.70848</ele>
        <time>2021-07-01T09:47:06Z</time>
      </trkpt>
      <trkpt lat="43.638351" lon="4.832969">
        <ele>19.68596</ele>
        <time>2021-07-01T09:47:07Z</time>
      </trkpt>
      <trkpt lat="43.638355" lon="4.833110">
        <ele>19.72677</ele>
        <time>2021-07-01T09:47:08Z</time>
      </trkpt>
      <trkpt lat="43.638348" lon="4.833214">
        <ele>19.52825</ele>
        <time>2021-07-01T09:47:09Z</time>
      </trkpt>
      <trkpt lat="43.638306" lon="4.833384">
        <ele>19.45626</ele>
        <time>2021-07-01T09:47:10Z</time>
      </trkpt>
      <trkpt lat="43.638203" lon="4.833539">
        <ele>19.08949</ele>
        <time>2021-07-01T09:47:11Z</time>
      </trkpt>
      <trkpt lat="43.638073" lon="4.833630">
        <ele>17.99525</ele>
        <time>2021-07-01T09:47:12Z</time>
      </trkpt>
      <trkpt lat="43.637936" lon="4.833646">
        <ele>17.82285</ele>
        <time>2021-07-01T09:47:13Z</time>
      </trkpt>
      <trkpt lat="43.637814" lon="4.833594">
        <ele>17.84211</ele>
        <time>2021-07-01T09:47:14Z</time>
      </trkpt>
      <trkpt lat="43.637699" lon="4.833469">
        <ele>17.53181</ele>
        <time>2021-07-01T09:47:15Z</time>
      </trkpt>
      <trkpt lat="43.637592" lon="4.833294">
        <ele>19.22917</ele>
        <time>2021-07-01T09:47:16Z</time>
      </trkpt>
      <trkpt lat="43.637512" lon="4.833073">
        <ele>19.67008</ele>
        <time>2021-07-01T09:47:17Z</time>
      </trkpt>
      <trkpt lat="43.637432" lon="4.832811">
        <ele>24.63205</ele>
        <time>2021-07-01T09:47:18Z</time>
      </trkpt>
      <trkpt lat="43.637341" lon="4.832550">
        <ele>24.61142</ele>
        <time>2021-07-01T09:47:19Z</time>
      </trkpt>
      <trkpt lat="43.637257" lon="4.832236">
        <ele>24.44443</ele>
        <time>2021-07-01T09:47:20Z</time>
      </trkpt>
      <trkpt lat="43.637165" lon="4.831901">
        <ele>24.08640</ele>
        <time>2021-07-01T09:47:21Z</time>
      </trkpt>
      <trkpt lat="43.637070" lon="4.831552">
        <ele>23.98819</ele>
        <time>2021-07-01T09:47:22Z</time>
      </trkpt>
      <trkpt lat="43.636963" lon="4.831194">
        <ele>23.81888</ele>
        <time>2021-07-01T09:47:23Z</time>
      </trkpt>
      <trkpt lat="43.636848" lon="4.830836">
        <ele>23.64798</ele>
        <time>2021-07-01T09:47:24Z</time>
      </trkpt>
      <trkpt lat="43.636730" lon="4.830471">
        <ele>23.51963</ele>
        <time>2021-07-01T09:47:25Z</time>
      </trkpt>
      <trkpt lat="43.636600" lon="4.830090">
        <ele>23.37137</ele>
        <time>2021-07-01T09:47:26Z</time>
      </trkpt>
      <trkpt lat="43.636459" lon="4.829689">
        <ele>23.41227</ele>
        <time>2021-07-01T09:47:27Z</time>
      </trkpt>
      <trkpt lat="43.636311" lon="4.829300">
        <ele>23.81211</ele>
        <time>2021-07-01T09:47:28Z</time>
      </trkpt>
      <trkpt lat="43.636162" lon="4.828918">
        <ele>24.02665</ele>
        <time>2021-07-01T09:47:29Z</time>
      </trkpt>
      <trkpt lat="43.635990" lon="4.828519">
        <ele>23.84977</ele>
        <time>2021-07-01T09:47:30Z</time>
      </trkpt>
      <trkpt lat="43.635822" lon="4.828126">
        <ele>23.71787</ele>
        <time>2021-07-01T09:47:31Z</time>
      </trkpt>
      <trkpt lat="43.635662" lon="4.827764">
        <ele>23.69712</ele>
        <time>2021-07-01T09:47:32Z</time>
      </trkpt>
      <trkpt lat="43.635487" lon="4.827379">
        <ele>23.47574</ele>
        <time>2021-07-01T09:47:33Z</time>
      </trkpt>
      <trkpt lat="43.635311" lon="4.826997">
        <ele>23.38492</ele>
        <time>2021-07-01T09:47:34Z</time>
      </trkpt>
      <trkpt lat="43.635128" lon="4.826601">
        <ele>23.38773</ele>
        <time>2021-07-01T09:47:35Z</time>
      </trkpt>
      <trkpt lat="43.634956" lon="4.826242">
        <ele>23.31998</ele>
        <time>2021-07-01T09:47:36Z</time>
      </trkpt>
      <trkpt lat="43.634956" lon="4.826242">
        <ele>22.60331</ele>
        <time>2021-07-01T09:47:37Z</time>
      </trkpt>
      <trkpt lat="43.634777" lon="4.825876">
        <ele>22.06968</ele>
        <time>2021-07-01T09:47:38Z</time>
      </trkpt>
      <trkpt lat="43.634602" lon="4.825514">
        <ele>21.86631</ele>
        <time>2021-07-01T09:47:39Z</time>
      </trkpt>
      <trkpt lat="43.634422" lon="4.825141">
        <ele>21.46860</ele>
        <time>2021-07-01T09:47:40Z</time>
      </trkpt>
      <trkpt lat="43.634243" lon="4.824771">
        <ele>21.41306</ele>
        <time>2021-07-01T09:47:41Z</time>
      </trkpt>
      <trkpt lat="43.634068" lon="4.824406">
        <ele>21.45230</ele>
        <time>2021-07-01T09:47:42Z</time>
      </trkpt>
      <trkpt lat="43.633892" lon="4.824050">
        <ele>21.49094</ele>
        <time>2021-07-01T09:47:43Z</time>
      </trkpt>
      <trkpt lat="43.633724" lon="4.823698">
        <ele>21.58609</ele>
        <time>2021-07-01T09:47:44Z</time>
      </trkpt>
      <trkpt lat="43.633553" lon="4.823347">
        <ele>21.77323</ele>
        <time>2021-07-01T09:47:45Z</time>
      </trkpt>
      <trkpt lat="43.633385" lon="4.822990">
        <ele>22.16910</ele>
        <time>2021-07-01T09:47:46Z</time>
      </trkpt>
      <trkpt lat="43.633224" lon="4.822639">
        <ele>22.22391</ele>
        <time>2021-07-01T09:47:47Z</time>
      </trkpt>
      <trkpt lat="43.633064" lon="4.822290">
        <ele>22.38041</ele>
        <time>2021-07-01T09:47:48Z</time>
      </trkpt>
      <trkpt lat="43.632900" lon="4.821929">
        <ele>22.49503</ele>
        <time>2021-07-01T09:47:49Z</time>
      </trkpt>
      <trkpt lat="43.632748" lon="4.821579">
        <ele>22.39859</ele>
        <time>2021-07-01T09:47:50Z</time>
      </trkpt>
      <trkpt lat="43.632607" lon="4.821243">
        <ele>22.28897</ele>
        <time>2021-07-01T09:47:51Z</time>
      </trkpt>
      <trkpt lat="43.632462" lon="4.820894">
        <ele>22.11917</ele>
        <time>2021-07-01T09:47:52Z</time>
      </trkpt>
      <trkpt lat="43.632313" lon="4.820522">
        <ele>22.09775</ele>
        <time>2021-07-01T09:47:53Z</time>
      </trkpt>
      <trkpt lat="43.632172" lon="4.820165">
        <ele>21.96671</ele>
        <time>2021-07-01T09:47:54Z</time>
      </trkpt>
      <trkpt lat="43.632034" lon="4.819819">
        <ele>21.78257</ele>
        <time>2021-07-01T09:47:55Z</time>
      </trkpt>
      <trkpt lat="43.631908" lon="4.819457">
        <ele>21.61209</ele>
        <time>2021-07-01T09:47:56Z</time>
      </trkpt>
      <trkpt lat="43.631786" lon="4.819104">
        <ele>21.54850</ele>
        <time>2021-07-01T09:47:57Z</time>
      </trkpt>
      <trkpt lat="43.631668" lon="4.818763">
        <ele>22.03708</ele>
        <time>2021-07-01T09:47:58Z</time>
      </trkpt>
      <trkpt lat="43.631546" lon="4.818380">
        <ele>22.13980</ele>
        <time>2021-07-01T09:47:59Z</time>
      </trkpt>
      <trkpt lat="43.631428" lon="4.818006">
        <ele>22.09897</ele>
        <time>2021-07-01T09:48:00Z</time>
      </trkpt>
      <trkpt lat="43.631306" lon="4.817630">
        <ele>21.84885</ele>
        <time>2021-07-01T09:48:01Z</time>
      </trkpt>
      <trkpt lat="43.631203" lon="4.817264">
        <ele>21.66214</ele>
        <time>2021-07-01T09:48:02Z</time>
      </trkpt>
      <trkpt lat="43.631096" lon="4.816890">
        <ele>21.66275</ele>
        <time>2021-07-01T09:48:03Z</time>
      </trkpt>
      <trkpt lat="43.630989" lon="4.816507">
        <ele>21.44297</ele>
        <time>2021-07-01T09:48:04Z</time>
      </trkpt>
      <trkpt lat="43.630894" lon="4.816124">
        <ele>21.24112</ele>
        <time>2021-07-01T09:48:05Z</time>
      </trkpt>
      <trkpt lat="43.630894" lon="4.816124">
        <ele>21.50925</ele>
        <time>2021-07-01T09:48:06Z</time>
      </trkpt>
      <trkpt lat="43.630795" lon="4.815732">
        <ele>21.34470</ele>
        <time>2021-07-01T09:48:07Z</time>
      </trkpt>
      <trkpt lat="43.630695" lon="4.815339">
        <ele>21.13449</ele>
        <time>2021-07-01T09:48:08Z</time>
      </trkpt>
      <trkpt lat="43.630611" lon="4.814961">
        <ele>20.91080</ele>
        <time>2021-07-01T09:48:09Z</time>
      </trkpt>
      <trkpt lat="43.630524" lon="4.814583">
        <ele>20.79319</ele>
        <time>2021-07-01T09:48:10Z</time>
      </trkpt>
      <trkpt lat="43.630440" lon="4.814197">
        <ele>21.13938</ele>
        <time>2021-07-01T09:48:11Z</time>
      </trkpt>
      <trkpt lat="43.630363" lon="4.813815">
        <ele>20.82608</ele>
        <time>2021-07-01T09:48:12Z</time>
      </trkpt>
      <trkpt lat="43.630291" lon="4.813429">
        <ele>20.78183</ele>
        <time>2021-07-01T09:48:13Z</time>
      </trkpt>
      <trkpt lat="43.630219" lon="4.813024">
        <ele>20.52976</ele>
        <time>2021-07-01T09:48:14Z</time>
      </trkpt>
      <trkpt lat="43.630154" lon="4.812649">
        <ele>20.47464</ele>
        <time>2021-07-01T09:48:15Z</time>
      </trkpt>
      <trkpt lat="43.630089" lon="4.812268">
        <ele>20.29557</ele>
        <time>2021-07-01T09:48:16Z</time>
      </trkpt>
      <trkpt lat="43.630032" lon="4.811875">
        <ele>19.42936</ele>
        <time>2021-07-01T09:48:17Z</time>
      </trkpt>
      <trkpt lat="43.629971" lon="4.811474">
        <ele>19.37949</ele>
        <time>2021-07-01T09:48:18Z</time>
      </trkpt>
      <trkpt lat="43.629925" lon="4.811077">
        <ele>19.52488</ele>
        <time>2021-07-01T09:48:19Z</time>
      </trkpt>
      <trkpt lat="43.629875" lon="4.810697">
        <ele>19.26682</ele>
        <time>2021-07-01T09:48:20Z</time>
      </trkpt>
      <trkpt lat="43.629829" lon="4.810318">
        <ele>18.94797</ele>
        <time>2021-07-01T09:48:21Z</time>
      </trkpt>
      <trkpt lat="43.629791" lon="4.809928">
        <ele>18.84531</ele>
        <time>2021-07-01T09:48:22Z</time>
      </trkpt>
      <trkpt lat="43.629753" lon="4.809523">
        <ele>18.67997</ele>
        <time>2021-07-01T09:48:23Z</time>
      </trkpt>
      <trkpt lat="43.629719" lon="4.809129">
        <ele>18.79355</ele>
        <time>2021-07-01T09:48:24Z</time>
      </trkpt>
      <trkpt lat="43.629692" lon="4.808730">
        <ele>18.78061</ele>
        <time>2021-07-01T09:48:25Z</time>
      </trkpt>
      <trkpt lat="43.629665" lon="4.808342">
        <ele>18.68076</ele>
        <time>2021-07-01T09:48:26Z</time>
      </trkpt>
      <trkpt lat="43.629642" lon="4.807942">
        <ele>18.55417</ele>
        <time>2021-07-01T09:48:27Z</time>
      </trkpt>
      <trkpt lat="43.629627" lon="4.807560">
        <ele>19.00284</ele>
        <time>2021-07-01T09:48:28Z</time>
      </trkpt>
      <trkpt lat="43.629612" lon="4.807132">
        <ele>18.93045</ele>
        <time>2021-07-01T09:48:29Z</time>
      </trkpt>
      <trkpt lat="43.629597" lon="4.806736">
        <ele>18.80613</ele>
        <time>2021-07-01T09:48:30Z</time>
      </trkpt>
      <trkpt lat="43.629589" lon="4.806334">
        <ele>18.50217</ele>
        <time>2021-07-01T09:48:31Z</time>
      </trkpt>
      <trkpt lat="43.629585" lon="4.805948">
        <ele>18.50949</ele>
        <time>2021-07-01T09:48:32Z</time>
      </trkpt>
      <trkpt lat="43.629589" lon="4.805536">
        <ele>19.08823</ele>
        <time>2021-07-01T09:48:33Z</time>
      </trkpt>
      <trkpt lat="43.629593" lon="4.805152">
        <ele>18.93424</ele>
        <time>2021-07-01T09:48:34Z</time>
      </trkpt>
      <trkpt lat="43.629597" lon="4.804753">
        <ele>18.63437</ele>
        <time>2021-07-01T09:48:35Z</time>
      </trkpt>
      <trkpt lat="43.629608" lon="4.804356">
        <ele>19.05484</ele>
        <time>2021-07-01T09:48:36Z</time>
      </trkpt>
      <trkpt lat="43.629620" lon="4.803967">
        <ele>19.24027</ele>
        <time>2021-07-01T09:48:37Z</time>
      </trkpt>
      <trkpt lat="43.629642" lon="4.803568">
        <ele>19.60550</ele>
        <time>2021-07-01T09:48:38Z</time>
      </trkpt>
      <trkpt lat="43.629642" lon="4.803568">
        <ele>20.15024</ele>
        <time>2021-07-01T09:48:39Z</time>
      </trkpt>
      <trkpt lat="43.629665" lon="4.803195">
        <ele>19.70438</ele>
        <time>2021-07-01T09:48:40Z</time>
      </trkpt>
      <trkpt lat="43.629696" lon="4.802777">
        <ele>19.85978</ele>
        <time>2021-07-01T09:48:41Z</time>
      </trkpt>
      <trkpt lat="43.629730" lon="4.802395">
        <ele>19.78269</ele>
        <time>2021-07-01T09:48:42Z</time>
      </trkpt>
      <trkpt lat="43.629761" lon="4.802032">
        <ele>19.83500</ele>
        <time>2021-07-01T09:48:43Z</time>
      </trkpt>
      <trkpt lat="43.629799" lon="4.801663">
        <ele>19.64231</ele>
        <time>2021-07-01T09:48:44Z</time>
      </trkpt>
      <trkpt lat="43.629837" lon="4.801291">
        <ele>19.68515</ele>
        <time>2021-07-01T09:48:45Z</time>
      </trkpt>
      <trkpt lat="43.629871" lon="4.800929">
        <ele>19.57090</ele>
        <time>2021-07-01T09:48:46Z</time>
      </trkpt>
      <trkpt lat="43.629917" lon="4.800566">
        <ele>19.83622</ele>
        <time>2021-07-01T09:48:47Z</time>
      </trkpt>
      <trkpt lat="43.629971" lon="4.800186">
        <ele>19.61643</ele>
        <time>2021-07-01T09:48:48Z</time>
      </trkpt>
      <trkpt lat="43.630020" lon="4.799825">
        <ele>19.39829</ele>
        <time>2021-07-01T09:48:49Z</time>
      </trkpt>
      <trkpt lat="43.630074" lon="4.799463">
        <ele>19.71958</ele>
        <time>2021-07-01T09:48:50Z</time>
      </trkpt>
      <trkpt lat="43.630135" lon="4.799076">
        <ele>19.74222</ele>
        <time>2021-07-01T09:48:51Z</time>
      </trkpt>
      <trkpt lat="43.630203" lon="4.798669">
        <ele>19.64273</ele>
        <time>2021-07-01T09:48:52Z</time>
      </trkpt>
      <trkpt lat="43.630264" lon="4.798308">
        <ele>19.61765</ele>
        <time>2021-07-01T09:48:53Z</time>
      </trkpt>
      <trkpt lat="43.630329" lon="4.797919">
        <ele>19.43772</ele>
        <time>2021-07-01T09:48:54Z</time>
      </trkpt>
      <trkpt lat="43.630402" lon="4.797543">
        <ele>19.55927</ele>
        <time>2021-07-01T09:48:55Z</time>
      </trkpt>
      <trkpt lat="43.630470" lon="4.797184">
        <ele>19.68640</ele>
        <time>2021-07-01T09:48:56Z</time>
      </trkpt>
      <trkpt lat="43.630547" lon="4.796813">
        <ele>19.45038</ele>
        <time>2021-07-01T09:48:57Z</time>
      </trkpt>
      <trkpt lat="43.630619" lon="4.796429">
        <ele>19.25885</ele>
        <time>2021-07-01T09:48:58Z</time>
      </trkpt>
      <trkpt lat="43.630703" lon="4.796035">
        <ele>18.93231</ele>
        <time>2021-07-01T09:48:59Z</time>
      </trkpt>
      <trkpt lat="43.630783" lon="4.795654">
        <ele>18.75800</ele>
        <time>2021-07-01T09:49:00Z</time>
      </trkpt>
      <trkpt lat="43.630859" lon="4.795281">
        <ele>18.46014</ele>
        <time>2021-07-01T09:49:01Z</time>
      </trkpt>
      <trkpt lat="43.630943" lon="4.794911">
        <ele>18.41772</ele>
        <time>2021-07-01T09:49:02Z</time>
      </trkpt>
      <trkpt lat="43.631023" lon="4.794540">
        <ele>18.50317</ele>
        <time>2021-07-01T09:49:03Z</time>
      </trkpt>
      <trkpt lat="43.631111" lon="4.794155">
        <ele>18.70013</ele>
        <time>2021-07-01T09:49:04Z</time>
      </trkpt>
      <trkpt lat="43.631195" lon="4.793777">
        <ele>18.62299</ele>
        <time>2021-07-01T09:49:05Z</time>
      </trkpt>
      <trkpt lat="43.631279" lon="4.793407">
        <ele>19.01862</ele>
        <time>2021-07-01T09:49:06Z</time>
      </trkpt>
      <trkpt lat="43.631367" lon="4.793008">
        <ele>19.23993</ele>
        <time>2021-07-01T09:49:07Z</time>
      </trkpt>
      <trkpt lat="43.631451" lon="4.792636">
        <ele>19.18042</ele>
        <time>2021-07-01T09:49:08Z</time>
      </trkpt>
      <trkpt lat="43.631538" lon="4.792243">
        <ele>19.24084</ele>
        <time>2021-07-01T09:49:09Z</time>
      </trkpt>
      <trkpt lat="43.631618" lon="4.791875">
        <ele>19.21899</ele>
        <time>2021-07-01T09:49:10Z</time>
      </trkpt>
      <trkpt lat="43.631695" lon="4.791535">
        <ele>19.17682</ele>
        <time>2021-07-01T09:49:11Z</time>
      </trkpt>
      <trkpt lat="43.631775" lon="4.791186">
        <ele>18.65717</ele>
        <time>2021-07-01T09:49:12Z</time>
      </trkpt>
      <trkpt lat="43.631775" lon="4.791186">
        <ele>18.84338</ele>
        <time>2021-07-01T09:49:13Z</time>
      </trkpt>
      <trkpt lat="43.631859" lon="4.790815">
        <ele>18.98279</ele>
        <time>2021-07-01T09:49:14Z</time>
      </trkpt>
      <trkpt lat="43.631931" lon="4.790474">
        <ele>18.94586</ele>
        <time>2021-07-01T09:49:15Z</time>
      </trkpt>
      <trkpt lat="43.632011" lon="4.790119">
        <ele>19.30707</ele>
        <time>2021-07-01T09:49:16Z</time>
      </trkpt>
      <trkpt lat="43.632092" lon="4.789763">
        <ele>19.49365</ele>
        <time>2021-07-01T09:49:17Z</time>
      </trkpt>
      <trkpt lat="43.632172" lon="4.789396">
        <ele>19.29669</ele>
        <time>2021-07-01T09:49:18Z</time>
      </trkpt>
      <trkpt lat="43.632256" lon="4.789019">
        <ele>19.03870</ele>
        <time>2021-07-01T09:49:19Z</time>
      </trkpt>
      <trkpt lat="43.632339" lon="4.788642">
        <ele>19.18066</ele>
        <time>2021-07-01T09:49:20Z</time>
      </trkpt>
      <trkpt lat="43.632427" lon="4.788248">
        <ele>18.74768</ele>
        <time>2021-07-01T09:49:21Z</time>
      </trkpt>
      <trkpt lat="43.632515" lon="4.787855">
        <ele>18.57428</ele>
        <time>2021-07-01T09:49:22Z</time>
      </trkpt>
      <trkpt lat="43.632603" lon="4.787470">
        <ele>18.79376</ele>
        <time>2021-07-01T09:49:23Z</time>
      </trkpt>
      <trkpt lat="43.632687" lon="4.787091">
        <ele>19.00928</ele>
        <time>2021-07-01T09:49:24Z</time>
      </trkpt>
      <trkpt lat="43.632763" lon="4.786750">
        <ele>18.99335</ele>
        <time>2021-07-01T09:49:25Z</time>
      </trkpt>
      <trkpt lat="43.632835" lon="4.786427">
        <ele>19.27399</ele>
        <time>2021-07-01T09:49:26Z</time>
      </trkpt>
      <trkpt lat="43.632912" lon="4.786079">
        <ele>19.08875</ele>
        <time>2021-07-01T09:49:27Z</time>
      </trkpt>
      <trkpt lat="43.632988" lon="4.785740">
        <ele>18.90753</ele>
        <time>2021-07-01T09:49:28Z</time>
      </trkpt>
      <trkpt lat="43.633060" lon="4.785420">
        <ele>19.01263</ele>
        <time>2021-07-01T09:49:29Z</time>
      </trkpt>
      <trkpt lat="43.633129" lon="4.785099">
        <ele>19.25696</ele>
        <time>2021-07-01T09:49:30Z</time>
      </trkpt>
      <trkpt lat="43.633202" lon="4.784772">
        <ele>18.98615</ele>
        <time>2021-07-01T09:49:31Z</time>
      </trkpt>
      <trkpt lat="43.633274" lon="4.784460">
        <ele>19.08612</ele>
        <time>2021-07-01T09:49:32Z</time>
      </trkpt>
      <trkpt lat="43.633339" lon="4.784163">
        <ele>19.23712</ele>
        <time>2021-07-01T09:49:33Z</time>
      </trkpt>
      <trkpt lat="43.633408" lon="4.783841">
        <ele>19.23438</ele>
        <time>2021-07-01T09:49:34Z</time>
      </trkpt>
      <trkpt lat="43.633469" lon="4.783532">
        <ele>19.46094</ele>
        <time>2021-07-01T09:49:35Z</time>
      </trkpt>
      <trkpt lat="43.633526" lon="4.783238">
        <ele>19.11597</ele>
        <time>2021-07-01T09:49:36Z</time>
      </trkpt>
      <trkpt lat="43.633587" lon="4.782927">
        <ele>19.22675</ele>
        <time>2021-07-01T09:49:37Z</time>
      </trkpt>
      <trkpt lat="43.633640" lon="4.782619">
        <ele>19.15649</ele>
        <time>2021-07-01T09:49:38Z</time>
      </trkpt>
      <trkpt lat="43.633682" lon="4.782300">
        <ele>18.96381</ele>
        <time>2021-07-01T09:49:39Z</time>
      </trkpt>
      <trkpt lat="43.633724" lon="4.781991">
        <ele>19.20380</ele>
        <time>2021-07-01T09:49:40Z</time>
      </trkpt>
      <trkpt lat="43.633770" lon="4.781668">
        <ele>19.49738</ele>
        <time>2021-07-01T09:49:41Z</time>
      </trkpt>
      <trkpt lat="43.633804" lon="4.781334">
        <ele>19.57202</ele>
        <time>2021-07-01T09:49:42Z</time>
      </trkpt>
      <trkpt lat="43.633835" lon="4.781016">
        <ele>19.34143</ele>
        <time>2021-07-01T09:49:43Z</time>
      </trkpt>
      <trkpt lat="43.633862" lon="4.780650">
        <ele>19.68134</ele>
        <time>2021-07-01T09:49:44Z</time>
      </trkpt>
      <trkpt lat="43.633884" lon="4.780324">
        <ele>19.98468</ele>
        <time>2021-07-01T09:49:45Z</time>
      </trkpt>
      <trkpt lat="43.633900" lon="4.779987">
        <ele>20.07172</ele>
        <time>2021-07-01T09:49:46Z</time>
      </trkpt>
      <trkpt lat="43.633907" lon="4.779663">
        <ele>20.27588</ele>
        <time>2021-07-01T09:49:47Z</time>
      </trkpt>
      <trkpt lat="43.633911" lon="4.779284">
        <ele>20.22571</ele>
        <time>2021-07-01T09:49:48Z</time>
      </trkpt>
      <trkpt lat="43.633911" lon="4.779284">
        <ele>19.84912</ele>
        <time>2021-07-01T09:49:49Z</time>
      </trkpt>
      <trkpt lat="43.633907" lon="4.778941">
        <ele>19.83502</ele>
        <time>2021-07-01T09:49:50Z</time>
      </trkpt>
      <trkpt lat="43.633904" lon="4.778574">
        <ele>19.81366</ele>
        <time>2021-07-01T09:49:51Z</time>
      </trkpt>
      <trkpt lat="43.633896" lon="4.778232">
        <ele>19.94641</ele>
        <time>2021-07-01T09:49:52Z</time>
      </trkpt>
      <trkpt lat="43.633877" lon="4.777870">
        <ele>20.15912</ele>
        <time>2021-07-01T09:49:53Z</time>
      </trkpt>
      <trkpt lat="43.633862" lon="4.777517">
        <ele>20.04950</ele>
        <time>2021-07-01T09:49:54Z</time>
      </trkpt>
      <trkpt lat="43.633831" lon="4.777148">
        <ele>20.22546</ele>
        <time>2021-07-01T09:49:55Z</time>
      </trkpt>
      <trkpt lat="43.633793" lon="4.776805">
        <ele>20.15381</ele>
        <time>2021-07-01T09:49:56Z</time>
      </trkpt>
      <trkpt lat="43.633747" lon="4.776440">
        <ele>19.99628</ele>
        <time>2021-07-01T09:49:57Z</time>
      </trkpt>
      <trkpt lat="43.633701" lon="4.776068">
        <ele>19.85040</ele>
        <time>2021-07-01T09:49:58Z</time>
      </trkpt>
      <trkpt lat="43.633648" lon="4.775705">
        <ele>19.98254</ele>
        <time>2021-07-01T09:49:59Z</time>
      </trkpt>
      <trkpt lat="43.633587" lon="4.775323">
        <ele>19.97894</ele>
        <time>2021-07-01T09:50:00Z</time>
      </trkpt>
      <trkpt lat="43.633518" lon="4.774963">
        <ele>20.17999</ele>
        <time>2021-07-01T09:50:01Z</time>
      </trkpt>
      <trkpt lat="43.633442" lon="4.774584">
        <ele>20.23041</ele>
        <time>2021-07-01T09:50:02Z</time>
      </trkpt>
      <trkpt lat="43.633350" lon="4.774195">
        <ele>20.29755</ele>
        <time>2021-07-01T09:50:03Z</time>
      </trkpt>
      <trkpt lat="43.633266" lon="4.773828">
        <ele>20.13593</ele>
        <time>2021-07-01T09:50:04Z</time>
      </trkpt>
      <trkpt lat="43.633163" lon="4.773478">
        <ele>19.98285</ele>
        <time>2021-07-01T09:50:05Z</time>
      </trkpt>
      <trkpt lat="43.633064" lon="4.773132">
        <ele>20.11224</ele>
        <time>2021-07-01T09:50:06Z</time>
      </trkpt>
      <trkpt lat="43.632957" lon="4.772780">
        <ele>20.30133</ele>
        <time>2021-07-01T09:50:07Z</time>
      </trkpt>
      <trkpt lat="43.632854" lon="4.772436">
        <ele>20.17621</ele>
        <time>2021-07-01T09:50:08Z</time>
      </trkpt>
      <trkpt lat="43.632736" lon="4.772076">
        <ele>20.20630</ele>
        <time>2021-07-01T09:50:09Z</time>
      </trkpt>
      <trkpt lat="43.632614" lon="4.771737">
        <ele>20.48798</ele>
        <time>2021-07-01T09:50:10Z</time>
      </trkpt>
      <trkpt lat="43.632481" lon="4.771381">
        <ele>20.74048</ele>
        <time>2021-07-01T09:50:11Z</time>
      </trkpt>
      <trkpt lat="43.632343" lon="4.771044">
        <ele>21.08203</ele>
        <time>2021-07-01T09:50:12Z</time>
      </trkpt>
      <trkpt lat="43.632210" lon="4.770728">
        <ele>20.44189</ele>
        <time>2021-07-01T09:50:13Z</time>
      </trkpt>
      <trkpt lat="43.632072" lon="4.770399">
        <ele>20.28070</ele>
        <time>2021-07-01T09:50:14Z</time>
      </trkpt>
      <trkpt lat="43.631935" lon="4.770066">
        <ele>20.58539</ele>
        <time>2021-07-01T09:50:15Z</time>
      </trkpt>
      <trkpt lat="43.631802" lon="4.769746">
        <ele>20.91577</ele>
        <time>2021-07-01T09:50:16Z</time>
      </trkpt>
      <trkpt lat="43.631664" lon="4.769409">
        <ele>21.11572</ele>
        <time>2021-07-01T09:50:17Z</time>
      </trkpt>
      <trkpt lat="43.631531" lon="4.769066">
        <ele>21.59698</ele>
        <time>2021-07-01T09:50:18Z</time>
      </trkpt>
      <trkpt lat="43.631393" lon="4.768726">
        <ele>22.31287</ele>
        <time>2021-07-01T09:50:19Z</time>
      </trkpt>
      <trkpt lat="43.631393" lon="4.768726">
        <ele>22.76801</ele>
        <time>2021-07-01T09:50:20Z</time>
      </trkpt>
      <trkpt lat="43.631268" lon="4.768385">
        <ele>23.20905</ele>
        <time>2021-07-01T09:50:21Z</time>
      </trkpt>
      <trkpt lat="43.631138" lon="4.768048">
        <ele>23.80017</ele>
        <time>2021-07-01T09:50:22Z</time>
      </trkpt>
      <trkpt lat="43.631020" lon="4.767729">
        <ele>24.28003</ele>
        <time>2021-07-01T09:50:23Z</time>
      </trkpt>
      <trkpt lat="43.630920" lon="4.767438">
        <ele>24.89709</ele>
        <time>2021-07-01T09:50:24Z</time>
      </trkpt>
      <trkpt lat="43.630783" lon="4.767024">
        <ele>25.36938</ele>
        <time>2021-07-01T09:50:25Z</time>
      </trkpt>
      <trkpt lat="43.630676" lon="4.766677">
        <ele>25.92804</ele>
        <time>2021-07-01T09:50:26Z</time>
      </trkpt>
      <trkpt lat="43.630573" lon="4.766339">
        <ele>26.22119</ele>
        <time>2021-07-01T09:50:27Z</time>
      </trkpt>
      <trkpt lat="43.630478" lon="4.765989">
        <ele>26.64441</ele>
        <time>2021-07-01T09:50:28Z</time>
      </trkpt>
      <trkpt lat="43.630379" lon="4.765632">
        <ele>26.93738</ele>
        <time>2021-07-01T09:50:29Z</time>
      </trkpt>
      <trkpt lat="43.630283" lon="4.765287">
        <ele>27.02020</ele>
        <time>2021-07-01T09:50:30Z</time>
      </trkpt>
      <trkpt lat="43.630192" lon="4.764905">
        <ele>26.84143</ele>
        <time>2021-07-01T09:50:31Z</time>
      </trkpt>
      <trkpt lat="43.630104" lon="4.764532">
        <ele>26.53412</ele>
        <time>2021-07-01T09:50:32Z</time>
      </trkpt>
      <trkpt lat="43.630024" lon="4.764152">
        <ele>26.27594</ele>
        <time>2021-07-01T09:50:33Z</time>
      </trkpt>
      <trkpt lat="43.629944" lon="4.763765">
        <ele>26.05060</ele>
        <time>2021-07-01T09:50:34Z</time>
      </trkpt>
      <trkpt lat="43.629875" lon="4.763400">
        <ele>25.73895</ele>
        <time>2021-07-01T09:50:35Z</time>
      </trkpt>
      <trkpt lat="43.629807" lon="4.763003">
        <ele>25.50018</ele>
        <time>2021-07-01T09:50:36Z</time>
      </trkpt>
      <trkpt lat="43.629753" lon="4.762645">
        <ele>25.13849</ele>
        <time>2021-07-01T09:50:37Z</time>
      </trkpt>
      <trkpt lat="43.629696" lon="4.762256">
        <ele>24.61273</ele>
        <time>2021-07-01T09:50:38Z</time>
      </trkpt>
      <trkpt lat="43.629642" lon="4.761865">
        <ele>24.29486</ele>
        <time>2021-07-01T09:50:39Z</time>
      </trkpt>
      <trkpt lat="43.629593" lon="4.761456">
        <ele>24.18353</ele>
        <time>2021-07-01T09:50:40Z</time>
      </trkpt>
      <trkpt lat="43.629559" lon="4.761081">
        <ele>23.86890</ele>
        <time>2021-07-01T09:50:41Z</time>
      </trkpt>
      <trkpt lat="43.629517" lon="4.760645">
        <ele>23.51929</ele>
        <time>2021-07-01T09:50:42Z</time>
      </trkpt>
      <trkpt lat="43.629482" lon="4.760244">
        <ele>22.95563</ele>
        <time>2021-07-01T09:50:43Z</time>
      </trkpt>
      <trkpt lat="43.629452" lon="4.759835">
        <ele>21.91791</ele>
        <time>2021-07-01T09:50:44Z</time>
      </trkpt>
      <trkpt lat="43.629425" lon="4.759397">
        <ele>21.29559</ele>
        <time>2021-07-01T09:50:45Z</time>
      </trkpt>
      <trkpt lat="43.629410" lon="4.758966">
        <ele>20.80334</ele>
        <time>2021-07-01T09:50:46Z</time>
      </trkpt>
      <trkpt lat="43.629395" lon="4.758527">
        <ele>19.95264</ele>
        <time>2021-07-01T09:50:47Z</time>
      </trkpt>
      <trkpt lat="43.629395" lon="4.758527">
        <ele>19.80353</ele>
        <time>2021-07-01T09:50:48Z</time>
      </trkpt>
      <trkpt lat="43.629398" lon="4.758113">
        <ele>18.91870</ele>
        <time>2021-07-01T09:50:49Z</time>
      </trkpt>
      <trkpt lat="43.629402" lon="4.757654">
        <ele>18.24982</ele>
        <time>2021-07-01T09:50:50Z</time>
      </trkpt>
      <trkpt lat="43.629406" lon="4.757242">
        <ele>17.58173</ele>
        <time>2021-07-01T09:50:51Z</time>
      </trkpt>
      <trkpt lat="43.629421" lon="4.756816">
        <ele>17.27429</ele>
        <time>2021-07-01T09:50:52Z</time>
      </trkpt>
      <trkpt lat="43.629444" lon="4.756374">
        <ele>16.88007</ele>
        <time>2021-07-01T09:50:53Z</time>
      </trkpt>
      <trkpt lat="43.629471" lon="4.755925">
        <ele>16.64453</ele>
        <time>2021-07-01T09:50:54Z</time>
      </trkpt>
      <trkpt lat="43.629501" lon="4.755507">
        <ele>16.62714</ele>
        <time>2021-07-01T09:50:55Z</time>
      </trkpt>
      <trkpt lat="43.629543" lon="4.755063">
        <ele>16.35052</ele>
        <time>2021-07-01T09:50:56Z</time>
      </trkpt>
      <trkpt lat="43.629585" lon="4.754631">
        <ele>16.13495</ele>
        <time>2021-07-01T09:50:57Z</time>
      </trkpt>
      <trkpt lat="43.629635" lon="4.754190">
        <ele>15.48535</ele>
        <time>2021-07-01T09:50:58Z</time>
      </trkpt>
      <trkpt lat="43.629688" lon="4.753773">
        <ele>14.91461</ele>
        <time>2021-07-01T09:50:59Z</time>
      </trkpt>
      <trkpt lat="43.629745" lon="4.753358">
        <ele>14.48407</ele>
        <time>2021-07-01T09:51:00Z</time>
      </trkpt>
      <trkpt lat="43.629807" lon="4.752930">
        <ele>14.27972</ele>
        <time>2021-07-01T09:51:01Z</time>
      </trkpt>
      <trkpt lat="43.629875" lon="4.752528">
        <ele>14.26453</ele>
        <time>2021-07-01T09:51:02Z</time>
      </trkpt>
      <trkpt lat="43.629951" lon="4.752111">
        <ele>14.05475</ele>
        <time>2021-07-01T09:51:03Z</time>
      </trkpt>
      <trkpt lat="43.630024" lon="4.751716">
        <ele>14.04535</ele>
        <time>2021-07-01T09:51:04Z</time>
      </trkpt>
      <trkpt lat="43.630108" lon="4.751308">
        <ele>13.91125</ele>
        <time>2021-07-01T09:51:05Z</time>
      </trkpt>
      <trkpt lat="43.630192" lon="4.750903">
        <ele>13.63519</ele>
        <time>2021-07-01T09:51:06Z</time>
      </trkpt>
      <trkpt lat="43.630287" lon="4.750501">
        <ele>13.27368</ele>
        <time>2021-07-01T09:51:07Z</time>
      </trkpt>
      <trkpt lat="43.630371" lon="4.750129">
        <ele>12.76654</ele>
        <time>2021-07-01T09:51:08Z</time>
      </trkpt>
      <trkpt lat="43.630466" lon="4.749719">
        <ele>12.59363</ele>
        <time>2021-07-01T09:51:09Z</time>
      </trkpt>
      <trkpt lat="43.630573" lon="4.749317">
        <ele>12.54163</ele>
        <time>2021-07-01T09:51:10Z</time>
      </trkpt>
      <trkpt lat="43.630676" lon="4.748928">
        <ele>11.68549</ele>
        <time>2021-07-01T09:51:11Z</time>
      </trkpt>
      <trkpt lat="43.630775" lon="4.748549">
        <ele>11.69135</ele>
        <time>2021-07-01T09:51:12Z</time>
      </trkpt>
      <trkpt lat="43.630905" lon="4.748144">
        <ele>11.40039</ele>
        <time>2021-07-01T09:51:13Z</time>
      </trkpt>
      <trkpt lat="43.631001" lon="4.747769">
        <ele>10.77100</ele>
        <time>2021-07-01T09:51:14Z</time>
      </trkpt>
      <trkpt lat="43.631130" lon="4.747354">
        <ele>10.70410</ele>
        <time>2021-07-01T09:51:15Z</time>
      </trkpt>
      <trkpt lat="43.631245" lon="4.746983">
        <ele>10.11694</ele>
        <time>2021-07-01T09:51:16Z</time>
      </trkpt>
      <trkpt lat="43.631367" lon="4.746597">
        <ele>9.79755</ele>
        <time>2021-07-01T09:51:17Z</time>
      </trkpt>
      <trkpt lat="43.631367" lon="4.746597">
        <ele>9.68591</ele>
        <time>2021-07-01T09:51:18Z</time>
      </trkpt>
      <trkpt lat="43.631500" lon="4.746209">
        <ele>9.43567</ele>
        <time>2021-07-01T09:51:19Z</time>
      </trkpt>
      <trkpt lat="43.631630" lon="4.745832">
        <ele>9.49817</ele>
        <time>2021-07-01T09:51:20Z</time>
      </trkpt>
      <trkpt lat="43.631760" lon="4.745463">
        <ele>9.28876</ele>
        <time>2021-07-01T09:51:21Z</time>
      </trkpt>
      <trkpt lat="43.631897" lon="4.745088">
        <ele>9.15033</ele>
        <time>2021-07-01T09:51:22Z</time>
      </trkpt>
      <trkpt lat="43.632034" lon="4.744725">
        <ele>9.09131</ele>
        <time>2021-07-01T09:51:23Z</time>
      </trkpt>
      <trkpt lat="43.632175" lon="4.744351">
        <ele>9.09027</ele>
        <time>2021-07-01T09:51:24Z</time>
      </trkpt>
      <trkpt lat="43.632324" lon="4.743975">
        <ele>9.51556</ele>
        <time>2021-07-01T09:51:25Z</time>
      </trkpt>
      <trkpt lat="43.632477" lon="4.743588">
        <ele>9.43683</ele>
        <time>2021-07-01T09:51:26Z</time>
      </trkpt>
      <trkpt lat="43.632622" lon="4.743214">
        <ele>9.04639</ele>
        <time>2021-07-01T09:51:27Z</time>
      </trkpt>
      <trkpt lat="43.632782" lon="4.742841">
        <ele>9.48358</ele>
        <time>2021-07-01T09:51:28Z</time>
      </trkpt>
      <trkpt lat="43.632935" lon="4.742486">
        <ele>9.09943</ele>
        <time>2021-07-01T09:51:29Z</time>
      </trkpt>
      <trkpt lat="43.633091" lon="4.742122">
        <ele>8.45087</ele>
        <time>2021-07-01T09:51:30Z</time>
      </trkpt>
      <trkpt lat="43.633255" lon="4.741751">
        <ele>8.27380</ele>
        <time>2021-07-01T09:51:31Z</time>
      </trkpt>
      <trkpt lat="43.633415" lon="4.741396">
        <ele>8.12079</ele>
        <time>2021-07-01T09:51:32Z</time>
      </trkpt>
      <trkpt lat="43.633587" lon="4.741021">
        <ele>7.92114</ele>
        <time>2021-07-01T09:51:33Z</time>
      </trkpt>
      <trkpt lat="43.633755" lon="4.740667">
        <ele>7.87372</ele>
        <time>2021-07-01T09:51:34Z</time>
      </trkpt>
      <trkpt lat="43.633926" lon="4.740316">
        <ele>7.85651</ele>
        <time>2021-07-01T09:51:35Z</time>
      </trkpt>
      <trkpt lat="43.634094" lon="4.739970">
        <ele>7.88770</ele>
        <time>2021-07-01T09:51:36Z</time>
      </trkpt>
      <trkpt lat="43.634266" lon="4.739622">
        <ele>7.89392</ele>
        <time>2021-07-01T09:51:37Z</time>
      </trkpt>
      <trkpt lat="43.634426" lon="4.739295">
        <ele>7.99524</ele>
        <time>2021-07-01T09:51:38Z</time>
      </trkpt>
      <trkpt lat="43.634605" lon="4.738939">
        <ele>7.67664</ele>
        <time>2021-07-01T09:51:39Z</time>
      </trkpt>
      <trkpt lat="43.634781" lon="4.738604">
        <ele>8.26886</ele>
        <time>2021-07-01T09:51:40Z</time>
      </trkpt>
      <trkpt lat="43.634956" lon="4.738264">
        <ele>8.20856</ele>
        <time>2021-07-01T09:51:41Z</time>
      </trkpt>
      <trkpt lat="43.635143" lon="4.737909">
        <ele>7.85620</ele>
        <time>2021-07-01T09:51:42Z</time>
      </trkpt>
      <trkpt lat="43.635323" lon="4.737563">
        <ele>7.54016</ele>
        <time>2021-07-01T09:51:43Z</time>
      </trkpt>
      <trkpt lat="43.635502" lon="4.737221">
        <ele>7.91107</ele>
        <time>2021-07-01T09:51:44Z</time>
      </trkpt>
      <trkpt lat="43.635689" lon="4.736859">
        <ele>7.60052</ele>
        <time>2021-07-01T09:51:45Z</time>
      </trkpt>
      <trkpt lat="43.635872" lon="4.736507">
        <ele>7.61951</ele>
        <time>2021-07-01T09:51:46Z</time>
      </trkpt>
      <trkpt lat="43.636047" lon="4.736167">
        <ele>7.51935</ele>
        <time>2021-07-01T09:51:47Z</time>
      </trkpt>
      <trkpt lat="43.636227" lon="4.735793">
        <ele>7.71393</ele>
        <time>2021-07-01T09:51:48Z</time>
      </trkpt>
      <trkpt lat="43.636383" lon="4.735458">
        <ele>7.71979</ele>
        <time>2021-07-01T09:51:49Z</time>
      </trkpt>
      <trkpt lat="43.636383" lon="4.735458">
        <ele>7.96936</ele>
        <time>2021-07-01T09:51:50Z</time>
      </trkpt>
      <trkpt lat="43.636551" lon="4.735082">
        <ele>7.94653</ele>
        <time>2021-07-01T09:51:51Z</time>
      </trkpt>
      <trkpt lat="43.636864" lon="4.734341">
        <ele>8.06610</ele>
        <time>2021-07-01T09:51:52Z</time>
      </trkpt>
      <trkpt lat="43.636864" lon="4.734341">
        <ele>8.05591</ele>
        <time>2021-07-01T09:51:53Z</time>
      </trkpt>
      <trkpt lat="43.637012" lon="4.733967">
        <ele>7.92255</ele>
        <time>2021-07-01T09:51:54Z</time>
      </trkpt>
      <trkpt lat="43.637146" lon="4.733588">
        <ele>7.92932</ele>
        <time>2021-07-01T09:51:55Z</time>
      </trkpt>
      <trkpt lat="43.637272" lon="4.733222">
        <ele>7.75903</ele>
        <time>2021-07-01T09:51:56Z</time>
      </trkpt>
      <trkpt lat="43.637417" lon="4.732803">
        <ele>7.42157</ele>
        <time>2021-07-01T09:51:57Z</time>
      </trkpt>
      <trkpt lat="43.637531" lon="4.732415">
        <ele>7.51324</ele>
        <time>2021-07-01T09:51:58Z</time>
      </trkpt>
      <trkpt lat="43.637646" lon="4.732011">
        <ele>7.83105</ele>
        <time>2021-07-01T09:51:59Z</time>
      </trkpt>
      <trkpt lat="43.637756" lon="4.731615">
        <ele>7.88959</ele>
        <time>2021-07-01T09:52:00Z</time>
      </trkpt>
      <trkpt lat="43.637867" lon="4.731206">
        <ele>7.76770</ele>
        <time>2021-07-01T09:52:01Z</time>
      </trkpt>
      <trkpt lat="43.637970" lon="4.730814">
        <ele>7.82739</ele>
        <time>2021-07-01T09:52:02Z</time>
      </trkpt>
      <trkpt lat="43.638073" lon="4.730390">
        <ele>7.90601</ele>
        <time>2021-07-01T09:52:03Z</time>
      </trkpt>
      <trkpt lat="43.638168" lon="4.729987">
        <ele>7.87756</ele>
        <time>2021-07-01T09:52:04Z</time>
      </trkpt>
      <trkpt lat="43.638268" lon="4.729583">
        <ele>8.00421</ele>
        <time>2021-07-01T09:52:05Z</time>
      </trkpt>
      <trkpt lat="43.638363" lon="4.729184">
        <ele>8.18750</ele>
        <time>2021-07-01T09:52:06Z</time>
      </trkpt>
      <trkpt lat="43.638454" lon="4.728790">
        <ele>8.39246</ele>
        <time>2021-07-01T09:52:07Z</time>
      </trkpt>
      <trkpt lat="43.638546" lon="4.728387">
        <ele>8.06665</ele>
        <time>2021-07-01T09:52:08Z</time>
      </trkpt>
      <trkpt lat="43.638641" lon="4.727976">
        <ele>8.14667</ele>
        <time>2021-07-01T09:52:09Z</time>
      </trkpt>
      <trkpt lat="43.638737" lon="4.727568">
        <ele>7.84479</ele>
        <time>2021-07-01T09:52:10Z</time>
      </trkpt>
      <trkpt lat="43.638832" lon="4.727151">
        <ele>7.74762</ele>
        <time>2021-07-01T09:52:11Z</time>
      </trkpt>
      <trkpt lat="43.638924" lon="4.726757">
        <ele>7.68018</ele>
        <time>2021-07-01T09:52:12Z</time>
      </trkpt>
      <trkpt lat="43.639019" lon="4.726352">
        <ele>7.92316</ele>
        <time>2021-07-01T09:52:13Z</time>
      </trkpt>
      <trkpt lat="43.639111" lon="4.725944">
        <ele>8.14215</ele>
        <time>2021-07-01T09:52:14Z</time>
      </trkpt>
      <trkpt lat="43.639198" lon="4.725543">
        <ele>8.06744</ele>
        <time>2021-07-01T09:52:15Z</time>
      </trkpt>
      <trkpt lat="43.639290" lon="4.725121">
        <ele>7.69971</ele>
        <time>2021-07-01T09:52:16Z</time>
      </trkpt>
      <trkpt lat="43.639385" lon="4.724714">
        <ele>7.84564</ele>
        <time>2021-07-01T09:52:17Z</time>
      </trkpt>
      <trkpt lat="43.639481" lon="4.724293">
        <ele>7.92560</ele>
        <time>2021-07-01T09:52:18Z</time>
      </trkpt>
      <trkpt lat="43.639500" lon="4.724208">
        <ele>7.77490</ele>
        <time>2021-07-01T09:52:19Z</time>
      </trkpt>
      <trkpt lat="43.639668" lon="4.723480">
        <ele>7.84875</ele>
        <time>2021-07-01T09:52:20Z</time>
      </trkpt>
      <trkpt lat="43.639755" lon="4.723100">
        <ele>7.67889</ele>
        <time>2021-07-01T09:52:21Z</time>
      </trkpt>
      <trkpt lat="43.639839" lon="4.722723">
        <ele>7.19562</ele>
        <time>2021-07-01T09:52:22Z</time>
      </trkpt>
      <trkpt lat="43.639938" lon="4.722291">
        <ele>7.21222</ele>
        <time>2021-07-01T09:52:23Z</time>
      </trkpt>
      <trkpt lat="43.640034" lon="4.721887">
        <ele>7.47498</ele>
        <time>2021-07-01T09:52:24Z</time>
      </trkpt>
      <trkpt lat="43.640118" lon="4.721525">
        <ele>8.10999</ele>
        <time>2021-07-01T09:52:25Z</time>
      </trkpt>
      <trkpt lat="43.640209" lon="4.721111">
        <ele>7.47687</ele>
        <time>2021-07-01T09:52:26Z</time>
      </trkpt>
      <trkpt lat="43.640305" lon="4.720707">
        <ele>7.19324</ele>
        <time>2021-07-01T09:52:27Z</time>
      </trkpt>
      <trkpt lat="43.640396" lon="4.720296">
        <ele>7.22717</ele>
        <time>2021-07-01T09:52:28Z</time>
      </trkpt>
      <trkpt lat="43.640488" lon="4.719904">
        <ele>7.01013</ele>
        <time>2021-07-01T09:52:29Z</time>
      </trkpt>
      <trkpt lat="43.640579" lon="4.719505">
        <ele>7.30280</ele>
        <time>2021-07-01T09:52:30Z</time>
      </trkpt>
      <trkpt lat="43.640671" lon="4.719098">
        <ele>7.26910</ele>
        <time>2021-07-01T09:52:31Z</time>
      </trkpt>
      <trkpt lat="43.640762" lon="4.718698">
        <ele>7.09393</ele>
        <time>2021-07-01T09:52:32Z</time>
      </trkpt>
      <trkpt lat="43.640762" lon="4.718698">
        <ele>6.89728</ele>
        <time>2021-07-01T09:52:33Z</time>
      </trkpt>
      <trkpt lat="43.640854" lon="4.718303">
        <ele>6.84875</ele>
        <time>2021-07-01T09:52:34Z</time>
      </trkpt>
      <trkpt lat="43.640945" lon="4.717899">
        <ele>7.12762</ele>
        <time>2021-07-01T09:52:35Z</time>
      </trkpt>
      <trkpt lat="43.641041" lon="4.717482">
        <ele>6.77026</ele>
        <time>2021-07-01T09:52:36Z</time>
      </trkpt>
      <trkpt lat="43.641132" lon="4.717088">
        <ele>6.95007</ele>
        <time>2021-07-01T09:52:37Z</time>
      </trkpt>
      <trkpt lat="43.641220" lon="4.716697">
        <ele>6.73431</ele>
        <time>2021-07-01T09:52:38Z</time>
      </trkpt>
      <trkpt lat="43.641315" lon="4.716277">
        <ele>6.80231</ele>
        <time>2021-07-01T09:52:39Z</time>
      </trkpt>
      <trkpt lat="43.641411" lon="4.715865">
        <ele>7.12286</ele>
        <time>2021-07-01T09:52:40Z</time>
      </trkpt>
      <trkpt lat="43.641502" lon="4.715466">
        <ele>7.03571</ele>
        <time>2021-07-01T09:52:41Z</time>
      </trkpt>
      <trkpt lat="43.641598" lon="4.715056">
        <ele>6.85150</ele>
        <time>2021-07-01T09:52:42Z</time>
      </trkpt>
      <trkpt lat="43.641689" lon="4.714654">
        <ele>7.00421</ele>
        <time>2021-07-01T09:52:43Z</time>
      </trkpt>
      <trkpt lat="43.641781" lon="4.714250">
        <ele>7.01721</ele>
        <time>2021-07-01T09:52:44Z</time>
      </trkpt>
      <trkpt lat="43.641872" lon="4.713850">
        <ele>6.76709</ele>
        <time>2021-07-01T09:52:45Z</time>
      </trkpt>
      <trkpt lat="43.641968" lon="4.713440">
        <ele>6.99585</ele>
        <time>2021-07-01T09:52:46Z</time>
      </trkpt>
      <trkpt lat="43.642056" lon="4.713044">
        <ele>7.05316</ele>
        <time>2021-07-01T09:52:47Z</time>
      </trkpt>
      <trkpt lat="43.642147" lon="4.712650">
        <ele>6.74023</ele>
        <time>2021-07-01T09:52:48Z</time>
      </trkpt>
      <trkpt lat="43.642242" lon="4.712236">
        <ele>6.91888</ele>
        <time>2021-07-01T09:52:49Z</time>
      </trkpt>
      <trkpt lat="43.642326" lon="4.711833">
        <ele>6.87457</ele>
        <time>2021-07-01T09:52:50Z</time>
      </trkpt>
      <trkpt lat="43.642422" lon="4.711424">
        <ele>5.85413</ele>
        <time>2021-07-01T09:52:51Z</time>
      </trkpt>
      <trkpt lat="43.642517" lon="4.711013">
        <ele>6.10858</ele>
        <time>2021-07-01T09:52:52Z</time>
      </trkpt>
      <trkpt lat="43.642609" lon="4.710630">
        <ele>6.46539</ele>
        <time>2021-07-01T09:52:53Z</time>
      </trkpt>
      <trkpt lat="43.642700" lon="4.710233">
        <ele>6.89557</ele>
        <time>2021-07-01T09:52:54Z</time>
      </trkpt>
      <trkpt lat="43.642803" lon="4.709794">
        <ele>6.86432</ele>
        <time>2021-07-01T09:52:55Z</time>
      </trkpt>
      <trkpt lat="43.642895" lon="4.709395">
        <ele>7.00842</ele>
        <time>2021-07-01T09:52:56Z</time>
      </trkpt>
      <trkpt lat="43.642979" lon="4.709029">
        <ele>7.04657</ele>
        <time>2021-07-01T09:52:57Z</time>
      </trkpt>
      <trkpt lat="43.643078" lon="4.708604">
        <ele>7.43695</ele>
        <time>2021-07-01T09:52:58Z</time>
      </trkpt>
      <trkpt lat="43.643173" lon="4.708196">
        <ele>7.24371</ele>
        <time>2021-07-01T09:52:59Z</time>
      </trkpt>
      <trkpt lat="43.643272" lon="4.707763">
        <ele>7.07642</ele>
        <time>2021-07-01T09:53:00Z</time>
      </trkpt>
      <trkpt lat="43.643356" lon="4.707392">
        <ele>7.56818</ele>
        <time>2021-07-01T09:53:01Z</time>
      </trkpt>
      <trkpt lat="43.643356" lon="4.707392">
        <ele>7.22412</ele>
        <time>2021-07-01T09:53:02Z</time>
      </trkpt>
      <trkpt lat="43.643456" lon="4.706965">
        <ele>7.49133</ele>
        <time>2021-07-01T09:53:03Z</time>
      </trkpt>
      <trkpt lat="43.643547" lon="4.706565">
        <ele>7.82251</ele>
        <time>2021-07-01T09:53:04Z</time>
      </trkpt>
      <trkpt lat="43.643646" lon="4.706134">
        <ele>7.62543</ele>
        <time>2021-07-01T09:53:05Z</time>
      </trkpt>
      <trkpt lat="43.643742" lon="4.705727">
        <ele>7.56476</ele>
        <time>2021-07-01T09:53:06Z</time>
      </trkpt>
      <trkpt lat="43.643829" lon="4.705346">
        <ele>7.81281</ele>
        <time>2021-07-01T09:53:07Z</time>
      </trkpt>
      <trkpt lat="43.643921" lon="4.704945">
        <ele>7.88702</ele>
        <time>2021-07-01T09:53:08Z</time>
      </trkpt>
      <trkpt lat="43.644016" lon="4.704541">
        <ele>8.07605</ele>
        <time>2021-07-01T09:53:09Z</time>
      </trkpt>
      <trkpt lat="43.644108" lon="4.704137">
        <ele>8.40045</ele>
        <time>2021-07-01T09:53:10Z</time>
      </trkpt>
      <trkpt lat="43.644211" lon="4.703679">
        <ele>8.64178</ele>
        <time>2021-07-01T09:53:11Z</time>
      </trkpt>
      <trkpt lat="43.644257" lon="4.703480">
        <ele>8.71619</ele>
        <time>2021-07-01T09:53:12Z</time>
      </trkpt>
      <trkpt lat="43.644405" lon="4.702836">
        <ele>8.54181</ele>
        <time>2021-07-01T09:53:13Z</time>
      </trkpt>
      <trkpt lat="43.644512" lon="4.702369">
        <ele>8.89886</ele>
        <time>2021-07-01T09:53:14Z</time>
      </trkpt>
      <trkpt lat="43.644592" lon="4.702019">
        <ele>9.05237</ele>
        <time>2021-07-01T09:53:15Z</time>
      </trkpt>
      <trkpt lat="43.644684" lon="4.701613">
        <ele>9.11938</ele>
        <time>2021-07-01T09:53:16Z</time>
      </trkpt>
      <trkpt lat="43.644775" lon="4.701209">
        <ele>9.14264</ele>
        <time>2021-07-01T09:53:17Z</time>
      </trkpt>
      <trkpt lat="43.644867" lon="4.700816">
        <ele>9.31628</ele>
        <time>2021-07-01T09:53:18Z</time>
      </trkpt>
      <trkpt lat="43.644966" lon="4.700395">
        <ele>9.38678</ele>
        <time>2021-07-01T09:53:19Z</time>
      </trkpt>
      <trkpt lat="43.645054" lon="4.700002">
        <ele>9.39166</ele>
        <time>2021-07-01T09:53:20Z</time>
      </trkpt>
      <trkpt lat="43.645145" lon="4.699603">
        <ele>9.66412</ele>
        <time>2021-07-01T09:53:21Z</time>
      </trkpt>
      <trkpt lat="43.645245" lon="4.699182">
        <ele>9.86340</ele>
        <time>2021-07-01T09:53:22Z</time>
      </trkpt>
      <trkpt lat="43.645336" lon="4.698779">
        <ele>10.02881</ele>
        <time>2021-07-01T09:53:23Z</time>
      </trkpt>
      <trkpt lat="43.645428" lon="4.698388">
        <ele>10.37018</ele>
        <time>2021-07-01T09:53:24Z</time>
      </trkpt>
      <trkpt lat="43.645523" lon="4.697967">
        <ele>10.82422</ele>
        <time>2021-07-01T09:53:25Z</time>
      </trkpt>
      <trkpt lat="43.645622" lon="4.697539">
        <ele>10.88255</ele>
        <time>2021-07-01T09:53:26Z</time>
      </trkpt>
      <trkpt lat="43.645710" lon="4.697156">
        <ele>10.96665</ele>
        <time>2021-07-01T09:53:27Z</time>
      </trkpt>
      <trkpt lat="43.645802" lon="4.696753">
        <ele>11.08024</ele>
        <time>2021-07-01T09:53:28Z</time>
      </trkpt>
      <trkpt lat="43.645885" lon="4.696387">
        <ele>11.16019</ele>
        <time>2021-07-01T09:53:29Z</time>
      </trkpt>
      <trkpt lat="43.645977" lon="4.696000">
        <ele>11.14811</ele>
        <time>2021-07-01T09:53:30Z</time>
      </trkpt>
      <trkpt lat="43.645977" lon="4.696000">
        <ele>11.11942</ele>
        <time>2021-07-01T09:53:31Z</time>
      </trkpt>
      <trkpt lat="43.646072" lon="4.695587">
        <ele>11.42088</ele>
        <time>2021-07-01T09:53:32Z</time>
      </trkpt>
      <trkpt lat="43.646164" lon="4.695185">
        <ele>11.38615</ele>
        <time>2021-07-01T09:53:33Z</time>
      </trkpt>
      <trkpt lat="43.646255" lon="4.694777">
        <ele>11.63889</ele>
        <time>2021-07-01T09:53:34Z</time>
      </trkpt>
      <trkpt lat="43.646351" lon="4.694374">
        <ele>12.06834</ele>
        <time>2021-07-01T09:53:35Z</time>
      </trkpt>
      <trkpt lat="43.646442" lon="4.693975">
        <ele>12.44205</ele>
        <time>2021-07-01T09:53:36Z</time>
      </trkpt>
      <trkpt lat="43.646534" lon="4.693577">
        <ele>12.82334</ele>
        <time>2021-07-01T09:53:37Z</time>
      </trkpt>
      <trkpt lat="43.646622" lon="4.693186">
        <ele>13.26804</ele>
        <time>2021-07-01T09:53:38Z</time>
      </trkpt>
      <trkpt lat="43.646717" lon="4.692775">
        <ele>13.48478</ele>
        <time>2021-07-01T09:53:39Z</time>
      </trkpt>
      <trkpt lat="43.646812" lon="4.692363">
        <ele>13.46726</ele>
        <time>2021-07-01T09:53:40Z</time>
      </trkpt>
      <trkpt lat="43.646904" lon="4.691959">
        <ele>13.62290</ele>
        <time>2021-07-01T09:53:41Z</time>
      </trkpt>
      <trkpt lat="43.646996" lon="4.691574">
        <ele>13.88938</ele>
        <time>2021-07-01T09:53:42Z</time>
      </trkpt>
      <trkpt lat="43.647091" lon="4.691147">
        <ele>14.22434</ele>
        <time>2021-07-01T09:53:43Z</time>
      </trkpt>
      <trkpt lat="43.647186" lon="4.690729">
        <ele>13.55729</ele>
        <time>2021-07-01T09:53:44Z</time>
      </trkpt>
      <trkpt lat="43.647282" lon="4.690325">
        <ele>13.50431</ele>
        <time>2021-07-01T09:53:45Z</time>
      </trkpt>
      <trkpt lat="43.647373" lon="4.689916">
        <ele>13.23264</ele>
        <time>2021-07-01T09:53:46Z</time>
      </trkpt>
      <trkpt lat="43.647465" lon="4.689516">
        <ele>13.54844</ele>
        <time>2021-07-01T09:53:47Z</time>
      </trkpt>
      <trkpt lat="43.647560" lon="4.689102">
        <ele>13.87205</ele>
        <time>2021-07-01T09:53:48Z</time>
      </trkpt>
      <trkpt lat="43.647655" lon="4.688690">
        <ele>14.19187</ele>
        <time>2021-07-01T09:53:49Z</time>
      </trkpt>
      <trkpt lat="43.647751" lon="4.688302">
        <ele>14.40574</ele>
        <time>2021-07-01T09:53:50Z</time>
      </trkpt>
      <trkpt lat="43.647842" lon="4.687913">
        <ele>14.49174</ele>
        <time>2021-07-01T09:53:51Z</time>
      </trkpt>
      <trkpt lat="43.647938" lon="4.687514">
        <ele>14.59769</ele>
        <time>2021-07-01T09:53:52Z</time>
      </trkpt>
      <trkpt lat="43.648037" lon="4.687085">
        <ele>14.71873</ele>
        <time>2021-07-01T09:53:53Z</time>
      </trkpt>
      <trkpt lat="43.648136" lon="4.686654">
        <ele>14.63450</ele>
        <time>2021-07-01T09:53:54Z</time>
      </trkpt>
      <trkpt lat="43.648228" lon="4.686246">
        <ele>14.93198</ele>
        <time>2021-07-01T09:53:55Z</time>
      </trkpt>
      <trkpt lat="43.648327" lon="4.685831">
        <ele>15.02122</ele>
        <time>2021-07-01T09:53:56Z</time>
      </trkpt>
      <trkpt lat="43.648418" lon="4.685420">
        <ele>14.86033</ele>
        <time>2021-07-01T09:53:57Z</time>
      </trkpt>
      <trkpt lat="43.648514" lon="4.684998">
        <ele>14.81150</ele>
        <time>2021-07-01T09:53:58Z</time>
      </trkpt>
      <trkpt lat="43.648609" lon="4.684589">
        <ele>14.86802</ele>
        <time>2021-07-01T09:53:59Z</time>
      </trkpt>
      <trkpt lat="43.648697" lon="4.684201">
        <ele>14.86008</ele>
        <time>2021-07-01T09:54:00Z</time>
      </trkpt>
      <trkpt lat="43.648788" lon="4.683803">
        <ele>14.34000</ele>
        <time>2021-07-01T09:54:01Z</time>
      </trkpt>
      <trkpt lat="43.648788" lon="4.683803">
        <ele>14.53202</ele>
        <time>2021-07-01T09:54:02Z</time>
      </trkpt>
      <trkpt lat="43.648880" lon="4.683404">
        <ele>14.47904</ele>
        <time>2021-07-01T09:54:03Z</time>
      </trkpt>
      <trkpt lat="43.648972" lon="4.682998">
        <ele>14.45927</ele>
        <time>2021-07-01T09:54:04Z</time>
      </trkpt>
      <trkpt lat="43.649059" lon="4.682624">
        <ele>14.47196</ele>
        <time>2021-07-01T09:54:05Z</time>
      </trkpt>
      <trkpt lat="43.649158" lon="4.682190">
        <ele>14.69157</ele>
        <time>2021-07-01T09:54:06Z</time>
      </trkpt>
      <trkpt lat="43.649246" lon="4.681805">
        <ele>14.84000</ele>
        <time>2021-07-01T09:54:07Z</time>
      </trkpt>
      <trkpt lat="43.649338" lon="4.681413">
        <ele>14.85136</ele>
        <time>2021-07-01T09:54:08Z</time>
      </trkpt>
      <trkpt lat="43.649433" lon="4.680983">
        <ele>15.15250</ele>
        <time>2021-07-01T09:54:09Z</time>
      </trkpt>
      <trkpt lat="43.649532" lon="4.680562">
        <ele>14.95774</ele>
        <time>2021-07-01T09:54:10Z</time>
      </trkpt>
      <trkpt lat="43.649624" lon="4.680153">
        <ele>14.91294</ele>
        <time>2021-07-01T09:54:11Z</time>
      </trkpt>
      <trkpt lat="43.649719" lon="4.679746">
        <ele>15.03086</ele>
        <time>2021-07-01T09:54:12Z</time>
      </trkpt>
      <trkpt lat="43.649807" lon="4.679343">
        <ele>15.06162</ele>
        <time>2021-07-01T09:54:13Z</time>
      </trkpt>
      <trkpt lat="43.649899" lon="4.678936">
        <ele>15.13413</ele>
        <time>2021-07-01T09:54:14Z</time>
      </trkpt>
      <trkpt lat="43.649990" lon="4.678525">
        <ele>15.22099</ele>
        <time>2021-07-01T09:54:15Z</time>
      </trkpt>
      <trkpt lat="43.650082" lon="4.678103">
        <ele>15.57944</ele>
        <time>2021-07-01T09:54:16Z</time>
      </trkpt>
      <trkpt lat="43.650169" lon="4.677702">
        <ele>15.13560</ele>
        <time>2021-07-01T09:54:17Z</time>
      </trkpt>
      <trkpt lat="43.650265" lon="4.677288">
        <ele>15.24003</ele>
        <time>2021-07-01T09:54:18Z</time>
      </trkpt>
      <trkpt lat="43.650360" lon="4.676865">
        <ele>15.24076</ele>
        <time>2021-07-01T09:54:19Z</time>
      </trkpt>
      <trkpt lat="43.650448" lon="4.676488">
        <ele>15.23667</ele>
        <time>2021-07-01T09:54:20Z</time>
      </trkpt>
      <trkpt lat="43.650543" lon="4.676083">
        <ele>15.12327</ele>
        <time>2021-07-01T09:54:21Z</time>
      </trkpt>
      <trkpt lat="43.650639" lon="4.675664">
        <ele>15.15336</ele>
        <time>2021-07-01T09:54:22Z</time>
      </trkpt>
      <trkpt lat="43.650730" lon="4.675265">
        <ele>15.24509</ele>
        <time>2021-07-01T09:54:23Z</time>
      </trkpt>
      <trkpt lat="43.650822" lon="4.674860">
        <ele>15.14371</ele>
        <time>2021-07-01T09:54:24Z</time>
      </trkpt>
      <trkpt lat="43.650913" lon="4.674461">
        <ele>14.88114</ele>
        <time>2021-07-01T09:54:25Z</time>
      </trkpt>
      <trkpt lat="43.651012" lon="4.674039">
        <ele>14.78593</ele>
        <time>2021-07-01T09:54:26Z</time>
      </trkpt>
      <trkpt lat="43.651104" lon="4.673632">
        <ele>14.84843</ele>
        <time>2021-07-01T09:54:27Z</time>
      </trkpt>
      <trkpt lat="43.651203" lon="4.673205">
        <ele>14.52427</ele>
        <time>2021-07-01T09:54:28Z</time>
      </trkpt>
      <trkpt lat="43.651291" lon="4.672826">
        <ele>14.09892</ele>
        <time>2021-07-01T09:54:29Z</time>
      </trkpt>
      <trkpt lat="43.651386" lon="4.672413">
        <ele>13.82676</ele>
        <time>2021-07-01T09:54:30Z</time>
      </trkpt>
      <trkpt lat="43.651482" lon="4.671989">
        <ele>14.05344</ele>
        <time>2021-07-01T09:54:31Z</time>
      </trkpt>
      <trkpt lat="43.651573" lon="4.671598">
        <ele>14.21793</ele>
        <time>2021-07-01T09:54:32Z</time>
      </trkpt>
      <trkpt lat="43.651573" lon="4.671598">
        <ele>13.78397</ele>
        <time>2021-07-01T09:54:33Z</time>
      </trkpt>
      <trkpt lat="43.651669" lon="4.671176">
        <ele>13.58866</ele>
        <time>2021-07-01T09:54:34Z</time>
      </trkpt>
      <trkpt lat="43.651852" lon="4.670372">
        <ele>13.49503</ele>
        <time>2021-07-01T09:54:35Z</time>
      </trkpt>
      <trkpt lat="43.651852" lon="4.670372">
        <ele>13.62583</ele>
        <time>2021-07-01T09:54:36Z</time>
      </trkpt>
      <trkpt lat="43.651947" lon="4.669953">
        <ele>13.76585</ele>
        <time>2021-07-01T09:54:37Z</time>
      </trkpt>
      <trkpt lat="43.652039" lon="4.669560">
        <ele>13.85874</ele>
        <time>2021-07-01T09:54:38Z</time>
      </trkpt>
      <trkpt lat="43.652130" lon="4.669162">
        <ele>13.67838</ele>
        <time>2021-07-01T09:54:39Z</time>
      </trkpt>
      <trkpt lat="43.652225" lon="4.668743">
        <ele>13.66239</ele>
        <time>2021-07-01T09:54:40Z</time>
      </trkpt>
      <trkpt lat="43.652317" lon="4.668344">
        <ele>13.58176</ele>
        <time>2021-07-01T09:54:41Z</time>
      </trkpt>
      <trkpt lat="43.652416" lon="4.667923">
        <ele>13.54984</ele>
        <time>2021-07-01T09:54:42Z</time>
      </trkpt>
      <trkpt lat="43.652508" lon="4.667516">
        <ele>13.66557</ele>
        <time>2021-07-01T09:54:43Z</time>
      </trkpt>
      <trkpt lat="43.652599" lon="4.667122">
        <ele>13.44767</ele>
        <time>2021-07-01T09:54:44Z</time>
      </trkpt>
      <trkpt lat="43.652691" lon="4.666721">
        <ele>13.43992</ele>
        <time>2021-07-01T09:54:45Z</time>
      </trkpt>
      <trkpt lat="43.652790" lon="4.666297">
        <ele>13.03703</ele>
        <time>2021-07-01T09:54:46Z</time>
      </trkpt>
      <trkpt lat="43.652878" lon="4.665907">
        <ele>12.76408</ele>
        <time>2021-07-01T09:54:47Z</time>
      </trkpt>
      <trkpt lat="43.652969" lon="4.665509">
        <ele>12.79612</ele>
        <time>2021-07-01T09:54:48Z</time>
      </trkpt>
      <trkpt lat="43.653061" lon="4.665107">
        <ele>12.93418</ele>
        <time>2021-07-01T09:54:49Z</time>
      </trkpt>
      <trkpt lat="43.653152" lon="4.664704">
        <ele>12.68339</ele>
        <time>2021-07-01T09:54:50Z</time>
      </trkpt>
      <trkpt lat="43.653248" lon="4.664304">
        <ele>12.78300</ele>
        <time>2021-07-01T09:54:51Z</time>
      </trkpt>
      <trkpt lat="43.653339" lon="4.663889">
        <ele>12.99442</ele>
        <time>2021-07-01T09:54:52Z</time>
      </trkpt>
      <trkpt lat="43.653431" lon="4.663499">
        <ele>12.93162</ele>
        <time>2021-07-01T09:54:53Z</time>
      </trkpt>
      <trkpt lat="43.653522" lon="4.663103">
        <ele>13.00712</ele>
        <time>2021-07-01T09:54:54Z</time>
      </trkpt>
      <trkpt lat="43.653618" lon="4.662694">
        <ele>13.00260</ele>
        <time>2021-07-01T09:54:55Z</time>
      </trkpt>
      <trkpt lat="43.653709" lon="4.662281">
        <ele>13.32310</ele>
        <time>2021-07-01T09:54:56Z</time>
      </trkpt>
      <trkpt lat="43.653805" lon="4.661868">
        <ele>13.12034</ele>
        <time>2021-07-01T09:54:57Z</time>
      </trkpt>
      <trkpt lat="43.653893" lon="4.661491">
        <ele>12.88828</ele>
        <time>2021-07-01T09:54:58Z</time>
      </trkpt>
      <trkpt lat="43.653980" lon="4.661109">
        <ele>12.71244</ele>
        <time>2021-07-01T09:54:59Z</time>
      </trkpt>
      <trkpt lat="43.654072" lon="4.660702">
        <ele>12.72404</ele>
        <time>2021-07-01T09:55:00Z</time>
      </trkpt>
      <trkpt lat="43.654175" lon="4.660260">
        <ele>12.46604</ele>
        <time>2021-07-01T09:55:01Z</time>
      </trkpt>
      <trkpt lat="43.654263" lon="4.659875">
        <ele>12.23746</ele>
        <time>2021-07-01T09:55:02Z</time>
      </trkpt>
      <trkpt lat="43.654354" lon="4.659476">
        <ele>12.42246</ele>
        <time>2021-07-01T09:55:03Z</time>
      </trkpt>
      <trkpt lat="43.654446" lon="4.659069">
        <ele>12.24845</ele>
        <time>2021-07-01T09:55:04Z</time>
      </trkpt>
      <trkpt lat="43.654533" lon="4.658692">
        <ele>12.46915</ele>
        <time>2021-07-01T09:55:05Z</time>
      </trkpt>
      <trkpt lat="43.654633" lon="4.658270">
        <ele>12.41965</ele>
        <time>2021-07-01T09:55:06Z</time>
      </trkpt>
      <trkpt lat="43.654728" lon="4.657845">
        <ele>12.54484</ele>
        <time>2021-07-01T09:55:07Z</time>
      </trkpt>
      <trkpt lat="43.654728" lon="4.657845">
        <ele>12.54136</ele>
        <time>2021-07-01T09:55:08Z</time>
      </trkpt>
      <trkpt lat="43.654823" lon="4.657448">
        <ele>12.86216</ele>
        <time>2021-07-01T09:55:09Z</time>
      </trkpt>
      <trkpt lat="43.654919" lon="4.657059">
        <ele>13.19822</ele>
        <time>2021-07-01T09:55:10Z</time>
      </trkpt>
      <trkpt lat="43.655018" lon="4.656659">
        <ele>13.32822</ele>
        <time>2021-07-01T09:55:11Z</time>
      </trkpt>
      <trkpt lat="43.655121" lon="4.656247">
        <ele>13.38004</ele>
        <time>2021-07-01T09:55:12Z</time>
      </trkpt>
      <trkpt lat="43.655224" lon="4.655855">
        <ele>13.38468</ele>
        <time>2021-07-01T09:55:13Z</time>
      </trkpt>
      <trkpt lat="43.655334" lon="4.655459">
        <ele>13.68864</ele>
        <time>2021-07-01T09:55:14Z</time>
      </trkpt>
      <trkpt lat="43.655457" lon="4.655026">
        <ele>13.64518</ele>
        <time>2021-07-01T09:55:15Z</time>
      </trkpt>
      <trkpt lat="43.655575" lon="4.654644">
        <ele>13.39005</ele>
        <time>2021-07-01T09:55:16Z</time>
      </trkpt>
      <trkpt lat="43.655697" lon="4.654266">
        <ele>13.83939</ele>
        <time>2021-07-01T09:55:17Z</time>
      </trkpt>
      <trkpt lat="43.655830" lon="4.653881">
        <ele>14.11655</ele>
        <time>2021-07-01T09:55:18Z</time>
      </trkpt>
      <trkpt lat="43.655964" lon="4.653504">
        <ele>13.90263</ele>
        <time>2021-07-01T09:55:19Z</time>
      </trkpt>
      <trkpt lat="43.656097" lon="4.653133">
        <ele>13.83451</ele>
        <time>2021-07-01T09:55:20Z</time>
      </trkpt>
      <trkpt lat="43.656235" lon="4.652744">
        <ele>14.26890</ele>
        <time>2021-07-01T09:55:21Z</time>
      </trkpt>
      <trkpt lat="43.656380" lon="4.652361">
        <ele>14.39487</ele>
        <time>2021-07-01T09:55:22Z</time>
      </trkpt>
      <trkpt lat="43.656521" lon="4.651989">
        <ele>14.54685</ele>
        <time>2021-07-01T09:55:23Z</time>
      </trkpt>
      <trkpt lat="43.656670" lon="4.651600">
        <ele>14.61735</ele>
        <time>2021-07-01T09:55:24Z</time>
      </trkpt>
      <trkpt lat="43.656811" lon="4.651241">
        <ele>14.63694</ele>
        <time>2021-07-01T09:55:25Z</time>
      </trkpt>
      <trkpt lat="43.656956" lon="4.650860">
        <ele>14.82755</ele>
        <time>2021-07-01T09:55:26Z</time>
      </trkpt>
      <trkpt lat="43.657104" lon="4.650479">
        <ele>14.84904</ele>
        <time>2021-07-01T09:55:27Z</time>
      </trkpt>
      <trkpt lat="43.657246" lon="4.650108">
        <ele>14.89433</ele>
        <time>2021-07-01T09:55:28Z</time>
      </trkpt>
      <trkpt lat="43.657394" lon="4.649726">
        <ele>14.98710</ele>
        <time>2021-07-01T09:55:29Z</time>
      </trkpt>
      <trkpt lat="43.657532" lon="4.649367">
        <ele>15.13438</ele>
        <time>2021-07-01T09:55:30Z</time>
      </trkpt>
      <trkpt lat="43.657684" lon="4.648970">
        <ele>15.48484</ele>
        <time>2021-07-01T09:55:31Z</time>
      </trkpt>
      <trkpt lat="43.657833" lon="4.648592">
        <ele>15.43961</ele>
        <time>2021-07-01T09:55:32Z</time>
      </trkpt>
      <trkpt lat="43.657978" lon="4.648212">
        <ele>15.35075</ele>
        <time>2021-07-01T09:55:33Z</time>
      </trkpt>
      <trkpt lat="43.658123" lon="4.647843">
        <ele>15.25919</ele>
        <time>2021-07-01T09:55:34Z</time>
      </trkpt>
      <trkpt lat="43.658276" lon="4.647448">
        <ele>15.24674</ele>
        <time>2021-07-01T09:55:35Z</time>
      </trkpt>
      <trkpt lat="43.658276" lon="4.647448">
        <ele>15.11478</ele>
        <time>2021-07-01T09:55:36Z</time>
      </trkpt>
      <trkpt lat="43.658413" lon="4.647084">
        <ele>14.65031</ele>
        <time>2021-07-01T09:55:37Z</time>
      </trkpt>
      <trkpt lat="43.658562" lon="4.646690">
        <ele>14.74192</ele>
        <time>2021-07-01T09:55:38Z</time>
      </trkpt>
      <trkpt lat="43.658714" lon="4.646292">
        <ele>14.36527</ele>
        <time>2021-07-01T09:55:39Z</time>
      </trkpt>
      <trkpt lat="43.658855" lon="4.645920">
        <ele>14.16740</ele>
        <time>2021-07-01T09:55:40Z</time>
      </trkpt>
      <trkpt lat="43.658993" lon="4.645553">
        <ele>13.71842</ele>
        <time>2021-07-01T09:55:41Z</time>
      </trkpt>
      <trkpt lat="43.659149" lon="4.645137">
        <ele>13.27506</ele>
        <time>2021-07-01T09:55:42Z</time>
      </trkpt>
      <trkpt lat="43.659298" lon="4.644739">
        <ele>12.74583</ele>
        <time>2021-07-01T09:55:43Z</time>
      </trkpt>
      <trkpt lat="43.659439" lon="4.644362">
        <ele>12.23179</ele>
        <time>2021-07-01T09:55:44Z</time>
      </trkpt>
      <trkpt lat="43.659576" lon="4.643999">
        <ele>12.03452</ele>
        <time>2021-07-01T09:55:45Z</time>
      </trkpt>
      <trkpt lat="43.659714" lon="4.643634">
        <ele>11.54929</ele>
        <time>2021-07-01T09:55:46Z</time>
      </trkpt>
      <trkpt lat="43.659866" lon="4.643229">
        <ele>11.33024</ele>
        <time>2021-07-01T09:55:47Z</time>
      </trkpt>
      <trkpt lat="43.660007" lon="4.642855">
        <ele>11.34800</ele>
        <time>2021-07-01T09:55:48Z</time>
      </trkpt>
      <trkpt lat="43.660145" lon="4.642495">
        <ele>10.87632</ele>
        <time>2021-07-01T09:55:49Z</time>
      </trkpt>
      <trkpt lat="43.660294" lon="4.642115">
        <ele>9.94926</ele>
        <time>2021-07-01T09:55:50Z</time>
      </trkpt>
      <trkpt lat="43.660427" lon="4.641754">
        <ele>9.19956</ele>
        <time>2021-07-01T09:55:51Z</time>
      </trkpt>
      <trkpt lat="43.660553" lon="4.641412">
        <ele>9.36710</ele>
        <time>2021-07-01T09:55:52Z</time>
      </trkpt>
      <trkpt lat="43.660679" lon="4.641088">
        <ele>9.34245</ele>
        <time>2021-07-01T09:55:53Z</time>
      </trkpt>
      <trkpt lat="43.660789" lon="4.640808">
        <ele>8.52470</ele>
        <time>2021-07-01T09:55:54Z</time>
      </trkpt>
      <trkpt lat="43.660892" lon="4.640530">
        <ele>7.93485</ele>
        <time>2021-07-01T09:55:55Z</time>
      </trkpt>
      <trkpt lat="43.661007" lon="4.640227">
        <ele>7.55308</ele>
        <time>2021-07-01T09:55:56Z</time>
      </trkpt>
      <trkpt lat="43.661118" lon="4.639925">
        <ele>6.85392</ele>
        <time>2021-07-01T09:55:57Z</time>
      </trkpt>
      <trkpt lat="43.661228" lon="4.639630">
        <ele>6.52683</ele>
        <time>2021-07-01T09:55:58Z</time>
      </trkpt>
      <trkpt lat="43.661331" lon="4.639374">
        <ele>6.13132</ele>
        <time>2021-07-01T09:55:59Z</time>
      </trkpt>
      <trkpt lat="43.661430" lon="4.639127">
        <ele>5.93479</ele>
        <time>2021-07-01T09:56:00Z</time>
      </trkpt>
      <trkpt lat="43.661541" lon="4.638854">
        <ele>5.59806</ele>
        <time>2021-07-01T09:56:01Z</time>
      </trkpt>
      <trkpt lat="43.661636" lon="4.638618">
        <ele>5.15214</ele>
        <time>2021-07-01T09:56:02Z</time>
      </trkpt>
      <trkpt lat="43.661739" lon="4.638378">
        <ele>5.15684</ele>
        <time>2021-07-01T09:56:03Z</time>
      </trkpt>
      <trkpt lat="43.661839" lon="4.638142">
        <ele>5.07664</ele>
        <time>2021-07-01T09:56:04Z</time>
      </trkpt>
      <trkpt lat="43.661953" lon="4.637869">
        <ele>4.90348</ele>
        <time>2021-07-01T09:56:05Z</time>
      </trkpt>
      <trkpt lat="43.662060" lon="4.637613">
        <ele>4.95884</ele>
        <time>2021-07-01T09:56:06Z</time>
      </trkpt>
      <trkpt lat="43.662060" lon="4.637613">
        <ele>4.70170</ele>
        <time>2021-07-01T09:56:07Z</time>
      </trkpt>
      <trkpt lat="43.662155" lon="4.637395">
        <ele>4.64689</ele>
        <time>2021-07-01T09:56:08Z</time>
      </trkpt>
      <trkpt lat="43.662281" lon="4.637122">
        <ele>4.80601</ele>
        <time>2021-07-01T09:56:09Z</time>
      </trkpt>
      <trkpt lat="43.662411" lon="4.636852">
        <ele>4.69871</ele>
        <time>2021-07-01T09:56:10Z</time>
      </trkpt>
      <trkpt lat="43.662537" lon="4.636587">
        <ele>4.60111</ele>
        <time>2021-07-01T09:56:11Z</time>
      </trkpt>
      <trkpt lat="43.662670" lon="4.636311">
        <ele>4.73161</ele>
        <time>2021-07-01T09:56:12Z</time>
      </trkpt>
      <trkpt lat="43.662800" lon="4.636058">
        <ele>4.79667</ele>
        <time>2021-07-01T09:56:13Z</time>
      </trkpt>
      <trkpt lat="43.662937" lon="4.635803">
        <ele>4.95267</ele>
        <time>2021-07-01T09:56:14Z</time>
      </trkpt>
      <trkpt lat="43.663063" lon="4.635570">
        <ele>4.99857</ele>
        <time>2021-07-01T09:56:15Z</time>
      </trkpt>
      <trkpt lat="43.663181" lon="4.635348">
        <ele>5.19236</ele>
        <time>2021-07-01T09:56:16Z</time>
      </trkpt>
      <trkpt lat="43.663319" lon="4.635101">
        <ele>5.52787</ele>
        <time>2021-07-01T09:56:17Z</time>
      </trkpt>
      <trkpt lat="43.663464" lon="4.634848">
        <ele>5.60673</ele>
        <time>2021-07-01T09:56:18Z</time>
      </trkpt>
      <trkpt lat="43.663601" lon="4.634606">
        <ele>6.26365</ele>
        <time>2021-07-01T09:56:19Z</time>
      </trkpt>
      <trkpt lat="43.663738" lon="4.634377">
        <ele>6.98197</ele>
        <time>2021-07-01T09:56:20Z</time>
      </trkpt>
      <trkpt lat="43.663876" lon="4.634157">
        <ele>7.02036</ele>
        <time>2021-07-01T09:56:21Z</time>
      </trkpt>
      <trkpt lat="43.664021" lon="4.633922">
        <ele>7.42313</ele>
        <time>2021-07-01T09:56:22Z</time>
      </trkpt>
      <trkpt lat="43.664162" lon="4.633691">
        <ele>7.54191</ele>
        <time>2021-07-01T09:56:23Z</time>
      </trkpt>
      <trkpt lat="43.664291" lon="4.633484">
        <ele>7.69669</ele>
        <time>2021-07-01T09:56:24Z</time>
      </trkpt>
      <trkpt lat="43.664433" lon="4.633256">
        <ele>7.84721</ele>
        <time>2021-07-01T09:56:25Z</time>
      </trkpt>
      <trkpt lat="43.664433" lon="4.633256">
        <ele>8.03361</ele>
        <time>2021-07-01T09:56:26Z</time>
      </trkpt>
      <trkpt lat="43.664570" lon="4.633034">
        <ele>8.45524</ele>
        <time>2021-07-01T09:56:27Z</time>
      </trkpt>
      <trkpt lat="43.664711" lon="4.632806">
        <ele>8.96720</ele>
        <time>2021-07-01T09:56:28Z</time>
      </trkpt>
      <trkpt lat="43.664837" lon="4.632607">
        <ele>9.04569</ele>
        <time>2021-07-01T09:56:29Z</time>
      </trkpt>
      <trkpt lat="43.664982" lon="4.632372">
        <ele>9.65507</ele>
        <time>2021-07-01T09:56:30Z</time>
      </trkpt>
      <trkpt lat="43.665104" lon="4.632174">
        <ele>8.79295</ele>
        <time>2021-07-01T09:56:31Z</time>
      </trkpt>
      <trkpt lat="43.665241" lon="4.631967">
        <ele>9.58726</ele>
        <time>2021-07-01T09:56:32Z</time>
      </trkpt>
      <trkpt lat="43.665379" lon="4.631748">
        <ele>9.77549</ele>
        <time>2021-07-01T09:56:33Z</time>
      </trkpt>
      <trkpt lat="43.665524" lon="4.631518">
        <ele>9.50004</ele>
        <time>2021-07-01T09:56:34Z</time>
      </trkpt>
      <trkpt lat="43.665684" lon="4.631270">
        <ele>9.33018</ele>
        <time>2021-07-01T09:56:35Z</time>
      </trkpt>
      <trkpt lat="43.665825" lon="4.631041">
        <ele>8.96549</ele>
        <time>2021-07-01T09:56:36Z</time>
      </trkpt>
      <trkpt lat="43.665958" lon="4.630834">
        <ele>8.60178</ele>
        <time>2021-07-01T09:56:37Z</time>
      </trkpt>
      <trkpt lat="43.666077" lon="4.630645">
        <ele>8.58909</ele>
        <time>2021-07-01T09:56:38Z</time>
      </trkpt>
      <trkpt lat="43.666222" lon="4.630415">
        <ele>8.53135</ele>
        <time>2021-07-01T09:56:39Z</time>
      </trkpt>
      <trkpt lat="43.666351" lon="4.630212">
        <ele>8.74216</ele>
        <time>2021-07-01T09:56:40Z</time>
      </trkpt>
      <trkpt lat="43.666481" lon="4.629997">
        <ele>7.42551</ele>
        <time>2021-07-01T09:56:41Z</time>
      </trkpt>
      <trkpt lat="43.666603" lon="4.629787">
        <ele>7.12681</ele>
        <time>2021-07-01T09:56:42Z</time>
      </trkpt>
      <trkpt lat="43.666737" lon="4.629576">
        <ele>6.88566</ele>
        <time>2021-07-01T09:56:43Z</time>
      </trkpt>
      <trkpt lat="43.666870" lon="4.629365">
        <ele>6.73844</ele>
        <time>2021-07-01T09:56:44Z</time>
      </trkpt>
      <trkpt lat="43.667000" lon="4.629155">
        <ele>6.59580</ele>
        <time>2021-07-01T09:56:45Z</time>
      </trkpt>
      <trkpt lat="43.667141" lon="4.628933">
        <ele>6.82792</ele>
        <time>2021-07-01T09:56:46Z</time>
      </trkpt>
      <trkpt lat="43.667286" lon="4.628703">
        <ele>6.51646</ele>
        <time>2021-07-01T09:56:47Z</time>
      </trkpt>
      <trkpt lat="43.667431" lon="4.628470">
        <ele>6.74784</ele>
        <time>2021-07-01T09:56:48Z</time>
      </trkpt>
      <trkpt lat="43.667568" lon="4.628261">
        <ele>6.06290</ele>
        <time>2021-07-01T09:56:49Z</time>
      </trkpt>
      <trkpt lat="43.667679" lon="4.628092">
        <ele>2.01491</ele>
        <time>2021-07-01T09:56:50Z</time>
      </trkpt>
      <trkpt lat="43.667793" lon="4.627918">
        <ele>3.46243</ele>
        <time>2021-07-01T09:56:51Z</time>
      </trkpt>
      <trkpt lat="43.667912" lon="4.627739">
        <ele>1.50181</ele>
        <time>2021-07-01T09:56:52Z</time>
      </trkpt>
      <trkpt lat="43.668018" lon="4.627596">
        <ele>1.83642</ele>
        <time>2021-07-01T09:56:53Z</time>
      </trkpt>
      <trkpt lat="43.668137" lon="4.627442">
        <ele>1.37091</ele>
        <time>2021-07-01T09:56:54Z</time>
      </trkpt>
      <trkpt lat="43.668278" lon="4.627260">
        <ele>4.73844</ele>
        <time>2021-07-01T09:56:55Z</time>
      </trkpt>
      <trkpt lat="43.668442" lon="4.627043">
        <ele>4.62638</ele>
        <time>2021-07-01T09:56:56Z</time>
      </trkpt>
      <trkpt lat="43.668591" lon="4.626848">
        <ele>4.53452</ele>
        <time>2021-07-01T09:56:57Z</time>
      </trkpt>
      <trkpt lat="43.668739" lon="4.626654">
        <ele>4.69401</ele>
        <time>2021-07-01T09:56:58Z</time>
      </trkpt>
      <trkpt lat="43.668739" lon="4.626654">
        <ele>4.76694</ele>
        <time>2021-07-01T09:56:59Z</time>
      </trkpt>
      <trkpt lat="43.668896" lon="4.626446">
        <ele>5.01249</ele>
        <time>2021-07-01T09:57:00Z</time>
      </trkpt>
      <trkpt lat="43.669048" lon="4.626252">
        <ele>4.87833</ele>
        <time>2021-07-01T09:57:01Z</time>
      </trkpt>
      <trkpt lat="43.669224" lon="4.626028">
        <ele>5.00401</ele>
        <time>2021-07-01T09:57:02Z</time>
      </trkpt>
      <trkpt lat="43.669388" lon="4.625823">
        <ele>5.29258</ele>
        <time>2021-07-01T09:57:03Z</time>
      </trkpt>
      <trkpt lat="43.669548" lon="4.625619">
        <ele>5.39671</ele>
        <time>2021-07-01T09:57:04Z</time>
      </trkpt>
      <trkpt lat="43.669704" lon="4.625423">
        <ele>5.40067</ele>
        <time>2021-07-01T09:57:05Z</time>
      </trkpt>
      <trkpt lat="43.669861" lon="4.625225">
        <ele>5.34208</ele>
        <time>2021-07-01T09:57:06Z</time>
      </trkpt>
      <trkpt lat="43.670021" lon="4.625024">
        <ele>5.52067</ele>
        <time>2021-07-01T09:57:07Z</time>
      </trkpt>
      <trkpt lat="43.670197" lon="4.624820">
        <ele>5.66325</ele>
        <time>2021-07-01T09:57:08Z</time>
      </trkpt>
      <trkpt lat="43.670372" lon="4.624616">
        <ele>5.55882</ele>
        <time>2021-07-01T09:57:09Z</time>
      </trkpt>
      <trkpt lat="43.670540" lon="4.624419">
        <ele>5.38578</ele>
        <time>2021-07-01T09:57:10Z</time>
      </trkpt>
      <trkpt lat="43.670704" lon="4.624228">
        <ele>5.37278</ele>
        <time>2021-07-01T09:57:11Z</time>
      </trkpt>
      <trkpt lat="43.670864" lon="4.624040">
        <ele>5.40421</ele>
        <time>2021-07-01T09:57:12Z</time>
      </trkpt>
      <trkpt lat="43.671021" lon="4.623858">
        <ele>5.49680</ele>
        <time>2021-07-01T09:57:13Z</time>
      </trkpt>
      <trkpt lat="43.671169" lon="4.623685">
        <ele>5.72843</ele>
        <time>2021-07-01T09:57:14Z</time>
      </trkpt>
      <trkpt lat="43.671307" lon="4.623526">
        <ele>1.94789</ele>
        <time>2021-07-01T09:57:15Z</time>
      </trkpt>
      <trkpt lat="43.671436" lon="4.623382">
        <ele>1.47018</ele>
        <time>2021-07-01T09:57:16Z</time>
      </trkpt>
      <trkpt lat="43.671581" lon="4.623227">
        <ele>5.46256</ele>
        <time>2021-07-01T09:57:17Z</time>
      </trkpt>
      <trkpt lat="43.671726" lon="4.623066">
        <ele>5.58482</ele>
        <time>2021-07-01T09:57:18Z</time>
      </trkpt>
      <trkpt lat="43.671886" lon="4.622912">
        <ele>5.61216</ele>
        <time>2021-07-01T09:57:19Z</time>
      </trkpt>
      <trkpt lat="43.672031" lon="4.622758">
        <ele>5.67973</ele>
        <time>2021-07-01T09:57:20Z</time>
      </trkpt>
      <trkpt lat="43.672192" lon="4.622590">
        <ele>5.61979</ele>
        <time>2021-07-01T09:57:21Z</time>
      </trkpt>
      <trkpt lat="43.672348" lon="4.622412">
        <ele>5.50260</ele>
        <time>2021-07-01T09:57:22Z</time>
      </trkpt>
      <trkpt lat="43.672508" lon="4.622228">
        <ele>5.70731</ele>
        <time>2021-07-01T09:57:23Z</time>
      </trkpt>
      <trkpt lat="43.672657" lon="4.622056">
        <ele>6.17930</ele>
        <time>2021-07-01T09:57:24Z</time>
      </trkpt>
      <trkpt lat="43.672813" lon="4.621877">
        <ele>6.70933</ele>
        <time>2021-07-01T09:57:25Z</time>
      </trkpt>
      <trkpt lat="43.672977" lon="4.621689">
        <ele>7.35032</ele>
        <time>2021-07-01T09:57:26Z</time>
      </trkpt>
      <trkpt lat="43.673130" lon="4.621497">
        <ele>7.81882</ele>
        <time>2021-07-01T09:57:27Z</time>
      </trkpt>
      <trkpt lat="43.673283" lon="4.621303">
        <ele>7.99973</ele>
        <time>2021-07-01T09:57:28Z</time>
      </trkpt>
      <trkpt lat="43.673454" lon="4.621104">
        <ele>7.94340</ele>
        <time>2021-07-01T09:57:29Z</time>
      </trkpt>
      <trkpt lat="43.673615" lon="4.620905">
        <ele>8.39030</ele>
        <time>2021-07-01T09:57:30Z</time>
      </trkpt>
      <trkpt lat="43.673779" lon="4.620695">
        <ele>8.85618</ele>
        <time>2021-07-01T09:57:31Z</time>
      </trkpt>
      <trkpt lat="43.673939" lon="4.620488">
        <ele>9.56144</ele>
        <time>2021-07-01T09:57:32Z</time>
      </trkpt>
      <trkpt lat="43.673939" lon="4.620488">
        <ele>10.66502</ele>
        <time>2021-07-01T09:57:33Z</time>
      </trkpt>
      <trkpt lat="43.674263" lon="4.620079">
        <ele>11.25669</ele>
        <time>2021-07-01T09:57:34Z</time>
      </trkpt>
      <trkpt lat="43.674263" lon="4.620079">
        <ele>12.01176</ele>
        <time>2021-07-01T09:57:35Z</time>
      </trkpt>
      <trkpt lat="43.674431" lon="4.619868">
        <ele>12.47221</ele>
        <time>2021-07-01T09:57:36Z</time>
      </trkpt>
      <trkpt lat="43.674606" lon="4.619656">
        <ele>12.68479</ele>
        <time>2021-07-01T09:57:37Z</time>
      </trkpt>
      <trkpt lat="43.674759" lon="4.619464">
        <ele>12.46220</ele>
        <time>2021-07-01T09:57:38Z</time>
      </trkpt>
      <trkpt lat="43.674919" lon="4.619266">
        <ele>13.07322</ele>
        <time>2021-07-01T09:57:39Z</time>
      </trkpt>
      <trkpt lat="43.675095" lon="4.619052">
        <ele>13.64970</ele>
        <time>2021-07-01T09:57:40Z</time>
      </trkpt>
      <trkpt lat="43.675251" lon="4.618858">
        <ele>14.19901</ele>
        <time>2021-07-01T09:57:41Z</time>
      </trkpt>
      <trkpt lat="43.675400" lon="4.618674">
        <ele>14.62278</ele>
        <time>2021-07-01T09:57:42Z</time>
      </trkpt>
      <trkpt lat="43.675545" lon="4.618489">
        <ele>15.20695</ele>
        <time>2021-07-01T09:57:43Z</time>
      </trkpt>
      <trkpt lat="43.675686" lon="4.618310">
        <ele>15.70811</ele>
        <time>2021-07-01T09:57:44Z</time>
      </trkpt>
      <trkpt lat="43.675838" lon="4.618113">
        <ele>15.83915</ele>
        <time>2021-07-01T09:57:45Z</time>
      </trkpt>
      <trkpt lat="43.676006" lon="4.617898">
        <ele>16.04917</ele>
        <time>2021-07-01T09:57:46Z</time>
      </trkpt>
      <trkpt lat="43.676159" lon="4.617698">
        <ele>16.24607</ele>
        <time>2021-07-01T09:57:47Z</time>
      </trkpt>
      <trkpt lat="43.676311" lon="4.617493">
        <ele>16.36521</ele>
        <time>2021-07-01T09:57:48Z</time>
      </trkpt>
      <trkpt lat="43.676468" lon="4.617288">
        <ele>16.59379</ele>
        <time>2021-07-01T09:57:49Z</time>
      </trkpt>
      <trkpt lat="43.676624" lon="4.617078">
        <ele>16.54392</ele>
        <time>2021-07-01T09:57:50Z</time>
      </trkpt>
      <trkpt lat="43.676777" lon="4.616853">
        <ele>16.75834</ele>
        <time>2021-07-01T09:57:51Z</time>
      </trkpt>
      <trkpt lat="43.676929" lon="4.616603">
        <ele>16.71336</ele>
        <time>2021-07-01T09:57:52Z</time>
      </trkpt>
      <trkpt lat="43.677059" lon="4.616375">
        <ele>16.82548</ele>
        <time>2021-07-01T09:57:53Z</time>
      </trkpt>
      <trkpt lat="43.677200" lon="4.616123">
        <ele>17.10264</ele>
        <time>2021-07-01T09:57:54Z</time>
      </trkpt>
      <trkpt lat="43.677338" lon="4.615855">
        <ele>17.05833</ele>
        <time>2021-07-01T09:57:55Z</time>
      </trkpt>
      <trkpt lat="43.677471" lon="4.615572">
        <ele>16.77689</ele>
        <time>2021-07-01T09:57:56Z</time>
      </trkpt>
      <trkpt lat="43.677578" lon="4.615314">
        <ele>16.98240</ele>
        <time>2021-07-01T09:57:57Z</time>
      </trkpt>
      <trkpt lat="43.677692" lon="4.615028">
        <ele>16.82291</ele>
        <time>2021-07-01T09:57:58Z</time>
      </trkpt>
      <trkpt lat="43.677811" lon="4.614718">
        <ele>16.58933</ele>
        <time>2021-07-01T09:57:59Z</time>
      </trkpt>
      <trkpt lat="43.677902" lon="4.614431">
        <ele>16.30033</ele>
        <time>2021-07-01T09:58:00Z</time>
      </trkpt>
      <trkpt lat="43.677902" lon="4.614431">
        <ele>16.36710</ele>
        <time>2021-07-01T09:58:01Z</time>
      </trkpt>
      <trkpt lat="43.677986" lon="4.614116">
        <ele>16.10673</ele>
        <time>2021-07-01T09:58:02Z</time>
      </trkpt>
      <trkpt lat="43.678059" lon="4.613819">
        <ele>15.48478</ele>
        <time>2021-07-01T09:58:03Z</time>
      </trkpt>
      <trkpt lat="43.678116" lon="4.613474">
        <ele>15.03721</ele>
        <time>2021-07-01T09:58:04Z</time>
      </trkpt>
      <trkpt lat="43.678158" lon="4.613177">
        <ele>13.66825</ele>
        <time>2021-07-01T09:58:05Z</time>
      </trkpt>
      <trkpt lat="43.678196" lon="4.612833">
        <ele>12.96055</ele>
        <time>2021-07-01T09:58:06Z</time>
      </trkpt>
      <trkpt lat="43.678226" lon="4.612504">
        <ele>12.10795</ele>
        <time>2021-07-01T09:58:07Z</time>
      </trkpt>
      <trkpt lat="43.678249" lon="4.612163">
        <ele>10.83817</ele>
        <time>2021-07-01T09:58:08Z</time>
      </trkpt>
      <trkpt lat="43.678268" lon="4.611822">
        <ele>9.66508</ele>
        <time>2021-07-01T09:58:09Z</time>
      </trkpt>
      <trkpt lat="43.678288" lon="4.611451">
        <ele>8.77457</ele>
        <time>2021-07-01T09:58:10Z</time>
      </trkpt>
      <trkpt lat="43.678307" lon="4.611111">
        <ele>8.14664</ele>
        <time>2021-07-01T09:58:11Z</time>
      </trkpt>
      <trkpt lat="43.678322" lon="4.610785">
        <ele>8.27726</ele>
        <time>2021-07-01T09:58:12Z</time>
      </trkpt>
      <trkpt lat="43.678337" lon="4.610449">
        <ele>7.22935</ele>
        <time>2021-07-01T09:58:13Z</time>
      </trkpt>
      <trkpt lat="43.678352" lon="4.610113">
        <ele>6.47392</ele>
        <time>2021-07-01T09:58:14Z</time>
      </trkpt>
      <trkpt lat="43.678375" lon="4.609783">
        <ele>5.51786</ele>
        <time>2021-07-01T09:58:15Z</time>
      </trkpt>
      <trkpt lat="43.678406" lon="4.609425">
        <ele>4.75974</ele>
        <time>2021-07-01T09:58:16Z</time>
      </trkpt>
      <trkpt lat="43.678444" lon="4.609107">
        <ele>4.34592</ele>
        <time>2021-07-01T09:58:17Z</time>
      </trkpt>
      <trkpt lat="43.678486" lon="4.608796">
        <ele>3.61106</ele>
        <time>2021-07-01T09:58:18Z</time>
      </trkpt>
      <trkpt lat="43.678528" lon="4.608463">
        <ele>2.85795</ele>
        <time>2021-07-01T09:58:19Z</time>
      </trkpt>
      <trkpt lat="43.678581" lon="4.608128">
        <ele>2.50956</ele>
        <time>2021-07-01T09:58:20Z</time>
      </trkpt>
      <trkpt lat="43.678646" lon="4.607768">
        <ele>2.68620</ele>
        <time>2021-07-01T09:58:21Z</time>
      </trkpt>
      <trkpt lat="43.678707" lon="4.607441">
        <ele>2.75681</ele>
        <time>2021-07-01T09:58:22Z</time>
      </trkpt>
      <trkpt lat="43.678791" lon="4.607083">
        <ele>2.72172</ele>
        <time>2021-07-01T09:58:23Z</time>
      </trkpt>
      <trkpt lat="43.678867" lon="4.606775">
        <ele>2.53526</ele>
        <time>2021-07-01T09:58:24Z</time>
      </trkpt>
      <trkpt lat="43.678959" lon="4.606443">
        <ele>2.37205</ele>
        <time>2021-07-01T09:58:25Z</time>
      </trkpt>
      <trkpt lat="43.679054" lon="4.606132">
        <ele>2.59623</ele>
        <time>2021-07-01T09:58:26Z</time>
      </trkpt>
      <trkpt lat="43.679142" lon="4.605851">
        <ele>3.55564</ele>
        <time>2021-07-01T09:58:27Z</time>
      </trkpt>
      <trkpt lat="43.679142" lon="4.605851">
        <ele>3.76231</ele>
        <time>2021-07-01T09:58:28Z</time>
      </trkpt>
      <trkpt lat="43.679249" lon="4.605553">
        <ele>3.96452</ele>
        <time>2021-07-01T09:58:29Z</time>
      </trkpt>
      <trkpt lat="43.679363" lon="4.605236">
        <ele>4.44645</ele>
        <time>2021-07-01T09:58:30Z</time>
      </trkpt>
      <trkpt lat="43.679466" lon="4.604974">
        <ele>5.04618</ele>
        <time>2021-07-01T09:58:31Z</time>
      </trkpt>
      <trkpt lat="43.679588" lon="4.604664">
        <ele>5.69059</ele>
        <time>2021-07-01T09:58:32Z</time>
      </trkpt>
      <trkpt lat="43.679699" lon="4.604391">
        <ele>6.27097</ele>
        <time>2021-07-01T09:58:33Z</time>
      </trkpt>
      <trkpt lat="43.679817" lon="4.604091">
        <ele>6.52250</ele>
        <time>2021-07-01T09:58:34Z</time>
      </trkpt>
      <trkpt lat="43.679935" lon="4.603790">
        <ele>6.63102</ele>
        <time>2021-07-01T09:58:35Z</time>
      </trkpt>
      <trkpt lat="43.680054" lon="4.603492">
        <ele>6.60423</ele>
        <time>2021-07-01T09:58:36Z</time>
      </trkpt>
      <trkpt lat="43.680180" lon="4.603190">
        <ele>7.01188</ele>
        <time>2021-07-01T09:58:37Z</time>
      </trkpt>
      <trkpt lat="43.680298" lon="4.602889">
        <ele>7.35844</ele>
        <time>2021-07-01T09:58:38Z</time>
      </trkpt>
      <trkpt lat="43.680416" lon="4.602586">
        <ele>7.28068</ele>
        <time>2021-07-01T09:58:39Z</time>
      </trkpt>
      <trkpt lat="43.680531" lon="4.602286">
        <ele>7.34690</ele>
        <time>2021-07-01T09:58:40Z</time>
      </trkpt>
      <trkpt lat="43.680645" lon="4.601982">
        <ele>7.15794</ele>
        <time>2021-07-01T09:58:41Z</time>
      </trkpt>
      <trkpt lat="43.680759" lon="4.601673">
        <ele>7.10514</ele>
        <time>2021-07-01T09:58:42Z</time>
      </trkpt>
      <trkpt lat="43.680874" lon="4.601376">
        <ele>7.42692</ele>
        <time>2021-07-01T09:58:43Z</time>
      </trkpt>
      <trkpt lat="43.680977" lon="4.601070">
        <ele>7.41740</ele>
        <time>2021-07-01T09:58:44Z</time>
      </trkpt>
      <trkpt lat="43.681084" lon="4.600746">
        <ele>7.79789</ele>
        <time>2021-07-01T09:58:45Z</time>
      </trkpt>
      <trkpt lat="43.681194" lon="4.600416">
        <ele>7.65922</ele>
        <time>2021-07-01T09:58:46Z</time>
      </trkpt>
      <trkpt lat="43.681301" lon="4.600096">
        <ele>7.61039</ele>
        <time>2021-07-01T09:58:47Z</time>
      </trkpt>
      <trkpt lat="43.681404" lon="4.599767">
        <ele>7.50419</ele>
        <time>2021-07-01T09:58:48Z</time>
      </trkpt>
      <trkpt lat="43.681503" lon="4.599433">
        <ele>6.67094</ele>
        <time>2021-07-01T09:58:49Z</time>
      </trkpt>
      <trkpt lat="43.681599" lon="4.599095">
        <ele>5.99992</ele>
        <time>2021-07-01T09:58:50Z</time>
      </trkpt>
      <trkpt lat="43.681683" lon="4.598792">
        <ele>5.55930</ele>
        <time>2021-07-01T09:58:51Z</time>
      </trkpt>
      <trkpt lat="43.681690" lon="4.598770">
        <ele>5.45890</ele>
        <time>2021-07-01T09:58:52Z</time>
      </trkpt>
      <trkpt lat="43.681847" lon="4.598192">
        <ele>5.21110</ele>
        <time>2021-07-01T09:58:53Z</time>
      </trkpt>
      <trkpt lat="43.681911" lon="4.597958">
        <ele>5.27903</ele>
        <time>2021-07-01T09:58:54Z</time>
      </trkpt>
      <trkpt lat="43.681976" lon="4.597726">
        <ele>5.27945</ele>
        <time>2021-07-01T09:58:55Z</time>
      </trkpt>
      <trkpt lat="43.682056" lon="4.597441">
        <ele>5.29849</ele>
        <time>2021-07-01T09:58:56Z</time>
      </trkpt>
      <trkpt lat="43.682137" lon="4.597147">
        <ele>5.16885</ele>
        <time>2021-07-01T09:58:57Z</time>
      </trkpt>
      <trkpt lat="43.682224" lon="4.596834">
        <ele>5.08902</ele>
        <time>2021-07-01T09:58:58Z</time>
      </trkpt>
      <trkpt lat="43.682297" lon="4.596582">
        <ele>5.32217</ele>
        <time>2021-07-01T09:58:59Z</time>
      </trkpt>
      <trkpt lat="43.682373" lon="4.596290">
        <ele>5.51022</ele>
        <time>2021-07-01T09:59:00Z</time>
      </trkpt>
      <trkpt lat="43.682373" lon="4.596290">
        <ele>5.50265</ele>
        <time>2021-07-01T09:59:01Z</time>
      </trkpt>
      <trkpt lat="43.682438" lon="4.596034">
        <ele>5.41446</ele>
        <time>2021-07-01T09:59:02Z</time>
      </trkpt>
      <trkpt lat="43.682499" lon="4.595781">
        <ele>4.29147</ele>
        <time>2021-07-01T09:59:03Z</time>
      </trkpt>
      <trkpt lat="43.682556" lon="4.595555">
        <ele>3.63733</ele>
        <time>2021-07-01T09:59:04Z</time>
      </trkpt>
      <trkpt lat="43.682606" lon="4.595355">
        <ele>4.66942</ele>
        <time>2021-07-01T09:59:05Z</time>
      </trkpt>
      <trkpt lat="43.682652" lon="4.595134">
        <ele>4.26518</ele>
        <time>2021-07-01T09:59:06Z</time>
      </trkpt>
      <trkpt lat="43.682705" lon="4.594880">
        <ele>3.67144</ele>
        <time>2021-07-01T09:59:07Z</time>
      </trkpt>
      <trkpt lat="43.682755" lon="4.594658">
        <ele>4.81745</ele>
        <time>2021-07-01T09:59:08Z</time>
      </trkpt>
      <trkpt lat="43.682800" lon="4.594418">
        <ele>4.89307</ele>
        <time>2021-07-01T09:59:09Z</time>
      </trkpt>
      <trkpt lat="43.682846" lon="4.594177">
        <ele>5.23992</ele>
        <time>2021-07-01T09:59:10Z</time>
      </trkpt>
      <trkpt lat="43.682888" lon="4.593955">
        <ele>5.13225</ele>
        <time>2021-07-01T09:59:11Z</time>
      </trkpt>
      <trkpt lat="43.682930" lon="4.593725">
        <ele>4.10179</ele>
        <time>2021-07-01T09:59:12Z</time>
      </trkpt>
      <trkpt lat="43.682980" lon="4.593475">
        <ele>3.97267</ele>
        <time>2021-07-01T09:59:13Z</time>
      </trkpt>
      <trkpt lat="43.683014" lon="4.593241">
        <ele>4.77366</ele>
        <time>2021-07-01T09:59:14Z</time>
      </trkpt>
      <trkpt lat="43.683048" lon="4.593000">
        <ele>4.67824</ele>
        <time>2021-07-01T09:59:15Z</time>
      </trkpt>
      <trkpt lat="43.683086" lon="4.592757">
        <ele>4.32993</ele>
        <time>2021-07-01T09:59:16Z</time>
      </trkpt>
      <trkpt lat="43.683113" lon="4.592533">
        <ele>3.98301</ele>
        <time>2021-07-01T09:59:17Z</time>
      </trkpt>
      <trkpt lat="43.683136" lon="4.592307">
        <ele>4.13118</ele>
        <time>2021-07-01T09:59:18Z</time>
      </trkpt>
      <trkpt lat="43.683159" lon="4.592067">
        <ele>3.73487</ele>
        <time>2021-07-01T09:59:19Z</time>
      </trkpt>
      <trkpt lat="43.683178" lon="4.591833">
        <ele>3.90980</ele>
        <time>2021-07-01T09:59:20Z</time>
      </trkpt>
      <trkpt lat="43.683201" lon="4.591596">
        <ele>3.67897</ele>
        <time>2021-07-01T09:59:21Z</time>
      </trkpt>
      <trkpt lat="43.683224" lon="4.591370">
        <ele>3.74803</ele>
        <time>2021-07-01T09:59:22Z</time>
      </trkpt>
      <trkpt lat="43.683243" lon="4.591122">
        <ele>4.17647</ele>
        <time>2021-07-01T09:59:23Z</time>
      </trkpt>
      <trkpt lat="43.683258" lon="4.590872">
        <ele>4.80172</ele>
        <time>2021-07-01T09:59:24Z</time>
      </trkpt>
      <trkpt lat="43.683277" lon="4.590576">
        <ele>4.81326</ele>
        <time>2021-07-01T09:59:25Z</time>
      </trkpt>
      <trkpt lat="43.683292" lon="4.590291">
        <ele>4.61135</ele>
        <time>2021-07-01T09:59:26Z</time>
      </trkpt>
      <trkpt lat="43.683304" lon="4.590038">
        <ele>4.63522</ele>
        <time>2021-07-01T09:59:27Z</time>
      </trkpt>
      <trkpt lat="43.683308" lon="4.589778">
        <ele>4.34872</ele>
        <time>2021-07-01T09:59:28Z</time>
      </trkpt>
      <trkpt lat="43.683311" lon="4.589512">
        <ele>4.26895</ele>
        <time>2021-07-01T09:59:29Z</time>
      </trkpt>
      <trkpt lat="43.683315" lon="4.589241">
        <ele>4.19900</ele>
        <time>2021-07-01T09:59:30Z</time>
      </trkpt>
      <trkpt lat="43.683315" lon="4.588969">
        <ele>4.10922</ele>
        <time>2021-07-01T09:59:31Z</time>
      </trkpt>
      <trkpt lat="43.683315" lon="4.588703">
        <ele>4.22628</ele>
        <time>2021-07-01T09:59:32Z</time>
      </trkpt>
      <trkpt lat="43.683315" lon="4.588703">
        <ele>4.02340</ele>
        <time>2021-07-01T09:59:33Z</time>
      </trkpt>
      <trkpt lat="43.683311" lon="4.588431">
        <ele>4.06289</ele>
        <time>2021-07-01T09:59:34Z</time>
      </trkpt>
      <trkpt lat="43.683308" lon="4.587920">
        <ele>3.95669</ele>
        <time>2021-07-01T09:59:35Z</time>
      </trkpt>
      <trkpt lat="43.683308" lon="4.587920">
        <ele>3.97775</ele>
        <time>2021-07-01T09:59:36Z</time>
      </trkpt>
      <trkpt lat="43.683304" lon="4.587673">
        <ele>3.86856</ele>
        <time>2021-07-01T09:59:37Z</time>
      </trkpt>
      <trkpt lat="43.683304" lon="4.587425">
        <ele>3.54013</ele>
        <time>2021-07-01T09:59:38Z</time>
      </trkpt>
      <trkpt lat="43.683300" lon="4.587175">
        <ele>3.58157</ele>
        <time>2021-07-01T09:59:39Z</time>
      </trkpt>
      <trkpt lat="43.683296" lon="4.586890">
        <ele>3.48202</ele>
        <time>2021-07-01T09:59:40Z</time>
      </trkpt>
      <trkpt lat="43.683292" lon="4.586612">
        <ele>3.56601</ele>
        <time>2021-07-01T09:59:41Z</time>
      </trkpt>
      <trkpt lat="43.683292" lon="4.586332">
        <ele>3.38614</ele>
        <time>2021-07-01T09:59:42Z</time>
      </trkpt>
      <trkpt lat="43.683289" lon="4.586055">
        <ele>3.27298</ele>
        <time>2021-07-01T09:59:43Z</time>
      </trkpt>
      <trkpt lat="43.683289" lon="4.585761">
        <ele>3.30563</ele>
        <time>2021-07-01T09:59:44Z</time>
      </trkpt>
      <trkpt lat="43.683285" lon="4.585466">
        <ele>3.21969</ele>
        <time>2021-07-01T09:59:45Z</time>
      </trkpt>
      <trkpt lat="43.683281" lon="4.585173">
        <ele>3.13089</ele>
        <time>2021-07-01T09:59:46Z</time>
      </trkpt>
      <trkpt lat="43.683277" lon="4.584870">
        <ele>3.05050</ele>
        <time>2021-07-01T09:59:47Z</time>
      </trkpt>
      <trkpt lat="43.683277" lon="4.584562">
        <ele>2.88028</ele>
        <time>2021-07-01T09:59:48Z</time>
      </trkpt>
      <trkpt lat="43.683273" lon="4.584247">
        <ele>3.06771</ele>
        <time>2021-07-01T09:59:49Z</time>
      </trkpt>
      <trkpt lat="43.683270" lon="4.583904">
        <ele>2.61251</ele>
        <time>2021-07-01T09:59:50Z</time>
      </trkpt>
      <trkpt lat="43.683266" lon="4.583580">
        <ele>2.52291</ele>
        <time>2021-07-01T09:59:51Z</time>
      </trkpt>
      <trkpt lat="43.683266" lon="4.583238">
        <ele>2.56497</ele>
        <time>2021-07-01T09:59:52Z</time>
      </trkpt>
      <trkpt lat="43.683262" lon="4.582943">
        <ele>2.88864</ele>
        <time>2021-07-01T09:59:53Z</time>
      </trkpt>
      <trkpt lat="43.683258" lon="4.582614">
        <ele>3.09262</ele>
        <time>2021-07-01T09:59:54Z</time>
      </trkpt>
      <trkpt lat="43.683254" lon="4.582288">
        <ele>3.36331</ele>
        <time>2021-07-01T09:59:55Z</time>
      </trkpt>
      <trkpt lat="43.683254" lon="4.581970">
        <ele>3.33676</ele>
        <time>2021-07-01T09:59:56Z</time>
      </trkpt>
      <trkpt lat="43.683250" lon="4.581639">
        <ele>3.50131</ele>
        <time>2021-07-01T09:59:57Z</time>
      </trkpt>
      <trkpt lat="43.683247" lon="4.581304">
        <ele>3.48697</ele>
        <time>2021-07-01T09:59:58Z</time>
      </trkpt>
      <trkpt lat="43.683247" lon="4.580979">
        <ele>3.38827</ele>
        <time>2021-07-01T09:59:59Z</time>
      </trkpt>
      <trkpt lat="43.683243" lon="4.580637">
        <ele>3.36874</ele>
        <time>2021-07-01T10:00:00Z</time>
      </trkpt>
      <trkpt lat="43.683239" lon="4.580304">
        <ele>3.32510</ele>
        <time>2021-07-01T10:00:01Z</time>
      </trkpt>
      <trkpt lat="43.683235" lon="4.579986">
        <ele>3.57986</ele>
        <time>2021-07-01T10:00:02Z</time>
      </trkpt>
      <trkpt lat="43.683235" lon="4.579642">
        <ele>3.78360</ele>
        <time>2021-07-01T10:00:03Z</time>
      </trkpt>
      <trkpt lat="43.683231" lon="4.579303">
        <ele>3.92532</ele>
        <time>2021-07-01T10:00:04Z</time>
      </trkpt>
      <trkpt lat="43.683228" lon="4.578982">
        <ele>4.05990</ele>
        <time>2021-07-01T10:00:05Z</time>
      </trkpt>
      <trkpt lat="43.683228" lon="4.578630">
        <ele>4.01333</ele>
        <time>2021-07-01T10:00:06Z</time>
      </trkpt>
      <trkpt lat="43.683224" lon="4.578279">
        <ele>3.98019</ele>
        <time>2021-07-01T10:00:07Z</time>
      </trkpt>
      <trkpt lat="43.683224" lon="4.578279">
        <ele>3.97299</ele>
        <time>2021-07-01T10:00:08Z</time>
      </trkpt>
      <trkpt lat="43.683220" lon="4.577919">
        <ele>4.02188</ele>
        <time>2021-07-01T10:00:09Z</time>
      </trkpt>
      <trkpt lat="43.683216" lon="4.577585">
        <ele>4.05526</ele>
        <time>2021-07-01T10:00:10Z</time>
      </trkpt>
      <trkpt lat="43.683212" lon="4.577235">
        <ele>4.15371</ele>
        <time>2021-07-01T10:00:11Z</time>
      </trkpt>
      <trkpt lat="43.683212" lon="4.576875">
        <ele>4.12063</ele>
        <time>2021-07-01T10:00:12Z</time>
      </trkpt>
      <trkpt lat="43.683208" lon="4.576542">
        <ele>3.87252</ele>
        <time>2021-07-01T10:00:13Z</time>
      </trkpt>
      <trkpt lat="43.683205" lon="4.576206">
        <ele>3.69687</ele>
        <time>2021-07-01T10:00:14Z</time>
      </trkpt>
      <trkpt lat="43.683201" lon="4.575861">
        <ele>3.85202</ele>
        <time>2021-07-01T10:00:15Z</time>
      </trkpt>
      <trkpt lat="43.683201" lon="4.575534">
        <ele>3.64950</ele>
        <time>2021-07-01T10:00:16Z</time>
      </trkpt>
      <trkpt lat="43.683197" lon="4.575197">
        <ele>3.59085</ele>
        <time>2021-07-01T10:00:17Z</time>
      </trkpt>
      <trkpt lat="43.683193" lon="4.574836">
        <ele>3.54135</ele>
        <time>2021-07-01T10:00:18Z</time>
      </trkpt>
      <trkpt lat="43.683189" lon="4.574491">
        <ele>3.42996</ele>
        <time>2021-07-01T10:00:19Z</time>
      </trkpt>
      <trkpt lat="43.683189" lon="4.574126">
        <ele>3.47421</ele>
        <time>2021-07-01T10:00:20Z</time>
      </trkpt>
      <trkpt lat="43.683186" lon="4.573767">
        <ele>3.71933</ele>
        <time>2021-07-01T10:00:21Z</time>
      </trkpt>
      <trkpt lat="43.683182" lon="4.573407">
        <ele>3.59121</ele>
        <time>2021-07-01T10:00:22Z</time>
      </trkpt>
      <trkpt lat="43.683182" lon="4.573069">
        <ele>3.39035</ele>
        <time>2021-07-01T10:00:23Z</time>
      </trkpt>
      <trkpt lat="43.683178" lon="4.572749">
        <ele>2.99136</ele>
        <time>2021-07-01T10:00:24Z</time>
      </trkpt>
      <trkpt lat="43.683174" lon="4.572393">
        <ele>3.02975</ele>
        <time>2021-07-01T10:00:25Z</time>
      </trkpt>
      <trkpt lat="43.683170" lon="4.572026">
        <ele>2.99606</ele>
        <time>2021-07-01T10:00:26Z</time>
      </trkpt>
      <trkpt lat="43.683170" lon="4.571668">
        <ele>2.70950</ele>
        <time>2021-07-01T10:00:27Z</time>
      </trkpt>
      <trkpt lat="43.683167" lon="4.571343">
        <ele>2.72586</ele>
        <time>2021-07-01T10:00:28Z</time>
      </trkpt>
      <trkpt lat="43.683163" lon="4.570975">
        <ele>2.91214</ele>
        <time>2021-07-01T10:00:29Z</time>
      </trkpt>
      <trkpt lat="43.683163" lon="4.570623">
        <ele>2.93594</ele>
        <time>2021-07-01T10:00:30Z</time>
      </trkpt>
      <trkpt lat="43.683159" lon="4.570254">
        <ele>2.86813</ele>
        <time>2021-07-01T10:00:31Z</time>
      </trkpt>
      <trkpt lat="43.683155" lon="4.569937">
        <ele>3.04470</ele>
        <time>2021-07-01T10:00:32Z</time>
      </trkpt>
      <trkpt lat="43.683151" lon="4.569600">
        <ele>3.30874</ele>
        <time>2021-07-01T10:00:33Z</time>
      </trkpt>
      <trkpt lat="43.683151" lon="4.569600">
        <ele>3.18545</ele>
        <time>2021-07-01T10:00:34Z</time>
      </trkpt>
      <trkpt lat="43.683151" lon="4.569276">
        <ele>2.52633</ele>
        <time>2021-07-01T10:00:35Z</time>
      </trkpt>
      <trkpt lat="43.683144" lon="4.568627">
        <ele>2.60495</ele>
        <time>2021-07-01T10:00:36Z</time>
      </trkpt>
      <trkpt lat="43.683144" lon="4.568627">
        <ele>2.43649</ele>
        <time>2021-07-01T10:00:37Z</time>
      </trkpt>
      <trkpt lat="43.683144" lon="4.568277">
        <ele>2.07083</ele>
        <time>2021-07-01T10:00:38Z</time>
      </trkpt>
      <trkpt lat="43.683140" lon="4.567945">
        <ele>2.05868</ele>
        <time>2021-07-01T10:00:39Z</time>
      </trkpt>
      <trkpt lat="43.683140" lon="4.567605">
        <ele>2.08114</ele>
        <time>2021-07-01T10:00:40Z</time>
      </trkpt>
      <trkpt lat="43.683136" lon="4.567271">
        <ele>2.14090</ele>
        <time>2021-07-01T10:00:41Z</time>
      </trkpt>
      <trkpt lat="43.683132" lon="4.566903">
        <ele>2.17257</ele>
        <time>2021-07-01T10:00:42Z</time>
      </trkpt>
      <trkpt lat="43.683128" lon="4.566543">
        <ele>2.20047</ele>
        <time>2021-07-01T10:00:43Z</time>
      </trkpt>
      <trkpt lat="43.683128" lon="4.566186">
        <ele>2.27542</ele>
        <time>2021-07-01T10:00:44Z</time>
      </trkpt>
      <trkpt lat="43.683125" lon="4.565842">
        <ele>2.21621</ele>
        <time>2021-07-01T10:00:45Z</time>
      </trkpt>
      <trkpt lat="43.683121" lon="4.565442">
        <ele>2.00161</ele>
        <time>2021-07-01T10:00:46Z</time>
      </trkpt>
      <trkpt lat="43.683121" lon="4.565064">
        <ele>1.91220</ele>
        <time>2021-07-01T10:00:47Z</time>
      </trkpt>
      <trkpt lat="43.683117" lon="4.564691">
        <ele>1.73281</ele>
        <time>2021-07-01T10:00:48Z</time>
      </trkpt>
      <trkpt lat="43.683113" lon="4.564323">
        <ele>1.58780</ele>
        <time>2021-07-01T10:00:49Z</time>
      </trkpt>
      <trkpt lat="43.683109" lon="4.563939">
        <ele>1.77407</ele>
        <time>2021-07-01T10:00:50Z</time>
      </trkpt>
      <trkpt lat="43.683105" lon="4.563579">
        <ele>1.79965</ele>
        <time>2021-07-01T10:00:51Z</time>
      </trkpt>
      <trkpt lat="43.683105" lon="4.563205">
        <ele>1.72989</ele>
        <time>2021-07-01T10:00:52Z</time>
      </trkpt>
      <trkpt lat="43.683102" lon="4.562823">
        <ele>1.73910</ele>
        <time>2021-07-01T10:00:53Z</time>
      </trkpt>
      <trkpt lat="43.683098" lon="4.562455">
        <ele>1.64236</ele>
        <time>2021-07-01T10:00:54Z</time>
      </trkpt>
      <trkpt lat="43.683094" lon="4.562091">
        <ele>1.64755</ele>
        <time>2021-07-01T10:00:55Z</time>
      </trkpt>
      <trkpt lat="43.683090" lon="4.561696">
        <ele>1.76077</ele>
        <time>2021-07-01T10:00:56Z</time>
      </trkpt>
      <trkpt lat="43.683090" lon="4.561307">
        <ele>1.67624</ele>
        <time>2021-07-01T10:00:57Z</time>
      </trkpt>
      <trkpt lat="43.683086" lon="4.560928">
        <ele>1.40603</ele>
        <time>2021-07-01T10:00:58Z</time>
      </trkpt>
      <trkpt lat="43.683083" lon="4.560529">
        <ele>1.53018</ele>
        <time>2021-07-01T10:00:59Z</time>
      </trkpt>
      <trkpt lat="43.683083" lon="4.560144">
        <ele>1.42959</ele>
        <time>2021-07-01T10:01:00Z</time>
      </trkpt>
      <trkpt lat="43.683079" lon="4.559776">
        <ele>1.28463</ele>
        <time>2021-07-01T10:01:01Z</time>
      </trkpt>
      <trkpt lat="43.683079" lon="4.559417">
        <ele>1.59249</ele>
        <time>2021-07-01T10:01:02Z</time>
      </trkpt>
      <trkpt lat="43.683075" lon="4.559071">
        <ele>1.90670</ele>
        <time>2021-07-01T10:01:03Z</time>
      </trkpt>
      <trkpt lat="43.683075" lon="4.558699">
        <ele>2.15158</ele>
        <time>2021-07-01T10:01:04Z</time>
      </trkpt>
      <trkpt lat="43.683079" lon="4.558358">
        <ele>1.94845</ele>
        <time>2021-07-01T10:01:05Z</time>
      </trkpt>
      <trkpt lat="43.683083" lon="4.557988">
        <ele>2.04141</ele>
        <time>2021-07-01T10:01:06Z</time>
      </trkpt>
      <trkpt lat="43.683090" lon="4.557603">
        <ele>2.29153</ele>
        <time>2021-07-01T10:01:07Z</time>
      </trkpt>
      <trkpt lat="43.683105" lon="4.557242">
        <ele>2.20596</ele>
        <time>2021-07-01T10:01:08Z</time>
      </trkpt>
      <trkpt lat="43.683125" lon="4.556843">
        <ele>2.05172</ele>
        <time>2021-07-01T10:01:09Z</time>
      </trkpt>
      <trkpt lat="43.683125" lon="4.556843">
        <ele>2.10757</ele>
        <time>2021-07-01T10:01:10Z</time>
      </trkpt>
      <trkpt lat="43.683163" lon="4.556436">
        <ele>2.51681</ele>
        <time>2021-07-01T10:01:11Z</time>
      </trkpt>
      <trkpt lat="43.683205" lon="4.556045">
        <ele>2.87912</ele>
        <time>2021-07-01T10:01:12Z</time>
      </trkpt>
      <trkpt lat="43.683250" lon="4.555660">
        <ele>3.18606</ele>
        <time>2021-07-01T10:01:13Z</time>
      </trkpt>
      <trkpt lat="43.683304" lon="4.555272">
        <ele>3.43899</ele>
        <time>2021-07-01T10:01:14Z</time>
      </trkpt>
      <trkpt lat="43.683369" lon="4.554876">
        <ele>3.85196</ele>
        <time>2021-07-01T10:01:15Z</time>
      </trkpt>
      <trkpt lat="43.683445" lon="4.554498">
        <ele>4.57925</ele>
        <time>2021-07-01T10:01:16Z</time>
      </trkpt>
      <trkpt lat="43.683525" lon="4.554139">
        <ele>5.32913</ele>
        <time>2021-07-01T10:01:17Z</time>
      </trkpt>
      <trkpt lat="43.683590" lon="4.553859">
        <ele>6.00509</ele>
        <time>2021-07-01T10:01:18Z</time>
      </trkpt>
      <trkpt lat="43.683655" lon="4.553605">
        <ele>6.50229</ele>
        <time>2021-07-01T10:01:19Z</time>
      </trkpt>
      <trkpt lat="43.683720" lon="4.553391">
        <ele>1.61307</ele>
        <time>2021-07-01T10:01:20Z</time>
      </trkpt>
      <trkpt lat="43.683769" lon="4.553217">
        <ele>0.85047</ele>
        <time>2021-07-01T10:01:21Z</time>
      </trkpt>
      <trkpt lat="43.683819" lon="4.553050">
        <ele>0.34195</ele>
        <time>2021-07-01T10:01:22Z</time>
      </trkpt>
      <trkpt lat="43.683865" lon="4.552888">
        <ele>0.59015</ele>
        <time>2021-07-01T10:01:23Z</time>
      </trkpt>
      <trkpt lat="43.683914" lon="4.552738">
        <ele>1.34215</ele>
        <time>2021-07-01T10:01:24Z</time>
      </trkpt>
      <trkpt lat="43.683968" lon="4.552587">
        <ele>2.33772</ele>
        <time>2021-07-01T10:01:25Z</time>
      </trkpt>
      <trkpt lat="43.684025" lon="4.552421">
        <ele>3.70945</ele>
        <time>2021-07-01T10:01:26Z</time>
      </trkpt>
      <trkpt lat="43.684078" lon="4.552272">
        <ele>3.67277</ele>
        <time>2021-07-01T10:01:27Z</time>
      </trkpt>
      <trkpt lat="43.684132" lon="4.552127">
        <ele>3.50124</ele>
        <time>2021-07-01T10:01:28Z</time>
      </trkpt>
      <trkpt lat="43.684189" lon="4.551981">
        <ele>3.47799</ele>
        <time>2021-07-01T10:01:29Z</time>
      </trkpt>
      <trkpt lat="43.684246" lon="4.551833">
        <ele>3.36628</ele>
        <time>2021-07-01T10:01:30Z</time>
      </trkpt>
      <trkpt lat="43.684299" lon="4.551709">
        <ele>3.23284</ele>
        <time>2021-07-01T10:01:31Z</time>
      </trkpt>
      <trkpt lat="43.684345" lon="4.551594">
        <ele>2.85823</ele>
        <time>2021-07-01T10:01:32Z</time>
      </trkpt>
      <trkpt lat="43.684402" lon="4.551471">
        <ele>2.07964</ele>
        <time>2021-07-01T10:01:33Z</time>
      </trkpt>
      <trkpt lat="43.684456" lon="4.551351">
        <ele>1.43059</ele>
        <time>2021-07-01T10:01:34Z</time>
      </trkpt>
      <trkpt lat="43.684517" lon="4.551227">
        <ele>1.59043</ele>
        <time>2021-07-01T10:01:35Z</time>
      </trkpt>
      <trkpt lat="43.684570" lon="4.551104">
        <ele>2.32436</ele>
        <time>2021-07-01T10:01:36Z</time>
      </trkpt>
      <trkpt lat="43.684635" lon="4.550969">
        <ele>3.01948</ele>
        <time>2021-07-01T10:01:37Z</time>
      </trkpt>
      <trkpt lat="43.684689" lon="4.550857">
        <ele>3.14267</ele>
        <time>2021-07-01T10:01:38Z</time>
      </trkpt>
      <trkpt lat="43.684757" lon="4.550727">
        <ele>2.66238</ele>
        <time>2021-07-01T10:01:39Z</time>
      </trkpt>
      <trkpt lat="43.684757" lon="4.550727">
        <ele>2.54193</ele>
        <time>2021-07-01T10:01:40Z</time>
      </trkpt>
      <trkpt lat="43.684845" lon="4.550568">
        <ele>2.97943</ele>
        <time>2021-07-01T10:01:41Z</time>
      </trkpt>
      <trkpt lat="43.684929" lon="4.550416">
        <ele>3.64617</ele>
        <time>2021-07-01T10:01:42Z</time>
      </trkpt>
      <trkpt lat="43.685013" lon="4.550261">
        <ele>3.20775</ele>
        <time>2021-07-01T10:01:43Z</time>
      </trkpt>
      <trkpt lat="43.685093" lon="4.550130">
        <ele>2.95692</ele>
        <time>2021-07-01T10:01:44Z</time>
      </trkpt>
      <trkpt lat="43.685181" lon="4.549984">
        <ele>3.29678</ele>
        <time>2021-07-01T10:01:45Z</time>
      </trkpt>
      <trkpt lat="43.685261" lon="4.549851">
        <ele>2.75900</ele>
        <time>2021-07-01T10:01:46Z</time>
      </trkpt>
      <trkpt lat="43.685341" lon="4.549735">
        <ele>2.07612</ele>
        <time>2021-07-01T10:01:47Z</time>
      </trkpt>
      <trkpt lat="43.685410" lon="4.549626">
        <ele>2.05187</ele>
        <time>2021-07-01T10:01:48Z</time>
      </trkpt>
      <trkpt lat="43.685474" lon="4.549532">
        <ele>1.63253</ele>
        <time>2021-07-01T10:01:49Z</time>
      </trkpt>
      <trkpt lat="43.685532" lon="4.549446">
        <ele>0.82596</ele>
        <time>2021-07-01T10:01:50Z</time>
      </trkpt>
      <trkpt lat="43.685593" lon="4.549357">
        <ele>0.59497</ele>
        <time>2021-07-01T10:01:51Z</time>
      </trkpt>
      <trkpt lat="43.685665" lon="4.549256">
        <ele>1.75729</ele>
        <time>2021-07-01T10:01:52Z</time>
      </trkpt>
      <trkpt lat="43.685738" lon="4.549153">
        <ele>0.86866</ele>
        <time>2021-07-01T10:01:53Z</time>
      </trkpt>
      <trkpt lat="43.685810" lon="4.549051">
        <ele>1.11400</ele>
        <time>2021-07-01T10:01:54Z</time>
      </trkpt>
      <trkpt lat="43.685883" lon="4.548957">
        <ele>1.41196</ele>
        <time>2021-07-01T10:01:55Z</time>
      </trkpt>
      <trkpt lat="43.685959" lon="4.548866">
        <ele>1.30088</ele>
        <time>2021-07-01T10:01:56Z</time>
      </trkpt>
      <trkpt lat="43.686047" lon="4.548760">
        <ele>2.03259</ele>
        <time>2021-07-01T10:01:57Z</time>
      </trkpt>
      <trkpt lat="43.686134" lon="4.548654">
        <ele>1.50851</ele>
        <time>2021-07-01T10:01:58Z</time>
      </trkpt>
      <trkpt lat="43.686214" lon="4.548557">
        <ele>7.08377</ele>
        <time>2021-07-01T10:01:59Z</time>
      </trkpt>
      <trkpt lat="43.686298" lon="4.548463">
        <ele>7.09658</ele>
        <time>2021-07-01T10:02:00Z</time>
      </trkpt>
      <trkpt lat="43.686367" lon="4.548383">
        <ele>0.99938</ele>
        <time>2021-07-01T10:02:01Z</time>
      </trkpt>
      <trkpt lat="43.686424" lon="4.548318">
        <ele>0.41217</ele>
        <time>2021-07-01T10:02:02Z</time>
      </trkpt>
      <trkpt lat="43.686485" lon="4.548247">
        <ele>0.31861</ele>
        <time>2021-07-01T10:02:03Z</time>
      </trkpt>
      <trkpt lat="43.686550" lon="4.548171">
        <ele>0.46380</ele>
        <time>2021-07-01T10:02:04Z</time>
      </trkpt>
      <trkpt lat="43.686619" lon="4.548096">
        <ele>0.62268</ele>
        <time>2021-07-01T10:02:05Z</time>
      </trkpt>
      <trkpt lat="43.686687" lon="4.548025">
        <ele>0.78038</ele>
        <time>2021-07-01T10:02:06Z</time>
      </trkpt>
      <trkpt lat="43.686752" lon="4.547956">
        <ele>0.75235</ele>
        <time>2021-07-01T10:02:07Z</time>
      </trkpt>
      <trkpt lat="43.686821" lon="4.547888">
        <ele>1.34989</ele>
        <time>2021-07-01T10:02:08Z</time>
      </trkpt>
      <trkpt lat="43.686890" lon="4.547818">
        <ele>0.80680</ele>
        <time>2021-07-01T10:02:09Z</time>
      </trkpt>
      <trkpt lat="43.686947" lon="4.547764">
        <ele>1.14449</ele>
        <time>2021-07-01T10:02:10Z</time>
      </trkpt>
      <trkpt lat="43.687008" lon="4.547700">
        <ele>0.77569</ele>
        <time>2021-07-01T10:02:11Z</time>
      </trkpt>
      <trkpt lat="43.687088" lon="4.547620">
        <ele>0.86184</ele>
        <time>2021-07-01T10:02:12Z</time>
      </trkpt>
      <trkpt lat="43.687088" lon="4.547620">
        <ele>0.91325</ele>
        <time>2021-07-01T10:02:13Z</time>
      </trkpt>
      <trkpt lat="43.687168" lon="4.547545">
        <ele>0.91338</ele>
        <time>2021-07-01T10:02:14Z</time>
      </trkpt>
      <trkpt lat="43.687237" lon="4.547484">
        <ele>0.80696</ele>
        <time>2021-07-01T10:02:15Z</time>
      </trkpt>
      <trkpt lat="43.687302" lon="4.547424">
        <ele>1.14642</ele>
        <time>2021-07-01T10:02:16Z</time>
      </trkpt>
      <trkpt lat="43.687363" lon="4.547366">
        <ele>1.60319</ele>
        <time>2021-07-01T10:02:17Z</time>
      </trkpt>
      <trkpt lat="43.687454" lon="4.547283">
        <ele>1.52329</ele>
        <time>2021-07-01T10:02:18Z</time>
      </trkpt>
      <trkpt lat="43.687531" lon="4.547212">
        <ele>1.50360</ele>
        <time>2021-07-01T10:02:19Z</time>
      </trkpt>
      <trkpt lat="43.687611" lon="4.547141">
        <ele>1.16884</ele>
        <time>2021-07-01T10:02:20Z</time>
      </trkpt>
      <trkpt lat="43.687679" lon="4.547078">
        <ele>1.29015</ele>
        <time>2021-07-01T10:02:21Z</time>
      </trkpt>
      <trkpt lat="43.687744" lon="4.547019">
        <ele>0.85324</ele>
        <time>2021-07-01T10:02:22Z</time>
      </trkpt>
      <trkpt lat="43.687801" lon="4.546965">
        <ele>0.59389</ele>
        <time>2021-07-01T10:02:23Z</time>
      </trkpt>
      <trkpt lat="43.687862" lon="4.546912">
        <ele>0.51791</ele>
        <time>2021-07-01T10:02:24Z</time>
      </trkpt>
      <trkpt lat="43.687923" lon="4.546862">
        <ele>0.65413</ele>
        <time>2021-07-01T10:02:25Z</time>
      </trkpt>
      <trkpt lat="43.687973" lon="4.546817">
        <ele>0.47398</ele>
        <time>2021-07-01T10:02:26Z</time>
      </trkpt>
      <trkpt lat="43.688038" lon="4.546762">
        <ele>0.63997</ele>
        <time>2021-07-01T10:02:27Z</time>
      </trkpt>
      <trkpt lat="43.688114" lon="4.546698">
        <ele>0.78775</ele>
        <time>2021-07-01T10:02:28Z</time>
      </trkpt>
      <trkpt lat="43.688187" lon="4.546637">
        <ele>0.67899</ele>
        <time>2021-07-01T10:02:29Z</time>
      </trkpt>
      <trkpt lat="43.688255" lon="4.546577">
        <ele>0.61298</ele>
        <time>2021-07-01T10:02:30Z</time>
      </trkpt>
      <trkpt lat="43.688328" lon="4.546516">
        <ele>0.97425</ele>
        <time>2021-07-01T10:02:31Z</time>
      </trkpt>
      <trkpt lat="43.688412" lon="4.546447">
        <ele>1.18178</ele>
        <time>2021-07-01T10:02:32Z</time>
      </trkpt>
      <trkpt lat="43.688496" lon="4.546376">
        <ele>0.65073</ele>
        <time>2021-07-01T10:02:33Z</time>
      </trkpt>
      <trkpt lat="43.688568" lon="4.546312">
        <ele>0.04015</ele>
        <time>2021-07-01T10:02:34Z</time>
      </trkpt>
      <trkpt lat="43.688622" lon="4.546270">
        <ele>-0.02166</ele>
        <time>2021-07-01T10:02:35Z</time>
      </trkpt>
      <trkpt lat="43.688667" lon="4.546232">
        <ele>0.18745</ele>
        <time>2021-07-01T10:02:36Z</time>
      </trkpt>
      <trkpt lat="43.688709" lon="4.546195">
        <ele>0.16198</ele>
        <time>2021-07-01T10:02:37Z</time>
      </trkpt>
      <trkpt lat="43.688751" lon="4.546161">
        <ele>0.24808</ele>
        <time>2021-07-01T10:02:38Z</time>
      </trkpt>
      <trkpt lat="43.688789" lon="4.546131">
        <ele>0.49499</ele>
        <time>2021-07-01T10:02:39Z</time>
      </trkpt>
      <trkpt lat="43.688839" lon="4.546099">
        <ele>0.70592</ele>
        <time>2021-07-01T10:02:40Z</time>
      </trkpt>
      <trkpt lat="43.688904" lon="4.546057">
        <ele>0.71193</ele>
        <time>2021-07-01T10:02:41Z</time>
      </trkpt>
      <trkpt lat="43.688953" lon="4.546025">
        <ele>1.00316</ele>
        <time>2021-07-01T10:02:42Z</time>
      </trkpt>
      <trkpt lat="43.689014" lon="4.545985">
        <ele>1.31604</ele>
        <time>2021-07-01T10:02:43Z</time>
      </trkpt>
      <trkpt lat="43.689083" lon="4.545939">
        <ele>1.43039</ele>
        <time>2021-07-01T10:02:44Z</time>
      </trkpt>
      <trkpt lat="43.689133" lon="4.545904">
        <ele>1.35402</ele>
        <time>2021-07-01T10:02:45Z</time>
      </trkpt>
      <trkpt lat="43.689133" lon="4.545904">
        <ele>1.22056</ele>
        <time>2021-07-01T10:02:46Z</time>
      </trkpt>
      <trkpt lat="43.689201" lon="4.545861">
        <ele>1.57148</ele>
        <time>2021-07-01T10:02:47Z</time>
      </trkpt>
      <trkpt lat="43.689201" lon="4.545861">
        <ele>1.52513</ele>
        <time>2021-07-01T10:02:48Z</time>
      </trkpt>
      <trkpt lat="43.689236" lon="4.545838">
        <ele>1.46259</ele>
        <time>2021-07-01T10:02:49Z</time>
      </trkpt>
      <trkpt lat="43.689274" lon="4.545811">
        <ele>1.78846</ele>
        <time>2021-07-01T10:02:50Z</time>
      </trkpt>
      <trkpt lat="43.689308" lon="4.545790">
        <ele>1.77181</ele>
        <time>2021-07-01T10:02:51Z</time>
      </trkpt>
      <trkpt lat="43.689342" lon="4.545765">
        <ele>1.58912</ele>
        <time>2021-07-01T10:02:52Z</time>
      </trkpt>
      <trkpt lat="43.689384" lon="4.545738">
        <ele>1.72562</ele>
        <time>2021-07-01T10:02:53Z</time>
      </trkpt>
      <trkpt lat="43.689423" lon="4.545712">
        <ele>1.85165</ele>
        <time>2021-07-01T10:02:54Z</time>
      </trkpt>
      <trkpt lat="43.689465" lon="4.545684">
        <ele>2.09595</ele>
        <time>2021-07-01T10:02:55Z</time>
      </trkpt>
      <trkpt lat="43.689510" lon="4.545655">
        <ele>2.41093</ele>
        <time>2021-07-01T10:02:56Z</time>
      </trkpt>
      <trkpt lat="43.689556" lon="4.545624">
        <ele>3.09530</ele>
        <time>2021-07-01T10:02:57Z</time>
      </trkpt>
      <trkpt lat="43.689617" lon="4.545583">
        <ele>3.44591</ele>
        <time>2021-07-01T10:02:58Z</time>
      </trkpt>
      <trkpt lat="43.689682" lon="4.545540">
        <ele>3.45735</ele>
        <time>2021-07-01T10:02:59Z</time>
      </trkpt>
      <trkpt lat="43.689747" lon="4.545499">
        <ele>3.44939</ele>
        <time>2021-07-01T10:03:00Z</time>
      </trkpt>
      <trkpt lat="43.689808" lon="4.545458">
        <ele>3.55445</ele>
        <time>2021-07-01T10:03:01Z</time>
      </trkpt>
      <trkpt lat="43.689865" lon="4.545421">
        <ele>3.58199</ele>
        <time>2021-07-01T10:03:02Z</time>
      </trkpt>
      <trkpt lat="43.689926" lon="4.545381">
        <ele>3.74465</ele>
        <time>2021-07-01T10:03:03Z</time>
      </trkpt>
      <trkpt lat="43.689983" lon="4.545344">
        <ele>3.11411</ele>
        <time>2021-07-01T10:03:04Z</time>
      </trkpt>
      <trkpt lat="43.690037" lon="4.545309">
        <ele>3.05373</ele>
        <time>2021-07-01T10:03:05Z</time>
      </trkpt>
      <trkpt lat="43.690075" lon="4.545281">
        <ele>3.10682</ele>
        <time>2021-07-01T10:03:06Z</time>
      </trkpt>
      <trkpt lat="43.690128" lon="4.545247">
        <ele>3.34737</ele>
        <time>2021-07-01T10:03:07Z</time>
      </trkpt>
      <trkpt lat="43.690182" lon="4.545210">
        <ele>3.52376</ele>
        <time>2021-07-01T10:03:08Z</time>
      </trkpt>
      <trkpt lat="43.690231" lon="4.545177">
        <ele>3.40661</ele>
        <time>2021-07-01T10:03:09Z</time>
      </trkpt>
      <trkpt lat="43.690273" lon="4.545150">
        <ele>3.49684</ele>
        <time>2021-07-01T10:03:10Z</time>
      </trkpt>
      <trkpt lat="43.690319" lon="4.545123">
        <ele>3.54997</ele>
        <time>2021-07-01T10:03:11Z</time>
      </trkpt>
      <trkpt lat="43.690350" lon="4.545104">
        <ele>3.39235</ele>
        <time>2021-07-01T10:03:12Z</time>
      </trkpt>
      <trkpt lat="43.690380" lon="4.545077">
        <ele>3.60950</ele>
        <time>2021-07-01T10:03:13Z</time>
      </trkpt>
      <trkpt lat="43.690434" lon="4.545033">
        <ele>3.38715</ele>
        <time>2021-07-01T10:03:14Z</time>
      </trkpt>
      <trkpt lat="43.690456" lon="4.545012">
        <ele>3.18501</ele>
        <time>2021-07-01T10:03:15Z</time>
      </trkpt>
      <trkpt lat="43.690479" lon="4.544993">
        <ele>3.25753</ele>
        <time>2021-07-01T10:03:16Z</time>
      </trkpt>
      <trkpt lat="43.690498" lon="4.544975">
        <ele>3.53681</ele>
        <time>2021-07-01T10:03:17Z</time>
      </trkpt>
      <trkpt lat="43.690521" lon="4.544955">
        <ele>3.58553</ele>
        <time>2021-07-01T10:03:18Z</time>
      </trkpt>
      <trkpt lat="43.690521" lon="4.544954">
        <ele>3.61234</ele>
        <time>2021-07-01T10:03:19Z</time>
      </trkpt>
      <trkpt lat="43.690540" lon="4.544937">
        <ele>3.58301</ele>
        <time>2021-07-01T10:03:20Z</time>
      </trkpt>
      <trkpt lat="43.690540" lon="4.544937">
        <ele>3.38000</ele>
        <time>2021-07-01T10:03:21Z</time>
      </trkpt>
      <trkpt lat="43.690571" lon="4.544909">
        <ele>3.15407</ele>
        <time>2021-07-01T10:03:22Z</time>
      </trkpt>
      <trkpt lat="43.690575" lon="4.544905">
        <ele>3.04147</ele>
        <time>2021-07-01T10:03:23Z</time>
      </trkpt>
      <trkpt lat="43.690578" lon="4.544904">
        <ele>3.07329</ele>
        <time>2021-07-01T10:03:24Z</time>
      </trkpt>
      <trkpt lat="43.690578" lon="4.544904">
        <ele>3.38057</ele>
        <time>2021-07-01T10:03:25Z</time>
      </trkpt>
      <trkpt lat="43.690594" lon="4.544889">
        <ele>3.63973</ele>
        <time>2021-07-01T10:03:26Z</time>
      </trkpt>
      <trkpt lat="43.690674" lon="4.544818">
        <ele>4.03673</ele>
        <time>2021-07-01T10:03:27Z</time>
      </trkpt>
      <trkpt lat="43.690769" lon="4.544719">
        <ele>4.64416</ele>
        <time>2021-07-01T10:03:28Z</time>
      </trkpt>
      <trkpt lat="43.690849" lon="4.544631">
        <ele>4.74813</ele>
        <time>2021-07-01T10:03:29Z</time>
      </trkpt>
      <trkpt lat="43.690937" lon="4.544538">
        <ele>5.02517</ele>
        <time>2021-07-01T10:03:30Z</time>
      </trkpt>
      <trkpt lat="43.691036" lon="4.544430">
        <ele>5.69355</ele>
        <time>2021-07-01T10:03:31Z</time>
      </trkpt>
      <trkpt lat="43.691147" lon="4.544308">
        <ele>5.80778</ele>
        <time>2021-07-01T10:03:32Z</time>
      </trkpt>
      <trkpt lat="43.691280" lon="4.544180">
        <ele>5.83634</ele>
        <time>2021-07-01T10:03:33Z</time>
      </trkpt>
      <trkpt lat="43.691422" lon="4.544056">
        <ele>6.79296</ele>
        <time>2021-07-01T10:03:34Z</time>
      </trkpt>
      <trkpt lat="43.691574" lon="4.543918">
        <ele>7.50424</ele>
        <time>2021-07-01T10:03:35Z</time>
      </trkpt>
      <trkpt lat="43.691723" lon="4.543786">
        <ele>8.18630</ele>
        <time>2021-07-01T10:03:36Z</time>
      </trkpt>
      <trkpt lat="43.691887" lon="4.543641">
        <ele>4.62588</ele>
        <time>2021-07-01T10:03:37Z</time>
      </trkpt>
      <trkpt lat="43.692059" lon="4.543484">
        <ele>4.33749</ele>
        <time>2021-07-01T10:03:38Z</time>
      </trkpt>
      <trkpt lat="43.692245" lon="4.543322">
        <ele>4.05728</ele>
        <time>2021-07-01T10:03:39Z</time>
      </trkpt>
      <trkpt lat="43.692410" lon="4.543181">
        <ele>3.60904</ele>
        <time>2021-07-01T10:03:40Z</time>
      </trkpt>
      <trkpt lat="43.692558" lon="4.543052">
        <ele>3.50277</ele>
        <time>2021-07-01T10:03:41Z</time>
      </trkpt>
      <trkpt lat="43.692745" lon="4.542891">
        <ele>3.61843</ele>
        <time>2021-07-01T10:03:42Z</time>
      </trkpt>
      <trkpt lat="43.692913" lon="4.542747">
        <ele>3.66415</ele>
        <time>2021-07-01T10:03:43Z</time>
      </trkpt>
      <trkpt lat="43.693089" lon="4.542595">
        <ele>3.46280</ele>
        <time>2021-07-01T10:03:44Z</time>
      </trkpt>
      <trkpt lat="43.693275" lon="4.542440">
        <ele>3.35788</ele>
        <time>2021-07-01T10:03:45Z</time>
      </trkpt>
      <trkpt lat="43.693459" lon="4.542287">
        <ele>2.95071</ele>
        <time>2021-07-01T10:03:46Z</time>
      </trkpt>
      <trkpt lat="43.693649" lon="4.542128">
        <ele>2.77420</ele>
        <time>2021-07-01T10:03:47Z</time>
      </trkpt>
      <trkpt lat="43.693829" lon="4.541979">
        <ele>2.79837</ele>
        <time>2021-07-01T10:03:48Z</time>
      </trkpt>
      <trkpt lat="43.693829" lon="4.541979">
        <ele>2.68777</ele>
        <time>2021-07-01T10:03:49Z</time>
      </trkpt>
      <trkpt lat="43.694218" lon="4.541653">
        <ele>2.83566</ele>
        <time>2021-07-01T10:03:50Z</time>
      </trkpt>
      <trkpt lat="43.694218" lon="4.541653">
        <ele>2.92593</ele>
        <time>2021-07-01T10:03:51Z</time>
      </trkpt>
      <trkpt lat="43.694412" lon="4.541492">
        <ele>3.16433</ele>
        <time>2021-07-01T10:03:52Z</time>
      </trkpt>
      <trkpt lat="43.694607" lon="4.541331">
        <ele>3.21896</ele>
        <time>2021-07-01T10:03:53Z</time>
      </trkpt>
      <trkpt lat="43.694813" lon="4.541162">
        <ele>3.54641</ele>
        <time>2021-07-01T10:03:54Z</time>
      </trkpt>
      <trkpt lat="43.695026" lon="4.540986">
        <ele>3.84072</ele>
        <time>2021-07-01T10:03:55Z</time>
      </trkpt>
      <trkpt lat="43.695217" lon="4.540829">
        <ele>3.83847</ele>
        <time>2021-07-01T10:03:56Z</time>
      </trkpt>
      <trkpt lat="43.695415" lon="4.540668">
        <ele>3.45303</ele>
        <time>2021-07-01T10:03:57Z</time>
      </trkpt>
      <trkpt lat="43.695618" lon="4.540500">
        <ele>3.43728</ele>
        <time>2021-07-01T10:03:58Z</time>
      </trkpt>
      <trkpt lat="43.695812" lon="4.540341">
        <ele>3.51883</ele>
        <time>2021-07-01T10:03:59Z</time>
      </trkpt>
      <trkpt lat="43.696011" lon="4.540176">
        <ele>3.73788</ele>
        <time>2021-07-01T10:04:00Z</time>
      </trkpt>
      <trkpt lat="43.696232" lon="4.539995">
        <ele>3.64492</ele>
        <time>2021-07-01T10:04:01Z</time>
      </trkpt>
      <trkpt lat="43.696438" lon="4.539826">
        <ele>3.91879</ele>
        <time>2021-07-01T10:04:02Z</time>
      </trkpt>
      <trkpt lat="43.696655" lon="4.539645">
        <ele>3.90829</ele>
        <time>2021-07-01T10:04:03Z</time>
      </trkpt>
      <trkpt lat="43.696892" lon="4.539454">
        <ele>4.08664</ele>
        <time>2021-07-01T10:04:04Z</time>
      </trkpt>
      <trkpt lat="43.697117" lon="4.539274">
        <ele>4.32199</ele>
        <time>2021-07-01T10:04:05Z</time>
      </trkpt>
      <trkpt lat="43.697357" lon="4.539084">
        <ele>4.28756</ele>
        <time>2021-07-01T10:04:06Z</time>
      </trkpt>
      <trkpt lat="43.697586" lon="4.538899">
        <ele>3.98703</ele>
        <time>2021-07-01T10:04:07Z</time>
      </trkpt>
      <trkpt lat="43.697819" lon="4.538714">
        <ele>4.19271</ele>
        <time>2021-07-01T10:04:08Z</time>
      </trkpt>
      <trkpt lat="43.698067" lon="4.538507">
        <ele>4.08340</ele>
        <time>2021-07-01T10:04:09Z</time>
      </trkpt>
      <trkpt lat="43.698303" lon="4.538312">
        <ele>4.33310</ele>
        <time>2021-07-01T10:04:10Z</time>
      </trkpt>
      <trkpt lat="43.698528" lon="4.538126">
        <ele>3.54129</ele>
        <time>2021-07-01T10:04:11Z</time>
      </trkpt>
      <trkpt lat="43.698769" lon="4.537929">
        <ele>3.58682</ele>
        <time>2021-07-01T10:04:12Z</time>
      </trkpt>
      <trkpt lat="43.699017" lon="4.537725">
        <ele>3.48745</ele>
        <time>2021-07-01T10:04:13Z</time>
      </trkpt>
      <trkpt lat="43.699249" lon="4.537527">
        <ele>3.67752</ele>
        <time>2021-07-01T10:04:14Z</time>
      </trkpt>
      <trkpt lat="43.699490" lon="4.537326">
        <ele>3.71835</ele>
        <time>2021-07-01T10:04:15Z</time>
      </trkpt>
      <trkpt lat="43.699760" lon="4.537097">
        <ele>4.09896</ele>
        <time>2021-07-01T10:04:16Z</time>
      </trkpt>
      <trkpt lat="43.700001" lon="4.536897">
        <ele>4.47989</ele>
        <time>2021-07-01T10:04:17Z</time>
      </trkpt>
      <trkpt lat="43.700249" lon="4.536685">
        <ele>4.80752</ele>
        <time>2021-07-01T10:04:18Z</time>
      </trkpt>
      <trkpt lat="43.700508" lon="4.536457">
        <ele>5.40072</ele>
        <time>2021-07-01T10:04:19Z</time>
      </trkpt>
      <trkpt lat="43.700748" lon="4.536232">
        <ele>5.93136</ele>
        <time>2021-07-01T10:04:20Z</time>
      </trkpt>
      <trkpt lat="43.700993" lon="4.535992">
        <ele>6.69766</ele>
        <time>2021-07-01T10:04:21Z</time>
      </trkpt>
      <trkpt lat="43.701225" lon="4.535754">
        <ele>7.00918</ele>
        <time>2021-07-01T10:04:22Z</time>
      </trkpt>
      <trkpt lat="43.701225" lon="4.535754">
        <ele>7.24527</ele>
        <time>2021-07-01T10:04:23Z</time>
      </trkpt>
      <trkpt lat="43.701473" lon="4.535506">
        <ele>7.52114</ele>
        <time>2021-07-01T10:04:24Z</time>
      </trkpt>
      <trkpt lat="43.701698" lon="4.535276">
        <ele>8.15158</ele>
        <time>2021-07-01T10:04:25Z</time>
      </trkpt>
      <trkpt lat="43.701935" lon="4.535010">
        <ele>7.85122</ele>
        <time>2021-07-01T10:04:26Z</time>
      </trkpt>
      <trkpt lat="43.702171" lon="4.534740">
        <ele>8.85274</ele>
        <time>2021-07-01T10:04:27Z</time>
      </trkpt>
      <trkpt lat="43.702393" lon="4.534471">
        <ele>8.73586</ele>
        <time>2021-07-01T10:04:28Z</time>
      </trkpt>
      <trkpt lat="43.702602" lon="4.534206">
        <ele>8.16164</ele>
        <time>2021-07-01T10:04:29Z</time>
      </trkpt>
      <trkpt lat="43.702827" lon="4.533911">
        <ele>8.39400</ele>
        <time>2021-07-01T10:04:30Z</time>
      </trkpt>
      <trkpt lat="43.703045" lon="4.533614">
        <ele>8.77712</ele>
        <time>2021-07-01T10:04:31Z</time>
      </trkpt>
      <trkpt lat="43.703255" lon="4.533326">
        <ele>8.94838</ele>
        <time>2021-07-01T10:04:32Z</time>
      </trkpt>
      <trkpt lat="43.703465" lon="4.533032">
        <ele>8.74575</ele>
        <time>2021-07-01T10:04:33Z</time>
      </trkpt>
      <trkpt lat="43.703659" lon="4.532742">
        <ele>8.82235</ele>
        <time>2021-07-01T10:04:34Z</time>
      </trkpt>
      <trkpt lat="43.703861" lon="4.532444">
        <ele>9.40828</ele>
        <time>2021-07-01T10:04:35Z</time>
      </trkpt>
      <trkpt lat="43.704056" lon="4.532150">
        <ele>9.69381</ele>
        <time>2021-07-01T10:04:36Z</time>
      </trkpt>
      <trkpt lat="43.704254" lon="4.531847">
        <ele>10.02596</ele>
        <time>2021-07-01T10:04:37Z</time>
      </trkpt>
      <trkpt lat="43.704445" lon="4.531549">
        <ele>10.18575</ele>
        <time>2021-07-01T10:04:38Z</time>
      </trkpt>
      <trkpt lat="43.704632" lon="4.531251">
        <ele>10.72023</ele>
        <time>2021-07-01T10:04:39Z</time>
      </trkpt>
      <trkpt lat="43.704819" lon="4.530961">
        <ele>11.06447</ele>
        <time>2021-07-01T10:04:40Z</time>
      </trkpt>
      <trkpt lat="43.705013" lon="4.530653">
        <ele>11.07082</ele>
        <time>2021-07-01T10:04:41Z</time>
      </trkpt>
      <trkpt lat="43.705219" lon="4.530341">
        <ele>11.22261</ele>
        <time>2021-07-01T10:04:42Z</time>
      </trkpt>
      <trkpt lat="43.705418" lon="4.530027">
        <ele>11.16365</ele>
        <time>2021-07-01T10:04:43Z</time>
      </trkpt>
      <trkpt lat="43.705620" lon="4.529712">
        <ele>11.27541</ele>
        <time>2021-07-01T10:04:44Z</time>
      </trkpt>
      <trkpt lat="43.705811" lon="4.529410">
        <ele>11.33754</ele>
        <time>2021-07-01T10:04:45Z</time>
      </trkpt>
      <trkpt lat="43.706001" lon="4.529109">
        <ele>11.17104</ele>
        <time>2021-07-01T10:04:46Z</time>
      </trkpt>
      <trkpt lat="43.706188" lon="4.528818">
        <ele>11.22274</ele>
        <time>2021-07-01T10:04:47Z</time>
      </trkpt>
      <trkpt lat="43.706387" lon="4.528499">
        <ele>11.10903</ele>
        <time>2021-07-01T10:04:48Z</time>
      </trkpt>
      <trkpt lat="43.706593" lon="4.528166">
        <ele>10.99508</ele>
        <time>2021-07-01T10:04:49Z</time>
      </trkpt>
      <trkpt lat="43.706791" lon="4.527837">
        <ele>10.65999</ele>
        <time>2021-07-01T10:04:50Z</time>
      </trkpt>
      <trkpt lat="43.706989" lon="4.527489">
        <ele>10.49898</ele>
        <time>2021-07-01T10:04:51Z</time>
      </trkpt>
      <trkpt lat="43.707172" lon="4.527165">
        <ele>10.28377</ele>
        <time>2021-07-01T10:04:52Z</time>
      </trkpt>
      <trkpt lat="43.707336" lon="4.526849">
        <ele>10.18349</ele>
        <time>2021-07-01T10:04:53Z</time>
      </trkpt>
      <trkpt lat="43.707516" lon="4.526511">
        <ele>9.81783</ele>
        <time>2021-07-01T10:04:54Z</time>
      </trkpt>
      <trkpt lat="43.707668" lon="4.526206">
        <ele>9.61171</ele>
        <time>2021-07-01T10:04:55Z</time>
      </trkpt>
      <trkpt lat="43.707832" lon="4.525861">
        <ele>9.96846</ele>
        <time>2021-07-01T10:04:56Z</time>
      </trkpt>
      <trkpt lat="43.708000" lon="4.525509">
        <ele>9.53066</ele>
        <time>2021-07-01T10:04:57Z</time>
      </trkpt>
      <trkpt lat="43.708153" lon="4.525149">
        <ele>9.52327</ele>
        <time>2021-07-01T10:04:58Z</time>
      </trkpt>
      <trkpt lat="43.708153" lon="4.525149">
        <ele>9.18160</ele>
        <time>2021-07-01T10:04:59Z</time>
      </trkpt>
      <trkpt lat="43.708309" lon="4.524781">
        <ele>9.30495</ele>
        <time>2021-07-01T10:05:00Z</time>
      </trkpt>
      <trkpt lat="43.708462" lon="4.524433">
        <ele>9.30397</ele>
        <time>2021-07-01T10:05:01Z</time>
      </trkpt>
      <trkpt lat="43.708611" lon="4.524041">
        <ele>9.28402</ele>
        <time>2021-07-01T10:05:02Z</time>
      </trkpt>
      <trkpt lat="43.708748" lon="4.523676">
        <ele>9.00539</ele>
        <time>2021-07-01T10:05:03Z</time>
      </trkpt>
      <trkpt lat="43.708748" lon="4.523676">
        <ele>9.00539</ele>
        <time>2021-07-01T10:05:05Z</time>
      </trkpt>
      <trkpt lat="43.709072" lon="4.522751">
        <ele>8.20021</ele>
        <time>2021-07-01T10:05:05Z</time>
      </trkpt>
      <trkpt lat="43.709126" lon="4.522590">
        <ele>7.44741</ele>
        <time>2021-07-01T10:05:06Z</time>
      </trkpt>
      <trkpt lat="43.709377" lon="4.521850">
        <ele>7.36892</ele>
        <time>2021-07-01T10:05:07Z</time>
      </trkpt>
      <trkpt lat="43.709476" lon="4.521564">
        <ele>7.20168</ele>
        <time>2021-07-01T10:05:08Z</time>
      </trkpt>
      <trkpt lat="43.709480" lon="4.521545">
        <ele>6.88387</ele>
        <time>2021-07-01T10:05:09Z</time>
      </trkpt>
      <trkpt lat="43.709763" lon="4.520723">
        <ele>6.75515</ele>
        <time>2021-07-01T10:05:10Z</time>
      </trkpt>
      <trkpt lat="43.709763" lon="4.520716">
        <ele>6.37227</ele>
        <time>2021-07-01T10:05:11Z</time>
      </trkpt>
      <trkpt lat="43.709763" lon="4.520716">
        <ele>6.03273</ele>
        <time>2021-07-01T10:05:12Z</time>
      </trkpt>
      <trkpt lat="43.709900" lon="4.520311">
        <ele>6.19124</ele>
        <time>2021-07-01T10:05:13Z</time>
      </trkpt>
      <trkpt lat="43.710121" lon="4.519696">
        <ele>6.08852</ele>
        <time>2021-07-01T10:05:14Z</time>
      </trkpt>
      <trkpt lat="43.710266" lon="4.519302">
        <ele>5.59578</ele>
        <time>2021-07-01T10:05:15Z</time>
      </trkpt>
      <trkpt lat="43.710396" lon="4.518950">
        <ele>5.42128</ele>
        <time>2021-07-01T10:05:16Z</time>
      </trkpt>
      <trkpt lat="43.710545" lon="4.518591">
        <ele>5.46206</ele>
        <time>2021-07-01T10:05:17Z</time>
      </trkpt>
      <trkpt lat="43.710693" lon="4.518236">
        <ele>5.51821</ele>
        <time>2021-07-01T10:05:18Z</time>
      </trkpt>
      <trkpt lat="43.710857" lon="4.517876">
        <ele>5.63906</ele>
        <time>2021-07-01T10:05:19Z</time>
      </trkpt>
      <trkpt lat="43.711029" lon="4.517521">
        <ele>5.14748</ele>
        <time>2021-07-01T10:05:20Z</time>
      </trkpt>
      <trkpt lat="43.711197" lon="4.517166">
        <ele>4.80568</ele>
        <time>2021-07-01T10:05:21Z</time>
      </trkpt>
      <trkpt lat="43.711399" lon="4.516792">
        <ele>5.04659</ele>
        <time>2021-07-01T10:05:22Z</time>
      </trkpt>
      <trkpt lat="43.711594" lon="4.516441">
        <ele>5.33461</ele>
        <time>2021-07-01T10:05:23Z</time>
      </trkpt>
      <trkpt lat="43.711788" lon="4.516113">
        <ele>5.09047</ele>
        <time>2021-07-01T10:05:24Z</time>
      </trkpt>
      <trkpt lat="43.712006" lon="4.515760">
        <ele>5.25234</ele>
        <time>2021-07-01T10:05:25Z</time>
      </trkpt>
      <trkpt lat="43.712227" lon="4.515429">
        <ele>5.42495</ele>
        <time>2021-07-01T10:05:26Z</time>
      </trkpt>
      <trkpt lat="43.712444" lon="4.515106">
        <ele>5.43319</ele>
        <time>2021-07-01T10:05:27Z</time>
      </trkpt>
      <trkpt lat="43.712669" lon="4.514799">
        <ele>5.32064</ele>
        <time>2021-07-01T10:05:28Z</time>
      </trkpt>
      <trkpt lat="43.712906" lon="4.514483">
        <ele>5.13442</ele>
        <time>2021-07-01T10:05:29Z</time>
      </trkpt>
      <trkpt lat="43.713142" lon="4.514191">
        <ele>5.07131</ele>
        <time>2021-07-01T10:05:30Z</time>
      </trkpt>
      <trkpt lat="43.713398" lon="4.513899">
        <ele>5.00570</ele>
        <time>2021-07-01T10:05:31Z</time>
      </trkpt>
      <trkpt lat="43.713650" lon="4.513615">
        <ele>5.21425</ele>
        <time>2021-07-01T10:05:32Z</time>
      </trkpt>
      <trkpt lat="43.713879" lon="4.513355">
        <ele>5.20955</ele>
        <time>2021-07-01T10:05:33Z</time>
      </trkpt>
      <trkpt lat="43.714127" lon="4.513107">
        <ele>5.25441</ele>
        <time>2021-07-01T10:05:34Z</time>
      </trkpt>
      <trkpt lat="43.714382" lon="4.512860">
        <ele>5.23690</ele>
        <time>2021-07-01T10:05:35Z</time>
      </trkpt>
      <trkpt lat="43.714649" lon="4.512618">
        <ele>5.02016</ele>
        <time>2021-07-01T10:05:36Z</time>
      </trkpt>
      <trkpt lat="43.714916" lon="4.512392">
        <ele>5.25100</ele>
        <time>2021-07-01T10:05:37Z</time>
      </trkpt>
      <trkpt lat="43.715168" lon="4.512194">
        <ele>5.14974</ele>
        <time>2021-07-01T10:05:38Z</time>
      </trkpt>
      <trkpt lat="43.715435" lon="4.511982">
        <ele>5.11141</ele>
        <time>2021-07-01T10:05:39Z</time>
      </trkpt>
      <trkpt lat="43.715706" lon="4.511773">
        <ele>5.36464</ele>
        <time>2021-07-01T10:05:40Z</time>
      </trkpt>
      <trkpt lat="43.715996" lon="4.511570">
        <ele>5.39565</ele>
        <time>2021-07-01T10:05:41Z</time>
      </trkpt>
      <trkpt lat="43.716293" lon="4.511374">
        <ele>4.43325</ele>
        <time>2021-07-01T10:05:42Z</time>
      </trkpt>
      <trkpt lat="43.716572" lon="4.511194">
        <ele>4.37557</ele>
        <time>2021-07-01T10:05:43Z</time>
      </trkpt>
      <trkpt lat="43.716572" lon="4.511194">
        <ele>4.32930</ele>
        <time>2021-07-01T10:05:44Z</time>
      </trkpt>
      <trkpt lat="43.717152" lon="4.510823">
        <ele>4.06758</ele>
        <time>2021-07-01T10:05:45Z</time>
      </trkpt>
      <trkpt lat="43.717152" lon="4.510823">
        <ele>4.18349</ele>
        <time>2021-07-01T10:05:46Z</time>
      </trkpt>
      <trkpt lat="43.717434" lon="4.510648">
        <ele>4.30556</ele>
        <time>2021-07-01T10:05:47Z</time>
      </trkpt>
      <trkpt lat="43.717690" lon="4.510490">
        <ele>4.16915</ele>
        <time>2021-07-01T10:05:48Z</time>
      </trkpt>
      <trkpt lat="43.717945" lon="4.510331">
        <ele>3.98549</ele>
        <time>2021-07-01T10:05:49Z</time>
      </trkpt>
      <trkpt lat="43.718216" lon="4.510164">
        <ele>4.32277</ele>
        <time>2021-07-01T10:05:50Z</time>
      </trkpt>
      <trkpt lat="43.718472" lon="4.510007">
        <ele>3.99422</ele>
        <time>2021-07-01T10:05:51Z</time>
      </trkpt>
      <trkpt lat="43.718731" lon="4.509840">
        <ele>3.87325</ele>
        <time>2021-07-01T10:05:52Z</time>
      </trkpt>
      <trkpt lat="43.718971" lon="4.509684">
        <ele>4.01509</ele>
        <time>2021-07-01T10:05:53Z</time>
      </trkpt>
      <trkpt lat="43.719200" lon="4.509537">
        <ele>3.69204</ele>
        <time>2021-07-01T10:05:54Z</time>
      </trkpt>
      <trkpt lat="43.719448" lon="4.509369">
        <ele>3.80971</ele>
        <time>2021-07-01T10:05:55Z</time>
      </trkpt>
      <trkpt lat="43.719727" lon="4.509170">
        <ele>3.66866</ele>
        <time>2021-07-01T10:05:56Z</time>
      </trkpt>
      <trkpt lat="43.720005" lon="4.508964">
        <ele>3.84041</ele>
        <time>2021-07-01T10:05:57Z</time>
      </trkpt>
      <trkpt lat="43.720280" lon="4.508759">
        <ele>3.97976</ele>
        <time>2021-07-01T10:05:58Z</time>
      </trkpt>
      <trkpt lat="43.720585" lon="4.508524">
        <ele>4.15413</ele>
        <time>2021-07-01T10:05:59Z</time>
      </trkpt>
      <trkpt lat="43.720886" lon="4.508270">
        <ele>4.43044</ele>
        <time>2021-07-01T10:06:00Z</time>
      </trkpt>
      <trkpt lat="43.721169" lon="4.508033">
        <ele>5.07216</ele>
        <time>2021-07-01T10:06:01Z</time>
      </trkpt>
      <trkpt lat="43.721458" lon="4.507777">
        <ele>4.84383</ele>
        <time>2021-07-01T10:06:02Z</time>
      </trkpt>
      <trkpt lat="43.721741" lon="4.507520">
        <ele>5.26644</ele>
        <time>2021-07-01T10:06:03Z</time>
      </trkpt>
      <trkpt lat="43.722031" lon="4.507237">
        <ele>5.73775</ele>
        <time>2021-07-01T10:06:04Z</time>
      </trkpt>
      <trkpt lat="43.722301" lon="4.506975">
        <ele>6.01442</ele>
        <time>2021-07-01T10:06:05Z</time>
      </trkpt>
      <trkpt lat="43.722603" lon="4.506662">
        <ele>5.64974</ele>
        <time>2021-07-01T10:06:06Z</time>
      </trkpt>
      <trkpt lat="43.722874" lon="4.506379">
        <ele>6.27047</ele>
        <time>2021-07-01T10:06:07Z</time>
      </trkpt>
      <trkpt lat="43.723129" lon="4.506098">
        <ele>6.92012</ele>
        <time>2021-07-01T10:06:08Z</time>
      </trkpt>
      <trkpt lat="43.723389" lon="4.505803">
        <ele>6.95967</ele>
        <time>2021-07-01T10:06:09Z</time>
      </trkpt>
      <trkpt lat="43.723648" lon="4.505511">
        <ele>7.15841</ele>
        <time>2021-07-01T10:06:10Z</time>
      </trkpt>
      <trkpt lat="43.723900" lon="4.505214">
        <ele>7.46706</ele>
        <time>2021-07-01T10:06:11Z</time>
      </trkpt>
      <trkpt lat="43.723900" lon="4.505214">
        <ele>7.82924</ele>
        <time>2021-07-01T10:06:12Z</time>
      </trkpt>
      <trkpt lat="43.724163" lon="4.504900">
        <ele>8.14376</ele>
        <time>2021-07-01T10:06:13Z</time>
      </trkpt>
      <trkpt lat="43.724400" lon="4.504618">
        <ele>8.12307</ele>
        <time>2021-07-01T10:06:14Z</time>
      </trkpt>
      <trkpt lat="43.724648" lon="4.504322">
        <ele>8.30971</ele>
        <time>2021-07-01T10:06:15Z</time>
      </trkpt>
      <trkpt lat="43.724899" lon="4.504022">
        <ele>8.52919</ele>
        <time>2021-07-01T10:06:16Z</time>
      </trkpt>
      <trkpt lat="43.725174" lon="4.503688">
        <ele>8.59395</ele>
        <time>2021-07-01T10:06:17Z</time>
      </trkpt>
      <trkpt lat="43.725430" lon="4.503380">
        <ele>8.94106</ele>
        <time>2021-07-01T10:06:18Z</time>
      </trkpt>
      <trkpt lat="43.725677" lon="4.503084">
        <ele>8.55452</ele>
        <time>2021-07-01T10:06:19Z</time>
      </trkpt>
      <trkpt lat="43.725960" lon="4.502749">
        <ele>8.69136</ele>
        <time>2021-07-01T10:06:20Z</time>
      </trkpt>
      <trkpt lat="43.726231" lon="4.502417">
        <ele>8.62526</ele>
        <time>2021-07-01T10:06:21Z</time>
      </trkpt>
      <trkpt lat="43.726486" lon="4.502107">
        <ele>8.22780</ele>
        <time>2021-07-01T10:06:22Z</time>
      </trkpt>
      <trkpt lat="43.726730" lon="4.501810">
        <ele>8.53145</ele>
        <time>2021-07-01T10:06:23Z</time>
      </trkpt>
      <trkpt lat="43.726974" lon="4.501513">
        <ele>8.32418</ele>
        <time>2021-07-01T10:06:24Z</time>
      </trkpt>
      <trkpt lat="43.727219" lon="4.501199">
        <ele>8.28212</ele>
        <time>2021-07-01T10:06:25Z</time>
      </trkpt>
      <trkpt lat="43.727440" lon="4.500911">
        <ele>7.94893</ele>
        <time>2021-07-01T10:06:26Z</time>
      </trkpt>
      <trkpt lat="43.727646" lon="4.500625">
        <ele>7.99196</ele>
        <time>2021-07-01T10:06:27Z</time>
      </trkpt>
      <trkpt lat="43.727837" lon="4.500347">
        <ele>7.45790</ele>
        <time>2021-07-01T10:06:28Z</time>
      </trkpt>
      <trkpt lat="43.728035" lon="4.500057">
        <ele>7.06466</ele>
        <time>2021-07-01T10:06:29Z</time>
      </trkpt>
      <trkpt lat="43.728214" lon="4.499756">
        <ele>7.17556</ele>
        <time>2021-07-01T10:06:30Z</time>
      </trkpt>
      <trkpt lat="43.728382" lon="4.499471">
        <ele>6.92373</ele>
        <time>2021-07-01T10:06:31Z</time>
      </trkpt>
      <trkpt lat="43.728523" lon="4.499199">
        <ele>6.66854</ele>
        <time>2021-07-01T10:06:32Z</time>
      </trkpt>
      <trkpt lat="43.728664" lon="4.498921">
        <ele>6.17855</ele>
        <time>2021-07-01T10:06:33Z</time>
      </trkpt>
      <trkpt lat="43.728806" lon="4.498651">
        <ele>6.01351</ele>
        <time>2021-07-01T10:06:34Z</time>
      </trkpt>
      <trkpt lat="43.728935" lon="4.498360">
        <ele>6.12618</ele>
        <time>2021-07-01T10:06:35Z</time>
      </trkpt>
      <trkpt lat="43.729065" lon="4.498055">
        <ele>5.52767</ele>
        <time>2021-07-01T10:06:36Z</time>
      </trkpt>
      <trkpt lat="43.729176" lon="4.497774">
        <ele>5.01837</ele>
        <time>2021-07-01T10:06:37Z</time>
      </trkpt>
      <trkpt lat="43.729271" lon="4.497527">
        <ele>5.07104</ele>
        <time>2021-07-01T10:06:38Z</time>
      </trkpt>
      <trkpt lat="43.729374" lon="4.497247">
        <ele>4.63885</ele>
        <time>2021-07-01T10:06:39Z</time>
      </trkpt>
      <trkpt lat="43.729465" lon="4.496986">
        <ele>4.27343</ele>
        <time>2021-07-01T10:06:40Z</time>
      </trkpt>
      <trkpt lat="43.729553" lon="4.496736">
        <ele>3.98114</ele>
        <time>2021-07-01T10:06:41Z</time>
      </trkpt>
      <trkpt lat="43.729641" lon="4.496431">
        <ele>3.63031</ele>
        <time>2021-07-01T10:06:42Z</time>
      </trkpt>
      <trkpt lat="43.729725" lon="4.496120">
        <ele>3.33014</ele>
        <time>2021-07-01T10:06:43Z</time>
      </trkpt>
      <trkpt lat="43.729816" lon="4.495790">
        <ele>3.01794</ele>
        <time>2021-07-01T10:06:44Z</time>
      </trkpt>
      <trkpt lat="43.729881" lon="4.495481">
        <ele>2.71881</ele>
        <time>2021-07-01T10:06:45Z</time>
      </trkpt>
      <trkpt lat="43.729946" lon="4.495163">
        <ele>2.71014</ele>
        <time>2021-07-01T10:06:46Z</time>
      </trkpt>
      <trkpt lat="43.729946" lon="4.495163">
        <ele>2.78888</ele>
        <time>2021-07-01T10:06:47Z</time>
      </trkpt>
      <trkpt lat="43.730007" lon="4.494848">
        <ele>2.35736</ele>
        <time>2021-07-01T10:06:48Z</time>
      </trkpt>
      <trkpt lat="43.730064" lon="4.494531">
        <ele>2.08349</ele>
        <time>2021-07-01T10:06:49Z</time>
      </trkpt>
      <trkpt lat="43.730114" lon="4.494202">
        <ele>2.16125</ele>
        <time>2021-07-01T10:06:50Z</time>
      </trkpt>
      <trkpt lat="43.730152" lon="4.493860">
        <ele>1.92077</ele>
        <time>2021-07-01T10:06:51Z</time>
      </trkpt>
      <trkpt lat="43.730186" lon="4.493533">
        <ele>1.47918</ele>
        <time>2021-07-01T10:06:52Z</time>
      </trkpt>
      <trkpt lat="43.730221" lon="4.493232">
        <ele>1.24237</ele>
        <time>2021-07-01T10:06:53Z</time>
      </trkpt>
      <trkpt lat="43.730247" lon="4.492924">
        <ele>0.74566</ele>
        <time>2021-07-01T10:06:54Z</time>
      </trkpt>
      <trkpt lat="43.730270" lon="4.492582">
        <ele>0.50140</ele>
        <time>2021-07-01T10:06:55Z</time>
      </trkpt>
      <trkpt lat="43.730293" lon="4.492234">
        <ele>0.15203</ele>
        <time>2021-07-01T10:06:56Z</time>
      </trkpt>
      <trkpt lat="43.730316" lon="4.491906">
        <ele>0.19720</ele>
        <time>2021-07-01T10:06:57Z</time>
      </trkpt>
      <trkpt lat="43.730335" lon="4.491563">
        <ele>0.00207</ele>
        <time>2021-07-01T10:06:58Z</time>
      </trkpt>
      <trkpt lat="43.730350" lon="4.491209">
        <ele>-0.06049</ele>
        <time>2021-07-01T10:06:59Z</time>
      </trkpt>
      <trkpt lat="43.730362" lon="4.490877">
        <ele>-0.39728</ele>
        <time>2021-07-01T10:07:00Z</time>
      </trkpt>
      <trkpt lat="43.730373" lon="4.490553">
        <ele>-0.95398</ele>
        <time>2021-07-01T10:07:01Z</time>
      </trkpt>
      <trkpt lat="43.730385" lon="4.490255">
        <ele>-0.63147</ele>
        <time>2021-07-01T10:07:02Z</time>
      </trkpt>
      <trkpt lat="43.730400" lon="4.489920">
        <ele>-0.32392</ele>
        <time>2021-07-01T10:07:03Z</time>
      </trkpt>
      <trkpt lat="43.730412" lon="4.489597">
        <ele>-0.49579</ele>
        <time>2021-07-01T10:07:04Z</time>
      </trkpt>
      <trkpt lat="43.730427" lon="4.489264">
        <ele>-0.66101</ele>
        <time>2021-07-01T10:07:05Z</time>
      </trkpt>
      <trkpt lat="43.730438" lon="4.488919">
        <ele>-0.52314</ele>
        <time>2021-07-01T10:07:06Z</time>
      </trkpt>
      <trkpt lat="43.730453" lon="4.488590">
        <ele>-0.55457</ele>
        <time>2021-07-01T10:07:07Z</time>
      </trkpt>
      <trkpt lat="43.730465" lon="4.488268">
        <ele>-0.26899</ele>
        <time>2021-07-01T10:07:08Z</time>
      </trkpt>
      <trkpt lat="43.730488" lon="4.487889">
        <ele>-0.33033</ele>
        <time>2021-07-01T10:07:09Z</time>
      </trkpt>
      <trkpt lat="43.730515" lon="4.487537">
        <ele>-0.33771</ele>
        <time>2021-07-01T10:07:10Z</time>
      </trkpt>
      <trkpt lat="43.730537" lon="4.487166">
        <ele>0.03527</ele>
        <time>2021-07-01T10:07:11Z</time>
      </trkpt>
      <trkpt lat="43.730564" lon="4.486802">
        <ele>0.52838</ele>
        <time>2021-07-01T10:07:12Z</time>
      </trkpt>
      <trkpt lat="43.730587" lon="4.486385">
        <ele>0.66632</ele>
        <time>2021-07-01T10:07:13Z</time>
      </trkpt>
      <trkpt lat="43.730610" lon="4.485975">
        <ele>0.87469</ele>
        <time>2021-07-01T10:07:14Z</time>
      </trkpt>
      <trkpt lat="43.730644" lon="4.485564">
        <ele>1.27545</ele>
        <time>2021-07-01T10:07:15Z</time>
      </trkpt>
      <trkpt lat="43.730679" lon="4.485115">
        <ele>1.45715</ele>
        <time>2021-07-01T10:07:16Z</time>
      </trkpt>
      <trkpt lat="43.730679" lon="4.485115">
        <ele>1.70337</ele>
        <time>2021-07-01T10:07:17Z</time>
      </trkpt>
      <trkpt lat="43.730713" lon="4.484722">
        <ele>1.98901</ele>
        <time>2021-07-01T10:07:18Z</time>
      </trkpt>
      <trkpt lat="43.730747" lon="4.484339">
        <ele>1.90350</ele>
        <time>2021-07-01T10:07:19Z</time>
      </trkpt>
      <trkpt lat="43.730789" lon="4.483920">
        <ele>2.44799</ele>
        <time>2021-07-01T10:07:20Z</time>
      </trkpt>
      <trkpt lat="43.730831" lon="4.483504">
        <ele>2.47027</ele>
        <time>2021-07-01T10:07:21Z</time>
      </trkpt>
      <trkpt lat="43.730888" lon="4.483041">
        <ele>2.58703</ele>
        <time>2021-07-01T10:07:22Z</time>
      </trkpt>
      <trkpt lat="43.730938" lon="4.482564">
        <ele>2.63873</ele>
        <time>2021-07-01T10:07:23Z</time>
      </trkpt>
      <trkpt lat="43.731003" lon="4.482087">
        <ele>3.08746</ele>
        <time>2021-07-01T10:07:24Z</time>
      </trkpt>
      <trkpt lat="43.731064" lon="4.481646">
        <ele>3.65557</ele>
        <time>2021-07-01T10:07:25Z</time>
      </trkpt>
      <trkpt lat="43.731133" lon="4.481174">
        <ele>3.94812</ele>
        <time>2021-07-01T10:07:26Z</time>
      </trkpt>
      <trkpt lat="43.731209" lon="4.480697">
        <ele>4.27752</ele>
        <time>2021-07-01T10:07:27Z</time>
      </trkpt>
      <trkpt lat="43.731281" lon="4.480212">
        <ele>4.54101</ele>
        <time>2021-07-01T10:07:28Z</time>
      </trkpt>
      <trkpt lat="43.731354" lon="4.479738">
        <ele>4.72772</ele>
        <time>2021-07-01T10:07:29Z</time>
      </trkpt>
      <trkpt lat="43.731438" lon="4.479262">
        <ele>4.87884</ele>
        <time>2021-07-01T10:07:30Z</time>
      </trkpt>
      <trkpt lat="43.731522" lon="4.478767">
        <ele>5.05078</ele>
        <time>2021-07-01T10:07:31Z</time>
      </trkpt>
      <trkpt lat="43.731602" lon="4.478289">
        <ele>5.53180</ele>
        <time>2021-07-01T10:07:32Z</time>
      </trkpt>
      <trkpt lat="43.731682" lon="4.477839">
        <ele>5.64502</ele>
        <time>2021-07-01T10:07:33Z</time>
      </trkpt>
      <trkpt lat="43.731758" lon="4.477380">
        <ele>5.23205</ele>
        <time>2021-07-01T10:07:34Z</time>
      </trkpt>
      <trkpt lat="43.731838" lon="4.476925">
        <ele>5.44165</ele>
        <time>2021-07-01T10:07:35Z</time>
      </trkpt>
      <trkpt lat="43.731930" lon="4.476451">
        <ele>5.31170</ele>
        <time>2021-07-01T10:07:36Z</time>
      </trkpt>
      <trkpt lat="43.732014" lon="4.475965">
        <ele>5.61486</ele>
        <time>2021-07-01T10:07:37Z</time>
      </trkpt>
      <trkpt lat="43.732094" lon="4.475475">
        <ele>5.95410</ele>
        <time>2021-07-01T10:07:38Z</time>
      </trkpt>
      <trkpt lat="43.732174" lon="4.475024">
        <ele>6.11590</ele>
        <time>2021-07-01T10:07:39Z</time>
      </trkpt>
      <trkpt lat="43.732265" lon="4.474517">
        <ele>6.22161</ele>
        <time>2021-07-01T10:07:40Z</time>
      </trkpt>
      <trkpt lat="43.732349" lon="4.474031">
        <ele>6.73834</ele>
        <time>2021-07-01T10:07:41Z</time>
      </trkpt>
      <trkpt lat="43.732433" lon="4.473575">
        <ele>6.99304</ele>
        <time>2021-07-01T10:07:42Z</time>
      </trkpt>
      <trkpt lat="43.732525" lon="4.473072">
        <ele>7.28228</ele>
        <time>2021-07-01T10:07:43Z</time>
      </trkpt>
      <trkpt lat="43.732525" lon="4.473072">
        <ele>7.20013</ele>
        <time>2021-07-01T10:07:44Z</time>
      </trkpt>
      <trkpt lat="43.732719" lon="4.472174">
        <ele>7.19036</ele>
        <time>2021-07-01T10:07:45Z</time>
      </trkpt>
      <trkpt lat="43.732719" lon="4.472174">
        <ele>7.23577</ele>
        <time>2021-07-01T10:07:46Z</time>
      </trkpt>
      <trkpt lat="43.732830" lon="4.471681">
        <ele>7.48870</ele>
        <time>2021-07-01T10:07:47Z</time>
      </trkpt>
      <trkpt lat="43.732941" lon="4.471209">
        <ele>7.47052</ele>
        <time>2021-07-01T10:07:48Z</time>
      </trkpt>
      <trkpt lat="43.733055" lon="4.470761">
        <ele>7.63250</ele>
        <time>2021-07-01T10:07:49Z</time>
      </trkpt>
      <trkpt lat="43.733192" lon="4.470289">
        <ele>8.13977</ele>
        <time>2021-07-01T10:07:50Z</time>
      </trkpt>
      <trkpt lat="43.733315" lon="4.469855">
        <ele>8.25817</ele>
        <time>2021-07-01T10:07:51Z</time>
      </trkpt>
      <trkpt lat="43.733467" lon="4.469382">
        <ele>9.11218</ele>
        <time>2021-07-01T10:07:52Z</time>
      </trkpt>
      <trkpt lat="43.733601" lon="4.468971">
        <ele>9.95422</ele>
        <time>2021-07-01T10:07:53Z</time>
      </trkpt>
      <trkpt lat="43.733765" lon="4.468519">
        <ele>10.89605</ele>
        <time>2021-07-01T10:07:54Z</time>
      </trkpt>
      <trkpt lat="43.733932" lon="4.468096">
        <ele>12.04675</ele>
        <time>2021-07-01T10:07:55Z</time>
      </trkpt>
      <trkpt lat="43.734112" lon="4.467652">
        <ele>13.34564</ele>
        <time>2021-07-01T10:07:56Z</time>
      </trkpt>
      <trkpt lat="43.734295" lon="4.467225">
        <ele>14.26446</ele>
        <time>2021-07-01T10:07:57Z</time>
      </trkpt>
      <trkpt lat="43.734455" lon="4.466837">
        <ele>15.13354</ele>
        <time>2021-07-01T10:07:58Z</time>
      </trkpt>
      <trkpt lat="43.734642" lon="4.466421">
        <ele>16.37127</ele>
        <time>2021-07-01T10:07:59Z</time>
      </trkpt>
      <trkpt lat="43.734856" lon="4.465981">
        <ele>17.14300</ele>
        <time>2021-07-01T10:08:00Z</time>
      </trkpt>
      <trkpt lat="43.735062" lon="4.465595">
        <ele>18.60443</ele>
        <time>2021-07-01T10:08:01Z</time>
      </trkpt>
      <trkpt lat="43.735271" lon="4.465192">
        <ele>20.13409</ele>
        <time>2021-07-01T10:08:02Z</time>
      </trkpt>
      <trkpt lat="43.735493" lon="4.464805">
        <ele>21.60284</ele>
        <time>2021-07-01T10:08:03Z</time>
      </trkpt>
      <trkpt lat="43.735737" lon="4.464393">
        <ele>23.19555</ele>
        <time>2021-07-01T10:08:04Z</time>
      </trkpt>
      <trkpt lat="43.735947" lon="4.464038">
        <ele>25.28485</ele>
        <time>2021-07-01T10:08:05Z</time>
      </trkpt>
      <trkpt lat="43.736183" lon="4.463640">
        <ele>27.21405</ele>
        <time>2021-07-01T10:08:06Z</time>
      </trkpt>
      <trkpt lat="43.736420" lon="4.463272">
        <ele>29.03363</ele>
        <time>2021-07-01T10:08:07Z</time>
      </trkpt>
      <trkpt lat="43.736664" lon="4.462896">
        <ele>30.79065</ele>
        <time>2021-07-01T10:08:08Z</time>
      </trkpt>
      <trkpt lat="43.736881" lon="4.462549">
        <ele>32.62518</ele>
        <time>2021-07-01T10:08:09Z</time>
      </trkpt>
      <trkpt lat="43.737118" lon="4.462181">
        <ele>34.34887</ele>
        <time>2021-07-01T10:08:10Z</time>
      </trkpt>
      <trkpt lat="43.737370" lon="4.461792">
        <ele>36.41729</ele>
        <time>2021-07-01T10:08:11Z</time>
      </trkpt>
      <trkpt lat="43.737370" lon="4.461792">
        <ele>38.12249</ele>
        <time>2021-07-01T10:08:12Z</time>
      </trkpt>
      <trkpt lat="43.737595" lon="4.461435">
        <ele>40.01800</ele>
        <time>2021-07-01T10:08:13Z</time>
      </trkpt>
      <trkpt lat="43.737843" lon="4.461051">
        <ele>41.69201</ele>
        <time>2021-07-01T10:08:14Z</time>
      </trkpt>
      <trkpt lat="43.738071" lon="4.460676">
        <ele>43.41864</ele>
        <time>2021-07-01T10:08:15Z</time>
      </trkpt>
      <trkpt lat="43.738281" lon="4.460318">
        <ele>45.07830</ele>
        <time>2021-07-01T10:08:16Z</time>
      </trkpt>
      <trkpt lat="43.738503" lon="4.459922">
        <ele>46.75439</ele>
        <time>2021-07-01T10:08:17Z</time>
      </trkpt>
      <trkpt lat="43.738708" lon="4.459521">
        <ele>48.56054</ele>
        <time>2021-07-01T10:08:18Z</time>
      </trkpt>
      <trkpt lat="43.738926" lon="4.459101">
        <ele>50.47680</ele>
        <time>2021-07-01T10:08:19Z</time>
      </trkpt>
      <trkpt lat="43.739113" lon="4.458711">
        <ele>51.57873</ele>
        <time>2021-07-01T10:08:20Z</time>
      </trkpt>
      <trkpt lat="43.739300" lon="4.458316">
        <ele>52.84747</ele>
        <time>2021-07-01T10:08:21Z</time>
      </trkpt>
      <trkpt lat="43.739498" lon="4.457889">
        <ele>54.11145</ele>
        <time>2021-07-01T10:08:22Z</time>
      </trkpt>
      <trkpt lat="43.739670" lon="4.457471">
        <ele>55.59784</ele>
        <time>2021-07-01T10:08:23Z</time>
      </trkpt>
      <trkpt lat="43.739845" lon="4.457035">
        <ele>56.56781</ele>
        <time>2021-07-01T10:08:24Z</time>
      </trkpt>
      <trkpt lat="43.740013" lon="4.456599">
        <ele>57.93139</ele>
        <time>2021-07-01T10:08:25Z</time>
      </trkpt>
      <trkpt lat="43.740166" lon="4.456155">
        <ele>59.01391</ele>
        <time>2021-07-01T10:08:26Z</time>
      </trkpt>
      <trkpt lat="43.740307" lon="4.455730">
        <ele>60.18524</ele>
        <time>2021-07-01T10:08:27Z</time>
      </trkpt>
      <trkpt lat="43.740448" lon="4.455296">
        <ele>61.10449</ele>
        <time>2021-07-01T10:08:28Z</time>
      </trkpt>
      <trkpt lat="43.740582" lon="4.454867">
        <ele>61.56445</ele>
        <time>2021-07-01T10:08:29Z</time>
      </trkpt>
      <trkpt lat="43.740711" lon="4.454432">
        <ele>62.14984</ele>
        <time>2021-07-01T10:08:30Z</time>
      </trkpt>
      <trkpt lat="43.740826" lon="4.453995">
        <ele>63.23620</ele>
        <time>2021-07-01T10:08:31Z</time>
      </trkpt>
      <trkpt lat="43.740929" lon="4.453590">
        <ele>63.85302</ele>
        <time>2021-07-01T10:08:32Z</time>
      </trkpt>
      <trkpt lat="43.741035" lon="4.453163">
        <ele>63.65734</ele>
        <time>2021-07-01T10:08:33Z</time>
      </trkpt>
      <trkpt lat="43.741135" lon="4.452724">
        <ele>63.99054</ele>
        <time>2021-07-01T10:08:34Z</time>
      </trkpt>
      <trkpt lat="43.741219" lon="4.452347">
        <ele>64.20795</ele>
        <time>2021-07-01T10:08:35Z</time>
      </trkpt>
      <trkpt lat="43.741287" lon="4.451999">
        <ele>64.46466</ele>
        <time>2021-07-01T10:08:36Z</time>
      </trkpt>
      <trkpt lat="43.741360" lon="4.451665">
        <ele>64.74426</ele>
        <time>2021-07-01T10:08:37Z</time>
      </trkpt>
      <trkpt lat="43.741432" lon="4.451314">
        <ele>65.13794</ele>
        <time>2021-07-01T10:08:38Z</time>
      </trkpt>
      <trkpt lat="43.741508" lon="4.450945">
        <ele>65.10162</ele>
        <time>2021-07-01T10:08:39Z</time>
      </trkpt>
      <trkpt lat="43.741577" lon="4.450598">
        <ele>65.08850</ele>
        <time>2021-07-01T10:08:40Z</time>
      </trkpt>
      <trkpt lat="43.741650" lon="4.450248">
        <ele>65.13873</ele>
        <time>2021-07-01T10:08:41Z</time>
      </trkpt>
      <trkpt lat="43.741718" lon="4.449909">
        <ele>65.48969</ele>
        <time>2021-07-01T10:08:42Z</time>
      </trkpt>
      <trkpt lat="43.741783" lon="4.449573">
        <ele>65.52728</ele>
        <time>2021-07-01T10:08:43Z</time>
      </trkpt>
      <trkpt lat="43.741783" lon="4.449573">
        <ele>65.82312</ele>
        <time>2021-07-01T10:08:44Z</time>
      </trkpt>
      <trkpt lat="43.741863" lon="4.449181">
        <ele>65.87091</ele>
        <time>2021-07-01T10:08:45Z</time>
      </trkpt>
      <trkpt lat="43.741947" lon="4.448782">
        <ele>65.77722</ele>
        <time>2021-07-01T10:08:46Z</time>
      </trkpt>
      <trkpt lat="43.742039" lon="4.448397">
        <ele>65.77478</ele>
        <time>2021-07-01T10:08:47Z</time>
      </trkpt>
      <trkpt lat="43.742138" lon="4.447976">
        <ele>65.98999</ele>
        <time>2021-07-01T10:08:48Z</time>
      </trkpt>
      <trkpt lat="43.742256" lon="4.447488">
        <ele>66.25623</ele>
        <time>2021-07-01T10:08:49Z</time>
      </trkpt>
      <trkpt lat="43.742374" lon="4.447022">
        <ele>66.66254</ele>
        <time>2021-07-01T10:08:50Z</time>
      </trkpt>
      <trkpt lat="43.742493" lon="4.446573">
        <ele>66.53479</ele>
        <time>2021-07-01T10:08:51Z</time>
      </trkpt>
      <trkpt lat="43.742619" lon="4.446120">
        <ele>66.54688</ele>
        <time>2021-07-01T10:08:52Z</time>
      </trkpt>
      <trkpt lat="43.742764" lon="4.445639">
        <ele>66.70642</ele>
        <time>2021-07-01T10:08:53Z</time>
      </trkpt>
      <trkpt lat="43.742916" lon="4.445165">
        <ele>66.79266</ele>
        <time>2021-07-01T10:08:54Z</time>
      </trkpt>
      <trkpt lat="43.743057" lon="4.444723">
        <ele>67.07611</ele>
        <time>2021-07-01T10:08:55Z</time>
      </trkpt>
      <trkpt lat="43.743217" lon="4.444269">
        <ele>67.25006</ele>
        <time>2021-07-01T10:08:56Z</time>
      </trkpt>
      <trkpt lat="43.743382" lon="4.443841">
        <ele>67.71210</ele>
        <time>2021-07-01T10:08:57Z</time>
      </trkpt>
      <trkpt lat="43.743538" lon="4.443417">
        <ele>68.00885</ele>
        <time>2021-07-01T10:08:58Z</time>
      </trkpt>
      <trkpt lat="43.743702" lon="4.442992">
        <ele>68.09705</ele>
        <time>2021-07-01T10:08:59Z</time>
      </trkpt>
      <trkpt lat="43.743874" lon="4.442571">
        <ele>68.13818</ele>
        <time>2021-07-01T10:09:00Z</time>
      </trkpt>
      <trkpt lat="43.744057" lon="4.442154">
        <ele>68.10730</ele>
        <time>2021-07-01T10:09:01Z</time>
      </trkpt>
      <trkpt lat="43.744251" lon="4.441725">
        <ele>68.53766</ele>
        <time>2021-07-01T10:09:02Z</time>
      </trkpt>
      <trkpt lat="43.744438" lon="4.441337">
        <ele>68.54376</ele>
        <time>2021-07-01T10:09:03Z</time>
      </trkpt>
      <trkpt lat="43.744640" lon="4.440921">
        <ele>69.00555</ele>
        <time>2021-07-01T10:09:04Z</time>
      </trkpt>
      <trkpt lat="43.744850" lon="4.440507">
        <ele>68.88507</ele>
        <time>2021-07-01T10:09:05Z</time>
      </trkpt>
      <trkpt lat="43.745049" lon="4.440120">
        <ele>69.21100</ele>
        <time>2021-07-01T10:09:06Z</time>
      </trkpt>
      <trkpt lat="43.745251" lon="4.439717">
        <ele>69.22925</ele>
        <time>2021-07-01T10:09:07Z</time>
      </trkpt>
      <trkpt lat="43.745468" lon="4.439326">
        <ele>69.04767</ele>
        <time>2021-07-01T10:09:08Z</time>
      </trkpt>
      <trkpt lat="43.745689" lon="4.438934">
        <ele>68.97931</ele>
        <time>2021-07-01T10:09:09Z</time>
      </trkpt>
      <trkpt lat="43.745926" lon="4.438543">
        <ele>68.91815</ele>
        <time>2021-07-01T10:09:10Z</time>
      </trkpt>
      <trkpt lat="43.746170" lon="4.438173">
        <ele>69.21594</ele>
        <time>2021-07-01T10:09:11Z</time>
      </trkpt>
      <trkpt lat="43.746410" lon="4.437799">
        <ele>69.71313</ele>
        <time>2021-07-01T10:09:12Z</time>
      </trkpt>
      <trkpt lat="43.746655" lon="4.437427">
        <ele>69.62720</ele>
        <time>2021-07-01T10:09:13Z</time>
      </trkpt>
      <trkpt lat="43.746895" lon="4.437082">
        <ele>69.85956</ele>
        <time>2021-07-01T10:09:14Z</time>
      </trkpt>
      <trkpt lat="43.747158" lon="4.436697">
        <ele>70.38232</ele>
        <time>2021-07-01T10:09:15Z</time>
      </trkpt>
      <trkpt lat="43.747158" lon="4.436697">
        <ele>70.74072</ele>
        <time>2021-07-01T10:09:16Z</time>
      </trkpt>
      <trkpt lat="43.747421" lon="4.436341">
        <ele>71.13025</ele>
        <time>2021-07-01T10:09:17Z</time>
      </trkpt>
      <trkpt lat="43.747681" lon="4.436000">
        <ele>71.35748</ele>
        <time>2021-07-01T10:09:18Z</time>
      </trkpt>
      <trkpt lat="43.747929" lon="4.435670">
        <ele>71.25098</ele>
        <time>2021-07-01T10:09:19Z</time>
      </trkpt>
      <trkpt lat="43.748192" lon="4.435340">
        <ele>71.79175</ele>
        <time>2021-07-01T10:09:20Z</time>
      </trkpt>
      <trkpt lat="43.748474" lon="4.434996">
        <ele>71.86853</ele>
        <time>2021-07-01T10:09:21Z</time>
      </trkpt>
      <trkpt lat="43.748749" lon="4.434663">
        <ele>72.16852</ele>
        <time>2021-07-01T10:09:22Z</time>
      </trkpt>
      <trkpt lat="43.749039" lon="4.434331">
        <ele>72.63263</ele>
        <time>2021-07-01T10:09:23Z</time>
      </trkpt>
      <trkpt lat="43.749310" lon="4.434030">
        <ele>72.74463</ele>
        <time>2021-07-01T10:09:24Z</time>
      </trkpt>
      <trkpt lat="43.749611" lon="4.433699">
        <ele>73.22003</ele>
        <time>2021-07-01T10:09:25Z</time>
      </trkpt>
      <trkpt lat="43.749912" lon="4.433383">
        <ele>73.32074</ele>
        <time>2021-07-01T10:09:26Z</time>
      </trkpt>
      <trkpt lat="43.750210" lon="4.433070">
        <ele>73.86267</ele>
        <time>2021-07-01T10:09:27Z</time>
      </trkpt>
      <trkpt lat="43.750492" lon="4.432788">
        <ele>73.64484</ele>
        <time>2021-07-01T10:09:28Z</time>
      </trkpt>
      <trkpt lat="43.750778" lon="4.432519">
        <ele>73.85107</ele>
        <time>2021-07-01T10:09:29Z</time>
      </trkpt>
      <trkpt lat="43.751083" lon="4.432253">
        <ele>74.03772</ele>
        <time>2021-07-01T10:09:30Z</time>
      </trkpt>
      <trkpt lat="43.751377" lon="4.431994">
        <ele>74.45587</ele>
        <time>2021-07-01T10:09:31Z</time>
      </trkpt>
      <trkpt lat="43.751659" lon="4.431748">
        <ele>74.70947</ele>
        <time>2021-07-01T10:09:32Z</time>
      </trkpt>
      <trkpt lat="43.751991" lon="4.431456">
        <ele>74.79291</ele>
        <time>2021-07-01T10:09:33Z</time>
      </trkpt>
      <trkpt lat="43.752296" lon="4.431207">
        <ele>75.31812</ele>
        <time>2021-07-01T10:09:34Z</time>
      </trkpt>
      <trkpt lat="43.752625" lon="4.430959">
        <ele>75.82843</ele>
        <time>2021-07-01T10:09:35Z</time>
      </trkpt>
      <trkpt lat="43.752922" lon="4.430739">
        <ele>75.73535</ele>
        <time>2021-07-01T10:09:36Z</time>
      </trkpt>
      <trkpt lat="43.753246" lon="4.430500">
        <ele>75.86761</ele>
        <time>2021-07-01T10:09:37Z</time>
      </trkpt>
      <trkpt lat="43.753563" lon="4.430266">
        <ele>75.96857</ele>
        <time>2021-07-01T10:09:38Z</time>
      </trkpt>
      <trkpt lat="43.753864" lon="4.430047">
        <ele>76.25836</ele>
        <time>2021-07-01T10:09:39Z</time>
      </trkpt>
      <trkpt lat="43.754169" lon="4.429832">
        <ele>76.34381</ele>
        <time>2021-07-01T10:09:40Z</time>
      </trkpt>
      <trkpt lat="43.754494" lon="4.429608">
        <ele>76.51965</ele>
        <time>2021-07-01T10:09:41Z</time>
      </trkpt>
      <trkpt lat="43.754807" lon="4.429388">
        <ele>76.91504</ele>
        <time>2021-07-01T10:09:42Z</time>
      </trkpt>
      <trkpt lat="43.755127" lon="4.429164">
        <ele>77.21252</ele>
        <time>2021-07-01T10:09:43Z</time>
      </trkpt>
      <trkpt lat="43.755127" lon="4.429164">
        <ele>77.65173</ele>
        <time>2021-07-01T10:09:44Z</time>
      </trkpt>
      <trkpt lat="43.755459" lon="4.428944">
        <ele>77.89728</ele>
        <time>2021-07-01T10:09:45Z</time>
      </trkpt>
      <trkpt lat="43.755798" lon="4.428706">
        <ele>78.48639</ele>
        <time>2021-07-01T10:09:46Z</time>
      </trkpt>
      <trkpt lat="43.756111" lon="4.428486">
        <ele>78.57153</ele>
        <time>2021-07-01T10:09:47Z</time>
      </trkpt>
      <trkpt lat="43.756435" lon="4.428275">
        <ele>79.04694</ele>
        <time>2021-07-01T10:09:48Z</time>
      </trkpt>
      <trkpt lat="43.756783" lon="4.428057">
        <ele>78.88678</ele>
        <time>2021-07-01T10:09:49Z</time>
      </trkpt>
      <trkpt lat="43.757095" lon="4.427856">
        <ele>78.57312</ele>
        <time>2021-07-01T10:09:50Z</time>
      </trkpt>
      <trkpt lat="43.757439" lon="4.427659">
        <ele>79.26154</ele>
        <time>2021-07-01T10:09:51Z</time>
      </trkpt>
      <trkpt lat="43.757771" lon="4.427460">
        <ele>79.96594</ele>
        <time>2021-07-01T10:09:52Z</time>
      </trkpt>
      <trkpt lat="43.758087" lon="4.427254">
        <ele>80.16681</ele>
        <time>2021-07-01T10:09:53Z</time>
      </trkpt>
      <trkpt lat="43.758411" lon="4.427042">
        <ele>80.41229</ele>
        <time>2021-07-01T10:09:54Z</time>
      </trkpt>
      <trkpt lat="43.758751" lon="4.426817">
        <ele>80.76465</ele>
        <time>2021-07-01T10:09:55Z</time>
      </trkpt>
      <trkpt lat="43.759075" lon="4.426598">
        <ele>81.10406</ele>
        <time>2021-07-01T10:09:56Z</time>
      </trkpt>
      <trkpt lat="43.759411" lon="4.426378">
        <ele>81.23370</ele>
        <time>2021-07-01T10:09:57Z</time>
      </trkpt>
      <trkpt lat="43.759727" lon="4.426175">
        <ele>81.66730</ele>
        <time>2021-07-01T10:09:58Z</time>
      </trkpt>
      <trkpt lat="43.760033" lon="4.425979">
        <ele>82.00391</ele>
        <time>2021-07-01T10:09:59Z</time>
      </trkpt>
      <trkpt lat="43.760345" lon="4.425777">
        <ele>82.29376</ele>
        <time>2021-07-01T10:10:00Z</time>
      </trkpt>
      <trkpt lat="43.760674" lon="4.425566">
        <ele>82.82190</ele>
        <time>2021-07-01T10:10:01Z</time>
      </trkpt>
      <trkpt lat="43.760986" lon="4.425352">
        <ele>82.85645</ele>
        <time>2021-07-01T10:10:02Z</time>
      </trkpt>
      <trkpt lat="43.761322" lon="4.425121">
        <ele>83.14838</ele>
        <time>2021-07-01T10:10:03Z</time>
      </trkpt>
      <trkpt lat="43.761642" lon="4.424889">
        <ele>83.48962</ele>
        <time>2021-07-01T10:10:04Z</time>
      </trkpt>
      <trkpt lat="43.761978" lon="4.424657">
        <ele>83.89386</ele>
        <time>2021-07-01T10:10:05Z</time>
      </trkpt>
      <trkpt lat="43.762302" lon="4.424438">
        <ele>84.25653</ele>
        <time>2021-07-01T10:10:06Z</time>
      </trkpt>
      <trkpt lat="43.762619" lon="4.424225">
        <ele>84.37805</ele>
        <time>2021-07-01T10:10:07Z</time>
      </trkpt>
      <trkpt lat="43.762981" lon="4.423992">
        <ele>84.58313</ele>
        <time>2021-07-01T10:10:08Z</time>
      </trkpt>
      <trkpt lat="43.763229" lon="4.423834">
        <ele>84.73657</ele>
        <time>2021-07-01T10:10:09Z</time>
      </trkpt>
      <trkpt lat="43.763573" lon="4.423614">
        <ele>84.94196</ele>
        <time>2021-07-01T10:10:10Z</time>
      </trkpt>
      <trkpt lat="43.763855" lon="4.423428">
        <ele>85.05743</ele>
        <time>2021-07-01T10:10:11Z</time>
      </trkpt>
      <trkpt lat="43.764153" lon="4.423230">
        <ele>85.09058</ele>
        <time>2021-07-01T10:10:12Z</time>
      </trkpt>
      <trkpt lat="43.764469" lon="4.423023">
        <ele>85.48755</ele>
        <time>2021-07-01T10:10:13Z</time>
      </trkpt>
      <trkpt lat="43.764469" lon="4.423023">
        <ele>85.36389</ele>
        <time>2021-07-01T10:10:14Z</time>
      </trkpt>
      <trkpt lat="43.764755" lon="4.422836">
        <ele>85.08710</ele>
        <time>2021-07-01T10:10:15Z</time>
      </trkpt>
      <trkpt lat="43.765030" lon="4.422656">
        <ele>85.26111</ele>
        <time>2021-07-01T10:10:16Z</time>
      </trkpt>
      <trkpt lat="43.765335" lon="4.422457">
        <ele>85.60199</ele>
        <time>2021-07-01T10:10:17Z</time>
      </trkpt>
      <trkpt lat="43.765606" lon="4.422280">
        <ele>85.89215</ele>
        <time>2021-07-01T10:10:18Z</time>
      </trkpt>
      <trkpt lat="43.765869" lon="4.422108">
        <ele>86.04156</ele>
        <time>2021-07-01T10:10:19Z</time>
      </trkpt>
      <trkpt lat="43.766159" lon="4.421918">
        <ele>85.78418</ele>
        <time>2021-07-01T10:10:20Z</time>
      </trkpt>
      <trkpt lat="43.766453" lon="4.421730">
        <ele>85.84894</ele>
        <time>2021-07-01T10:10:21Z</time>
      </trkpt>
      <trkpt lat="43.766727" lon="4.421554">
        <ele>85.71375</ele>
        <time>2021-07-01T10:10:22Z</time>
      </trkpt>
      <trkpt lat="43.767010" lon="4.421371">
        <ele>85.16211</ele>
        <time>2021-07-01T10:10:23Z</time>
      </trkpt>
      <trkpt lat="43.767296" lon="4.421194">
        <ele>85.14630</ele>
        <time>2021-07-01T10:10:24Z</time>
      </trkpt>
      <trkpt lat="43.767574" lon="4.421029">
        <ele>85.38373</ele>
        <time>2021-07-01T10:10:25Z</time>
      </trkpt>
      <trkpt lat="43.767883" lon="4.420845">
        <ele>85.10187</ele>
        <time>2021-07-01T10:10:26Z</time>
      </trkpt>
      <trkpt lat="43.768196" lon="4.420659">
        <ele>85.42474</ele>
        <time>2021-07-01T10:10:27Z</time>
      </trkpt>
      <trkpt lat="43.768490" lon="4.420486">
        <ele>85.15961</ele>
        <time>2021-07-01T10:10:28Z</time>
      </trkpt>
      <trkpt lat="43.768787" lon="4.420309">
        <ele>85.01764</ele>
        <time>2021-07-01T10:10:29Z</time>
      </trkpt>
      <trkpt lat="43.769100" lon="4.420147">
        <ele>85.24609</ele>
        <time>2021-07-01T10:10:30Z</time>
      </trkpt>
      <trkpt lat="43.769421" lon="4.419987">
        <ele>85.22736</ele>
        <time>2021-07-01T10:10:31Z</time>
      </trkpt>
      <trkpt lat="43.769733" lon="4.419831">
        <ele>85.08514</ele>
        <time>2021-07-01T10:10:32Z</time>
      </trkpt>
      <trkpt lat="43.770069" lon="4.419673">
        <ele>84.92511</ele>
        <time>2021-07-01T10:10:33Z</time>
      </trkpt>
      <trkpt lat="43.770367" lon="4.419532">
        <ele>85.18024</ele>
        <time>2021-07-01T10:10:34Z</time>
      </trkpt>
      <trkpt lat="43.770683" lon="4.419395">
        <ele>85.10645</ele>
        <time>2021-07-01T10:10:35Z</time>
      </trkpt>
      <trkpt lat="43.771008" lon="4.419263">
        <ele>85.05920</ele>
        <time>2021-07-01T10:10:36Z</time>
      </trkpt>
      <trkpt lat="43.771339" lon="4.419128">
        <ele>84.88080</ele>
        <time>2021-07-01T10:10:37Z</time>
      </trkpt>
      <trkpt lat="43.771660" lon="4.418999">
        <ele>84.84198</ele>
        <time>2021-07-01T10:10:38Z</time>
      </trkpt>
      <trkpt lat="43.771980" lon="4.418868">
        <ele>84.69836</ele>
        <time>2021-07-01T10:10:39Z</time>
      </trkpt>
      <trkpt lat="43.772308" lon="4.418735">
        <ele>84.60834</ele>
        <time>2021-07-01T10:10:40Z</time>
      </trkpt>
      <trkpt lat="43.772594" lon="4.418624">
        <ele>84.41876</ele>
        <time>2021-07-01T10:10:41Z</time>
      </trkpt>
      <trkpt lat="43.772919" lon="4.418508">
        <ele>84.34552</ele>
        <time>2021-07-01T10:10:42Z</time>
      </trkpt>
      <trkpt lat="43.773220" lon="4.418400">
        <ele>83.35303</ele>
        <time>2021-07-01T10:10:43Z</time>
      </trkpt>
      <trkpt lat="43.773220" lon="4.418400">
        <ele>83.57275</ele>
        <time>2021-07-01T10:10:44Z</time>
      </trkpt>
      <trkpt lat="43.773544" lon="4.418283">
        <ele>83.41028</ele>
        <time>2021-07-01T10:10:45Z</time>
      </trkpt>
      <trkpt lat="43.773838" lon="4.418178">
        <ele>83.24731</ele>
        <time>2021-07-01T10:10:46Z</time>
      </trkpt>
      <trkpt lat="43.774139" lon="4.418068">
        <ele>83.20074</ele>
        <time>2021-07-01T10:10:47Z</time>
      </trkpt>
      <trkpt lat="43.774429" lon="4.417972">
        <ele>83.30841</ele>
        <time>2021-07-01T10:10:48Z</time>
      </trkpt>
      <trkpt lat="43.774723" lon="4.417859">
        <ele>83.39362</ele>
        <time>2021-07-01T10:10:49Z</time>
      </trkpt>
      <trkpt lat="43.775028" lon="4.417739">
        <ele>83.14569</ele>
        <time>2021-07-01T10:10:50Z</time>
      </trkpt>
      <trkpt lat="43.775322" lon="4.417616">
        <ele>83.09625</ele>
        <time>2021-07-01T10:10:51Z</time>
      </trkpt>
      <trkpt lat="43.775616" lon="4.417487">
        <ele>82.94604</ele>
        <time>2021-07-01T10:10:52Z</time>
      </trkpt>
      <trkpt lat="43.775902" lon="4.417350">
        <ele>82.80060</ele>
        <time>2021-07-01T10:10:53Z</time>
      </trkpt>
      <trkpt lat="43.776188" lon="4.417202">
        <ele>82.53625</ele>
        <time>2021-07-01T10:10:54Z</time>
      </trkpt>
      <trkpt lat="43.776474" lon="4.417053">
        <ele>82.14856</ele>
        <time>2021-07-01T10:10:55Z</time>
      </trkpt>
      <trkpt lat="43.776764" lon="4.416875">
        <ele>82.34485</ele>
        <time>2021-07-01T10:10:56Z</time>
      </trkpt>
      <trkpt lat="43.777058" lon="4.416687">
        <ele>82.43793</ele>
        <time>2021-07-01T10:10:57Z</time>
      </trkpt>
      <trkpt lat="43.777340" lon="4.416496">
        <ele>82.56976</ele>
        <time>2021-07-01T10:10:58Z</time>
      </trkpt>
      <trkpt lat="43.777603" lon="4.416302">
        <ele>82.38940</ele>
        <time>2021-07-01T10:10:59Z</time>
      </trkpt>
      <trkpt lat="43.777863" lon="4.416112">
        <ele>81.91150</ele>
        <time>2021-07-01T10:11:00Z</time>
      </trkpt>
      <trkpt lat="43.778111" lon="4.415900">
        <ele>81.92334</ele>
        <time>2021-07-01T10:11:01Z</time>
      </trkpt>
      <trkpt lat="43.778370" lon="4.415667">
        <ele>81.41217</ele>
        <time>2021-07-01T10:11:02Z</time>
      </trkpt>
      <trkpt lat="43.778656" lon="4.415402">
        <ele>81.07318</ele>
        <time>2021-07-01T10:11:03Z</time>
      </trkpt>
      <trkpt lat="43.778912" lon="4.415143">
        <ele>80.88013</ele>
        <time>2021-07-01T10:11:04Z</time>
      </trkpt>
      <trkpt lat="43.779160" lon="4.414894">
        <ele>80.85651</ele>
        <time>2021-07-01T10:11:05Z</time>
      </trkpt>
      <trkpt lat="43.779392" lon="4.414627">
        <ele>80.80206</ele>
        <time>2021-07-01T10:11:06Z</time>
      </trkpt>
      <trkpt lat="43.779606" lon="4.414380">
        <ele>80.78717</ele>
        <time>2021-07-01T10:11:07Z</time>
      </trkpt>
      <trkpt lat="43.779835" lon="4.414095">
        <ele>80.34448</ele>
        <time>2021-07-01T10:11:08Z</time>
      </trkpt>
      <trkpt lat="43.780064" lon="4.413790">
        <ele>80.53430</ele>
        <time>2021-07-01T10:11:09Z</time>
      </trkpt>
      <trkpt lat="43.780289" lon="4.413485">
        <ele>80.93237</ele>
        <time>2021-07-01T10:11:10Z</time>
      </trkpt>
      <trkpt lat="43.780476" lon="4.413211">
        <ele>80.68549</ele>
        <time>2021-07-01T10:11:11Z</time>
      </trkpt>
      <trkpt lat="43.780685" lon="4.412900">
        <ele>80.63306</ele>
        <time>2021-07-01T10:11:12Z</time>
      </trkpt>
      <trkpt lat="43.780907" lon="4.412548">
        <ele>80.73560</ele>
        <time>2021-07-01T10:11:13Z</time>
      </trkpt>
      <trkpt lat="43.780907" lon="4.412548">
        <ele>80.41058</ele>
        <time>2021-07-01T10:11:14Z</time>
      </trkpt>
      <trkpt lat="43.781101" lon="4.412222">
        <ele>80.17340</ele>
        <time>2021-07-01T10:11:15Z</time>
      </trkpt>
      <trkpt lat="43.781471" lon="4.411552">
        <ele>79.90070</ele>
        <time>2021-07-01T10:11:16Z</time>
      </trkpt>
      <trkpt lat="43.781471" lon="4.411552">
        <ele>79.81915</ele>
        <time>2021-07-01T10:11:17Z</time>
      </trkpt>
      <trkpt lat="43.781639" lon="4.411228">
        <ele>79.43097</ele>
        <time>2021-07-01T10:11:18Z</time>
      </trkpt>
      <trkpt lat="43.781818" lon="4.410861">
        <ele>79.14764</ele>
        <time>2021-07-01T10:11:19Z</time>
      </trkpt>
      <trkpt lat="43.781986" lon="4.410487">
        <ele>78.97040</ele>
        <time>2021-07-01T10:11:20Z</time>
      </trkpt>
      <trkpt lat="43.782154" lon="4.410108">
        <ele>78.73450</ele>
        <time>2021-07-01T10:11:21Z</time>
      </trkpt>
      <trkpt lat="43.782326" lon="4.409728">
        <ele>78.89636</ele>
        <time>2021-07-01T10:11:22Z</time>
      </trkpt>
      <trkpt lat="43.782494" lon="4.409350">
        <ele>78.97864</ele>
        <time>2021-07-01T10:11:23Z</time>
      </trkpt>
      <trkpt lat="43.782669" lon="4.408960">
        <ele>78.91388</ele>
        <time>2021-07-01T10:11:24Z</time>
      </trkpt>
      <trkpt lat="43.782864" lon="4.408522">
        <ele>78.69012</ele>
        <time>2021-07-01T10:11:25Z</time>
      </trkpt>
      <trkpt lat="43.783062" lon="4.408079">
        <ele>78.20331</ele>
        <time>2021-07-01T10:11:26Z</time>
      </trkpt>
      <trkpt lat="43.783245" lon="4.407673">
        <ele>78.32434</ele>
        <time>2021-07-01T10:11:27Z</time>
      </trkpt>
      <trkpt lat="43.783417" lon="4.407311">
        <ele>77.99158</ele>
        <time>2021-07-01T10:11:28Z</time>
      </trkpt>
      <trkpt lat="43.783615" lon="4.406916">
        <ele>78.03381</ele>
        <time>2021-07-01T10:11:29Z</time>
      </trkpt>
      <trkpt lat="43.783810" lon="4.406532">
        <ele>77.99097</ele>
        <time>2021-07-01T10:11:30Z</time>
      </trkpt>
      <trkpt lat="43.784004" lon="4.406152">
        <ele>77.35608</ele>
        <time>2021-07-01T10:11:31Z</time>
      </trkpt>
      <trkpt lat="43.784206" lon="4.405798">
        <ele>76.44971</ele>
        <time>2021-07-01T10:11:32Z</time>
      </trkpt>
      <trkpt lat="43.784416" lon="4.405433">
        <ele>76.00049</ele>
        <time>2021-07-01T10:11:33Z</time>
      </trkpt>
      <trkpt lat="43.784622" lon="4.405102">
        <ele>75.27679</ele>
        <time>2021-07-01T10:11:34Z</time>
      </trkpt>
      <trkpt lat="43.784836" lon="4.404759">
        <ele>74.52441</ele>
        <time>2021-07-01T10:11:35Z</time>
      </trkpt>
      <trkpt lat="43.785053" lon="4.404424">
        <ele>73.70917</ele>
        <time>2021-07-01T10:11:36Z</time>
      </trkpt>
      <trkpt lat="43.785282" lon="4.404097">
        <ele>72.75311</ele>
        <time>2021-07-01T10:11:37Z</time>
      </trkpt>
      <trkpt lat="43.785500" lon="4.403809">
        <ele>71.67902</ele>
        <time>2021-07-01T10:11:38Z</time>
      </trkpt>
      <trkpt lat="43.785740" lon="4.403488">
        <ele>70.91425</ele>
        <time>2021-07-01T10:11:39Z</time>
      </trkpt>
      <trkpt lat="43.785976" lon="4.403160">
        <ele>70.00861</ele>
        <time>2021-07-01T10:11:40Z</time>
      </trkpt>
      <trkpt lat="43.786263" lon="4.402815">
        <ele>69.16254</ele>
        <time>2021-07-01T10:11:41Z</time>
      </trkpt>
      <trkpt lat="43.786579" lon="4.402430">
        <ele>67.84460</ele>
        <time>2021-07-01T10:11:42Z</time>
      </trkpt>
      <trkpt lat="43.786858" lon="4.402101">
        <ele>66.70190</ele>
        <time>2021-07-01T10:11:43Z</time>
      </trkpt>
      <trkpt lat="43.787144" lon="4.401806">
        <ele>65.56146</ele>
        <time>2021-07-01T10:11:44Z</time>
      </trkpt>
      <trkpt lat="43.787426" lon="4.401524">
        <ele>64.43958</ele>
        <time>2021-07-01T10:11:45Z</time>
      </trkpt>
      <trkpt lat="43.787426" lon="4.401524">
        <ele>63.29162</ele>
        <time>2021-07-01T10:11:46Z</time>
      </trkpt>
      <trkpt lat="43.787720" lon="4.401237">
        <ele>62.51855</ele>
        <time>2021-07-01T10:11:47Z</time>
      </trkpt>
      <trkpt lat="43.787994" lon="4.400993">
        <ele>62.19598</ele>
        <time>2021-07-01T10:11:48Z</time>
      </trkpt>
      <trkpt lat="43.788277" lon="4.400747">
        <ele>61.21154</ele>
        <time>2021-07-01T10:11:49Z</time>
      </trkpt>
      <trkpt lat="43.788563" lon="4.400494">
        <ele>60.46911</ele>
        <time>2021-07-01T10:11:50Z</time>
      </trkpt>
      <trkpt lat="43.788830" lon="4.400260">
        <ele>60.05206</ele>
        <time>2021-07-01T10:11:51Z</time>
      </trkpt>
      <trkpt lat="43.789108" lon="4.400017">
        <ele>58.99804</ele>
        <time>2021-07-01T10:11:52Z</time>
      </trkpt>
      <trkpt lat="43.789379" lon="4.399776">
        <ele>57.78881</ele>
        <time>2021-07-01T10:11:53Z</time>
      </trkpt>
      <trkpt lat="43.789680" lon="4.399506">
        <ele>56.69726</ele>
        <time>2021-07-01T10:11:54Z</time>
      </trkpt>
      <trkpt lat="43.789986" lon="4.399231">
        <ele>55.54162</ele>
        <time>2021-07-01T10:11:55Z</time>
      </trkpt>
      <trkpt lat="43.790310" lon="4.398948">
        <ele>54.52447</ele>
        <time>2021-07-01T10:11:56Z</time>
      </trkpt>
      <trkpt lat="43.790627" lon="4.398659">
        <ele>53.56848</ele>
        <time>2021-07-01T10:11:57Z</time>
      </trkpt>
      <trkpt lat="43.790920" lon="4.398389">
        <ele>52.53064</ele>
        <time>2021-07-01T10:11:58Z</time>
      </trkpt>
      <trkpt lat="43.791222" lon="4.398105">
        <ele>51.23956</ele>
        <time>2021-07-01T10:11:59Z</time>
      </trkpt>
      <trkpt lat="43.791523" lon="4.397808">
        <ele>49.90127</ele>
        <time>2021-07-01T10:12:00Z</time>
      </trkpt>
      <trkpt lat="43.791824" lon="4.397492">
        <ele>48.45681</ele>
        <time>2021-07-01T10:12:01Z</time>
      </trkpt>
      <trkpt lat="43.792114" lon="4.397177">
        <ele>46.78268</ele>
        <time>2021-07-01T10:12:02Z</time>
      </trkpt>
      <trkpt lat="43.792400" lon="4.396854">
        <ele>45.67465</ele>
        <time>2021-07-01T10:12:03Z</time>
      </trkpt>
      <trkpt lat="43.792667" lon="4.396532">
        <ele>44.65597</ele>
        <time>2021-07-01T10:12:04Z</time>
      </trkpt>
      <trkpt lat="43.792915" lon="4.396221">
        <ele>43.77383</ele>
        <time>2021-07-01T10:12:05Z</time>
      </trkpt>
      <trkpt lat="43.793167" lon="4.395903">
        <ele>42.57644</ele>
        <time>2021-07-01T10:12:06Z</time>
      </trkpt>
      <trkpt lat="43.793404" lon="4.395584">
        <ele>41.81057</ele>
        <time>2021-07-01T10:12:07Z</time>
      </trkpt>
      <trkpt lat="43.793640" lon="4.395251">
        <ele>41.08755</ele>
        <time>2021-07-01T10:12:08Z</time>
      </trkpt>
      <trkpt lat="43.793880" lon="4.394897">
        <ele>40.38369</ele>
        <time>2021-07-01T10:12:09Z</time>
      </trkpt>
      <trkpt lat="43.794086" lon="4.394578">
        <ele>39.31479</ele>
        <time>2021-07-01T10:12:10Z</time>
      </trkpt>
      <trkpt lat="43.794300" lon="4.394239">
        <ele>38.64096</ele>
        <time>2021-07-01T10:12:11Z</time>
      </trkpt>
      <trkpt lat="43.794518" lon="4.393884">
        <ele>38.04721</ele>
        <time>2021-07-01T10:12:12Z</time>
      </trkpt>
      <trkpt lat="43.794739" lon="4.393501">
        <ele>37.45034</ele>
        <time>2021-07-01T10:12:13Z</time>
      </trkpt>
      <trkpt lat="43.794964" lon="4.393082">
        <ele>37.06588</ele>
        <time>2021-07-01T10:12:14Z</time>
      </trkpt>
      <trkpt lat="43.795181" lon="4.392678">
        <ele>36.99520</ele>
        <time>2021-07-01T10:12:15Z</time>
      </trkpt>
      <trkpt lat="43.795391" lon="4.392250">
        <ele>36.77395</ele>
        <time>2021-07-01T10:12:16Z</time>
      </trkpt>
      <trkpt lat="43.795391" lon="4.392250">
        <ele>36.06692</ele>
        <time>2021-07-01T10:12:17Z</time>
      </trkpt>
      <trkpt lat="43.795601" lon="4.391811">
        <ele>35.46218</ele>
        <time>2021-07-01T10:12:18Z</time>
      </trkpt>
      <trkpt lat="43.795784" lon="4.391403">
        <ele>34.87924</ele>
        <time>2021-07-01T10:12:19Z</time>
      </trkpt>
      <trkpt lat="43.795975" lon="4.390972">
        <ele>34.68155</ele>
        <time>2021-07-01T10:12:20Z</time>
      </trkpt>
      <trkpt lat="43.796146" lon="4.390551">
        <ele>34.58798</ele>
        <time>2021-07-01T10:12:21Z</time>
      </trkpt>
      <trkpt lat="43.796314" lon="4.390136">
        <ele>34.16824</ele>
        <time>2021-07-01T10:12:22Z</time>
      </trkpt>
      <trkpt lat="43.796478" lon="4.389704">
        <ele>33.80514</ele>
        <time>2021-07-01T10:12:23Z</time>
      </trkpt>
      <trkpt lat="43.796642" lon="4.389277">
        <ele>33.33755</ele>
        <time>2021-07-01T10:12:24Z</time>
      </trkpt>
      <trkpt lat="43.796806" lon="4.388850">
        <ele>32.91012</ele>
        <time>2021-07-01T10:12:25Z</time>
      </trkpt>
      <trkpt lat="43.796989" lon="4.388373">
        <ele>32.37252</ele>
        <time>2021-07-01T10:12:26Z</time>
      </trkpt>
      <trkpt lat="43.797157" lon="4.387947">
        <ele>31.76620</ele>
        <time>2021-07-01T10:12:27Z</time>
      </trkpt>
      <trkpt lat="43.797333" lon="4.387506">
        <ele>31.36227</ele>
        <time>2021-07-01T10:12:28Z</time>
      </trkpt>
      <trkpt lat="43.797504" lon="4.387072">
        <ele>30.90286</ele>
        <time>2021-07-01T10:12:29Z</time>
      </trkpt>
      <trkpt lat="43.797688" lon="4.386647">
        <ele>30.88449</ele>
        <time>2021-07-01T10:12:30Z</time>
      </trkpt>
      <trkpt lat="43.797886" lon="4.386198">
        <ele>30.44558</ele>
        <time>2021-07-01T10:12:31Z</time>
      </trkpt>
      <trkpt lat="43.798088" lon="4.385770">
        <ele>30.08371</ele>
        <time>2021-07-01T10:12:32Z</time>
      </trkpt>
      <trkpt lat="43.798306" lon="4.385331">
        <ele>29.85031</ele>
        <time>2021-07-01T10:12:33Z</time>
      </trkpt>
      <trkpt lat="43.798508" lon="4.384956">
        <ele>29.49173</ele>
        <time>2021-07-01T10:12:34Z</time>
      </trkpt>
      <trkpt lat="43.798737" lon="4.384521">
        <ele>29.28329</ele>
        <time>2021-07-01T10:12:35Z</time>
      </trkpt>
      <trkpt lat="43.798962" lon="4.384133">
        <ele>29.51236</ele>
        <time>2021-07-01T10:12:36Z</time>
      </trkpt>
      <trkpt lat="43.799206" lon="4.383725">
        <ele>29.68240</ele>
        <time>2021-07-01T10:12:37Z</time>
      </trkpt>
      <trkpt lat="43.799454" lon="4.383331">
        <ele>29.17288</ele>
        <time>2021-07-01T10:12:38Z</time>
      </trkpt>
      <trkpt lat="43.799690" lon="4.382973">
        <ele>28.90689</ele>
        <time>2021-07-01T10:12:39Z</time>
      </trkpt>
      <trkpt lat="43.799973" lon="4.382558">
        <ele>28.48776</ele>
        <time>2021-07-01T10:12:40Z</time>
      </trkpt>
      <trkpt lat="43.800289" lon="4.382123">
        <ele>28.15170</ele>
        <time>2021-07-01T10:12:41Z</time>
      </trkpt>
      <trkpt lat="43.800289" lon="4.382123">
        <ele>28.01986</ele>
        <time>2021-07-01T10:12:42Z</time>
      </trkpt>
      <trkpt lat="43.800594" lon="4.381731">
        <ele>28.01864</ele>
        <time>2021-07-01T10:12:43Z</time>
      </trkpt>
      <trkpt lat="43.800880" lon="4.381361">
        <ele>27.96243</ele>
        <time>2021-07-01T10:12:44Z</time>
      </trkpt>
      <trkpt lat="43.801167" lon="4.381007">
        <ele>27.59475</ele>
        <time>2021-07-01T10:12:45Z</time>
      </trkpt>
      <trkpt lat="43.801468" lon="4.380634">
        <ele>27.73245</ele>
        <time>2021-07-01T10:12:46Z</time>
      </trkpt>
      <trkpt lat="43.801743" lon="4.380294">
        <ele>27.72006</ele>
        <time>2021-07-01T10:12:47Z</time>
      </trkpt>
      <trkpt lat="43.802029" lon="4.379943">
        <ele>28.02096</ele>
        <time>2021-07-01T10:12:48Z</time>
      </trkpt>
      <trkpt lat="43.802311" lon="4.379597">
        <ele>28.32052</ele>
        <time>2021-07-01T10:12:49Z</time>
      </trkpt>
      <trkpt lat="43.802593" lon="4.379254">
        <ele>28.39602</ele>
        <time>2021-07-01T10:12:50Z</time>
      </trkpt>
      <trkpt lat="43.802860" lon="4.378932">
        <ele>28.92465</ele>
        <time>2021-07-01T10:12:51Z</time>
      </trkpt>
      <trkpt lat="43.803120" lon="4.378599">
        <ele>28.88089</ele>
        <time>2021-07-01T10:12:52Z</time>
      </trkpt>
      <trkpt lat="43.803391" lon="4.378252">
        <ele>29.13937</ele>
        <time>2021-07-01T10:12:53Z</time>
      </trkpt>
      <trkpt lat="43.803673" lon="4.377880">
        <ele>29.22171</ele>
        <time>2021-07-01T10:12:54Z</time>
      </trkpt>
      <trkpt lat="43.803955" lon="4.377488">
        <ele>29.47689</ele>
        <time>2021-07-01T10:12:55Z</time>
      </trkpt>
      <trkpt lat="43.804222" lon="4.377079">
        <ele>29.49325</ele>
        <time>2021-07-01T10:12:56Z</time>
      </trkpt>
      <trkpt lat="43.804466" lon="4.376693">
        <ele>30.25601</ele>
        <time>2021-07-01T10:12:57Z</time>
      </trkpt>
      <trkpt lat="43.804695" lon="4.376287">
        <ele>30.73007</ele>
        <time>2021-07-01T10:12:58Z</time>
      </trkpt>
      <trkpt lat="43.804913" lon="4.375866">
        <ele>31.17892</ele>
        <time>2021-07-01T10:12:59Z</time>
      </trkpt>
      <trkpt lat="43.805103" lon="4.375467">
        <ele>31.31118</ele>
        <time>2021-07-01T10:13:00Z</time>
      </trkpt>
      <trkpt lat="43.805283" lon="4.375063">
        <ele>31.53469</ele>
        <time>2021-07-01T10:13:01Z</time>
      </trkpt>
      <trkpt lat="43.805462" lon="4.374632">
        <ele>31.78750</ele>
        <time>2021-07-01T10:13:02Z</time>
      </trkpt>
      <trkpt lat="43.805641" lon="4.374157">
        <ele>32.02999</ele>
        <time>2021-07-01T10:13:03Z</time>
      </trkpt>
      <trkpt lat="43.805782" lon="4.373685">
        <ele>31.74295</ele>
        <time>2021-07-01T10:13:04Z</time>
      </trkpt>
      <trkpt lat="43.805908" lon="4.373245">
        <ele>31.36752</ele>
        <time>2021-07-01T10:13:05Z</time>
      </trkpt>
      <trkpt lat="43.806015" lon="4.372850">
        <ele>30.95724</ele>
        <time>2021-07-01T10:13:06Z</time>
      </trkpt>
      <trkpt lat="43.806126" lon="4.372376">
        <ele>30.84768</ele>
        <time>2021-07-01T10:13:07Z</time>
      </trkpt>
      <trkpt lat="43.806213" lon="4.371938">
        <ele>31.13363</ele>
        <time>2021-07-01T10:13:08Z</time>
      </trkpt>
      <trkpt lat="43.806286" lon="4.371488">
        <ele>30.89279</ele>
        <time>2021-07-01T10:13:09Z</time>
      </trkpt>
      <trkpt lat="43.806286" lon="4.371488">
        <ele>30.78732</ele>
        <time>2021-07-01T10:13:10Z</time>
      </trkpt>
      <trkpt lat="43.806339" lon="4.371057">
        <ele>30.54715</ele>
        <time>2021-07-01T10:13:11Z</time>
      </trkpt>
      <trkpt lat="43.806400" lon="4.370584">
        <ele>30.06533</ele>
        <time>2021-07-01T10:13:12Z</time>
      </trkpt>
      <trkpt lat="43.806438" lon="4.370107">
        <ele>29.99691</ele>
        <time>2021-07-01T10:13:13Z</time>
      </trkpt>
      <trkpt lat="43.806480" lon="4.369610">
        <ele>29.95181</ele>
        <time>2021-07-01T10:13:14Z</time>
      </trkpt>
      <trkpt lat="43.806492" lon="4.369105">
        <ele>29.75302</ele>
        <time>2021-07-01T10:13:15Z</time>
      </trkpt>
      <trkpt lat="43.806496" lon="4.368599">
        <ele>29.35653</ele>
        <time>2021-07-01T10:13:16Z</time>
      </trkpt>
      <trkpt lat="43.806488" lon="4.368098">
        <ele>28.90139</ele>
        <time>2021-07-01T10:13:17Z</time>
      </trkpt>
      <trkpt lat="43.806480" lon="4.367591">
        <ele>28.60275</ele>
        <time>2021-07-01T10:13:18Z</time>
      </trkpt>
      <trkpt lat="43.806469" lon="4.367079">
        <ele>28.30593</ele>
        <time>2021-07-01T10:13:19Z</time>
      </trkpt>
      <trkpt lat="43.806465" lon="4.366581">
        <ele>28.16500</ele>
        <time>2021-07-01T10:13:20Z</time>
      </trkpt>
      <trkpt lat="43.806461" lon="4.366037">
        <ele>28.06802</ele>
        <time>2021-07-01T10:13:21Z</time>
      </trkpt>
      <trkpt lat="43.806458" lon="4.365514">
        <ele>27.50338</ele>
        <time>2021-07-01T10:13:22Z</time>
      </trkpt>
      <trkpt lat="43.806454" lon="4.365045">
        <ele>27.47415</ele>
        <time>2021-07-01T10:13:23Z</time>
      </trkpt>
      <trkpt lat="43.806461" lon="4.364558">
        <ele>27.12002</ele>
        <time>2021-07-01T10:13:24Z</time>
      </trkpt>
      <trkpt lat="43.806480" lon="4.364033">
        <ele>27.35598</ele>
        <time>2021-07-01T10:13:25Z</time>
      </trkpt>
      <trkpt lat="43.806496" lon="4.363565">
        <ele>27.67965</ele>
        <time>2021-07-01T10:13:26Z</time>
      </trkpt>
      <trkpt lat="43.806519" lon="4.363095">
        <ele>27.43710</ele>
        <time>2021-07-01T10:13:27Z</time>
      </trkpt>
      <trkpt lat="43.806538" lon="4.362668">
        <ele>27.49069</ele>
        <time>2021-07-01T10:13:28Z</time>
      </trkpt>
      <trkpt lat="43.806561" lon="4.362235">
        <ele>27.18466</ele>
        <time>2021-07-01T10:13:29Z</time>
      </trkpt>
      <trkpt lat="43.806606" lon="4.361780">
        <ele>27.10751</ele>
        <time>2021-07-01T10:13:30Z</time>
      </trkpt>
      <trkpt lat="43.806656" lon="4.361333">
        <ele>27.21591</ele>
        <time>2021-07-01T10:13:31Z</time>
      </trkpt>
      <trkpt lat="43.806713" lon="4.360920">
        <ele>26.99588</ele>
        <time>2021-07-01T10:13:32Z</time>
      </trkpt>
      <trkpt lat="43.806767" lon="4.360562">
        <ele>27.28463</ele>
        <time>2021-07-01T10:13:33Z</time>
      </trkpt>
      <trkpt lat="43.806805" lon="4.360298">
        <ele>27.06503</ele>
        <time>2021-07-01T10:13:34Z</time>
      </trkpt>
      <trkpt lat="43.806839" lon="4.360047">
        <ele>26.72830</ele>
        <time>2021-07-01T10:13:35Z</time>
      </trkpt>
      <trkpt lat="43.806881" lon="4.359754">
        <ele>26.63778</ele>
        <time>2021-07-01T10:13:36Z</time>
      </trkpt>
      <trkpt lat="43.806927" lon="4.359453">
        <ele>27.01974</ele>
        <time>2021-07-01T10:13:37Z</time>
      </trkpt>
      <trkpt lat="43.806976" lon="4.359134">
        <ele>26.89938</ele>
        <time>2021-07-01T10:13:38Z</time>
      </trkpt>
      <trkpt lat="43.807030" lon="4.358787">
        <ele>27.09091</ele>
        <time>2021-07-01T10:13:39Z</time>
      </trkpt>
      <trkpt lat="43.807030" lon="4.358787">
        <ele>26.77011</ele>
        <time>2021-07-01T10:13:40Z</time>
      </trkpt>
      <trkpt lat="43.807083" lon="4.358449">
        <ele>26.64059</ele>
        <time>2021-07-01T10:13:41Z</time>
      </trkpt>
      <trkpt lat="43.807137" lon="4.358114">
        <ele>26.67849</ele>
        <time>2021-07-01T10:13:42Z</time>
      </trkpt>
      <trkpt lat="43.807194" lon="4.357770">
        <ele>26.68905</ele>
        <time>2021-07-01T10:13:43Z</time>
      </trkpt>
      <trkpt lat="43.807247" lon="4.357435">
        <ele>26.46341</ele>
        <time>2021-07-01T10:13:44Z</time>
      </trkpt>
      <trkpt lat="43.807301" lon="4.357089">
        <ele>26.31381</ele>
        <time>2021-07-01T10:13:45Z</time>
      </trkpt>
      <trkpt lat="43.807354" lon="4.356753">
        <ele>25.96347</ele>
        <time>2021-07-01T10:13:46Z</time>
      </trkpt>
      <trkpt lat="43.807411" lon="4.356394">
        <ele>26.10745</ele>
        <time>2021-07-01T10:13:47Z</time>
      </trkpt>
      <trkpt lat="43.807461" lon="4.356074">
        <ele>26.09762</ele>
        <time>2021-07-01T10:13:48Z</time>
      </trkpt>
      <trkpt lat="43.807510" lon="4.355766">
        <ele>26.29037</ele>
        <time>2021-07-01T10:13:49Z</time>
      </trkpt>
      <trkpt lat="43.807560" lon="4.355460">
        <ele>26.32449</ele>
        <time>2021-07-01T10:13:50Z</time>
      </trkpt>
      <trkpt lat="43.807610" lon="4.355136">
        <ele>26.53732</ele>
        <time>2021-07-01T10:13:51Z</time>
      </trkpt>
      <trkpt lat="43.807659" lon="4.354833">
        <ele>26.72024</ele>
        <time>2021-07-01T10:13:52Z</time>
      </trkpt>
      <trkpt lat="43.807713" lon="4.354495">
        <ele>27.00863</ele>
        <time>2021-07-01T10:13:53Z</time>
      </trkpt>
      <trkpt lat="43.807762" lon="4.354196">
        <ele>27.30459</ele>
        <time>2021-07-01T10:13:54Z</time>
      </trkpt>
      <trkpt lat="43.807808" lon="4.353909">
        <ele>27.72970</ele>
        <time>2021-07-01T10:13:55Z</time>
      </trkpt>
      <trkpt lat="43.807865" lon="4.353559">
        <ele>27.85281</ele>
        <time>2021-07-01T10:13:56Z</time>
      </trkpt>
      <trkpt lat="43.807911" lon="4.353262">
        <ele>27.96511</ele>
        <time>2021-07-01T10:13:57Z</time>
      </trkpt>
      <trkpt lat="43.807953" lon="4.352948">
        <ele>28.31924</ele>
        <time>2021-07-01T10:13:58Z</time>
      </trkpt>
      <trkpt lat="43.808006" lon="4.352632">
        <ele>28.65567</ele>
        <time>2021-07-01T10:13:59Z</time>
      </trkpt>
      <trkpt lat="43.808044" lon="4.352396">
        <ele>28.73672</ele>
        <time>2021-07-01T10:14:00Z</time>
      </trkpt>
      <trkpt lat="43.808086" lon="4.352144">
        <ele>28.51400</ele>
        <time>2021-07-01T10:14:01Z</time>
      </trkpt>
      <trkpt lat="43.808132" lon="4.351875">
        <ele>28.72543</ele>
        <time>2021-07-01T10:14:02Z</time>
      </trkpt>
      <trkpt lat="43.808174" lon="4.351616">
        <ele>28.59652</ele>
        <time>2021-07-01T10:14:03Z</time>
      </trkpt>
      <trkpt lat="43.808208" lon="4.351401">
        <ele>17.33886</ele>
        <time>2021-07-01T10:14:04Z</time>
      </trkpt>
      <trkpt lat="43.808247" lon="4.351167">
        <ele>16.51989</ele>
        <time>2021-07-01T10:14:05Z</time>
      </trkpt>
      <trkpt lat="43.808277" lon="4.350987">
        <ele>16.45884</ele>
        <time>2021-07-01T10:14:06Z</time>
      </trkpt>
      <trkpt lat="43.808304" lon="4.350832">
        <ele>15.48794</ele>
        <time>2021-07-01T10:14:07Z</time>
      </trkpt>
      <trkpt lat="43.808315" lon="4.350758">
        <ele>15.37346</ele>
        <time>2021-07-01T10:14:08Z</time>
      </trkpt>
      <trkpt lat="43.808315" lon="4.350758">
        <ele>15.62465</ele>
        <time>2021-07-01T10:14:09Z</time>
      </trkpt>
      <trkpt lat="43.808323" lon="4.350721">
        <ele>16.04425</ele>
        <time>2021-07-01T10:14:10Z</time>
      </trkpt>
      <trkpt lat="43.808369" lon="4.350437">
        <ele>16.46940</ele>
        <time>2021-07-01T10:14:11Z</time>
      </trkpt>
      <trkpt lat="43.808369" lon="4.350437">
        <ele>16.45899</ele>
        <time>2021-07-01T10:14:12Z</time>
      </trkpt>
      <trkpt lat="43.808376" lon="4.350387">
        <ele>16.96529</ele>
        <time>2021-07-01T10:14:13Z</time>
      </trkpt>
      <trkpt lat="43.808388" lon="4.350329">
        <ele>17.35802</ele>
        <time>2021-07-01T10:14:14Z</time>
      </trkpt>
      <trkpt lat="43.808395" lon="4.350300">
        <ele>17.58094</ele>
        <time>2021-07-01T10:14:15Z</time>
      </trkpt>
      <trkpt lat="43.808399" lon="4.350276">
        <ele>17.85665</ele>
        <time>2021-07-01T10:14:16Z</time>
      </trkpt>
      <trkpt lat="43.808407" lon="4.350237">
        <ele>18.34440</ele>
        <time>2021-07-01T10:14:17Z</time>
      </trkpt>
      <trkpt lat="43.808414" lon="4.350184">
        <ele>18.68590</ele>
        <time>2021-07-01T10:14:18Z</time>
      </trkpt>
      <trkpt lat="43.808437" lon="4.350080">
        <ele>19.70863</ele>
        <time>2021-07-01T10:14:19Z</time>
      </trkpt>
      <trkpt lat="43.808460" lon="4.349948">
        <ele>20.13958</ele>
        <time>2021-07-01T10:14:20Z</time>
      </trkpt>
      <trkpt lat="43.808479" lon="4.349854">
        <ele>20.64369</ele>
        <time>2021-07-01T10:14:21Z</time>
      </trkpt>
      <trkpt lat="43.808506" lon="4.349721">
        <ele>20.88651</ele>
        <time>2021-07-01T10:14:22Z</time>
      </trkpt>
      <trkpt lat="43.808529" lon="4.349596">
        <ele>21.15571</ele>
        <time>2021-07-01T10:14:23Z</time>
      </trkpt>
      <trkpt lat="43.808552" lon="4.349479">
        <ele>21.29805</ele>
        <time>2021-07-01T10:14:24Z</time>
      </trkpt>
      <trkpt lat="43.808575" lon="4.349346">
        <ele>22.46857</ele>
        <time>2021-07-01T10:14:25Z</time>
      </trkpt>
      <trkpt lat="43.808609" lon="4.349181">
        <ele>21.92705</ele>
        <time>2021-07-01T10:14:26Z</time>
      </trkpt>
      <trkpt lat="43.808636" lon="4.349031">
        <ele>21.63579</ele>
        <time>2021-07-01T10:14:27Z</time>
      </trkpt>
      <trkpt lat="43.808659" lon="4.348930">
        <ele>21.22897</ele>
        <time>2021-07-01T10:14:28Z</time>
      </trkpt>
      <trkpt lat="43.808674" lon="4.348851">
        <ele>21.36646</ele>
        <time>2021-07-01T10:14:29Z</time>
      </trkpt>
      <trkpt lat="43.808697" lon="4.348746">
        <ele>21.47193</ele>
        <time>2021-07-01T10:14:30Z</time>
      </trkpt>
      <trkpt lat="43.808704" lon="4.348708">
        <ele>21.36788</ele>
        <time>2021-07-01T10:14:31Z</time>
      </trkpt>
      <trkpt lat="43.808720" lon="4.348644">
        <ele>21.47456</ele>
        <time>2021-07-01T10:14:32Z</time>
      </trkpt>
      <trkpt lat="43.808739" lon="4.348554">
        <ele>21.74229</ele>
        <time>2021-07-01T10:14:33Z</time>
      </trkpt>
      <trkpt lat="43.808758" lon="4.348464">
        <ele>22.13386</ele>
        <time>2021-07-01T10:14:34Z</time>
      </trkpt>
      <trkpt lat="43.808784" lon="4.348349">
        <ele>22.43597</ele>
        <time>2021-07-01T10:14:35Z</time>
      </trkpt>
      <trkpt lat="43.808815" lon="4.348208">
        <ele>22.62580</ele>
        <time>2021-07-01T10:14:36Z</time>
      </trkpt>
      <trkpt lat="43.808838" lon="4.348107">
        <ele>22.81424</ele>
        <time>2021-07-01T10:14:37Z</time>
      </trkpt>
      <trkpt lat="43.808865" lon="4.347973">
        <ele>23.86045</ele>
        <time>2021-07-01T10:14:38Z</time>
      </trkpt>
      <trkpt lat="43.808865" lon="4.347973">
        <ele>25.46948</ele>
        <time>2021-07-01T10:14:39Z</time>
      </trkpt>
      <trkpt lat="43.808914" lon="4.347783">
        <ele>26.00347</ele>
        <time>2021-07-01T10:14:40Z</time>
      </trkpt>
      <trkpt lat="43.808987" lon="4.347527">
        <ele>27.98071</ele>
        <time>2021-07-01T10:14:41Z</time>
      </trkpt>
      <trkpt lat="43.809052" lon="4.347278">
        <ele>27.80342</ele>
        <time>2021-07-01T10:14:42Z</time>
      </trkpt>
      <trkpt lat="43.809120" lon="4.347027">
        <ele>28.86300</ele>
        <time>2021-07-01T10:14:43Z</time>
      </trkpt>
      <trkpt lat="43.809185" lon="4.346783">
        <ele>29.40255</ele>
        <time>2021-07-01T10:14:44Z</time>
      </trkpt>
      <trkpt lat="43.809269" lon="4.346476">
        <ele>29.62820</ele>
        <time>2021-07-01T10:14:45Z</time>
      </trkpt>
      <trkpt lat="43.809338" lon="4.346221">
        <ele>30.89708</ele>
        <time>2021-07-01T10:14:46Z</time>
      </trkpt>
      <trkpt lat="43.809399" lon="4.346002">
        <ele>30.71495</ele>
        <time>2021-07-01T10:14:47Z</time>
      </trkpt>
      <trkpt lat="43.809456" lon="4.345791">
        <ele>31.17480</ele>
        <time>2021-07-01T10:14:48Z</time>
      </trkpt>
      <trkpt lat="43.809521" lon="4.345554">
        <ele>31.79535</ele>
        <time>2021-07-01T10:14:49Z</time>
      </trkpt>
      <trkpt lat="43.809582" lon="4.345335">
        <ele>32.12674</ele>
        <time>2021-07-01T10:14:50Z</time>
      </trkpt>
      <trkpt lat="43.809639" lon="4.345115">
        <ele>32.19859</ele>
        <time>2021-07-01T10:14:51Z</time>
      </trkpt>
      <trkpt lat="43.809700" lon="4.344899">
        <ele>32.19730</ele>
        <time>2021-07-01T10:14:52Z</time>
      </trkpt>
      <trkpt lat="43.809757" lon="4.344671">
        <ele>32.45878</ele>
        <time>2021-07-01T10:14:53Z</time>
      </trkpt>
      <trkpt lat="43.809803" lon="4.344478">
        <ele>32.85528</ele>
        <time>2021-07-01T10:14:54Z</time>
      </trkpt>
      <trkpt lat="43.809841" lon="4.344335">
        <ele>31.16076</ele>
        <time>2021-07-01T10:14:55Z</time>
      </trkpt>
      <trkpt lat="43.809879" lon="4.344187">
        <ele>31.02606</ele>
        <time>2021-07-01T10:14:56Z</time>
      </trkpt>
      <trkpt lat="43.809898" lon="4.344036">
        <ele>31.20849</ele>
        <time>2021-07-01T10:14:57Z</time>
      </trkpt>
      <trkpt lat="43.809921" lon="4.343880">
        <ele>31.12782</ele>
        <time>2021-07-01T10:14:58Z</time>
      </trkpt>
      <trkpt lat="43.809944" lon="4.343701">
        <ele>30.79778</ele>
        <time>2021-07-01T10:14:59Z</time>
      </trkpt>
      <trkpt lat="43.809952" lon="4.343513">
        <ele>30.52263</ele>
        <time>2021-07-01T10:15:00Z</time>
      </trkpt>
      <trkpt lat="43.809948" lon="4.343351">
        <ele>29.54786</ele>
        <time>2021-07-01T10:15:01Z</time>
      </trkpt>
      <trkpt lat="43.809940" lon="4.343179">
        <ele>29.96635</ele>
        <time>2021-07-01T10:15:02Z</time>
      </trkpt>
      <trkpt lat="43.809914" lon="4.342975">
        <ele>29.94148</ele>
        <time>2021-07-01T10:15:03Z</time>
      </trkpt>
      <trkpt lat="43.809875" lon="4.342785">
        <ele>29.54540</ele>
        <time>2021-07-01T10:15:04Z</time>
      </trkpt>
      <trkpt lat="43.809818" lon="4.342573">
        <ele>29.48774</ele>
        <time>2021-07-01T10:15:05Z</time>
      </trkpt>
      <trkpt lat="43.809818" lon="4.342573">
        <ele>29.04449</ele>
        <time>2021-07-01T10:15:06Z</time>
      </trkpt>
      <trkpt lat="43.809757" lon="4.342388">
        <ele>28.42701</ele>
        <time>2021-07-01T10:15:07Z</time>
      </trkpt>
      <trkpt lat="43.809689" lon="4.342222">
        <ele>27.81955</ele>
        <time>2021-07-01T10:15:08Z</time>
      </trkpt>
      <trkpt lat="43.809601" lon="4.342034">
        <ele>27.61585</ele>
        <time>2021-07-01T10:15:09Z</time>
      </trkpt>
      <trkpt lat="43.809509" lon="4.341840">
        <ele>27.39515</ele>
        <time>2021-07-01T10:15:10Z</time>
      </trkpt>
      <trkpt lat="43.809425" lon="4.341659">
        <ele>27.16812</ele>
        <time>2021-07-01T10:15:11Z</time>
      </trkpt>
      <trkpt lat="43.809353" lon="4.341468">
        <ele>27.30820</ele>
        <time>2021-07-01T10:15:12Z</time>
      </trkpt>
      <trkpt lat="43.809273" lon="4.341275">
        <ele>27.19898</ele>
        <time>2021-07-01T10:15:13Z</time>
      </trkpt>
      <trkpt lat="43.809193" lon="4.341081">
        <ele>26.72155</ele>
        <time>2021-07-01T10:15:14Z</time>
      </trkpt>
      <trkpt lat="43.809109" lon="4.340867">
        <ele>27.17267</ele>
        <time>2021-07-01T10:15:15Z</time>
      </trkpt>
      <trkpt lat="43.809017" lon="4.340638">
        <ele>31.21041</ele>
        <time>2021-07-01T10:15:16Z</time>
      </trkpt>
      <trkpt lat="43.808907" lon="4.340364">
        <ele>31.06344</ele>
        <time>2021-07-01T10:15:17Z</time>
      </trkpt>
      <trkpt lat="43.808796" lon="4.340080">
        <ele>31.19357</ele>
        <time>2021-07-01T10:15:18Z</time>
      </trkpt>
      <trkpt lat="43.808689" lon="4.339795">
        <ele>30.78451</ele>
        <time>2021-07-01T10:15:19Z</time>
      </trkpt>
      <trkpt lat="43.808582" lon="4.339499">
        <ele>30.90921</ele>
        <time>2021-07-01T10:15:20Z</time>
      </trkpt>
      <trkpt lat="43.808487" lon="4.339236">
        <ele>30.81741</ele>
        <time>2021-07-01T10:15:21Z</time>
      </trkpt>
      <trkpt lat="43.808399" lon="4.339004">
        <ele>30.61862</ele>
        <time>2021-07-01T10:15:22Z</time>
      </trkpt>
      <trkpt lat="43.808304" lon="4.338755">
        <ele>30.46432</ele>
        <time>2021-07-01T10:15:23Z</time>
      </trkpt>
      <trkpt lat="43.808170" lon="4.338497">
        <ele>30.32888</ele>
        <time>2021-07-01T10:15:24Z</time>
      </trkpt>
      <trkpt lat="43.808060" lon="4.338185">
        <ele>30.33975</ele>
        <time>2021-07-01T10:15:25Z</time>
      </trkpt>
      <trkpt lat="43.807957" lon="4.337870">
        <ele>30.30490</ele>
        <time>2021-07-01T10:15:26Z</time>
      </trkpt>
      <trkpt lat="43.807854" lon="4.337564">
        <ele>29.85666</ele>
        <time>2021-07-01T10:15:27Z</time>
      </trkpt>
      <trkpt lat="43.807743" lon="4.337252">
        <ele>29.70504</ele>
        <time>2021-07-01T10:15:28Z</time>
      </trkpt>
      <trkpt lat="43.807625" lon="4.336921">
        <ele>29.77920</ele>
        <time>2021-07-01T10:15:29Z</time>
      </trkpt>
      <trkpt lat="43.807514" lon="4.336587">
        <ele>29.93612</ele>
        <time>2021-07-01T10:15:30Z</time>
      </trkpt>
      <trkpt lat="43.807415" lon="4.336310">
        <ele>30.17178</ele>
        <time>2021-07-01T10:15:31Z</time>
      </trkpt>
      <trkpt lat="43.807285" lon="4.335948">
        <ele>30.39248</ele>
        <time>2021-07-01T10:15:32Z</time>
      </trkpt>
      <trkpt lat="43.807171" lon="4.335620">
        <ele>30.12252</ele>
        <time>2021-07-01T10:15:33Z</time>
      </trkpt>
      <trkpt lat="43.807171" lon="4.335620">
        <ele>30.15426</ele>
        <time>2021-07-01T10:15:34Z</time>
      </trkpt>
      <trkpt lat="43.806953" lon="4.334929">
        <ele>30.24313</ele>
        <time>2021-07-01T10:15:35Z</time>
      </trkpt>
      <trkpt lat="43.806953" lon="4.334929">
        <ele>30.33047</ele>
        <time>2021-07-01T10:15:36Z</time>
      </trkpt>
      <trkpt lat="43.806847" lon="4.334601">
        <ele>30.45498</ele>
        <time>2021-07-01T10:15:37Z</time>
      </trkpt>
      <trkpt lat="43.806755" lon="4.334336">
        <ele>30.35617</ele>
        <time>2021-07-01T10:15:38Z</time>
      </trkpt>
      <trkpt lat="43.806633" lon="4.333982">
        <ele>30.24594</ele>
        <time>2021-07-01T10:15:39Z</time>
      </trkpt>
      <trkpt lat="43.806454" lon="4.333456">
        <ele>30.04757</ele>
        <time>2021-07-01T10:15:40Z</time>
      </trkpt>
      <trkpt lat="43.806339" lon="4.333123">
        <ele>29.78207</ele>
        <time>2021-07-01T10:15:41Z</time>
      </trkpt>
      <trkpt lat="43.806213" lon="4.332745">
        <ele>30.37088</ele>
        <time>2021-07-01T10:15:42Z</time>
      </trkpt>
      <trkpt lat="43.806091" lon="4.332393">
        <ele>30.12680</ele>
        <time>2021-07-01T10:15:43Z</time>
      </trkpt>
      <trkpt lat="43.805973" lon="4.332045">
        <ele>30.21841</ele>
        <time>2021-07-01T10:15:44Z</time>
      </trkpt>
      <trkpt lat="43.805855" lon="4.331693">
        <ele>30.47384</ele>
        <time>2021-07-01T10:15:45Z</time>
      </trkpt>
      <trkpt lat="43.805740" lon="4.331330">
        <ele>30.75210</ele>
        <time>2021-07-01T10:15:46Z</time>
      </trkpt>
      <trkpt lat="43.805618" lon="4.330939">
        <ele>30.38882</ele>
        <time>2021-07-01T10:15:47Z</time>
      </trkpt>
      <trkpt lat="43.805492" lon="4.330541">
        <ele>30.51297</ele>
        <time>2021-07-01T10:15:48Z</time>
      </trkpt>
      <trkpt lat="43.805370" lon="4.330147">
        <ele>30.42410</ele>
        <time>2021-07-01T10:15:49Z</time>
      </trkpt>
      <trkpt lat="43.805248" lon="4.329752">
        <ele>30.46231</ele>
        <time>2021-07-01T10:15:50Z</time>
      </trkpt>
      <trkpt lat="43.805126" lon="4.329350">
        <ele>30.35537</ele>
        <time>2021-07-01T10:15:51Z</time>
      </trkpt>
      <trkpt lat="43.805004" lon="4.328935">
        <ele>30.30227</ele>
        <time>2021-07-01T10:15:52Z</time>
      </trkpt>
      <trkpt lat="43.804878" lon="4.328483">
        <ele>30.54818</ele>
        <time>2021-07-01T10:15:53Z</time>
      </trkpt>
      <trkpt lat="43.804756" lon="4.328064">
        <ele>30.51156</ele>
        <time>2021-07-01T10:15:54Z</time>
      </trkpt>
      <trkpt lat="43.804642" lon="4.327626">
        <ele>30.60324</ele>
        <time>2021-07-01T10:15:55Z</time>
      </trkpt>
      <trkpt lat="43.804527" lon="4.327188">
        <ele>30.84372</ele>
        <time>2021-07-01T10:15:56Z</time>
      </trkpt>
      <trkpt lat="43.804420" lon="4.326782">
        <ele>31.26266</ele>
        <time>2021-07-01T10:15:57Z</time>
      </trkpt>
      <trkpt lat="43.804317" lon="4.326371">
        <ele>31.68380</ele>
        <time>2021-07-01T10:15:58Z</time>
      </trkpt>
      <trkpt lat="43.804207" lon="4.325892">
        <ele>32.16964</ele>
        <time>2021-07-01T10:15:59Z</time>
      </trkpt>
      <trkpt lat="43.804100" lon="4.325453">
        <ele>32.09829</ele>
        <time>2021-07-01T10:16:00Z</time>
      </trkpt>
      <trkpt lat="43.803997" lon="4.325024">
        <ele>32.93454</ele>
        <time>2021-07-01T10:16:01Z</time>
      </trkpt>
      <trkpt lat="43.803913" lon="4.324625">
        <ele>33.72403</ele>
        <time>2021-07-01T10:16:02Z</time>
      </trkpt>
      <trkpt lat="43.803825" lon="4.324186">
        <ele>34.07791</ele>
        <time>2021-07-01T10:16:03Z</time>
      </trkpt>
      <trkpt lat="43.803825" lon="4.324186">
        <ele>34.21524</ele>
        <time>2021-07-01T10:16:04Z</time>
      </trkpt>
      <trkpt lat="43.803658" lon="4.323379">
        <ele>34.90243</ele>
        <time>2021-07-01T10:16:05Z</time>
      </trkpt>
      <trkpt lat="43.803658" lon="4.323379">
        <ele>35.23989</ele>
        <time>2021-07-01T10:16:06Z</time>
      </trkpt>
      <trkpt lat="43.803574" lon="4.322955">
        <ele>35.59860</ele>
        <time>2021-07-01T10:16:07Z</time>
      </trkpt>
      <trkpt lat="43.803478" lon="4.322486">
        <ele>35.82699</ele>
        <time>2021-07-01T10:16:08Z</time>
      </trkpt>
      <trkpt lat="43.803398" lon="4.322061">
        <ele>36.23050</ele>
        <time>2021-07-01T10:16:09Z</time>
      </trkpt>
      <trkpt lat="43.803318" lon="4.321628">
        <ele>36.60403</ele>
        <time>2021-07-01T10:16:10Z</time>
      </trkpt>
      <trkpt lat="43.803242" lon="4.321200">
        <ele>36.84707</ele>
        <time>2021-07-01T10:16:11Z</time>
      </trkpt>
      <trkpt lat="43.803162" lon="4.320781">
        <ele>37.30154</ele>
        <time>2021-07-01T10:16:12Z</time>
      </trkpt>
      <trkpt lat="43.803082" lon="4.320337">
        <ele>37.77005</ele>
        <time>2021-07-01T10:16:13Z</time>
      </trkpt>
      <trkpt lat="43.803005" lon="4.319902">
        <ele>38.33639</ele>
        <time>2021-07-01T10:16:14Z</time>
      </trkpt>
      <trkpt lat="43.802929" lon="4.319465">
        <ele>38.80868</ele>
        <time>2021-07-01T10:16:15Z</time>
      </trkpt>
      <trkpt lat="43.802853" lon="4.319056">
        <ele>39.18905</ele>
        <time>2021-07-01T10:16:16Z</time>
      </trkpt>
      <trkpt lat="43.802780" lon="4.318658">
        <ele>39.43435</ele>
        <time>2021-07-01T10:16:17Z</time>
      </trkpt>
      <trkpt lat="43.802704" lon="4.318247">
        <ele>39.95407</ele>
        <time>2021-07-01T10:16:18Z</time>
      </trkpt>
      <trkpt lat="43.802635" lon="4.317860">
        <ele>40.05825</ele>
        <time>2021-07-01T10:16:19Z</time>
      </trkpt>
      <trkpt lat="43.802563" lon="4.317476">
        <ele>40.26394</ele>
        <time>2021-07-01T10:16:20Z</time>
      </trkpt>
      <trkpt lat="43.802483" lon="4.317069">
        <ele>40.80337</ele>
        <time>2021-07-01T10:16:21Z</time>
      </trkpt>
      <trkpt lat="43.802402" lon="4.316644">
        <ele>41.08737</ele>
        <time>2021-07-01T10:16:22Z</time>
      </trkpt>
      <trkpt lat="43.802326" lon="4.316256">
        <ele>40.92447</ele>
        <time>2021-07-01T10:16:23Z</time>
      </trkpt>
      <trkpt lat="43.802250" lon="4.315864">
        <ele>41.16659</ele>
        <time>2021-07-01T10:16:24Z</time>
      </trkpt>
      <trkpt lat="43.802158" lon="4.315502">
        <ele>40.90823</ele>
        <time>2021-07-01T10:16:25Z</time>
      </trkpt>
      <trkpt lat="43.802040" lon="4.315070">
        <ele>40.58218</ele>
        <time>2021-07-01T10:16:26Z</time>
      </trkpt>
      <trkpt lat="43.801933" lon="4.314685">
        <ele>40.08926</ele>
        <time>2021-07-01T10:16:27Z</time>
      </trkpt>
      <trkpt lat="43.801807" lon="4.314258">
        <ele>39.78012</ele>
        <time>2021-07-01T10:16:28Z</time>
      </trkpt>
      <trkpt lat="43.801674" lon="4.313880">
        <ele>39.35525</ele>
        <time>2021-07-01T10:16:29Z</time>
      </trkpt>
      <trkpt lat="43.801525" lon="4.313470">
        <ele>38.80819</ele>
        <time>2021-07-01T10:16:30Z</time>
      </trkpt>
      <trkpt lat="43.801350" lon="4.313040">
        <ele>38.05832</ele>
        <time>2021-07-01T10:16:31Z</time>
      </trkpt>
      <trkpt lat="43.801155" lon="4.312585">
        <ele>37.21890</ele>
        <time>2021-07-01T10:16:32Z</time>
      </trkpt>
      <trkpt lat="43.801155" lon="4.312585">
        <ele>36.46280</ele>
        <time>2021-07-01T10:16:33Z</time>
      </trkpt>
      <trkpt lat="43.800938" lon="4.312121">
        <ele>35.86227</ele>
        <time>2021-07-01T10:16:34Z</time>
      </trkpt>
      <trkpt lat="43.800739" lon="4.311725">
        <ele>35.35073</ele>
        <time>2021-07-01T10:16:35Z</time>
      </trkpt>
      <trkpt lat="43.800541" lon="4.311349">
        <ele>34.83529</ele>
        <time>2021-07-01T10:16:36Z</time>
      </trkpt>
      <trkpt lat="43.800323" lon="4.310962">
        <ele>34.60305</ele>
        <time>2021-07-01T10:16:37Z</time>
      </trkpt>
      <trkpt lat="43.800098" lon="4.310583">
        <ele>34.18502</ele>
        <time>2021-07-01T10:16:38Z</time>
      </trkpt>
      <trkpt lat="43.799870" lon="4.310255">
        <ele>34.25540</ele>
        <time>2021-07-01T10:16:39Z</time>
      </trkpt>
      <trkpt lat="43.799637" lon="4.309919">
        <ele>34.46493</ele>
        <time>2021-07-01T10:16:40Z</time>
      </trkpt>
      <trkpt lat="43.799389" lon="4.309575">
        <ele>34.63321</ele>
        <time>2021-07-01T10:16:41Z</time>
      </trkpt>
      <trkpt lat="43.799149" lon="4.309276">
        <ele>35.17666</ele>
        <time>2021-07-01T10:16:42Z</time>
      </trkpt>
      <trkpt lat="43.798901" lon="4.308978">
        <ele>35.47323</ele>
        <time>2021-07-01T10:16:43Z</time>
      </trkpt>
      <trkpt lat="43.798649" lon="4.308693">
        <ele>35.95944</ele>
        <time>2021-07-01T10:16:44Z</time>
      </trkpt>
      <trkpt lat="43.798367" lon="4.308398">
        <ele>36.56955</ele>
        <time>2021-07-01T10:16:45Z</time>
      </trkpt>
      <trkpt lat="43.798065" lon="4.308097">
        <ele>37.38986</ele>
        <time>2021-07-01T10:16:46Z</time>
      </trkpt>
      <trkpt lat="43.797787" lon="4.307833">
        <ele>38.23513</ele>
        <time>2021-07-01T10:16:47Z</time>
      </trkpt>
      <trkpt lat="43.797497" lon="4.307584">
        <ele>39.22720</ele>
        <time>2021-07-01T10:16:48Z</time>
      </trkpt>
      <trkpt lat="43.797222" lon="4.307358">
        <ele>40.38882</ele>
        <time>2021-07-01T10:16:49Z</time>
      </trkpt>
      <trkpt lat="43.796913" lon="4.307111">
        <ele>41.48208</ele>
        <time>2021-07-01T10:16:50Z</time>
      </trkpt>
      <trkpt lat="43.796612" lon="4.306878">
        <ele>42.25399</ele>
        <time>2021-07-01T10:16:51Z</time>
      </trkpt>
      <trkpt lat="43.796310" lon="4.306641">
        <ele>43.16525</ele>
        <time>2021-07-01T10:16:52Z</time>
      </trkpt>
      <trkpt lat="43.796017" lon="4.306398">
        <ele>44.15042</ele>
        <time>2021-07-01T10:16:53Z</time>
      </trkpt>
      <trkpt lat="43.795715" lon="4.306131">
        <ele>45.02761</ele>
        <time>2021-07-01T10:16:54Z</time>
      </trkpt>
      <trkpt lat="43.795429" lon="4.305899">
        <ele>45.67581</ele>
        <time>2021-07-01T10:16:55Z</time>
      </trkpt>
      <trkpt lat="43.795128" lon="4.305661">
        <ele>46.28415</ele>
        <time>2021-07-01T10:16:56Z</time>
      </trkpt>
      <trkpt lat="43.794853" lon="4.305445">
        <ele>47.05758</ele>
        <time>2021-07-01T10:16:57Z</time>
      </trkpt>
      <trkpt lat="43.794563" lon="4.305206">
        <ele>47.58877</ele>
        <time>2021-07-01T10:16:58Z</time>
      </trkpt>
      <trkpt lat="43.794308" lon="4.304992">
        <ele>47.99679</ele>
        <time>2021-07-01T10:16:59Z</time>
      </trkpt>
      <trkpt lat="43.794071" lon="4.304794">
        <ele>48.06479</ele>
        <time>2021-07-01T10:17:00Z</time>
      </trkpt>
      <trkpt lat="43.793797" lon="4.304566">
        <ele>48.25619</ele>
        <time>2021-07-01T10:17:01Z</time>
      </trkpt>
      <trkpt lat="43.793514" lon="4.304314">
        <ele>48.57107</ele>
        <time>2021-07-01T10:17:02Z</time>
      </trkpt>
      <trkpt lat="43.793251" lon="4.304076">
        <ele>48.45749</ele>
        <time>2021-07-01T10:17:03Z</time>
      </trkpt>
      <trkpt lat="43.793022" lon="4.303868">
        <ele>48.13626</ele>
        <time>2021-07-01T10:17:04Z</time>
      </trkpt>
      <trkpt lat="43.792759" lon="4.303614">
        <ele>48.34121</ele>
        <time>2021-07-01T10:17:05Z</time>
      </trkpt>
      <trkpt lat="43.792515" lon="4.303384">
        <ele>48.22573</ele>
        <time>2021-07-01T10:17:06Z</time>
      </trkpt>
      <trkpt lat="43.792244" lon="4.303114">
        <ele>47.98989</ele>
        <time>2021-07-01T10:17:07Z</time>
      </trkpt>
      <trkpt lat="43.792011" lon="4.302881">
        <ele>47.81240</ele>
        <time>2021-07-01T10:17:08Z</time>
      </trkpt>
      <trkpt lat="43.792011" lon="4.302881">
        <ele>47.57077</ele>
        <time>2021-07-01T10:17:09Z</time>
      </trkpt>
      <trkpt lat="43.791744" lon="4.302611">
        <ele>47.11166</ele>
        <time>2021-07-01T10:17:10Z</time>
      </trkpt>
      <trkpt lat="43.791500" lon="4.302363">
        <ele>46.71261</ele>
        <time>2021-07-01T10:17:11Z</time>
      </trkpt>
      <trkpt lat="43.791241" lon="4.302104">
        <ele>45.77682</ele>
        <time>2021-07-01T10:17:12Z</time>
      </trkpt>
      <trkpt lat="43.790993" lon="4.301854">
        <ele>45.07266</ele>
        <time>2021-07-01T10:17:13Z</time>
      </trkpt>
      <trkpt lat="43.790756" lon="4.301613">
        <ele>44.29525</ele>
        <time>2021-07-01T10:17:14Z</time>
      </trkpt>
      <trkpt lat="43.790527" lon="4.301380">
        <ele>43.66476</ele>
        <time>2021-07-01T10:17:15Z</time>
      </trkpt>
      <trkpt lat="43.790283" lon="4.301127">
        <ele>42.93014</ele>
        <time>2021-07-01T10:17:16Z</time>
      </trkpt>
      <trkpt lat="43.790039" lon="4.300877">
        <ele>42.35348</ele>
        <time>2021-07-01T10:17:17Z</time>
      </trkpt>
      <trkpt lat="43.789795" lon="4.300625">
        <ele>41.72647</ele>
        <time>2021-07-01T10:17:18Z</time>
      </trkpt>
      <trkpt lat="43.789543" lon="4.300367">
        <ele>41.57388</ele>
        <time>2021-07-01T10:17:19Z</time>
      </trkpt>
      <trkpt lat="43.789307" lon="4.300119">
        <ele>41.41049</ele>
        <time>2021-07-01T10:17:20Z</time>
      </trkpt>
      <trkpt lat="43.789078" lon="4.299883">
        <ele>40.77768</ele>
        <time>2021-07-01T10:17:21Z</time>
      </trkpt>
      <trkpt lat="43.788853" lon="4.299652">
        <ele>40.99850</ele>
        <time>2021-07-01T10:17:22Z</time>
      </trkpt>
      <trkpt lat="43.788616" lon="4.299410">
        <ele>40.75784</ele>
        <time>2021-07-01T10:17:23Z</time>
      </trkpt>
      <trkpt lat="43.788376" lon="4.299158">
        <ele>40.83950</ele>
        <time>2021-07-01T10:17:24Z</time>
      </trkpt>
      <trkpt lat="43.788136" lon="4.298910">
        <ele>40.93142</ele>
        <time>2021-07-01T10:17:25Z</time>
      </trkpt>
      <trkpt lat="43.787914" lon="4.298676">
        <ele>40.88015</ele>
        <time>2021-07-01T10:17:26Z</time>
      </trkpt>
      <trkpt lat="43.787674" lon="4.298421">
        <ele>40.85012</ele>
        <time>2021-07-01T10:17:27Z</time>
      </trkpt>
      <trkpt lat="43.787426" lon="4.298144">
        <ele>40.89315</ele>
        <time>2021-07-01T10:17:28Z</time>
      </trkpt>
      <trkpt lat="43.787197" lon="4.297882">
        <ele>40.71554</ele>
        <time>2021-07-01T10:17:29Z</time>
      </trkpt>
      <trkpt lat="43.786964" lon="4.297616">
        <ele>40.60519</ele>
        <time>2021-07-01T10:17:30Z</time>
      </trkpt>
      <trkpt lat="43.786720" lon="4.297338">
        <ele>40.42257</ele>
        <time>2021-07-01T10:17:31Z</time>
      </trkpt>
      <trkpt lat="43.786472" lon="4.297051">
        <ele>39.63528</ele>
        <time>2021-07-01T10:17:32Z</time>
      </trkpt>
      <trkpt lat="43.786247" lon="4.296756">
        <ele>38.89859</ele>
        <time>2021-07-01T10:17:33Z</time>
      </trkpt>
      <trkpt lat="43.786018" lon="4.296445">
        <ele>38.58487</ele>
        <time>2021-07-01T10:17:34Z</time>
      </trkpt>
      <trkpt lat="43.785809" lon="4.296158">
        <ele>37.78860</ele>
        <time>2021-07-01T10:17:35Z</time>
      </trkpt>
      <trkpt lat="43.785576" lon="4.295824">
        <ele>36.73324</ele>
        <time>2021-07-01T10:17:36Z</time>
      </trkpt>
      <trkpt lat="43.785576" lon="4.295824">
        <ele>35.75485</ele>
        <time>2021-07-01T10:17:37Z</time>
      </trkpt>
      <trkpt lat="43.785358" lon="4.295507">
        <ele>35.29055</ele>
        <time>2021-07-01T10:17:38Z</time>
      </trkpt>
      <trkpt lat="43.785110" lon="4.295137">
        <ele>33.80392</ele>
        <time>2021-07-01T10:17:39Z</time>
      </trkpt>
      <trkpt lat="43.784878" lon="4.294773">
        <ele>32.96756</ele>
        <time>2021-07-01T10:17:40Z</time>
      </trkpt>
      <trkpt lat="43.784657" lon="4.294432">
        <ele>33.06704</ele>
        <time>2021-07-01T10:17:41Z</time>
      </trkpt>
      <trkpt lat="43.784431" lon="4.294086">
        <ele>32.26846</ele>
        <time>2021-07-01T10:17:42Z</time>
      </trkpt>
      <trkpt lat="43.784191" lon="4.293718">
        <ele>32.65463</ele>
        <time>2021-07-01T10:17:43Z</time>
      </trkpt>
      <trkpt lat="43.783951" lon="4.293347">
        <ele>32.11807</ele>
        <time>2021-07-01T10:17:44Z</time>
      </trkpt>
      <trkpt lat="43.783714" lon="4.292984">
        <ele>31.30893</ele>
        <time>2021-07-01T10:17:45Z</time>
      </trkpt>
      <trkpt lat="43.783485" lon="4.292641">
        <ele>31.44400</ele>
        <time>2021-07-01T10:17:46Z</time>
      </trkpt>
      <trkpt lat="43.783264" lon="4.292332">
        <ele>31.60440</ele>
        <time>2021-07-01T10:17:47Z</time>
      </trkpt>
      <trkpt lat="43.783028" lon="4.292000">
        <ele>31.95663</ele>
        <time>2021-07-01T10:17:48Z</time>
      </trkpt>
      <trkpt lat="43.782780" lon="4.291671">
        <ele>31.70950</ele>
        <time>2021-07-01T10:17:49Z</time>
      </trkpt>
      <trkpt lat="43.782543" lon="4.291356">
        <ele>31.48422</ele>
        <time>2021-07-01T10:17:50Z</time>
      </trkpt>
      <trkpt lat="43.782314" lon="4.291060">
        <ele>31.79873</ele>
        <time>2021-07-01T10:17:51Z</time>
      </trkpt>
      <trkpt lat="43.782070" lon="4.290755">
        <ele>32.03897</ele>
        <time>2021-07-01T10:17:52Z</time>
      </trkpt>
      <trkpt lat="43.781830" lon="4.290469">
        <ele>32.20596</ele>
        <time>2021-07-01T10:17:53Z</time>
      </trkpt>
      <trkpt lat="43.781590" lon="4.290196">
        <ele>32.76291</ele>
        <time>2021-07-01T10:17:54Z</time>
      </trkpt>
      <trkpt lat="43.781357" lon="4.289932">
        <ele>33.39297</ele>
        <time>2021-07-01T10:17:55Z</time>
      </trkpt>
      <trkpt lat="43.781101" lon="4.289649">
        <ele>34.38192</ele>
        <time>2021-07-01T10:17:56Z</time>
      </trkpt>
      <trkpt lat="43.780846" lon="4.289380">
        <ele>34.48874</ele>
        <time>2021-07-01T10:17:57Z</time>
      </trkpt>
      <trkpt lat="43.780579" lon="4.289112">
        <ele>34.88278</ele>
        <time>2021-07-01T10:17:58Z</time>
      </trkpt>
      <trkpt lat="43.780319" lon="4.288858">
        <ele>35.14071</ele>
        <time>2021-07-01T10:17:59Z</time>
      </trkpt>
      <trkpt lat="43.780052" lon="4.288595">
        <ele>35.31833</ele>
        <time>2021-07-01T10:18:00Z</time>
      </trkpt>
      <trkpt lat="43.779797" lon="4.288353">
        <ele>35.36258</ele>
        <time>2021-07-01T10:18:01Z</time>
      </trkpt>
      <trkpt lat="43.779549" lon="4.288123">
        <ele>35.40792</ele>
        <time>2021-07-01T10:18:02Z</time>
      </trkpt>
      <trkpt lat="43.779270" lon="4.287861">
        <ele>35.12442</ele>
        <time>2021-07-01T10:18:03Z</time>
      </trkpt>
      <trkpt lat="43.778996" lon="4.287604">
        <ele>35.03305</ele>
        <time>2021-07-01T10:18:04Z</time>
      </trkpt>
      <trkpt lat="43.778748" lon="4.287387">
        <ele>34.61715</ele>
        <time>2021-07-01T10:18:05Z</time>
      </trkpt>
      <trkpt lat="43.778458" lon="4.287132">
        <ele>34.02963</ele>
        <time>2021-07-01T10:18:06Z</time>
      </trkpt>
      <trkpt lat="43.778210" lon="4.286915">
        <ele>33.91647</ele>
        <time>2021-07-01T10:18:07Z</time>
      </trkpt>
      <trkpt lat="43.777920" lon="4.286659">
        <ele>34.01815</ele>
        <time>2021-07-01T10:18:08Z</time>
      </trkpt>
      <trkpt lat="43.777634" lon="4.286403">
        <ele>33.28787</ele>
        <time>2021-07-01T10:18:09Z</time>
      </trkpt>
      <trkpt lat="43.777374" lon="4.286170">
        <ele>33.02389</ele>
        <time>2021-07-01T10:18:10Z</time>
      </trkpt>
      <trkpt lat="43.777119" lon="4.285939">
        <ele>32.85147</ele>
        <time>2021-07-01T10:18:11Z</time>
      </trkpt>
      <trkpt lat="43.777119" lon="4.285939">
        <ele>32.73635</ele>
        <time>2021-07-01T10:18:12Z</time>
      </trkpt>
      <trkpt lat="43.776852" lon="4.285692">
        <ele>32.32742</ele>
        <time>2021-07-01T10:18:13Z</time>
      </trkpt>
      <trkpt lat="43.776588" lon="4.285443">
        <ele>31.84872</ele>
        <time>2021-07-01T10:18:14Z</time>
      </trkpt>
      <trkpt lat="43.776310" lon="4.285168">
        <ele>31.36013</ele>
        <time>2021-07-01T10:18:15Z</time>
      </trkpt>
      <trkpt lat="43.776058" lon="4.284917">
        <ele>31.42404</ele>
        <time>2021-07-01T10:18:16Z</time>
      </trkpt>
      <trkpt lat="43.775799" lon="4.284640">
        <ele>31.43979</ele>
        <time>2021-07-01T10:18:17Z</time>
      </trkpt>
      <trkpt lat="43.775547" lon="4.284372">
        <ele>31.12808</ele>
        <time>2021-07-01T10:18:18Z</time>
      </trkpt>
      <trkpt lat="43.775314" lon="4.284115">
        <ele>31.06662</ele>
        <time>2021-07-01T10:18:19Z</time>
      </trkpt>
      <trkpt lat="43.775059" lon="4.283827">
        <ele>30.98172</ele>
        <time>2021-07-01T10:18:20Z</time>
      </trkpt>
      <trkpt lat="43.774815" lon="4.283531">
        <ele>30.71676</ele>
        <time>2021-07-01T10:18:21Z</time>
      </trkpt>
      <trkpt lat="43.774574" lon="4.283236">
        <ele>30.53500</ele>
        <time>2021-07-01T10:18:22Z</time>
      </trkpt>
      <trkpt lat="43.774326" lon="4.282920">
        <ele>30.54776</ele>
        <time>2021-07-01T10:18:23Z</time>
      </trkpt>
      <trkpt lat="43.774082" lon="4.282599">
        <ele>30.34042</ele>
        <time>2021-07-01T10:18:24Z</time>
      </trkpt>
      <trkpt lat="43.774021" lon="4.282515">
        <ele>30.61465</ele>
        <time>2021-07-01T10:18:25Z</time>
      </trkpt>
      <trkpt lat="43.773624" lon="4.281957">
        <ele>30.39773</ele>
        <time>2021-07-01T10:18:26Z</time>
      </trkpt>
      <trkpt lat="43.773396" lon="4.281638">
        <ele>30.32174</ele>
        <time>2021-07-01T10:18:27Z</time>
      </trkpt>
      <trkpt lat="43.773193" lon="4.281327">
        <ele>29.88345</ele>
        <time>2021-07-01T10:18:28Z</time>
      </trkpt>
      <trkpt lat="43.772984" lon="4.280997">
        <ele>29.98013</ele>
        <time>2021-07-01T10:18:29Z</time>
      </trkpt>
      <trkpt lat="43.772778" lon="4.280676">
        <ele>29.55453</ele>
        <time>2021-07-01T10:18:30Z</time>
      </trkpt>
      <trkpt lat="43.772594" lon="4.280358">
        <ele>28.78988</ele>
        <time>2021-07-01T10:18:31Z</time>
      </trkpt>
      <trkpt lat="43.772411" lon="4.280054">
        <ele>28.39999</ele>
        <time>2021-07-01T10:18:32Z</time>
      </trkpt>
      <trkpt lat="43.772217" lon="4.279708">
        <ele>28.44308</ele>
        <time>2021-07-01T10:18:33Z</time>
      </trkpt>
      <trkpt lat="43.772026" lon="4.279346">
        <ele>28.49313</ele>
        <time>2021-07-01T10:18:34Z</time>
      </trkpt>
      <trkpt lat="43.771847" lon="4.279000">
        <ele>28.36007</ele>
        <time>2021-07-01T10:18:35Z</time>
      </trkpt>
      <trkpt lat="43.771667" lon="4.278657">
        <ele>28.07461</ele>
        <time>2021-07-01T10:18:36Z</time>
      </trkpt>
      <trkpt lat="43.771488" lon="4.278299">
        <ele>27.72519</ele>
        <time>2021-07-01T10:18:37Z</time>
      </trkpt>
      <trkpt lat="43.771320" lon="4.277952">
        <ele>28.00290</ele>
        <time>2021-07-01T10:18:38Z</time>
      </trkpt>
      <trkpt lat="43.771149" lon="4.277579">
        <ele>28.23538</ele>
        <time>2021-07-01T10:18:39Z</time>
      </trkpt>
      <trkpt lat="43.770992" lon="4.277235">
        <ele>27.81527</ele>
        <time>2021-07-01T10:18:40Z</time>
      </trkpt>
      <trkpt lat="43.770821" lon="4.276821">
        <ele>27.94491</ele>
        <time>2021-07-01T10:18:41Z</time>
      </trkpt>
      <trkpt lat="43.770660" lon="4.276426">
        <ele>28.38327</ele>
        <time>2021-07-01T10:18:42Z</time>
      </trkpt>
      <trkpt lat="43.770500" lon="4.276039">
        <ele>28.42874</ele>
        <time>2021-07-01T10:18:43Z</time>
      </trkpt>
      <trkpt lat="43.770351" lon="4.275672">
        <ele>28.36062</ele>
        <time>2021-07-01T10:18:44Z</time>
      </trkpt>
      <trkpt lat="43.770351" lon="4.275672">
        <ele>28.85952</ele>
        <time>2021-07-01T10:18:45Z</time>
      </trkpt>
      <trkpt lat="43.770218" lon="4.275317">
        <ele>29.39376</ele>
        <time>2021-07-01T10:18:46Z</time>
      </trkpt>
      <trkpt lat="43.770073" lon="4.274926">
        <ele>30.24099</ele>
        <time>2021-07-01T10:18:47Z</time>
      </trkpt>
      <trkpt lat="43.769932" lon="4.274550">
        <ele>30.66439</ele>
        <time>2021-07-01T10:18:48Z</time>
      </trkpt>
      <trkpt lat="43.769783" lon="4.274163">
        <ele>31.58224</ele>
        <time>2021-07-01T10:18:49Z</time>
      </trkpt>
      <trkpt lat="43.769646" lon="4.273797">
        <ele>31.88198</ele>
        <time>2021-07-01T10:18:50Z</time>
      </trkpt>
      <trkpt lat="43.769493" lon="4.273400">
        <ele>32.26101</ele>
        <time>2021-07-01T10:18:51Z</time>
      </trkpt>
      <trkpt lat="43.769348" lon="4.273052">
        <ele>32.66171</ele>
        <time>2021-07-01T10:18:52Z</time>
      </trkpt>
      <trkpt lat="43.769184" lon="4.272679">
        <ele>32.73336</ele>
        <time>2021-07-01T10:18:53Z</time>
      </trkpt>
      <trkpt lat="43.769024" lon="4.272304">
        <ele>33.14920</ele>
        <time>2021-07-01T10:18:54Z</time>
      </trkpt>
      <trkpt lat="43.768864" lon="4.271943">
        <ele>33.72006</ele>
        <time>2021-07-01T10:18:55Z</time>
      </trkpt>
      <trkpt lat="43.768673" lon="4.271557">
        <ele>34.16452</ele>
        <time>2021-07-01T10:18:56Z</time>
      </trkpt>
      <trkpt lat="43.768475" lon="4.271182">
        <ele>34.60385</ele>
        <time>2021-07-01T10:18:57Z</time>
      </trkpt>
      <trkpt lat="43.768272" lon="4.270824">
        <ele>35.17990</ele>
        <time>2021-07-01T10:18:58Z</time>
      </trkpt>
      <trkpt lat="43.768078" lon="4.270494">
        <ele>35.33236</ele>
        <time>2021-07-01T10:18:59Z</time>
      </trkpt>
      <trkpt lat="43.767872" lon="4.270169">
        <ele>35.28939</ele>
        <time>2021-07-01T10:19:00Z</time>
      </trkpt>
      <trkpt lat="43.767658" lon="4.269861">
        <ele>36.27774</ele>
        <time>2021-07-01T10:19:01Z</time>
      </trkpt>
      <trkpt lat="43.767426" lon="4.269523">
        <ele>37.18087</ele>
        <time>2021-07-01T10:19:02Z</time>
      </trkpt>
      <trkpt lat="43.767197" lon="4.269211">
        <ele>38.05270</ele>
        <time>2021-07-01T10:19:03Z</time>
      </trkpt>
      <trkpt lat="43.766937" lon="4.268885">
        <ele>39.02548</ele>
        <time>2021-07-01T10:19:04Z</time>
      </trkpt>
      <trkpt lat="43.766697" lon="4.268585">
        <ele>39.62088</ele>
        <time>2021-07-01T10:19:05Z</time>
      </trkpt>
      <trkpt lat="43.766468" lon="4.268323">
        <ele>40.19088</ele>
        <time>2021-07-01T10:19:06Z</time>
      </trkpt>
      <trkpt lat="43.766201" lon="4.268031">
        <ele>40.82211</ele>
        <time>2021-07-01T10:19:07Z</time>
      </trkpt>
      <trkpt lat="43.765976" lon="4.267801">
        <ele>41.49044</ele>
        <time>2021-07-01T10:19:08Z</time>
      </trkpt>
      <trkpt lat="43.765694" lon="4.267538">
        <ele>41.91824</ele>
        <time>2021-07-01T10:19:09Z</time>
      </trkpt>
      <trkpt lat="43.765438" lon="4.267318">
        <ele>42.25808</ele>
        <time>2021-07-01T10:19:10Z</time>
      </trkpt>
      <trkpt lat="43.765171" lon="4.267098">
        <ele>42.19870</ele>
        <time>2021-07-01T10:19:11Z</time>
      </trkpt>
      <trkpt lat="43.764908" lon="4.266881">
        <ele>42.27822</ele>
        <time>2021-07-01T10:19:12Z</time>
      </trkpt>
      <trkpt lat="43.764629" lon="4.266673">
        <ele>42.63876</ele>
        <time>2021-07-01T10:19:13Z</time>
      </trkpt>
      <trkpt lat="43.764359" lon="4.266474">
        <ele>42.64053</ele>
        <time>2021-07-01T10:19:14Z</time>
      </trkpt>
      <trkpt lat="43.764088" lon="4.266293">
        <ele>42.80526</ele>
        <time>2021-07-01T10:19:15Z</time>
      </trkpt>
      <trkpt lat="43.763786" lon="4.266098">
        <ele>42.75564</ele>
        <time>2021-07-01T10:19:16Z</time>
      </trkpt>
      <trkpt lat="43.763786" lon="4.266098">
        <ele>43.09140</ele>
        <time>2021-07-01T10:19:17Z</time>
      </trkpt>
      <trkpt lat="43.763504" lon="4.265912">
        <ele>43.28659</ele>
        <time>2021-07-01T10:19:18Z</time>
      </trkpt>
      <trkpt lat="43.763203" lon="4.265715">
        <ele>42.54678</ele>
        <time>2021-07-01T10:19:19Z</time>
      </trkpt>
      <trkpt lat="43.762897" lon="4.265529">
        <ele>42.60897</ele>
        <time>2021-07-01T10:19:20Z</time>
      </trkpt>
      <trkpt lat="43.762619" lon="4.265360">
        <ele>42.30593</ele>
        <time>2021-07-01T10:19:21Z</time>
      </trkpt>
      <trkpt lat="43.762344" lon="4.265193">
        <ele>42.20034</ele>
        <time>2021-07-01T10:19:22Z</time>
      </trkpt>
      <trkpt lat="43.762047" lon="4.265002">
        <ele>41.38919</ele>
        <time>2021-07-01T10:19:23Z</time>
      </trkpt>
      <trkpt lat="43.761757" lon="4.264802">
        <ele>41.14633</ele>
        <time>2021-07-01T10:19:24Z</time>
      </trkpt>
      <trkpt lat="43.761478" lon="4.264607">
        <ele>40.63632</ele>
        <time>2021-07-01T10:19:25Z</time>
      </trkpt>
      <trkpt lat="43.761189" lon="4.264375">
        <ele>39.79019</ele>
        <time>2021-07-01T10:19:26Z</time>
      </trkpt>
      <trkpt lat="43.760891" lon="4.264126">
        <ele>39.03457</ele>
        <time>2021-07-01T10:19:27Z</time>
      </trkpt>
      <trkpt lat="43.760597" lon="4.263874">
        <ele>38.17300</ele>
        <time>2021-07-01T10:19:28Z</time>
      </trkpt>
      <trkpt lat="43.760300" lon="4.263615">
        <ele>37.60165</ele>
        <time>2021-07-01T10:19:29Z</time>
      </trkpt>
      <trkpt lat="43.760010" lon="4.263341">
        <ele>36.72042</ele>
        <time>2021-07-01T10:19:30Z</time>
      </trkpt>
      <trkpt lat="43.759716" lon="4.263068">
        <ele>35.55941</ele>
        <time>2021-07-01T10:19:31Z</time>
      </trkpt>
      <trkpt lat="43.759438" lon="4.262812">
        <ele>34.61917</ele>
        <time>2021-07-01T10:19:32Z</time>
      </trkpt>
      <trkpt lat="43.759109" lon="4.262519">
        <ele>33.44326</ele>
        <time>2021-07-01T10:19:33Z</time>
      </trkpt>
      <trkpt lat="43.758820" lon="4.262256">
        <ele>32.31314</ele>
        <time>2021-07-01T10:19:34Z</time>
      </trkpt>
      <trkpt lat="43.758530" lon="4.261984">
        <ele>31.92855</ele>
        <time>2021-07-01T10:19:35Z</time>
      </trkpt>
      <trkpt lat="43.758240" lon="4.261728">
        <ele>31.33078</ele>
        <time>2021-07-01T10:19:36Z</time>
      </trkpt>
      <trkpt lat="43.757957" lon="4.261478">
        <ele>30.37210</ele>
        <time>2021-07-01T10:19:37Z</time>
      </trkpt>
      <trkpt lat="43.757671" lon="4.261222">
        <ele>29.51486</ele>
        <time>2021-07-01T10:19:38Z</time>
      </trkpt>
      <trkpt lat="43.757374" lon="4.260949">
        <ele>29.01608</ele>
        <time>2021-07-01T10:19:39Z</time>
      </trkpt>
      <trkpt lat="43.757076" lon="4.260680">
        <ele>28.47506</ele>
        <time>2021-07-01T10:19:40Z</time>
      </trkpt>
      <trkpt lat="43.756775" lon="4.260404">
        <ele>28.31656</ele>
        <time>2021-07-01T10:19:41Z</time>
      </trkpt>
      <trkpt lat="43.756481" lon="4.260144">
        <ele>27.85568</ele>
        <time>2021-07-01T10:19:42Z</time>
      </trkpt>
      <trkpt lat="43.756481" lon="4.260144">
        <ele>27.64248</ele>
        <time>2021-07-01T10:19:43Z</time>
      </trkpt>
      <trkpt lat="43.756207" lon="4.259908">
        <ele>27.98953</ele>
        <time>2021-07-01T10:19:44Z</time>
      </trkpt>
      <trkpt lat="43.755867" lon="4.259617">
        <ele>28.19815</ele>
        <time>2021-07-01T10:19:45Z</time>
      </trkpt>
      <trkpt lat="43.755566" lon="4.259357">
        <ele>28.66604</ele>
        <time>2021-07-01T10:19:46Z</time>
      </trkpt>
      <trkpt lat="43.755280" lon="4.259098">
        <ele>28.48996</ele>
        <time>2021-07-01T10:19:47Z</time>
      </trkpt>
      <trkpt lat="43.754982" lon="4.258829">
        <ele>28.66513</ele>
        <time>2021-07-01T10:19:48Z</time>
      </trkpt>
      <trkpt lat="43.754665" lon="4.258541">
        <ele>28.84835</ele>
        <time>2021-07-01T10:19:49Z</time>
      </trkpt>
      <trkpt lat="43.754353" lon="4.258256">
        <ele>29.07199</ele>
        <time>2021-07-01T10:19:50Z</time>
      </trkpt>
      <trkpt lat="43.754055" lon="4.257986">
        <ele>28.97409</ele>
        <time>2021-07-01T10:19:51Z</time>
      </trkpt>
      <trkpt lat="43.753777" lon="4.257727">
        <ele>29.51168</ele>
        <time>2021-07-01T10:19:52Z</time>
      </trkpt>
      <trkpt lat="43.753494" lon="4.257465">
        <ele>29.83767</ele>
        <time>2021-07-01T10:19:53Z</time>
      </trkpt>
      <trkpt lat="43.753216" lon="4.257192">
        <ele>29.80459</ele>
        <time>2021-07-01T10:19:54Z</time>
      </trkpt>
      <trkpt lat="43.752956" lon="4.256925">
        <ele>30.06674</ele>
        <time>2021-07-01T10:19:55Z</time>
      </trkpt>
      <trkpt lat="43.752689" lon="4.256645">
        <ele>29.66641</ele>
        <time>2021-07-01T10:19:56Z</time>
      </trkpt>
      <trkpt lat="43.752445" lon="4.256359">
        <ele>29.91897</ele>
        <time>2021-07-01T10:19:57Z</time>
      </trkpt>
      <trkpt lat="43.752178" lon="4.256028">
        <ele>30.25058</ele>
        <time>2021-07-01T10:19:58Z</time>
      </trkpt>
      <trkpt lat="43.751919" lon="4.255703">
        <ele>30.57516</ele>
        <time>2021-07-01T10:19:59Z</time>
      </trkpt>
      <trkpt lat="43.751678" lon="4.255371">
        <ele>30.32718</ele>
        <time>2021-07-01T10:20:00Z</time>
      </trkpt>
      <trkpt lat="43.751442" lon="4.255037">
        <ele>30.54745</ele>
        <time>2021-07-01T10:20:01Z</time>
      </trkpt>
      <trkpt lat="43.751209" lon="4.254668">
        <ele>30.73623</ele>
        <time>2021-07-01T10:20:02Z</time>
      </trkpt>
      <trkpt lat="43.750973" lon="4.254282">
        <ele>30.14322</ele>
        <time>2021-07-01T10:20:03Z</time>
      </trkpt>
      <trkpt lat="43.750767" lon="4.253923">
        <ele>30.25387</ele>
        <time>2021-07-01T10:20:04Z</time>
      </trkpt>
      <trkpt lat="43.750546" lon="4.253508">
        <ele>30.00851</ele>
        <time>2021-07-01T10:20:05Z</time>
      </trkpt>
      <trkpt lat="43.750324" lon="4.253076">
        <ele>29.38034</ele>
        <time>2021-07-01T10:20:06Z</time>
      </trkpt>
      <trkpt lat="43.750141" lon="4.252681">
        <ele>29.46585</ele>
        <time>2021-07-01T10:20:07Z</time>
      </trkpt>
      <trkpt lat="43.749947" lon="4.252250">
        <ele>29.85452</ele>
        <time>2021-07-01T10:20:08Z</time>
      </trkpt>
      <trkpt lat="43.749786" lon="4.251848">
        <ele>29.56991</ele>
        <time>2021-07-01T10:20:09Z</time>
      </trkpt>
      <trkpt lat="43.749615" lon="4.251389">
        <ele>29.68563</ele>
        <time>2021-07-01T10:20:10Z</time>
      </trkpt>
      <trkpt lat="43.749458" lon="4.250960">
        <ele>29.21371</ele>
        <time>2021-07-01T10:20:11Z</time>
      </trkpt>
      <trkpt lat="43.749458" lon="4.250960">
        <ele>29.36361</ele>
        <time>2021-07-01T10:20:12Z</time>
      </trkpt>
      <trkpt lat="43.749298" lon="4.250479">
        <ele>29.07174</ele>
        <time>2021-07-01T10:20:13Z</time>
      </trkpt>
      <trkpt lat="43.749168" lon="4.250025">
        <ele>28.72519</ele>
        <time>2021-07-01T10:20:14Z</time>
      </trkpt>
      <trkpt lat="43.749039" lon="4.249545">
        <ele>28.68325</ele>
        <time>2021-07-01T10:20:15Z</time>
      </trkpt>
      <trkpt lat="43.748920" lon="4.249076">
        <ele>28.96395</ele>
        <time>2021-07-01T10:20:16Z</time>
      </trkpt>
      <trkpt lat="43.748821" lon="4.248614">
        <ele>29.27816</ele>
        <time>2021-07-01T10:20:17Z</time>
      </trkpt>
      <trkpt lat="43.748726" lon="4.248128">
        <ele>29.26498</ele>
        <time>2021-07-01T10:20:18Z</time>
      </trkpt>
      <trkpt lat="43.748650" lon="4.247648">
        <ele>29.38412</ele>
        <time>2021-07-01T10:20:19Z</time>
      </trkpt>
      <trkpt lat="43.748585" lon="4.247186">
        <ele>29.59695</ele>
        <time>2021-07-01T10:20:20Z</time>
      </trkpt>
      <trkpt lat="43.748516" lon="4.246717">
        <ele>29.73928</ele>
        <time>2021-07-01T10:20:21Z</time>
      </trkpt>
      <trkpt lat="43.748463" lon="4.246223">
        <ele>29.84579</ele>
        <time>2021-07-01T10:20:22Z</time>
      </trkpt>
      <trkpt lat="43.748417" lon="4.245693">
        <ele>29.85440</ele>
        <time>2021-07-01T10:20:23Z</time>
      </trkpt>
      <trkpt lat="43.748386" lon="4.245209">
        <ele>29.56149</ele>
        <time>2021-07-01T10:20:24Z</time>
      </trkpt>
      <trkpt lat="43.748371" lon="4.244726">
        <ele>29.78347</ele>
        <time>2021-07-01T10:20:25Z</time>
      </trkpt>
      <trkpt lat="43.748363" lon="4.244225">
        <ele>29.90939</ele>
        <time>2021-07-01T10:20:26Z</time>
      </trkpt>
      <trkpt lat="43.748367" lon="4.243752">
        <ele>29.91934</ele>
        <time>2021-07-01T10:20:27Z</time>
      </trkpt>
      <trkpt lat="43.748383" lon="4.243305">
        <ele>30.15121</ele>
        <time>2021-07-01T10:20:28Z</time>
      </trkpt>
      <trkpt lat="43.748402" lon="4.242828">
        <ele>30.80453</ele>
        <time>2021-07-01T10:20:29Z</time>
      </trkpt>
      <trkpt lat="43.748440" lon="4.242352">
        <ele>31.73874</ele>
        <time>2021-07-01T10:20:30Z</time>
      </trkpt>
      <trkpt lat="43.748482" lon="4.241912">
        <ele>31.99289</ele>
        <time>2021-07-01T10:20:31Z</time>
      </trkpt>
      <trkpt lat="43.748543" lon="4.241462">
        <ele>32.49600</ele>
        <time>2021-07-01T10:20:32Z</time>
      </trkpt>
      <trkpt lat="43.748608" lon="4.240999">
        <ele>32.59298</ele>
        <time>2021-07-01T10:20:33Z</time>
      </trkpt>
      <trkpt lat="43.748669" lon="4.240563">
        <ele>33.24374</ele>
        <time>2021-07-01T10:20:34Z</time>
      </trkpt>
      <trkpt lat="43.748726" lon="4.240139">
        <ele>33.42294</ele>
        <time>2021-07-01T10:20:35Z</time>
      </trkpt>
      <trkpt lat="43.748791" lon="4.239659">
        <ele>33.70767</ele>
        <time>2021-07-01T10:20:36Z</time>
      </trkpt>
      <trkpt lat="43.748848" lon="4.239236">
        <ele>33.76260</ele>
        <time>2021-07-01T10:20:37Z</time>
      </trkpt>
      <trkpt lat="43.748909" lon="4.238803">
        <ele>34.41397</ele>
        <time>2021-07-01T10:20:38Z</time>
      </trkpt>
      <trkpt lat="43.748966" lon="4.238382">
        <ele>34.74472</ele>
        <time>2021-07-01T10:20:39Z</time>
      </trkpt>
      <trkpt lat="43.749020" lon="4.237997">
        <ele>34.55642</ele>
        <time>2021-07-01T10:20:40Z</time>
      </trkpt>
      <trkpt lat="43.749077" lon="4.237566">
        <ele>34.93069</ele>
        <time>2021-07-01T10:20:41Z</time>
      </trkpt>
      <trkpt lat="43.749134" lon="4.237134">
        <ele>35.55954</ele>
        <time>2021-07-01T10:20:42Z</time>
      </trkpt>
      <trkpt lat="43.749134" lon="4.237134">
        <ele>36.01071</ele>
        <time>2021-07-01T10:20:43Z</time>
      </trkpt>
      <trkpt lat="43.749199" lon="4.236673">
        <ele>36.01828</ele>
        <time>2021-07-01T10:20:44Z</time>
      </trkpt>
      <trkpt lat="43.749252" lon="4.236267">
        <ele>36.16726</ele>
        <time>2021-07-01T10:20:45Z</time>
      </trkpt>
      <trkpt lat="43.749313" lon="4.235829">
        <ele>36.45224</ele>
        <time>2021-07-01T10:20:46Z</time>
      </trkpt>
      <trkpt lat="43.749367" lon="4.235442">
        <ele>36.78079</ele>
        <time>2021-07-01T10:20:47Z</time>
      </trkpt>
      <trkpt lat="43.749424" lon="4.235017">
        <ele>37.09060</ele>
        <time>2021-07-01T10:20:48Z</time>
      </trkpt>
      <trkpt lat="43.749474" lon="4.234654">
        <ele>37.46231</ele>
        <time>2021-07-01T10:20:49Z</time>
      </trkpt>
      <trkpt lat="43.749531" lon="4.234244">
        <ele>37.51480</ele>
        <time>2021-07-01T10:20:50Z</time>
      </trkpt>
      <trkpt lat="43.749580" lon="4.233866">
        <ele>38.11508</ele>
        <time>2021-07-01T10:20:51Z</time>
      </trkpt>
      <trkpt lat="43.749641" lon="4.233449">
        <ele>37.95877</ele>
        <time>2021-07-01T10:20:52Z</time>
      </trkpt>
      <trkpt lat="43.749699" lon="4.233071">
        <ele>37.86374</ele>
        <time>2021-07-01T10:20:53Z</time>
      </trkpt>
      <trkpt lat="43.749752" lon="4.232673">
        <ele>38.45364</ele>
        <time>2021-07-01T10:20:54Z</time>
      </trkpt>
      <trkpt lat="43.749802" lon="4.232273">
        <ele>38.44900</ele>
        <time>2021-07-01T10:20:55Z</time>
      </trkpt>
      <trkpt lat="43.749851" lon="4.231900">
        <ele>38.61209</ele>
        <time>2021-07-01T10:20:56Z</time>
      </trkpt>
      <trkpt lat="43.749905" lon="4.231498">
        <ele>38.70950</ele>
        <time>2021-07-01T10:20:57Z</time>
      </trkpt>
      <trkpt lat="43.749962" lon="4.231079">
        <ele>38.94009</ele>
        <time>2021-07-01T10:20:58Z</time>
      </trkpt>
      <trkpt lat="43.750023" lon="4.230640">
        <ele>39.09805</ele>
        <time>2021-07-01T10:20:59Z</time>
      </trkpt>
      <trkpt lat="43.750080" lon="4.230211">
        <ele>39.29715</ele>
        <time>2021-07-01T10:21:00Z</time>
      </trkpt>
      <trkpt lat="43.750137" lon="4.229810">
        <ele>39.48458</ele>
        <time>2021-07-01T10:21:01Z</time>
      </trkpt>
      <trkpt lat="43.750195" lon="4.229390">
        <ele>39.55490</ele>
        <time>2021-07-01T10:21:02Z</time>
      </trkpt>
      <trkpt lat="43.750248" lon="4.228997">
        <ele>39.93997</ele>
        <time>2021-07-01T10:21:03Z</time>
      </trkpt>
      <trkpt lat="43.750305" lon="4.228577">
        <ele>39.43869</ele>
        <time>2021-07-01T10:21:04Z</time>
      </trkpt>
      <trkpt lat="43.750362" lon="4.228144">
        <ele>39.66781</ele>
        <time>2021-07-01T10:21:05Z</time>
      </trkpt>
      <trkpt lat="43.750416" lon="4.227734">
        <ele>39.55502</ele>
        <time>2021-07-01T10:21:06Z</time>
      </trkpt>
      <trkpt lat="43.750473" lon="4.227310">
        <ele>39.44510</ele>
        <time>2021-07-01T10:21:07Z</time>
      </trkpt>
      <trkpt lat="43.750526" lon="4.226898">
        <ele>39.59353</ele>
        <time>2021-07-01T10:21:08Z</time>
      </trkpt>
      <trkpt lat="43.750576" lon="4.226493">
        <ele>39.90731</ele>
        <time>2021-07-01T10:21:09Z</time>
      </trkpt>
      <trkpt lat="43.750626" lon="4.226076">
        <ele>40.03939</ele>
        <time>2021-07-01T10:21:10Z</time>
      </trkpt>
      <trkpt lat="43.750675" lon="4.225712">
        <ele>40.19326</ele>
        <time>2021-07-01T10:21:11Z</time>
      </trkpt>
      <trkpt lat="43.750732" lon="4.225299">
        <ele>39.95871</ele>
        <time>2021-07-01T10:21:12Z</time>
      </trkpt>
      <trkpt lat="43.750790" lon="4.224884">
        <ele>40.12143</ele>
        <time>2021-07-01T10:21:13Z</time>
      </trkpt>
      <trkpt lat="43.750839" lon="4.224483">
        <ele>40.36422</ele>
        <time>2021-07-01T10:21:14Z</time>
      </trkpt>
      <trkpt lat="43.750839" lon="4.224483">
        <ele>40.32309</ele>
        <time>2021-07-01T10:21:15Z</time>
      </trkpt>
      <trkpt lat="43.750889" lon="4.224066">
        <ele>40.24551</ele>
        <time>2021-07-01T10:21:16Z</time>
      </trkpt>
      <trkpt lat="43.750938" lon="4.223628">
        <ele>39.87027</ele>
        <time>2021-07-01T10:21:17Z</time>
      </trkpt>
      <trkpt lat="43.750988" lon="4.223172">
        <ele>39.34372</ele>
        <time>2021-07-01T10:21:18Z</time>
      </trkpt>
      <trkpt lat="43.751030" lon="4.222723">
        <ele>39.37075</ele>
        <time>2021-07-01T10:21:19Z</time>
      </trkpt>
      <trkpt lat="43.751072" lon="4.222297">
        <ele>39.29232</ele>
        <time>2021-07-01T10:21:20Z</time>
      </trkpt>
      <trkpt lat="43.751110" lon="4.221869">
        <ele>38.94247</ele>
        <time>2021-07-01T10:21:21Z</time>
      </trkpt>
      <trkpt lat="43.751148" lon="4.221429">
        <ele>38.97531</ele>
        <time>2021-07-01T10:21:22Z</time>
      </trkpt>
      <trkpt lat="43.751183" lon="4.220991">
        <ele>39.13034</ele>
        <time>2021-07-01T10:21:23Z</time>
      </trkpt>
      <trkpt lat="43.751194" lon="4.220545">
        <ele>39.55319</ele>
        <time>2021-07-01T10:21:24Z</time>
      </trkpt>
      <trkpt lat="43.751202" lon="4.220108">
        <ele>39.87698</ele>
        <time>2021-07-01T10:21:25Z</time>
      </trkpt>
      <trkpt lat="43.751202" lon="4.219634">
        <ele>39.84396</ele>
        <time>2021-07-01T10:21:26Z</time>
      </trkpt>
      <trkpt lat="43.751202" lon="4.219189">
        <ele>39.77810</ele>
        <time>2021-07-01T10:21:27Z</time>
      </trkpt>
      <trkpt lat="43.751194" lon="4.218752">
        <ele>39.15158</ele>
        <time>2021-07-01T10:21:28Z</time>
      </trkpt>
      <trkpt lat="43.751186" lon="4.218324">
        <ele>38.58731</ele>
        <time>2021-07-01T10:21:29Z</time>
      </trkpt>
      <trkpt lat="43.751163" lon="4.217878">
        <ele>38.32101</ele>
        <time>2021-07-01T10:21:30Z</time>
      </trkpt>
      <trkpt lat="43.751141" lon="4.217422">
        <ele>37.86691</ele>
        <time>2021-07-01T10:21:31Z</time>
      </trkpt>
      <trkpt lat="43.751106" lon="4.216967">
        <ele>36.91385</ele>
        <time>2021-07-01T10:21:32Z</time>
      </trkpt>
      <trkpt lat="43.751068" lon="4.216496">
        <ele>36.16458</ele>
        <time>2021-07-01T10:21:33Z</time>
      </trkpt>
      <trkpt lat="43.751026" lon="4.216038">
        <ele>35.38437</ele>
        <time>2021-07-01T10:21:34Z</time>
      </trkpt>
      <trkpt lat="43.750977" lon="4.215567">
        <ele>34.51254</ele>
        <time>2021-07-01T10:21:35Z</time>
      </trkpt>
      <trkpt lat="43.750923" lon="4.215102">
        <ele>33.84811</ele>
        <time>2021-07-01T10:21:36Z</time>
      </trkpt>
      <trkpt lat="43.750858" lon="4.214674">
        <ele>33.58322</ele>
        <time>2021-07-01T10:21:37Z</time>
      </trkpt>
      <trkpt lat="43.750786" lon="4.214197">
        <ele>32.91610</ele>
        <time>2021-07-01T10:21:38Z</time>
      </trkpt>
      <trkpt lat="43.750713" lon="4.213725">
        <ele>32.36935</ele>
        <time>2021-07-01T10:21:39Z</time>
      </trkpt>
      <trkpt lat="43.750629" lon="4.213275">
        <ele>31.48751</ele>
        <time>2021-07-01T10:21:40Z</time>
      </trkpt>
      <trkpt lat="43.750553" lon="4.212859">
        <ele>30.84958</ele>
        <time>2021-07-01T10:21:41Z</time>
      </trkpt>
      <trkpt lat="43.750462" lon="4.212416">
        <ele>30.16153</ele>
        <time>2021-07-01T10:21:42Z</time>
      </trkpt>
      <trkpt lat="43.750347" lon="4.211925">
        <ele>29.81875</ele>
        <time>2021-07-01T10:21:43Z</time>
      </trkpt>
      <trkpt lat="43.750240" lon="4.211459">
        <ele>28.72702</ele>
        <time>2021-07-01T10:21:44Z</time>
      </trkpt>
      <trkpt lat="43.750122" lon="4.210995">
        <ele>28.07638</ele>
        <time>2021-07-01T10:21:45Z</time>
      </trkpt>
      <trkpt lat="43.750122" lon="4.210995">
        <ele>27.10464</ele>
        <time>2021-07-01T10:21:46Z</time>
      </trkpt>
      <trkpt lat="43.750008" lon="4.210556">
        <ele>26.11709</ele>
        <time>2021-07-01T10:21:47Z</time>
      </trkpt>
      <trkpt lat="43.749886" lon="4.210152">
        <ele>25.67813</ele>
        <time>2021-07-01T10:21:48Z</time>
      </trkpt>
      <trkpt lat="43.749752" lon="4.209701">
        <ele>25.62716</ele>
        <time>2021-07-01T10:21:49Z</time>
      </trkpt>
      <trkpt lat="43.749611" lon="4.209256">
        <ele>25.39572</ele>
        <time>2021-07-01T10:21:50Z</time>
      </trkpt>
      <trkpt lat="43.749466" lon="4.208816">
        <ele>25.39993</ele>
        <time>2021-07-01T10:21:51Z</time>
      </trkpt>
      <trkpt lat="43.749313" lon="4.208389">
        <ele>25.72860</ele>
        <time>2021-07-01T10:21:52Z</time>
      </trkpt>
      <trkpt lat="43.749157" lon="4.207979">
        <ele>25.97891</ele>
        <time>2021-07-01T10:21:53Z</time>
      </trkpt>
      <trkpt lat="43.748993" lon="4.207563">
        <ele>26.23141</ele>
        <time>2021-07-01T10:21:54Z</time>
      </trkpt>
      <trkpt lat="43.748833" lon="4.207161">
        <ele>26.27310</ele>
        <time>2021-07-01T10:21:55Z</time>
      </trkpt>
      <trkpt lat="43.748669" lon="4.206753">
        <ele>26.36471</ele>
        <time>2021-07-01T10:21:56Z</time>
      </trkpt>
      <trkpt lat="43.748489" lon="4.206347">
        <ele>26.94931</ele>
        <time>2021-07-01T10:21:57Z</time>
      </trkpt>
      <trkpt lat="43.748295" lon="4.205905">
        <ele>27.34634</ele>
        <time>2021-07-01T10:21:58Z</time>
      </trkpt>
      <trkpt lat="43.748096" lon="4.205486">
        <ele>28.24044</ele>
        <time>2021-07-01T10:21:59Z</time>
      </trkpt>
      <trkpt lat="43.747902" lon="4.205089">
        <ele>29.37057</ele>
        <time>2021-07-01T10:22:00Z</time>
      </trkpt>
      <trkpt lat="43.747719" lon="4.204711">
        <ele>30.33407</ele>
        <time>2021-07-01T10:22:01Z</time>
      </trkpt>
      <trkpt lat="43.747520" lon="4.204338">
        <ele>31.42410</ele>
        <time>2021-07-01T10:22:02Z</time>
      </trkpt>
      <trkpt lat="43.747307" lon="4.203948">
        <ele>32.35305</ele>
        <time>2021-07-01T10:22:03Z</time>
      </trkpt>
      <trkpt lat="43.747116" lon="4.203598">
        <ele>33.39218</ele>
        <time>2021-07-01T10:22:04Z</time>
      </trkpt>
      <trkpt lat="43.746910" lon="4.203244">
        <ele>34.40091</ele>
        <time>2021-07-01T10:22:05Z</time>
      </trkpt>
      <trkpt lat="43.746700" lon="4.202901">
        <ele>34.57541</ele>
        <time>2021-07-01T10:22:06Z</time>
      </trkpt>
      <trkpt lat="43.746506" lon="4.202577">
        <ele>35.49838</ele>
        <time>2021-07-01T10:22:07Z</time>
      </trkpt>
      <trkpt lat="43.746292" lon="4.202235">
        <ele>36.36300</ele>
        <time>2021-07-01T10:22:08Z</time>
      </trkpt>
      <trkpt lat="43.746067" lon="4.201915">
        <ele>37.29538</ele>
        <time>2021-07-01T10:22:09Z</time>
      </trkpt>
      <trkpt lat="43.745846" lon="4.201600">
        <ele>38.27999</ele>
        <time>2021-07-01T10:22:10Z</time>
      </trkpt>
      <trkpt lat="43.745613" lon="4.201271">
        <ele>39.22726</ele>
        <time>2021-07-01T10:22:11Z</time>
      </trkpt>
      <trkpt lat="43.745377" lon="4.200949">
        <ele>40.29898</ele>
        <time>2021-07-01T10:22:12Z</time>
      </trkpt>
      <trkpt lat="43.745129" lon="4.200629">
        <ele>41.80423</ele>
        <time>2021-07-01T10:22:13Z</time>
      </trkpt>
      <trkpt lat="43.744915" lon="4.200355">
        <ele>42.74728</ele>
        <time>2021-07-01T10:22:14Z</time>
      </trkpt>
      <trkpt lat="43.744629" lon="4.200014">
        <ele>43.69436</ele>
        <time>2021-07-01T10:22:15Z</time>
      </trkpt>
      <trkpt lat="43.744370" lon="4.199704">
        <ele>44.60617</ele>
        <time>2021-07-01T10:22:16Z</time>
      </trkpt>
      <trkpt lat="43.744102" lon="4.199388">
        <ele>45.80160</ele>
        <time>2021-07-01T10:22:17Z</time>
      </trkpt>
      <trkpt lat="43.744102" lon="4.199388">
        <ele>46.35855</ele>
        <time>2021-07-01T10:22:18Z</time>
      </trkpt>
      <trkpt lat="43.743839" lon="4.199098">
        <ele>47.09945</ele>
        <time>2021-07-01T10:22:19Z</time>
      </trkpt>
      <trkpt lat="43.743267" lon="4.198509">
        <ele>48.04599</ele>
        <time>2021-07-01T10:22:20Z</time>
      </trkpt>
      <trkpt lat="43.743267" lon="4.198509">
        <ele>48.62240</ele>
        <time>2021-07-01T10:22:21Z</time>
      </trkpt>
      <trkpt lat="43.743000" lon="4.198249">
        <ele>48.86007</ele>
        <time>2021-07-01T10:22:22Z</time>
      </trkpt>
      <trkpt lat="43.742737" lon="4.198009">
        <ele>49.26657</ele>
        <time>2021-07-01T10:22:23Z</time>
      </trkpt>
      <trkpt lat="43.742443" lon="4.197740">
        <ele>49.66995</ele>
        <time>2021-07-01T10:22:24Z</time>
      </trkpt>
      <trkpt lat="43.742153" lon="4.197484">
        <ele>49.97165</ele>
        <time>2021-07-01T10:22:25Z</time>
      </trkpt>
      <trkpt lat="43.741852" lon="4.197224">
        <ele>50.13467</ele>
        <time>2021-07-01T10:22:26Z</time>
      </trkpt>
      <trkpt lat="43.741573" lon="4.197002">
        <ele>50.23404</ele>
        <time>2021-07-01T10:22:27Z</time>
      </trkpt>
      <trkpt lat="43.741264" lon="4.196763">
        <ele>50.08297</ele>
        <time>2021-07-01T10:22:28Z</time>
      </trkpt>
      <trkpt lat="43.740963" lon="4.196544">
        <ele>49.76449</ele>
        <time>2021-07-01T10:22:29Z</time>
      </trkpt>
      <trkpt lat="43.740643" lon="4.196320">
        <ele>49.31881</ele>
        <time>2021-07-01T10:22:30Z</time>
      </trkpt>
      <trkpt lat="43.740330" lon="4.196111">
        <ele>49.43588</ele>
        <time>2021-07-01T10:22:31Z</time>
      </trkpt>
      <trkpt lat="43.739998" lon="4.195894">
        <ele>48.95028</ele>
        <time>2021-07-01T10:22:32Z</time>
      </trkpt>
      <trkpt lat="43.739693" lon="4.195709">
        <ele>48.56686</ele>
        <time>2021-07-01T10:22:33Z</time>
      </trkpt>
      <trkpt lat="43.739357" lon="4.195514">
        <ele>48.08938</ele>
        <time>2021-07-01T10:22:34Z</time>
      </trkpt>
      <trkpt lat="43.738991" lon="4.195307">
        <ele>47.53799</ele>
        <time>2021-07-01T10:22:35Z</time>
      </trkpt>
      <trkpt lat="43.738625" lon="4.195130">
        <ele>47.22763</ele>
        <time>2021-07-01T10:22:36Z</time>
      </trkpt>
      <trkpt lat="43.738586" lon="4.195111">
        <ele>46.87838</ele>
        <time>2021-07-01T10:22:37Z</time>
      </trkpt>
      <trkpt lat="43.737827" lon="4.194781">
        <ele>46.76815</ele>
        <time>2021-07-01T10:22:38Z</time>
      </trkpt>
      <trkpt lat="43.737541" lon="4.194666">
        <ele>46.44760</ele>
        <time>2021-07-01T10:22:39Z</time>
      </trkpt>
      <trkpt lat="43.737190" lon="4.194524">
        <ele>46.36990</ele>
        <time>2021-07-01T10:22:40Z</time>
      </trkpt>
      <trkpt lat="43.737190" lon="4.194524">
        <ele>45.93179</ele>
        <time>2021-07-01T10:22:41Z</time>
      </trkpt>
      <trkpt lat="43.736858" lon="4.194389">
        <ele>45.39987</ele>
        <time>2021-07-01T10:22:42Z</time>
      </trkpt>
      <trkpt lat="43.736546" lon="4.194266">
        <ele>45.01797</ele>
        <time>2021-07-01T10:22:43Z</time>
      </trkpt>
      <trkpt lat="43.736240" lon="4.194145">
        <ele>44.92044</ele>
        <time>2021-07-01T10:22:44Z</time>
      </trkpt>
      <trkpt lat="43.735920" lon="4.194016">
        <ele>45.59396</ele>
        <time>2021-07-01T10:22:45Z</time>
      </trkpt>
      <trkpt lat="43.735588" lon="4.193879">
        <ele>45.13766</ele>
        <time>2021-07-01T10:22:46Z</time>
      </trkpt>
      <trkpt lat="43.735256" lon="4.193742">
        <ele>45.02285</ele>
        <time>2021-07-01T10:22:47Z</time>
      </trkpt>
      <trkpt lat="43.734943" lon="4.193609">
        <ele>44.84286</ele>
        <time>2021-07-01T10:22:48Z</time>
      </trkpt>
      <trkpt lat="43.734596" lon="4.193443">
        <ele>43.86282</ele>
        <time>2021-07-01T10:22:49Z</time>
      </trkpt>
      <trkpt lat="43.734241" lon="4.193260">
        <ele>43.48062</ele>
        <time>2021-07-01T10:22:50Z</time>
      </trkpt>
      <trkpt lat="43.733913" lon="4.193070">
        <ele>42.92727</ele>
        <time>2021-07-01T10:22:51Z</time>
      </trkpt>
      <trkpt lat="43.733582" lon="4.192864">
        <ele>42.43698</ele>
        <time>2021-07-01T10:22:52Z</time>
      </trkpt>
      <trkpt lat="43.733261" lon="4.192645">
        <ele>41.87576</ele>
        <time>2021-07-01T10:22:53Z</time>
      </trkpt>
      <trkpt lat="43.732941" lon="4.192420">
        <ele>41.28549</ele>
        <time>2021-07-01T10:22:54Z</time>
      </trkpt>
      <trkpt lat="43.732632" lon="4.192173">
        <ele>39.98324</ele>
        <time>2021-07-01T10:22:55Z</time>
      </trkpt>
      <trkpt lat="43.732334" lon="4.191931">
        <ele>39.25949</ele>
        <time>2021-07-01T10:22:56Z</time>
      </trkpt>
      <trkpt lat="43.732048" lon="4.191663">
        <ele>38.23050</ele>
        <time>2021-07-01T10:22:57Z</time>
      </trkpt>
      <trkpt lat="43.731770" lon="4.191396">
        <ele>37.31955</ele>
        <time>2021-07-01T10:22:58Z</time>
      </trkpt>
      <trkpt lat="43.731487" lon="4.191121">
        <ele>36.11239</ele>
        <time>2021-07-01T10:22:59Z</time>
      </trkpt>
      <trkpt lat="43.731205" lon="4.190833">
        <ele>35.58114</ele>
        <time>2021-07-01T10:23:00Z</time>
      </trkpt>
      <trkpt lat="43.730927" lon="4.190522">
        <ele>34.46914</ele>
        <time>2021-07-01T10:23:01Z</time>
      </trkpt>
      <trkpt lat="43.730652" lon="4.190199">
        <ele>33.53494</ele>
        <time>2021-07-01T10:23:02Z</time>
      </trkpt>
      <trkpt lat="43.730381" lon="4.189859">
        <ele>32.22683</ele>
        <time>2021-07-01T10:23:03Z</time>
      </trkpt>
      <trkpt lat="43.730125" lon="4.189511">
        <ele>31.10171</ele>
        <time>2021-07-01T10:23:04Z</time>
      </trkpt>
      <trkpt lat="43.729862" lon="4.189138">
        <ele>30.35775</ele>
        <time>2021-07-01T10:23:05Z</time>
      </trkpt>
      <trkpt lat="43.729603" lon="4.188735">
        <ele>29.41671</ele>
        <time>2021-07-01T10:23:06Z</time>
      </trkpt>
      <trkpt lat="43.729366" lon="4.188332">
        <ele>28.49893</ele>
        <time>2021-07-01T10:23:07Z</time>
      </trkpt>
      <trkpt lat="43.729149" lon="4.187930">
        <ele>28.13516</ele>
        <time>2021-07-01T10:23:08Z</time>
      </trkpt>
      <trkpt lat="43.728931" lon="4.187516">
        <ele>27.66244</ele>
        <time>2021-07-01T10:23:09Z</time>
      </trkpt>
      <trkpt lat="43.728729" lon="4.187128">
        <ele>27.29519</ele>
        <time>2021-07-01T10:23:10Z</time>
      </trkpt>
      <trkpt lat="43.728512" lon="4.186710">
        <ele>27.11392</ele>
        <time>2021-07-01T10:23:11Z</time>
      </trkpt>
      <trkpt lat="43.728512" lon="4.186710">
        <ele>26.93112</ele>
        <time>2021-07-01T10:23:12Z</time>
      </trkpt>
      <trkpt lat="43.728348" lon="4.186355">
        <ele>26.92355</ele>
        <time>2021-07-01T10:23:13Z</time>
      </trkpt>
      <trkpt lat="43.728165" lon="4.185944">
        <ele>27.37069</ele>
        <time>2021-07-01T10:23:14Z</time>
      </trkpt>
      <trkpt lat="43.727974" lon="4.185490">
        <ele>27.32498</ele>
        <time>2021-07-01T10:23:15Z</time>
      </trkpt>
      <trkpt lat="43.727818" lon="4.185054">
        <ele>28.03109</ele>
        <time>2021-07-01T10:23:16Z</time>
      </trkpt>
      <trkpt lat="43.727665" lon="4.184629">
        <ele>28.26144</ele>
        <time>2021-07-01T10:23:17Z</time>
      </trkpt>
      <trkpt lat="43.727543" lon="4.184241">
        <ele>28.87149</ele>
        <time>2021-07-01T10:23:18Z</time>
      </trkpt>
      <trkpt lat="43.727417" lon="4.183864">
        <ele>29.67086</ele>
        <time>2021-07-01T10:23:19Z</time>
      </trkpt>
      <trkpt lat="43.727272" lon="4.183413">
        <ele>29.10598</ele>
        <time>2021-07-01T10:23:20Z</time>
      </trkpt>
      <trkpt lat="43.727173" lon="4.183032">
        <ele>29.09384</ele>
        <time>2021-07-01T10:23:21Z</time>
      </trkpt>
      <trkpt lat="43.727081" lon="4.182675">
        <ele>29.18161</ele>
        <time>2021-07-01T10:23:22Z</time>
      </trkpt>
      <trkpt lat="43.726994" lon="4.182355">
        <ele>29.73281</ele>
        <time>2021-07-01T10:23:23Z</time>
      </trkpt>
      <trkpt lat="43.726913" lon="4.182056">
        <ele>29.54452</ele>
        <time>2021-07-01T10:23:24Z</time>
      </trkpt>
      <trkpt lat="43.726830" lon="4.181744">
        <ele>29.96005</ele>
        <time>2021-07-01T10:23:25Z</time>
      </trkpt>
      <trkpt lat="43.726746" lon="4.181418">
        <ele>30.25839</ele>
        <time>2021-07-01T10:23:26Z</time>
      </trkpt>
      <trkpt lat="43.726658" lon="4.181096">
        <ele>30.87942</ele>
        <time>2021-07-01T10:23:27Z</time>
      </trkpt>
      <trkpt lat="43.726570" lon="4.180757">
        <ele>31.58065</ele>
        <time>2021-07-01T10:23:28Z</time>
      </trkpt>
      <trkpt lat="43.726494" lon="4.180460">
        <ele>32.04385</ele>
        <time>2021-07-01T10:23:29Z</time>
      </trkpt>
      <trkpt lat="43.726402" lon="4.180121">
        <ele>32.34506</ele>
        <time>2021-07-01T10:23:30Z</time>
      </trkpt>
      <trkpt lat="43.726330" lon="4.179781">
        <ele>32.50601</ele>
        <time>2021-07-01T10:23:31Z</time>
      </trkpt>
      <trkpt lat="43.726254" lon="4.179449">
        <ele>32.82797</ele>
        <time>2021-07-01T10:23:32Z</time>
      </trkpt>
      <trkpt lat="43.726177" lon="4.179121">
        <ele>33.38028</ele>
        <time>2021-07-01T10:23:33Z</time>
      </trkpt>
      <trkpt lat="43.726120" lon="4.178808">
        <ele>33.52713</ele>
        <time>2021-07-01T10:23:34Z</time>
      </trkpt>
      <trkpt lat="43.726048" lon="4.178435">
        <ele>33.80166</ele>
        <time>2021-07-01T10:23:35Z</time>
      </trkpt>
      <trkpt lat="43.725967" lon="4.178050">
        <ele>33.65902</ele>
        <time>2021-07-01T10:23:36Z</time>
      </trkpt>
      <trkpt lat="43.725895" lon="4.177692">
        <ele>33.81625</ele>
        <time>2021-07-01T10:23:37Z</time>
      </trkpt>
      <trkpt lat="43.725819" lon="4.177322">
        <ele>34.23568</ele>
        <time>2021-07-01T10:23:38Z</time>
      </trkpt>
      <trkpt lat="43.725742" lon="4.176942">
        <ele>34.22519</ele>
        <time>2021-07-01T10:23:39Z</time>
      </trkpt>
      <trkpt lat="43.725666" lon="4.176529">
        <ele>34.70785</ele>
        <time>2021-07-01T10:23:40Z</time>
      </trkpt>
      <trkpt lat="43.725666" lon="4.176529">
        <ele>34.52499</ele>
        <time>2021-07-01T10:23:41Z</time>
      </trkpt>
      <trkpt lat="43.725601" lon="4.176168">
        <ele>34.81521</ele>
        <time>2021-07-01T10:23:42Z</time>
      </trkpt>
      <trkpt lat="43.725525" lon="4.175723">
        <ele>35.09799</ele>
        <time>2021-07-01T10:23:43Z</time>
      </trkpt>
      <trkpt lat="43.725460" lon="4.175359">
        <ele>35.24520</ele>
        <time>2021-07-01T10:23:44Z</time>
      </trkpt>
      <trkpt lat="43.725403" lon="4.174974">
        <ele>35.89267</ele>
        <time>2021-07-01T10:23:45Z</time>
      </trkpt>
      <trkpt lat="43.725342" lon="4.174581">
        <ele>36.38455</ele>
        <time>2021-07-01T10:23:46Z</time>
      </trkpt>
      <trkpt lat="43.725227" lon="4.173834">
        <ele>36.44516</ele>
        <time>2021-07-01T10:23:47Z</time>
      </trkpt>
      <trkpt lat="43.725227" lon="4.173834">
        <ele>36.74154</ele>
        <time>2021-07-01T10:23:48Z</time>
      </trkpt>
      <trkpt lat="43.725178" lon="4.173476">
        <ele>37.11178</ele>
        <time>2021-07-01T10:23:49Z</time>
      </trkpt>
      <trkpt lat="43.725128" lon="4.173119">
        <ele>37.20443</ele>
        <time>2021-07-01T10:23:50Z</time>
      </trkpt>
      <trkpt lat="43.725071" lon="4.172725">
        <ele>37.26400</ele>
        <time>2021-07-01T10:23:51Z</time>
      </trkpt>
      <trkpt lat="43.725025" lon="4.172377">
        <ele>37.39645</ele>
        <time>2021-07-01T10:23:52Z</time>
      </trkpt>
      <trkpt lat="43.724983" lon="4.172015">
        <ele>37.39926</ele>
        <time>2021-07-01T10:23:53Z</time>
      </trkpt>
      <trkpt lat="43.724937" lon="4.171601">
        <ele>37.52829</ele>
        <time>2021-07-01T10:23:54Z</time>
      </trkpt>
      <trkpt lat="43.724903" lon="4.171190">
        <ele>37.29086</ele>
        <time>2021-07-01T10:23:55Z</time>
      </trkpt>
      <trkpt lat="43.724873" lon="4.170825">
        <ele>36.98153</ele>
        <time>2021-07-01T10:23:56Z</time>
      </trkpt>
      <trkpt lat="43.724834" lon="4.170425">
        <ele>36.60336</ele>
        <time>2021-07-01T10:23:57Z</time>
      </trkpt>
      <trkpt lat="43.724800" lon="4.170005">
        <ele>36.68032</ele>
        <time>2021-07-01T10:23:58Z</time>
      </trkpt>
      <trkpt lat="43.724770" lon="4.169605">
        <ele>37.35183</ele>
        <time>2021-07-01T10:23:59Z</time>
      </trkpt>
      <trkpt lat="43.724739" lon="4.169193">
        <ele>36.92184</ele>
        <time>2021-07-01T10:24:00Z</time>
      </trkpt>
      <trkpt lat="43.724705" lon="4.168774">
        <ele>36.45419</ele>
        <time>2021-07-01T10:24:01Z</time>
      </trkpt>
      <trkpt lat="43.724678" lon="4.168346">
        <ele>35.87069</ele>
        <time>2021-07-01T10:24:02Z</time>
      </trkpt>
      <trkpt lat="43.724648" lon="4.167912">
        <ele>35.40194</ele>
        <time>2021-07-01T10:24:03Z</time>
      </trkpt>
      <trkpt lat="43.724625" lon="4.167507">
        <ele>34.73776</ele>
        <time>2021-07-01T10:24:04Z</time>
      </trkpt>
      <trkpt lat="43.724594" lon="4.167060">
        <ele>33.41317</ele>
        <time>2021-07-01T10:24:05Z</time>
      </trkpt>
      <trkpt lat="43.724567" lon="4.166612">
        <ele>32.45272</ele>
        <time>2021-07-01T10:24:06Z</time>
      </trkpt>
      <trkpt lat="43.724552" lon="4.166200">
        <ele>31.64962</ele>
        <time>2021-07-01T10:24:07Z</time>
      </trkpt>
      <trkpt lat="43.724537" lon="4.165760">
        <ele>30.94809</ele>
        <time>2021-07-01T10:24:08Z</time>
      </trkpt>
      <trkpt lat="43.724522" lon="4.165321">
        <ele>29.79940</ele>
        <time>2021-07-01T10:24:09Z</time>
      </trkpt>
      <trkpt lat="43.724518" lon="4.164848">
        <ele>28.18234</ele>
        <time>2021-07-01T10:24:10Z</time>
      </trkpt>
      <trkpt lat="43.724514" lon="4.164445">
        <ele>26.47750</ele>
        <time>2021-07-01T10:24:11Z</time>
      </trkpt>
      <trkpt lat="43.724506" lon="4.163968">
        <ele>25.57882</ele>
        <time>2021-07-01T10:24:12Z</time>
      </trkpt>
      <trkpt lat="43.724503" lon="4.163483">
        <ele>24.46975</ele>
        <time>2021-07-01T10:24:13Z</time>
      </trkpt>
      <trkpt lat="43.724499" lon="4.163018">
        <ele>23.24203</ele>
        <time>2021-07-01T10:24:14Z</time>
      </trkpt>
      <trkpt lat="43.724491" lon="4.162529">
        <ele>22.49966</ele>
        <time>2021-07-01T10:24:15Z</time>
      </trkpt>
      <trkpt lat="43.724487" lon="4.162050">
        <ele>21.72995</ele>
        <time>2021-07-01T10:24:16Z</time>
      </trkpt>
      <trkpt lat="43.724487" lon="4.162050">
        <ele>21.18972</ele>
        <time>2021-07-01T10:24:17Z</time>
      </trkpt>
      <trkpt lat="43.724476" lon="4.161041">
        <ele>20.57962</ele>
        <time>2021-07-01T10:24:18Z</time>
      </trkpt>
      <trkpt lat="43.724476" lon="4.161041">
        <ele>20.46518</ele>
        <time>2021-07-01T10:24:19Z</time>
      </trkpt>
      <trkpt lat="43.724464" lon="4.160448">
        <ele>20.04062</ele>
        <time>2021-07-01T10:24:20Z</time>
      </trkpt>
      <trkpt lat="43.724449" lon="4.159895">
        <ele>19.57956</ele>
        <time>2021-07-01T10:24:21Z</time>
      </trkpt>
      <trkpt lat="43.724434" lon="4.159390">
        <ele>19.81845</ele>
        <time>2021-07-01T10:24:22Z</time>
      </trkpt>
      <trkpt lat="43.724419" lon="4.158941">
        <ele>19.57016</ele>
        <time>2021-07-01T10:24:23Z</time>
      </trkpt>
      <trkpt lat="43.724403" lon="4.158467">
        <ele>19.59701</ele>
        <time>2021-07-01T10:24:24Z</time>
      </trkpt>
      <trkpt lat="43.724384" lon="4.157994">
        <ele>19.51339</ele>
        <time>2021-07-01T10:24:25Z</time>
      </trkpt>
      <trkpt lat="43.724354" lon="4.157540">
        <ele>19.59811</ele>
        <time>2021-07-01T10:24:26Z</time>
      </trkpt>
      <trkpt lat="43.724319" lon="4.157070">
        <ele>19.64572</ele>
        <time>2021-07-01T10:24:27Z</time>
      </trkpt>
      <trkpt lat="43.724281" lon="4.156600">
        <ele>20.06533</ele>
        <time>2021-07-01T10:24:28Z</time>
      </trkpt>
      <trkpt lat="43.724232" lon="4.156123">
        <ele>19.77511</ele>
        <time>2021-07-01T10:24:29Z</time>
      </trkpt>
      <trkpt lat="43.724178" lon="4.155643">
        <ele>19.52279</ele>
        <time>2021-07-01T10:24:30Z</time>
      </trkpt>
      <trkpt lat="43.724113" lon="4.155143">
        <ele>19.94296</ele>
        <time>2021-07-01T10:24:31Z</time>
      </trkpt>
      <trkpt lat="43.724049" lon="4.154664">
        <ele>20.35989</ele>
        <time>2021-07-01T10:24:32Z</time>
      </trkpt>
      <trkpt lat="43.723984" lon="4.154185">
        <ele>20.46634</ele>
        <time>2021-07-01T10:24:33Z</time>
      </trkpt>
      <trkpt lat="43.723907" lon="4.153722">
        <ele>20.28769</ele>
        <time>2021-07-01T10:24:34Z</time>
      </trkpt>
      <trkpt lat="43.723824" lon="4.153246">
        <ele>20.35226</ele>
        <time>2021-07-01T10:24:35Z</time>
      </trkpt>
      <trkpt lat="43.723724" lon="4.152729">
        <ele>19.84628</ele>
        <time>2021-07-01T10:24:36Z</time>
      </trkpt>
      <trkpt lat="43.723625" lon="4.152271">
        <ele>19.72305</ele>
        <time>2021-07-01T10:24:37Z</time>
      </trkpt>
      <trkpt lat="43.723511" lon="4.151747">
        <ele>19.50656</ele>
        <time>2021-07-01T10:24:38Z</time>
      </trkpt>
      <trkpt lat="43.723396" lon="4.151296">
        <ele>19.71902</ele>
        <time>2021-07-01T10:24:39Z</time>
      </trkpt>
      <trkpt lat="43.723282" lon="4.150808">
        <ele>19.90738</ele>
        <time>2021-07-01T10:24:40Z</time>
      </trkpt>
      <trkpt lat="43.723148" lon="4.150338">
        <ele>20.08224</ele>
        <time>2021-07-01T10:24:41Z</time>
      </trkpt>
      <trkpt lat="43.723026" lon="4.149897">
        <ele>20.38809</ele>
        <time>2021-07-01T10:24:42Z</time>
      </trkpt>
      <trkpt lat="43.722866" lon="4.149329">
        <ele>20.42257</ele>
        <time>2021-07-01T10:24:43Z</time>
      </trkpt>
      <trkpt lat="43.722733" lon="4.148898">
        <ele>20.48043</ele>
        <time>2021-07-01T10:24:44Z</time>
      </trkpt>
      <trkpt lat="43.722733" lon="4.148898">
        <ele>19.80282</ele>
        <time>2021-07-01T10:24:45Z</time>
      </trkpt>
      <trkpt lat="43.722412" lon="4.147945">
        <ele>19.58163</ele>
        <time>2021-07-01T10:24:46Z</time>
      </trkpt>
      <trkpt lat="43.722412" lon="4.147945">
        <ele>19.35043</ele>
        <time>2021-07-01T10:24:47Z</time>
      </trkpt>
      <trkpt lat="43.722256" lon="4.147498">
        <ele>19.34805</ele>
        <time>2021-07-01T10:24:48Z</time>
      </trkpt>
      <trkpt lat="43.722099" lon="4.147051">
        <ele>19.02078</ele>
        <time>2021-07-01T10:24:49Z</time>
      </trkpt>
      <trkpt lat="43.721935" lon="4.146615">
        <ele>19.00772</ele>
        <time>2021-07-01T10:24:50Z</time>
      </trkpt>
      <trkpt lat="43.721752" lon="4.146182">
        <ele>19.13699</ele>
        <time>2021-07-01T10:24:51Z</time>
      </trkpt>
      <trkpt lat="43.721550" lon="4.145725">
        <ele>19.35055</ele>
        <time>2021-07-01T10:24:52Z</time>
      </trkpt>
      <trkpt lat="43.721306" lon="4.145216">
        <ele>19.32840</ele>
        <time>2021-07-01T10:24:53Z</time>
      </trkpt>
      <trkpt lat="43.721054" lon="4.144701">
        <ele>19.25882</ele>
        <time>2021-07-01T10:24:54Z</time>
      </trkpt>
      <trkpt lat="43.720806" lon="4.144227">
        <ele>19.12197</ele>
        <time>2021-07-01T10:24:55Z</time>
      </trkpt>
      <trkpt lat="43.720741" lon="4.144107">
        <ele>19.17453</ele>
        <time>2021-07-01T10:24:56Z</time>
      </trkpt>
      <trkpt lat="43.720371" lon="4.143428">
        <ele>19.61056</ele>
        <time>2021-07-01T10:24:57Z</time>
      </trkpt>
      <trkpt lat="43.720154" lon="4.143029">
        <ele>19.94949</ele>
        <time>2021-07-01T10:24:58Z</time>
      </trkpt>
      <trkpt lat="43.719963" lon="4.142686">
        <ele>20.44821</ele>
        <time>2021-07-01T10:24:59Z</time>
      </trkpt>
      <trkpt lat="43.719730" lon="4.142272">
        <ele>20.54831</ele>
        <time>2021-07-01T10:25:00Z</time>
      </trkpt>
      <trkpt lat="43.719494" lon="4.141886">
        <ele>20.86288</ele>
        <time>2021-07-01T10:25:01Z</time>
      </trkpt>
      <trkpt lat="43.719276" lon="4.141533">
        <ele>20.37338</ele>
        <time>2021-07-01T10:25:02Z</time>
      </trkpt>
      <trkpt lat="43.719051" lon="4.141169">
        <ele>20.51846</ele>
        <time>2021-07-01T10:25:03Z</time>
      </trkpt>
      <trkpt lat="43.718830" lon="4.140811">
        <ele>20.69619</ele>
        <time>2021-07-01T10:25:04Z</time>
      </trkpt>
      <trkpt lat="43.718613" lon="4.140452">
        <ele>20.69381</ele>
        <time>2021-07-01T10:25:05Z</time>
      </trkpt>
      <trkpt lat="43.718403" lon="4.140114">
        <ele>21.06002</ele>
        <time>2021-07-01T10:25:06Z</time>
      </trkpt>
      <trkpt lat="43.718197" lon="4.139774">
        <ele>21.33541</ele>
        <time>2021-07-01T10:25:07Z</time>
      </trkpt>
      <trkpt lat="43.718006" lon="4.139465">
        <ele>21.51852</ele>
        <time>2021-07-01T10:25:08Z</time>
      </trkpt>
      <trkpt lat="43.717804" lon="4.139133">
        <ele>22.08426</ele>
        <time>2021-07-01T10:25:09Z</time>
      </trkpt>
      <trkpt lat="43.717804" lon="4.139133">
        <ele>22.06851</ele>
        <time>2021-07-01T10:25:10Z</time>
      </trkpt>
      <trkpt lat="43.717426" lon="4.138498">
        <ele>22.43783</ele>
        <time>2021-07-01T10:25:11Z</time>
      </trkpt>
      <trkpt lat="43.717426" lon="4.138498">
        <ele>22.89816</ele>
        <time>2021-07-01T10:25:12Z</time>
      </trkpt>
      <trkpt lat="43.717243" lon="4.138193">
        <ele>22.83468</ele>
        <time>2021-07-01T10:25:13Z</time>
      </trkpt>
      <trkpt lat="43.717064" lon="4.137902">
        <ele>23.26522</ele>
        <time>2021-07-01T10:25:14Z</time>
      </trkpt>
      <trkpt lat="43.716877" lon="4.137590">
        <ele>23.72952</ele>
        <time>2021-07-01T10:25:15Z</time>
      </trkpt>
      <trkpt lat="43.716717" lon="4.137331">
        <ele>24.38211</ele>
        <time>2021-07-01T10:25:16Z</time>
      </trkpt>
      <trkpt lat="43.716560" lon="4.137074">
        <ele>25.11209</ele>
        <time>2021-07-01T10:25:17Z</time>
      </trkpt>
      <trkpt lat="43.716419" lon="4.136843">
        <ele>25.81131</ele>
        <time>2021-07-01T10:25:18Z</time>
      </trkpt>
      <trkpt lat="43.716309" lon="4.136659">
        <ele>12.03912</ele>
        <time>2021-07-01T10:25:19Z</time>
      </trkpt>
      <trkpt lat="43.716236" lon="4.136546">
        <ele>12.08260</ele>
        <time>2021-07-01T10:25:20Z</time>
      </trkpt>
      <trkpt lat="43.716194" lon="4.136473">
        <ele>11.80385</ele>
        <time>2021-07-01T10:25:21Z</time>
      </trkpt>
      <trkpt lat="43.716152" lon="4.136404">
        <ele>11.04940</ele>
        <time>2021-07-01T10:25:22Z</time>
      </trkpt>
      <trkpt lat="43.716118" lon="4.136349">
        <ele>10.72734</ele>
        <time>2021-07-01T10:25:23Z</time>
      </trkpt>
      <trkpt lat="43.716091" lon="4.136305">
        <ele>10.72516</ele>
        <time>2021-07-01T10:25:24Z</time>
      </trkpt>
      <trkpt lat="43.716064" lon="4.136264">
        <ele>11.21689</ele>
        <time>2021-07-01T10:25:25Z</time>
      </trkpt>
      <trkpt lat="43.716042" lon="4.136225">
        <ele>11.54847</ele>
        <time>2021-07-01T10:25:26Z</time>
      </trkpt>
      <trkpt lat="43.716015" lon="4.136186">
        <ele>11.86404</ele>
        <time>2021-07-01T10:25:27Z</time>
      </trkpt>
      <trkpt lat="43.715984" lon="4.136132">
        <ele>12.16334</ele>
        <time>2021-07-01T10:25:28Z</time>
      </trkpt>
      <trkpt lat="43.716095" lon="4.135982">
        <ele>12.67602</ele>
        <time>2021-07-01T10:25:29Z</time>
      </trkpt>
      <trkpt lat="43.716072" lon="4.135920">
        <ele>13.38873</ele>
        <time>2021-07-01T10:25:30Z</time>
      </trkpt>
      <trkpt lat="43.716045" lon="4.135863">
        <ele>13.25267</ele>
        <time>2021-07-01T10:25:31Z</time>
      </trkpt>
      <trkpt lat="43.716026" lon="4.135812">
        <ele>13.69774</ele>
        <time>2021-07-01T10:25:32Z</time>
      </trkpt>
      <trkpt lat="43.716003" lon="4.135759">
        <ele>14.02819</ele>
        <time>2021-07-01T10:25:33Z</time>
      </trkpt>
      <trkpt lat="43.715981" lon="4.135700">
        <ele>14.29191</ele>
        <time>2021-07-01T10:25:34Z</time>
      </trkpt>
      <trkpt lat="43.715981" lon="4.135700">
        <ele>14.65267</ele>
        <time>2021-07-01T10:25:35Z</time>
      </trkpt>
      <trkpt lat="43.715961" lon="4.135648">
        <ele>14.84762</ele>
        <time>2021-07-01T10:25:36Z</time>
      </trkpt>
      <trkpt lat="43.715939" lon="4.135598">
        <ele>15.02486</ele>
        <time>2021-07-01T10:25:37Z</time>
      </trkpt>
      <trkpt lat="43.715927" lon="4.135570">
        <ele>15.17114</ele>
        <time>2021-07-01T10:25:38Z</time>
      </trkpt>
      <trkpt lat="43.715919" lon="4.135552">
        <ele>15.31126</ele>
        <time>2021-07-01T10:25:39Z</time>
      </trkpt>
      <trkpt lat="43.715919" lon="4.135535">
        <ele>15.46679</ele>
        <time>2021-07-01T10:25:40Z</time>
      </trkpt>
      <trkpt lat="43.715916" lon="4.135518">
        <ele>15.62722</ele>
        <time>2021-07-01T10:25:41Z</time>
      </trkpt>
      <trkpt lat="43.715916" lon="4.135512">
        <ele>15.77732</ele>
        <time>2021-07-01T10:25:42Z</time>
      </trkpt>
      <trkpt lat="43.715916" lon="4.135512">
        <ele>15.97360</ele>
        <time>2021-07-01T10:25:43Z</time>
      </trkpt>
      <trkpt lat="43.715916" lon="4.135512">
        <ele>16.21191</ele>
        <time>2021-07-01T10:25:44Z</time>
      </trkpt>
      <trkpt lat="43.715916" lon="4.135512">
        <ele>16.38428</ele>
        <time>2021-07-01T10:25:45Z</time>
      </trkpt>
      <trkpt lat="43.715916" lon="4.135512">
        <ele>16.66963</ele>
        <time>2021-07-01T10:25:46Z</time>
      </trkpt>
      <trkpt lat="43.715916" lon="4.135512">
        <ele>16.84034</ele>
        <time>2021-07-01T10:25:47Z</time>
      </trkpt>
      <trkpt lat="43.715916" lon="4.135512">
        <ele>17.07009</ele>
        <time>2021-07-01T10:25:48Z</time>
      </trkpt>
      <trkpt lat="43.715916" lon="4.135512">
        <ele>17.27328</ele>
        <time>2021-07-01T10:25:49Z</time>
      </trkpt>
      <trkpt lat="43.715916" lon="4.135512">
        <ele>17.39987</ele>
        <time>2021-07-01T10:25:50Z</time>
      </trkpt>
      <trkpt lat="43.715916" lon="4.135512">
        <ele>17.51244</ele>
        <time>2021-07-01T10:25:51Z</time>
      </trkpt>
      <trkpt lat="43.715916" lon="4.135512">
        <ele>17.75786</ele>
        <time>2021-07-01T10:25:52Z</time>
      </trkpt>
      <trkpt lat="43.715916" lon="4.135511">
        <ele>18.01590</ele>
        <time>2021-07-01T10:25:53Z</time>
      </trkpt>
      <trkpt lat="43.715904" lon="4.135459">
        <ele>18.20297</ele>
        <time>2021-07-01T10:25:54Z</time>
      </trkpt>
      <trkpt lat="43.715900" lon="4.135425">
        <ele>18.52676</ele>
        <time>2021-07-01T10:25:55Z</time>
      </trkpt>
      <trkpt lat="43.715900" lon="4.135372">
        <ele>18.69501</ele>
        <time>2021-07-01T10:25:56Z</time>
      </trkpt>
      <trkpt lat="43.715900" lon="4.135314">
        <ele>18.91037</ele>
        <time>2021-07-01T10:25:57Z</time>
      </trkpt>
      <trkpt lat="43.715900" lon="4.135314">
        <ele>19.03108</ele>
        <time>2021-07-01T10:25:58Z</time>
      </trkpt>
      <trkpt lat="43.715900" lon="4.135280">
        <ele>19.15796</ele>
        <time>2021-07-01T10:25:59Z</time>
      </trkpt>
      <trkpt lat="43.715900" lon="4.135257">
        <ele>19.49214</ele>
        <time>2021-07-01T10:26:00Z</time>
      </trkpt>
      <trkpt lat="43.715942" lon="4.135247">
        <ele>19.64301</ele>
        <time>2021-07-01T10:26:01Z</time>
      </trkpt>
      <trkpt lat="43.715996" lon="4.135216">
        <ele>19.77484</ele>
        <time>2021-07-01T10:26:02Z</time>
      </trkpt>
      <trkpt lat="43.716011" lon="4.135197">
        <ele>19.87457</ele>
        <time>2021-07-01T10:26:03Z</time>
      </trkpt>
      <trkpt lat="43.716057" lon="4.135116">
        <ele>19.95889</ele>
        <time>2021-07-01T10:26:04Z</time>
      </trkpt>
      <trkpt lat="43.716064" lon="4.135096">
        <ele>20.09354</ele>
        <time>2021-07-01T10:26:05Z</time>
      </trkpt>
      <trkpt lat="43.716068" lon="4.135068">
        <ele>20.25326</ele>
        <time>2021-07-01T10:26:06Z</time>
      </trkpt>
      <trkpt lat="43.716072" lon="4.135058">
        <ele>20.45223</ele>
        <time>2021-07-01T10:26:07Z</time>
      </trkpt>
      <trkpt lat="43.716072" lon="4.135058">
        <ele>20.52161</ele>
        <time>2021-07-01T10:26:08Z</time>
      </trkpt>
      <trkpt lat="43.716072" lon="4.135058">
        <ele>20.66254</ele>
        <time>2021-07-01T10:26:09Z</time>
      </trkpt>
      <trkpt lat="43.716072" lon="4.135058">
        <ele>20.61572</ele>
        <time>2021-07-01T10:26:10Z</time>
      </trkpt>
      <trkpt lat="43.716072" lon="4.135058">
        <ele>20.61580</ele>
        <time>2021-07-01T10:26:11Z</time>
      </trkpt>
      <trkpt lat="43.716072" lon="4.135058">
        <ele>20.61972</ele>
        <time>2021-07-01T10:26:12Z</time>
      </trkpt>
      <trkpt lat="43.716072" lon="4.135058">
        <ele>20.65563</ele>
        <time>2021-07-01T10:26:13Z</time>
      </trkpt>
      <trkpt lat="43.716072" lon="4.135058">
        <ele>20.60686</ele>
        <time>2021-07-01T10:26:14Z</time>
      </trkpt>
      <trkpt lat="43.716072" lon="4.135057">
        <ele>20.67314</ele>
        <time>2021-07-01T10:26:15Z</time>
      </trkpt>
      <trkpt lat="43.716076" lon="4.135028">
        <ele>20.77591</ele>
        <time>2021-07-01T10:26:16Z</time>
      </trkpt>
      <trkpt lat="43.716072" lon="4.134987">
        <ele>20.87299</ele>
        <time>2021-07-01T10:26:17Z</time>
      </trkpt>
      <trkpt lat="43.716064" lon="4.134938">
        <ele>20.88666</ele>
        <time>2021-07-01T10:26:18Z</time>
      </trkpt>
      <trkpt lat="43.716057" lon="4.134906">
        <ele>20.83404</ele>
        <time>2021-07-01T10:26:19Z</time>
      </trkpt>
      <trkpt lat="43.716045" lon="4.134883">
        <ele>20.84698</ele>
        <time>2021-07-01T10:26:20Z</time>
      </trkpt>
      <trkpt lat="43.716034" lon="4.134863">
        <ele>25.26028</ele>
        <time>2021-07-01T10:26:21Z</time>
      </trkpt>
      <trkpt lat="43.716022" lon="4.134845">
        <ele>26.34634</ele>
        <time>2021-07-01T10:26:22Z</time>
      </trkpt>
      <trkpt lat="43.716022" lon="4.134845">
        <ele>26.88113</ele>
        <time>2021-07-01T10:26:23Z</time>
      </trkpt>
      <trkpt lat="43.716022" lon="4.134845">
        <ele>27.19772</ele>
        <time>2021-07-01T10:26:24Z</time>
      </trkpt>
      <trkpt lat="43.716022" lon="4.134845">
        <ele>27.60806</ele>
        <time>2021-07-01T10:26:25Z</time>
      </trkpt>
      <trkpt lat="43.716022" lon="4.134845">
        <ele>27.94430</ele>
        <time>2021-07-01T10:26:26Z</time>
      </trkpt>
      <trkpt lat="43.716022" lon="4.134845">
        <ele>21.50439</ele>
        <time>2021-07-01T10:26:27Z</time>
      </trkpt>
      <trkpt lat="43.716003" lon="4.134823">
        <ele>21.52381</ele>
        <time>2021-07-01T10:26:28Z</time>
      </trkpt>
      <trkpt lat="43.715912" lon="4.134776">
        <ele>21.59434</ele>
        <time>2021-07-01T10:26:29Z</time>
      </trkpt>
      <trkpt lat="43.715900" lon="4.134775">
        <ele>21.81139</ele>
        <time>2021-07-01T10:26:30Z</time>
      </trkpt>
      <trkpt lat="43.716011" lon="4.134535">
        <ele>21.82474</ele>
        <time>2021-07-01T10:26:31Z</time>
      </trkpt>
      <trkpt lat="43.716034" lon="4.134481">
        <ele>21.87559</ele>
        <time>2021-07-01T10:26:32Z</time>
      </trkpt>
      <trkpt lat="43.716061" lon="4.134427">
        <ele>21.99654</ele>
        <time>2021-07-01T10:26:33Z</time>
      </trkpt>
      <trkpt lat="43.716087" lon="4.134369">
        <ele>22.01815</ele>
        <time>2021-07-01T10:26:34Z</time>
      </trkpt>
      <trkpt lat="43.716106" lon="4.134324">
        <ele>22.01872</ele>
        <time>2021-07-01T10:26:35Z</time>
      </trkpt>
      <trkpt lat="43.716125" lon="4.134288">
        <ele>21.91598</ele>
        <time>2021-07-01T10:26:36Z</time>
      </trkpt>
      <trkpt lat="43.716141" lon="4.134261">
        <ele>22.01078</ele>
        <time>2021-07-01T10:26:37Z</time>
      </trkpt>
      <trkpt lat="43.716160" lon="4.134231">
        <ele>22.27286</ele>
        <time>2021-07-01T10:26:38Z</time>
      </trkpt>
      <trkpt lat="43.716179" lon="4.134206">
        <ele>22.41981</ele>
        <time>2021-07-01T10:26:39Z</time>
      </trkpt>
      <trkpt lat="43.716194" lon="4.134179">
        <ele>22.32113</ele>
        <time>2021-07-01T10:26:40Z</time>
      </trkpt>
      <trkpt lat="43.716194" lon="4.134182">
        <ele>22.38281</ele>
        <time>2021-07-01T10:26:41Z</time>
      </trkpt>
      <trkpt lat="43.716209" lon="4.134156">
        <ele>22.42579</ele>
        <time>2021-07-01T10:26:42Z</time>
      </trkpt>
      <trkpt lat="43.716202" lon="4.134161">
        <ele>22.52887</ele>
        <time>2021-07-01T10:26:43Z</time>
      </trkpt>
      <trkpt lat="43.716202" lon="4.134158">
        <ele>22.51621</ele>
        <time>2021-07-01T10:26:44Z</time>
      </trkpt>
      <trkpt lat="43.716202" lon="4.134158">
        <ele>22.55798</ele>
        <time>2021-07-01T10:26:45Z</time>
      </trkpt>
      <trkpt lat="43.716202" lon="4.134158">
        <ele>22.16180</ele>
        <time>2021-07-01T10:26:46Z</time>
      </trkpt>
      <trkpt lat="43.716202" lon="4.134158">
        <ele>22.11175</ele>
        <time>2021-07-01T10:26:47Z</time>
      </trkpt>
      <trkpt lat="43.716202" lon="4.134158">
        <ele>22.23054</ele>
        <time>2021-07-01T10:26:48Z</time>
      </trkpt>
      <trkpt lat="43.716202" lon="4.134158">
        <ele>22.18839</ele>
        <time>2021-07-01T10:26:49Z</time>
      </trkpt>
      <trkpt lat="43.716190" lon="4.134153">
        <ele>22.19506</ele>
        <time>2021-07-01T10:26:50Z</time>
      </trkpt>
      <trkpt lat="43.716187" lon="4.134151">
        <ele>22.20848</ele>
        <time>2021-07-01T10:26:51Z</time>
      </trkpt>
      <trkpt lat="43.716187" lon="4.134151">
        <ele>22.23915</ele>
        <time>2021-07-01T10:26:52Z</time>
      </trkpt>
      <trkpt lat="43.716187" lon="4.134151">
        <ele>22.20818</ele>
        <time>2021-07-01T10:26:53Z</time>
      </trkpt>
      <trkpt lat="43.716187" lon="4.134151">
        <ele>22.17856</ele>
        <time>2021-07-01T10:26:54Z</time>
      </trkpt>
      <trkpt lat="43.716187" lon="4.134151">
        <ele>22.22102</ele>
        <time>2021-07-01T10:26:55Z</time>
      </trkpt>
      <trkpt lat="43.716187" lon="4.134151">
        <ele>22.11196</ele>
        <time>2021-07-01T10:26:56Z</time>
      </trkpt>
      <trkpt lat="43.716187" lon="4.134151">
        <ele>22.09821</ele>
        <time>2021-07-01T10:26:57Z</time>
      </trkpt>
      <trkpt lat="43.716187" lon="4.134151">
        <ele>22.15060</ele>
        <time>2021-07-01T10:26:58Z</time>
      </trkpt>
      <trkpt lat="43.716187" lon="4.134151">
        <ele>22.07954</ele>
        <time>2021-07-01T10:26:59Z</time>
      </trkpt>
      <trkpt lat="43.716187" lon="4.134151">
        <ele>22.05726</ele>
        <time>2021-07-01T10:27:00Z</time>
      </trkpt>
      <trkpt lat="43.716187" lon="4.134151">
        <ele>22.03539</ele>
        <time>2021-07-01T10:27:01Z</time>
      </trkpt>
      <trkpt lat="43.716187" lon="4.134151">
        <ele>22.05590</ele>
        <time>2021-07-01T10:27:02Z</time>
      </trkpt>
      <trkpt lat="43.716187" lon="4.134151">
        <ele>21.97786</ele>
        <time>2021-07-01T10:27:03Z</time>
      </trkpt>
      <trkpt lat="43.716187" lon="4.134151">
        <ele>21.96331</ele>
        <time>2021-07-01T10:27:04Z</time>
      </trkpt>
      <trkpt lat="43.716187" lon="4.134151">
        <ele>21.96932</ele>
        <time>2021-07-01T10:27:05Z</time>
      </trkpt>
      <trkpt lat="43.716187" lon="4.134151">
        <ele>22.05224</ele>
        <time>2021-07-01T10:27:06Z</time>
      </trkpt>
      <trkpt lat="43.716187" lon="4.134151">
        <ele>22.01435</ele>
        <time>2021-07-01T10:27:07Z</time>
      </trkpt>
      <trkpt lat="43.716187" lon="4.134151">
        <ele>22.01411</ele>
        <time>2021-07-01T10:27:08Z</time>
      </trkpt>
      <trkpt lat="43.716187" lon="4.134151">
        <ele>22.07585</ele>
        <time>2021-07-01T10:27:09Z</time>
      </trkpt>
      <trkpt lat="43.716187" lon="4.134151">
        <ele>21.99286</ele>
        <time>2021-07-01T10:27:10Z</time>
      </trkpt>
      <trkpt lat="43.716187" lon="4.134151">
        <ele>22.05783</ele>
        <time>2021-07-01T10:27:11Z</time>
      </trkpt>
      <trkpt lat="43.716187" lon="4.134151">
        <ele>22.05964</ele>
        <time>2021-07-01T10:27:12Z</time>
      </trkpt>
      <trkpt lat="43.716187" lon="4.134151">
        <ele>22.06030</ele>
        <time>2021-07-01T10:27:13Z</time>
      </trkpt>
      <trkpt lat="43.716187" lon="4.134151">
        <ele>22.07195</ele>
        <time>2021-07-01T10:27:14Z</time>
      </trkpt>
      <trkpt lat="43.716187" lon="4.134151">
        <ele>22.05904</ele>
        <time>2021-07-01T10:27:15Z</time>
      </trkpt>
      <trkpt lat="43.716187" lon="4.134151">
        <ele>22.11805</ele>
        <time>2021-07-01T10:27:16Z</time>
      </trkpt>
      <trkpt lat="43.716187" lon="4.134151">
        <ele>22.03586</ele>
        <time>2021-07-01T10:27:17Z</time>
      </trkpt>
      <trkpt lat="43.716187" lon="4.134151">
        <ele>22.12805</ele>
        <time>2021-07-01T10:27:18Z</time>
      </trkpt>
      <trkpt lat="43.716187" lon="4.134151">
        <ele>22.07814</ele>
        <time>2021-07-01T10:27:19Z</time>
      </trkpt>
      <trkpt lat="43.716187" lon="4.134151">
        <ele>22.15170</ele>
        <time>2021-07-01T10:27:20Z</time>
      </trkpt>
      <trkpt lat="43.716187" lon="4.134151">
        <ele>22.14390</ele>
        <time>2021-07-01T10:27:21Z</time>
      </trkpt>
      <trkpt lat="43.716187" lon="4.134151">
        <ele>22.15182</ele>
        <time>2021-07-01T10:27:22Z</time>
      </trkpt>
      <trkpt lat="43.716187" lon="4.134151">
        <ele>22.22392</ele>
        <time>2021-07-01T10:27:23Z</time>
      </trkpt>
      <trkpt lat="43.716187" lon="4.134151">
        <ele>22.26995</ele>
        <time>2021-07-01T10:27:24Z</time>
      </trkpt>
      <trkpt lat="43.716187" lon="4.134151">
        <ele>22.40625</ele>
        <time>2021-07-01T10:27:25Z</time>
      </trkpt>
      <trkpt lat="43.716187" lon="4.134151">
        <ele>22.43670</ele>
        <time>2021-07-01T10:27:26Z</time>
      </trkpt>
      <trkpt lat="43.716187" lon="4.134151">
        <ele>22.56664</ele>
        <time>2021-07-01T10:27:27Z</time>
      </trkpt>
      <trkpt lat="43.716187" lon="4.134151">
        <ele>22.63255</ele>
        <time>2021-07-01T10:27:28Z</time>
      </trkpt>
      <trkpt lat="43.716187" lon="4.134151">
        <ele>22.79412</ele>
        <time>2021-07-01T10:27:29Z</time>
      </trkpt>
      <trkpt lat="43.716187" lon="4.134151">
        <ele>22.88214</ele>
        <time>2021-07-01T10:27:30Z</time>
      </trkpt>
      <trkpt lat="43.716187" lon="4.134151">
        <ele>23.15240</ele>
        <time>2021-07-01T10:27:31Z</time>
      </trkpt>
      <trkpt lat="43.716187" lon="4.134151">
        <ele>23.21603</ele>
        <time>2021-07-01T10:27:32Z</time>
      </trkpt>
      <trkpt lat="43.716187" lon="4.134151">
        <ele>23.34563</ele>
        <time>2021-07-01T10:27:33Z</time>
      </trkpt>
      <trkpt lat="43.716187" lon="4.134151">
        <ele>23.35980</ele>
        <time>2021-07-01T10:27:34Z</time>
      </trkpt>
      <trkpt lat="43.716187" lon="4.134151">
        <ele>23.39673</ele>
        <time>2021-07-01T10:27:35Z</time>
      </trkpt>
      <trkpt lat="43.716187" lon="4.134151">
        <ele>23.51262</ele>
        <time>2021-07-01T10:27:36Z</time>
      </trkpt>
      <trkpt lat="43.716187" lon="4.134151">
        <ele>23.59220</ele>
        <time>2021-07-01T10:27:37Z</time>
      </trkpt>
      <trkpt lat="43.716187" lon="4.134151">
        <ele>23.74727</ele>
        <time>2021-07-01T10:27:38Z</time>
      </trkpt>
      <trkpt lat="43.716187" lon="4.134151">
        <ele>23.84205</ele>
        <time>2021-07-01T10:27:39Z</time>
      </trkpt>
      <trkpt lat="43.716187" lon="4.134151">
        <ele>23.83006</ele>
        <time>2021-07-01T10:27:40Z</time>
      </trkpt>
      <trkpt lat="43.716187" lon="4.134151">
        <ele>23.92557</ele>
        <time>2021-07-01T10:27:41Z</time>
      </trkpt>
      <trkpt lat="43.716187" lon="4.134151">
        <ele>24.02394</ele>
        <time>2021-07-01T10:27:42Z</time>
      </trkpt>
      <trkpt lat="43.716187" lon="4.134151">
        <ele>24.12146</ele>
        <time>2021-07-01T10:27:43Z</time>
      </trkpt>
      <trkpt lat="43.716187" lon="4.134151">
        <ele>24.13367</ele>
        <time>2021-07-01T10:27:44Z</time>
      </trkpt>
      <trkpt lat="43.716187" lon="4.134151">
        <ele>24.24443</ele>
        <time>2021-07-01T10:27:45Z</time>
      </trkpt>
      <trkpt lat="43.716187" lon="4.134151">
        <ele>24.32603</ele>
        <time>2021-07-01T10:27:46Z</time>
      </trkpt>
      <trkpt lat="43.716187" lon="4.134151">
        <ele>24.42816</ele>
        <time>2021-07-01T10:27:47Z</time>
      </trkpt>
      <trkpt lat="43.716187" lon="4.134151">
        <ele>24.52662</ele>
        <time>2021-07-01T10:27:48Z</time>
      </trkpt>
      <trkpt lat="43.716187" lon="4.134151">
        <ele>24.66897</ele>
        <time>2021-07-01T10:27:49Z</time>
      </trkpt>
      <trkpt lat="43.716187" lon="4.134151">
        <ele>24.73506</ele>
        <time>2021-07-01T10:27:50Z</time>
      </trkpt>
      <trkpt lat="43.716187" lon="4.134151">
        <ele>24.69375</ele>
        <time>2021-07-01T10:27:51Z</time>
      </trkpt>
      <trkpt lat="43.716187" lon="4.134151">
        <ele>24.76645</ele>
        <time>2021-07-01T10:27:52Z</time>
      </trkpt>
      <trkpt lat="43.716187" lon="4.134151">
        <ele>24.85765</ele>
        <time>2021-07-01T10:27:53Z</time>
      </trkpt>
      <trkpt lat="43.716187" lon="4.134151">
        <ele>24.88946</ele>
        <time>2021-07-01T10:27:54Z</time>
      </trkpt>
      <trkpt lat="43.716187" lon="4.134151">
        <ele>24.83695</ele>
        <time>2021-07-01T10:27:55Z</time>
      </trkpt>
      <trkpt lat="43.716187" lon="4.134151">
        <ele>24.81720</ele>
        <time>2021-07-01T10:27:56Z</time>
      </trkpt>
      <trkpt lat="43.716187" lon="4.134151">
        <ele>24.94816</ele>
        <time>2021-07-01T10:27:57Z</time>
      </trkpt>
      <trkpt lat="43.716225" lon="4.134110">
        <ele>34.64817</ele>
        <time>2021-07-01T10:40:35Z</time>
      </trkpt>
      <trkpt lat="43.716225" lon="4.134110">
        <ele>34.70292</ele>
        <time>2021-07-01T10:40:36Z</time>
      </trkpt>
      <trkpt lat="43.716225" lon="4.134110">
        <ele>34.63927</ele>
        <time>2021-07-01T10:40:37Z</time>
      </trkpt>
      <trkpt lat="43.716225" lon="4.134110">
        <ele>34.75549</ele>
        <time>2021-07-01T10:40:38Z</time>
      </trkpt>
      <trkpt lat="43.716209" lon="4.134122">
        <ele>34.86954</ele>
        <time>2021-07-01T10:40:39Z</time>
      </trkpt>
      <trkpt lat="43.716213" lon="4.134115">
        <ele>34.86754</ele>
        <time>2021-07-01T10:40:40Z</time>
      </trkpt>
      <trkpt lat="43.716225" lon="4.134087">
        <ele>34.85389</ele>
        <time>2021-07-01T10:40:41Z</time>
      </trkpt>
      <trkpt lat="43.716248" lon="4.134040">
        <ele>34.79393</ele>
        <time>2021-07-01T10:40:42Z</time>
      </trkpt>
      <trkpt lat="43.716259" lon="4.134027">
        <ele>34.73207</ele>
        <time>2021-07-01T10:40:43Z</time>
      </trkpt>
      <trkpt lat="43.716274" lon="4.134019">
        <ele>34.64532</ele>
        <time>2021-07-01T10:40:44Z</time>
      </trkpt>
      <trkpt lat="43.716297" lon="4.134012">
        <ele>34.84681</ele>
        <time>2021-07-01T10:40:45Z</time>
      </trkpt>
      <trkpt lat="43.716339" lon="4.134005">
        <ele>35.01637</ele>
        <time>2021-07-01T10:40:46Z</time>
      </trkpt>
      <trkpt lat="43.716393" lon="4.134007">
        <ele>35.07667</ele>
        <time>2021-07-01T10:40:47Z</time>
      </trkpt>
      <trkpt lat="43.716469" lon="4.134165">
        <ele>35.03732</ele>
        <time>2021-07-01T10:40:48Z</time>
      </trkpt>
      <trkpt lat="43.716522" lon="4.134145">
        <ele>34.98446</ele>
        <time>2021-07-01T10:40:49Z</time>
      </trkpt>
      <trkpt lat="43.716591" lon="4.134122">
        <ele>34.82381</ele>
        <time>2021-07-01T10:40:50Z</time>
      </trkpt>
      <trkpt lat="43.716640" lon="4.134104">
        <ele>35.07572</ele>
        <time>2021-07-01T10:40:51Z</time>
      </trkpt>
      <trkpt lat="43.716690" lon="4.134087">
        <ele>34.65893</ele>
        <time>2021-07-01T10:40:52Z</time>
      </trkpt>
      <trkpt lat="43.716736" lon="4.134071">
        <ele>34.45095</ele>
        <time>2021-07-01T10:40:53Z</time>
      </trkpt>
      <trkpt lat="43.716785" lon="4.134054">
        <ele>34.36655</ele>
        <time>2021-07-01T10:40:54Z</time>
      </trkpt>
      <trkpt lat="43.716839" lon="4.134036">
        <ele>34.52847</ele>
        <time>2021-07-01T10:40:55Z</time>
      </trkpt>
      <trkpt lat="43.716885" lon="4.134020">
        <ele>34.23393</ele>
        <time>2021-07-01T10:40:56Z</time>
      </trkpt>
      <trkpt lat="43.716919" lon="4.134008">
        <ele>33.78902</ele>
        <time>2021-07-01T10:40:57Z</time>
      </trkpt>
      <trkpt lat="43.716949" lon="4.133996">
        <ele>33.45535</ele>
        <time>2021-07-01T10:40:58Z</time>
      </trkpt>
      <trkpt lat="43.716980" lon="4.133986">
        <ele>33.36019</ele>
        <time>2021-07-01T10:40:59Z</time>
      </trkpt>
      <trkpt lat="43.716995" lon="4.133960">
        <ele>33.13994</ele>
        <time>2021-07-01T10:41:00Z</time>
      </trkpt>
      <trkpt lat="43.716991" lon="4.133932">
        <ele>33.02893</ele>
        <time>2021-07-01T10:41:01Z</time>
      </trkpt>
      <trkpt lat="43.716988" lon="4.133894">
        <ele>33.14582</ele>
        <time>2021-07-01T10:41:02Z</time>
      </trkpt>
      <trkpt lat="43.716953" lon="4.133797">
        <ele>33.38636</ele>
        <time>2021-07-01T10:41:03Z</time>
      </trkpt>
      <trkpt lat="43.716953" lon="4.133797">
        <ele>33.81157</ele>
        <time>2021-07-01T10:41:04Z</time>
      </trkpt>
      <trkpt lat="43.716915" lon="4.133724">
        <ele>33.67007</ele>
        <time>2021-07-01T10:41:05Z</time>
      </trkpt>
      <trkpt lat="43.716846" lon="4.133639">
        <ele>33.83397</ele>
        <time>2021-07-01T10:41:06Z</time>
      </trkpt>
      <trkpt lat="43.716808" lon="4.133588">
        <ele>33.71168</ele>
        <time>2021-07-01T10:41:07Z</time>
      </trkpt>
      <trkpt lat="43.716751" lon="4.133501">
        <ele>33.63566</ele>
        <time>2021-07-01T10:41:08Z</time>
      </trkpt>
      <trkpt lat="43.716694" lon="4.133410">
        <ele>33.92144</ele>
        <time>2021-07-01T10:41:09Z</time>
      </trkpt>
      <trkpt lat="43.716633" lon="4.133324">
        <ele>33.97233</ele>
        <time>2021-07-01T10:41:10Z</time>
      </trkpt>
      <trkpt lat="43.716576" lon="4.133248">
        <ele>34.11322</ele>
        <time>2021-07-01T10:41:11Z</time>
      </trkpt>
      <trkpt lat="43.716526" lon="4.133175">
        <ele>34.17808</ele>
        <time>2021-07-01T10:41:12Z</time>
      </trkpt>
      <trkpt lat="43.716473" lon="4.133104">
        <ele>33.88210</ele>
        <time>2021-07-01T10:41:13Z</time>
      </trkpt>
      <trkpt lat="43.716423" lon="4.133032">
        <ele>33.72563</ele>
        <time>2021-07-01T10:41:14Z</time>
      </trkpt>
      <trkpt lat="43.716370" lon="4.132958">
        <ele>33.56982</ele>
        <time>2021-07-01T10:41:15Z</time>
      </trkpt>
      <trkpt lat="43.716324" lon="4.132878">
        <ele>33.86848</ele>
        <time>2021-07-01T10:41:16Z</time>
      </trkpt>
      <trkpt lat="43.716274" lon="4.132799">
        <ele>33.97921</ele>
        <time>2021-07-01T10:41:17Z</time>
      </trkpt>
      <trkpt lat="43.716213" lon="4.132734">
        <ele>34.66983</ele>
        <time>2021-07-01T10:41:18Z</time>
      </trkpt>
      <trkpt lat="43.716152" lon="4.132670">
        <ele>34.27142</ele>
        <time>2021-07-01T10:41:19Z</time>
      </trkpt>
      <trkpt lat="43.716091" lon="4.132610">
        <ele>34.31602</ele>
        <time>2021-07-01T10:41:20Z</time>
      </trkpt>
      <trkpt lat="43.716026" lon="4.132545">
        <ele>33.91922</ele>
        <time>2021-07-01T10:41:21Z</time>
      </trkpt>
      <trkpt lat="43.715973" lon="4.132486">
        <ele>33.69423</ele>
        <time>2021-07-01T10:41:22Z</time>
      </trkpt>
      <trkpt lat="43.715912" lon="4.132424">
        <ele>33.65857</ele>
        <time>2021-07-01T10:41:23Z</time>
      </trkpt>
      <trkpt lat="43.715851" lon="4.132362">
        <ele>33.61630</ele>
        <time>2021-07-01T10:41:24Z</time>
      </trkpt>
      <trkpt lat="43.715778" lon="4.132289">
        <ele>33.70409</ele>
        <time>2021-07-01T10:41:25Z</time>
      </trkpt>
      <trkpt lat="43.715710" lon="4.132204">
        <ele>33.79291</ele>
        <time>2021-07-01T10:41:26Z</time>
      </trkpt>
      <trkpt lat="43.715652" lon="4.132132">
        <ele>33.83368</ele>
        <time>2021-07-01T10:41:27Z</time>
      </trkpt>
      <trkpt lat="43.715584" lon="4.132086">
        <ele>34.47940</ele>
        <time>2021-07-01T10:41:28Z</time>
      </trkpt>
      <trkpt lat="43.715485" lon="4.132020">
        <ele>34.55895</ele>
        <time>2021-07-01T10:41:29Z</time>
      </trkpt>
      <trkpt lat="43.715378" lon="4.131951">
        <ele>34.43721</ele>
        <time>2021-07-01T10:41:30Z</time>
      </trkpt>
      <trkpt lat="43.715290" lon="4.131880">
        <ele>34.28805</ele>
        <time>2021-07-01T10:41:31Z</time>
      </trkpt>
      <trkpt lat="43.715229" lon="4.131779">
        <ele>34.29494</ele>
        <time>2021-07-01T10:41:32Z</time>
      </trkpt>
      <trkpt lat="43.715195" lon="4.131667">
        <ele>34.14325</ele>
        <time>2021-07-01T10:41:33Z</time>
      </trkpt>
      <trkpt lat="43.715168" lon="4.131590">
        <ele>33.83688</ele>
        <time>2021-07-01T10:41:34Z</time>
      </trkpt>
      <trkpt lat="43.715168" lon="4.131583">
        <ele>32.59215</ele>
        <time>2021-07-01T10:41:35Z</time>
      </trkpt>
      <trkpt lat="43.714981" lon="4.131578">
        <ele>32.23911</ele>
        <time>2021-07-01T10:41:36Z</time>
      </trkpt>
      <trkpt lat="43.714939" lon="4.131634">
        <ele>32.02484</ele>
        <time>2021-07-01T10:41:37Z</time>
      </trkpt>
      <trkpt lat="43.714817" lon="4.131883">
        <ele>32.15511</ele>
        <time>2021-07-01T10:41:38Z</time>
      </trkpt>
      <trkpt lat="43.714783" lon="4.131951">
        <ele>32.18926</ele>
        <time>2021-07-01T10:41:39Z</time>
      </trkpt>
      <trkpt lat="43.714741" lon="4.132028">
        <ele>32.37954</ele>
        <time>2021-07-01T10:41:40Z</time>
      </trkpt>
      <trkpt lat="43.714699" lon="4.132100">
        <ele>32.75155</ele>
        <time>2021-07-01T10:41:41Z</time>
      </trkpt>
      <trkpt lat="43.714664" lon="4.132161">
        <ele>32.91752</ele>
        <time>2021-07-01T10:41:42Z</time>
      </trkpt>
      <trkpt lat="43.714653" lon="4.132170">
        <ele>33.04749</ele>
        <time>2021-07-01T10:41:43Z</time>
      </trkpt>
      <trkpt lat="43.714516" lon="4.132242">
        <ele>33.15058</ele>
        <time>2021-07-01T10:41:44Z</time>
      </trkpt>
      <trkpt lat="43.714455" lon="4.132271">
        <ele>33.46334</ele>
        <time>2021-07-01T10:41:45Z</time>
      </trkpt>
      <trkpt lat="43.714409" lon="4.132209">
        <ele>33.63048</ele>
        <time>2021-07-01T10:41:46Z</time>
      </trkpt>
      <trkpt lat="43.714294" lon="4.132085">
        <ele>33.58415</ele>
        <time>2021-07-01T10:41:47Z</time>
      </trkpt>
      <trkpt lat="43.714294" lon="4.132085">
        <ele>33.44027</ele>
        <time>2021-07-01T10:41:48Z</time>
      </trkpt>
      <trkpt lat="43.714214" lon="4.132084">
        <ele>33.80333</ele>
        <time>2021-07-01T10:41:49Z</time>
      </trkpt>
      <trkpt lat="43.714153" lon="4.132120">
        <ele>33.88754</ele>
        <time>2021-07-01T10:41:50Z</time>
      </trkpt>
      <trkpt lat="43.714096" lon="4.132118">
        <ele>34.24376</ele>
        <time>2021-07-01T10:41:51Z</time>
      </trkpt>
      <trkpt lat="43.714043" lon="4.132117">
        <ele>35.12489</ele>
        <time>2021-07-01T10:41:52Z</time>
      </trkpt>
      <trkpt lat="43.713917" lon="4.132072">
        <ele>35.46664</ele>
        <time>2021-07-01T10:41:53Z</time>
      </trkpt>
      <trkpt lat="43.713818" lon="4.132004">
        <ele>36.46254</ele>
        <time>2021-07-01T10:41:54Z</time>
      </trkpt>
      <trkpt lat="43.713696" lon="4.131888">
        <ele>36.80875</ele>
        <time>2021-07-01T10:41:55Z</time>
      </trkpt>
      <trkpt lat="43.713566" lon="4.131766">
        <ele>37.34978</ele>
        <time>2021-07-01T10:41:56Z</time>
      </trkpt>
      <trkpt lat="43.713440" lon="4.131644">
        <ele>38.38856</ele>
        <time>2021-07-01T10:41:57Z</time>
      </trkpt>
      <trkpt lat="43.713306" lon="4.131508">
        <ele>38.77366</ele>
        <time>2021-07-01T10:41:58Z</time>
      </trkpt>
      <trkpt lat="43.713184" lon="4.131337">
        <ele>39.41855</ele>
        <time>2021-07-01T10:41:59Z</time>
      </trkpt>
      <trkpt lat="43.713055" lon="4.131156">
        <ele>39.56465</ele>
        <time>2021-07-01T10:42:00Z</time>
      </trkpt>
      <trkpt lat="43.712929" lon="4.130970">
        <ele>34.37753</ele>
        <time>2021-07-01T10:42:01Z</time>
      </trkpt>
      <trkpt lat="43.712788" lon="4.130766">
        <ele>33.68893</ele>
        <time>2021-07-01T10:42:02Z</time>
      </trkpt>
      <trkpt lat="43.712620" lon="4.130648">
        <ele>33.69699</ele>
        <time>2021-07-01T10:42:03Z</time>
      </trkpt>
      <trkpt lat="43.712498" lon="4.130493">
        <ele>34.34011</ele>
        <time>2021-07-01T10:42:04Z</time>
      </trkpt>
      <trkpt lat="43.712330" lon="4.130210">
        <ele>34.45846</ele>
        <time>2021-07-01T10:42:05Z</time>
      </trkpt>
      <trkpt lat="43.712154" lon="4.129914">
        <ele>34.65176</ele>
        <time>2021-07-01T10:42:06Z</time>
      </trkpt>
      <trkpt lat="43.712002" lon="4.129662">
        <ele>35.57187</ele>
        <time>2021-07-01T10:42:07Z</time>
      </trkpt>
      <trkpt lat="43.711853" lon="4.129408">
        <ele>35.99295</ele>
        <time>2021-07-01T10:42:08Z</time>
      </trkpt>
      <trkpt lat="43.711697" lon="4.129147">
        <ele>36.79275</ele>
        <time>2021-07-01T10:42:09Z</time>
      </trkpt>
      <trkpt lat="43.711533" lon="4.128876">
        <ele>37.35617</ele>
        <time>2021-07-01T10:42:10Z</time>
      </trkpt>
      <trkpt lat="43.711357" lon="4.128579">
        <ele>37.55044</ele>
        <time>2021-07-01T10:42:11Z</time>
      </trkpt>
      <trkpt lat="43.711178" lon="4.128296">
        <ele>37.87637</ele>
        <time>2021-07-01T10:42:12Z</time>
      </trkpt>
      <trkpt lat="43.711010" lon="4.128019">
        <ele>38.27584</ele>
        <time>2021-07-01T10:42:13Z</time>
      </trkpt>
      <trkpt lat="43.710831" lon="4.127719">
        <ele>38.83291</ele>
        <time>2021-07-01T10:42:14Z</time>
      </trkpt>
      <trkpt lat="43.710648" lon="4.127418">
        <ele>39.35177</ele>
        <time>2021-07-01T10:42:15Z</time>
      </trkpt>
      <trkpt lat="43.710464" lon="4.127121">
        <ele>39.96786</ele>
        <time>2021-07-01T10:42:16Z</time>
      </trkpt>
      <trkpt lat="43.710278" lon="4.126814">
        <ele>40.42379</ele>
        <time>2021-07-01T10:42:17Z</time>
      </trkpt>
      <trkpt lat="43.710102" lon="4.126530">
        <ele>40.92080</ele>
        <time>2021-07-01T10:42:18Z</time>
      </trkpt>
      <trkpt lat="43.709911" lon="4.126222">
        <ele>40.43576</ele>
        <time>2021-07-01T10:42:19Z</time>
      </trkpt>
      <trkpt lat="43.709728" lon="4.125924">
        <ele>40.53500</ele>
        <time>2021-07-01T10:42:20Z</time>
      </trkpt>
      <trkpt lat="43.709553" lon="4.125646">
        <ele>40.87289</ele>
        <time>2021-07-01T10:42:21Z</time>
      </trkpt>
      <trkpt lat="43.709366" lon="4.125350">
        <ele>41.17245</ele>
        <time>2021-07-01T10:42:22Z</time>
      </trkpt>
      <trkpt lat="43.709183" lon="4.125060">
        <ele>41.53427</ele>
        <time>2021-07-01T10:42:23Z</time>
      </trkpt>
      <trkpt lat="43.709003" lon="4.124770">
        <ele>42.10336</ele>
        <time>2021-07-01T10:42:24Z</time>
      </trkpt>
      <trkpt lat="43.709003" lon="4.124770">
        <ele>42.32962</ele>
        <time>2021-07-01T10:42:25Z</time>
      </trkpt>
      <trkpt lat="43.708794" lon="4.124439">
        <ele>42.56454</ele>
        <time>2021-07-01T10:42:26Z</time>
      </trkpt>
      <trkpt lat="43.708553" lon="4.124060">
        <ele>42.66226</ele>
        <time>2021-07-01T10:42:27Z</time>
      </trkpt>
      <trkpt lat="43.708302" lon="4.123675">
        <ele>43.00546</ele>
        <time>2021-07-01T10:42:28Z</time>
      </trkpt>
      <trkpt lat="43.708057" lon="4.123300">
        <ele>42.95614</ele>
        <time>2021-07-01T10:42:29Z</time>
      </trkpt>
      <trkpt lat="43.707844" lon="4.122973">
        <ele>42.51065</ele>
        <time>2021-07-01T10:42:30Z</time>
      </trkpt>
      <trkpt lat="43.707619" lon="4.122651">
        <ele>42.37179</ele>
        <time>2021-07-01T10:42:31Z</time>
      </trkpt>
      <trkpt lat="43.707378" lon="4.122309">
        <ele>42.42086</ele>
        <time>2021-07-01T10:42:32Z</time>
      </trkpt>
      <trkpt lat="43.707130" lon="4.121957">
        <ele>41.71670</ele>
        <time>2021-07-01T10:42:33Z</time>
      </trkpt>
      <trkpt lat="43.706905" lon="4.121641">
        <ele>41.62069</ele>
        <time>2021-07-01T10:42:34Z</time>
      </trkpt>
      <trkpt lat="43.706673" lon="4.121326">
        <ele>41.70065</ele>
        <time>2021-07-01T10:42:35Z</time>
      </trkpt>
      <trkpt lat="43.706440" lon="4.121015">
        <ele>41.50546</ele>
        <time>2021-07-01T10:42:36Z</time>
      </trkpt>
      <trkpt lat="43.706211" lon="4.120705">
        <ele>40.89791</ele>
        <time>2021-07-01T10:42:37Z</time>
      </trkpt>
      <trkpt lat="43.705963" lon="4.120375">
        <ele>39.98648</ele>
        <time>2021-07-01T10:42:38Z</time>
      </trkpt>
      <trkpt lat="43.705719" lon="4.120050">
        <ele>40.13424</ele>
        <time>2021-07-01T10:42:39Z</time>
      </trkpt>
      <trkpt lat="43.705467" lon="4.119728">
        <ele>39.16903</ele>
        <time>2021-07-01T10:42:40Z</time>
      </trkpt>
      <trkpt lat="43.705212" lon="4.119405">
        <ele>39.86465</ele>
        <time>2021-07-01T10:42:41Z</time>
      </trkpt>
      <trkpt lat="43.704948" lon="4.119072">
        <ele>39.97995</ele>
        <time>2021-07-01T10:42:42Z</time>
      </trkpt>
      <trkpt lat="43.704693" lon="4.118736">
        <ele>39.53128</ele>
        <time>2021-07-01T10:42:43Z</time>
      </trkpt>
      <trkpt lat="43.704437" lon="4.118409">
        <ele>39.69046</ele>
        <time>2021-07-01T10:42:44Z</time>
      </trkpt>
      <trkpt lat="43.704170" lon="4.118064">
        <ele>39.34872</ele>
        <time>2021-07-01T10:42:45Z</time>
      </trkpt>
      <trkpt lat="43.703915" lon="4.117734">
        <ele>38.83560</ele>
        <time>2021-07-01T10:42:46Z</time>
      </trkpt>
      <trkpt lat="43.703674" lon="4.117425">
        <ele>37.90194</ele>
        <time>2021-07-01T10:42:47Z</time>
      </trkpt>
      <trkpt lat="43.703419" lon="4.117091">
        <ele>37.92398</ele>
        <time>2021-07-01T10:42:48Z</time>
      </trkpt>
      <trkpt lat="43.703163" lon="4.116744">
        <ele>38.17154</ele>
        <time>2021-07-01T10:42:49Z</time>
      </trkpt>
      <trkpt lat="43.702972" lon="4.116473">
        <ele>38.11520</ele>
        <time>2021-07-01T10:42:50Z</time>
      </trkpt>
      <trkpt lat="43.702923" lon="4.116403">
        <ele>37.61929</ele>
        <time>2021-07-01T10:42:51Z</time>
      </trkpt>
      <trkpt lat="43.702923" lon="4.116403">
        <ele>37.42819</ele>
        <time>2021-07-01T10:42:52Z</time>
      </trkpt>
      <trkpt lat="43.702431" lon="4.115779">
        <ele>35.38760</ele>
        <time>2021-07-01T10:42:53Z</time>
      </trkpt>
      <trkpt lat="43.702190" lon="4.115445">
        <ele>34.96420</ele>
        <time>2021-07-01T10:42:54Z</time>
      </trkpt>
      <trkpt lat="43.701939" lon="4.115089">
        <ele>34.62173</ele>
        <time>2021-07-01T10:42:55Z</time>
      </trkpt>
      <trkpt lat="43.701710" lon="4.114762">
        <ele>34.41439</ele>
        <time>2021-07-01T10:42:56Z</time>
      </trkpt>
      <trkpt lat="43.701496" lon="4.114436">
        <ele>34.16677</ele>
        <time>2021-07-01T10:42:57Z</time>
      </trkpt>
      <trkpt lat="43.701256" lon="4.114068">
        <ele>34.58126</ele>
        <time>2021-07-01T10:42:58Z</time>
      </trkpt>
      <trkpt lat="43.701042" lon="4.113732">
        <ele>33.99343</ele>
        <time>2021-07-01T10:42:59Z</time>
      </trkpt>
      <trkpt lat="43.700851" lon="4.113407">
        <ele>33.98410</ele>
        <time>2021-07-01T10:43:00Z</time>
      </trkpt>
      <trkpt lat="43.700649" lon="4.113062">
        <ele>33.61862</ele>
        <time>2021-07-01T10:43:01Z</time>
      </trkpt>
      <trkpt lat="43.700455" lon="4.112713">
        <ele>33.65091</ele>
        <time>2021-07-01T10:43:02Z</time>
      </trkpt>
      <trkpt lat="43.700253" lon="4.112355">
        <ele>33.92117</ele>
        <time>2021-07-01T10:43:03Z</time>
      </trkpt>
      <trkpt lat="43.700054" lon="4.111972">
        <ele>33.68521</ele>
        <time>2021-07-01T10:43:04Z</time>
      </trkpt>
      <trkpt lat="43.699883" lon="4.111621">
        <ele>33.57003</ele>
        <time>2021-07-01T10:43:05Z</time>
      </trkpt>
      <trkpt lat="43.699703" lon="4.111249">
        <ele>33.18197</ele>
        <time>2021-07-01T10:43:06Z</time>
      </trkpt>
      <trkpt lat="43.699539" lon="4.110885">
        <ele>33.65066</ele>
        <time>2021-07-01T10:43:07Z</time>
      </trkpt>
      <trkpt lat="43.699390" lon="4.110542">
        <ele>33.12985</ele>
        <time>2021-07-01T10:43:08Z</time>
      </trkpt>
      <trkpt lat="43.699242" lon="4.110201">
        <ele>33.16592</ele>
        <time>2021-07-01T10:43:09Z</time>
      </trkpt>
      <trkpt lat="43.699097" lon="4.109848">
        <ele>32.90225</ele>
        <time>2021-07-01T10:43:10Z</time>
      </trkpt>
      <trkpt lat="43.698959" lon="4.109517">
        <ele>32.95028</ele>
        <time>2021-07-01T10:43:11Z</time>
      </trkpt>
      <trkpt lat="43.698833" lon="4.109187">
        <ele>32.82589</ele>
        <time>2021-07-01T10:43:12Z</time>
      </trkpt>
      <trkpt lat="43.698711" lon="4.108846">
        <ele>33.56442</ele>
        <time>2021-07-01T10:43:13Z</time>
      </trkpt>
      <trkpt lat="43.698597" lon="4.108521">
        <ele>34.09573</ele>
        <time>2021-07-01T10:43:14Z</time>
      </trkpt>
      <trkpt lat="43.698479" lon="4.108174">
        <ele>34.82119</ele>
        <time>2021-07-01T10:43:15Z</time>
      </trkpt>
      <trkpt lat="43.698360" lon="4.107803">
        <ele>35.41568</ele>
        <time>2021-07-01T10:43:16Z</time>
      </trkpt>
      <trkpt lat="43.698242" lon="4.107434">
        <ele>33.93887</ele>
        <time>2021-07-01T10:43:17Z</time>
      </trkpt>
      <trkpt lat="43.698135" lon="4.107077">
        <ele>34.28115</ele>
        <time>2021-07-01T10:43:18Z</time>
      </trkpt>
      <trkpt lat="43.698029" lon="4.106715">
        <ele>34.70492</ele>
        <time>2021-07-01T10:43:19Z</time>
      </trkpt>
      <trkpt lat="43.697941" lon="4.106360">
        <ele>33.17916</ele>
        <time>2021-07-01T10:43:20Z</time>
      </trkpt>
      <trkpt lat="43.697842" lon="4.105971">
        <ele>33.76876</ele>
        <time>2021-07-01T10:43:21Z</time>
      </trkpt>
      <trkpt lat="43.697754" lon="4.105606">
        <ele>32.15805</ele>
        <time>2021-07-01T10:43:22Z</time>
      </trkpt>
      <trkpt lat="43.697670" lon="4.105248">
        <ele>31.98880</ele>
        <time>2021-07-01T10:43:23Z</time>
      </trkpt>
      <trkpt lat="43.697590" lon="4.104869">
        <ele>32.18777</ele>
        <time>2021-07-01T10:43:24Z</time>
      </trkpt>
      <trkpt lat="43.697590" lon="4.104869">
        <ele>31.73935</ele>
        <time>2021-07-01T10:43:25Z</time>
      </trkpt>
      <trkpt lat="43.697521" lon="4.104495">
        <ele>30.97659</ele>
        <time>2021-07-01T10:43:26Z</time>
      </trkpt>
      <trkpt lat="43.697449" lon="4.104108">
        <ele>31.55783</ele>
        <time>2021-07-01T10:43:27Z</time>
      </trkpt>
      <trkpt lat="43.697376" lon="4.103706">
        <ele>31.02517</ele>
        <time>2021-07-01T10:43:28Z</time>
      </trkpt>
      <trkpt lat="43.697315" lon="4.103288">
        <ele>30.44760</ele>
        <time>2021-07-01T10:43:29Z</time>
      </trkpt>
      <trkpt lat="43.697254" lon="4.102877">
        <ele>30.71634</ele>
        <time>2021-07-01T10:43:30Z</time>
      </trkpt>
      <trkpt lat="43.697193" lon="4.102426">
        <ele>30.42678</ele>
        <time>2021-07-01T10:43:31Z</time>
      </trkpt>
      <trkpt lat="43.697136" lon="4.101946">
        <ele>30.87423</ele>
        <time>2021-07-01T10:43:32Z</time>
      </trkpt>
      <trkpt lat="43.697094" lon="4.101482">
        <ele>30.23642</ele>
        <time>2021-07-01T10:43:33Z</time>
      </trkpt>
      <trkpt lat="43.697052" lon="4.101026">
        <ele>28.86282</ele>
        <time>2021-07-01T10:43:34Z</time>
      </trkpt>
      <trkpt lat="43.697010" lon="4.100541">
        <ele>28.09274</ele>
        <time>2021-07-01T10:43:35Z</time>
      </trkpt>
      <trkpt lat="43.696976" lon="4.100080">
        <ele>27.39669</ele>
        <time>2021-07-01T10:43:36Z</time>
      </trkpt>
      <trkpt lat="43.696949" lon="4.099623">
        <ele>27.19888</ele>
        <time>2021-07-01T10:43:37Z</time>
      </trkpt>
      <trkpt lat="43.696926" lon="4.099142">
        <ele>27.39968</ele>
        <time>2021-07-01T10:43:38Z</time>
      </trkpt>
      <trkpt lat="43.696907" lon="4.098698">
        <ele>27.43765</ele>
        <time>2021-07-01T10:43:39Z</time>
      </trkpt>
      <trkpt lat="43.696884" lon="4.098256">
        <ele>26.65133</ele>
        <time>2021-07-01T10:43:40Z</time>
      </trkpt>
      <trkpt lat="43.696865" lon="4.097814">
        <ele>25.54745</ele>
        <time>2021-07-01T10:43:41Z</time>
      </trkpt>
      <trkpt lat="43.696854" lon="4.097388">
        <ele>24.71542</ele>
        <time>2021-07-01T10:43:42Z</time>
      </trkpt>
      <trkpt lat="43.696838" lon="4.096957">
        <ele>23.91562</ele>
        <time>2021-07-01T10:43:43Z</time>
      </trkpt>
      <trkpt lat="43.696827" lon="4.096539">
        <ele>23.18264</ele>
        <time>2021-07-01T10:43:44Z</time>
      </trkpt>
      <trkpt lat="43.696819" lon="4.096116">
        <ele>21.84707</ele>
        <time>2021-07-01T10:43:45Z</time>
      </trkpt>
      <trkpt lat="43.696808" lon="4.095688">
        <ele>21.56527</ele>
        <time>2021-07-01T10:43:46Z</time>
      </trkpt>
      <trkpt lat="43.696796" lon="4.095263">
        <ele>21.54452</ele>
        <time>2021-07-01T10:43:47Z</time>
      </trkpt>
      <trkpt lat="43.696789" lon="4.094824">
        <ele>21.96536</ele>
        <time>2021-07-01T10:43:48Z</time>
      </trkpt>
      <trkpt lat="43.696762" lon="4.094390">
        <ele>22.32827</ele>
        <time>2021-07-01T10:43:49Z</time>
      </trkpt>
      <trkpt lat="43.696735" lon="4.093955">
        <ele>22.65249</ele>
        <time>2021-07-01T10:43:50Z</time>
      </trkpt>
      <trkpt lat="43.696709" lon="4.093511">
        <ele>23.74533</ele>
        <time>2021-07-01T10:43:51Z</time>
      </trkpt>
      <trkpt lat="43.696678" lon="4.093099">
        <ele>23.85922</ele>
        <time>2021-07-01T10:43:52Z</time>
      </trkpt>
      <trkpt lat="43.696644" lon="4.092668">
        <ele>23.46273</ele>
        <time>2021-07-01T10:43:53Z</time>
      </trkpt>
      <trkpt lat="43.696602" lon="4.092233">
        <ele>23.27969</ele>
        <time>2021-07-01T10:43:54Z</time>
      </trkpt>
      <trkpt lat="43.696556" lon="4.091763">
        <ele>22.77078</ele>
        <time>2021-07-01T10:43:55Z</time>
      </trkpt>
      <trkpt lat="43.696503" lon="4.091273">
        <ele>23.07235</ele>
        <time>2021-07-01T10:43:56Z</time>
      </trkpt>
      <trkpt lat="43.696503" lon="4.091273">
        <ele>23.29940</ele>
        <time>2021-07-01T10:43:57Z</time>
      </trkpt>
      <trkpt lat="43.696434" lon="4.090804">
        <ele>23.37222</ele>
        <time>2021-07-01T10:43:58Z</time>
      </trkpt>
      <trkpt lat="43.696362" lon="4.090325">
        <ele>22.99282</ele>
        <time>2021-07-01T10:43:59Z</time>
      </trkpt>
      <trkpt lat="43.696293" lon="4.089852">
        <ele>23.91287</ele>
        <time>2021-07-01T10:44:00Z</time>
      </trkpt>
      <trkpt lat="43.696201" lon="4.089372">
        <ele>24.15451</ele>
        <time>2021-07-01T10:44:01Z</time>
      </trkpt>
      <trkpt lat="43.696110" lon="4.088882">
        <ele>24.71988</ele>
        <time>2021-07-01T10:44:02Z</time>
      </trkpt>
      <trkpt lat="43.696011" lon="4.088423">
        <ele>24.98452</ele>
        <time>2021-07-01T10:44:03Z</time>
      </trkpt>
      <trkpt lat="43.695889" lon="4.087926">
        <ele>25.35281</ele>
        <time>2021-07-01T10:44:04Z</time>
      </trkpt>
      <trkpt lat="43.695770" lon="4.087447">
        <ele>25.97512</ele>
        <time>2021-07-01T10:44:05Z</time>
      </trkpt>
      <trkpt lat="43.695648" lon="4.086969">
        <ele>26.36294</ele>
        <time>2021-07-01T10:44:06Z</time>
      </trkpt>
      <trkpt lat="43.695522" lon="4.086493">
        <ele>27.06204</ele>
        <time>2021-07-01T10:44:07Z</time>
      </trkpt>
      <trkpt lat="43.695389" lon="4.086014">
        <ele>27.67758</ele>
        <time>2021-07-01T10:44:08Z</time>
      </trkpt>
      <trkpt lat="43.695255" lon="4.085554">
        <ele>28.25485</ele>
        <time>2021-07-01T10:44:09Z</time>
      </trkpt>
      <trkpt lat="43.695126" lon="4.085114">
        <ele>28.98068</ele>
        <time>2021-07-01T10:44:10Z</time>
      </trkpt>
      <trkpt lat="43.694988" lon="4.084645">
        <ele>29.69394</ele>
        <time>2021-07-01T10:44:11Z</time>
      </trkpt>
      <trkpt lat="43.694851" lon="4.084185">
        <ele>29.99252</ele>
        <time>2021-07-01T10:44:12Z</time>
      </trkpt>
      <trkpt lat="43.694714" lon="4.083743">
        <ele>30.01370</ele>
        <time>2021-07-01T10:44:13Z</time>
      </trkpt>
      <trkpt lat="43.694572" lon="4.083287">
        <ele>30.14431</ele>
        <time>2021-07-01T10:44:14Z</time>
      </trkpt>
      <trkpt lat="43.694435" lon="4.082841">
        <ele>30.00680</ele>
        <time>2021-07-01T10:44:15Z</time>
      </trkpt>
      <trkpt lat="43.694294" lon="4.082385">
        <ele>30.05398</ele>
        <time>2021-07-01T10:44:16Z</time>
      </trkpt>
      <trkpt lat="43.694153" lon="4.081926">
        <ele>29.73184</ele>
        <time>2021-07-01T10:44:17Z</time>
      </trkpt>
      <trkpt lat="43.694008" lon="4.081452">
        <ele>29.55410</ele>
        <time>2021-07-01T10:44:18Z</time>
      </trkpt>
      <trkpt lat="43.693863" lon="4.080991">
        <ele>29.85818</ele>
        <time>2021-07-01T10:44:19Z</time>
      </trkpt>
      <trkpt lat="43.693718" lon="4.080515">
        <ele>30.28122</ele>
        <time>2021-07-01T10:44:20Z</time>
      </trkpt>
      <trkpt lat="43.693577" lon="4.080059">
        <ele>29.61929</ele>
        <time>2021-07-01T10:44:21Z</time>
      </trkpt>
      <trkpt lat="43.693424" lon="4.079573">
        <ele>28.16269</ele>
        <time>2021-07-01T10:44:22Z</time>
      </trkpt>
      <trkpt lat="43.693283" lon="4.079108">
        <ele>28.07101</ele>
        <time>2021-07-01T10:44:23Z</time>
      </trkpt>
      <trkpt lat="43.693142" lon="4.078652">
        <ele>28.03354</ele>
        <time>2021-07-01T10:44:24Z</time>
      </trkpt>
      <trkpt lat="43.693001" lon="4.078196">
        <ele>28.36697</ele>
        <time>2021-07-01T10:44:25Z</time>
      </trkpt>
      <trkpt lat="43.692860" lon="4.077733">
        <ele>28.89523</ele>
        <time>2021-07-01T10:44:26Z</time>
      </trkpt>
      <trkpt lat="43.692719" lon="4.077281">
        <ele>28.68588</ele>
        <time>2021-07-01T10:44:27Z</time>
      </trkpt>
      <trkpt lat="43.692719" lon="4.077281">
        <ele>28.04562</ele>
        <time>2021-07-01T10:44:28Z</time>
      </trkpt>
      <trkpt lat="43.692574" lon="4.076808">
        <ele>27.28799</ele>
        <time>2021-07-01T10:44:29Z</time>
      </trkpt>
      <trkpt lat="43.692436" lon="4.076358">
        <ele>27.21225</ele>
        <time>2021-07-01T10:44:30Z</time>
      </trkpt>
      <trkpt lat="43.692291" lon="4.075882">
        <ele>26.80026</ele>
        <time>2021-07-01T10:44:31Z</time>
      </trkpt>
      <trkpt lat="43.692150" lon="4.075405">
        <ele>26.55856</ele>
        <time>2021-07-01T10:44:32Z</time>
      </trkpt>
      <trkpt lat="43.692009" lon="4.074932">
        <ele>26.18148</ele>
        <time>2021-07-01T10:44:33Z</time>
      </trkpt>
      <trkpt lat="43.691868" lon="4.074457">
        <ele>25.00229</ele>
        <time>2021-07-01T10:44:34Z</time>
      </trkpt>
      <trkpt lat="43.691727" lon="4.073988">
        <ele>24.74856</ele>
        <time>2021-07-01T10:44:35Z</time>
      </trkpt>
      <trkpt lat="43.691593" lon="4.073534">
        <ele>24.90792</ele>
        <time>2021-07-01T10:44:36Z</time>
      </trkpt>
      <trkpt lat="43.691456" lon="4.073067">
        <ele>24.11709</ele>
        <time>2021-07-01T10:44:37Z</time>
      </trkpt>
      <trkpt lat="43.691322" lon="4.072597">
        <ele>22.54910</ele>
        <time>2021-07-01T10:44:38Z</time>
      </trkpt>
      <trkpt lat="43.691204" lon="4.072141">
        <ele>22.74398</ele>
        <time>2021-07-01T10:44:39Z</time>
      </trkpt>
      <trkpt lat="43.691078" lon="4.071654">
        <ele>23.39297</ele>
        <time>2021-07-01T10:44:40Z</time>
      </trkpt>
      <trkpt lat="43.690956" lon="4.071167">
        <ele>23.72433</ele>
        <time>2021-07-01T10:44:41Z</time>
      </trkpt>
      <trkpt lat="43.690845" lon="4.070688">
        <ele>23.87045</ele>
        <time>2021-07-01T10:44:42Z</time>
      </trkpt>
      <trkpt lat="43.690739" lon="4.070213">
        <ele>23.73935</ele>
        <time>2021-07-01T10:44:43Z</time>
      </trkpt>
      <trkpt lat="43.690636" lon="4.069746">
        <ele>23.84896</ele>
        <time>2021-07-01T10:44:44Z</time>
      </trkpt>
      <trkpt lat="43.690536" lon="4.069256">
        <ele>24.34469</ele>
        <time>2021-07-01T10:44:45Z</time>
      </trkpt>
      <trkpt lat="43.690441" lon="4.068781">
        <ele>24.87399</ele>
        <time>2021-07-01T10:44:46Z</time>
      </trkpt>
      <trkpt lat="43.690350" lon="4.068300">
        <ele>24.86032</ele>
        <time>2021-07-01T10:44:47Z</time>
      </trkpt>
      <trkpt lat="43.690254" lon="4.067806">
        <ele>25.38791</ele>
        <time>2021-07-01T10:44:48Z</time>
      </trkpt>
      <trkpt lat="43.690170" lon="4.067335">
        <ele>25.80832</ele>
        <time>2021-07-01T10:44:49Z</time>
      </trkpt>
      <trkpt lat="43.690086" lon="4.066857">
        <ele>25.98642</ele>
        <time>2021-07-01T10:44:50Z</time>
      </trkpt>
      <trkpt lat="43.689995" lon="4.066364">
        <ele>26.73324</ele>
        <time>2021-07-01T10:44:51Z</time>
      </trkpt>
      <trkpt lat="43.689915" lon="4.065908">
        <ele>27.26968</ele>
        <time>2021-07-01T10:44:52Z</time>
      </trkpt>
      <trkpt lat="43.689835" lon="4.065436">
        <ele>27.59878</ele>
        <time>2021-07-01T10:44:53Z</time>
      </trkpt>
      <trkpt lat="43.689751" lon="4.064952">
        <ele>28.07101</ele>
        <time>2021-07-01T10:44:54Z</time>
      </trkpt>
      <trkpt lat="43.689674" lon="4.064497">
        <ele>27.99002</ele>
        <time>2021-07-01T10:44:55Z</time>
      </trkpt>
      <trkpt lat="43.689674" lon="4.064497">
        <ele>28.63119</ele>
        <time>2021-07-01T10:44:56Z</time>
      </trkpt>
      <trkpt lat="43.689594" lon="4.064031">
        <ele>28.89187</ele>
        <time>2021-07-01T10:44:57Z</time>
      </trkpt>
      <trkpt lat="43.689507" lon="4.063528">
        <ele>29.32510</ele>
        <time>2021-07-01T10:44:58Z</time>
      </trkpt>
      <trkpt lat="43.689419" lon="4.063064">
        <ele>28.49234</ele>
        <time>2021-07-01T10:44:59Z</time>
      </trkpt>
      <trkpt lat="43.689327" lon="4.062568">
        <ele>28.45382</ele>
        <time>2021-07-01T10:45:00Z</time>
      </trkpt>
      <trkpt lat="43.689240" lon="4.062087">
        <ele>28.31015</ele>
        <time>2021-07-01T10:45:01Z</time>
      </trkpt>
      <trkpt lat="43.689144" lon="4.061599">
        <ele>28.16848</ele>
        <time>2021-07-01T10:45:02Z</time>
      </trkpt>
      <trkpt lat="43.689041" lon="4.061104">
        <ele>28.19363</ele>
        <time>2021-07-01T10:45:03Z</time>
      </trkpt>
      <trkpt lat="43.688942" lon="4.060618">
        <ele>28.52316</ele>
        <time>2021-07-01T10:45:04Z</time>
      </trkpt>
      <trkpt lat="43.688847" lon="4.060153">
        <ele>28.70010</ele>
        <time>2021-07-01T10:45:05Z</time>
      </trkpt>
      <trkpt lat="43.688744" lon="4.059693">
        <ele>29.04495</ele>
        <time>2021-07-01T10:45:06Z</time>
      </trkpt>
      <trkpt lat="43.688633" lon="4.059226">
        <ele>29.07272</ele>
        <time>2021-07-01T10:45:07Z</time>
      </trkpt>
      <trkpt lat="43.688519" lon="4.058732">
        <ele>29.16281</ele>
        <time>2021-07-01T10:45:08Z</time>
      </trkpt>
      <trkpt lat="43.688404" lon="4.058293">
        <ele>28.68112</ele>
        <time>2021-07-01T10:45:09Z</time>
      </trkpt>
      <trkpt lat="43.688286" lon="4.057827">
        <ele>28.87320</ele>
        <time>2021-07-01T10:45:10Z</time>
      </trkpt>
      <trkpt lat="43.688156" lon="4.057361">
        <ele>29.48855</ele>
        <time>2021-07-01T10:45:11Z</time>
      </trkpt>
      <trkpt lat="43.688034" lon="4.056911">
        <ele>30.19613</ele>
        <time>2021-07-01T10:45:12Z</time>
      </trkpt>
      <trkpt lat="43.687901" lon="4.056457">
        <ele>30.98245</ele>
        <time>2021-07-01T10:45:13Z</time>
      </trkpt>
      <trkpt lat="43.687771" lon="4.056017">
        <ele>32.04599</ele>
        <time>2021-07-01T10:45:14Z</time>
      </trkpt>
      <trkpt lat="43.687630" lon="4.055564">
        <ele>32.16122</ele>
        <time>2021-07-01T10:45:15Z</time>
      </trkpt>
      <trkpt lat="43.687466" lon="4.055062">
        <ele>32.66476</ele>
        <time>2021-07-01T10:45:16Z</time>
      </trkpt>
      <trkpt lat="43.687290" lon="4.054550">
        <ele>33.61422</ele>
        <time>2021-07-01T10:45:17Z</time>
      </trkpt>
      <trkpt lat="43.687099" lon="4.053996">
        <ele>34.51089</ele>
        <time>2021-07-01T10:45:18Z</time>
      </trkpt>
      <trkpt lat="43.686924" lon="4.053510">
        <ele>34.96548</ele>
        <time>2021-07-01T10:45:19Z</time>
      </trkpt>
      <trkpt lat="43.686733" lon="4.053039">
        <ele>35.75161</ele>
        <time>2021-07-01T10:45:20Z</time>
      </trkpt>
      <trkpt lat="43.686558" lon="4.052600">
        <ele>36.77993</ele>
        <time>2021-07-01T10:45:21Z</time>
      </trkpt>
      <trkpt lat="43.686378" lon="4.052164">
        <ele>36.00485</ele>
        <time>2021-07-01T10:45:22Z</time>
      </trkpt>
      <trkpt lat="43.686192" lon="4.051708">
        <ele>36.16665</ele>
        <time>2021-07-01T10:45:23Z</time>
      </trkpt>
      <trkpt lat="43.686008" lon="4.051280">
        <ele>36.25473</ele>
        <time>2021-07-01T10:45:24Z</time>
      </trkpt>
      <trkpt lat="43.685833" lon="4.050865">
        <ele>36.45602</ele>
        <time>2021-07-01T10:45:25Z</time>
      </trkpt>
      <trkpt lat="43.685658" lon="4.050458">
        <ele>36.72555</ele>
        <time>2021-07-01T10:45:26Z</time>
      </trkpt>
      <trkpt lat="43.685459" lon="4.050045">
        <ele>36.63046</ele>
        <time>2021-07-01T10:45:27Z</time>
      </trkpt>
      <trkpt lat="43.685257" lon="4.049613">
        <ele>37.13839</ele>
        <time>2021-07-01T10:45:28Z</time>
      </trkpt>
      <trkpt lat="43.685066" lon="4.049204">
        <ele>37.31894</ele>
        <time>2021-07-01T10:45:29Z</time>
      </trkpt>
      <trkpt lat="43.684872" lon="4.048799">
        <ele>37.99331</ele>
        <time>2021-07-01T10:45:30Z</time>
      </trkpt>
      <trkpt lat="43.684666" lon="4.048391">
        <ele>37.97305</ele>
        <time>2021-07-01T10:45:31Z</time>
      </trkpt>
      <trkpt lat="43.684456" lon="4.047972">
        <ele>36.96127</ele>
        <time>2021-07-01T10:45:32Z</time>
      </trkpt>
      <trkpt lat="43.684254" lon="4.047580">
        <ele>37.01565</ele>
        <time>2021-07-01T10:45:33Z</time>
      </trkpt>
      <trkpt lat="43.684254" lon="4.047580">
        <ele>37.18563</ele>
        <time>2021-07-01T10:45:34Z</time>
      </trkpt>
      <trkpt lat="43.684055" lon="4.047187">
        <ele>36.92825</ele>
        <time>2021-07-01T10:45:35Z</time>
      </trkpt>
      <trkpt lat="43.683865" lon="4.046819">
        <ele>36.65738</ele>
        <time>2021-07-01T10:45:36Z</time>
      </trkpt>
      <trkpt lat="43.683666" lon="4.046442">
        <ele>36.45877</ele>
        <time>2021-07-01T10:45:37Z</time>
      </trkpt>
      <trkpt lat="43.683460" lon="4.046055">
        <ele>35.58578</ele>
        <time>2021-07-01T10:45:38Z</time>
      </trkpt>
      <trkpt lat="43.683254" lon="4.045664">
        <ele>35.46170</ele>
        <time>2021-07-01T10:45:39Z</time>
      </trkpt>
      <trkpt lat="43.683037" lon="4.045242">
        <ele>35.57400</ele>
        <time>2021-07-01T10:45:40Z</time>
      </trkpt>
      <trkpt lat="43.682812" lon="4.044817">
        <ele>35.30416</ele>
        <time>2021-07-01T10:45:41Z</time>
      </trkpt>
      <trkpt lat="43.682629" lon="4.044471">
        <ele>34.91696</ele>
        <time>2021-07-01T10:45:42Z</time>
      </trkpt>
      <trkpt lat="43.682423" lon="4.044084">
        <ele>34.51376</ele>
        <time>2021-07-01T10:45:43Z</time>
      </trkpt>
      <trkpt lat="43.682224" lon="4.043706">
        <ele>32.30899</ele>
        <time>2021-07-01T10:45:44Z</time>
      </trkpt>
      <trkpt lat="43.682022" lon="4.043308">
        <ele>31.11135</ele>
        <time>2021-07-01T10:45:45Z</time>
      </trkpt>
      <trkpt lat="43.681812" lon="4.042904">
        <ele>30.86978</ele>
        <time>2021-07-01T10:45:46Z</time>
      </trkpt>
      <trkpt lat="43.681606" lon="4.042497">
        <ele>29.97683</ele>
        <time>2021-07-01T10:45:47Z</time>
      </trkpt>
      <trkpt lat="43.681412" lon="4.042093">
        <ele>29.62918</ele>
        <time>2021-07-01T10:45:48Z</time>
      </trkpt>
      <trkpt lat="43.681210" lon="4.041683">
        <ele>30.15854</ele>
        <time>2021-07-01T10:45:49Z</time>
      </trkpt>
      <trkpt lat="43.681015" lon="4.041277">
        <ele>30.42135</ele>
        <time>2021-07-01T10:45:50Z</time>
      </trkpt>
      <trkpt lat="43.680828" lon="4.040882">
        <ele>30.48593</ele>
        <time>2021-07-01T10:45:51Z</time>
      </trkpt>
      <trkpt lat="43.680649" lon="4.040495">
        <ele>29.58017</ele>
        <time>2021-07-01T10:45:52Z</time>
      </trkpt>
      <trkpt lat="43.680477" lon="4.040105">
        <ele>28.65164</ele>
        <time>2021-07-01T10:45:53Z</time>
      </trkpt>
      <trkpt lat="43.680305" lon="4.039705">
        <ele>27.84884</ele>
        <time>2021-07-01T10:45:54Z</time>
      </trkpt>
      <trkpt lat="43.680141" lon="4.039314">
        <ele>28.17404</ele>
        <time>2021-07-01T10:45:55Z</time>
      </trkpt>
      <trkpt lat="43.679977" lon="4.038903">
        <ele>27.63174</ele>
        <time>2021-07-01T10:45:56Z</time>
      </trkpt>
      <trkpt lat="43.679817" lon="4.038508">
        <ele>27.65506</ele>
        <time>2021-07-01T10:45:57Z</time>
      </trkpt>
      <trkpt lat="43.679672" lon="4.038126">
        <ele>27.50460</ele>
        <time>2021-07-01T10:45:58Z</time>
      </trkpt>
      <trkpt lat="43.679516" lon="4.037693">
        <ele>28.02829</ele>
        <time>2021-07-01T10:45:59Z</time>
      </trkpt>
      <trkpt lat="43.679371" lon="4.037298">
        <ele>27.87863</ele>
        <time>2021-07-01T10:46:00Z</time>
      </trkpt>
      <trkpt lat="43.679241" lon="4.036918">
        <ele>28.28299</ele>
        <time>2021-07-01T10:46:01Z</time>
      </trkpt>
      <trkpt lat="43.679111" lon="4.036515">
        <ele>28.11258</ele>
        <time>2021-07-01T10:46:02Z</time>
      </trkpt>
      <trkpt lat="43.678993" lon="4.036165">
        <ele>29.22500</ele>
        <time>2021-07-01T10:46:03Z</time>
      </trkpt>
      <trkpt lat="43.678875" lon="4.035807">
        <ele>29.64486</ele>
        <time>2021-07-01T10:46:04Z</time>
      </trkpt>
      <trkpt lat="43.678749" lon="4.035420">
        <ele>28.87545</ele>
        <time>2021-07-01T10:46:05Z</time>
      </trkpt>
      <trkpt lat="43.678631" lon="4.035059">
        <ele>28.86892</ele>
        <time>2021-07-01T10:46:06Z</time>
      </trkpt>
      <trkpt lat="43.678509" lon="4.034686">
        <ele>28.51510</ele>
        <time>2021-07-01T10:46:07Z</time>
      </trkpt>
      <trkpt lat="43.678509" lon="4.034686">
        <ele>28.81063</ele>
        <time>2021-07-01T10:46:08Z</time>
      </trkpt>
      <trkpt lat="43.678383" lon="4.034291">
        <ele>28.80246</ele>
        <time>2021-07-01T10:46:09Z</time>
      </trkpt>
      <trkpt lat="43.678268" lon="4.033931">
        <ele>27.99569</ele>
        <time>2021-07-01T10:46:10Z</time>
      </trkpt>
      <trkpt lat="43.678143" lon="4.033522">
        <ele>28.67752</ele>
        <time>2021-07-01T10:46:11Z</time>
      </trkpt>
      <trkpt lat="43.678020" lon="4.033118">
        <ele>28.84384</ele>
        <time>2021-07-01T10:46:12Z</time>
      </trkpt>
      <trkpt lat="43.677902" lon="4.032736">
        <ele>28.31002</ele>
        <time>2021-07-01T10:46:13Z</time>
      </trkpt>
      <trkpt lat="43.677792" lon="4.032370">
        <ele>25.25790</ele>
        <time>2021-07-01T10:46:14Z</time>
      </trkpt>
      <trkpt lat="43.677670" lon="4.031969">
        <ele>26.52774</ele>
        <time>2021-07-01T10:46:15Z</time>
      </trkpt>
      <trkpt lat="43.677547" lon="4.031578">
        <ele>27.02114</ele>
        <time>2021-07-01T10:46:16Z</time>
      </trkpt>
      <trkpt lat="43.677425" lon="4.031172">
        <ele>27.16201</ele>
        <time>2021-07-01T10:46:17Z</time>
      </trkpt>
      <trkpt lat="43.677315" lon="4.030808">
        <ele>27.29574</ele>
        <time>2021-07-01T10:46:18Z</time>
      </trkpt>
      <trkpt lat="43.677200" lon="4.030432">
        <ele>27.46817</ele>
        <time>2021-07-01T10:46:19Z</time>
      </trkpt>
      <trkpt lat="43.677086" lon="4.030054">
        <ele>27.29513</ele>
        <time>2021-07-01T10:46:20Z</time>
      </trkpt>
      <trkpt lat="43.676971" lon="4.029691">
        <ele>25.88852</ele>
        <time>2021-07-01T10:46:21Z</time>
      </trkpt>
      <trkpt lat="43.676861" lon="4.029315">
        <ele>26.65231</ele>
        <time>2021-07-01T10:46:22Z</time>
      </trkpt>
      <trkpt lat="43.676750" lon="4.028960">
        <ele>26.28671</ele>
        <time>2021-07-01T10:46:23Z</time>
      </trkpt>
      <trkpt lat="43.676640" lon="4.028598">
        <ele>26.37100</ele>
        <time>2021-07-01T10:46:24Z</time>
      </trkpt>
      <trkpt lat="43.676537" lon="4.028252">
        <ele>25.89767</ele>
        <time>2021-07-01T10:46:25Z</time>
      </trkpt>
      <trkpt lat="43.676430" lon="4.027902">
        <ele>25.19296</ele>
        <time>2021-07-01T10:46:26Z</time>
      </trkpt>
      <trkpt lat="43.676319" lon="4.027545">
        <ele>24.89419</ele>
        <time>2021-07-01T10:46:27Z</time>
      </trkpt>
      <trkpt lat="43.676216" lon="4.027183">
        <ele>24.39285</ele>
        <time>2021-07-01T10:46:28Z</time>
      </trkpt>
      <trkpt lat="43.676121" lon="4.026840">
        <ele>25.19308</ele>
        <time>2021-07-01T10:46:29Z</time>
      </trkpt>
      <trkpt lat="43.676025" lon="4.026498">
        <ele>25.58102</ele>
        <time>2021-07-01T10:46:30Z</time>
      </trkpt>
      <trkpt lat="43.675930" lon="4.026141">
        <ele>24.67880</ele>
        <time>2021-07-01T10:46:31Z</time>
      </trkpt>
      <trkpt lat="43.675827" lon="4.025805">
        <ele>25.15121</ele>
        <time>2021-07-01T10:46:32Z</time>
      </trkpt>
      <trkpt lat="43.675728" lon="4.025477">
        <ele>24.67630</ele>
        <time>2021-07-01T10:46:33Z</time>
      </trkpt>
      <trkpt lat="43.675632" lon="4.025124">
        <ele>25.51626</ele>
        <time>2021-07-01T10:46:34Z</time>
      </trkpt>
      <trkpt lat="43.675541" lon="4.024785">
        <ele>25.95041</ele>
        <time>2021-07-01T10:46:35Z</time>
      </trkpt>
      <trkpt lat="43.675453" lon="4.024466">
        <ele>26.14340</ele>
        <time>2021-07-01T10:46:36Z</time>
      </trkpt>
      <trkpt lat="43.675365" lon="4.024149">
        <ele>25.76400</ele>
        <time>2021-07-01T10:46:37Z</time>
      </trkpt>
      <trkpt lat="43.675365" lon="4.024149">
        <ele>26.40854</ele>
        <time>2021-07-01T10:46:38Z</time>
      </trkpt>
      <trkpt lat="43.675266" lon="4.023796">
        <ele>27.37887</ele>
        <time>2021-07-01T10:46:39Z</time>
      </trkpt>
      <trkpt lat="43.675179" lon="4.023484">
        <ele>28.29245</ele>
        <time>2021-07-01T10:46:40Z</time>
      </trkpt>
      <trkpt lat="43.675083" lon="4.023131">
        <ele>28.76602</ele>
        <time>2021-07-01T10:46:41Z</time>
      </trkpt>
      <trkpt lat="43.674995" lon="4.022821">
        <ele>29.70645</ele>
        <time>2021-07-01T10:46:42Z</time>
      </trkpt>
      <trkpt lat="43.674908" lon="4.022485">
        <ele>30.05111</ele>
        <time>2021-07-01T10:46:43Z</time>
      </trkpt>
      <trkpt lat="43.674820" lon="4.022180">
        <ele>29.36972</ele>
        <time>2021-07-01T10:46:44Z</time>
      </trkpt>
      <trkpt lat="43.674709" lon="4.021809">
        <ele>28.85489</ele>
        <time>2021-07-01T10:46:45Z</time>
      </trkpt>
      <trkpt lat="43.674606" lon="4.021470">
        <ele>28.66244</ele>
        <time>2021-07-01T10:46:46Z</time>
      </trkpt>
      <trkpt lat="43.674507" lon="4.021132">
        <ele>27.99191</ele>
        <time>2021-07-01T10:46:47Z</time>
      </trkpt>
      <trkpt lat="43.674404" lon="4.020799">
        <ele>28.56521</ele>
        <time>2021-07-01T10:46:48Z</time>
      </trkpt>
      <trkpt lat="43.674301" lon="4.020477">
        <ele>28.82425</ele>
        <time>2021-07-01T10:46:49Z</time>
      </trkpt>
      <trkpt lat="43.674198" lon="4.020170">
        <ele>29.76669</ele>
        <time>2021-07-01T10:46:50Z</time>
      </trkpt>
      <trkpt lat="43.674091" lon="4.019842">
        <ele>30.37606</ele>
        <time>2021-07-01T10:46:51Z</time>
      </trkpt>
      <trkpt lat="43.673977" lon="4.019493">
        <ele>30.06240</ele>
        <time>2021-07-01T10:46:52Z</time>
      </trkpt>
      <trkpt lat="43.673862" lon="4.019174">
        <ele>29.55313</ele>
        <time>2021-07-01T10:46:53Z</time>
      </trkpt>
      <trkpt lat="43.673740" lon="4.018835">
        <ele>29.87704</ele>
        <time>2021-07-01T10:46:54Z</time>
      </trkpt>
      <trkpt lat="43.673618" lon="4.018495">
        <ele>30.57302</ele>
        <time>2021-07-01T10:46:55Z</time>
      </trkpt>
      <trkpt lat="43.673496" lon="4.018175">
        <ele>30.71542</ele>
        <time>2021-07-01T10:46:56Z</time>
      </trkpt>
      <trkpt lat="43.673370" lon="4.017866">
        <ele>30.64871</ele>
        <time>2021-07-01T10:46:57Z</time>
      </trkpt>
      <trkpt lat="43.673237" lon="4.017536">
        <ele>30.66616</ele>
        <time>2021-07-01T10:46:58Z</time>
      </trkpt>
      <trkpt lat="43.673107" lon="4.017217">
        <ele>30.35586</ele>
        <time>2021-07-01T10:46:59Z</time>
      </trkpt>
      <trkpt lat="43.672977" lon="4.016903">
        <ele>30.09121</ele>
        <time>2021-07-01T10:47:00Z</time>
      </trkpt>
      <trkpt lat="43.672844" lon="4.016580">
        <ele>30.46231</ele>
        <time>2021-07-01T10:47:01Z</time>
      </trkpt>
      <trkpt lat="43.672707" lon="4.016269">
        <ele>30.22805</ele>
        <time>2021-07-01T10:47:02Z</time>
      </trkpt>
      <trkpt lat="43.672569" lon="4.015963">
        <ele>30.40298</ele>
        <time>2021-07-01T10:47:03Z</time>
      </trkpt>
      <trkpt lat="43.672428" lon="4.015648">
        <ele>30.07602</ele>
        <time>2021-07-01T10:47:04Z</time>
      </trkpt>
      <trkpt lat="43.672287" lon="4.015337">
        <ele>30.47433</ele>
        <time>2021-07-01T10:47:05Z</time>
      </trkpt>
      <trkpt lat="43.672138" lon="4.015032">
        <ele>30.68240</ele>
        <time>2021-07-01T10:47:06Z</time>
      </trkpt>
      <trkpt lat="43.671993" lon="4.014738">
        <ele>30.21176</ele>
        <time>2021-07-01T10:47:07Z</time>
      </trkpt>
      <trkpt lat="43.671841" lon="4.014434">
        <ele>30.67477</ele>
        <time>2021-07-01T10:47:08Z</time>
      </trkpt>
      <trkpt lat="43.671684" lon="4.014122">
        <ele>31.37100</ele>
        <time>2021-07-01T10:47:09Z</time>
      </trkpt>
      <trkpt lat="43.671535" lon="4.013847">
        <ele>31.81094</ele>
        <time>2021-07-01T10:47:10Z</time>
      </trkpt>
      <trkpt lat="43.671375" lon="4.013547">
        <ele>32.37393</ele>
        <time>2021-07-01T10:47:11Z</time>
      </trkpt>
      <trkpt lat="43.671211" lon="4.013241">
        <ele>33.48318</ele>
        <time>2021-07-01T10:47:12Z</time>
      </trkpt>
      <trkpt lat="43.671051" lon="4.012960">
        <ele>33.48874</ele>
        <time>2021-07-01T10:47:13Z</time>
      </trkpt>
      <trkpt lat="43.670895" lon="4.012688">
        <ele>34.85135</ele>
        <time>2021-07-01T10:47:14Z</time>
      </trkpt>
      <trkpt lat="43.670895" lon="4.012688">
        <ele>35.28915</ele>
        <time>2021-07-01T10:47:15Z</time>
      </trkpt>
      <trkpt lat="43.670727" lon="4.012397">
        <ele>34.83059</ele>
        <time>2021-07-01T10:47:16Z</time>
      </trkpt>
      <trkpt lat="43.670559" lon="4.012106">
        <ele>34.80838</ele>
        <time>2021-07-01T10:47:17Z</time>
      </trkpt>
      <trkpt lat="43.670391" lon="4.011816">
        <ele>34.40420</ele>
        <time>2021-07-01T10:47:18Z</time>
      </trkpt>
      <trkpt lat="43.670223" lon="4.011536">
        <ele>35.45987</ele>
        <time>2021-07-01T10:47:19Z</time>
      </trkpt>
      <trkpt lat="43.670052" lon="4.011256">
        <ele>35.67019</ele>
        <time>2021-07-01T10:47:20Z</time>
      </trkpt>
      <trkpt lat="43.669884" lon="4.010989">
        <ele>35.48446</ele>
        <time>2021-07-01T10:47:21Z</time>
      </trkpt>
      <trkpt lat="43.669716" lon="4.010732">
        <ele>35.13015</ele>
        <time>2021-07-01T10:47:22Z</time>
      </trkpt>
      <trkpt lat="43.669533" lon="4.010460">
        <ele>35.50418</ele>
        <time>2021-07-01T10:47:23Z</time>
      </trkpt>
      <trkpt lat="43.669353" lon="4.010192">
        <ele>33.91000</ele>
        <time>2021-07-01T10:47:24Z</time>
      </trkpt>
      <trkpt lat="43.669182" lon="4.009931">
        <ele>34.49862</ele>
        <time>2021-07-01T10:47:25Z</time>
      </trkpt>
      <trkpt lat="43.668995" lon="4.009657">
        <ele>34.70974</ele>
        <time>2021-07-01T10:47:26Z</time>
      </trkpt>
      <trkpt lat="43.668827" lon="4.009418">
        <ele>34.43563</ele>
        <time>2021-07-01T10:47:27Z</time>
      </trkpt>
      <trkpt lat="43.668640" lon="4.009165">
        <ele>34.69650</ele>
        <time>2021-07-01T10:47:28Z</time>
      </trkpt>
      <trkpt lat="43.668446" lon="4.008908">
        <ele>35.27591</ele>
        <time>2021-07-01T10:47:29Z</time>
      </trkpt>
      <trkpt lat="43.668251" lon="4.008654">
        <ele>35.24160</ele>
        <time>2021-07-01T10:47:30Z</time>
      </trkpt>
      <trkpt lat="43.668060" lon="4.008407">
        <ele>35.62490</ele>
        <time>2021-07-01T10:47:31Z</time>
      </trkpt>
      <trkpt lat="43.667877" lon="4.008171">
        <ele>35.80246</ele>
        <time>2021-07-01T10:47:32Z</time>
      </trkpt>
      <trkpt lat="43.667683" lon="4.007929">
        <ele>35.63406</ele>
        <time>2021-07-01T10:47:33Z</time>
      </trkpt>
      <trkpt lat="43.667480" lon="4.007676">
        <ele>35.57431</ele>
        <time>2021-07-01T10:47:34Z</time>
      </trkpt>
      <trkpt lat="43.667278" lon="4.007442">
        <ele>34.08883</ele>
        <time>2021-07-01T10:47:35Z</time>
      </trkpt>
      <trkpt lat="43.667076" lon="4.007205">
        <ele>34.22378</ele>
        <time>2021-07-01T10:47:36Z</time>
      </trkpt>
      <trkpt lat="43.666866" lon="4.006963">
        <ele>34.33145</ele>
        <time>2021-07-01T10:47:37Z</time>
      </trkpt>
      <trkpt lat="43.666672" lon="4.006735">
        <ele>33.75625</ele>
        <time>2021-07-01T10:47:38Z</time>
      </trkpt>
      <trkpt lat="43.666466" lon="4.006508">
        <ele>33.62893</ele>
        <time>2021-07-01T10:47:39Z</time>
      </trkpt>
      <trkpt lat="43.666248" lon="4.006271">
        <ele>33.63253</ele>
        <time>2021-07-01T10:47:40Z</time>
      </trkpt>
      <trkpt lat="43.666039" lon="4.006045">
        <ele>33.81173</ele>
        <time>2021-07-01T10:47:41Z</time>
      </trkpt>
      <trkpt lat="43.665825" lon="4.005818">
        <ele>34.07138</ele>
        <time>2021-07-01T10:47:42Z</time>
      </trkpt>
      <trkpt lat="43.665627" lon="4.005609">
        <ele>34.09665</ele>
        <time>2021-07-01T10:47:43Z</time>
      </trkpt>
      <trkpt lat="43.665421" lon="4.005395">
        <ele>33.75424</ele>
        <time>2021-07-01T10:47:44Z</time>
      </trkpt>
      <trkpt lat="43.665207" lon="4.005173">
        <ele>34.02914</ele>
        <time>2021-07-01T10:47:45Z</time>
      </trkpt>
      <trkpt lat="43.664997" lon="4.004956">
        <ele>34.14962</ele>
        <time>2021-07-01T10:47:46Z</time>
      </trkpt>
      <trkpt lat="43.664764" lon="4.004715">
        <ele>34.56985</ele>
        <time>2021-07-01T10:47:47Z</time>
      </trkpt>
      <trkpt lat="43.664764" lon="4.004715">
        <ele>34.40121</ele>
        <time>2021-07-01T10:47:48Z</time>
      </trkpt>
      <trkpt lat="43.664566" lon="4.004508">
        <ele>34.17373</ele>
        <time>2021-07-01T10:47:49Z</time>
      </trkpt>
      <trkpt lat="43.664364" lon="4.004300">
        <ele>34.33334</ele>
        <time>2021-07-01T10:47:50Z</time>
      </trkpt>
      <trkpt lat="43.664124" lon="4.004055">
        <ele>35.04306</ele>
        <time>2021-07-01T10:47:51Z</time>
      </trkpt>
      <trkpt lat="43.663906" lon="4.003829">
        <ele>34.82711</ele>
        <time>2021-07-01T10:47:52Z</time>
      </trkpt>
      <trkpt lat="43.663692" lon="4.003603">
        <ele>34.50790</ele>
        <time>2021-07-01T10:47:53Z</time>
      </trkpt>
      <trkpt lat="43.663490" lon="4.003392">
        <ele>33.68911</ele>
        <time>2021-07-01T10:47:54Z</time>
      </trkpt>
      <trkpt lat="43.663273" lon="4.003168">
        <ele>34.04281</ele>
        <time>2021-07-01T10:47:55Z</time>
      </trkpt>
      <trkpt lat="43.663071" lon="4.002956">
        <ele>33.41940</ele>
        <time>2021-07-01T10:47:56Z</time>
      </trkpt>
      <trkpt lat="43.662853" lon="4.002729">
        <ele>33.41891</ele>
        <time>2021-07-01T10:47:57Z</time>
      </trkpt>
      <trkpt lat="43.662643" lon="4.002507">
        <ele>33.11953</ele>
        <time>2021-07-01T10:47:58Z</time>
      </trkpt>
      <trkpt lat="43.662422" lon="4.002280">
        <ele>32.87271</ele>
        <time>2021-07-01T10:47:59Z</time>
      </trkpt>
      <trkpt lat="43.662212" lon="4.002063">
        <ele>32.98922</ele>
        <time>2021-07-01T10:48:00Z</time>
      </trkpt>
      <trkpt lat="43.662010" lon="4.001851">
        <ele>33.36789</ele>
        <time>2021-07-01T10:48:01Z</time>
      </trkpt>
      <trkpt lat="43.661797" lon="4.001628">
        <ele>33.03415</ele>
        <time>2021-07-01T10:48:02Z</time>
      </trkpt>
      <trkpt lat="43.661572" lon="4.001398">
        <ele>33.32998</ele>
        <time>2021-07-01T10:48:03Z</time>
      </trkpt>
      <trkpt lat="43.661369" lon="4.001185">
        <ele>33.05526</ele>
        <time>2021-07-01T10:48:04Z</time>
      </trkpt>
      <trkpt lat="43.661144" lon="4.000950">
        <ele>33.06509</ele>
        <time>2021-07-01T10:48:05Z</time>
      </trkpt>
      <trkpt lat="43.660927" lon="4.000724">
        <ele>32.98727</ele>
        <time>2021-07-01T10:48:06Z</time>
      </trkpt>
      <trkpt lat="43.660709" lon="4.000497">
        <ele>32.13662</ele>
        <time>2021-07-01T10:48:07Z</time>
      </trkpt>
      <trkpt lat="43.660488" lon="4.000263">
        <ele>32.61325</ele>
        <time>2021-07-01T10:48:08Z</time>
      </trkpt>
      <trkpt lat="43.660275" lon="4.000039">
        <ele>32.87551</ele>
        <time>2021-07-01T10:48:09Z</time>
      </trkpt>
      <trkpt lat="43.660072" lon="3.999824">
        <ele>32.83725</ele>
        <time>2021-07-01T10:48:10Z</time>
      </trkpt>
      <trkpt lat="43.659863" lon="3.999602">
        <ele>33.51925</ele>
        <time>2021-07-01T10:48:11Z</time>
      </trkpt>
      <trkpt lat="43.659649" lon="3.999375">
        <ele>32.99679</ele>
        <time>2021-07-01T10:48:12Z</time>
      </trkpt>
      <trkpt lat="43.659435" lon="3.999150">
        <ele>32.41665</ele>
        <time>2021-07-01T10:48:13Z</time>
      </trkpt>
      <trkpt lat="43.659222" lon="3.998924">
        <ele>32.13290</ele>
        <time>2021-07-01T10:48:14Z</time>
      </trkpt>
      <trkpt lat="43.659222" lon="3.998924">
        <ele>32.86502</ele>
        <time>2021-07-01T10:48:15Z</time>
      </trkpt>
      <trkpt lat="43.659004" lon="3.998695">
        <ele>32.00491</ele>
        <time>2021-07-01T10:48:16Z</time>
      </trkpt>
      <trkpt lat="43.658806" lon="3.998473">
        <ele>32.09011</ele>
        <time>2021-07-01T10:48:17Z</time>
      </trkpt>
      <trkpt lat="43.658581" lon="3.998217">
        <ele>31.48874</ele>
        <time>2021-07-01T10:48:18Z</time>
      </trkpt>
      <trkpt lat="43.658386" lon="3.997994">
        <ele>31.75155</ele>
        <time>2021-07-01T10:48:19Z</time>
      </trkpt>
      <trkpt lat="43.658176" lon="3.997752">
        <ele>31.94400</ele>
        <time>2021-07-01T10:48:20Z</time>
      </trkpt>
      <trkpt lat="43.657974" lon="3.997520">
        <ele>31.72470</ele>
        <time>2021-07-01T10:48:21Z</time>
      </trkpt>
      <trkpt lat="43.657776" lon="3.997276">
        <ele>31.55551</ele>
        <time>2021-07-01T10:48:22Z</time>
      </trkpt>
      <trkpt lat="43.657578" lon="3.997022">
        <ele>31.55661</ele>
        <time>2021-07-01T10:48:23Z</time>
      </trkpt>
      <trkpt lat="43.657372" lon="3.996765">
        <ele>31.82730</ele>
        <time>2021-07-01T10:48:24Z</time>
      </trkpt>
      <trkpt lat="43.657173" lon="3.996512">
        <ele>31.60495</ele>
        <time>2021-07-01T10:48:25Z</time>
      </trkpt>
      <trkpt lat="43.656979" lon="3.996243">
        <ele>30.83187</ele>
        <time>2021-07-01T10:48:26Z</time>
      </trkpt>
      <trkpt lat="43.656773" lon="3.995972">
        <ele>30.19180</ele>
        <time>2021-07-01T10:48:27Z</time>
      </trkpt>
      <trkpt lat="43.656574" lon="3.995711">
        <ele>30.08090</ele>
        <time>2021-07-01T10:48:28Z</time>
      </trkpt>
      <trkpt lat="43.656384" lon="3.995450">
        <ele>30.22110</ele>
        <time>2021-07-01T10:48:29Z</time>
      </trkpt>
      <trkpt lat="43.656197" lon="3.995178">
        <ele>30.01144</ele>
        <time>2021-07-01T10:48:30Z</time>
      </trkpt>
      <trkpt lat="43.656010" lon="3.994905">
        <ele>29.67996</ele>
        <time>2021-07-01T10:48:31Z</time>
      </trkpt>
      <trkpt lat="43.655838" lon="3.994646">
        <ele>29.65048</ele>
        <time>2021-07-01T10:48:32Z</time>
      </trkpt>
      <trkpt lat="43.655663" lon="3.994366">
        <ele>29.73697</ele>
        <time>2021-07-01T10:48:33Z</time>
      </trkpt>
      <trkpt lat="43.655483" lon="3.994091">
        <ele>29.84610</ele>
        <time>2021-07-01T10:48:34Z</time>
      </trkpt>
      <trkpt lat="43.655312" lon="3.993810">
        <ele>29.85293</ele>
        <time>2021-07-01T10:48:35Z</time>
      </trkpt>
      <trkpt lat="43.655148" lon="3.993545">
        <ele>29.92086</ele>
        <time>2021-07-01T10:48:36Z</time>
      </trkpt>
      <trkpt lat="43.654976" lon="3.993256">
        <ele>30.31192</ele>
        <time>2021-07-01T10:48:37Z</time>
      </trkpt>
      <trkpt lat="43.654819" lon="3.992991">
        <ele>30.25949</ele>
        <time>2021-07-01T10:48:38Z</time>
      </trkpt>
      <trkpt lat="43.654644" lon="3.992701">
        <ele>29.91531</ele>
        <time>2021-07-01T10:48:39Z</time>
      </trkpt>
      <trkpt lat="43.654644" lon="3.992701">
        <ele>30.18643</ele>
        <time>2021-07-01T10:48:40Z</time>
      </trkpt>
      <trkpt lat="43.654476" lon="3.992414">
        <ele>30.03653</ele>
        <time>2021-07-01T10:48:41Z</time>
      </trkpt>
      <trkpt lat="43.654308" lon="3.992128">
        <ele>29.94900</ele>
        <time>2021-07-01T10:48:42Z</time>
      </trkpt>
      <trkpt lat="43.654148" lon="3.991854">
        <ele>29.64297</ele>
        <time>2021-07-01T10:48:43Z</time>
      </trkpt>
      <trkpt lat="43.653976" lon="3.991550">
        <ele>30.18765</ele>
        <time>2021-07-01T10:48:44Z</time>
      </trkpt>
      <trkpt lat="43.653820" lon="3.991275">
        <ele>29.71109</ele>
        <time>2021-07-01T10:48:45Z</time>
      </trkpt>
      <trkpt lat="43.653645" lon="3.990979">
        <ele>30.03506</ele>
        <time>2021-07-01T10:48:46Z</time>
      </trkpt>
      <trkpt lat="43.653481" lon="3.990702">
        <ele>29.88192</ele>
        <time>2021-07-01T10:48:47Z</time>
      </trkpt>
      <trkpt lat="43.653305" lon="3.990406">
        <ele>29.71908</ele>
        <time>2021-07-01T10:48:48Z</time>
      </trkpt>
      <trkpt lat="43.653118" lon="3.990107">
        <ele>29.49752</ele>
        <time>2021-07-01T10:48:49Z</time>
      </trkpt>
      <trkpt lat="43.652931" lon="3.989812">
        <ele>29.70437</ele>
        <time>2021-07-01T10:48:50Z</time>
      </trkpt>
      <trkpt lat="43.652744" lon="3.989534">
        <ele>29.70297</ele>
        <time>2021-07-01T10:48:51Z</time>
      </trkpt>
      <trkpt lat="43.652550" lon="3.989251">
        <ele>29.77090</ele>
        <time>2021-07-01T10:48:52Z</time>
      </trkpt>
      <trkpt lat="43.652359" lon="3.988982">
        <ele>29.53842</ele>
        <time>2021-07-01T10:48:53Z</time>
      </trkpt>
      <trkpt lat="43.652172" lon="3.988730">
        <ele>29.40597</ele>
        <time>2021-07-01T10:48:54Z</time>
      </trkpt>
      <trkpt lat="43.651981" lon="3.988474">
        <ele>29.44314</ele>
        <time>2021-07-01T10:48:55Z</time>
      </trkpt>
      <trkpt lat="43.651791" lon="3.988208">
        <ele>29.84170</ele>
        <time>2021-07-01T10:48:56Z</time>
      </trkpt>
      <trkpt lat="43.651592" lon="3.987948">
        <ele>29.61483</ele>
        <time>2021-07-01T10:48:57Z</time>
      </trkpt>
      <trkpt lat="43.651398" lon="3.987692">
        <ele>29.55105</ele>
        <time>2021-07-01T10:48:58Z</time>
      </trkpt>
      <trkpt lat="43.651226" lon="3.987446">
        <ele>29.71011</ele>
        <time>2021-07-01T10:48:59Z</time>
      </trkpt>
      <trkpt lat="43.651043" lon="3.987162">
        <ele>29.60391</ele>
        <time>2021-07-01T10:49:00Z</time>
      </trkpt>
      <trkpt lat="43.650879" lon="3.986892">
        <ele>29.35086</ele>
        <time>2021-07-01T10:49:01Z</time>
      </trkpt>
      <trkpt lat="43.650703" lon="3.986609">
        <ele>29.65756</ele>
        <time>2021-07-01T10:49:02Z</time>
      </trkpt>
      <trkpt lat="43.650532" lon="3.986312">
        <ele>29.59628</ele>
        <time>2021-07-01T10:49:03Z</time>
      </trkpt>
      <trkpt lat="43.650375" lon="3.986040">
        <ele>29.52859</ele>
        <time>2021-07-01T10:49:04Z</time>
      </trkpt>
      <trkpt lat="43.650204" lon="3.985745">
        <ele>29.61270</ele>
        <time>2021-07-01T10:49:05Z</time>
      </trkpt>
      <trkpt lat="43.650036" lon="3.985454">
        <ele>29.48617</ele>
        <time>2021-07-01T10:49:06Z</time>
      </trkpt>
      <trkpt lat="43.649876" lon="3.985178">
        <ele>29.45089</ele>
        <time>2021-07-01T10:49:07Z</time>
      </trkpt>
      <trkpt lat="43.649876" lon="3.985178">
        <ele>29.95175</ele>
        <time>2021-07-01T10:49:08Z</time>
      </trkpt>
      <trkpt lat="43.649708" lon="3.984889">
        <ele>30.15542</ele>
        <time>2021-07-01T10:49:09Z</time>
      </trkpt>
      <trkpt lat="43.649555" lon="3.984624">
        <ele>30.11331</ele>
        <time>2021-07-01T10:49:10Z</time>
      </trkpt>
      <trkpt lat="43.649384" lon="3.984331">
        <ele>30.63083</ele>
        <time>2021-07-01T10:49:11Z</time>
      </trkpt>
      <trkpt lat="43.649216" lon="3.984035">
        <ele>31.29605</ele>
        <time>2021-07-01T10:49:12Z</time>
      </trkpt>
      <trkpt lat="43.649044" lon="3.983745">
        <ele>31.72848</ele>
        <time>2021-07-01T10:49:13Z</time>
      </trkpt>
      <trkpt lat="43.648895" lon="3.983483">
        <ele>32.04135</ele>
        <time>2021-07-01T10:49:14Z</time>
      </trkpt>
      <trkpt lat="43.648731" lon="3.983186">
        <ele>31.40109</ele>
        <time>2021-07-01T10:49:15Z</time>
      </trkpt>
      <trkpt lat="43.648575" lon="3.982901">
        <ele>31.04116</ele>
        <time>2021-07-01T10:49:16Z</time>
      </trkpt>
      <trkpt lat="43.648415" lon="3.982615">
        <ele>30.84030</ele>
        <time>2021-07-01T10:49:17Z</time>
      </trkpt>
      <trkpt lat="43.648235" lon="3.982309">
        <ele>30.44772</ele>
        <time>2021-07-01T10:49:18Z</time>
      </trkpt>
      <trkpt lat="43.648064" lon="3.982017">
        <ele>30.47653</ele>
        <time>2021-07-01T10:49:19Z</time>
      </trkpt>
      <trkpt lat="43.647900" lon="3.981733">
        <ele>30.21292</ele>
        <time>2021-07-01T10:49:20Z</time>
      </trkpt>
      <trkpt lat="43.647732" lon="3.981446">
        <ele>30.89437</ele>
        <time>2021-07-01T10:49:21Z</time>
      </trkpt>
      <trkpt lat="43.647564" lon="3.981163">
        <ele>31.34268</ele>
        <time>2021-07-01T10:49:22Z</time>
      </trkpt>
      <trkpt lat="43.647411" lon="3.980903">
        <ele>31.31436</ele>
        <time>2021-07-01T10:49:23Z</time>
      </trkpt>
      <trkpt lat="43.647259" lon="3.980639">
        <ele>32.04843</ele>
        <time>2021-07-01T10:49:24Z</time>
      </trkpt>
      <trkpt lat="43.647087" lon="3.980365">
        <ele>32.33914</ele>
        <time>2021-07-01T10:49:25Z</time>
      </trkpt>
      <trkpt lat="43.646915" lon="3.980084">
        <ele>32.73404</ele>
        <time>2021-07-01T10:49:26Z</time>
      </trkpt>
      <trkpt lat="43.646748" lon="3.979812">
        <ele>32.32541</ele>
        <time>2021-07-01T10:49:27Z</time>
      </trkpt>
      <trkpt lat="43.646568" lon="3.979522">
        <ele>31.71823</ele>
        <time>2021-07-01T10:49:28Z</time>
      </trkpt>
      <trkpt lat="43.646404" lon="3.979261">
        <ele>31.48477</ele>
        <time>2021-07-01T10:49:29Z</time>
      </trkpt>
      <trkpt lat="43.646236" lon="3.979005">
        <ele>30.72299</ele>
        <time>2021-07-01T10:49:30Z</time>
      </trkpt>
      <trkpt lat="43.646046" lon="3.978718">
        <ele>31.11825</ele>
        <time>2021-07-01T10:49:31Z</time>
      </trkpt>
      <trkpt lat="43.645874" lon="3.978455">
        <ele>30.88058</ele>
        <time>2021-07-01T10:49:32Z</time>
      </trkpt>
      <trkpt lat="43.645695" lon="3.978187">
        <ele>31.26175</ele>
        <time>2021-07-01T10:49:33Z</time>
      </trkpt>
      <trkpt lat="43.645519" lon="3.977939">
        <ele>31.09689</ele>
        <time>2021-07-01T10:49:34Z</time>
      </trkpt>
      <trkpt lat="43.645340" lon="3.977690">
        <ele>30.87796</ele>
        <time>2021-07-01T10:49:35Z</time>
      </trkpt>
      <trkpt lat="43.645138" lon="3.977419">
        <ele>31.64901</ele>
        <time>2021-07-01T10:49:36Z</time>
      </trkpt>
      <trkpt lat="43.644947" lon="3.977173">
        <ele>31.24649</ele>
        <time>2021-07-01T10:49:37Z</time>
      </trkpt>
      <trkpt lat="43.644768" lon="3.976935">
        <ele>30.89035</ele>
        <time>2021-07-01T10:49:38Z</time>
      </trkpt>
      <trkpt lat="43.644585" lon="3.976700">
        <ele>31.13791</ele>
        <time>2021-07-01T10:49:39Z</time>
      </trkpt>
      <trkpt lat="43.644363" lon="3.976434">
        <ele>30.32736</ele>
        <time>2021-07-01T10:49:40Z</time>
      </trkpt>
      <trkpt lat="43.644180" lon="3.976210">
        <ele>30.83871</ele>
        <time>2021-07-01T10:49:41Z</time>
      </trkpt>
      <trkpt lat="43.644180" lon="3.976210">
        <ele>30.47683</ele>
        <time>2021-07-01T10:49:42Z</time>
      </trkpt>
      <trkpt lat="43.643970" lon="3.975974">
        <ele>30.83322</ele>
        <time>2021-07-01T10:49:43Z</time>
      </trkpt>
      <trkpt lat="43.643757" lon="3.975742">
        <ele>31.16708</ele>
        <time>2021-07-01T10:49:44Z</time>
      </trkpt>
      <trkpt lat="43.643555" lon="3.975519">
        <ele>31.49435</ele>
        <time>2021-07-01T10:49:45Z</time>
      </trkpt>
      <trkpt lat="43.643337" lon="3.975289">
        <ele>31.16470</ele>
        <time>2021-07-01T10:49:46Z</time>
      </trkpt>
      <trkpt lat="43.643124" lon="3.975071">
        <ele>31.22744</ele>
        <time>2021-07-01T10:49:47Z</time>
      </trkpt>
      <trkpt lat="43.642914" lon="3.974866">
        <ele>31.18460</ele>
        <time>2021-07-01T10:49:48Z</time>
      </trkpt>
      <trkpt lat="43.642693" lon="3.974658">
        <ele>31.22079</ele>
        <time>2021-07-01T10:49:49Z</time>
      </trkpt>
      <trkpt lat="43.642464" lon="3.974445">
        <ele>31.06717</ele>
        <time>2021-07-01T10:49:50Z</time>
      </trkpt>
      <trkpt lat="43.642235" lon="3.974242">
        <ele>31.41012</ele>
        <time>2021-07-01T10:49:51Z</time>
      </trkpt>
      <trkpt lat="43.642014" lon="3.974058">
        <ele>30.71707</ele>
        <time>2021-07-01T10:49:52Z</time>
      </trkpt>
      <trkpt lat="43.641785" lon="3.973865">
        <ele>30.67837</ele>
        <time>2021-07-01T10:49:53Z</time>
      </trkpt>
      <trkpt lat="43.641548" lon="3.973668">
        <ele>30.84634</ele>
        <time>2021-07-01T10:49:54Z</time>
      </trkpt>
      <trkpt lat="43.641327" lon="3.973497">
        <ele>31.30392</ele>
        <time>2021-07-01T10:49:55Z</time>
      </trkpt>
      <trkpt lat="43.641087" lon="3.973316">
        <ele>31.37948</ele>
        <time>2021-07-01T10:49:56Z</time>
      </trkpt>
      <trkpt lat="43.640846" lon="3.973139">
        <ele>30.71811</ele>
        <time>2021-07-01T10:49:57Z</time>
      </trkpt>
      <trkpt lat="43.640594" lon="3.972966">
        <ele>31.44436</ele>
        <time>2021-07-01T10:49:58Z</time>
      </trkpt>
      <trkpt lat="43.640362" lon="3.972811">
        <ele>31.28219</ele>
        <time>2021-07-01T10:49:59Z</time>
      </trkpt>
      <trkpt lat="43.640091" lon="3.972631">
        <ele>30.81808</ele>
        <time>2021-07-01T10:50:00Z</time>
      </trkpt>
      <trkpt lat="43.639835" lon="3.972473">
        <ele>30.19577</ele>
        <time>2021-07-01T10:50:01Z</time>
      </trkpt>
      <trkpt lat="43.639587" lon="3.972326">
        <ele>31.10202</ele>
        <time>2021-07-01T10:50:02Z</time>
      </trkpt>
      <trkpt lat="43.639339" lon="3.972181">
        <ele>32.20205</ele>
        <time>2021-07-01T10:50:03Z</time>
      </trkpt>
      <trkpt lat="43.639091" lon="3.972047">
        <ele>32.33786</ele>
        <time>2021-07-01T10:50:04Z</time>
      </trkpt>
      <trkpt lat="43.638863" lon="3.971924">
        <ele>32.91684</ele>
        <time>2021-07-01T10:50:05Z</time>
      </trkpt>
      <trkpt lat="43.638592" lon="3.971796">
        <ele>33.94363</ele>
        <time>2021-07-01T10:50:06Z</time>
      </trkpt>
      <trkpt lat="43.638340" lon="3.971678">
        <ele>34.99105</ele>
        <time>2021-07-01T10:50:07Z</time>
      </trkpt>
      <trkpt lat="43.638077" lon="3.971553">
        <ele>35.71170</ele>
        <time>2021-07-01T10:50:08Z</time>
      </trkpt>
      <trkpt lat="43.637829" lon="3.971450">
        <ele>36.00143</ele>
        <time>2021-07-01T10:50:09Z</time>
      </trkpt>
      <trkpt lat="43.637829" lon="3.971450">
        <ele>36.98666</ele>
        <time>2021-07-01T10:50:10Z</time>
      </trkpt>
      <trkpt lat="43.637589" lon="3.971355">
        <ele>36.51474</ele>
        <time>2021-07-01T10:50:11Z</time>
      </trkpt>
      <trkpt lat="43.637344" lon="3.971258">
        <ele>37.03842</ele>
        <time>2021-07-01T10:50:12Z</time>
      </trkpt>
      <trkpt lat="43.637039" lon="3.971136">
        <ele>36.40695</ele>
        <time>2021-07-01T10:50:13Z</time>
      </trkpt>
      <trkpt lat="43.636795" lon="3.971042">
        <ele>36.73275</ele>
        <time>2021-07-01T10:50:14Z</time>
      </trkpt>
      <trkpt lat="43.636513" lon="3.970937">
        <ele>36.61746</ele>
        <time>2021-07-01T10:50:15Z</time>
      </trkpt>
      <trkpt lat="43.636246" lon="3.970837">
        <ele>36.98086</ele>
        <time>2021-07-01T10:50:16Z</time>
      </trkpt>
      <trkpt lat="43.635990" lon="3.970743">
        <ele>36.98758</ele>
        <time>2021-07-01T10:50:17Z</time>
      </trkpt>
      <trkpt lat="43.635727" lon="3.970638">
        <ele>37.20816</ele>
        <time>2021-07-01T10:50:18Z</time>
      </trkpt>
      <trkpt lat="43.635468" lon="3.970535">
        <ele>36.38870</ele>
        <time>2021-07-01T10:50:19Z</time>
      </trkpt>
      <trkpt lat="43.635223" lon="3.970437">
        <ele>36.61233</ele>
        <time>2021-07-01T10:50:20Z</time>
      </trkpt>
      <trkpt lat="43.634968" lon="3.970334">
        <ele>36.37967</ele>
        <time>2021-07-01T10:50:21Z</time>
      </trkpt>
      <trkpt lat="43.634720" lon="3.970229">
        <ele>35.99832</ele>
        <time>2021-07-01T10:50:22Z</time>
      </trkpt>
      <trkpt lat="43.634480" lon="3.970120">
        <ele>35.48202</ele>
        <time>2021-07-01T10:50:23Z</time>
      </trkpt>
      <trkpt lat="43.634239" lon="3.970010">
        <ele>35.06662</ele>
        <time>2021-07-01T10:50:24Z</time>
      </trkpt>
      <trkpt lat="43.634003" lon="3.969898">
        <ele>35.19186</ele>
        <time>2021-07-01T10:50:25Z</time>
      </trkpt>
      <trkpt lat="43.633785" lon="3.969785">
        <ele>33.75546</ele>
        <time>2021-07-01T10:50:26Z</time>
      </trkpt>
      <trkpt lat="43.633572" lon="3.969676">
        <ele>33.14175</ele>
        <time>2021-07-01T10:50:27Z</time>
      </trkpt>
      <trkpt lat="43.633305" lon="3.969532">
        <ele>32.40243</ele>
        <time>2021-07-01T10:50:28Z</time>
      </trkpt>
      <trkpt lat="43.633064" lon="3.969391">
        <ele>31.92038</ele>
        <time>2021-07-01T10:50:29Z</time>
      </trkpt>
      <trkpt lat="43.632797" lon="3.969233">
        <ele>30.10196</ele>
        <time>2021-07-01T10:50:30Z</time>
      </trkpt>
      <trkpt lat="43.632553" lon="3.969090">
        <ele>29.19607</ele>
        <time>2021-07-01T10:50:31Z</time>
      </trkpt>
      <trkpt lat="43.632305" lon="3.968924">
        <ele>27.87436</ele>
        <time>2021-07-01T10:50:32Z</time>
      </trkpt>
      <trkpt lat="43.632076" lon="3.968772">
        <ele>28.00656</ele>
        <time>2021-07-01T10:50:33Z</time>
      </trkpt>
      <trkpt lat="43.631832" lon="3.968605">
        <ele>27.27938</ele>
        <time>2021-07-01T10:50:34Z</time>
      </trkpt>
      <trkpt lat="43.631596" lon="3.968425">
        <ele>26.96347</ele>
        <time>2021-07-01T10:50:35Z</time>
      </trkpt>
      <trkpt lat="43.631378" lon="3.968265">
        <ele>26.01345</ele>
        <time>2021-07-01T10:50:36Z</time>
      </trkpt>
      <trkpt lat="43.631138" lon="3.968083">
        <ele>25.61514</ele>
        <time>2021-07-01T10:50:37Z</time>
      </trkpt>
      <trkpt lat="43.631138" lon="3.968083">
        <ele>24.95926</ele>
        <time>2021-07-01T10:50:38Z</time>
      </trkpt>
      <trkpt lat="43.630901" lon="3.967891">
        <ele>24.68814</ele>
        <time>2021-07-01T10:50:39Z</time>
      </trkpt>
      <trkpt lat="43.630699" lon="3.967724">
        <ele>24.09481</ele>
        <time>2021-07-01T10:50:40Z</time>
      </trkpt>
      <trkpt lat="43.630470" lon="3.967522">
        <ele>23.77157</ele>
        <time>2021-07-01T10:50:41Z</time>
      </trkpt>
      <trkpt lat="43.630253" lon="3.967330">
        <ele>23.24368</ele>
        <time>2021-07-01T10:50:42Z</time>
      </trkpt>
      <trkpt lat="43.630032" lon="3.967133">
        <ele>21.38296</ele>
        <time>2021-07-01T10:50:43Z</time>
      </trkpt>
      <trkpt lat="43.629814" lon="3.966923">
        <ele>20.48111</ele>
        <time>2021-07-01T10:50:44Z</time>
      </trkpt>
      <trkpt lat="43.629585" lon="3.966704">
        <ele>21.13552</ele>
        <time>2021-07-01T10:50:45Z</time>
      </trkpt>
      <trkpt lat="43.629375" lon="3.966500">
        <ele>21.12844</ele>
        <time>2021-07-01T10:50:46Z</time>
      </trkpt>
      <trkpt lat="43.629169" lon="3.966299">
        <ele>21.60690</ele>
        <time>2021-07-01T10:50:47Z</time>
      </trkpt>
      <trkpt lat="43.628967" lon="3.966089">
        <ele>21.29196</ele>
        <time>2021-07-01T10:50:48Z</time>
      </trkpt>
      <trkpt lat="43.628765" lon="3.965877">
        <ele>20.73050</ele>
        <time>2021-07-01T10:50:49Z</time>
      </trkpt>
      <trkpt lat="43.628532" lon="3.965638">
        <ele>19.65823</ele>
        <time>2021-07-01T10:50:50Z</time>
      </trkpt>
      <trkpt lat="43.628330" lon="3.965425">
        <ele>17.67093</ele>
        <time>2021-07-01T10:50:51Z</time>
      </trkpt>
      <trkpt lat="43.628120" lon="3.965210">
        <ele>16.97409</ele>
        <time>2021-07-01T10:50:52Z</time>
      </trkpt>
      <trkpt lat="43.627899" lon="3.964981">
        <ele>16.55239</ele>
        <time>2021-07-01T10:50:53Z</time>
      </trkpt>
      <trkpt lat="43.627682" lon="3.964749">
        <ele>16.87985</ele>
        <time>2021-07-01T10:50:54Z</time>
      </trkpt>
      <trkpt lat="43.627472" lon="3.964520">
        <ele>16.80984</ele>
        <time>2021-07-01T10:50:55Z</time>
      </trkpt>
      <trkpt lat="43.627274" lon="3.964300">
        <ele>16.05825</ele>
        <time>2021-07-01T10:50:56Z</time>
      </trkpt>
      <trkpt lat="43.627068" lon="3.964075">
        <ele>16.93118</ele>
        <time>2021-07-01T10:50:57Z</time>
      </trkpt>
      <trkpt lat="43.626869" lon="3.963845">
        <ele>17.47372</ele>
        <time>2021-07-01T10:50:58Z</time>
      </trkpt>
      <trkpt lat="43.626678" lon="3.963605">
        <ele>17.94821</ele>
        <time>2021-07-01T10:50:59Z</time>
      </trkpt>
      <trkpt lat="43.626476" lon="3.963353">
        <ele>18.05655</ele>
        <time>2021-07-01T10:51:00Z</time>
      </trkpt>
      <trkpt lat="43.626286" lon="3.963107">
        <ele>18.41659</ele>
        <time>2021-07-01T10:51:01Z</time>
      </trkpt>
      <trkpt lat="43.626095" lon="3.962841">
        <ele>18.53360</ele>
        <time>2021-07-01T10:51:02Z</time>
      </trkpt>
      <trkpt lat="43.625912" lon="3.962589">
        <ele>18.24044</ele>
        <time>2021-07-01T10:51:03Z</time>
      </trkpt>
      <trkpt lat="43.625721" lon="3.962327">
        <ele>19.22958</ele>
        <time>2021-07-01T10:51:04Z</time>
      </trkpt>
      <trkpt lat="43.625542" lon="3.962077">
        <ele>18.61538</ele>
        <time>2021-07-01T10:51:05Z</time>
      </trkpt>
      <trkpt lat="43.625351" lon="3.961814">
        <ele>19.26352</ele>
        <time>2021-07-01T10:51:06Z</time>
      </trkpt>
      <trkpt lat="43.625168" lon="3.961556">
        <ele>19.28311</ele>
        <time>2021-07-01T10:51:07Z</time>
      </trkpt>
      <trkpt lat="43.624992" lon="3.961315">
        <ele>19.50253</ele>
        <time>2021-07-01T10:51:08Z</time>
      </trkpt>
      <trkpt lat="43.624992" lon="3.961315">
        <ele>19.04751</ele>
        <time>2021-07-01T10:51:09Z</time>
      </trkpt>
      <trkpt lat="43.624622" lon="3.960795">
        <ele>19.62851</ele>
        <time>2021-07-01T10:51:10Z</time>
      </trkpt>
      <trkpt lat="43.624622" lon="3.960795">
        <ele>19.60806</ele>
        <time>2021-07-01T10:51:11Z</time>
      </trkpt>
      <trkpt lat="43.624435" lon="3.960537">
        <ele>19.99069</ele>
        <time>2021-07-01T10:51:12Z</time>
      </trkpt>
      <trkpt lat="43.624256" lon="3.960282">
        <ele>19.50839</ele>
        <time>2021-07-01T10:51:13Z</time>
      </trkpt>
      <trkpt lat="43.624077" lon="3.960048">
        <ele>19.63925</ele>
        <time>2021-07-01T10:51:14Z</time>
      </trkpt>
      <trkpt lat="43.623867" lon="3.959776">
        <ele>20.40908</ele>
        <time>2021-07-01T10:51:15Z</time>
      </trkpt>
      <trkpt lat="43.623680" lon="3.959533">
        <ele>20.69613</ele>
        <time>2021-07-01T10:51:16Z</time>
      </trkpt>
      <trkpt lat="43.623489" lon="3.959284">
        <ele>21.71859</ele>
        <time>2021-07-01T10:51:17Z</time>
      </trkpt>
      <trkpt lat="43.623310" lon="3.959036">
        <ele>22.25204</ele>
        <time>2021-07-01T10:51:18Z</time>
      </trkpt>
      <trkpt lat="43.623123" lon="3.958782">
        <ele>22.66037</ele>
        <time>2021-07-01T10:51:19Z</time>
      </trkpt>
      <trkpt lat="43.622932" lon="3.958520">
        <ele>21.20169</ele>
        <time>2021-07-01T10:51:20Z</time>
      </trkpt>
      <trkpt lat="43.622746" lon="3.958259">
        <ele>21.34463</ele>
        <time>2021-07-01T10:51:21Z</time>
      </trkpt>
      <trkpt lat="43.622555" lon="3.957998">
        <ele>21.54684</ele>
        <time>2021-07-01T10:51:22Z</time>
      </trkpt>
      <trkpt lat="43.622360" lon="3.957732">
        <ele>22.00631</ele>
        <time>2021-07-01T10:51:23Z</time>
      </trkpt>
      <trkpt lat="43.622162" lon="3.957459">
        <ele>22.50875</ele>
        <time>2021-07-01T10:51:24Z</time>
      </trkpt>
      <trkpt lat="43.621967" lon="3.957190">
        <ele>22.81570</ele>
        <time>2021-07-01T10:51:25Z</time>
      </trkpt>
      <trkpt lat="43.621765" lon="3.956917">
        <ele>23.48800</ele>
        <time>2021-07-01T10:51:26Z</time>
      </trkpt>
      <trkpt lat="43.621590" lon="3.956672">
        <ele>24.06759</ele>
        <time>2021-07-01T10:51:27Z</time>
      </trkpt>
      <trkpt lat="43.621384" lon="3.956389">
        <ele>24.25143</ele>
        <time>2021-07-01T10:51:28Z</time>
      </trkpt>
      <trkpt lat="43.621197" lon="3.956134">
        <ele>24.42666</ele>
        <time>2021-07-01T10:51:29Z</time>
      </trkpt>
      <trkpt lat="43.621006" lon="3.955871">
        <ele>25.32016</ele>
        <time>2021-07-01T10:51:30Z</time>
      </trkpt>
      <trkpt lat="43.620819" lon="3.955617">
        <ele>26.64743</ele>
        <time>2021-07-01T10:51:31Z</time>
      </trkpt>
      <trkpt lat="43.620636" lon="3.955367">
        <ele>27.26742</ele>
        <time>2021-07-01T10:51:32Z</time>
      </trkpt>
      <trkpt lat="43.620453" lon="3.955115">
        <ele>28.19668</ele>
        <time>2021-07-01T10:51:33Z</time>
      </trkpt>
      <trkpt lat="43.620258" lon="3.954853">
        <ele>28.23288</ele>
        <time>2021-07-01T10:51:34Z</time>
      </trkpt>
      <trkpt lat="43.620071" lon="3.954595">
        <ele>29.06601</ele>
        <time>2021-07-01T10:51:35Z</time>
      </trkpt>
      <trkpt lat="43.619881" lon="3.954335">
        <ele>28.79666</ele>
        <time>2021-07-01T10:51:36Z</time>
      </trkpt>
      <trkpt lat="43.619698" lon="3.954086">
        <ele>29.46432</ele>
        <time>2021-07-01T10:51:37Z</time>
      </trkpt>
      <trkpt lat="43.619526" lon="3.953847">
        <ele>30.42135</ele>
        <time>2021-07-01T10:51:38Z</time>
      </trkpt>
      <trkpt lat="43.619526" lon="3.953847">
        <ele>31.18673</ele>
        <time>2021-07-01T10:51:39Z</time>
      </trkpt>
      <trkpt lat="43.619320" lon="3.953568">
        <ele>31.90506</ele>
        <time>2021-07-01T10:51:40Z</time>
      </trkpt>
      <trkpt lat="43.619133" lon="3.953310">
        <ele>32.40695</ele>
        <time>2021-07-01T10:51:41Z</time>
      </trkpt>
      <trkpt lat="43.618946" lon="3.953059">
        <ele>32.81265</ele>
        <time>2021-07-01T10:51:42Z</time>
      </trkpt>
      <trkpt lat="43.618752" lon="3.952814">
        <ele>33.51461</ele>
        <time>2021-07-01T10:51:43Z</time>
      </trkpt>
      <trkpt lat="43.618553" lon="3.952571">
        <ele>33.75863</ele>
        <time>2021-07-01T10:51:44Z</time>
      </trkpt>
      <trkpt lat="43.618366" lon="3.952339">
        <ele>33.22720</ele>
        <time>2021-07-01T10:51:45Z</time>
      </trkpt>
      <trkpt lat="43.618153" lon="3.952097">
        <ele>33.95614</ele>
        <time>2021-07-01T10:51:46Z</time>
      </trkpt>
      <trkpt lat="43.617943" lon="3.951857">
        <ele>33.97000</ele>
        <time>2021-07-01T10:51:47Z</time>
      </trkpt>
      <trkpt lat="43.617741" lon="3.951640">
        <ele>34.24191</ele>
        <time>2021-07-01T10:51:48Z</time>
      </trkpt>
      <trkpt lat="43.617516" lon="3.951406">
        <ele>34.76022</ele>
        <time>2021-07-01T10:51:49Z</time>
      </trkpt>
      <trkpt lat="43.617294" lon="3.951178">
        <ele>34.39700</ele>
        <time>2021-07-01T10:51:50Z</time>
      </trkpt>
      <trkpt lat="43.617073" lon="3.950963">
        <ele>34.92843</ele>
        <time>2021-07-01T10:51:51Z</time>
      </trkpt>
      <trkpt lat="43.616837" lon="3.950742">
        <ele>34.77114</ele>
        <time>2021-07-01T10:51:52Z</time>
      </trkpt>
      <trkpt lat="43.616619" lon="3.950549">
        <ele>34.03280</ele>
        <time>2021-07-01T10:51:53Z</time>
      </trkpt>
      <trkpt lat="43.616390" lon="3.950355">
        <ele>34.17190</ele>
        <time>2021-07-01T10:51:54Z</time>
      </trkpt>
      <trkpt lat="43.616165" lon="3.950160">
        <ele>33.94088</ele>
        <time>2021-07-01T10:51:55Z</time>
      </trkpt>
      <trkpt lat="43.615936" lon="3.949968">
        <ele>33.84622</ele>
        <time>2021-07-01T10:51:56Z</time>
      </trkpt>
      <trkpt lat="43.615704" lon="3.949790">
        <ele>33.64169</ele>
        <time>2021-07-01T10:51:57Z</time>
      </trkpt>
      <trkpt lat="43.615475" lon="3.949620">
        <ele>33.89749</ele>
        <time>2021-07-01T10:51:58Z</time>
      </trkpt>
      <trkpt lat="43.615253" lon="3.949463">
        <ele>34.06869</ele>
        <time>2021-07-01T10:51:59Z</time>
      </trkpt>
      <trkpt lat="43.615021" lon="3.949295">
        <ele>34.74588</ele>
        <time>2021-07-01T10:52:00Z</time>
      </trkpt>
      <trkpt lat="43.614788" lon="3.949134">
        <ele>34.88998</ele>
        <time>2021-07-01T10:52:01Z</time>
      </trkpt>
      <trkpt lat="43.614544" lon="3.948981">
        <ele>35.39700</ele>
        <time>2021-07-01T10:52:02Z</time>
      </trkpt>
      <trkpt lat="43.614311" lon="3.948833">
        <ele>35.07724</ele>
        <time>2021-07-01T10:52:03Z</time>
      </trkpt>
      <trkpt lat="43.614048" lon="3.948682">
        <ele>35.14749</ele>
        <time>2021-07-01T10:52:04Z</time>
      </trkpt>
      <trkpt lat="43.613808" lon="3.948549">
        <ele>35.48483</ele>
        <time>2021-07-01T10:52:05Z</time>
      </trkpt>
      <trkpt lat="43.613571" lon="3.948418">
        <ele>36.03561</ele>
        <time>2021-07-01T10:52:06Z</time>
      </trkpt>
      <trkpt lat="43.613335" lon="3.948300">
        <ele>36.23117</ele>
        <time>2021-07-01T10:52:07Z</time>
      </trkpt>
      <trkpt lat="43.613106" lon="3.948191">
        <ele>36.49618</ele>
        <time>2021-07-01T10:52:08Z</time>
      </trkpt>
      <trkpt lat="43.612900" lon="3.948095">
        <ele>36.75656</ele>
        <time>2021-07-01T10:52:09Z</time>
      </trkpt>
      <trkpt lat="43.612709" lon="3.948004">
        <ele>38.20687</ele>
        <time>2021-07-01T10:52:10Z</time>
      </trkpt>
      <trkpt lat="43.612709" lon="3.948004">
        <ele>39.56497</ele>
        <time>2021-07-01T10:52:11Z</time>
      </trkpt>
      <trkpt lat="43.612076" lon="3.947714">
        <ele>39.43832</ele>
        <time>2021-07-01T10:52:12Z</time>
      </trkpt>
      <trkpt lat="43.611885" lon="3.947627">
        <ele>38.51645</ele>
        <time>2021-07-01T10:52:13Z</time>
      </trkpt>
      <trkpt lat="43.611885" lon="3.947627">
        <ele>39.59439</ele>
        <time>2021-07-01T10:52:14Z</time>
      </trkpt>
      <trkpt lat="43.611706" lon="3.947546">
        <ele>39.55374</ele>
        <time>2021-07-01T10:52:15Z</time>
      </trkpt>
      <trkpt lat="43.611263" lon="3.947345">
        <ele>38.46988</ele>
        <time>2021-07-01T10:52:16Z</time>
      </trkpt>
      <trkpt lat="43.611057" lon="3.947252">
        <ele>38.64511</ele>
        <time>2021-07-01T10:52:17Z</time>
      </trkpt>
      <trkpt lat="43.610813" lon="3.947141">
        <ele>38.48989</ele>
        <time>2021-07-01T10:52:18Z</time>
      </trkpt>
      <trkpt lat="43.610573" lon="3.947032">
        <ele>38.17025</ele>
        <time>2021-07-01T10:52:19Z</time>
      </trkpt>
      <trkpt lat="43.610306" lon="3.946910">
        <ele>38.78067</ele>
        <time>2021-07-01T10:52:20Z</time>
      </trkpt>
      <trkpt lat="43.610046" lon="3.946783">
        <ele>38.83316</ele>
        <time>2021-07-01T10:52:21Z</time>
      </trkpt>
      <trkpt lat="43.609795" lon="3.946649">
        <ele>39.45828</ele>
        <time>2021-07-01T10:52:22Z</time>
      </trkpt>
      <trkpt lat="43.609531" lon="3.946509">
        <ele>39.55630</ele>
        <time>2021-07-01T10:52:23Z</time>
      </trkpt>
      <trkpt lat="43.609276" lon="3.946365">
        <ele>38.91348</ele>
        <time>2021-07-01T10:52:24Z</time>
      </trkpt>
      <trkpt lat="43.609024" lon="3.946214">
        <ele>39.47909</ele>
        <time>2021-07-01T10:52:25Z</time>
      </trkpt>
      <trkpt lat="43.608772" lon="3.946061">
        <ele>39.29385</ele>
        <time>2021-07-01T10:52:26Z</time>
      </trkpt>
      <trkpt lat="43.608532" lon="3.945905">
        <ele>39.30954</ele>
        <time>2021-07-01T10:52:27Z</time>
      </trkpt>
      <trkpt lat="43.608299" lon="3.945747">
        <ele>38.83004</ele>
        <time>2021-07-01T10:52:28Z</time>
      </trkpt>
      <trkpt lat="43.608051" lon="3.945577">
        <ele>39.31039</ele>
        <time>2021-07-01T10:52:29Z</time>
      </trkpt>
      <trkpt lat="43.607811" lon="3.945396">
        <ele>39.14309</ele>
        <time>2021-07-01T10:52:30Z</time>
      </trkpt>
      <trkpt lat="43.607597" lon="3.945232">
        <ele>37.87265</ele>
        <time>2021-07-01T10:52:31Z</time>
      </trkpt>
      <trkpt lat="43.607357" lon="3.945051">
        <ele>37.34835</ele>
        <time>2021-07-01T10:52:32Z</time>
      </trkpt>
      <trkpt lat="43.607132" lon="3.944866">
        <ele>36.53067</ele>
        <time>2021-07-01T10:52:33Z</time>
      </trkpt>
      <trkpt lat="43.606888" lon="3.944658">
        <ele>36.25015</ele>
        <time>2021-07-01T10:52:34Z</time>
      </trkpt>
      <trkpt lat="43.606655" lon="3.944462">
        <ele>35.58883</ele>
        <time>2021-07-01T10:52:35Z</time>
      </trkpt>
      <trkpt lat="43.606430" lon="3.944250">
        <ele>35.76199</ele>
        <time>2021-07-01T10:52:36Z</time>
      </trkpt>
      <trkpt lat="43.606213" lon="3.944045">
        <ele>35.60989</ele>
        <time>2021-07-01T10:52:37Z</time>
      </trkpt>
      <trkpt lat="43.606007" lon="3.943850">
        <ele>35.25259</ele>
        <time>2021-07-01T10:52:38Z</time>
      </trkpt>
      <trkpt lat="43.605782" lon="3.943622">
        <ele>34.79330</ele>
        <time>2021-07-01T10:52:39Z</time>
      </trkpt>
      <trkpt lat="43.605576" lon="3.943409">
        <ele>34.10562</ele>
        <time>2021-07-01T10:52:40Z</time>
      </trkpt>
      <trkpt lat="43.605576" lon="3.943409">
        <ele>34.01425</ele>
        <time>2021-07-01T10:52:41Z</time>
      </trkpt>
      <trkpt lat="43.605347" lon="3.943168">
        <ele>33.07125</ele>
        <time>2021-07-01T10:52:42Z</time>
      </trkpt>
      <trkpt lat="43.605145" lon="3.942939">
        <ele>33.14499</ele>
        <time>2021-07-01T10:52:43Z</time>
      </trkpt>
      <trkpt lat="43.604965" lon="3.942740">
        <ele>32.12747</ele>
        <time>2021-07-01T10:52:44Z</time>
      </trkpt>
      <trkpt lat="43.604866" lon="3.942624">
        <ele>31.66610</ele>
        <time>2021-07-01T10:52:45Z</time>
      </trkpt>
      <trkpt lat="43.604446" lon="3.942111">
        <ele>31.37857</ele>
        <time>2021-07-01T10:52:46Z</time>
      </trkpt>
      <trkpt lat="43.604317" lon="3.941952">
        <ele>31.22488</ele>
        <time>2021-07-01T10:52:47Z</time>
      </trkpt>
      <trkpt lat="43.604118" lon="3.941688">
        <ele>30.40237</ele>
        <time>2021-07-01T10:52:48Z</time>
      </trkpt>
      <trkpt lat="43.603935" lon="3.941439">
        <ele>28.68258</ele>
        <time>2021-07-01T10:52:49Z</time>
      </trkpt>
      <trkpt lat="43.603748" lon="3.941186">
        <ele>27.72049</ele>
        <time>2021-07-01T10:52:50Z</time>
      </trkpt>
      <trkpt lat="43.603558" lon="3.940907">
        <ele>26.42642</ele>
        <time>2021-07-01T10:52:51Z</time>
      </trkpt>
      <trkpt lat="43.603371" lon="3.940632">
        <ele>26.09121</ele>
        <time>2021-07-01T10:52:52Z</time>
      </trkpt>
      <trkpt lat="43.603188" lon="3.940360">
        <ele>25.03860</ele>
        <time>2021-07-01T10:52:53Z</time>
      </trkpt>
      <trkpt lat="43.603008" lon="3.940066">
        <ele>25.03421</ele>
        <time>2021-07-01T10:52:54Z</time>
      </trkpt>
      <trkpt lat="43.602829" lon="3.939775">
        <ele>24.47915</ele>
        <time>2021-07-01T10:52:55Z</time>
      </trkpt>
      <trkpt lat="43.602657" lon="3.939498">
        <ele>23.70559</ele>
        <time>2021-07-01T10:52:56Z</time>
      </trkpt>
      <trkpt lat="43.602489" lon="3.939198">
        <ele>22.34927</ele>
        <time>2021-07-01T10:52:57Z</time>
      </trkpt>
      <trkpt lat="43.602322" lon="3.938892">
        <ele>21.47824</ele>
        <time>2021-07-01T10:52:58Z</time>
      </trkpt>
      <trkpt lat="43.602169" lon="3.938616">
        <ele>21.56448</ele>
        <time>2021-07-01T10:52:59Z</time>
      </trkpt>
      <trkpt lat="43.602028" lon="3.938302">
        <ele>21.29812</ele>
        <time>2021-07-01T10:53:00Z</time>
      </trkpt>
      <trkpt lat="43.601883" lon="3.937983">
        <ele>22.48104</ele>
        <time>2021-07-01T10:53:01Z</time>
      </trkpt>
      <trkpt lat="43.601765" lon="3.937733">
        <ele>22.88473</ele>
        <time>2021-07-01T10:53:02Z</time>
      </trkpt>
      <trkpt lat="43.601616" lon="3.937414">
        <ele>22.51834</ele>
        <time>2021-07-01T10:53:03Z</time>
      </trkpt>
      <trkpt lat="43.601456" lon="3.937076">
        <ele>22.17282</ele>
        <time>2021-07-01T10:53:04Z</time>
      </trkpt>
      <trkpt lat="43.601326" lon="3.936778">
        <ele>21.69302</ele>
        <time>2021-07-01T10:53:05Z</time>
      </trkpt>
      <trkpt lat="43.601192" lon="3.936457">
        <ele>21.88113</ele>
        <time>2021-07-01T10:53:06Z</time>
      </trkpt>
      <trkpt lat="43.601063" lon="3.936135">
        <ele>22.06857</ele>
        <time>2021-07-01T10:53:07Z</time>
      </trkpt>
      <trkpt lat="43.601063" lon="3.936135">
        <ele>21.77505</ele>
        <time>2021-07-01T10:53:08Z</time>
      </trkpt>
      <trkpt lat="43.600811" lon="3.935495">
        <ele>20.59811</ele>
        <time>2021-07-01T10:53:09Z</time>
      </trkpt>
      <trkpt lat="43.600811" lon="3.935495">
        <ele>20.66800</ele>
        <time>2021-07-01T10:53:10Z</time>
      </trkpt>
      <trkpt lat="43.600697" lon="3.935168">
        <ele>20.80368</ele>
        <time>2021-07-01T10:53:11Z</time>
      </trkpt>
      <trkpt lat="43.600578" lon="3.934843">
        <ele>20.64706</ele>
        <time>2021-07-01T10:53:12Z</time>
      </trkpt>
      <trkpt lat="43.600471" lon="3.934544">
        <ele>21.69479</ele>
        <time>2021-07-01T10:53:13Z</time>
      </trkpt>
      <trkpt lat="43.600407" lon="3.934367">
        <ele>22.28311</ele>
        <time>2021-07-01T10:53:14Z</time>
      </trkpt>
      <trkpt lat="43.600227" lon="3.933866">
        <ele>22.35684</ele>
        <time>2021-07-01T10:53:15Z</time>
      </trkpt>
      <trkpt lat="43.600082" lon="3.933454">
        <ele>22.92422</ele>
        <time>2021-07-01T10:53:16Z</time>
      </trkpt>
      <trkpt lat="43.599979" lon="3.933167">
        <ele>22.44027</ele>
        <time>2021-07-01T10:53:17Z</time>
      </trkpt>
      <trkpt lat="43.599873" lon="3.932869">
        <ele>22.63168</ele>
        <time>2021-07-01T10:53:18Z</time>
      </trkpt>
      <trkpt lat="43.599758" lon="3.932553">
        <ele>22.25314</ele>
        <time>2021-07-01T10:53:19Z</time>
      </trkpt>
      <trkpt lat="43.599632" lon="3.932210">
        <ele>21.94851</ele>
        <time>2021-07-01T10:53:20Z</time>
      </trkpt>
      <trkpt lat="43.599514" lon="3.931906">
        <ele>22.56015</ele>
        <time>2021-07-01T10:53:21Z</time>
      </trkpt>
      <trkpt lat="43.599388" lon="3.931587">
        <ele>22.48556</ele>
        <time>2021-07-01T10:53:22Z</time>
      </trkpt>
      <trkpt lat="43.599258" lon="3.931285">
        <ele>22.68936</ele>
        <time>2021-07-01T10:53:23Z</time>
      </trkpt>
      <trkpt lat="43.599110" lon="3.930935">
        <ele>21.89743</ele>
        <time>2021-07-01T10:53:24Z</time>
      </trkpt>
      <trkpt lat="43.598965" lon="3.930599">
        <ele>21.76046</ele>
        <time>2021-07-01T10:53:25Z</time>
      </trkpt>
      <trkpt lat="43.598827" lon="3.930275">
        <ele>21.80661</ele>
        <time>2021-07-01T10:53:26Z</time>
      </trkpt>
      <trkpt lat="43.598690" lon="3.929952">
        <ele>21.95620</ele>
        <time>2021-07-01T10:53:27Z</time>
      </trkpt>
      <trkpt lat="43.598549" lon="3.929629">
        <ele>22.02645</ele>
        <time>2021-07-01T10:53:28Z</time>
      </trkpt>
      <trkpt lat="43.598408" lon="3.929298">
        <ele>21.96969</ele>
        <time>2021-07-01T10:53:29Z</time>
      </trkpt>
      <trkpt lat="43.598278" lon="3.928995">
        <ele>22.31039</ele>
        <time>2021-07-01T10:53:30Z</time>
      </trkpt>
      <trkpt lat="43.598278" lon="3.928995">
        <ele>22.52627</ele>
        <time>2021-07-01T10:53:31Z</time>
      </trkpt>
      <trkpt lat="43.598156" lon="3.928708">
        <ele>22.33242</ele>
        <time>2021-07-01T10:53:32Z</time>
      </trkpt>
      <trkpt lat="43.598015" lon="3.928378">
        <ele>22.95419</ele>
        <time>2021-07-01T10:53:33Z</time>
      </trkpt>
      <trkpt lat="43.597881" lon="3.928067">
        <ele>22.76272</ele>
        <time>2021-07-01T10:53:34Z</time>
      </trkpt>
      <trkpt lat="43.597752" lon="3.927764">
        <ele>22.69168</ele>
        <time>2021-07-01T10:53:35Z</time>
      </trkpt>
      <trkpt lat="43.597599" lon="3.927411">
        <ele>22.61654</ele>
        <time>2021-07-01T10:53:36Z</time>
      </trkpt>
      <trkpt lat="43.597466" lon="3.927100">
        <ele>22.40518</ele>
        <time>2021-07-01T10:53:37Z</time>
      </trkpt>
      <trkpt lat="43.597332" lon="3.926786">
        <ele>21.86886</ele>
        <time>2021-07-01T10:53:38Z</time>
      </trkpt>
      <trkpt lat="43.597195" lon="3.926466">
        <ele>21.18789</ele>
        <time>2021-07-01T10:53:39Z</time>
      </trkpt>
      <trkpt lat="43.597054" lon="3.926134">
        <ele>22.16525</ele>
        <time>2021-07-01T10:53:40Z</time>
      </trkpt>
      <trkpt lat="43.596920" lon="3.925825">
        <ele>21.26504</ele>
        <time>2021-07-01T10:53:41Z</time>
      </trkpt>
      <trkpt lat="43.596779" lon="3.925493">
        <ele>20.55380</ele>
        <time>2021-07-01T10:53:42Z</time>
      </trkpt>
      <trkpt lat="43.596649" lon="3.925185">
        <ele>20.29818</ele>
        <time>2021-07-01T10:53:43Z</time>
      </trkpt>
      <trkpt lat="43.596527" lon="3.924901">
        <ele>20.63180</ele>
        <time>2021-07-01T10:53:44Z</time>
      </trkpt>
      <trkpt lat="43.596405" lon="3.924617">
        <ele>21.35928</ele>
        <time>2021-07-01T10:53:45Z</time>
      </trkpt>
      <trkpt lat="43.596268" lon="3.924292">
        <ele>21.75845</ele>
        <time>2021-07-01T10:53:46Z</time>
      </trkpt>
      <trkpt lat="43.596127" lon="3.923965">
        <ele>21.53878</ele>
        <time>2021-07-01T10:53:47Z</time>
      </trkpt>
      <trkpt lat="43.595997" lon="3.923664">
        <ele>21.27188</ele>
        <time>2021-07-01T10:53:48Z</time>
      </trkpt>
      <trkpt lat="43.595875" lon="3.923379">
        <ele>21.91598</ele>
        <time>2021-07-01T10:53:49Z</time>
      </trkpt>
      <trkpt lat="43.595753" lon="3.923089">
        <ele>21.83065</ele>
        <time>2021-07-01T10:53:50Z</time>
      </trkpt>
      <trkpt lat="43.595619" lon="3.922786">
        <ele>21.74435</ele>
        <time>2021-07-01T10:53:51Z</time>
      </trkpt>
      <trkpt lat="43.595505" lon="3.922517">
        <ele>21.10897</ele>
        <time>2021-07-01T10:53:52Z</time>
      </trkpt>
      <trkpt lat="43.595383" lon="3.922227">
        <ele>21.45797</ele>
        <time>2021-07-01T10:53:53Z</time>
      </trkpt>
      <trkpt lat="43.595261" lon="3.921942">
        <ele>20.72488</ele>
        <time>2021-07-01T10:53:54Z</time>
      </trkpt>
      <trkpt lat="43.595127" lon="3.921630">
        <ele>20.14547</ele>
        <time>2021-07-01T10:53:55Z</time>
      </trkpt>
      <trkpt lat="43.594997" lon="3.921328">
        <ele>20.15939</ele>
        <time>2021-07-01T10:53:56Z</time>
      </trkpt>
      <trkpt lat="43.594872" lon="3.921036">
        <ele>20.56222</ele>
        <time>2021-07-01T10:53:57Z</time>
      </trkpt>
      <trkpt lat="43.594776" lon="3.920813">
        <ele>20.03897</ele>
        <time>2021-07-01T10:53:58Z</time>
      </trkpt>
      <trkpt lat="43.594776" lon="3.920813">
        <ele>19.31631</ele>
        <time>2021-07-01T10:53:59Z</time>
      </trkpt>
      <trkpt lat="43.594707" lon="3.920655">
        <ele>18.93704</ele>
        <time>2021-07-01T10:54:00Z</time>
      </trkpt>
      <trkpt lat="43.594456" lon="3.920062">
        <ele>18.38449</ele>
        <time>2021-07-01T10:54:01Z</time>
      </trkpt>
      <trkpt lat="43.594368" lon="3.919863">
        <ele>18.65451</ele>
        <time>2021-07-01T10:54:02Z</time>
      </trkpt>
      <trkpt lat="43.594238" lon="3.919562">
        <ele>18.26486</ele>
        <time>2021-07-01T10:54:03Z</time>
      </trkpt>
      <trkpt lat="43.594109" lon="3.919257">
        <ele>18.79672</ele>
        <time>2021-07-01T10:54:04Z</time>
      </trkpt>
      <trkpt lat="43.593983" lon="3.918961">
        <ele>18.02114</ele>
        <time>2021-07-01T10:54:05Z</time>
      </trkpt>
      <trkpt lat="43.593861" lon="3.918674">
        <ele>18.04666</ele>
        <time>2021-07-01T10:54:06Z</time>
      </trkpt>
      <trkpt lat="43.593719" lon="3.918351">
        <ele>17.72128</ele>
        <time>2021-07-01T10:54:07Z</time>
      </trkpt>
      <trkpt lat="43.593586" lon="3.918039">
        <ele>17.33432</ele>
        <time>2021-07-01T10:54:08Z</time>
      </trkpt>
      <trkpt lat="43.593433" lon="3.917677">
        <ele>16.59909</ele>
        <time>2021-07-01T10:54:09Z</time>
      </trkpt>
      <trkpt lat="43.593307" lon="3.917383">
        <ele>16.87356</ele>
        <time>2021-07-01T10:54:10Z</time>
      </trkpt>
      <trkpt lat="43.593159" lon="3.917040">
        <ele>17.65866</ele>
        <time>2021-07-01T10:54:11Z</time>
      </trkpt>
      <trkpt lat="43.593025" lon="3.916731">
        <ele>17.20724</ele>
        <time>2021-07-01T10:54:12Z</time>
      </trkpt>
      <trkpt lat="43.592884" lon="3.916395">
        <ele>18.06228</ele>
        <time>2021-07-01T10:54:13Z</time>
      </trkpt>
      <trkpt lat="43.592751" lon="3.916084">
        <ele>18.59372</ele>
        <time>2021-07-01T10:54:14Z</time>
      </trkpt>
      <trkpt lat="43.592609" lon="3.915763">
        <ele>19.03933</ele>
        <time>2021-07-01T10:54:15Z</time>
      </trkpt>
      <trkpt lat="43.592491" lon="3.915485">
        <ele>19.52639</ele>
        <time>2021-07-01T10:54:16Z</time>
      </trkpt>
      <trkpt lat="43.592339" lon="3.915127">
        <ele>19.39303</ele>
        <time>2021-07-01T10:54:17Z</time>
      </trkpt>
      <trkpt lat="43.592194" lon="3.914799">
        <ele>19.69552</ele>
        <time>2021-07-01T10:54:18Z</time>
      </trkpt>
      <trkpt lat="43.592194" lon="3.914799">
        <ele>19.94015</ele>
        <time>2021-07-01T10:54:19Z</time>
      </trkpt>
      <trkpt lat="43.592064" lon="3.914499">
        <ele>19.58950</ele>
        <time>2021-07-01T10:54:20Z</time>
      </trkpt>
      <trkpt lat="43.591934" lon="3.914192">
        <ele>19.70608</ele>
        <time>2021-07-01T10:54:21Z</time>
      </trkpt>
      <trkpt lat="43.591801" lon="3.913883">
        <ele>18.95419</ele>
        <time>2021-07-01T10:54:22Z</time>
      </trkpt>
      <trkpt lat="43.591656" lon="3.913557">
        <ele>18.38284</ele>
        <time>2021-07-01T10:54:23Z</time>
      </trkpt>
      <trkpt lat="43.591511" lon="3.913239">
        <ele>18.97628</ele>
        <time>2021-07-01T10:54:24Z</time>
      </trkpt>
      <trkpt lat="43.591377" lon="3.912941">
        <ele>19.33560</ele>
        <time>2021-07-01T10:54:25Z</time>
      </trkpt>
      <trkpt lat="43.591240" lon="3.912643">
        <ele>19.61886</ele>
        <time>2021-07-01T10:54:26Z</time>
      </trkpt>
      <trkpt lat="43.591091" lon="3.912312">
        <ele>19.83059</ele>
        <time>2021-07-01T10:54:27Z</time>
      </trkpt>
      <trkpt lat="43.590935" lon="3.911965">
        <ele>20.33291</ele>
        <time>2021-07-01T10:54:28Z</time>
      </trkpt>
      <trkpt lat="43.590794" lon="3.911658">
        <ele>19.77273</ele>
        <time>2021-07-01T10:54:29Z</time>
      </trkpt>
      <trkpt lat="43.590660" lon="3.911362">
        <ele>19.68783</ele>
        <time>2021-07-01T10:54:30Z</time>
      </trkpt>
      <trkpt lat="43.590530" lon="3.911072">
        <ele>20.05996</ele>
        <time>2021-07-01T10:54:31Z</time>
      </trkpt>
      <trkpt lat="43.590389" lon="3.910764">
        <ele>20.28817</ele>
        <time>2021-07-01T10:54:32Z</time>
      </trkpt>
      <trkpt lat="43.590252" lon="3.910458">
        <ele>20.51181</ele>
        <time>2021-07-01T10:54:33Z</time>
      </trkpt>
      <trkpt lat="43.590111" lon="3.910144">
        <ele>21.10983</ele>
        <time>2021-07-01T10:54:34Z</time>
      </trkpt>
      <trkpt lat="43.589966" lon="3.909822">
        <ele>20.49051</ele>
        <time>2021-07-01T10:54:35Z</time>
      </trkpt>
      <trkpt lat="43.589828" lon="3.909520">
        <ele>20.55856</ele>
        <time>2021-07-01T10:54:36Z</time>
      </trkpt>
      <trkpt lat="43.589680" lon="3.909196">
        <ele>19.53817</ele>
        <time>2021-07-01T10:54:37Z</time>
      </trkpt>
      <trkpt lat="43.589542" lon="3.908886">
        <ele>19.59945</ele>
        <time>2021-07-01T10:54:38Z</time>
      </trkpt>
      <trkpt lat="43.589390" lon="3.908553">
        <ele>19.54470</ele>
        <time>2021-07-01T10:54:39Z</time>
      </trkpt>
      <trkpt lat="43.589252" lon="3.908252">
        <ele>19.53775</ele>
        <time>2021-07-01T10:54:40Z</time>
      </trkpt>
      <trkpt lat="43.589104" lon="3.907924">
        <ele>19.01760</ele>
        <time>2021-07-01T10:54:41Z</time>
      </trkpt>
      <trkpt lat="43.588966" lon="3.907623">
        <ele>19.03372</ele>
        <time>2021-07-01T10:54:42Z</time>
      </trkpt>
      <trkpt lat="43.588829" lon="3.907315">
        <ele>19.17318</ele>
        <time>2021-07-01T10:54:43Z</time>
      </trkpt>
      <trkpt lat="43.588688" lon="3.907001">
        <ele>18.60470</ele>
        <time>2021-07-01T10:54:44Z</time>
      </trkpt>
      <trkpt lat="43.588551" lon="3.906700">
        <ele>18.40121</ele>
        <time>2021-07-01T10:54:45Z</time>
      </trkpt>
      <trkpt lat="43.588394" lon="3.906359">
        <ele>18.23355</ele>
        <time>2021-07-01T10:54:46Z</time>
      </trkpt>
      <trkpt lat="43.588394" lon="3.906359">
        <ele>17.91665</ele>
        <time>2021-07-01T10:54:47Z</time>
      </trkpt>
      <trkpt lat="43.588108" lon="3.905722">
        <ele>17.65072</ele>
        <time>2021-07-01T10:54:48Z</time>
      </trkpt>
      <trkpt lat="43.588108" lon="3.905722">
        <ele>17.42807</ele>
        <time>2021-07-01T10:54:49Z</time>
      </trkpt>
      <trkpt lat="43.587990" lon="3.905459">
        <ele>16.95572</ele>
        <time>2021-07-01T10:54:50Z</time>
      </trkpt>
      <trkpt lat="43.587837" lon="3.905122">
        <ele>16.67569</ele>
        <time>2021-07-01T10:54:51Z</time>
      </trkpt>
      <trkpt lat="43.587692" lon="3.904808">
        <ele>16.61007</ele>
        <time>2021-07-01T10:54:52Z</time>
      </trkpt>
      <trkpt lat="43.587547" lon="3.904483">
        <ele>16.65115</ele>
        <time>2021-07-01T10:54:53Z</time>
      </trkpt>
      <trkpt lat="43.587475" lon="3.904321">
        <ele>16.66537</ele>
        <time>2021-07-01T10:54:54Z</time>
      </trkpt>
      <trkpt lat="43.587254" lon="3.903845">
        <ele>16.92428</ele>
        <time>2021-07-01T10:54:55Z</time>
      </trkpt>
      <trkpt lat="43.587093" lon="3.903494">
        <ele>16.29696</ele>
        <time>2021-07-01T10:54:56Z</time>
      </trkpt>
      <trkpt lat="43.586983" lon="3.903259">
        <ele>15.90060</ele>
        <time>2021-07-01T10:54:57Z</time>
      </trkpt>
      <trkpt lat="43.586842" lon="3.902955">
        <ele>16.04586</ele>
        <time>2021-07-01T10:54:58Z</time>
      </trkpt>
      <trkpt lat="43.586678" lon="3.902634">
        <ele>15.94113</ele>
        <time>2021-07-01T10:54:59Z</time>
      </trkpt>
      <trkpt lat="43.586517" lon="3.902309">
        <ele>14.43216</ele>
        <time>2021-07-01T10:55:00Z</time>
      </trkpt>
      <trkpt lat="43.586361" lon="3.901991">
        <ele>14.85135</ele>
        <time>2021-07-01T10:55:01Z</time>
      </trkpt>
      <trkpt lat="43.586197" lon="3.901673">
        <ele>14.65774</ele>
        <time>2021-07-01T10:55:02Z</time>
      </trkpt>
      <trkpt lat="43.586044" lon="3.901383">
        <ele>12.98056</ele>
        <time>2021-07-01T10:55:03Z</time>
      </trkpt>
      <trkpt lat="43.585922" lon="3.901156">
        <ele>12.96463</ele>
        <time>2021-07-01T10:55:04Z</time>
      </trkpt>
      <trkpt lat="43.585911" lon="3.901131">
        <ele>13.09311</ele>
        <time>2021-07-01T10:55:05Z</time>
      </trkpt>
      <trkpt lat="43.585609" lon="3.900564">
        <ele>12.47506</ele>
        <time>2021-07-01T10:55:06Z</time>
      </trkpt>
      <trkpt lat="43.585468" lon="3.900291">
        <ele>12.24350</ele>
        <time>2021-07-01T10:55:07Z</time>
      </trkpt>
      <trkpt lat="43.585312" lon="3.899995">
        <ele>12.27353</ele>
        <time>2021-07-01T10:55:08Z</time>
      </trkpt>
      <trkpt lat="43.585155" lon="3.899704">
        <ele>10.87045</ele>
        <time>2021-07-01T10:55:09Z</time>
      </trkpt>
      <trkpt lat="43.585011" lon="3.899424">
        <ele>10.41189</ele>
        <time>2021-07-01T10:55:10Z</time>
      </trkpt>
      <trkpt lat="43.584850" lon="3.899120">
        <ele>10.39102</ele>
        <time>2021-07-01T10:55:11Z</time>
      </trkpt>
      <trkpt lat="43.584686" lon="3.898812">
        <ele>11.05520</ele>
        <time>2021-07-01T10:55:12Z</time>
      </trkpt>
      <trkpt lat="43.584541" lon="3.898536">
        <ele>10.26712</ele>
        <time>2021-07-01T10:55:13Z</time>
      </trkpt>
      <trkpt lat="43.584370" lon="3.898211">
        <ele>10.46005</ele>
        <time>2021-07-01T10:55:14Z</time>
      </trkpt>
      <trkpt lat="43.584221" lon="3.897926">
        <ele>10.76620</ele>
        <time>2021-07-01T10:55:15Z</time>
      </trkpt>
      <trkpt lat="43.584221" lon="3.897926">
        <ele>10.18740</ele>
        <time>2021-07-01T10:55:16Z</time>
      </trkpt>
      <trkpt lat="43.584064" lon="3.897631">
        <ele>10.80331</ele>
        <time>2021-07-01T10:55:17Z</time>
      </trkpt>
      <trkpt lat="43.583904" lon="3.897330">
        <ele>11.70883</ele>
        <time>2021-07-01T10:55:18Z</time>
      </trkpt>
      <trkpt lat="43.583744" lon="3.897026">
        <ele>12.02530</ele>
        <time>2021-07-01T10:55:19Z</time>
      </trkpt>
      <trkpt lat="43.583591" lon="3.896734">
        <ele>12.51638</ele>
        <time>2021-07-01T10:55:20Z</time>
      </trkpt>
      <trkpt lat="43.583427" lon="3.896426">
        <ele>12.45980</ele>
        <time>2021-07-01T10:55:21Z</time>
      </trkpt>
      <trkpt lat="43.583271" lon="3.896134">
        <ele>12.67117</ele>
        <time>2021-07-01T10:55:22Z</time>
      </trkpt>
      <trkpt lat="43.583115" lon="3.895838">
        <ele>13.97946</ele>
        <time>2021-07-01T10:55:23Z</time>
      </trkpt>
      <trkpt lat="43.582951" lon="3.895528">
        <ele>14.36642</ele>
        <time>2021-07-01T10:55:24Z</time>
      </trkpt>
      <trkpt lat="43.582787" lon="3.895231">
        <ele>14.40170</ele>
        <time>2021-07-01T10:55:25Z</time>
      </trkpt>
      <trkpt lat="43.582626" lon="3.894933">
        <ele>14.46457</ele>
        <time>2021-07-01T10:55:26Z</time>
      </trkpt>
      <trkpt lat="43.582462" lon="3.894632">
        <ele>12.75821</ele>
        <time>2021-07-01T10:55:27Z</time>
      </trkpt>
      <trkpt lat="43.582298" lon="3.894329">
        <ele>12.46414</ele>
        <time>2021-07-01T10:55:28Z</time>
      </trkpt>
      <trkpt lat="43.582142" lon="3.894042">
        <ele>12.53189</ele>
        <time>2021-07-01T10:55:29Z</time>
      </trkpt>
      <trkpt lat="43.581989" lon="3.893759">
        <ele>12.02243</ele>
        <time>2021-07-01T10:55:30Z</time>
      </trkpt>
      <trkpt lat="43.581825" lon="3.893461">
        <ele>11.83285</ele>
        <time>2021-07-01T10:55:31Z</time>
      </trkpt>
      <trkpt lat="43.581669" lon="3.893174">
        <ele>11.99789</ele>
        <time>2021-07-01T10:55:32Z</time>
      </trkpt>
      <trkpt lat="43.581512" lon="3.892882">
        <ele>12.03366</ele>
        <time>2021-07-01T10:55:33Z</time>
      </trkpt>
      <trkpt lat="43.581341" lon="3.892571">
        <ele>11.73947</ele>
        <time>2021-07-01T10:55:34Z</time>
      </trkpt>
      <trkpt lat="43.581200" lon="3.892307">
        <ele>12.04153</ele>
        <time>2021-07-01T10:55:35Z</time>
      </trkpt>
      <trkpt lat="43.581028" lon="3.891992">
        <ele>12.28042</ele>
        <time>2021-07-01T10:55:36Z</time>
      </trkpt>
      <trkpt lat="43.580860" lon="3.891689">
        <ele>12.23288</ele>
        <time>2021-07-01T10:55:37Z</time>
      </trkpt>
      <trkpt lat="43.580715" lon="3.891418">
        <ele>11.83548</ele>
        <time>2021-07-01T10:55:38Z</time>
      </trkpt>
      <trkpt lat="43.580559" lon="3.891129">
        <ele>11.72989</ele>
        <time>2021-07-01T10:55:39Z</time>
      </trkpt>
      <trkpt lat="43.580395" lon="3.890828">
        <ele>11.77475</ele>
        <time>2021-07-01T10:55:40Z</time>
      </trkpt>
      <trkpt lat="43.580235" lon="3.890533">
        <ele>11.77792</ele>
        <time>2021-07-01T10:55:41Z</time>
      </trkpt>
      <trkpt lat="43.580067" lon="3.890226">
        <ele>11.84854</ele>
        <time>2021-07-01T10:55:42Z</time>
      </trkpt>
      <trkpt lat="43.580067" lon="3.890226">
        <ele>12.00705</ele>
        <time>2021-07-01T10:55:43Z</time>
      </trkpt>
      <trkpt lat="43.579929" lon="3.889973">
        <ele>12.07504</ele>
        <time>2021-07-01T10:55:44Z</time>
      </trkpt>
      <trkpt lat="43.579590" lon="3.889354">
        <ele>10.76504</ele>
        <time>2021-07-01T10:55:45Z</time>
      </trkpt>
      <trkpt lat="43.579590" lon="3.889354">
        <ele>10.93167</ele>
        <time>2021-07-01T10:55:46Z</time>
      </trkpt>
      <trkpt lat="43.579433" lon="3.889066">
        <ele>10.37051</ele>
        <time>2021-07-01T10:55:47Z</time>
      </trkpt>
      <trkpt lat="43.579288" lon="3.888796">
        <ele>9.68600</ele>
        <time>2021-07-01T10:55:48Z</time>
      </trkpt>
      <trkpt lat="43.579117" lon="3.888482">
        <ele>9.17685</ele>
        <time>2021-07-01T10:55:49Z</time>
      </trkpt>
      <trkpt lat="43.578957" lon="3.888189">
        <ele>9.37350</ele>
        <time>2021-07-01T10:55:50Z</time>
      </trkpt>
      <trkpt lat="43.578800" lon="3.887898">
        <ele>9.31698</ele>
        <time>2021-07-01T10:55:51Z</time>
      </trkpt>
      <trkpt lat="43.578648" lon="3.887619">
        <ele>9.56222</ele>
        <time>2021-07-01T10:55:52Z</time>
      </trkpt>
      <trkpt lat="43.578472" lon="3.887302">
        <ele>9.37899</ele>
        <time>2021-07-01T10:55:53Z</time>
      </trkpt>
      <trkpt lat="43.578316" lon="3.887012">
        <ele>9.23544</ele>
        <time>2021-07-01T10:55:54Z</time>
      </trkpt>
      <trkpt lat="43.578152" lon="3.886708">
        <ele>8.87362</ele>
        <time>2021-07-01T10:55:55Z</time>
      </trkpt>
      <trkpt lat="43.577976" lon="3.886393">
        <ele>9.22738</ele>
        <time>2021-07-01T10:55:56Z</time>
      </trkpt>
      <trkpt lat="43.577820" lon="3.886107">
        <ele>9.03598</ele>
        <time>2021-07-01T10:55:57Z</time>
      </trkpt>
      <trkpt lat="43.577663" lon="3.885821">
        <ele>8.26535</ele>
        <time>2021-07-01T10:55:58Z</time>
      </trkpt>
      <trkpt lat="43.577515" lon="3.885551">
        <ele>8.44131</ele>
        <time>2021-07-01T10:55:59Z</time>
      </trkpt>
      <trkpt lat="43.577358" lon="3.885267">
        <ele>8.13015</ele>
        <time>2021-07-01T10:56:00Z</time>
      </trkpt>
      <trkpt lat="43.577194" lon="3.884971">
        <ele>8.30984</ele>
        <time>2021-07-01T10:56:01Z</time>
      </trkpt>
      <trkpt lat="43.577019" lon="3.884654">
        <ele>7.75882</ele>
        <time>2021-07-01T10:56:02Z</time>
      </trkpt>
      <trkpt lat="43.576866" lon="3.884378">
        <ele>7.64639</ele>
        <time>2021-07-01T10:56:03Z</time>
      </trkpt>
      <trkpt lat="43.576702" lon="3.884083">
        <ele>8.05795</ele>
        <time>2021-07-01T10:56:04Z</time>
      </trkpt>
      <trkpt lat="43.576538" lon="3.883782">
        <ele>8.57351</ele>
        <time>2021-07-01T10:56:05Z</time>
      </trkpt>
      <trkpt lat="43.576370" lon="3.883479">
        <ele>8.31265</ele>
        <time>2021-07-01T10:56:06Z</time>
      </trkpt>
      <trkpt lat="43.576206" lon="3.883181">
        <ele>7.66647</ele>
        <time>2021-07-01T10:56:07Z</time>
      </trkpt>
      <trkpt lat="43.576038" lon="3.882881">
        <ele>7.80062</ele>
        <time>2021-07-01T10:56:08Z</time>
      </trkpt>
      <trkpt lat="43.575890" lon="3.882609">
        <ele>7.46194</ele>
        <time>2021-07-01T10:56:09Z</time>
      </trkpt>
      <trkpt lat="43.575718" lon="3.882297">
        <ele>7.96353</ele>
        <time>2021-07-01T10:56:10Z</time>
      </trkpt>
      <trkpt lat="43.575718" lon="3.882297">
        <ele>7.87613</ele>
        <time>2021-07-01T10:56:11Z</time>
      </trkpt>
      <trkpt lat="43.575535" lon="3.881962">
        <ele>7.62167</ele>
        <time>2021-07-01T10:56:12Z</time>
      </trkpt>
      <trkpt lat="43.575390" lon="3.881701">
        <ele>7.37338</ele>
        <time>2021-07-01T10:56:13Z</time>
      </trkpt>
      <trkpt lat="43.575211" lon="3.881377">
        <ele>6.51010</ele>
        <time>2021-07-01T10:56:14Z</time>
      </trkpt>
      <trkpt lat="43.575050" lon="3.881084">
        <ele>6.67178</ele>
        <time>2021-07-01T10:56:15Z</time>
      </trkpt>
      <trkpt lat="43.574886" lon="3.880788">
        <ele>5.97934</ele>
        <time>2021-07-01T10:56:16Z</time>
      </trkpt>
      <trkpt lat="43.574715" lon="3.880476">
        <ele>6.35806</ele>
        <time>2021-07-01T10:56:17Z</time>
      </trkpt>
      <trkpt lat="43.574562" lon="3.880203">
        <ele>6.67379</ele>
        <time>2021-07-01T10:56:18Z</time>
      </trkpt>
      <trkpt lat="43.574402" lon="3.879909">
        <ele>6.93447</ele>
        <time>2021-07-01T10:56:19Z</time>
      </trkpt>
      <trkpt lat="43.574234" lon="3.879611">
        <ele>7.47335</ele>
        <time>2021-07-01T10:56:20Z</time>
      </trkpt>
      <trkpt lat="43.574066" lon="3.879310">
        <ele>7.53726</ele>
        <time>2021-07-01T10:56:21Z</time>
      </trkpt>
      <trkpt lat="43.573914" lon="3.879029">
        <ele>7.78952</ele>
        <time>2021-07-01T10:56:22Z</time>
      </trkpt>
      <trkpt lat="43.573753" lon="3.878734">
        <ele>7.93655</ele>
        <time>2021-07-01T10:56:23Z</time>
      </trkpt>
      <trkpt lat="43.573593" lon="3.878447">
        <ele>8.07162</ele>
        <time>2021-07-01T10:56:24Z</time>
      </trkpt>
      <trkpt lat="43.573437" lon="3.878161">
        <ele>8.40060</ele>
        <time>2021-07-01T10:56:25Z</time>
      </trkpt>
      <trkpt lat="43.573280" lon="3.877857">
        <ele>8.61007</ele>
        <time>2021-07-01T10:56:26Z</time>
      </trkpt>
      <trkpt lat="43.573128" lon="3.877544">
        <ele>8.69522</ele>
        <time>2021-07-01T10:56:27Z</time>
      </trkpt>
      <trkpt lat="43.572979" lon="3.877238">
        <ele>10.06778</ele>
        <time>2021-07-01T10:56:28Z</time>
      </trkpt>
      <trkpt lat="43.572838" lon="3.876928">
        <ele>10.62094</ele>
        <time>2021-07-01T10:56:29Z</time>
      </trkpt>
      <trkpt lat="43.572704" lon="3.876616">
        <ele>10.33291</ele>
        <time>2021-07-01T10:56:30Z</time>
      </trkpt>
      <trkpt lat="43.572582" lon="3.876336">
        <ele>10.85586</ele>
        <time>2021-07-01T10:56:31Z</time>
      </trkpt>
      <trkpt lat="43.572433" lon="3.875989">
        <ele>11.87204</ele>
        <time>2021-07-01T10:56:32Z</time>
      </trkpt>
      <trkpt lat="43.572433" lon="3.875989">
        <ele>12.39755</ele>
        <time>2021-07-01T10:56:33Z</time>
      </trkpt>
      <trkpt lat="43.572315" lon="3.875683">
        <ele>13.19387</ele>
        <time>2021-07-01T10:56:34Z</time>
      </trkpt>
      <trkpt lat="43.572186" lon="3.875336">
        <ele>13.57779</ele>
        <time>2021-07-01T10:56:35Z</time>
      </trkpt>
      <trkpt lat="43.572079" lon="3.875037">
        <ele>14.61471</ele>
        <time>2021-07-01T10:56:36Z</time>
      </trkpt>
      <trkpt lat="43.571957" lon="3.874685">
        <ele>15.73452</ele>
        <time>2021-07-01T10:56:37Z</time>
      </trkpt>
      <trkpt lat="43.571842" lon="3.874349">
        <ele>16.23715</ele>
        <time>2021-07-01T10:56:38Z</time>
      </trkpt>
      <trkpt lat="43.571735" lon="3.873995">
        <ele>16.71829</ele>
        <time>2021-07-01T10:56:39Z</time>
      </trkpt>
      <trkpt lat="43.571686" lon="3.873831">
        <ele>17.51992</ele>
        <time>2021-07-01T10:56:40Z</time>
      </trkpt>
      <trkpt lat="43.571526" lon="3.873281">
        <ele>17.67489</ele>
        <time>2021-07-01T10:56:41Z</time>
      </trkpt>
      <trkpt lat="43.571419" lon="3.872891">
        <ele>17.99929</ele>
        <time>2021-07-01T10:56:42Z</time>
      </trkpt>
      <trkpt lat="43.571342" lon="3.872581">
        <ele>19.14779</ele>
        <time>2021-07-01T10:56:43Z</time>
      </trkpt>
      <trkpt lat="43.571259" lon="3.872227">
        <ele>19.45718</ele>
        <time>2021-07-01T10:56:44Z</time>
      </trkpt>
      <trkpt lat="43.571178" lon="3.871890">
        <ele>20.04977</ele>
        <time>2021-07-01T10:56:45Z</time>
      </trkpt>
      <trkpt lat="43.571110" lon="3.871547">
        <ele>20.66293</ele>
        <time>2021-07-01T10:56:46Z</time>
      </trkpt>
      <trkpt lat="43.571041" lon="3.871201">
        <ele>21.66214</ele>
        <time>2021-07-01T10:56:47Z</time>
      </trkpt>
      <trkpt lat="43.570976" lon="3.870856">
        <ele>22.54483</ele>
        <time>2021-07-01T10:56:48Z</time>
      </trkpt>
      <trkpt lat="43.570911" lon="3.870476">
        <ele>22.42093</ele>
        <time>2021-07-01T10:56:49Z</time>
      </trkpt>
      <trkpt lat="43.570854" lon="3.870124">
        <ele>23.17593</ele>
        <time>2021-07-01T10:56:50Z</time>
      </trkpt>
      <trkpt lat="43.570805" lon="3.869768">
        <ele>23.76968</ele>
        <time>2021-07-01T10:56:51Z</time>
      </trkpt>
      <trkpt lat="43.570759" lon="3.869395">
        <ele>23.59811</ele>
        <time>2021-07-01T10:56:52Z</time>
      </trkpt>
      <trkpt lat="43.570713" lon="3.869028">
        <ele>24.55813</ele>
        <time>2021-07-01T10:56:53Z</time>
      </trkpt>
      <trkpt lat="43.570675" lon="3.868664">
        <ele>25.17617</ele>
        <time>2021-07-01T10:56:54Z</time>
      </trkpt>
      <trkpt lat="43.570644" lon="3.868293">
        <ele>25.32504</ele>
        <time>2021-07-01T10:56:55Z</time>
      </trkpt>
      <trkpt lat="43.570614" lon="3.867936">
        <ele>26.29177</ele>
        <time>2021-07-01T10:56:56Z</time>
      </trkpt>
      <trkpt lat="43.570587" lon="3.867563">
        <ele>26.62924</ele>
        <time>2021-07-01T10:56:57Z</time>
      </trkpt>
      <trkpt lat="43.570572" lon="3.867231">
        <ele>26.66555</ele>
        <time>2021-07-01T10:56:58Z</time>
      </trkpt>
      <trkpt lat="43.570572" lon="3.867231">
        <ele>25.49569</ele>
        <time>2021-07-01T10:56:59Z</time>
      </trkpt>
      <trkpt lat="43.570557" lon="3.866862">
        <ele>26.16555</ele>
        <time>2021-07-01T10:57:00Z</time>
      </trkpt>
      <trkpt lat="43.570545" lon="3.866502">
        <ele>25.76596</ele>
        <time>2021-07-01T10:57:01Z</time>
      </trkpt>
      <trkpt lat="43.570541" lon="3.866139">
        <ele>25.71926</ele>
        <time>2021-07-01T10:57:02Z</time>
      </trkpt>
      <trkpt lat="43.570541" lon="3.865777">
        <ele>25.16372</ele>
        <time>2021-07-01T10:57:03Z</time>
      </trkpt>
      <trkpt lat="43.570541" lon="3.865400">
        <ele>24.53366</ele>
        <time>2021-07-01T10:57:04Z</time>
      </trkpt>
      <trkpt lat="43.570549" lon="3.865038">
        <ele>24.28897</ele>
        <time>2021-07-01T10:57:05Z</time>
      </trkpt>
      <trkpt lat="43.570557" lon="3.864701">
        <ele>24.04953</ele>
        <time>2021-07-01T10:57:06Z</time>
      </trkpt>
      <trkpt lat="43.570564" lon="3.864316">
        <ele>24.16928</ele>
        <time>2021-07-01T10:57:07Z</time>
      </trkpt>
      <trkpt lat="43.570576" lon="3.863938">
        <ele>23.63357</ele>
        <time>2021-07-01T10:57:08Z</time>
      </trkpt>
      <trkpt lat="43.570591" lon="3.863580">
        <ele>22.83645</ele>
        <time>2021-07-01T10:57:09Z</time>
      </trkpt>
      <trkpt lat="43.570606" lon="3.863231">
        <ele>22.48843</ele>
        <time>2021-07-01T10:57:10Z</time>
      </trkpt>
      <trkpt lat="43.570621" lon="3.862864">
        <ele>21.65451</ele>
        <time>2021-07-01T10:57:11Z</time>
      </trkpt>
      <trkpt lat="43.570625" lon="3.862520">
        <ele>21.42129</ele>
        <time>2021-07-01T10:57:12Z</time>
      </trkpt>
      <trkpt lat="43.570625" lon="3.862165">
        <ele>20.81381</ele>
        <time>2021-07-01T10:57:13Z</time>
      </trkpt>
      <trkpt lat="43.570621" lon="3.861787">
        <ele>20.52853</ele>
        <time>2021-07-01T10:57:14Z</time>
      </trkpt>
      <trkpt lat="43.570621" lon="3.861448">
        <ele>20.70657</ele>
        <time>2021-07-01T10:57:15Z</time>
      </trkpt>
      <trkpt lat="43.570621" lon="3.861084">
        <ele>20.67721</ele>
        <time>2021-07-01T10:57:16Z</time>
      </trkpt>
      <trkpt lat="43.570610" lon="3.860735">
        <ele>21.02554</ele>
        <time>2021-07-01T10:57:17Z</time>
      </trkpt>
      <trkpt lat="43.570595" lon="3.860369">
        <ele>20.53750</ele>
        <time>2021-07-01T10:57:18Z</time>
      </trkpt>
      <trkpt lat="43.570580" lon="3.859971">
        <ele>20.43899</ele>
        <time>2021-07-01T10:57:19Z</time>
      </trkpt>
      <trkpt lat="43.570557" lon="3.859589">
        <ele>20.29727</ele>
        <time>2021-07-01T10:57:20Z</time>
      </trkpt>
      <trkpt lat="43.570538" lon="3.859235">
        <ele>20.24472</ele>
        <time>2021-07-01T10:57:21Z</time>
      </trkpt>
      <trkpt lat="43.570515" lon="3.858850">
        <ele>19.82571</ele>
        <time>2021-07-01T10:57:22Z</time>
      </trkpt>
      <trkpt lat="43.570484" lon="3.858516">
        <ele>19.24124</ele>
        <time>2021-07-01T10:57:23Z</time>
      </trkpt>
      <trkpt lat="43.570450" lon="3.858151">
        <ele>18.66183</ele>
        <time>2021-07-01T10:57:24Z</time>
      </trkpt>
      <trkpt lat="43.570412" lon="3.857788">
        <ele>18.90951</ele>
        <time>2021-07-01T10:57:25Z</time>
      </trkpt>
      <trkpt lat="43.570370" lon="3.857402">
        <ele>19.25888</ele>
        <time>2021-07-01T10:57:26Z</time>
      </trkpt>
      <trkpt lat="43.570370" lon="3.857402">
        <ele>19.35495</ele>
        <time>2021-07-01T10:57:27Z</time>
      </trkpt>
      <trkpt lat="43.570320" lon="3.857032">
        <ele>19.52023</ele>
        <time>2021-07-01T10:57:28Z</time>
      </trkpt>
      <trkpt lat="43.570267" lon="3.856679">
        <ele>20.19326</ele>
        <time>2021-07-01T10:57:29Z</time>
      </trkpt>
      <trkpt lat="43.570213" lon="3.856341">
        <ele>18.25448</ele>
        <time>2021-07-01T10:57:30Z</time>
      </trkpt>
      <trkpt lat="43.570156" lon="3.855997">
        <ele>17.99777</ele>
        <time>2021-07-01T10:57:31Z</time>
      </trkpt>
      <trkpt lat="43.570103" lon="3.855643">
        <ele>16.71603</ele>
        <time>2021-07-01T10:57:32Z</time>
      </trkpt>
      <trkpt lat="43.570045" lon="3.855292">
        <ele>16.35861</ele>
        <time>2021-07-01T10:57:33Z</time>
      </trkpt>
      <trkpt lat="43.569984" lon="3.854932">
        <ele>16.31582</ele>
        <time>2021-07-01T10:57:34Z</time>
      </trkpt>
      <trkpt lat="43.569908" lon="3.854583">
        <ele>14.42483</ele>
        <time>2021-07-01T10:57:35Z</time>
      </trkpt>
      <trkpt lat="43.569832" lon="3.854218">
        <ele>14.61282</ele>
        <time>2021-07-01T10:57:36Z</time>
      </trkpt>
      <trkpt lat="43.569752" lon="3.853853">
        <ele>14.68148</ele>
        <time>2021-07-01T10:57:37Z</time>
      </trkpt>
      <trkpt lat="43.569679" lon="3.853508">
        <ele>14.82986</ele>
        <time>2021-07-01T10:57:38Z</time>
      </trkpt>
      <trkpt lat="43.569607" lon="3.853156">
        <ele>15.33151</ele>
        <time>2021-07-01T10:57:39Z</time>
      </trkpt>
      <trkpt lat="43.569530" lon="3.852811">
        <ele>15.92080</ele>
        <time>2021-07-01T10:57:40Z</time>
      </trkpt>
      <trkpt lat="43.569450" lon="3.852447">
        <ele>16.62838</ele>
        <time>2021-07-01T10:57:41Z</time>
      </trkpt>
      <trkpt lat="43.569374" lon="3.852119">
        <ele>17.48642</ele>
        <time>2021-07-01T10:57:42Z</time>
      </trkpt>
      <trkpt lat="43.569294" lon="3.851780">
        <ele>18.03738</ele>
        <time>2021-07-01T10:57:43Z</time>
      </trkpt>
      <trkpt lat="43.569210" lon="3.851419">
        <ele>17.51583</ele>
        <time>2021-07-01T10:57:44Z</time>
      </trkpt>
      <trkpt lat="43.569130" lon="3.851074">
        <ele>17.45797</ele>
        <time>2021-07-01T10:57:45Z</time>
      </trkpt>
      <trkpt lat="43.569050" lon="3.850708">
        <ele>17.91446</ele>
        <time>2021-07-01T10:57:46Z</time>
      </trkpt>
      <trkpt lat="43.568974" lon="3.850370">
        <ele>18.75332</ele>
        <time>2021-07-01T10:57:47Z</time>
      </trkpt>
      <trkpt lat="43.568897" lon="3.850001">
        <ele>19.05880</ele>
        <time>2021-07-01T10:57:48Z</time>
      </trkpt>
      <trkpt lat="43.568825" lon="3.849650">
        <ele>19.10189</ele>
        <time>2021-07-01T10:57:49Z</time>
      </trkpt>
      <trkpt lat="43.568752" lon="3.849335">
        <ele>18.60446</ele>
        <time>2021-07-01T10:57:50Z</time>
      </trkpt>
      <trkpt lat="43.568729" lon="3.849229">
        <ele>17.76254</ele>
        <time>2021-07-01T10:57:51Z</time>
      </trkpt>
      <trkpt lat="43.568562" lon="3.848475">
        <ele>17.89938</ele>
        <time>2021-07-01T10:57:52Z</time>
      </trkpt>
      <trkpt lat="43.568562" lon="3.848475">
        <ele>16.33432</ele>
        <time>2021-07-01T10:57:53Z</time>
      </trkpt>
      <trkpt lat="43.568428" lon="3.847877">
        <ele>16.96481</ele>
        <time>2021-07-01T10:57:54Z</time>
      </trkpt>
      <trkpt lat="43.568428" lon="3.847877">
        <ele>17.72622</ele>
        <time>2021-07-01T10:57:55Z</time>
      </trkpt>
      <trkpt lat="43.568352" lon="3.847533">
        <ele>18.39663</ele>
        <time>2021-07-01T10:57:56Z</time>
      </trkpt>
      <trkpt lat="43.568275" lon="3.847188">
        <ele>19.93026</ele>
        <time>2021-07-01T10:57:57Z</time>
      </trkpt>
      <trkpt lat="43.568199" lon="3.846829">
        <ele>19.82394</ele>
        <time>2021-07-01T10:57:58Z</time>
      </trkpt>
      <trkpt lat="43.568123" lon="3.846485">
        <ele>19.99423</ele>
        <time>2021-07-01T10:57:59Z</time>
      </trkpt>
      <trkpt lat="43.568047" lon="3.846147">
        <ele>21.34689</ele>
        <time>2021-07-01T10:58:00Z</time>
      </trkpt>
      <trkpt lat="43.567970" lon="3.845792">
        <ele>21.70333</ele>
        <time>2021-07-01T10:58:01Z</time>
      </trkpt>
      <trkpt lat="43.567890" lon="3.845435">
        <ele>23.00631</ele>
        <time>2021-07-01T10:58:02Z</time>
      </trkpt>
      <trkpt lat="43.567814" lon="3.845083">
        <ele>23.13998</ele>
        <time>2021-07-01T10:58:03Z</time>
      </trkpt>
      <trkpt lat="43.567738" lon="3.844728">
        <ele>23.30301</ele>
        <time>2021-07-01T10:58:04Z</time>
      </trkpt>
      <trkpt lat="43.567661" lon="3.844386">
        <ele>23.45932</ele>
        <time>2021-07-01T10:58:05Z</time>
      </trkpt>
      <trkpt lat="43.567581" lon="3.844040">
        <ele>23.44247</ele>
        <time>2021-07-01T10:58:06Z</time>
      </trkpt>
      <trkpt lat="43.567505" lon="3.843691">
        <ele>23.83670</ele>
        <time>2021-07-01T10:58:07Z</time>
      </trkpt>
      <trkpt lat="43.567425" lon="3.843350">
        <ele>23.23788</ele>
        <time>2021-07-01T10:58:08Z</time>
      </trkpt>
      <trkpt lat="43.567337" lon="3.843015">
        <ele>23.90298</ele>
        <time>2021-07-01T10:58:09Z</time>
      </trkpt>
      <trkpt lat="43.567245" lon="3.842661">
        <ele>24.89016</ele>
        <time>2021-07-01T10:58:10Z</time>
      </trkpt>
      <trkpt lat="43.567162" lon="3.842331">
        <ele>25.49392</ele>
        <time>2021-07-01T10:58:11Z</time>
      </trkpt>
      <trkpt lat="43.567070" lon="3.841976">
        <ele>25.83639</ele>
        <time>2021-07-01T10:58:12Z</time>
      </trkpt>
      <trkpt lat="43.566971" lon="3.841638">
        <ele>26.75546</ele>
        <time>2021-07-01T10:58:13Z</time>
      </trkpt>
      <trkpt lat="43.566875" lon="3.841296">
        <ele>27.34573</ele>
        <time>2021-07-01T10:58:14Z</time>
      </trkpt>
      <trkpt lat="43.566772" lon="3.840934">
        <ele>28.04660</ele>
        <time>2021-07-01T10:58:15Z</time>
      </trkpt>
      <trkpt lat="43.566673" lon="3.840593">
        <ele>28.48019</ele>
        <time>2021-07-01T10:58:16Z</time>
      </trkpt>
      <trkpt lat="43.566582" lon="3.840271">
        <ele>29.06393</ele>
        <time>2021-07-01T10:58:17Z</time>
      </trkpt>
      <trkpt lat="43.566483" lon="3.839927">
        <ele>29.34066</ele>
        <time>2021-07-01T10:58:18Z</time>
      </trkpt>
      <trkpt lat="43.566383" lon="3.839589">
        <ele>28.97708</ele>
        <time>2021-07-01T10:58:19Z</time>
      </trkpt>
      <trkpt lat="43.566273" lon="3.839232">
        <ele>28.98538</ele>
        <time>2021-07-01T10:58:20Z</time>
      </trkpt>
      <trkpt lat="43.566154" lon="3.838865">
        <ele>28.77938</ele>
        <time>2021-07-01T10:58:21Z</time>
      </trkpt>
      <trkpt lat="43.566029" lon="3.838473">
        <ele>29.25100</ele>
        <time>2021-07-01T10:58:22Z</time>
      </trkpt>
      <trkpt lat="43.565895" lon="3.838088">
        <ele>29.25540</ele>
        <time>2021-07-01T10:58:23Z</time>
      </trkpt>
      <trkpt lat="43.565765" lon="3.837715">
        <ele>30.10189</ele>
        <time>2021-07-01T10:58:24Z</time>
      </trkpt>
      <trkpt lat="43.565617" lon="3.837289">
        <ele>31.29684</ele>
        <time>2021-07-01T10:58:25Z</time>
      </trkpt>
      <trkpt lat="43.565475" lon="3.836883">
        <ele>32.78396</ele>
        <time>2021-07-01T10:58:26Z</time>
      </trkpt>
      <trkpt lat="43.565323" lon="3.836454">
        <ele>32.39877</ele>
        <time>2021-07-01T10:58:27Z</time>
      </trkpt>
      <trkpt lat="43.565323" lon="3.836454">
        <ele>32.72610</ele>
        <time>2021-07-01T10:58:28Z</time>
      </trkpt>
      <trkpt lat="43.565166" lon="3.836030">
        <ele>32.54867</ele>
        <time>2021-07-01T10:58:29Z</time>
      </trkpt>
      <trkpt lat="43.564999" lon="3.835599">
        <ele>33.06472</ele>
        <time>2021-07-01T10:58:30Z</time>
      </trkpt>
      <trkpt lat="43.564831" lon="3.835181">
        <ele>33.18118</ele>
        <time>2021-07-01T10:58:31Z</time>
      </trkpt>
      <trkpt lat="43.564651" lon="3.834767">
        <ele>31.76199</ele>
        <time>2021-07-01T10:58:32Z</time>
      </trkpt>
      <trkpt lat="43.564449" lon="3.834359">
        <ele>32.03207</ele>
        <time>2021-07-01T10:58:33Z</time>
      </trkpt>
      <trkpt lat="43.564236" lon="3.833933">
        <ele>31.33725</ele>
        <time>2021-07-01T10:58:34Z</time>
      </trkpt>
      <trkpt lat="43.564034" lon="3.833541">
        <ele>31.84158</ele>
        <time>2021-07-01T10:58:35Z</time>
      </trkpt>
      <trkpt lat="43.563824" lon="3.833145">
        <ele>31.71347</ele>
        <time>2021-07-01T10:58:36Z</time>
      </trkpt>
      <trkpt lat="43.563614" lon="3.832767">
        <ele>32.78531</ele>
        <time>2021-07-01T10:58:37Z</time>
      </trkpt>
      <trkpt lat="43.563404" lon="3.832389">
        <ele>32.77920</ele>
        <time>2021-07-01T10:58:38Z</time>
      </trkpt>
      <trkpt lat="43.563187" lon="3.832034">
        <ele>32.67709</ele>
        <time>2021-07-01T10:58:39Z</time>
      </trkpt>
      <trkpt lat="43.562946" lon="3.831671">
        <ele>32.72104</ele>
        <time>2021-07-01T10:58:40Z</time>
      </trkpt>
      <trkpt lat="43.562710" lon="3.831305">
        <ele>33.32223</ele>
        <time>2021-07-01T10:58:41Z</time>
      </trkpt>
      <trkpt lat="43.562450" lon="3.830911">
        <ele>33.42300</ele>
        <time>2021-07-01T10:58:42Z</time>
      </trkpt>
      <trkpt lat="43.562214" lon="3.830572">
        <ele>32.70199</ele>
        <time>2021-07-01T10:58:43Z</time>
      </trkpt>
      <trkpt lat="43.561962" lon="3.830219">
        <ele>33.14895</ele>
        <time>2021-07-01T10:58:44Z</time>
      </trkpt>
      <trkpt lat="43.561935" lon="3.830176">
        <ele>33.46994</ele>
        <time>2021-07-01T10:58:45Z</time>
      </trkpt>
      <trkpt lat="43.561436" lon="3.829464">
        <ele>32.20926</ele>
        <time>2021-07-01T10:58:46Z</time>
      </trkpt>
      <trkpt lat="43.561230" lon="3.829137">
        <ele>31.62454</ele>
        <time>2021-07-01T10:58:47Z</time>
      </trkpt>
      <trkpt lat="43.561024" lon="3.828811">
        <ele>30.79660</ele>
        <time>2021-07-01T10:58:48Z</time>
      </trkpt>
      <trkpt lat="43.560814" lon="3.828468">
        <ele>30.46756</ele>
        <time>2021-07-01T10:58:49Z</time>
      </trkpt>
      <trkpt lat="43.560574" lon="3.828098">
        <ele>29.81527</ele>
        <time>2021-07-01T10:58:50Z</time>
      </trkpt>
      <trkpt lat="43.560329" lon="3.827727">
        <ele>29.71719</ele>
        <time>2021-07-01T10:58:51Z</time>
      </trkpt>
      <trkpt lat="43.560085" lon="3.827397">
        <ele>28.35318</ele>
        <time>2021-07-01T10:58:52Z</time>
      </trkpt>
      <trkpt lat="43.559849" lon="3.827099">
        <ele>27.85299</ele>
        <time>2021-07-01T10:58:53Z</time>
      </trkpt>
      <trkpt lat="43.559593" lon="3.826806">
        <ele>28.25021</ele>
        <time>2021-07-01T10:58:54Z</time>
      </trkpt>
      <trkpt lat="43.559338" lon="3.826507">
        <ele>27.10128</ele>
        <time>2021-07-01T10:58:55Z</time>
      </trkpt>
      <trkpt lat="43.559074" lon="3.826206">
        <ele>26.52261</ele>
        <time>2021-07-01T10:58:56Z</time>
      </trkpt>
      <trkpt lat="43.558819" lon="3.825930">
        <ele>26.30471</ele>
        <time>2021-07-01T10:58:57Z</time>
      </trkpt>
      <trkpt lat="43.558819" lon="3.825930">
        <ele>25.62484</ele>
        <time>2021-07-01T10:58:58Z</time>
      </trkpt>
      <trkpt lat="43.558559" lon="3.825663">
        <ele>24.23965</ele>
        <time>2021-07-01T10:58:59Z</time>
      </trkpt>
      <trkpt lat="43.558296" lon="3.825398">
        <ele>23.75064</ele>
        <time>2021-07-01T10:59:00Z</time>
      </trkpt>
      <trkpt lat="43.558048" lon="3.825171">
        <ele>23.52389</ele>
        <time>2021-07-01T10:59:01Z</time>
      </trkpt>
      <trkpt lat="43.557751" lon="3.824893">
        <ele>23.40048</ele>
        <time>2021-07-01T10:59:02Z</time>
      </trkpt>
      <trkpt lat="43.557461" lon="3.824623">
        <ele>22.64346</ele>
        <time>2021-07-01T10:59:03Z</time>
      </trkpt>
      <trkpt lat="43.557178" lon="3.824359">
        <ele>21.64340</ele>
        <time>2021-07-01T10:59:04Z</time>
      </trkpt>
      <trkpt lat="43.556896" lon="3.824096">
        <ele>20.83773</ele>
        <time>2021-07-01T10:59:05Z</time>
      </trkpt>
      <trkpt lat="43.556618" lon="3.823813">
        <ele>20.23092</ele>
        <time>2021-07-01T10:59:06Z</time>
      </trkpt>
      <trkpt lat="43.556343" lon="3.823531">
        <ele>20.14071</ele>
        <time>2021-07-01T10:59:07Z</time>
      </trkpt>
      <trkpt lat="43.556072" lon="3.823247">
        <ele>18.63961</ele>
        <time>2021-07-01T10:59:08Z</time>
      </trkpt>
      <trkpt lat="43.555813" lon="3.822959">
        <ele>18.13394</ele>
        <time>2021-07-01T10:59:09Z</time>
      </trkpt>
      <trkpt lat="43.555561" lon="3.822660">
        <ele>17.82089</ele>
        <time>2021-07-01T10:59:10Z</time>
      </trkpt>
      <trkpt lat="43.555325" lon="3.822379">
        <ele>17.07351</ele>
        <time>2021-07-01T10:59:11Z</time>
      </trkpt>
      <trkpt lat="43.555069" lon="3.822039">
        <ele>16.01980</ele>
        <time>2021-07-01T10:59:12Z</time>
      </trkpt>
      <trkpt lat="43.554832" lon="3.821727">
        <ele>16.08145</ele>
        <time>2021-07-01T10:59:13Z</time>
      </trkpt>
      <trkpt lat="43.554562" lon="3.821354">
        <ele>15.15902</ele>
        <time>2021-07-01T10:59:14Z</time>
      </trkpt>
      <trkpt lat="43.554344" lon="3.821022">
        <ele>15.60788</ele>
        <time>2021-07-01T10:59:15Z</time>
      </trkpt>
      <trkpt lat="43.554108" lon="3.820652">
        <ele>15.81881</ele>
        <time>2021-07-01T10:59:16Z</time>
      </trkpt>
      <trkpt lat="43.554108" lon="3.820652">
        <ele>15.38522</ele>
        <time>2021-07-01T10:59:17Z</time>
      </trkpt>
      <trkpt lat="43.553726" lon="3.820023">
        <ele>15.65811</ele>
        <time>2021-07-01T10:59:18Z</time>
      </trkpt>
      <trkpt lat="43.553726" lon="3.820023">
        <ele>15.49289</ele>
        <time>2021-07-01T10:59:19Z</time>
      </trkpt>
      <trkpt lat="43.553509" lon="3.819618">
        <ele>15.66830</ele>
        <time>2021-07-01T10:59:20Z</time>
      </trkpt>
      <trkpt lat="43.553291" lon="3.819200">
        <ele>16.09335</ele>
        <time>2021-07-01T10:59:21Z</time>
      </trkpt>
      <trkpt lat="43.553070" lon="3.818751">
        <ele>16.31979</ele>
        <time>2021-07-01T10:59:22Z</time>
      </trkpt>
      <trkpt lat="43.552864" lon="3.818325">
        <ele>16.95449</ele>
        <time>2021-07-01T10:59:23Z</time>
      </trkpt>
      <trkpt lat="43.552658" lon="3.817823">
        <ele>16.87216</ele>
        <time>2021-07-01T10:59:24Z</time>
      </trkpt>
      <trkpt lat="43.552448" lon="3.817289">
        <ele>17.18289</ele>
        <time>2021-07-01T10:59:25Z</time>
      </trkpt>
      <trkpt lat="43.552277" lon="3.816843">
        <ele>18.57467</ele>
        <time>2021-07-01T10:59:26Z</time>
      </trkpt>
      <trkpt lat="43.552120" lon="3.816390">
        <ele>19.28921</ele>
        <time>2021-07-01T10:59:27Z</time>
      </trkpt>
      <trkpt lat="43.551971" lon="3.815947">
        <ele>19.61422</ele>
        <time>2021-07-01T10:59:28Z</time>
      </trkpt>
      <trkpt lat="43.551846" lon="3.815506">
        <ele>20.71041</ele>
        <time>2021-07-01T10:59:29Z</time>
      </trkpt>
      <trkpt lat="43.551720" lon="3.815064">
        <ele>21.89468</ele>
        <time>2021-07-01T10:59:30Z</time>
      </trkpt>
      <trkpt lat="43.551601" lon="3.814611">
        <ele>22.89022</ele>
        <time>2021-07-01T10:59:31Z</time>
      </trkpt>
      <trkpt lat="43.551487" lon="3.814120">
        <ele>23.81314</ele>
        <time>2021-07-01T10:59:32Z</time>
      </trkpt>
      <trkpt lat="43.551388" lon="3.813679">
        <ele>24.95370</ele>
        <time>2021-07-01T10:59:33Z</time>
      </trkpt>
      <trkpt lat="43.551304" lon="3.813204">
        <ele>25.84579</ele>
        <time>2021-07-01T10:59:34Z</time>
      </trkpt>
      <trkpt lat="43.551224" lon="3.812754">
        <ele>26.83383</ele>
        <time>2021-07-01T10:59:35Z</time>
      </trkpt>
      <trkpt lat="43.551147" lon="3.812283">
        <ele>27.63968</ele>
        <time>2021-07-01T10:59:36Z</time>
      </trkpt>
      <trkpt lat="43.551083" lon="3.811822">
        <ele>28.76638</ele>
        <time>2021-07-01T10:59:37Z</time>
      </trkpt>
      <trkpt lat="43.551029" lon="3.811371">
        <ele>29.85757</ele>
        <time>2021-07-01T10:59:38Z</time>
      </trkpt>
      <trkpt lat="43.550991" lon="3.810891">
        <ele>30.53372</ele>
        <time>2021-07-01T10:59:39Z</time>
      </trkpt>
      <trkpt lat="43.550953" lon="3.810417">
        <ele>31.89993</ele>
        <time>2021-07-01T10:59:40Z</time>
      </trkpt>
      <trkpt lat="43.550930" lon="3.809957">
        <ele>31.55069</ele>
        <time>2021-07-01T10:59:41Z</time>
      </trkpt>
      <trkpt lat="43.550911" lon="3.809505">
        <ele>29.66366</ele>
        <time>2021-07-01T10:59:42Z</time>
      </trkpt>
      <trkpt lat="43.550892" lon="3.809028">
        <ele>30.23678</ele>
        <time>2021-07-01T10:59:43Z</time>
      </trkpt>
      <trkpt lat="43.550873" lon="3.808555">
        <ele>29.98886</ele>
        <time>2021-07-01T10:59:44Z</time>
      </trkpt>
      <trkpt lat="43.550854" lon="3.808102">
        <ele>30.63290</ele>
        <time>2021-07-01T10:59:45Z</time>
      </trkpt>
      <trkpt lat="43.550831" lon="3.807605">
        <ele>30.45272</ele>
        <time>2021-07-01T10:59:46Z</time>
      </trkpt>
      <trkpt lat="43.550812" lon="3.807116">
        <ele>31.67727</ele>
        <time>2021-07-01T10:59:47Z</time>
      </trkpt>
      <trkpt lat="43.550781" lon="3.806633">
        <ele>32.11575</ele>
        <time>2021-07-01T10:59:48Z</time>
      </trkpt>
      <trkpt lat="43.550751" lon="3.806151">
        <ele>33.10788</ele>
        <time>2021-07-01T10:59:49Z</time>
      </trkpt>
      <trkpt lat="43.550709" lon="3.805667">
        <ele>34.34585</ele>
        <time>2021-07-01T10:59:50Z</time>
      </trkpt>
      <trkpt lat="43.550659" lon="3.805195">
        <ele>35.06918</ele>
        <time>2021-07-01T10:59:51Z</time>
      </trkpt>
      <trkpt lat="43.550598" lon="3.804758">
        <ele>35.36715</ele>
        <time>2021-07-01T10:59:52Z</time>
      </trkpt>
      <trkpt lat="43.550598" lon="3.804758">
        <ele>35.36715</ele>
        <time>2021-07-01T10:59:53Z</time>
      </trkpt>
      <trkpt lat="43.550518" lon="3.804239">
        <ele>35.96609</ele>
        <time>2021-07-01T10:59:54Z</time>
      </trkpt>
      <trkpt lat="43.550503" lon="3.804126">
        <ele>34.42978</ele>
        <time>2021-07-01T10:59:55Z</time>
      </trkpt>
      <trkpt lat="43.550419" lon="3.803667">
        <ele>34.56521</ele>
        <time>2021-07-01T10:59:56Z</time>
      </trkpt>
      <trkpt lat="43.550365" lon="3.803420">
        <ele>36.00412</ele>
        <time>2021-07-01T10:59:57Z</time>
      </trkpt>
      <trkpt lat="43.550201" lon="3.802648">
        <ele>36.64004</ele>
        <time>2021-07-01T10:59:58Z</time>
      </trkpt>
      <trkpt lat="43.550003" lon="3.801844">
        <ele>36.91000</ele>
        <time>2021-07-01T10:59:59Z</time>
      </trkpt>
      <trkpt lat="43.549885" lon="3.801446">
        <ele>37.12753</ele>
        <time>2021-07-01T11:00:00Z</time>
      </trkpt>
      <trkpt lat="43.549740" lon="3.800971">
        <ele>36.59866</ele>
        <time>2021-07-01T11:00:01Z</time>
      </trkpt>
      <trkpt lat="43.549591" lon="3.800521">
        <ele>37.28561</ele>
        <time>2021-07-01T11:00:02Z</time>
      </trkpt>
      <trkpt lat="43.549435" lon="3.800083">
        <ele>37.84817</ele>
        <time>2021-07-01T11:00:03Z</time>
      </trkpt>
      <trkpt lat="43.549274" lon="3.799666">
        <ele>37.97580</ele>
        <time>2021-07-01T11:00:04Z</time>
      </trkpt>
      <trkpt lat="43.549072" lon="3.799205">
        <ele>37.46664</ele>
        <time>2021-07-01T11:00:05Z</time>
      </trkpt>
      <trkpt lat="43.548977" lon="3.799002">
        <ele>38.04354</ele>
        <time>2021-07-01T11:00:06Z</time>
      </trkpt>
      <trkpt lat="43.548702" lon="3.798430">
        <ele>37.83688</ele>
        <time>2021-07-01T11:00:07Z</time>
      </trkpt>
      <trkpt lat="43.548599" lon="3.798210">
        <ele>37.55636</ele>
        <time>2021-07-01T11:00:08Z</time>
      </trkpt>
      <trkpt lat="43.548416" lon="3.797859">
        <ele>38.09433</ele>
        <time>2021-07-01T11:00:09Z</time>
      </trkpt>
      <trkpt lat="43.548416" lon="3.797859">
        <ele>37.91934</ele>
        <time>2021-07-01T11:00:10Z</time>
      </trkpt>
      <trkpt lat="43.548229" lon="3.797515">
        <ele>38.31869</ele>
        <time>2021-07-01T11:00:11Z</time>
      </trkpt>
      <trkpt lat="43.548115" lon="3.797307">
        <ele>39.26614</ele>
        <time>2021-07-01T11:00:12Z</time>
      </trkpt>
      <trkpt lat="43.547913" lon="3.796975">
        <ele>39.74386</ele>
        <time>2021-07-01T11:00:13Z</time>
      </trkpt>
      <trkpt lat="43.547665" lon="3.796572">
        <ele>39.34286</ele>
        <time>2021-07-01T11:00:14Z</time>
      </trkpt>
      <trkpt lat="43.547508" lon="3.796326">
        <ele>39.20810</ele>
        <time>2021-07-01T11:00:15Z</time>
      </trkpt>
      <trkpt lat="43.547318" lon="3.796033">
        <ele>38.63784</ele>
        <time>2021-07-01T11:00:16Z</time>
      </trkpt>
      <trkpt lat="43.547119" lon="3.795724">
        <ele>39.23959</ele>
        <time>2021-07-01T11:00:17Z</time>
      </trkpt>
      <trkpt lat="43.546925" lon="3.795441">
        <ele>39.86288</ele>
        <time>2021-07-01T11:00:18Z</time>
      </trkpt>
      <trkpt lat="43.546734" lon="3.795163">
        <ele>39.96371</ele>
        <time>2021-07-01T11:00:19Z</time>
      </trkpt>
      <trkpt lat="43.546532" lon="3.794869">
        <ele>40.48129</ele>
        <time>2021-07-01T11:00:20Z</time>
      </trkpt>
      <trkpt lat="43.546337" lon="3.794589">
        <ele>40.90609</ele>
        <time>2021-07-01T11:00:21Z</time>
      </trkpt>
      <trkpt lat="43.546127" lon="3.794285">
        <ele>41.51425</ele>
        <time>2021-07-01T11:00:22Z</time>
      </trkpt>
      <trkpt lat="43.545933" lon="3.793999">
        <ele>41.80026</ele>
        <time>2021-07-01T11:00:23Z</time>
      </trkpt>
      <trkpt lat="43.545738" lon="3.793716">
        <ele>41.73947</ele>
        <time>2021-07-01T11:00:24Z</time>
      </trkpt>
      <trkpt lat="43.545540" lon="3.793428">
        <ele>41.82376</ele>
        <time>2021-07-01T11:00:25Z</time>
      </trkpt>
      <trkpt lat="43.545349" lon="3.793153">
        <ele>42.33358</ele>
        <time>2021-07-01T11:00:26Z</time>
      </trkpt>
      <trkpt lat="43.545162" lon="3.792886">
        <ele>42.35202</ele>
        <time>2021-07-01T11:00:27Z</time>
      </trkpt>
      <trkpt lat="43.544971" lon="3.792611">
        <ele>42.62228</ele>
        <time>2021-07-01T11:00:28Z</time>
      </trkpt>
      <trkpt lat="43.544781" lon="3.792331">
        <ele>42.76516</ele>
        <time>2021-07-01T11:00:29Z</time>
      </trkpt>
      <trkpt lat="43.544575" lon="3.792035">
        <ele>43.25680</ele>
        <time>2021-07-01T11:00:30Z</time>
      </trkpt>
      <trkpt lat="43.544388" lon="3.791762">
        <ele>43.38919</ele>
        <time>2021-07-01T11:00:31Z</time>
      </trkpt>
      <trkpt lat="43.544189" lon="3.791474">
        <ele>42.88815</ele>
        <time>2021-07-01T11:00:32Z</time>
      </trkpt>
      <trkpt lat="43.543991" lon="3.791187">
        <ele>42.74368</ele>
        <time>2021-07-01T11:00:33Z</time>
      </trkpt>
      <trkpt lat="43.543800" lon="3.790912">
        <ele>42.37973</ele>
        <time>2021-07-01T11:00:34Z</time>
      </trkpt>
      <trkpt lat="43.543610" lon="3.790637">
        <ele>42.58822</ele>
        <time>2021-07-01T11:00:35Z</time>
      </trkpt>
      <trkpt lat="43.543388" lon="3.790326">
        <ele>42.67453</ele>
        <time>2021-07-01T11:00:36Z</time>
      </trkpt>
      <trkpt lat="43.543182" lon="3.790035">
        <ele>42.97744</ele>
        <time>2021-07-01T11:00:37Z</time>
      </trkpt>
      <trkpt lat="43.542973" lon="3.789737">
        <ele>43.10562</ele>
        <time>2021-07-01T11:00:38Z</time>
      </trkpt>
      <trkpt lat="43.542763" lon="3.789442">
        <ele>43.60623</ele>
        <time>2021-07-01T11:00:39Z</time>
      </trkpt>
      <trkpt lat="43.542549" lon="3.789141">
        <ele>43.66403</ele>
        <time>2021-07-01T11:00:40Z</time>
      </trkpt>
      <trkpt lat="43.542549" lon="3.789141">
        <ele>43.79782</ele>
        <time>2021-07-01T11:00:41Z</time>
      </trkpt>
      <trkpt lat="43.542290" lon="3.788775">
        <ele>44.07541</ele>
        <time>2021-07-01T11:00:42Z</time>
      </trkpt>
      <trkpt lat="43.542233" lon="3.788692">
        <ele>44.09677</ele>
        <time>2021-07-01T11:00:43Z</time>
      </trkpt>
      <trkpt lat="43.542038" lon="3.788413">
        <ele>44.95761</ele>
        <time>2021-07-01T11:00:44Z</time>
      </trkpt>
      <trkpt lat="43.541763" lon="3.788020">
        <ele>45.27200</ele>
        <time>2021-07-01T11:00:45Z</time>
      </trkpt>
      <trkpt lat="43.541412" lon="3.787521">
        <ele>45.57028</ele>
        <time>2021-07-01T11:00:46Z</time>
      </trkpt>
      <trkpt lat="43.541206" lon="3.787232">
        <ele>46.10409</ele>
        <time>2021-07-01T11:00:47Z</time>
      </trkpt>
      <trkpt lat="43.541004" lon="3.786952">
        <ele>46.66629</ele>
        <time>2021-07-01T11:00:48Z</time>
      </trkpt>
      <trkpt lat="43.540794" lon="3.786660">
        <ele>47.32254</ele>
        <time>2021-07-01T11:00:49Z</time>
      </trkpt>
      <trkpt lat="43.540592" lon="3.786379">
        <ele>47.33120</ele>
        <time>2021-07-01T11:00:50Z</time>
      </trkpt>
      <trkpt lat="43.540382" lon="3.786101">
        <ele>47.16153</ele>
        <time>2021-07-01T11:00:51Z</time>
      </trkpt>
      <trkpt lat="43.540180" lon="3.785837">
        <ele>47.07260</ele>
        <time>2021-07-01T11:00:52Z</time>
      </trkpt>
      <trkpt lat="43.540104" lon="3.785733">
        <ele>47.70657</ele>
        <time>2021-07-01T11:00:53Z</time>
      </trkpt>
      <trkpt lat="43.539745" lon="3.785270">
        <ele>48.19351</ele>
        <time>2021-07-01T11:00:54Z</time>
      </trkpt>
      <trkpt lat="43.539494" lon="3.784958">
        <ele>48.06790</ele>
        <time>2021-07-01T11:00:55Z</time>
      </trkpt>
      <trkpt lat="43.539486" lon="3.784948">
        <ele>46.96737</ele>
        <time>2021-07-01T11:00:56Z</time>
      </trkpt>
      <trkpt lat="43.539043" lon="3.784427">
        <ele>47.40744</ele>
        <time>2021-07-01T11:00:57Z</time>
      </trkpt>
      <trkpt lat="43.538902" lon="3.784269">
        <ele>47.85299</ele>
        <time>2021-07-01T11:00:58Z</time>
      </trkpt>
      <trkpt lat="43.538704" lon="3.784047">
        <ele>47.60196</ele>
        <time>2021-07-01T11:00:59Z</time>
      </trkpt>
      <trkpt lat="43.538528" lon="3.783860">
        <ele>47.55160</ele>
        <time>2021-07-01T11:01:00Z</time>
      </trkpt>
      <trkpt lat="43.538357" lon="3.783686">
        <ele>48.27621</ele>
        <time>2021-07-01T11:01:01Z</time>
      </trkpt>
      <trkpt lat="43.538193" lon="3.783516">
        <ele>47.88565</ele>
        <time>2021-07-01T11:01:02Z</time>
      </trkpt>
      <trkpt lat="43.538010" lon="3.783329">
        <ele>47.83609</ele>
        <time>2021-07-01T11:01:03Z</time>
      </trkpt>
      <trkpt lat="43.537811" lon="3.783129">
        <ele>47.66488</ele>
        <time>2021-07-01T11:01:04Z</time>
      </trkpt>
      <trkpt lat="43.537811" lon="3.783129">
        <ele>48.01120</ele>
        <time>2021-07-01T11:01:05Z</time>
      </trkpt>
      <trkpt lat="43.537582" lon="3.782895">
        <ele>48.38156</ele>
        <time>2021-07-01T11:01:06Z</time>
      </trkpt>
      <trkpt lat="43.537334" lon="3.782640">
        <ele>48.45150</ele>
        <time>2021-07-01T11:01:07Z</time>
      </trkpt>
      <trkpt lat="43.537067" lon="3.782370">
        <ele>48.63034</ele>
        <time>2021-07-01T11:01:08Z</time>
      </trkpt>
      <trkpt lat="43.536819" lon="3.782128">
        <ele>48.88052</ele>
        <time>2021-07-01T11:01:09Z</time>
      </trkpt>
      <trkpt lat="43.536583" lon="3.781893">
        <ele>49.48111</ele>
        <time>2021-07-01T11:01:10Z</time>
      </trkpt>
      <trkpt lat="43.536350" lon="3.781665">
        <ele>49.64614</ele>
        <time>2021-07-01T11:01:11Z</time>
      </trkpt>
      <trkpt lat="43.536110" lon="3.781417">
        <ele>49.15847</ele>
        <time>2021-07-01T11:01:12Z</time>
      </trkpt>
      <trkpt lat="43.535839" lon="3.781139">
        <ele>49.52548</ele>
        <time>2021-07-01T11:01:13Z</time>
      </trkpt>
      <trkpt lat="43.535591" lon="3.780885">
        <ele>50.41916</ele>
        <time>2021-07-01T11:01:14Z</time>
      </trkpt>
      <trkpt lat="43.535332" lon="3.780617">
        <ele>50.77206</ele>
        <time>2021-07-01T11:01:15Z</time>
      </trkpt>
      <trkpt lat="43.535065" lon="3.780343">
        <ele>50.50406</ele>
        <time>2021-07-01T11:01:16Z</time>
      </trkpt>
      <trkpt lat="43.534805" lon="3.780060">
        <ele>50.48965</ele>
        <time>2021-07-01T11:01:17Z</time>
      </trkpt>
      <trkpt lat="43.534550" lon="3.779772">
        <ele>50.73928</ele>
        <time>2021-07-01T11:01:18Z</time>
      </trkpt>
      <trkpt lat="43.534302" lon="3.779468">
        <ele>51.07022</ele>
        <time>2021-07-01T11:01:19Z</time>
      </trkpt>
      <trkpt lat="43.534050" lon="3.779160">
        <ele>51.21499</ele>
        <time>2021-07-01T11:01:20Z</time>
      </trkpt>
      <trkpt lat="43.533806" lon="3.778854">
        <ele>51.43209</ele>
        <time>2021-07-01T11:01:21Z</time>
      </trkpt>
      <trkpt lat="43.533569" lon="3.778543">
        <ele>51.09872</ele>
        <time>2021-07-01T11:01:22Z</time>
      </trkpt>
      <trkpt lat="43.533344" lon="3.778231">
        <ele>51.04916</ele>
        <time>2021-07-01T11:01:23Z</time>
      </trkpt>
      <trkpt lat="43.533112" lon="3.777906">
        <ele>51.66208</ele>
        <time>2021-07-01T11:01:24Z</time>
      </trkpt>
      <trkpt lat="43.532867" lon="3.777552">
        <ele>51.61441</ele>
        <time>2021-07-01T11:01:25Z</time>
      </trkpt>
      <trkpt lat="43.532627" lon="3.777199">
        <ele>51.91610</ele>
        <time>2021-07-01T11:01:26Z</time>
      </trkpt>
      <trkpt lat="43.532406" lon="3.776858">
        <ele>52.59994</ele>
        <time>2021-07-01T11:01:27Z</time>
      </trkpt>
      <trkpt lat="43.532181" lon="3.776496">
        <ele>52.94418</ele>
        <time>2021-07-01T11:01:28Z</time>
      </trkpt>
      <trkpt lat="43.531971" lon="3.776164">
        <ele>53.40469</ele>
        <time>2021-07-01T11:01:29Z</time>
      </trkpt>
      <trkpt lat="43.531742" lon="3.775797">
        <ele>53.70163</ele>
        <time>2021-07-01T11:01:30Z</time>
      </trkpt>
      <trkpt lat="43.531528" lon="3.775454">
        <ele>53.74942</ele>
        <time>2021-07-01T11:01:31Z</time>
      </trkpt>
      <trkpt lat="43.531296" lon="3.775076">
        <ele>53.72244</ele>
        <time>2021-07-01T11:01:32Z</time>
      </trkpt>
      <trkpt lat="43.531075" lon="3.774718">
        <ele>54.38986</ele>
        <time>2021-07-01T11:01:33Z</time>
      </trkpt>
      <trkpt lat="43.530857" lon="3.774367">
        <ele>54.46542</ele>
        <time>2021-07-01T11:01:34Z</time>
      </trkpt>
      <trkpt lat="43.530640" lon="3.774013">
        <ele>54.39413</ele>
        <time>2021-07-01T11:01:35Z</time>
      </trkpt>
      <trkpt lat="43.530415" lon="3.773648">
        <ele>54.54403</ele>
        <time>2021-07-01T11:01:36Z</time>
      </trkpt>
      <trkpt lat="43.530178" lon="3.773268">
        <ele>54.94003</ele>
        <time>2021-07-01T11:01:37Z</time>
      </trkpt>
      <trkpt lat="43.530178" lon="3.773268">
        <ele>55.10006</ele>
        <time>2021-07-01T11:01:38Z</time>
      </trkpt>
      <trkpt lat="43.529945" lon="3.772890">
        <ele>55.34701</ele>
        <time>2021-07-01T11:01:39Z</time>
      </trkpt>
      <trkpt lat="43.529713" lon="3.772511">
        <ele>55.41854</ele>
        <time>2021-07-01T11:01:40Z</time>
      </trkpt>
      <trkpt lat="43.529476" lon="3.772133">
        <ele>55.59774</ele>
        <time>2021-07-01T11:01:41Z</time>
      </trkpt>
      <trkpt lat="43.529255" lon="3.771765">
        <ele>55.63852</ele>
        <time>2021-07-01T11:01:42Z</time>
      </trkpt>
      <trkpt lat="43.529007" lon="3.771350">
        <ele>55.61447</ele>
        <time>2021-07-01T11:01:43Z</time>
      </trkpt>
      <trkpt lat="43.528770" lon="3.770959">
        <ele>55.47525</ele>
        <time>2021-07-01T11:01:44Z</time>
      </trkpt>
      <trkpt lat="43.528538" lon="3.770567">
        <ele>55.45669</ele>
        <time>2021-07-01T11:01:45Z</time>
      </trkpt>
      <trkpt lat="43.528316" lon="3.770198">
        <ele>55.39804</ele>
        <time>2021-07-01T11:01:46Z</time>
      </trkpt>
      <trkpt lat="43.528099" lon="3.769838">
        <ele>55.82809</ele>
        <time>2021-07-01T11:01:47Z</time>
      </trkpt>
      <trkpt lat="43.527859" lon="3.769432">
        <ele>55.61685</ele>
        <time>2021-07-01T11:01:48Z</time>
      </trkpt>
      <trkpt lat="43.527626" lon="3.769021">
        <ele>55.50766</ele>
        <time>2021-07-01T11:01:49Z</time>
      </trkpt>
      <trkpt lat="43.527393" lon="3.768615">
        <ele>55.60946</ele>
        <time>2021-07-01T11:01:50Z</time>
      </trkpt>
      <trkpt lat="43.527180" lon="3.768240">
        <ele>55.16293</ele>
        <time>2021-07-01T11:01:51Z</time>
      </trkpt>
      <trkpt lat="43.526958" lon="3.767854">
        <ele>54.86886</ele>
        <time>2021-07-01T11:01:52Z</time>
      </trkpt>
      <trkpt lat="43.526737" lon="3.767463">
        <ele>55.24759</ele>
        <time>2021-07-01T11:01:53Z</time>
      </trkpt>
      <trkpt lat="43.526512" lon="3.767068">
        <ele>55.03268</ele>
        <time>2021-07-01T11:01:54Z</time>
      </trkpt>
      <trkpt lat="43.526310" lon="3.766694">
        <ele>55.26498</ele>
        <time>2021-07-01T11:01:55Z</time>
      </trkpt>
      <trkpt lat="43.526093" lon="3.766297">
        <ele>55.17257</ele>
        <time>2021-07-01T11:01:56Z</time>
      </trkpt>
      <trkpt lat="43.525890" lon="3.765925">
        <ele>54.76614</ele>
        <time>2021-07-01T11:01:57Z</time>
      </trkpt>
      <trkpt lat="43.525665" lon="3.765509">
        <ele>55.12405</ele>
        <time>2021-07-01T11:01:58Z</time>
      </trkpt>
      <trkpt lat="43.525471" lon="3.765142">
        <ele>56.08999</ele>
        <time>2021-07-01T11:01:59Z</time>
      </trkpt>
      <trkpt lat="43.525249" lon="3.764722">
        <ele>56.98135</ele>
        <time>2021-07-01T11:02:00Z</time>
      </trkpt>
      <trkpt lat="43.525024" lon="3.764297">
        <ele>57.62735</ele>
        <time>2021-07-01T11:02:01Z</time>
      </trkpt>
      <trkpt lat="43.524822" lon="3.763912">
        <ele>58.48001</ele>
        <time>2021-07-01T11:02:02Z</time>
      </trkpt>
      <trkpt lat="43.524601" lon="3.763489">
        <ele>57.39535</ele>
        <time>2021-07-01T11:02:03Z</time>
      </trkpt>
      <trkpt lat="43.524399" lon="3.763103">
        <ele>56.86361</ele>
        <time>2021-07-01T11:02:04Z</time>
      </trkpt>
      <trkpt lat="43.524193" lon="3.762696">
        <ele>56.22714</ele>
        <time>2021-07-01T11:02:05Z</time>
      </trkpt>
      <trkpt lat="43.523994" lon="3.762299">
        <ele>55.65499</ele>
        <time>2021-07-01T11:02:06Z</time>
      </trkpt>
      <trkpt lat="43.523792" lon="3.761901">
        <ele>55.69973</ele>
        <time>2021-07-01T11:02:07Z</time>
      </trkpt>
      <trkpt lat="43.523586" lon="3.761478">
        <ele>55.66281</ele>
        <time>2021-07-01T11:02:08Z</time>
      </trkpt>
      <trkpt lat="43.523586" lon="3.761478">
        <ele>56.26779</ele>
        <time>2021-07-01T11:02:09Z</time>
      </trkpt>
      <trkpt lat="43.523380" lon="3.761057">
        <ele>57.28683</ele>
        <time>2021-07-01T11:02:10Z</time>
      </trkpt>
      <trkpt lat="43.523190" lon="3.760660">
        <ele>57.67904</ele>
        <time>2021-07-01T11:02:11Z</time>
      </trkpt>
      <trkpt lat="43.523052" lon="3.760383">
        <ele>58.28341</ele>
        <time>2021-07-01T11:02:12Z</time>
      </trkpt>
      <trkpt lat="43.522877" lon="3.760022">
        <ele>57.79190</ele>
        <time>2021-07-01T11:02:13Z</time>
      </trkpt>
      <trkpt lat="43.522564" lon="3.759381">
        <ele>57.74716</ele>
        <time>2021-07-01T11:02:14Z</time>
      </trkpt>
      <trkpt lat="43.522373" lon="3.758987">
        <ele>57.95755</ele>
        <time>2021-07-01T11:02:15Z</time>
      </trkpt>
      <trkpt lat="43.522179" lon="3.758584">
        <ele>58.31826</ele>
        <time>2021-07-01T11:02:16Z</time>
      </trkpt>
      <trkpt lat="43.521976" lon="3.758168">
        <ele>58.87667</ele>
        <time>2021-07-01T11:02:17Z</time>
      </trkpt>
      <trkpt lat="43.521770" lon="3.757751">
        <ele>59.19784</ele>
        <time>2021-07-01T11:02:18Z</time>
      </trkpt>
      <trkpt lat="43.521564" lon="3.757326">
        <ele>59.54666</ele>
        <time>2021-07-01T11:02:19Z</time>
      </trkpt>
      <trkpt lat="43.521366" lon="3.756917">
        <ele>59.39724</ele>
        <time>2021-07-01T11:02:20Z</time>
      </trkpt>
      <trkpt lat="43.521164" lon="3.756506">
        <ele>59.55862</ele>
        <time>2021-07-01T11:02:21Z</time>
      </trkpt>
      <trkpt lat="43.520958" lon="3.756081">
        <ele>60.14987</ele>
        <time>2021-07-01T11:02:22Z</time>
      </trkpt>
      <trkpt lat="43.520763" lon="3.755682">
        <ele>60.57418</ele>
        <time>2021-07-01T11:02:23Z</time>
      </trkpt>
      <trkpt lat="43.520565" lon="3.755273">
        <ele>61.48452</ele>
        <time>2021-07-01T11:02:24Z</time>
      </trkpt>
      <trkpt lat="43.520355" lon="3.754850">
        <ele>61.56558</ele>
        <time>2021-07-01T11:02:25Z</time>
      </trkpt>
      <trkpt lat="43.520145" lon="3.754455">
        <ele>62.43771</ele>
        <time>2021-07-01T11:02:26Z</time>
      </trkpt>
      <trkpt lat="43.519947" lon="3.754074">
        <ele>62.87381</ele>
        <time>2021-07-01T11:02:27Z</time>
      </trkpt>
      <trkpt lat="43.519726" lon="3.753674">
        <ele>63.30526</ele>
        <time>2021-07-01T11:02:28Z</time>
      </trkpt>
      <trkpt lat="43.519489" lon="3.753264">
        <ele>63.72812</ele>
        <time>2021-07-01T11:02:29Z</time>
      </trkpt>
      <trkpt lat="43.519268" lon="3.752875">
        <ele>63.76468</ele>
        <time>2021-07-01T11:02:30Z</time>
      </trkpt>
      <trkpt lat="43.519039" lon="3.752511">
        <ele>64.37949</ele>
        <time>2021-07-01T11:02:31Z</time>
      </trkpt>
      <trkpt lat="43.518791" lon="3.752123">
        <ele>64.86649</ele>
        <time>2021-07-01T11:02:32Z</time>
      </trkpt>
      <trkpt lat="43.518559" lon="3.751774">
        <ele>65.67697</ele>
        <time>2021-07-01T11:02:33Z</time>
      </trkpt>
      <trkpt lat="43.518314" lon="3.751431">
        <ele>66.49765</ele>
        <time>2021-07-01T11:02:34Z</time>
      </trkpt>
      <trkpt lat="43.518040" lon="3.751090">
        <ele>66.78244</ele>
        <time>2021-07-01T11:02:35Z</time>
      </trkpt>
      <trkpt lat="43.517796" lon="3.750764">
        <ele>67.44821</ele>
        <time>2021-07-01T11:02:36Z</time>
      </trkpt>
      <trkpt lat="43.517532" lon="3.750442">
        <ele>68.01474</ele>
        <time>2021-07-01T11:02:37Z</time>
      </trkpt>
      <trkpt lat="43.517269" lon="3.750114">
        <ele>69.21115</ele>
        <time>2021-07-01T11:02:38Z</time>
      </trkpt>
      <trkpt lat="43.517269" lon="3.750114">
        <ele>70.17990</ele>
        <time>2021-07-01T11:02:39Z</time>
      </trkpt>
      <trkpt lat="43.516727" lon="3.749503">
        <ele>70.48404</ele>
        <time>2021-07-01T11:02:40Z</time>
      </trkpt>
      <trkpt lat="43.516727" lon="3.749503">
        <ele>70.82260</ele>
        <time>2021-07-01T11:02:41Z</time>
      </trkpt>
      <trkpt lat="43.516430" lon="3.749170">
        <ele>72.10410</ele>
        <time>2021-07-01T11:02:42Z</time>
      </trkpt>
      <trkpt lat="43.516159" lon="3.748888">
        <ele>73.31314</ele>
        <time>2021-07-01T11:02:43Z</time>
      </trkpt>
      <trkpt lat="43.515865" lon="3.748593">
        <ele>73.68192</ele>
        <time>2021-07-01T11:02:44Z</time>
      </trkpt>
      <trkpt lat="43.515568" lon="3.748299">
        <ele>74.46744</ele>
        <time>2021-07-01T11:02:45Z</time>
      </trkpt>
      <trkpt lat="43.515285" lon="3.748019">
        <ele>74.57083</ele>
        <time>2021-07-01T11:02:46Z</time>
      </trkpt>
      <trkpt lat="43.515003" lon="3.747760">
        <ele>75.11832</ele>
        <time>2021-07-01T11:02:47Z</time>
      </trkpt>
      <trkpt lat="43.514694" lon="3.747473">
        <ele>75.77127</ele>
        <time>2021-07-01T11:02:48Z</time>
      </trkpt>
      <trkpt lat="43.514400" lon="3.747199">
        <ele>76.28275</ele>
        <time>2021-07-01T11:02:49Z</time>
      </trkpt>
      <trkpt lat="43.514114" lon="3.746932">
        <ele>76.99063</ele>
        <time>2021-07-01T11:02:50Z</time>
      </trkpt>
      <trkpt lat="43.513817" lon="3.746655">
        <ele>76.90915</ele>
        <time>2021-07-01T11:02:51Z</time>
      </trkpt>
      <trkpt lat="43.513515" lon="3.746375">
        <ele>76.94028</ele>
        <time>2021-07-01T11:02:52Z</time>
      </trkpt>
      <trkpt lat="43.513210" lon="3.746092">
        <ele>75.38248</ele>
        <time>2021-07-01T11:02:53Z</time>
      </trkpt>
      <trkpt lat="43.512901" lon="3.745802">
        <ele>75.56888</ele>
        <time>2021-07-01T11:02:54Z</time>
      </trkpt>
      <trkpt lat="43.512600" lon="3.745489">
        <ele>75.49924</ele>
        <time>2021-07-01T11:02:55Z</time>
      </trkpt>
      <trkpt lat="43.512318" lon="3.745207">
        <ele>77.05777</ele>
        <time>2021-07-01T11:02:56Z</time>
      </trkpt>
      <trkpt lat="43.512028" lon="3.744919">
        <ele>77.85764</ele>
        <time>2021-07-01T11:02:57Z</time>
      </trkpt>
      <trkpt lat="43.511749" lon="3.744619">
        <ele>78.73630</ele>
        <time>2021-07-01T11:02:58Z</time>
      </trkpt>
      <trkpt lat="43.511444" lon="3.744291">
        <ele>79.65366</ele>
        <time>2021-07-01T11:02:59Z</time>
      </trkpt>
      <trkpt lat="43.511166" lon="3.743963">
        <ele>80.04123</ele>
        <time>2021-07-01T11:03:00Z</time>
      </trkpt>
      <trkpt lat="43.510883" lon="3.743634">
        <ele>80.02487</ele>
        <time>2021-07-01T11:03:01Z</time>
      </trkpt>
      <trkpt lat="43.510612" lon="3.743312">
        <ele>80.31345</ele>
        <time>2021-07-01T11:03:02Z</time>
      </trkpt>
      <trkpt lat="43.510338" lon="3.742971">
        <ele>80.39908</ele>
        <time>2021-07-01T11:03:03Z</time>
      </trkpt>
      <trkpt lat="43.510078" lon="3.742636">
        <ele>80.28287</ele>
        <time>2021-07-01T11:03:04Z</time>
      </trkpt>
      <trkpt lat="43.509815" lon="3.742277">
        <ele>80.58255</ele>
        <time>2021-07-01T11:03:05Z</time>
      </trkpt>
      <trkpt lat="43.509579" lon="3.741930">
        <ele>80.16672</ele>
        <time>2021-07-01T11:03:06Z</time>
      </trkpt>
      <trkpt lat="43.509312" lon="3.741535">
        <ele>80.64352</ele>
        <time>2021-07-01T11:03:07Z</time>
      </trkpt>
      <trkpt lat="43.509071" lon="3.741178">
        <ele>80.11850</ele>
        <time>2021-07-01T11:03:08Z</time>
      </trkpt>
      <trkpt lat="43.508823" lon="3.740808">
        <ele>80.45407</ele>
        <time>2021-07-01T11:03:09Z</time>
      </trkpt>
      <trkpt lat="43.508575" lon="3.740437">
        <ele>80.80295</ele>
        <time>2021-07-01T11:03:10Z</time>
      </trkpt>
      <trkpt lat="43.508335" lon="3.740079">
        <ele>80.86801</ele>
        <time>2021-07-01T11:03:11Z</time>
      </trkpt>
      <trkpt lat="43.508095" lon="3.739669">
        <ele>80.64108</ele>
        <time>2021-07-01T11:03:12Z</time>
      </trkpt>
      <trkpt lat="43.508095" lon="3.739669">
        <ele>81.08835</ele>
        <time>2021-07-01T11:03:13Z</time>
      </trkpt>
      <trkpt lat="43.507866" lon="3.739289">
        <ele>80.67032</ele>
        <time>2021-07-01T11:03:14Z</time>
      </trkpt>
      <trkpt lat="43.507431" lon="3.738553">
        <ele>80.81686</ele>
        <time>2021-07-01T11:03:15Z</time>
      </trkpt>
      <trkpt lat="43.507431" lon="3.738553">
        <ele>81.03610</ele>
        <time>2021-07-01T11:03:16Z</time>
      </trkpt>
      <trkpt lat="43.507198" lon="3.738156">
        <ele>81.07437</ele>
        <time>2021-07-01T11:03:17Z</time>
      </trkpt>
      <trkpt lat="43.506973" lon="3.737767">
        <ele>80.31943</ele>
        <time>2021-07-01T11:03:18Z</time>
      </trkpt>
      <trkpt lat="43.506760" lon="3.737391">
        <ele>80.34616</ele>
        <time>2021-07-01T11:03:19Z</time>
      </trkpt>
      <trkpt lat="43.506531" lon="3.736997">
        <ele>80.34750</ele>
        <time>2021-07-01T11:03:20Z</time>
      </trkpt>
      <trkpt lat="43.506310" lon="3.736618">
        <ele>80.61295</ele>
        <time>2021-07-01T11:03:21Z</time>
      </trkpt>
      <trkpt lat="43.506084" lon="3.736228">
        <ele>80.30685</ele>
        <time>2021-07-01T11:03:22Z</time>
      </trkpt>
      <trkpt lat="43.505856" lon="3.735827">
        <ele>79.62790</ele>
        <time>2021-07-01T11:03:23Z</time>
      </trkpt>
      <trkpt lat="43.505627" lon="3.735438">
        <ele>79.33072</ele>
        <time>2021-07-01T11:03:24Z</time>
      </trkpt>
      <trkpt lat="43.505421" lon="3.735076">
        <ele>78.10983</ele>
        <time>2021-07-01T11:03:25Z</time>
      </trkpt>
      <trkpt lat="43.505192" lon="3.734684">
        <ele>78.14645</ele>
        <time>2021-07-01T11:03:26Z</time>
      </trkpt>
      <trkpt lat="43.504967" lon="3.734267">
        <ele>78.09409</ele>
        <time>2021-07-01T11:03:27Z</time>
      </trkpt>
      <trkpt lat="43.504734" lon="3.733863">
        <ele>78.18369</ele>
        <time>2021-07-01T11:03:28Z</time>
      </trkpt>
      <trkpt lat="43.504509" lon="3.733483">
        <ele>77.79373</ele>
        <time>2021-07-01T11:03:29Z</time>
      </trkpt>
      <trkpt lat="43.504280" lon="3.733093">
        <ele>77.32028</ele>
        <time>2021-07-01T11:03:30Z</time>
      </trkpt>
      <trkpt lat="43.504040" lon="3.732688">
        <ele>77.13498</ele>
        <time>2021-07-01T11:03:31Z</time>
      </trkpt>
      <trkpt lat="43.503826" lon="3.732326">
        <ele>76.68192</ele>
        <time>2021-07-01T11:03:32Z</time>
      </trkpt>
      <trkpt lat="43.503582" lon="3.731923">
        <ele>76.78818</ele>
        <time>2021-07-01T11:03:33Z</time>
      </trkpt>
      <trkpt lat="43.503338" lon="3.731527">
        <ele>76.33951</ele>
        <time>2021-07-01T11:03:34Z</time>
      </trkpt>
      <trkpt lat="43.503117" lon="3.731165">
        <ele>76.64426</ele>
        <time>2021-07-01T11:03:35Z</time>
      </trkpt>
      <trkpt lat="43.502880" lon="3.730778">
        <ele>76.75266</ele>
        <time>2021-07-01T11:03:36Z</time>
      </trkpt>
      <trkpt lat="43.502655" lon="3.730407">
        <ele>76.73917</ele>
        <time>2021-07-01T11:03:37Z</time>
      </trkpt>
      <trkpt lat="43.502426" lon="3.730035">
        <ele>76.52585</ele>
        <time>2021-07-01T11:03:38Z</time>
      </trkpt>
      <trkpt lat="43.502197" lon="3.729659">
        <ele>76.28171</ele>
        <time>2021-07-01T11:03:39Z</time>
      </trkpt>
      <trkpt lat="43.501961" lon="3.729289">
        <ele>75.94650</ele>
        <time>2021-07-01T11:03:40Z</time>
      </trkpt>
      <trkpt lat="43.501713" lon="3.728918">
        <ele>75.74899</ele>
        <time>2021-07-01T11:03:41Z</time>
      </trkpt>
      <trkpt lat="43.501461" lon="3.728547">
        <ele>75.88205</ele>
        <time>2021-07-01T11:03:42Z</time>
      </trkpt>
      <trkpt lat="43.501209" lon="3.728178">
        <ele>75.82864</ele>
        <time>2021-07-01T11:03:43Z</time>
      </trkpt>
      <trkpt lat="43.500938" lon="3.727788">
        <ele>76.01932</ele>
        <time>2021-07-01T11:03:44Z</time>
      </trkpt>
      <trkpt lat="43.500938" lon="3.727788">
        <ele>76.70578</ele>
        <time>2021-07-01T11:03:45Z</time>
      </trkpt>
      <trkpt lat="43.500671" lon="3.727419">
        <ele>77.20840</ele>
        <time>2021-07-01T11:03:46Z</time>
      </trkpt>
      <trkpt lat="43.500431" lon="3.727087">
        <ele>77.38205</ele>
        <time>2021-07-01T11:03:47Z</time>
      </trkpt>
      <trkpt lat="43.500195" lon="3.726759">
        <ele>77.46609</ele>
        <time>2021-07-01T11:03:48Z</time>
      </trkpt>
      <trkpt lat="43.499935" lon="3.726423">
        <ele>77.26981</ele>
        <time>2021-07-01T11:03:49Z</time>
      </trkpt>
      <trkpt lat="43.499683" lon="3.726100">
        <ele>77.57443</ele>
        <time>2021-07-01T11:03:50Z</time>
      </trkpt>
      <trkpt lat="43.499405" lon="3.725743">
        <ele>77.14578</ele>
        <time>2021-07-01T11:03:51Z</time>
      </trkpt>
      <trkpt lat="43.499142" lon="3.725413">
        <ele>76.40744</ele>
        <time>2021-07-01T11:03:52Z</time>
      </trkpt>
      <trkpt lat="43.498882" lon="3.725099">
        <ele>75.08652</ele>
        <time>2021-07-01T11:03:53Z</time>
      </trkpt>
      <trkpt lat="43.498600" lon="3.724770">
        <ele>74.76254</ele>
        <time>2021-07-01T11:03:54Z</time>
      </trkpt>
      <trkpt lat="43.498318" lon="3.724440">
        <ele>74.14267</ele>
        <time>2021-07-01T11:03:55Z</time>
      </trkpt>
      <trkpt lat="43.498035" lon="3.724109">
        <ele>72.26718</ele>
        <time>2021-07-01T11:03:56Z</time>
      </trkpt>
      <trkpt lat="43.497772" lon="3.723822">
        <ele>72.03134</ele>
        <time>2021-07-01T11:03:57Z</time>
      </trkpt>
      <trkpt lat="43.497494" lon="3.723516">
        <ele>71.65994</ele>
        <time>2021-07-01T11:03:58Z</time>
      </trkpt>
      <trkpt lat="43.497215" lon="3.723213">
        <ele>70.84116</ele>
        <time>2021-07-01T11:03:59Z</time>
      </trkpt>
      <trkpt lat="43.496941" lon="3.722918">
        <ele>70.91751</ele>
        <time>2021-07-01T11:04:00Z</time>
      </trkpt>
      <trkpt lat="43.496677" lon="3.722636">
        <ele>70.29892</ele>
        <time>2021-07-01T11:04:01Z</time>
      </trkpt>
      <trkpt lat="43.496414" lon="3.722338">
        <ele>70.23837</ele>
        <time>2021-07-01T11:04:02Z</time>
      </trkpt>
      <trkpt lat="43.496132" lon="3.721995">
        <ele>69.44504</ele>
        <time>2021-07-01T11:04:03Z</time>
      </trkpt>
      <trkpt lat="43.495869" lon="3.721715">
        <ele>69.14426</ele>
        <time>2021-07-01T11:04:04Z</time>
      </trkpt>
      <trkpt lat="43.495575" lon="3.721402">
        <ele>68.44028</ele>
        <time>2021-07-01T11:04:05Z</time>
      </trkpt>
      <trkpt lat="43.495296" lon="3.721112">
        <ele>68.24020</ele>
        <time>2021-07-01T11:04:06Z</time>
      </trkpt>
      <trkpt lat="43.495029" lon="3.720859">
        <ele>67.26871</ele>
        <time>2021-07-01T11:04:07Z</time>
      </trkpt>
      <trkpt lat="43.494778" lon="3.720593">
        <ele>66.54630</ele>
        <time>2021-07-01T11:04:08Z</time>
      </trkpt>
      <trkpt lat="43.494553" lon="3.720360">
        <ele>65.80374</ele>
        <time>2021-07-01T11:04:09Z</time>
      </trkpt>
      <trkpt lat="43.494316" lon="3.720112">
        <ele>65.56577</ele>
        <time>2021-07-01T11:04:10Z</time>
      </trkpt>
      <trkpt lat="43.494083" lon="3.719871">
        <ele>65.21182</ele>
        <time>2021-07-01T11:04:11Z</time>
      </trkpt>
      <trkpt lat="43.493858" lon="3.719632">
        <ele>65.31308</ele>
        <time>2021-07-01T11:04:12Z</time>
      </trkpt>
      <trkpt lat="43.493626" lon="3.719392">
        <ele>64.83536</ele>
        <time>2021-07-01T11:04:13Z</time>
      </trkpt>
      <trkpt lat="43.493626" lon="3.719392">
        <ele>64.25040</ele>
        <time>2021-07-01T11:04:14Z</time>
      </trkpt>
      <trkpt lat="43.493172" lon="3.718906">
        <ele>63.87283</ele>
        <time>2021-07-01T11:04:15Z</time>
      </trkpt>
      <trkpt lat="43.493172" lon="3.718906">
        <ele>63.20047</ele>
        <time>2021-07-01T11:04:16Z</time>
      </trkpt>
      <trkpt lat="43.492931" lon="3.718648">
        <ele>62.31826</ele>
        <time>2021-07-01T11:04:17Z</time>
      </trkpt>
      <trkpt lat="43.492695" lon="3.718393">
        <ele>61.62930</ele>
        <time>2021-07-01T11:04:18Z</time>
      </trkpt>
      <trkpt lat="43.492447" lon="3.718099">
        <ele>60.39541</ele>
        <time>2021-07-01T11:04:19Z</time>
      </trkpt>
      <trkpt lat="43.492203" lon="3.717806">
        <ele>60.00161</ele>
        <time>2021-07-01T11:04:20Z</time>
      </trkpt>
      <trkpt lat="43.491940" lon="3.717499">
        <ele>59.25790</ele>
        <time>2021-07-01T11:04:21Z</time>
      </trkpt>
      <trkpt lat="43.491688" lon="3.717185">
        <ele>58.31833</ele>
        <time>2021-07-01T11:04:22Z</time>
      </trkpt>
      <trkpt lat="43.491455" lon="3.716873">
        <ele>57.32003</ele>
        <time>2021-07-01T11:04:23Z</time>
      </trkpt>
      <trkpt lat="43.491211" lon="3.716538">
        <ele>56.79403</ele>
        <time>2021-07-01T11:04:24Z</time>
      </trkpt>
      <trkpt lat="43.490978" lon="3.716204">
        <ele>55.83151</ele>
        <time>2021-07-01T11:04:25Z</time>
      </trkpt>
      <trkpt lat="43.490749" lon="3.715878">
        <ele>54.78250</ele>
        <time>2021-07-01T11:04:26Z</time>
      </trkpt>
      <trkpt lat="43.490517" lon="3.715546">
        <ele>53.84530</ele>
        <time>2021-07-01T11:04:27Z</time>
      </trkpt>
      <trkpt lat="43.490311" lon="3.715216">
        <ele>53.13754</ele>
        <time>2021-07-01T11:04:28Z</time>
      </trkpt>
      <trkpt lat="43.490070" lon="3.714835">
        <ele>52.54043</ele>
        <time>2021-07-01T11:04:29Z</time>
      </trkpt>
      <trkpt lat="43.489857" lon="3.714483">
        <ele>51.81491</ele>
        <time>2021-07-01T11:04:30Z</time>
      </trkpt>
      <trkpt lat="43.489662" lon="3.714141">
        <ele>51.08627</ele>
        <time>2021-07-01T11:04:31Z</time>
      </trkpt>
      <trkpt lat="43.489456" lon="3.713763">
        <ele>50.54654</ele>
        <time>2021-07-01T11:04:32Z</time>
      </trkpt>
      <trkpt lat="43.489262" lon="3.713397">
        <ele>48.59237</ele>
        <time>2021-07-01T11:04:33Z</time>
      </trkpt>
      <trkpt lat="43.489067" lon="3.713001">
        <ele>48.28048</ele>
        <time>2021-07-01T11:04:34Z</time>
      </trkpt>
      <trkpt lat="43.488892" lon="3.712633">
        <ele>48.56051</ele>
        <time>2021-07-01T11:04:35Z</time>
      </trkpt>
      <trkpt lat="43.488720" lon="3.712271">
        <ele>47.47641</ele>
        <time>2021-07-01T11:04:36Z</time>
      </trkpt>
      <trkpt lat="43.488544" lon="3.711878">
        <ele>46.59555</ele>
        <time>2021-07-01T11:04:37Z</time>
      </trkpt>
      <trkpt lat="43.488384" lon="3.711515">
        <ele>45.81576</ele>
        <time>2021-07-01T11:04:38Z</time>
      </trkpt>
      <trkpt lat="43.488232" lon="3.711146">
        <ele>45.76944</ele>
        <time>2021-07-01T11:04:39Z</time>
      </trkpt>
      <trkpt lat="43.488068" lon="3.710732">
        <ele>44.74063</ele>
        <time>2021-07-01T11:04:40Z</time>
      </trkpt>
      <trkpt lat="43.487911" lon="3.710318">
        <ele>44.35977</ele>
        <time>2021-07-01T11:04:41Z</time>
      </trkpt>
      <trkpt lat="43.487766" lon="3.709913">
        <ele>43.74105</ele>
        <time>2021-07-01T11:04:42Z</time>
      </trkpt>
      <trkpt lat="43.487640" lon="3.709545">
        <ele>43.07541</ele>
        <time>2021-07-01T11:04:43Z</time>
      </trkpt>
      <trkpt lat="43.487511" lon="3.709148">
        <ele>42.84005</ele>
        <time>2021-07-01T11:04:44Z</time>
      </trkpt>
      <trkpt lat="43.487392" lon="3.708785">
        <ele>42.60519</ele>
        <time>2021-07-01T11:04:45Z</time>
      </trkpt>
      <trkpt lat="43.487331" lon="3.708587">
        <ele>41.87771</ele>
        <time>2021-07-01T11:04:46Z</time>
      </trkpt>
      <trkpt lat="43.487331" lon="3.708587">
        <ele>40.92385</ele>
        <time>2021-07-01T11:04:47Z</time>
      </trkpt>
      <trkpt lat="43.487110" lon="3.707814">
        <ele>40.38833</ele>
        <time>2021-07-01T11:04:48Z</time>
      </trkpt>
      <trkpt lat="43.487022" lon="3.707460">
        <ele>39.99697</ele>
        <time>2021-07-01T11:04:49Z</time>
      </trkpt>
      <trkpt lat="43.486935" lon="3.707124">
        <ele>39.55276</ele>
        <time>2021-07-01T11:04:50Z</time>
      </trkpt>
      <trkpt lat="43.486839" lon="3.706733">
        <ele>38.34463</ele>
        <time>2021-07-01T11:04:51Z</time>
      </trkpt>
      <trkpt lat="43.486694" lon="3.706102">
        <ele>37.54403</ele>
        <time>2021-07-01T11:04:52Z</time>
      </trkpt>
      <trkpt lat="43.486614" lon="3.705721">
        <ele>36.86392</ele>
        <time>2021-07-01T11:04:53Z</time>
      </trkpt>
      <trkpt lat="43.486519" lon="3.705247">
        <ele>36.40390</ele>
        <time>2021-07-01T11:04:54Z</time>
      </trkpt>
      <trkpt lat="43.486431" lon="3.704797">
        <ele>36.16238</ele>
        <time>2021-07-01T11:04:55Z</time>
      </trkpt>
      <trkpt lat="43.486404" lon="3.704647">
        <ele>36.35855</ele>
        <time>2021-07-01T11:04:56Z</time>
      </trkpt>
      <trkpt lat="43.486279" lon="3.703948">
        <ele>36.46060</ele>
        <time>2021-07-01T11:04:57Z</time>
      </trkpt>
      <trkpt lat="43.486195" lon="3.703465">
        <ele>36.05117</ele>
        <time>2021-07-01T11:04:58Z</time>
      </trkpt>
      <trkpt lat="43.486122" lon="3.703066">
        <ele>35.15884</ele>
        <time>2021-07-01T11:04:59Z</time>
      </trkpt>
      <trkpt lat="43.486038" lon="3.702585">
        <ele>34.56753</ele>
        <time>2021-07-01T11:05:00Z</time>
      </trkpt>
      <trkpt lat="43.485954" lon="3.702107">
        <ele>34.04190</ele>
        <time>2021-07-01T11:05:01Z</time>
      </trkpt>
      <trkpt lat="43.485870" lon="3.701634">
        <ele>33.48086</ele>
        <time>2021-07-01T11:05:02Z</time>
      </trkpt>
      <trkpt lat="43.485794" lon="3.701205">
        <ele>32.18002</ele>
        <time>2021-07-01T11:05:03Z</time>
      </trkpt>
      <trkpt lat="43.485714" lon="3.700773">
        <ele>31.17617</ele>
        <time>2021-07-01T11:05:04Z</time>
      </trkpt>
      <trkpt lat="43.485634" lon="3.700292">
        <ele>30.75790</ele>
        <time>2021-07-01T11:05:05Z</time>
      </trkpt>
      <trkpt lat="43.485554" lon="3.699853">
        <ele>30.33285</ele>
        <time>2021-07-01T11:05:06Z</time>
      </trkpt>
      <trkpt lat="43.485474" lon="3.699389">
        <ele>29.81149</ele>
        <time>2021-07-01T11:05:07Z</time>
      </trkpt>
      <trkpt lat="43.485394" lon="3.698932">
        <ele>29.47873</ele>
        <time>2021-07-01T11:05:08Z</time>
      </trkpt>
      <trkpt lat="43.485394" lon="3.698932">
        <ele>29.50119</ele>
        <time>2021-07-01T11:05:09Z</time>
      </trkpt>
      <trkpt lat="43.485325" lon="3.698550">
        <ele>28.66012</ele>
        <time>2021-07-01T11:05:10Z</time>
      </trkpt>
      <trkpt lat="43.485233" lon="3.698036">
        <ele>28.13626</ele>
        <time>2021-07-01T11:05:11Z</time>
      </trkpt>
      <trkpt lat="43.485161" lon="3.697621">
        <ele>28.11996</ele>
        <time>2021-07-01T11:05:12Z</time>
      </trkpt>
      <trkpt lat="43.485149" lon="3.697568">
        <ele>27.86569</ele>
        <time>2021-07-01T11:05:13Z</time>
      </trkpt>
      <trkpt lat="43.485020" lon="3.696851">
        <ele>27.84671</ele>
        <time>2021-07-01T11:05:14Z</time>
      </trkpt>
      <trkpt lat="43.484913" lon="3.696310">
        <ele>27.71518</ele>
        <time>2021-07-01T11:05:15Z</time>
      </trkpt>
      <trkpt lat="43.484882" lon="3.696155">
        <ele>27.70443</ele>
        <time>2021-07-01T11:05:16Z</time>
      </trkpt>
      <trkpt lat="43.484722" lon="3.695452">
        <ele>27.44406</ele>
        <time>2021-07-01T11:05:17Z</time>
      </trkpt>
      <trkpt lat="43.484615" lon="3.694994">
        <ele>27.30343</ele>
        <time>2021-07-01T11:05:18Z</time>
      </trkpt>
      <trkpt lat="43.484528" lon="3.694625">
        <ele>27.00021</ele>
        <time>2021-07-01T11:05:19Z</time>
      </trkpt>
      <trkpt lat="43.484417" lon="3.694219">
        <ele>27.06045</ele>
        <time>2021-07-01T11:05:20Z</time>
      </trkpt>
      <trkpt lat="43.484306" lon="3.693823">
        <ele>27.16330</ele>
        <time>2021-07-01T11:05:21Z</time>
      </trkpt>
      <trkpt lat="43.484196" lon="3.693412">
        <ele>27.81100</ele>
        <time>2021-07-01T11:05:22Z</time>
      </trkpt>
      <trkpt lat="43.484089" lon="3.693019">
        <ele>27.72915</ele>
        <time>2021-07-01T11:05:23Z</time>
      </trkpt>
      <trkpt lat="43.483986" lon="3.692643">
        <ele>27.72805</ele>
        <time>2021-07-01T11:05:24Z</time>
      </trkpt>
      <trkpt lat="43.483875" lon="3.692248">
        <ele>27.25918</ele>
        <time>2021-07-01T11:05:25Z</time>
      </trkpt>
      <trkpt lat="43.483757" lon="3.691855">
        <ele>26.69790</ele>
        <time>2021-07-01T11:05:26Z</time>
      </trkpt>
      <trkpt lat="43.483624" lon="3.691444">
        <ele>26.46621</ele>
        <time>2021-07-01T11:05:27Z</time>
      </trkpt>
      <trkpt lat="43.483498" lon="3.691047">
        <ele>25.86880</ele>
        <time>2021-07-01T11:05:28Z</time>
      </trkpt>
      <trkpt lat="43.483376" lon="3.690675">
        <ele>25.58017</ele>
        <time>2021-07-01T11:05:29Z</time>
      </trkpt>
      <trkpt lat="43.483376" lon="3.690675">
        <ele>25.20248</ele>
        <time>2021-07-01T11:05:30Z</time>
      </trkpt>
      <trkpt lat="43.483128" lon="3.689889">
        <ele>24.26797</ele>
        <time>2021-07-01T11:05:31Z</time>
      </trkpt>
      <trkpt lat="43.483128" lon="3.689889">
        <ele>24.44802</ele>
        <time>2021-07-01T11:05:32Z</time>
      </trkpt>
      <trkpt lat="43.483002" lon="3.689469">
        <ele>24.28134</ele>
        <time>2021-07-01T11:05:33Z</time>
      </trkpt>
      <trkpt lat="43.482883" lon="3.689054">
        <ele>24.21487</ele>
        <time>2021-07-01T11:05:34Z</time>
      </trkpt>
      <trkpt lat="43.482761" lon="3.688653">
        <ele>23.65207</ele>
        <time>2021-07-01T11:05:35Z</time>
      </trkpt>
      <trkpt lat="43.482639" lon="3.688257">
        <ele>23.79611</ele>
        <time>2021-07-01T11:05:36Z</time>
      </trkpt>
      <trkpt lat="43.482513" lon="3.687822">
        <ele>23.36416</ele>
        <time>2021-07-01T11:05:37Z</time>
      </trkpt>
      <trkpt lat="43.482384" lon="3.687389">
        <ele>23.89889</ele>
        <time>2021-07-01T11:05:38Z</time>
      </trkpt>
      <trkpt lat="43.482265" lon="3.686986">
        <ele>23.47256</ele>
        <time>2021-07-01T11:05:39Z</time>
      </trkpt>
      <trkpt lat="43.482140" lon="3.686558">
        <ele>23.42910</ele>
        <time>2021-07-01T11:05:40Z</time>
      </trkpt>
      <trkpt lat="43.482002" lon="3.686115">
        <ele>22.77884</ele>
        <time>2021-07-01T11:05:41Z</time>
      </trkpt>
      <trkpt lat="43.481876" lon="3.685708">
        <ele>22.76504</ele>
        <time>2021-07-01T11:05:42Z</time>
      </trkpt>
      <trkpt lat="43.481747" lon="3.685275">
        <ele>22.60092</ele>
        <time>2021-07-01T11:05:43Z</time>
      </trkpt>
      <trkpt lat="43.481632" lon="3.684883">
        <ele>21.08499</ele>
        <time>2021-07-01T11:05:44Z</time>
      </trkpt>
      <trkpt lat="43.481522" lon="3.684490">
        <ele>20.61404</ele>
        <time>2021-07-01T11:05:45Z</time>
      </trkpt>
      <trkpt lat="43.481403" lon="3.684091">
        <ele>20.16305</ele>
        <time>2021-07-01T11:05:46Z</time>
      </trkpt>
      <trkpt lat="43.481289" lon="3.683696">
        <ele>19.43930</ele>
        <time>2021-07-01T11:05:47Z</time>
      </trkpt>
      <trkpt lat="43.481178" lon="3.683296">
        <ele>19.85391</ele>
        <time>2021-07-01T11:05:48Z</time>
      </trkpt>
      <trkpt lat="43.481079" lon="3.682880">
        <ele>18.59744</ele>
        <time>2021-07-01T11:05:49Z</time>
      </trkpt>
      <trkpt lat="43.480980" lon="3.682468">
        <ele>17.92923</ele>
        <time>2021-07-01T11:05:50Z</time>
      </trkpt>
      <trkpt lat="43.480877" lon="3.682049">
        <ele>17.90072</ele>
        <time>2021-07-01T11:05:51Z</time>
      </trkpt>
      <trkpt lat="43.480785" lon="3.681634">
        <ele>17.68032</ele>
        <time>2021-07-01T11:05:52Z</time>
      </trkpt>
      <trkpt lat="43.480705" lon="3.681243">
        <ele>16.55221</ele>
        <time>2021-07-01T11:05:53Z</time>
      </trkpt>
      <trkpt lat="43.480621" lon="3.680794">
        <ele>15.69723</ele>
        <time>2021-07-01T11:05:54Z</time>
      </trkpt>
      <trkpt lat="43.480549" lon="3.680385">
        <ele>15.29586</ele>
        <time>2021-07-01T11:05:55Z</time>
      </trkpt>
      <trkpt lat="43.480476" lon="3.679916">
        <ele>14.41891</ele>
        <time>2021-07-01T11:05:56Z</time>
      </trkpt>
      <trkpt lat="43.480412" lon="3.679469">
        <ele>11.58371</ele>
        <time>2021-07-01T11:05:57Z</time>
      </trkpt>
      <trkpt lat="43.480343" lon="3.678976">
        <ele>11.37167</ele>
        <time>2021-07-01T11:05:58Z</time>
      </trkpt>
      <trkpt lat="43.480343" lon="3.678976">
        <ele>11.18966</ele>
        <time>2021-07-01T11:05:59Z</time>
      </trkpt>
      <trkpt lat="43.480293" lon="3.678501">
        <ele>11.62960</ele>
        <time>2021-07-01T11:06:00Z</time>
      </trkpt>
      <trkpt lat="43.480247" lon="3.678025">
        <ele>11.91275</ele>
        <time>2021-07-01T11:06:01Z</time>
      </trkpt>
      <trkpt lat="43.480206" lon="3.677565">
        <ele>12.31253</ele>
        <time>2021-07-01T11:06:02Z</time>
      </trkpt>
      <trkpt lat="43.480167" lon="3.677069">
        <ele>12.73660</ele>
        <time>2021-07-01T11:06:03Z</time>
      </trkpt>
      <trkpt lat="43.480137" lon="3.676618">
        <ele>13.59329</ele>
        <time>2021-07-01T11:06:04Z</time>
      </trkpt>
      <trkpt lat="43.480118" lon="3.676181">
        <ele>14.27414</ele>
        <time>2021-07-01T11:06:05Z</time>
      </trkpt>
      <trkpt lat="43.480095" lon="3.675730">
        <ele>15.08468</ele>
        <time>2021-07-01T11:06:06Z</time>
      </trkpt>
      <trkpt lat="43.480076" lon="3.675274">
        <ele>16.05435</ele>
        <time>2021-07-01T11:06:07Z</time>
      </trkpt>
      <trkpt lat="43.480053" lon="3.674824">
        <ele>16.90585</ele>
        <time>2021-07-01T11:06:08Z</time>
      </trkpt>
      <trkpt lat="43.480038" lon="3.674346">
        <ele>16.32638</ele>
        <time>2021-07-01T11:06:09Z</time>
      </trkpt>
      <trkpt lat="43.480022" lon="3.673915">
        <ele>17.18484</ele>
        <time>2021-07-01T11:06:10Z</time>
      </trkpt>
      <trkpt lat="43.480003" lon="3.673480">
        <ele>18.01394</ele>
        <time>2021-07-01T11:06:11Z</time>
      </trkpt>
      <trkpt lat="43.479988" lon="3.673005">
        <ele>19.37960</ele>
        <time>2021-07-01T11:06:12Z</time>
      </trkpt>
      <trkpt lat="43.479973" lon="3.672529">
        <ele>20.40341</ele>
        <time>2021-07-01T11:06:13Z</time>
      </trkpt>
      <trkpt lat="43.479958" lon="3.672065">
        <ele>21.14315</ele>
        <time>2021-07-01T11:06:14Z</time>
      </trkpt>
      <trkpt lat="43.479939" lon="3.671593">
        <ele>21.91610</ele>
        <time>2021-07-01T11:06:15Z</time>
      </trkpt>
      <trkpt lat="43.479916" lon="3.671137">
        <ele>22.96554</ele>
        <time>2021-07-01T11:06:16Z</time>
      </trkpt>
      <trkpt lat="43.479897" lon="3.670652">
        <ele>24.04477</ele>
        <time>2021-07-01T11:06:17Z</time>
      </trkpt>
      <trkpt lat="43.479874" lon="3.670153">
        <ele>24.09866</ele>
        <time>2021-07-01T11:06:18Z</time>
      </trkpt>
      <trkpt lat="43.479855" lon="3.669688">
        <ele>25.77218</ele>
        <time>2021-07-01T11:06:19Z</time>
      </trkpt>
      <trkpt lat="43.479836" lon="3.669210">
        <ele>26.97555</ele>
        <time>2021-07-01T11:06:20Z</time>
      </trkpt>
      <trkpt lat="43.479820" lon="3.668775">
        <ele>28.68441</ele>
        <time>2021-07-01T11:06:21Z</time>
      </trkpt>
      <trkpt lat="43.479801" lon="3.668310">
        <ele>29.30777</ele>
        <time>2021-07-01T11:06:22Z</time>
      </trkpt>
      <trkpt lat="43.479782" lon="3.667867">
        <ele>29.92294</ele>
        <time>2021-07-01T11:06:23Z</time>
      </trkpt>
      <trkpt lat="43.479763" lon="3.667403">
        <ele>30.75326</ele>
        <time>2021-07-01T11:06:24Z</time>
      </trkpt>
      <trkpt lat="43.479740" lon="3.666935">
        <ele>31.95395</ele>
        <time>2021-07-01T11:06:25Z</time>
      </trkpt>
      <trkpt lat="43.479721" lon="3.666483">
        <ele>33.27591</ele>
        <time>2021-07-01T11:06:26Z</time>
      </trkpt>
      <trkpt lat="43.479721" lon="3.666483">
        <ele>34.19406</ele>
        <time>2021-07-01T11:06:27Z</time>
      </trkpt>
      <trkpt lat="43.479683" lon="3.665614">
        <ele>35.25949</ele>
        <time>2021-07-01T11:06:28Z</time>
      </trkpt>
      <trkpt lat="43.479683" lon="3.665614">
        <ele>35.93338</ele>
        <time>2021-07-01T11:06:29Z</time>
      </trkpt>
      <trkpt lat="43.479660" lon="3.665145">
        <ele>36.58493</ele>
        <time>2021-07-01T11:06:30Z</time>
      </trkpt>
      <trkpt lat="43.479630" lon="3.664703">
        <ele>37.38034</ele>
        <time>2021-07-01T11:06:31Z</time>
      </trkpt>
      <trkpt lat="43.479603" lon="3.664286">
        <ele>38.40103</ele>
        <time>2021-07-01T11:06:32Z</time>
      </trkpt>
      <trkpt lat="43.479565" lon="3.663832">
        <ele>39.47189</ele>
        <time>2021-07-01T11:06:33Z</time>
      </trkpt>
      <trkpt lat="43.479519" lon="3.663361">
        <ele>40.78317</ele>
        <time>2021-07-01T11:06:34Z</time>
      </trkpt>
      <trkpt lat="43.479458" lon="3.662870">
        <ele>42.10788</ele>
        <time>2021-07-01T11:06:35Z</time>
      </trkpt>
      <trkpt lat="43.479397" lon="3.662383">
        <ele>43.94278</ele>
        <time>2021-07-01T11:06:36Z</time>
      </trkpt>
      <trkpt lat="43.479324" lon="3.661896">
        <ele>44.69967</ele>
        <time>2021-07-01T11:06:37Z</time>
      </trkpt>
      <trkpt lat="43.479252" lon="3.661425">
        <ele>45.24960</ele>
        <time>2021-07-01T11:06:38Z</time>
      </trkpt>
      <trkpt lat="43.479168" lon="3.660934">
        <ele>46.86862</ele>
        <time>2021-07-01T11:06:39Z</time>
      </trkpt>
      <trkpt lat="43.479076" lon="3.660466">
        <ele>47.45315</ele>
        <time>2021-07-01T11:06:40Z</time>
      </trkpt>
      <trkpt lat="43.478981" lon="3.659990">
        <ele>48.35086</ele>
        <time>2021-07-01T11:06:41Z</time>
      </trkpt>
      <trkpt lat="43.478874" lon="3.659504">
        <ele>49.16476</ele>
        <time>2021-07-01T11:06:42Z</time>
      </trkpt>
      <trkpt lat="43.478764" lon="3.659039">
        <ele>50.08133</ele>
        <time>2021-07-01T11:06:43Z</time>
      </trkpt>
      <trkpt lat="43.478645" lon="3.658594">
        <ele>51.32339</ele>
        <time>2021-07-01T11:06:44Z</time>
      </trkpt>
      <trkpt lat="43.478516" lon="3.658122">
        <ele>52.61532</ele>
        <time>2021-07-01T11:06:45Z</time>
      </trkpt>
      <trkpt lat="43.478394" lon="3.657692">
        <ele>53.42831</ele>
        <time>2021-07-01T11:06:46Z</time>
      </trkpt>
      <trkpt lat="43.478245" lon="3.657188">
        <ele>54.33023</ele>
        <time>2021-07-01T11:06:47Z</time>
      </trkpt>
      <trkpt lat="43.478088" lon="3.656705">
        <ele>54.41739</ele>
        <time>2021-07-01T11:06:48Z</time>
      </trkpt>
      <trkpt lat="43.477932" lon="3.656245">
        <ele>55.06820</ele>
        <time>2021-07-01T11:06:49Z</time>
      </trkpt>
      <trkpt lat="43.477768" lon="3.655795">
        <ele>54.70761</ele>
        <time>2021-07-01T11:06:50Z</time>
      </trkpt>
      <trkpt lat="43.477612" lon="3.655381">
        <ele>55.36599</ele>
        <time>2021-07-01T11:06:51Z</time>
      </trkpt>
      <trkpt lat="43.477612" lon="3.655381">
        <ele>55.50161</ele>
        <time>2021-07-01T11:06:52Z</time>
      </trkpt>
      <trkpt lat="43.477440" lon="3.654916">
        <ele>55.63382</ele>
        <time>2021-07-01T11:06:53Z</time>
      </trkpt>
      <trkpt lat="43.477257" lon="3.654482">
        <ele>56.07278</ele>
        <time>2021-07-01T11:06:54Z</time>
      </trkpt>
      <trkpt lat="43.477066" lon="3.654045">
        <ele>56.10550</ele>
        <time>2021-07-01T11:06:55Z</time>
      </trkpt>
      <trkpt lat="43.476887" lon="3.653636">
        <ele>56.72744</ele>
        <time>2021-07-01T11:06:56Z</time>
      </trkpt>
      <trkpt lat="43.476700" lon="3.653229">
        <ele>57.62350</ele>
        <time>2021-07-01T11:06:57Z</time>
      </trkpt>
      <trkpt lat="43.476494" lon="3.652802">
        <ele>57.73886</ele>
        <time>2021-07-01T11:06:58Z</time>
      </trkpt>
      <trkpt lat="43.476299" lon="3.652398">
        <ele>57.94638</ele>
        <time>2021-07-01T11:06:59Z</time>
      </trkpt>
      <trkpt lat="43.476097" lon="3.651981">
        <ele>58.29263</ele>
        <time>2021-07-01T11:07:00Z</time>
      </trkpt>
      <trkpt lat="43.475883" lon="3.651543">
        <ele>58.37497</ele>
        <time>2021-07-01T11:07:01Z</time>
      </trkpt>
      <trkpt lat="43.475685" lon="3.651136">
        <ele>58.48562</ele>
        <time>2021-07-01T11:07:02Z</time>
      </trkpt>
      <trkpt lat="43.475471" lon="3.650717">
        <ele>58.64529</ele>
        <time>2021-07-01T11:07:03Z</time>
      </trkpt>
      <trkpt lat="43.475258" lon="3.650293">
        <ele>59.96884</ele>
        <time>2021-07-01T11:07:04Z</time>
      </trkpt>
      <trkpt lat="43.475052" lon="3.649892">
        <ele>60.57797</ele>
        <time>2021-07-01T11:07:05Z</time>
      </trkpt>
      <trkpt lat="43.474854" lon="3.649508">
        <ele>60.62857</ele>
        <time>2021-07-01T11:07:06Z</time>
      </trkpt>
      <trkpt lat="43.474792" lon="3.649380">
        <ele>61.15310</ele>
        <time>2021-07-01T11:07:07Z</time>
      </trkpt>
      <trkpt lat="43.474442" lon="3.648694">
        <ele>61.72689</ele>
        <time>2021-07-01T11:07:08Z</time>
      </trkpt>
      <trkpt lat="43.474209" lon="3.648232">
        <ele>61.90670</ele>
        <time>2021-07-01T11:07:09Z</time>
      </trkpt>
      <trkpt lat="43.474014" lon="3.647847">
        <ele>61.81283</ele>
        <time>2021-07-01T11:07:10Z</time>
      </trkpt>
      <trkpt lat="43.473820" lon="3.647462">
        <ele>61.56930</ele>
        <time>2021-07-01T11:07:11Z</time>
      </trkpt>
      <trkpt lat="43.473602" lon="3.647035">
        <ele>61.92184</ele>
        <time>2021-07-01T11:07:12Z</time>
      </trkpt>
      <trkpt lat="43.473389" lon="3.646644">
        <ele>62.63949</ele>
        <time>2021-07-01T11:07:13Z</time>
      </trkpt>
      <trkpt lat="43.473164" lon="3.646228">
        <ele>61.27261</ele>
        <time>2021-07-01T11:07:14Z</time>
      </trkpt>
      <trkpt lat="43.472958" lon="3.645847">
        <ele>61.30514</ele>
        <time>2021-07-01T11:07:15Z</time>
      </trkpt>
      <trkpt lat="43.472733" lon="3.645437">
        <ele>61.47207</ele>
        <time>2021-07-01T11:07:16Z</time>
      </trkpt>
      <trkpt lat="43.472530" lon="3.645060">
        <ele>61.75503</ele>
        <time>2021-07-01T11:07:17Z</time>
      </trkpt>
      <trkpt lat="43.472324" lon="3.644685">
        <ele>62.07278</ele>
        <time>2021-07-01T11:07:18Z</time>
      </trkpt>
      <trkpt lat="43.472095" lon="3.644280">
        <ele>61.85312</ele>
        <time>2021-07-01T11:07:19Z</time>
      </trkpt>
      <trkpt lat="43.471882" lon="3.643908">
        <ele>62.66287</ele>
        <time>2021-07-01T11:07:20Z</time>
      </trkpt>
      <trkpt lat="43.471657" lon="3.643517">
        <ele>63.08688</ele>
        <time>2021-07-01T11:07:21Z</time>
      </trkpt>
      <trkpt lat="43.471443" lon="3.643152">
        <ele>63.43972</ele>
        <time>2021-07-01T11:07:22Z</time>
      </trkpt>
      <trkpt lat="43.471443" lon="3.643152">
        <ele>64.05313</ele>
        <time>2021-07-01T11:07:23Z</time>
      </trkpt>
      <trkpt lat="43.471272" lon="3.642854">
        <ele>64.65787</ele>
        <time>2021-07-01T11:07:24Z</time>
      </trkpt>
      <trkpt lat="43.471092" lon="3.642550">
        <ele>65.11081</ele>
        <time>2021-07-01T11:07:25Z</time>
      </trkpt>
      <trkpt lat="43.470757" lon="3.641967">
        <ele>65.82999</ele>
        <time>2021-07-01T11:07:26Z</time>
      </trkpt>
      <trkpt lat="43.470554" lon="3.641630">
        <ele>65.71713</ele>
        <time>2021-07-01T11:07:27Z</time>
      </trkpt>
      <trkpt lat="43.470329" lon="3.641256">
        <ele>65.50052</ele>
        <time>2021-07-01T11:07:28Z</time>
      </trkpt>
      <trkpt lat="43.470112" lon="3.640883">
        <ele>65.74637</ele>
        <time>2021-07-01T11:07:29Z</time>
      </trkpt>
      <trkpt lat="43.469894" lon="3.640516">
        <ele>65.48459</ele>
        <time>2021-07-01T11:07:30Z</time>
      </trkpt>
      <trkpt lat="43.469662" lon="3.640139">
        <ele>65.39542</ele>
        <time>2021-07-01T11:07:31Z</time>
      </trkpt>
      <trkpt lat="43.469437" lon="3.639771">
        <ele>65.53244</ele>
        <time>2021-07-01T11:07:32Z</time>
      </trkpt>
      <trkpt lat="43.469219" lon="3.639417">
        <ele>65.97037</ele>
        <time>2021-07-01T11:07:33Z</time>
      </trkpt>
      <trkpt lat="43.468998" lon="3.639053">
        <ele>65.68021</ele>
        <time>2021-07-01T11:07:34Z</time>
      </trkpt>
      <trkpt lat="43.468781" lon="3.638697">
        <ele>65.41867</ele>
        <time>2021-07-01T11:07:35Z</time>
      </trkpt>
      <trkpt lat="43.468552" lon="3.638321">
        <ele>65.87222</ele>
        <time>2021-07-01T11:07:36Z</time>
      </trkpt>
      <trkpt lat="43.468330" lon="3.637963">
        <ele>65.80344</ele>
        <time>2021-07-01T11:07:37Z</time>
      </trkpt>
      <trkpt lat="43.468121" lon="3.637620">
        <ele>65.53867</ele>
        <time>2021-07-01T11:07:38Z</time>
      </trkpt>
      <trkpt lat="43.467888" lon="3.637236">
        <ele>66.21585</ele>
        <time>2021-07-01T11:07:39Z</time>
      </trkpt>
      <trkpt lat="43.467648" lon="3.636843">
        <ele>66.57791</ele>
        <time>2021-07-01T11:07:40Z</time>
      </trkpt>
      <trkpt lat="43.467438" lon="3.636499">
        <ele>66.49234</ele>
        <time>2021-07-01T11:07:41Z</time>
      </trkpt>
      <trkpt lat="43.467220" lon="3.636146">
        <ele>66.97665</ele>
        <time>2021-07-01T11:07:42Z</time>
      </trkpt>
      <trkpt lat="43.467010" lon="3.635805">
        <ele>67.16922</ele>
        <time>2021-07-01T11:07:43Z</time>
      </trkpt>
      <trkpt lat="43.466801" lon="3.635465">
        <ele>67.91995</ele>
        <time>2021-07-01T11:07:44Z</time>
      </trkpt>
      <trkpt lat="43.466579" lon="3.635112">
        <ele>68.06113</ele>
        <time>2021-07-01T11:07:45Z</time>
      </trkpt>
      <trkpt lat="43.466377" lon="3.634788">
        <ele>67.88528</ele>
        <time>2021-07-01T11:07:46Z</time>
      </trkpt>
      <trkpt lat="43.466175" lon="3.634465">
        <ele>67.95303</ele>
        <time>2021-07-01T11:07:47Z</time>
      </trkpt>
      <trkpt lat="43.465969" lon="3.634125">
        <ele>67.77060</ele>
        <time>2021-07-01T11:07:48Z</time>
      </trkpt>
      <trkpt lat="43.465771" lon="3.633798">
        <ele>67.54807</ele>
        <time>2021-07-01T11:07:49Z</time>
      </trkpt>
      <trkpt lat="43.465580" lon="3.633482">
        <ele>67.94601</ele>
        <time>2021-07-01T11:07:50Z</time>
      </trkpt>
      <trkpt lat="43.465385" lon="3.633150">
        <ele>68.04715</ele>
        <time>2021-07-01T11:07:51Z</time>
      </trkpt>
      <trkpt lat="43.465183" lon="3.632807">
        <ele>69.00046</ele>
        <time>2021-07-01T11:07:52Z</time>
      </trkpt>
      <trkpt lat="43.464993" lon="3.632466">
        <ele>69.22934</ele>
        <time>2021-07-01T11:07:53Z</time>
      </trkpt>
      <trkpt lat="43.464806" lon="3.632120">
        <ele>69.84317</ele>
        <time>2021-07-01T11:07:54Z</time>
      </trkpt>
      <trkpt lat="43.464619" lon="3.631777">
        <ele>70.70126</ele>
        <time>2021-07-01T11:07:55Z</time>
      </trkpt>
      <trkpt lat="43.464432" lon="3.631403">
        <ele>71.11026</ele>
        <time>2021-07-01T11:07:56Z</time>
      </trkpt>
      <trkpt lat="43.464256" lon="3.631041">
        <ele>71.56131</ele>
        <time>2021-07-01T11:07:57Z</time>
      </trkpt>
      <trkpt lat="43.464066" lon="3.630643">
        <ele>72.21298</ele>
        <time>2021-07-01T11:07:58Z</time>
      </trkpt>
      <trkpt lat="43.464066" lon="3.630643">
        <ele>71.99844</ele>
        <time>2021-07-01T11:07:59Z</time>
      </trkpt>
      <trkpt lat="43.463722" lon="3.629854">
        <ele>71.10733</ele>
        <time>2021-07-01T11:08:00Z</time>
      </trkpt>
      <trkpt lat="43.463722" lon="3.629854">
        <ele>71.09744</ele>
        <time>2021-07-01T11:08:01Z</time>
      </trkpt>
      <trkpt lat="43.463551" lon="3.629429">
        <ele>71.29294</ele>
        <time>2021-07-01T11:08:02Z</time>
      </trkpt>
      <trkpt lat="43.463390" lon="3.629028">
        <ele>71.07425</ele>
        <time>2021-07-01T11:08:03Z</time>
      </trkpt>
      <trkpt lat="43.463242" lon="3.628648">
        <ele>70.78879</ele>
        <time>2021-07-01T11:08:04Z</time>
      </trkpt>
      <trkpt lat="43.463089" lon="3.628198">
        <ele>70.46976</ele>
        <time>2021-07-01T11:08:05Z</time>
      </trkpt>
      <trkpt lat="43.462940" lon="3.627761">
        <ele>69.30124</ele>
        <time>2021-07-01T11:08:06Z</time>
      </trkpt>
      <trkpt lat="43.462803" lon="3.627327">
        <ele>68.41696</ele>
        <time>2021-07-01T11:08:07Z</time>
      </trkpt>
      <trkpt lat="43.462666" lon="3.626881">
        <ele>68.01401</ele>
        <time>2021-07-01T11:08:08Z</time>
      </trkpt>
      <trkpt lat="43.462536" lon="3.626446">
        <ele>67.15549</ele>
        <time>2021-07-01T11:08:09Z</time>
      </trkpt>
      <trkpt lat="43.462418" lon="3.626027">
        <ele>66.89401</ele>
        <time>2021-07-01T11:08:10Z</time>
      </trkpt>
      <trkpt lat="43.462311" lon="3.625604">
        <ele>66.45505</ele>
        <time>2021-07-01T11:08:11Z</time>
      </trkpt>
      <trkpt lat="43.462193" lon="3.625160">
        <ele>66.34872</ele>
        <time>2021-07-01T11:08:12Z</time>
      </trkpt>
      <trkpt lat="43.462151" lon="3.624999">
        <ele>65.93356</ele>
        <time>2021-07-01T11:08:13Z</time>
      </trkpt>
      <trkpt lat="43.461967" lon="3.624260">
        <ele>64.92044</ele>
        <time>2021-07-01T11:08:14Z</time>
      </trkpt>
      <trkpt lat="43.461861" lon="3.623784">
        <ele>64.17398</ele>
        <time>2021-07-01T11:08:15Z</time>
      </trkpt>
      <trkpt lat="43.461769" lon="3.623363">
        <ele>63.83743</ele>
        <time>2021-07-01T11:08:16Z</time>
      </trkpt>
      <trkpt lat="43.461643" lon="3.622743">
        <ele>63.72378</ele>
        <time>2021-07-01T11:08:17Z</time>
      </trkpt>
      <trkpt lat="43.461548" lon="3.622284">
        <ele>63.06796</ele>
        <time>2021-07-01T11:08:18Z</time>
      </trkpt>
      <trkpt lat="43.461472" lon="3.621915">
        <ele>61.99740</ele>
        <time>2021-07-01T11:08:19Z</time>
      </trkpt>
      <trkpt lat="43.461472" lon="3.621915">
        <ele>60.89004</ele>
        <time>2021-07-01T11:08:20Z</time>
      </trkpt>
      <trkpt lat="43.461361" lon="3.621401">
        <ele>59.97671</ele>
        <time>2021-07-01T11:08:21Z</time>
      </trkpt>
      <trkpt lat="43.461262" lon="3.620933">
        <ele>58.86880</ele>
        <time>2021-07-01T11:08:22Z</time>
      </trkpt>
      <trkpt lat="43.461159" lon="3.620470">
        <ele>58.21493</ele>
        <time>2021-07-01T11:08:23Z</time>
      </trkpt>
      <trkpt lat="43.461044" lon="3.619990">
        <ele>57.01864</ele>
        <time>2021-07-01T11:08:24Z</time>
      </trkpt>
      <trkpt lat="43.460934" lon="3.619538">
        <ele>55.94766</ele>
        <time>2021-07-01T11:08:25Z</time>
      </trkpt>
      <trkpt lat="43.460815" lon="3.619092">
        <ele>55.51620</ele>
        <time>2021-07-01T11:08:26Z</time>
      </trkpt>
      <trkpt lat="43.460690" lon="3.618646">
        <ele>54.75576</ele>
        <time>2021-07-01T11:08:27Z</time>
      </trkpt>
      <trkpt lat="43.460564" lon="3.618209">
        <ele>54.53115</ele>
        <time>2021-07-01T11:08:28Z</time>
      </trkpt>
      <trkpt lat="43.460434" lon="3.617795">
        <ele>54.20907</ele>
        <time>2021-07-01T11:08:29Z</time>
      </trkpt>
      <trkpt lat="43.460297" lon="3.617355">
        <ele>53.11081</ele>
        <time>2021-07-01T11:08:30Z</time>
      </trkpt>
      <trkpt lat="43.460243" lon="3.617198">
        <ele>52.70578</ele>
        <time>2021-07-01T11:08:31Z</time>
      </trkpt>
      <trkpt lat="43.460033" lon="3.616602">
        <ele>51.74429</ele>
        <time>2021-07-01T11:08:32Z</time>
      </trkpt>
      <trkpt lat="43.459846" lon="3.616070">
        <ele>51.21615</ele>
        <time>2021-07-01T11:08:33Z</time>
      </trkpt>
      <trkpt lat="43.459709" lon="3.615681">
        <ele>50.44583</ele>
        <time>2021-07-01T11:08:34Z</time>
      </trkpt>
      <trkpt lat="43.459557" lon="3.615264">
        <ele>48.99417</ele>
        <time>2021-07-01T11:08:35Z</time>
      </trkpt>
      <trkpt lat="43.459393" lon="3.614833">
        <ele>48.06247</ele>
        <time>2021-07-01T11:08:36Z</time>
      </trkpt>
      <trkpt lat="43.459347" lon="3.614710">
        <ele>46.81210</ele>
        <time>2021-07-01T11:08:37Z</time>
      </trkpt>
      <trkpt lat="43.459080" lon="3.613999">
        <ele>45.80453</ele>
        <time>2021-07-01T11:08:38Z</time>
      </trkpt>
      <trkpt lat="43.458920" lon="3.613595">
        <ele>45.24313</ele>
        <time>2021-07-01T11:08:39Z</time>
      </trkpt>
      <trkpt lat="43.458763" lon="3.613210">
        <ele>44.89499</ele>
        <time>2021-07-01T11:08:40Z</time>
      </trkpt>
      <trkpt lat="43.458595" lon="3.612801">
        <ele>44.16244</ele>
        <time>2021-07-01T11:08:41Z</time>
      </trkpt>
      <trkpt lat="43.458424" lon="3.612381">
        <ele>43.63131</ele>
        <time>2021-07-01T11:08:42Z</time>
      </trkpt>
      <trkpt lat="43.458389" lon="3.612293">
        <ele>43.07382</ele>
        <time>2021-07-01T11:08:43Z</time>
      </trkpt>
      <trkpt lat="43.458042" lon="3.611550">
        <ele>41.38437</ele>
        <time>2021-07-01T11:08:44Z</time>
      </trkpt>
      <trkpt lat="43.457863" lon="3.611188">
        <ele>40.56417</ele>
        <time>2021-07-01T11:08:45Z</time>
      </trkpt>
      <trkpt lat="43.457668" lon="3.610813">
        <ele>39.73037</ele>
        <time>2021-07-01T11:08:46Z</time>
      </trkpt>
      <trkpt lat="43.457474" lon="3.610444">
        <ele>37.94784</ele>
        <time>2021-07-01T11:08:47Z</time>
      </trkpt>
      <trkpt lat="43.457256" lon="3.610090">
        <ele>37.23642</ele>
        <time>2021-07-01T11:08:48Z</time>
      </trkpt>
      <trkpt lat="43.457027" lon="3.609729">
        <ele>36.51468</ele>
        <time>2021-07-01T11:08:49Z</time>
      </trkpt>
      <trkpt lat="43.456802" lon="3.609371">
        <ele>36.38992</ele>
        <time>2021-07-01T11:08:50Z</time>
      </trkpt>
      <trkpt lat="43.456566" lon="3.608996">
        <ele>35.91427</ele>
        <time>2021-07-01T11:08:51Z</time>
      </trkpt>
      <trkpt lat="43.456364" lon="3.608670">
        <ele>34.79843</ele>
        <time>2021-07-01T11:08:52Z</time>
      </trkpt>
      <trkpt lat="43.456142" lon="3.608321">
        <ele>33.48251</ele>
        <time>2021-07-01T11:08:53Z</time>
      </trkpt>
      <trkpt lat="43.455929" lon="3.607985">
        <ele>31.76168</ele>
        <time>2021-07-01T11:08:54Z</time>
      </trkpt>
      <trkpt lat="43.455929" lon="3.607985">
        <ele>30.91537</ele>
        <time>2021-07-01T11:08:55Z</time>
      </trkpt>
      <trkpt lat="43.455704" lon="3.607634">
        <ele>29.35006</ele>
        <time>2021-07-01T11:08:56Z</time>
      </trkpt>
      <trkpt lat="43.455479" lon="3.607285">
        <ele>28.67593</ele>
        <time>2021-07-01T11:08:57Z</time>
      </trkpt>
      <trkpt lat="43.455238" lon="3.606892">
        <ele>27.95724</ele>
        <time>2021-07-01T11:08:58Z</time>
      </trkpt>
      <trkpt lat="43.455013" lon="3.606518">
        <ele>27.62374</ele>
        <time>2021-07-01T11:08:59Z</time>
      </trkpt>
      <trkpt lat="43.454807" lon="3.606151">
        <ele>27.45169</ele>
        <time>2021-07-01T11:09:00Z</time>
      </trkpt>
      <trkpt lat="43.454575" lon="3.605737">
        <ele>26.91287</ele>
        <time>2021-07-01T11:09:01Z</time>
      </trkpt>
      <trkpt lat="43.454376" lon="3.605348">
        <ele>25.12265</ele>
        <time>2021-07-01T11:09:02Z</time>
      </trkpt>
      <trkpt lat="43.454178" lon="3.604956">
        <ele>24.69796</ele>
        <time>2021-07-01T11:09:03Z</time>
      </trkpt>
      <trkpt lat="43.453979" lon="3.604551">
        <ele>24.84878</ele>
        <time>2021-07-01T11:09:04Z</time>
      </trkpt>
      <trkpt lat="43.453785" lon="3.604127">
        <ele>23.44094</ele>
        <time>2021-07-01T11:09:05Z</time>
      </trkpt>
      <trkpt lat="43.453606" lon="3.603725">
        <ele>22.80294</ele>
        <time>2021-07-01T11:09:06Z</time>
      </trkpt>
      <trkpt lat="43.453434" lon="3.603319">
        <ele>22.41555</ele>
        <time>2021-07-01T11:09:07Z</time>
      </trkpt>
      <trkpt lat="43.453270" lon="3.602901">
        <ele>21.94528</ele>
        <time>2021-07-01T11:09:08Z</time>
      </trkpt>
      <trkpt lat="43.453102" lon="3.602482">
        <ele>20.81985</ele>
        <time>2021-07-01T11:09:09Z</time>
      </trkpt>
      <trkpt lat="43.452953" lon="3.602082">
        <ele>20.48428</ele>
        <time>2021-07-01T11:09:10Z</time>
      </trkpt>
      <trkpt lat="43.452808" lon="3.601670">
        <ele>19.15396</ele>
        <time>2021-07-01T11:09:11Z</time>
      </trkpt>
      <trkpt lat="43.452671" lon="3.601264">
        <ele>18.45626</ele>
        <time>2021-07-01T11:09:12Z</time>
      </trkpt>
      <trkpt lat="43.452530" lon="3.600820">
        <ele>18.11288</ele>
        <time>2021-07-01T11:09:13Z</time>
      </trkpt>
      <trkpt lat="43.452408" lon="3.600393">
        <ele>17.71768</ele>
        <time>2021-07-01T11:09:14Z</time>
      </trkpt>
      <trkpt lat="43.452290" lon="3.599984">
        <ele>17.44271</ele>
        <time>2021-07-01T11:09:15Z</time>
      </trkpt>
      <trkpt lat="43.452171" lon="3.599584">
        <ele>17.61404</ele>
        <time>2021-07-01T11:09:16Z</time>
      </trkpt>
      <trkpt lat="43.452068" lon="3.599184">
        <ele>17.07742</ele>
        <time>2021-07-01T11:09:17Z</time>
      </trkpt>
      <trkpt lat="43.451969" lon="3.598784">
        <ele>17.50546</ele>
        <time>2021-07-01T11:09:18Z</time>
      </trkpt>
      <trkpt lat="43.451878" lon="3.598375">
        <ele>17.70065</ele>
        <time>2021-07-01T11:09:19Z</time>
      </trkpt>
      <trkpt lat="43.451782" lon="3.597976">
        <ele>18.01004</ele>
        <time>2021-07-01T11:09:20Z</time>
      </trkpt>
      <trkpt lat="43.451698" lon="3.597572">
        <ele>18.02804</ele>
        <time>2021-07-01T11:09:21Z</time>
      </trkpt>
      <trkpt lat="43.451611" lon="3.597138">
        <ele>17.00985</ele>
        <time>2021-07-01T11:09:22Z</time>
      </trkpt>
      <trkpt lat="43.451534" lon="3.596675">
        <ele>17.45077</ele>
        <time>2021-07-01T11:09:23Z</time>
      </trkpt>
      <trkpt lat="43.451466" lon="3.596215">
        <ele>18.36807</ele>
        <time>2021-07-01T11:09:24Z</time>
      </trkpt>
      <trkpt lat="43.451466" lon="3.596215">
        <ele>19.05893</ele>
        <time>2021-07-01T11:09:25Z</time>
      </trkpt>
      <trkpt lat="43.451405" lon="3.595772">
        <ele>18.95749</ele>
        <time>2021-07-01T11:09:26Z</time>
      </trkpt>
      <trkpt lat="43.451347" lon="3.595327">
        <ele>19.57174</ele>
        <time>2021-07-01T11:09:27Z</time>
      </trkpt>
      <trkpt lat="43.451283" lon="3.594841">
        <ele>20.25351</ele>
        <time>2021-07-01T11:09:28Z</time>
      </trkpt>
      <trkpt lat="43.451221" lon="3.594316">
        <ele>20.30081</ele>
        <time>2021-07-01T11:09:29Z</time>
      </trkpt>
      <trkpt lat="43.451168" lon="3.593834">
        <ele>20.77536</ele>
        <time>2021-07-01T11:09:30Z</time>
      </trkpt>
      <trkpt lat="43.451111" lon="3.593338">
        <ele>20.89138</ele>
        <time>2021-07-01T11:09:31Z</time>
      </trkpt>
      <trkpt lat="43.451057" lon="3.592870">
        <ele>21.55447</ele>
        <time>2021-07-01T11:09:32Z</time>
      </trkpt>
      <trkpt lat="43.450996" lon="3.592362">
        <ele>21.99325</ele>
        <time>2021-07-01T11:09:33Z</time>
      </trkpt>
      <trkpt lat="43.450939" lon="3.591867">
        <ele>21.83676</ele>
        <time>2021-07-01T11:09:34Z</time>
      </trkpt>
      <trkpt lat="43.450897" lon="3.591369">
        <ele>22.68917</ele>
        <time>2021-07-01T11:09:35Z</time>
      </trkpt>
      <trkpt lat="43.450859" lon="3.590867">
        <ele>22.23953</ele>
        <time>2021-07-01T11:09:36Z</time>
      </trkpt>
      <trkpt lat="43.450817" lon="3.590390">
        <ele>22.39523</ele>
        <time>2021-07-01T11:09:37Z</time>
      </trkpt>
      <trkpt lat="43.450768" lon="3.589896">
        <ele>23.14859</ele>
        <time>2021-07-01T11:09:38Z</time>
      </trkpt>
      <trkpt lat="43.450726" lon="3.589412">
        <ele>23.59335</ele>
        <time>2021-07-01T11:09:39Z</time>
      </trkpt>
      <trkpt lat="43.450668" lon="3.588936">
        <ele>23.42440</ele>
        <time>2021-07-01T11:09:40Z</time>
      </trkpt>
      <trkpt lat="43.450611" lon="3.588449">
        <ele>24.38363</ele>
        <time>2021-07-01T11:09:41Z</time>
      </trkpt>
      <trkpt lat="43.450554" lon="3.587971">
        <ele>25.50290</ele>
        <time>2021-07-01T11:09:42Z</time>
      </trkpt>
      <trkpt lat="43.450497" lon="3.587518">
        <ele>26.10537</ele>
        <time>2021-07-01T11:09:43Z</time>
      </trkpt>
      <trkpt lat="43.450424" lon="3.587056">
        <ele>25.64389</ele>
        <time>2021-07-01T11:09:44Z</time>
      </trkpt>
      <trkpt lat="43.450359" lon="3.586620">
        <ele>25.46621</ele>
        <time>2021-07-01T11:09:45Z</time>
      </trkpt>
      <trkpt lat="43.450287" lon="3.586174">
        <ele>26.24655</ele>
        <time>2021-07-01T11:09:46Z</time>
      </trkpt>
      <trkpt lat="43.450214" lon="3.585724">
        <ele>26.45852</ele>
        <time>2021-07-01T11:09:47Z</time>
      </trkpt>
      <trkpt lat="43.450127" lon="3.585271">
        <ele>26.84494</ele>
        <time>2021-07-01T11:09:48Z</time>
      </trkpt>
      <trkpt lat="43.450043" lon="3.584836">
        <ele>27.12246</ele>
        <time>2021-07-01T11:09:49Z</time>
      </trkpt>
      <trkpt lat="43.449951" lon="3.584405">
        <ele>27.18155</ele>
        <time>2021-07-01T11:09:50Z</time>
      </trkpt>
      <trkpt lat="43.449856" lon="3.583976">
        <ele>28.58426</ele>
        <time>2021-07-01T11:09:51Z</time>
      </trkpt>
      <trkpt lat="43.449745" lon="3.583563">
        <ele>29.11996</ele>
        <time>2021-07-01T11:09:52Z</time>
      </trkpt>
      <trkpt lat="43.449631" lon="3.583144">
        <ele>29.20108</ele>
        <time>2021-07-01T11:09:53Z</time>
      </trkpt>
      <trkpt lat="43.449509" lon="3.582737">
        <ele>29.36801</ele>
        <time>2021-07-01T11:09:54Z</time>
      </trkpt>
      <trkpt lat="43.449383" lon="3.582335">
        <ele>29.48703</ele>
        <time>2021-07-01T11:09:55Z</time>
      </trkpt>
      <trkpt lat="43.449257" lon="3.581944">
        <ele>29.99374</ele>
        <time>2021-07-01T11:09:56Z</time>
      </trkpt>
      <trkpt lat="43.449112" lon="3.581512">
        <ele>30.35385</ele>
        <time>2021-07-01T11:09:57Z</time>
      </trkpt>
      <trkpt lat="43.449112" lon="3.581512">
        <ele>31.70651</ele>
        <time>2021-07-01T11:09:58Z</time>
      </trkpt>
      <trkpt lat="43.448971" lon="3.581136">
        <ele>33.24240</ele>
        <time>2021-07-01T11:09:59Z</time>
      </trkpt>
      <trkpt lat="43.448811" lon="3.580743">
        <ele>33.20681</ele>
        <time>2021-07-01T11:10:00Z</time>
      </trkpt>
      <trkpt lat="43.448643" lon="3.580353">
        <ele>33.22781</ele>
        <time>2021-07-01T11:10:01Z</time>
      </trkpt>
      <trkpt lat="43.448429" lon="3.579899">
        <ele>33.43881</ele>
        <time>2021-07-01T11:10:02Z</time>
      </trkpt>
      <trkpt lat="43.448242" lon="3.579517">
        <ele>32.76107</ele>
        <time>2021-07-01T11:10:03Z</time>
      </trkpt>
      <trkpt lat="43.448048" lon="3.579135">
        <ele>32.32821</ele>
        <time>2021-07-01T11:10:04Z</time>
      </trkpt>
      <trkpt lat="43.447826" lon="3.578747">
        <ele>32.77206</ele>
        <time>2021-07-01T11:10:05Z</time>
      </trkpt>
      <trkpt lat="43.447620" lon="3.578391">
        <ele>32.63119</ele>
        <time>2021-07-01T11:10:06Z</time>
      </trkpt>
      <trkpt lat="43.447411" lon="3.578053">
        <ele>31.73941</ele>
        <time>2021-07-01T11:10:07Z</time>
      </trkpt>
      <trkpt lat="43.447186" lon="3.577706">
        <ele>31.57711</ele>
        <time>2021-07-01T11:10:08Z</time>
      </trkpt>
      <trkpt lat="43.446957" lon="3.577362">
        <ele>31.48935</ele>
        <time>2021-07-01T11:10:09Z</time>
      </trkpt>
      <trkpt lat="43.446720" lon="3.577040">
        <ele>31.43527</ele>
        <time>2021-07-01T11:10:10Z</time>
      </trkpt>
      <trkpt lat="43.446449" lon="3.576680">
        <ele>29.66513</ele>
        <time>2021-07-01T11:10:11Z</time>
      </trkpt>
      <trkpt lat="43.446194" lon="3.576354">
        <ele>29.32547</ele>
        <time>2021-07-01T11:10:12Z</time>
      </trkpt>
      <trkpt lat="43.445950" lon="3.576055">
        <ele>28.33865</ele>
        <time>2021-07-01T11:10:13Z</time>
      </trkpt>
      <trkpt lat="43.445679" lon="3.575744">
        <ele>28.49185</ele>
        <time>2021-07-01T11:10:14Z</time>
      </trkpt>
      <trkpt lat="43.445419" lon="3.575444">
        <ele>28.67343</ele>
        <time>2021-07-01T11:10:15Z</time>
      </trkpt>
      <trkpt lat="43.445160" lon="3.575148">
        <ele>27.58352</ele>
        <time>2021-07-01T11:10:16Z</time>
      </trkpt>
      <trkpt lat="43.444885" lon="3.574840">
        <ele>27.05856</ele>
        <time>2021-07-01T11:10:17Z</time>
      </trkpt>
      <trkpt lat="43.444611" lon="3.574540">
        <ele>26.55172</ele>
        <time>2021-07-01T11:10:18Z</time>
      </trkpt>
      <trkpt lat="43.444347" lon="3.574266">
        <ele>26.46298</ele>
        <time>2021-07-01T11:10:19Z</time>
      </trkpt>
      <trkpt lat="43.444077" lon="3.573984">
        <ele>25.11477</ele>
        <time>2021-07-01T11:10:20Z</time>
      </trkpt>
      <trkpt lat="43.443794" lon="3.573693">
        <ele>24.54934</ele>
        <time>2021-07-01T11:10:21Z</time>
      </trkpt>
      <trkpt lat="43.443523" lon="3.573410">
        <ele>24.68136</ele>
        <time>2021-07-01T11:10:22Z</time>
      </trkpt>
      <trkpt lat="43.443237" lon="3.573110">
        <ele>24.51046</ele>
        <time>2021-07-01T11:10:23Z</time>
      </trkpt>
      <trkpt lat="43.442970" lon="3.572831">
        <ele>23.87948</ele>
        <time>2021-07-01T11:10:24Z</time>
      </trkpt>
      <trkpt lat="43.442703" lon="3.572555">
        <ele>24.39059</ele>
        <time>2021-07-01T11:10:25Z</time>
      </trkpt>
      <trkpt lat="43.442436" lon="3.572274">
        <ele>23.84799</ele>
        <time>2021-07-01T11:10:26Z</time>
      </trkpt>
      <trkpt lat="43.442154" lon="3.571974">
        <ele>23.43020</ele>
        <time>2021-07-01T11:10:27Z</time>
      </trkpt>
      <trkpt lat="43.441860" lon="3.571665">
        <ele>23.29531</ele>
        <time>2021-07-01T11:10:28Z</time>
      </trkpt>
      <trkpt lat="43.441597" lon="3.571385">
        <ele>22.66635</ele>
        <time>2021-07-01T11:10:29Z</time>
      </trkpt>
      <trkpt lat="43.441334" lon="3.571107">
        <ele>22.62265</ele>
        <time>2021-07-01T11:10:30Z</time>
      </trkpt>
      <trkpt lat="43.441044" lon="3.570801">
        <ele>22.62979</ele>
        <time>2021-07-01T11:10:31Z</time>
      </trkpt>
      <trkpt lat="43.440792" lon="3.570538">
        <ele>22.10678</ele>
        <time>2021-07-01T11:10:32Z</time>
      </trkpt>
      <trkpt lat="43.440544" lon="3.570279">
        <ele>23.37179</ele>
        <time>2021-07-01T11:10:33Z</time>
      </trkpt>
      <trkpt lat="43.440544" lon="3.570279">
        <ele>24.00308</ele>
        <time>2021-07-01T11:10:34Z</time>
      </trkpt>
      <trkpt lat="43.440258" lon="3.569981">
        <ele>23.85061</ele>
        <time>2021-07-01T11:10:35Z</time>
      </trkpt>
      <trkpt lat="43.439987" lon="3.569700">
        <ele>23.97049</ele>
        <time>2021-07-01T11:10:36Z</time>
      </trkpt>
      <trkpt lat="43.439713" lon="3.569413">
        <ele>24.44601</ele>
        <time>2021-07-01T11:10:37Z</time>
      </trkpt>
      <trkpt lat="43.439430" lon="3.569125">
        <ele>24.44723</ele>
        <time>2021-07-01T11:10:38Z</time>
      </trkpt>
      <trkpt lat="43.439144" lon="3.568829">
        <ele>24.46078</ele>
        <time>2021-07-01T11:10:39Z</time>
      </trkpt>
      <trkpt lat="43.438877" lon="3.568557">
        <ele>24.57742</ele>
        <time>2021-07-01T11:10:40Z</time>
      </trkpt>
      <trkpt lat="43.438595" lon="3.568267">
        <ele>24.76809</ele>
        <time>2021-07-01T11:10:41Z</time>
      </trkpt>
      <trkpt lat="43.438324" lon="3.567996">
        <ele>26.83181</ele>
        <time>2021-07-01T11:10:42Z</time>
      </trkpt>
      <trkpt lat="43.438046" lon="3.567718">
        <ele>27.28592</ele>
        <time>2021-07-01T11:10:43Z</time>
      </trkpt>
      <trkpt lat="43.437763" lon="3.567432">
        <ele>27.41293</ele>
        <time>2021-07-01T11:10:44Z</time>
      </trkpt>
      <trkpt lat="43.437500" lon="3.567177">
        <ele>28.27774</ele>
        <time>2021-07-01T11:10:45Z</time>
      </trkpt>
      <trkpt lat="43.437225" lon="3.566917">
        <ele>27.62985</ele>
        <time>2021-07-01T11:10:46Z</time>
      </trkpt>
      <trkpt lat="43.436939" lon="3.566648">
        <ele>26.80801</ele>
        <time>2021-07-01T11:10:47Z</time>
      </trkpt>
      <trkpt lat="43.436657" lon="3.566390">
        <ele>27.18325</ele>
        <time>2021-07-01T11:10:48Z</time>
      </trkpt>
      <trkpt lat="43.436363" lon="3.566141">
        <ele>27.52755</ele>
        <time>2021-07-01T11:10:49Z</time>
      </trkpt>
      <trkpt lat="43.436069" lon="3.565889">
        <ele>26.10360</ele>
        <time>2021-07-01T11:10:50Z</time>
      </trkpt>
      <trkpt lat="43.435795" lon="3.565665">
        <ele>26.08084</ele>
        <time>2021-07-01T11:10:51Z</time>
      </trkpt>
      <trkpt lat="43.435509" lon="3.565442">
        <ele>26.78402</ele>
        <time>2021-07-01T11:10:52Z</time>
      </trkpt>
      <trkpt lat="43.435204" lon="3.565216">
        <ele>26.77334</ele>
        <time>2021-07-01T11:10:53Z</time>
      </trkpt>
      <trkpt lat="43.434891" lon="3.564988">
        <ele>26.87442</ele>
        <time>2021-07-01T11:10:54Z</time>
      </trkpt>
      <trkpt lat="43.434586" lon="3.564774">
        <ele>26.94442</ele>
        <time>2021-07-01T11:10:55Z</time>
      </trkpt>
      <trkpt lat="43.434559" lon="3.564754">
        <ele>26.93856</ele>
        <time>2021-07-01T11:10:56Z</time>
      </trkpt>
      <trkpt lat="43.433956" lon="3.564343">
        <ele>26.37948</ele>
        <time>2021-07-01T11:10:57Z</time>
      </trkpt>
      <trkpt lat="43.433655" lon="3.564140">
        <ele>25.90902</ele>
        <time>2021-07-01T11:10:58Z</time>
      </trkpt>
      <trkpt lat="43.433327" lon="3.563920">
        <ele>26.30307</ele>
        <time>2021-07-01T11:10:59Z</time>
      </trkpt>
      <trkpt lat="43.433022" lon="3.563715">
        <ele>25.84958</ele>
        <time>2021-07-01T11:11:00Z</time>
      </trkpt>
      <trkpt lat="43.432693" lon="3.563496">
        <ele>25.13284</ele>
        <time>2021-07-01T11:11:01Z</time>
      </trkpt>
      <trkpt lat="43.432400" lon="3.563299">
        <ele>24.82602</ele>
        <time>2021-07-01T11:11:02Z</time>
      </trkpt>
      <trkpt lat="43.432068" lon="3.563076">
        <ele>24.01248</ele>
        <time>2021-07-01T11:11:03Z</time>
      </trkpt>
      <trkpt lat="43.432068" lon="3.563076">
        <ele>23.26242</ele>
        <time>2021-07-01T11:11:04Z</time>
      </trkpt>
      <trkpt lat="43.431763" lon="3.562847">
        <ele>22.81546</ele>
        <time>2021-07-01T11:11:05Z</time>
      </trkpt>
      <trkpt lat="43.431435" lon="3.562605">
        <ele>21.57748</ele>
        <time>2021-07-01T11:11:06Z</time>
      </trkpt>
      <trkpt lat="43.431145" lon="3.562376">
        <ele>21.51968</ele>
        <time>2021-07-01T11:11:07Z</time>
      </trkpt>
      <trkpt lat="43.430843" lon="3.562127">
        <ele>20.77688</ele>
        <time>2021-07-01T11:11:08Z</time>
      </trkpt>
      <trkpt lat="43.430553" lon="3.561877">
        <ele>20.43850</ele>
        <time>2021-07-01T11:11:09Z</time>
      </trkpt>
      <trkpt lat="43.430275" lon="3.561618">
        <ele>20.02438</ele>
        <time>2021-07-01T11:11:10Z</time>
      </trkpt>
      <trkpt lat="43.429977" lon="3.561322">
        <ele>18.86673</ele>
        <time>2021-07-01T11:11:11Z</time>
      </trkpt>
      <trkpt lat="42.583530" lon="2.845631">
        <ele>76.51801</ele>
        <time>2021-07-01T12:19:34Z</time>
      </trkpt>
      <trkpt lat="42.583454" lon="2.845620">
        <ele>76.26428</ele>
        <time>2021-07-01T12:19:35Z</time>
      </trkpt>
      <trkpt lat="42.583424" lon="2.845594">
        <ele>76.28149</ele>
        <time>2021-07-01T12:19:36Z</time>
      </trkpt>
      <trkpt lat="42.583366" lon="2.845539">
        <ele>77.51831</ele>
        <time>2021-07-01T12:19:37Z</time>
      </trkpt>
      <trkpt lat="42.583267" lon="2.845429">
        <ele>77.63464</ele>
        <time>2021-07-01T12:19:38Z</time>
      </trkpt>
      <trkpt lat="42.583267" lon="2.845429">
        <ele>78.61572</ele>
        <time>2021-07-01T12:19:39Z</time>
      </trkpt>
      <trkpt lat="42.583221" lon="2.845300">
        <ele>78.62280</ele>
        <time>2021-07-01T12:19:40Z</time>
      </trkpt>
      <trkpt lat="42.583145" lon="2.845148">
        <ele>79.36914</ele>
        <time>2021-07-01T12:19:41Z</time>
      </trkpt>
      <trkpt lat="42.583019" lon="2.845071">
        <ele>80.26135</ele>
        <time>2021-07-01T12:19:42Z</time>
      </trkpt>
      <trkpt lat="42.582932" lon="2.844979">
        <ele>79.51611</ele>
        <time>2021-07-01T12:19:43Z</time>
      </trkpt>
      <trkpt lat="42.582859" lon="2.844899">
        <ele>79.24365</ele>
        <time>2021-07-01T12:19:44Z</time>
      </trkpt>
      <trkpt lat="42.582771" lon="2.844807">
        <ele>78.93591</ele>
        <time>2021-07-01T12:19:45Z</time>
      </trkpt>
      <trkpt lat="42.582691" lon="2.844721">
        <ele>79.50525</ele>
        <time>2021-07-01T12:19:46Z</time>
      </trkpt>
      <trkpt lat="42.582634" lon="2.844661">
        <ele>77.93317</ele>
        <time>2021-07-01T12:19:47Z</time>
      </trkpt>
      <trkpt lat="42.582581" lon="2.844604">
        <ele>77.45172</ele>
        <time>2021-07-01T12:19:48Z</time>
      </trkpt>
      <trkpt lat="42.582542" lon="2.844549">
        <ele>76.65002</ele>
        <time>2021-07-01T12:19:49Z</time>
      </trkpt>
      <trkpt lat="42.582535" lon="2.844444">
        <ele>76.73804</ele>
        <time>2021-07-01T12:19:50Z</time>
      </trkpt>
      <trkpt lat="42.582535" lon="2.844444">
        <ele>77.86493</ele>
        <time>2021-07-01T12:19:51Z</time>
      </trkpt>
      <trkpt lat="42.582497" lon="2.844275">
        <ele>79.69568</ele>
        <time>2021-07-01T12:19:52Z</time>
      </trkpt>
      <trkpt lat="42.582478" lon="2.844180">
        <ele>79.45959</ele>
        <time>2021-07-01T12:19:53Z</time>
      </trkpt>
      <trkpt lat="42.582458" lon="2.844089">
        <ele>80.76807</ele>
        <time>2021-07-01T12:19:54Z</time>
      </trkpt>
      <trkpt lat="42.582436" lon="2.843994">
        <ele>80.60266</ele>
        <time>2021-07-01T12:19:55Z</time>
      </trkpt>
      <trkpt lat="42.582378" lon="2.843969">
        <ele>81.82605</ele>
        <time>2021-07-01T12:19:56Z</time>
      </trkpt>
      <trkpt lat="42.582386" lon="2.843900">
        <ele>81.85370</ele>
        <time>2021-07-01T12:19:57Z</time>
      </trkpt>
      <trkpt lat="42.582085" lon="2.844150">
        <ele>80.88171</ele>
        <time>2021-07-01T12:19:58Z</time>
      </trkpt>
      <trkpt lat="42.582024" lon="2.844213">
        <ele>81.21838</ele>
        <time>2021-07-01T12:19:59Z</time>
      </trkpt>
      <trkpt lat="42.581959" lon="2.844276">
        <ele>79.56757</ele>
        <time>2021-07-01T12:20:00Z</time>
      </trkpt>
      <trkpt lat="42.581863" lon="2.844374">
        <ele>78.45740</ele>
        <time>2021-07-01T12:20:01Z</time>
      </trkpt>
      <trkpt lat="42.581799" lon="2.844445">
        <ele>78.47003</ele>
        <time>2021-07-01T12:20:02Z</time>
      </trkpt>
      <trkpt lat="42.581722" lon="2.844516">
        <ele>79.32074</ele>
        <time>2021-07-01T12:20:04Z</time>
      </trkpt>
      <trkpt lat="42.581722" lon="2.844516">
        <ele>79.82605</ele>
        <time>2021-07-01T12:20:04Z</time>
      </trkpt>
      <trkpt lat="42.581638" lon="2.844591">
        <ele>79.96240</ele>
        <time>2021-07-01T12:20:05Z</time>
      </trkpt>
      <trkpt lat="42.581562" lon="2.844661">
        <ele>79.87836</ele>
        <time>2021-07-01T12:20:06Z</time>
      </trkpt>
      <trkpt lat="42.581509" lon="2.844709">
        <ele>79.70215</ele>
        <time>2021-07-01T12:20:07Z</time>
      </trkpt>
      <trkpt lat="42.581478" lon="2.844737">
        <ele>79.51648</ele>
        <time>2021-07-01T12:20:08Z</time>
      </trkpt>
      <trkpt lat="42.581432" lon="2.844843">
        <ele>79.48108</ele>
        <time>2021-07-01T12:20:09Z</time>
      </trkpt>
      <trkpt lat="42.581326" lon="2.844978">
        <ele>79.46838</ele>
        <time>2021-07-01T12:20:10Z</time>
      </trkpt>
      <trkpt lat="42.581219" lon="2.845086">
        <ele>79.30548</ele>
        <time>2021-07-01T12:20:11Z</time>
      </trkpt>
      <trkpt lat="42.581078" lon="2.845177">
        <ele>79.18646</ele>
        <time>2021-07-01T12:20:12Z</time>
      </trkpt>
      <trkpt lat="42.580921" lon="2.845215">
        <ele>79.44287</ele>
        <time>2021-07-01T12:20:13Z</time>
      </trkpt>
      <trkpt lat="42.580765" lon="2.845216">
        <ele>78.08362</ele>
        <time>2021-07-01T12:20:14Z</time>
      </trkpt>
      <trkpt lat="42.580544" lon="2.845182">
        <ele>77.23120</ele>
        <time>2021-07-01T12:20:15Z</time>
      </trkpt>
      <trkpt lat="42.580391" lon="2.845144">
        <ele>78.28998</ele>
        <time>2021-07-01T12:20:16Z</time>
      </trkpt>
      <trkpt lat="42.580189" lon="2.845092">
        <ele>78.68512</ele>
        <time>2021-07-01T12:20:17Z</time>
      </trkpt>
      <trkpt lat="42.579994" lon="2.845031">
        <ele>79.16486</ele>
        <time>2021-07-01T12:20:18Z</time>
      </trkpt>
      <trkpt lat="42.579994" lon="2.845031">
        <ele>79.37585</ele>
        <time>2021-07-01T12:20:19Z</time>
      </trkpt>
      <trkpt lat="42.579739" lon="2.844997">
        <ele>79.28442</ele>
        <time>2021-07-01T12:20:20Z</time>
      </trkpt>
      <trkpt lat="42.579510" lon="2.844934">
        <ele>79.22644</ele>
        <time>2021-07-01T12:20:21Z</time>
      </trkpt>
      <trkpt lat="42.579296" lon="2.844880">
        <ele>80.17407</ele>
        <time>2021-07-01T12:20:22Z</time>
      </trkpt>
      <trkpt lat="42.579063" lon="2.844824">
        <ele>79.97388</ele>
        <time>2021-07-01T12:20:23Z</time>
      </trkpt>
      <trkpt lat="42.578770" lon="2.844753">
        <ele>79.65509</ele>
        <time>2021-07-01T12:20:24Z</time>
      </trkpt>
      <trkpt lat="42.578514" lon="2.844693">
        <ele>80.66760</ele>
        <time>2021-07-01T12:20:25Z</time>
      </trkpt>
      <trkpt lat="42.578232" lon="2.844629">
        <ele>81.73450</ele>
        <time>2021-07-01T12:20:26Z</time>
      </trkpt>
      <trkpt lat="42.577984" lon="2.844573">
        <ele>81.77972</ele>
        <time>2021-07-01T12:20:27Z</time>
      </trkpt>
      <trkpt lat="42.577644" lon="2.844497">
        <ele>80.82983</ele>
        <time>2021-07-01T12:20:28Z</time>
      </trkpt>
      <trkpt lat="42.577644" lon="2.844497">
        <ele>80.82953</ele>
        <time>2021-07-01T12:20:29Z</time>
      </trkpt>
      <trkpt lat="42.577354" lon="2.844431">
        <ele>81.43976</ele>
        <time>2021-07-01T12:20:30Z</time>
      </trkpt>
      <trkpt lat="42.577080" lon="2.844374">
        <ele>82.75287</ele>
        <time>2021-07-01T12:20:31Z</time>
      </trkpt>
      <trkpt lat="42.576797" lon="2.844323">
        <ele>82.70093</ele>
        <time>2021-07-01T12:20:32Z</time>
      </trkpt>
      <trkpt lat="42.576504" lon="2.844270">
        <ele>84.11096</ele>
        <time>2021-07-01T12:20:33Z</time>
      </trkpt>
      <trkpt lat="42.576241" lon="2.844223">
        <ele>85.36011</ele>
        <time>2021-07-01T12:20:34Z</time>
      </trkpt>
      <trkpt lat="42.575939" lon="2.844170">
        <ele>86.04938</ele>
        <time>2021-07-01T12:20:35Z</time>
      </trkpt>
      <trkpt lat="42.575626" lon="2.844123">
        <ele>85.29517</ele>
        <time>2021-07-01T12:20:36Z</time>
      </trkpt>
      <trkpt lat="42.575336" lon="2.844079">
        <ele>86.71307</ele>
        <time>2021-07-01T12:20:37Z</time>
      </trkpt>
      <trkpt lat="42.575020" lon="2.844033">
        <ele>87.02545</ele>
        <time>2021-07-01T12:20:38Z</time>
      </trkpt>
      <trkpt lat="42.574711" lon="2.843997">
        <ele>86.86438</ele>
        <time>2021-07-01T12:20:39Z</time>
      </trkpt>
      <trkpt lat="42.574421" lon="2.843963">
        <ele>87.91394</ele>
        <time>2021-07-01T12:20:40Z</time>
      </trkpt>
      <trkpt lat="42.574104" lon="2.843926">
        <ele>87.79950</ele>
        <time>2021-07-01T12:20:41Z</time>
      </trkpt>
      <trkpt lat="42.573799" lon="2.843891">
        <ele>88.90814</ele>
        <time>2021-07-01T12:20:42Z</time>
      </trkpt>
      <trkpt lat="42.573444" lon="2.843854">
        <ele>88.71887</ele>
        <time>2021-07-01T12:20:44Z</time>
      </trkpt>
      <trkpt lat="42.573444" lon="2.843854">
        <ele>89.16681</ele>
        <time>2021-07-01T12:20:44Z</time>
      </trkpt>
      <trkpt lat="42.573059" lon="2.843820">
        <ele>88.47302</ele>
        <time>2021-07-01T12:20:45Z</time>
      </trkpt>
      <trkpt lat="42.572620" lon="2.843791">
        <ele>88.53296</ele>
        <time>2021-07-01T12:20:46Z</time>
      </trkpt>
      <trkpt lat="42.572201" lon="2.843775">
        <ele>89.95142</ele>
        <time>2021-07-01T12:20:47Z</time>
      </trkpt>
      <trkpt lat="42.572201" lon="2.843775">
        <ele>90.70831</ele>
        <time>2021-07-01T12:20:48Z</time>
      </trkpt>
      <trkpt lat="42.571854" lon="2.843762">
        <ele>90.04254</ele>
        <time>2021-07-01T12:20:49Z</time>
      </trkpt>
      <trkpt lat="42.571625" lon="2.843756">
        <ele>90.26221</ele>
        <time>2021-07-01T12:20:50Z</time>
      </trkpt>
      <trkpt lat="42.571415" lon="2.843752">
        <ele>90.34601</ele>
        <time>2021-07-01T12:20:51Z</time>
      </trkpt>
      <trkpt lat="42.571095" lon="2.843745">
        <ele>90.94263</ele>
        <time>2021-07-01T12:20:52Z</time>
      </trkpt>
      <trkpt lat="42.570755" lon="2.843739">
        <ele>91.51538</ele>
        <time>2021-07-01T12:20:53Z</time>
      </trkpt>
      <trkpt lat="42.570274" lon="2.843729">
        <ele>91.46356</ele>
        <time>2021-07-01T12:20:54Z</time>
      </trkpt>
      <trkpt lat="42.569790" lon="2.843746">
        <ele>92.44934</ele>
        <time>2021-07-01T12:20:55Z</time>
      </trkpt>
      <trkpt lat="42.569729" lon="2.843748">
        <ele>92.39227</ele>
        <time>2021-07-01T12:20:56Z</time>
      </trkpt>
      <trkpt lat="42.569061" lon="2.843774">
        <ele>93.79492</ele>
        <time>2021-07-01T12:20:57Z</time>
      </trkpt>
      <trkpt lat="42.568718" lon="2.843787">
        <ele>95.43958</ele>
        <time>2021-07-01T12:20:58Z</time>
      </trkpt>
      <trkpt lat="42.568432" lon="2.843807">
        <ele>96.19202</ele>
        <time>2021-07-01T12:20:59Z</time>
      </trkpt>
      <trkpt lat="42.568096" lon="2.843832">
        <ele>96.00592</ele>
        <time>2021-07-01T12:21:00Z</time>
      </trkpt>
      <trkpt lat="42.567734" lon="2.843859">
        <ele>96.96381</ele>
        <time>2021-07-01T12:21:01Z</time>
      </trkpt>
      <trkpt lat="42.567497" lon="2.843877">
        <ele>96.81708</ele>
        <time>2021-07-01T12:21:02Z</time>
      </trkpt>
      <trkpt lat="42.567497" lon="2.843877">
        <ele>97.22491</ele>
        <time>2021-07-01T12:21:03Z</time>
      </trkpt>
      <trkpt lat="42.567211" lon="2.843908">
        <ele>97.93945</ele>
        <time>2021-07-01T12:21:04Z</time>
      </trkpt>
      <trkpt lat="42.566612" lon="2.843983">
        <ele>98.69360</ele>
        <time>2021-07-01T12:21:05Z</time>
      </trkpt>
      <trkpt lat="42.566284" lon="2.844025">
        <ele>98.88794</ele>
        <time>2021-07-01T12:21:06Z</time>
      </trkpt>
      <trkpt lat="42.565971" lon="2.844064">
        <ele>99.55774</ele>
        <time>2021-07-01T12:21:07Z</time>
      </trkpt>
      <trkpt lat="42.565807" lon="2.844086">
        <ele>99.83228</ele>
        <time>2021-07-01T12:21:08Z</time>
      </trkpt>
      <trkpt lat="42.565239" lon="2.844209">
        <ele>100.25073</ele>
        <time>2021-07-01T12:21:09Z</time>
      </trkpt>
      <trkpt lat="42.565102" lon="2.844239">
        <ele>100.40155</ele>
        <time>2021-07-01T12:21:10Z</time>
      </trkpt>
      <trkpt lat="42.564823" lon="2.844299">
        <ele>99.73047</ele>
        <time>2021-07-01T12:21:11Z</time>
      </trkpt>
      <trkpt lat="42.564278" lon="2.844425">
        <ele>99.77264</ele>
        <time>2021-07-01T12:21:12Z</time>
      </trkpt>
      <trkpt lat="42.564152" lon="2.844454">
        <ele>99.86536</ele>
        <time>2021-07-01T12:21:13Z</time>
      </trkpt>
      <trkpt lat="42.563431" lon="2.844621">
        <ele>100.58209</ele>
        <time>2021-07-01T12:21:14Z</time>
      </trkpt>
      <trkpt lat="42.563400" lon="2.844628">
        <ele>100.21509</ele>
        <time>2021-07-01T12:21:15Z</time>
      </trkpt>
      <trkpt lat="42.562687" lon="2.844841">
        <ele>100.72217</ele>
        <time>2021-07-01T12:21:16Z</time>
      </trkpt>
      <trkpt lat="42.562302" lon="2.844977">
        <ele>99.50641</ele>
        <time>2021-07-01T12:21:17Z</time>
      </trkpt>
      <trkpt lat="42.561905" lon="2.845117">
        <ele>99.41504</ele>
        <time>2021-07-01T12:21:18Z</time>
      </trkpt>
      <trkpt lat="42.561577" lon="2.845239">
        <ele>99.08911</ele>
        <time>2021-07-01T12:21:19Z</time>
      </trkpt>
      <trkpt lat="42.561577" lon="2.845239">
        <ele>100.11499</ele>
        <time>2021-07-01T12:21:20Z</time>
      </trkpt>
      <trkpt lat="42.561214" lon="2.845379">
        <ele>100.50708</ele>
        <time>2021-07-01T12:21:21Z</time>
      </trkpt>
      <trkpt lat="42.560806" lon="2.845556">
        <ele>100.05530</ele>
        <time>2021-07-01T12:21:22Z</time>
      </trkpt>
      <trkpt lat="42.560474" lon="2.845700">
        <ele>99.42688</ele>
        <time>2021-07-01T12:21:23Z</time>
      </trkpt>
      <trkpt lat="42.560089" lon="2.845872">
        <ele>99.34155</ele>
        <time>2021-07-01T12:21:24Z</time>
      </trkpt>
      <trkpt lat="42.559723" lon="2.846041">
        <ele>98.94263</ele>
        <time>2021-07-01T12:21:25Z</time>
      </trkpt>
      <trkpt lat="42.559383" lon="2.846213">
        <ele>99.06702</ele>
        <time>2021-07-01T12:21:26Z</time>
      </trkpt>
      <trkpt lat="42.558998" lon="2.846416">
        <ele>99.09509</ele>
        <time>2021-07-01T12:21:27Z</time>
      </trkpt>
      <trkpt lat="42.558659" lon="2.846593">
        <ele>99.08948</ele>
        <time>2021-07-01T12:21:28Z</time>
      </trkpt>
      <trkpt lat="42.558353" lon="2.846754">
        <ele>98.83594</ele>
        <time>2021-07-01T12:21:29Z</time>
      </trkpt>
      <trkpt lat="42.557961" lon="2.846970">
        <ele>98.93079</ele>
        <time>2021-07-01T12:21:30Z</time>
      </trkpt>
      <trkpt lat="42.557625" lon="2.847159">
        <ele>98.95111</ele>
        <time>2021-07-01T12:21:31Z</time>
      </trkpt>
      <trkpt lat="42.557281" lon="2.847355">
        <ele>97.77930</ele>
        <time>2021-07-01T12:21:32Z</time>
      </trkpt>
      <trkpt lat="42.556942" lon="2.847561">
        <ele>97.62164</ele>
        <time>2021-07-01T12:21:33Z</time>
      </trkpt>
      <trkpt lat="42.556602" lon="2.847749">
        <ele>97.09729</ele>
        <time>2021-07-01T12:21:34Z</time>
      </trkpt>
      <trkpt lat="42.556236" lon="2.847943">
        <ele>97.24420</ele>
        <time>2021-07-01T12:21:35Z</time>
      </trkpt>
      <trkpt lat="42.556236" lon="2.847943">
        <ele>97.18695</ele>
        <time>2021-07-01T12:21:36Z</time>
      </trkpt>
      <trkpt lat="42.555882" lon="2.848132">
        <ele>97.06189</ele>
        <time>2021-07-01T12:21:37Z</time>
      </trkpt>
      <trkpt lat="42.555511" lon="2.848329">
        <ele>97.58301</ele>
        <time>2021-07-01T12:21:38Z</time>
      </trkpt>
      <trkpt lat="42.555141" lon="2.848510">
        <ele>97.51562</ele>
        <time>2021-07-01T12:21:39Z</time>
      </trkpt>
      <trkpt lat="42.554764" lon="2.848685">
        <ele>96.95618</ele>
        <time>2021-07-01T12:21:40Z</time>
      </trkpt>
      <trkpt lat="42.554379" lon="2.848853">
        <ele>96.53259</ele>
        <time>2021-07-01T12:21:41Z</time>
      </trkpt>
      <trkpt lat="42.554035" lon="2.848990">
        <ele>96.23975</ele>
        <time>2021-07-01T12:21:42Z</time>
      </trkpt>
      <trkpt lat="42.553600" lon="2.849135">
        <ele>96.26245</ele>
        <time>2021-07-01T12:21:43Z</time>
      </trkpt>
      <trkpt lat="42.553207" lon="2.849255">
        <ele>94.76538</ele>
        <time>2021-07-01T12:21:44Z</time>
      </trkpt>
      <trkpt lat="42.552853" lon="2.849352">
        <ele>94.08472</ele>
        <time>2021-07-01T12:21:45Z</time>
      </trkpt>
      <trkpt lat="42.552471" lon="2.849434">
        <ele>93.93610</ele>
        <time>2021-07-01T12:21:46Z</time>
      </trkpt>
      <trkpt lat="42.552101" lon="2.849505">
        <ele>93.10803</ele>
        <time>2021-07-01T12:21:47Z</time>
      </trkpt>
      <trkpt lat="42.552101" lon="2.849505">
        <ele>92.54126</ele>
        <time>2021-07-01T12:21:48Z</time>
      </trkpt>
      <trkpt lat="42.551716" lon="2.849558">
        <ele>92.35565</ele>
        <time>2021-07-01T12:21:49Z</time>
      </trkpt>
      <trkpt lat="42.551304" lon="2.849607">
        <ele>92.54474</ele>
        <time>2021-07-01T12:21:50Z</time>
      </trkpt>
      <trkpt lat="42.550877" lon="2.849641">
        <ele>91.67407</ele>
        <time>2021-07-01T12:21:51Z</time>
      </trkpt>
      <trkpt lat="42.550449" lon="2.849658">
        <ele>91.13354</ele>
        <time>2021-07-01T12:21:52Z</time>
      </trkpt>
      <trkpt lat="42.550037" lon="2.849654">
        <ele>91.24139</ele>
        <time>2021-07-01T12:21:53Z</time>
      </trkpt>
      <trkpt lat="42.549637" lon="2.849629">
        <ele>91.05151</ele>
        <time>2021-07-01T12:21:54Z</time>
      </trkpt>
      <trkpt lat="42.549210" lon="2.849581">
        <ele>91.15405</ele>
        <time>2021-07-01T12:21:55Z</time>
      </trkpt>
      <trkpt lat="42.548798" lon="2.849523">
        <ele>91.68103</ele>
        <time>2021-07-01T12:21:56Z</time>
      </trkpt>
      <trkpt lat="42.548435" lon="2.849454">
        <ele>91.18713</ele>
        <time>2021-07-01T12:21:57Z</time>
      </trkpt>
      <trkpt lat="42.548080" lon="2.849380">
        <ele>90.81213</ele>
        <time>2021-07-01T12:21:58Z</time>
      </trkpt>
      <trkpt lat="42.547707" lon="2.849279">
        <ele>90.21021</ele>
        <time>2021-07-01T12:21:59Z</time>
      </trkpt>
      <trkpt lat="42.547707" lon="2.849279">
        <ele>90.18707</ele>
        <time>2021-07-01T12:22:01Z</time>
      </trkpt>
      <trkpt lat="42.547321" lon="2.849165">
        <ele>90.97583</ele>
        <time>2021-07-01T12:22:01Z</time>
      </trkpt>
      <trkpt lat="42.546906" lon="2.849028">
        <ele>90.82983</ele>
        <time>2021-07-01T12:22:02Z</time>
      </trkpt>
      <trkpt lat="42.546509" lon="2.848873">
        <ele>90.41461</ele>
        <time>2021-07-01T12:22:03Z</time>
      </trkpt>
      <trkpt lat="42.546173" lon="2.848721">
        <ele>90.03577</ele>
        <time>2021-07-01T12:22:04Z</time>
      </trkpt>
      <trkpt lat="42.545780" lon="2.848543">
        <ele>87.66522</ele>
        <time>2021-07-01T12:22:05Z</time>
      </trkpt>
      <trkpt lat="42.545467" lon="2.848376">
        <ele>87.69653</ele>
        <time>2021-07-01T12:22:06Z</time>
      </trkpt>
      <trkpt lat="42.545086" lon="2.848159">
        <ele>86.71082</ele>
        <time>2021-07-01T12:22:07Z</time>
      </trkpt>
      <trkpt lat="42.544727" lon="2.847942">
        <ele>84.58203</ele>
        <time>2021-07-01T12:22:08Z</time>
      </trkpt>
      <trkpt lat="42.544392" lon="2.847721">
        <ele>83.82397</ele>
        <time>2021-07-01T12:22:09Z</time>
      </trkpt>
      <trkpt lat="42.544067" lon="2.847497">
        <ele>83.44983</ele>
        <time>2021-07-01T12:22:10Z</time>
      </trkpt>
      <trkpt lat="42.543747" lon="2.847252">
        <ele>83.05396</ele>
        <time>2021-07-01T12:22:11Z</time>
      </trkpt>
      <trkpt lat="42.543747" lon="2.847252">
        <ele>82.58173</ele>
        <time>2021-07-01T12:22:12Z</time>
      </trkpt>
      <trkpt lat="42.543392" lon="2.846972">
        <ele>82.89996</ele>
        <time>2021-07-01T12:22:13Z</time>
      </trkpt>
      <trkpt lat="42.543095" lon="2.846716">
        <ele>82.60522</ele>
        <time>2021-07-01T12:22:14Z</time>
      </trkpt>
      <trkpt lat="42.542740" lon="2.846382">
        <ele>83.74585</ele>
        <time>2021-07-01T12:22:15Z</time>
      </trkpt>
      <trkpt lat="42.542423" lon="2.846076">
        <ele>83.21661</ele>
        <time>2021-07-01T12:22:16Z</time>
      </trkpt>
      <trkpt lat="42.542114" lon="2.845754">
        <ele>82.11188</ele>
        <time>2021-07-01T12:22:17Z</time>
      </trkpt>
      <trkpt lat="42.541809" lon="2.845422">
        <ele>81.73749</ele>
        <time>2021-07-01T12:22:18Z</time>
      </trkpt>
      <trkpt lat="42.541515" lon="2.845085">
        <ele>81.45593</ele>
        <time>2021-07-01T12:22:19Z</time>
      </trkpt>
      <trkpt lat="42.541248" lon="2.844762">
        <ele>81.34314</ele>
        <time>2021-07-01T12:22:20Z</time>
      </trkpt>
      <trkpt lat="42.540936" lon="2.844363">
        <ele>82.24554</ele>
        <time>2021-07-01T12:22:21Z</time>
      </trkpt>
      <trkpt lat="42.540665" lon="2.843989">
        <ele>82.97107</ele>
        <time>2021-07-01T12:22:22Z</time>
      </trkpt>
      <trkpt lat="42.540405" lon="2.843637">
        <ele>83.58386</ele>
        <time>2021-07-01T12:22:23Z</time>
      </trkpt>
      <trkpt lat="42.540169" lon="2.843288">
        <ele>84.36707</ele>
        <time>2021-07-01T12:22:24Z</time>
      </trkpt>
      <trkpt lat="42.539909" lon="2.842902">
        <ele>84.25867</ele>
        <time>2021-07-01T12:22:25Z</time>
      </trkpt>
      <trkpt lat="42.539661" lon="2.842505">
        <ele>84.10968</ele>
        <time>2021-07-01T12:22:26Z</time>
      </trkpt>
      <trkpt lat="42.539661" lon="2.842505">
        <ele>84.13696</ele>
        <time>2021-07-01T12:22:27Z</time>
      </trkpt>
      <trkpt lat="42.539413" lon="2.842099">
        <ele>85.30450</ele>
        <time>2021-07-01T12:22:28Z</time>
      </trkpt>
      <trkpt lat="42.539204" lon="2.841743">
        <ele>85.28113</ele>
        <time>2021-07-01T12:22:29Z</time>
      </trkpt>
      <trkpt lat="42.538944" lon="2.841268">
        <ele>84.98291</ele>
        <time>2021-07-01T12:22:30Z</time>
      </trkpt>
      <trkpt lat="42.538700" lon="2.840821">
        <ele>84.17053</ele>
        <time>2021-07-01T12:22:31Z</time>
      </trkpt>
      <trkpt lat="42.538479" lon="2.840414">
        <ele>84.08209</ele>
        <time>2021-07-01T12:22:32Z</time>
      </trkpt>
      <trkpt lat="42.538261" lon="2.839975">
        <ele>83.50104</ele>
        <time>2021-07-01T12:22:33Z</time>
      </trkpt>
      <trkpt lat="42.538044" lon="2.839534">
        <ele>82.64752</ele>
        <time>2021-07-01T12:22:34Z</time>
      </trkpt>
      <trkpt lat="42.537830" lon="2.839101">
        <ele>82.02789</ele>
        <time>2021-07-01T12:22:35Z</time>
      </trkpt>
      <trkpt lat="42.537624" lon="2.838669">
        <ele>82.23315</ele>
        <time>2021-07-01T12:22:36Z</time>
      </trkpt>
      <trkpt lat="42.537437" lon="2.838253">
        <ele>82.15283</ele>
        <time>2021-07-01T12:22:37Z</time>
      </trkpt>
      <trkpt lat="42.537247" lon="2.837836">
        <ele>81.66577</ele>
        <time>2021-07-01T12:22:38Z</time>
      </trkpt>
      <trkpt lat="42.537247" lon="2.837836">
        <ele>81.83569</ele>
        <time>2021-07-01T12:22:39Z</time>
      </trkpt>
      <trkpt lat="42.537045" lon="2.837381">
        <ele>82.21741</ele>
        <time>2021-07-01T12:22:40Z</time>
      </trkpt>
      <trkpt lat="42.536854" lon="2.836935">
        <ele>83.10474</ele>
        <time>2021-07-01T12:22:41Z</time>
      </trkpt>
      <trkpt lat="42.536667" lon="2.836502">
        <ele>83.78784</ele>
        <time>2021-07-01T12:22:42Z</time>
      </trkpt>
      <trkpt lat="42.536491" lon="2.836102">
        <ele>84.20642</ele>
        <time>2021-07-01T12:22:43Z</time>
      </trkpt>
      <trkpt lat="42.536293" lon="2.835623">
        <ele>84.61877</ele>
        <time>2021-07-01T12:22:44Z</time>
      </trkpt>
      <trkpt lat="42.536118" lon="2.835185">
        <ele>84.79175</ele>
        <time>2021-07-01T12:22:45Z</time>
      </trkpt>
      <trkpt lat="42.535923" lon="2.834708">
        <ele>85.37762</ele>
        <time>2021-07-01T12:22:46Z</time>
      </trkpt>
      <trkpt lat="42.535725" lon="2.834224">
        <ele>86.14819</ele>
        <time>2021-07-01T12:22:47Z</time>
      </trkpt>
      <trkpt lat="42.535564" lon="2.833825">
        <ele>86.73566</ele>
        <time>2021-07-01T12:22:48Z</time>
      </trkpt>
      <trkpt lat="42.535389" lon="2.833394">
        <ele>87.02905</ele>
        <time>2021-07-01T12:22:49Z</time>
      </trkpt>
      <trkpt lat="42.535187" lon="2.832894">
        <ele>88.03131</ele>
        <time>2021-07-01T12:22:50Z</time>
      </trkpt>
      <trkpt lat="42.535187" lon="2.832894">
        <ele>89.12561</ele>
        <time>2021-07-01T12:22:51Z</time>
      </trkpt>
      <trkpt lat="42.535004" lon="2.832421">
        <ele>89.70654</ele>
        <time>2021-07-01T12:22:52Z</time>
      </trkpt>
      <trkpt lat="42.534840" lon="2.831998">
        <ele>90.09973</ele>
        <time>2021-07-01T12:22:53Z</time>
      </trkpt>
      <trkpt lat="42.534637" lon="2.831511">
        <ele>90.38940</ele>
        <time>2021-07-01T12:22:54Z</time>
      </trkpt>
      <trkpt lat="42.534451" lon="2.831067">
        <ele>91.15680</ele>
        <time>2021-07-01T12:22:55Z</time>
      </trkpt>
      <trkpt lat="42.534248" lon="2.830573">
        <ele>90.90356</ele>
        <time>2021-07-01T12:22:56Z</time>
      </trkpt>
      <trkpt lat="42.534042" lon="2.830114">
        <ele>91.26135</ele>
        <time>2021-07-01T12:22:57Z</time>
      </trkpt>
      <trkpt lat="42.533840" lon="2.829659">
        <ele>91.45691</ele>
        <time>2021-07-01T12:22:58Z</time>
      </trkpt>
      <trkpt lat="42.533649" lon="2.829234">
        <ele>92.68622</ele>
        <time>2021-07-01T12:22:59Z</time>
      </trkpt>
      <trkpt lat="42.533455" lon="2.828792">
        <ele>92.60535</ele>
        <time>2021-07-01T12:23:00Z</time>
      </trkpt>
      <trkpt lat="42.533241" lon="2.828355">
        <ele>92.90759</ele>
        <time>2021-07-01T12:23:01Z</time>
      </trkpt>
      <trkpt lat="42.533031" lon="2.827926">
        <ele>93.11340</ele>
        <time>2021-07-01T12:23:02Z</time>
      </trkpt>
      <trkpt lat="42.532799" lon="2.827483">
        <ele>92.73053</ele>
        <time>2021-07-01T12:23:03Z</time>
      </trkpt>
      <trkpt lat="42.532799" lon="2.827483">
        <ele>92.40027</ele>
        <time>2021-07-01T12:23:04Z</time>
      </trkpt>
      <trkpt lat="42.532558" lon="2.827034">
        <ele>92.59857</ele>
        <time>2021-07-01T12:23:05Z</time>
      </trkpt>
      <trkpt lat="42.532330" lon="2.826603">
        <ele>91.97986</ele>
        <time>2021-07-01T12:23:06Z</time>
      </trkpt>
      <trkpt lat="42.532085" lon="2.826176">
        <ele>92.33691</ele>
        <time>2021-07-01T12:23:07Z</time>
      </trkpt>
      <trkpt lat="42.531872" lon="2.825826">
        <ele>91.34186</ele>
        <time>2021-07-01T12:23:08Z</time>
      </trkpt>
      <trkpt lat="42.531670" lon="2.825532">
        <ele>90.86237</ele>
        <time>2021-07-01T12:23:09Z</time>
      </trkpt>
      <trkpt lat="42.531456" lon="2.825230">
        <ele>90.95844</ele>
        <time>2021-07-01T12:23:10Z</time>
      </trkpt>
      <trkpt lat="42.531265" lon="2.824961">
        <ele>91.39941</ele>
        <time>2021-07-01T12:23:11Z</time>
      </trkpt>
      <trkpt lat="42.531082" lon="2.824703">
        <ele>91.57056</ele>
        <time>2021-07-01T12:23:12Z</time>
      </trkpt>
      <trkpt lat="42.530876" lon="2.824419">
        <ele>92.13275</ele>
        <time>2021-07-01T12:23:13Z</time>
      </trkpt>
      <trkpt lat="42.530693" lon="2.824176">
        <ele>92.77649</ele>
        <time>2021-07-01T12:23:14Z</time>
      </trkpt>
      <trkpt lat="42.530495" lon="2.823916">
        <ele>92.85815</ele>
        <time>2021-07-01T12:23:15Z</time>
      </trkpt>
      <trkpt lat="42.530495" lon="2.823916">
        <ele>93.06561</ele>
        <time>2021-07-01T12:23:16Z</time>
      </trkpt>
      <trkpt lat="42.530304" lon="2.823674">
        <ele>92.01044</ele>
        <time>2021-07-01T12:23:17Z</time>
      </trkpt>
      <trkpt lat="42.530128" lon="2.823464">
        <ele>93.01385</ele>
        <time>2021-07-01T12:23:18Z</time>
      </trkpt>
      <trkpt lat="42.529972" lon="2.823276">
        <ele>92.09918</ele>
        <time>2021-07-01T12:23:19Z</time>
      </trkpt>
      <trkpt lat="42.529778" lon="2.823075">
        <ele>92.57513</ele>
        <time>2021-07-01T12:23:20Z</time>
      </trkpt>
      <trkpt lat="42.529621" lon="2.822914">
        <ele>93.55237</ele>
        <time>2021-07-01T12:23:21Z</time>
      </trkpt>
      <trkpt lat="42.529488" lon="2.822774">
        <ele>94.41077</ele>
        <time>2021-07-01T12:23:22Z</time>
      </trkpt>
      <trkpt lat="42.529346" lon="2.822629">
        <ele>95.81140</ele>
        <time>2021-07-01T12:23:23Z</time>
      </trkpt>
      <trkpt lat="42.529205" lon="2.822486">
        <ele>95.57642</ele>
        <time>2021-07-01T12:23:24Z</time>
      </trkpt>
      <trkpt lat="42.529064" lon="2.822337">
        <ele>95.07697</ele>
        <time>2021-07-01T12:23:25Z</time>
      </trkpt>
      <trkpt lat="42.528934" lon="2.822206">
        <ele>94.43219</ele>
        <time>2021-07-01T12:23:26Z</time>
      </trkpt>
      <trkpt lat="42.528839" lon="2.822108">
        <ele>93.41980</ele>
        <time>2021-07-01T12:23:27Z</time>
      </trkpt>
      <trkpt lat="42.528736" lon="2.822007">
        <ele>93.39880</ele>
        <time>2021-07-01T12:23:28Z</time>
      </trkpt>
      <trkpt lat="42.528618" lon="2.821896">
        <ele>94.52344</ele>
        <time>2021-07-01T12:23:29Z</time>
      </trkpt>
      <trkpt lat="42.528519" lon="2.821806">
        <ele>95.18427</ele>
        <time>2021-07-01T12:23:30Z</time>
      </trkpt>
      <trkpt lat="42.528519" lon="2.821806">
        <ele>96.06494</ele>
        <time>2021-07-01T12:23:31Z</time>
      </trkpt>
      <trkpt lat="42.528400" lon="2.821702">
        <ele>95.75946</ele>
        <time>2021-07-01T12:23:32Z</time>
      </trkpt>
      <trkpt lat="42.528339" lon="2.821652">
        <ele>95.53223</ele>
        <time>2021-07-01T12:23:33Z</time>
      </trkpt>
      <trkpt lat="42.528255" lon="2.821586">
        <ele>94.18384</ele>
        <time>2021-07-01T12:23:34Z</time>
      </trkpt>
      <trkpt lat="42.528187" lon="2.821529">
        <ele>93.57532</ele>
        <time>2021-07-01T12:23:36Z</time>
      </trkpt>
      <trkpt lat="42.528141" lon="2.821493">
        <ele>93.24365</ele>
        <time>2021-07-01T12:23:36Z</time>
      </trkpt>
      <trkpt lat="42.528072" lon="2.821439">
        <ele>92.87683</ele>
        <time>2021-07-01T12:23:37Z</time>
      </trkpt>
      <trkpt lat="42.528004" lon="2.821385">
        <ele>92.56079</ele>
        <time>2021-07-01T12:23:38Z</time>
      </trkpt>
      <trkpt lat="42.527973" lon="2.821363">
        <ele>93.15887</ele>
        <time>2021-07-01T12:23:39Z</time>
      </trkpt>
      <trkpt lat="42.527946" lon="2.821346">
        <ele>92.85052</ele>
        <time>2021-07-01T12:23:40Z</time>
      </trkpt>
      <trkpt lat="42.527939" lon="2.821341">
        <ele>92.18835</ele>
        <time>2021-07-01T12:23:41Z</time>
      </trkpt>
      <trkpt lat="42.527939" lon="2.821341">
        <ele>91.37341</ele>
        <time>2021-07-01T12:23:42Z</time>
      </trkpt>
      <trkpt lat="42.527882" lon="2.821303">
        <ele>91.35791</ele>
        <time>2021-07-01T12:23:43Z</time>
      </trkpt>
      <trkpt lat="42.527882" lon="2.821303">
        <ele>91.24744</ele>
        <time>2021-07-01T12:23:44Z</time>
      </trkpt>
      <trkpt lat="42.527878" lon="2.821299">
        <ele>90.23450</ele>
        <time>2021-07-01T12:23:45Z</time>
      </trkpt>
      <trkpt lat="42.527851" lon="2.821282">
        <ele>89.85742</ele>
        <time>2021-07-01T12:23:46Z</time>
      </trkpt>
      <trkpt lat="42.527840" lon="2.821274">
        <ele>88.85590</ele>
        <time>2021-07-01T12:23:47Z</time>
      </trkpt>
      <trkpt lat="42.527824" lon="2.821263">
        <ele>89.06055</ele>
        <time>2021-07-01T12:23:48Z</time>
      </trkpt>
      <trkpt lat="42.527824" lon="2.821263">
        <ele>88.98145</ele>
        <time>2021-07-01T12:23:49Z</time>
      </trkpt>
      <trkpt lat="42.527824" lon="2.821263">
        <ele>88.95770</ele>
        <time>2021-07-01T12:23:50Z</time>
      </trkpt>
      <trkpt lat="42.527824" lon="2.821263">
        <ele>89.01837</ele>
        <time>2021-07-01T12:23:51Z</time>
      </trkpt>
      <trkpt lat="42.527824" lon="2.821263">
        <ele>89.83044</ele>
        <time>2021-07-01T12:23:52Z</time>
      </trkpt>
      <trkpt lat="42.527824" lon="2.821263">
        <ele>90.70990</ele>
        <time>2021-07-01T12:23:53Z</time>
      </trkpt>
      <trkpt lat="42.527824" lon="2.821263">
        <ele>91.29608</ele>
        <time>2021-07-01T12:23:54Z</time>
      </trkpt>
      <trkpt lat="42.527824" lon="2.821263">
        <ele>91.14954</ele>
        <time>2021-07-01T12:23:55Z</time>
      </trkpt>
      <trkpt lat="42.527824" lon="2.821263">
        <ele>91.87103</ele>
        <time>2021-07-01T12:23:56Z</time>
      </trkpt>
      <trkpt lat="42.527824" lon="2.821263">
        <ele>92.93182</ele>
        <time>2021-07-01T12:23:57Z</time>
      </trkpt>
      <trkpt lat="42.527824" lon="2.821263">
        <ele>92.94342</ele>
        <time>2021-07-01T12:23:58Z</time>
      </trkpt>
      <trkpt lat="42.527824" lon="2.821263">
        <ele>95.03186</ele>
        <time>2021-07-01T12:23:59Z</time>
      </trkpt>
      <trkpt lat="42.527824" lon="2.821263">
        <ele>93.38287</ele>
        <time>2021-07-01T12:24:00Z</time>
      </trkpt>
      <trkpt lat="42.527824" lon="2.821263">
        <ele>93.40790</ele>
        <time>2021-07-01T12:24:01Z</time>
      </trkpt>
      <trkpt lat="42.527824" lon="2.821263">
        <ele>92.69141</ele>
        <time>2021-07-01T12:24:02Z</time>
      </trkpt>
      <trkpt lat="42.527824" lon="2.821263">
        <ele>94.28607</ele>
        <time>2021-07-01T12:24:03Z</time>
      </trkpt>
      <trkpt lat="42.527824" lon="2.821263">
        <ele>94.64227</ele>
        <time>2021-07-01T12:24:04Z</time>
      </trkpt>
      <trkpt lat="42.527794" lon="2.821244">
        <ele>93.83868</ele>
        <time>2021-07-01T12:24:05Z</time>
      </trkpt>
      <trkpt lat="42.527733" lon="2.821202">
        <ele>93.77966</ele>
        <time>2021-07-01T12:24:06Z</time>
      </trkpt>
      <trkpt lat="42.527458" lon="2.821030">
        <ele>96.61841</ele>
        <time>2021-07-01T12:24:08Z</time>
      </trkpt>
      <trkpt lat="42.527405" lon="2.820996">
        <ele>95.82806</ele>
        <time>2021-07-01T12:24:08Z</time>
      </trkpt>
      <trkpt lat="42.527405" lon="2.820996">
        <ele>95.08990</ele>
        <time>2021-07-01T12:24:10Z</time>
      </trkpt>
      <trkpt lat="42.527164" lon="2.820846">
        <ele>92.95178</ele>
        <time>2021-07-01T12:24:10Z</time>
      </trkpt>
      <trkpt lat="42.527008" lon="2.820748">
        <ele>91.83679</ele>
        <time>2021-07-01T12:24:12Z</time>
      </trkpt>
      <trkpt lat="42.526577" lon="2.820514">
        <ele>91.25549</ele>
        <time>2021-07-01T12:24:12Z</time>
      </trkpt>
      <trkpt lat="42.526466" lon="2.820459">
        <ele>91.06140</ele>
        <time>2021-07-01T12:24:13Z</time>
      </trkpt>
      <trkpt lat="42.526279" lon="2.820365">
        <ele>89.56250</ele>
        <time>2021-07-01T12:24:14Z</time>
      </trkpt>
      <trkpt lat="42.526211" lon="2.820332">
        <ele>91.14618</ele>
        <time>2021-07-01T12:24:15Z</time>
      </trkpt>
      <trkpt lat="42.525967" lon="2.820208">
        <ele>92.07758</ele>
        <time>2021-07-01T12:24:16Z</time>
      </trkpt>
      <trkpt lat="42.525776" lon="2.820114">
        <ele>92.22076</ele>
        <time>2021-07-01T12:24:17Z</time>
      </trkpt>
      <trkpt lat="42.525547" lon="2.820010">
        <ele>91.77368</ele>
        <time>2021-07-01T12:24:18Z</time>
      </trkpt>
      <trkpt lat="42.525013" lon="2.819797">
        <ele>91.52844</ele>
        <time>2021-07-01T12:24:19Z</time>
      </trkpt>
      <trkpt lat="42.524765" lon="2.819707">
        <ele>92.25586</ele>
        <time>2021-07-01T12:24:20Z</time>
      </trkpt>
      <trkpt lat="42.524410" lon="2.819583">
        <ele>92.71912</ele>
        <time>2021-07-01T12:24:21Z</time>
      </trkpt>
      <trkpt lat="42.524410" lon="2.819583">
        <ele>92.13104</ele>
        <time>2021-07-01T12:24:23Z</time>
      </trkpt>
      <trkpt lat="42.524090" lon="2.819496">
        <ele>92.81970</ele>
        <time>2021-07-01T12:24:23Z</time>
      </trkpt>
      <trkpt lat="42.523830" lon="2.819425">
        <ele>93.28125</ele>
        <time>2021-07-01T12:24:24Z</time>
      </trkpt>
      <trkpt lat="42.523666" lon="2.819382">
        <ele>91.62769</ele>
        <time>2021-07-01T12:24:25Z</time>
      </trkpt>
      <trkpt lat="42.523247" lon="2.819291">
        <ele>91.25183</ele>
        <time>2021-07-01T12:24:26Z</time>
      </trkpt>
      <trkpt lat="42.522987" lon="2.819241">
        <ele>90.22668</ele>
        <time>2021-07-01T12:24:27Z</time>
      </trkpt>
      <trkpt lat="42.522785" lon="2.819207">
        <ele>91.22791</ele>
        <time>2021-07-01T12:24:28Z</time>
      </trkpt>
      <trkpt lat="42.522625" lon="2.819173">
        <ele>90.67029</ele>
        <time>2021-07-01T12:24:29Z</time>
      </trkpt>
      <trkpt lat="42.522152" lon="2.819112">
        <ele>90.87842</ele>
        <time>2021-07-01T12:24:30Z</time>
      </trkpt>
      <trkpt lat="42.521976" lon="2.819091">
        <ele>91.40552</ele>
        <time>2021-07-01T12:24:31Z</time>
      </trkpt>
      <trkpt lat="42.521461" lon="2.819038">
        <ele>91.43835</ele>
        <time>2021-07-01T12:24:32Z</time>
      </trkpt>
      <trkpt lat="42.521374" lon="2.819030">
        <ele>90.83368</ele>
        <time>2021-07-01T12:24:33Z</time>
      </trkpt>
      <trkpt lat="42.520817" lon="2.818988">
        <ele>89.93201</ele>
        <time>2021-07-01T12:24:35Z</time>
      </trkpt>
      <trkpt lat="42.520576" lon="2.818971">
        <ele>89.84338</ele>
        <time>2021-07-01T12:24:35Z</time>
      </trkpt>
      <trkpt lat="42.520287" lon="2.818950">
        <ele>89.63867</ele>
        <time>2021-07-01T12:24:36Z</time>
      </trkpt>
      <trkpt lat="42.519852" lon="2.818920">
        <ele>89.76276</ele>
        <time>2021-07-01T12:24:37Z</time>
      </trkpt>
      <trkpt lat="42.519852" lon="2.818920">
        <ele>89.15320</ele>
        <time>2021-07-01T12:24:38Z</time>
      </trkpt>
      <trkpt lat="42.519421" lon="2.818889">
        <ele>88.82776</ele>
        <time>2021-07-01T12:24:39Z</time>
      </trkpt>
      <trkpt lat="42.518970" lon="2.818858">
        <ele>88.10022</ele>
        <time>2021-07-01T12:24:40Z</time>
      </trkpt>
      <trkpt lat="42.518539" lon="2.818828">
        <ele>87.56610</ele>
        <time>2021-07-01T12:24:41Z</time>
      </trkpt>
      <trkpt lat="42.518150" lon="2.818800">
        <ele>87.94574</ele>
        <time>2021-07-01T12:24:42Z</time>
      </trkpt>
      <trkpt lat="42.517803" lon="2.818772">
        <ele>88.44794</ele>
        <time>2021-07-01T12:24:43Z</time>
      </trkpt>
      <trkpt lat="42.517387" lon="2.818738">
        <ele>88.28479</ele>
        <time>2021-07-01T12:24:45Z</time>
      </trkpt>
      <trkpt lat="42.517040" lon="2.818712">
        <ele>88.45605</ele>
        <time>2021-07-01T12:24:45Z</time>
      </trkpt>
      <trkpt lat="42.516865" lon="2.818699">
        <ele>88.48230</ele>
        <time>2021-07-01T12:24:46Z</time>
      </trkpt>
      <trkpt lat="42.516228" lon="2.818655">
        <ele>88.42889</ele>
        <time>2021-07-01T12:24:47Z</time>
      </trkpt>
      <trkpt lat="42.515839" lon="2.818628">
        <ele>88.49896</ele>
        <time>2021-07-01T12:24:48Z</time>
      </trkpt>
      <trkpt lat="42.515469" lon="2.818598">
        <ele>89.30725</ele>
        <time>2021-07-01T12:24:49Z</time>
      </trkpt>
      <trkpt lat="42.515118" lon="2.818564">
        <ele>89.12012</ele>
        <time>2021-07-01T12:24:50Z</time>
      </trkpt>
      <trkpt lat="42.514942" lon="2.818547">
        <ele>89.23553</ele>
        <time>2021-07-01T12:24:51Z</time>
      </trkpt>
      <trkpt lat="42.514942" lon="2.818547">
        <ele>89.04102</ele>
        <time>2021-07-01T12:24:52Z</time>
      </trkpt>
      <trkpt lat="42.514221" lon="2.818485">
        <ele>89.15649</ele>
        <time>2021-07-01T12:24:53Z</time>
      </trkpt>
      <trkpt lat="42.513908" lon="2.818459">
        <ele>89.72241</ele>
        <time>2021-07-01T12:24:54Z</time>
      </trkpt>
      <trkpt lat="42.513496" lon="2.818425">
        <ele>89.53827</ele>
        <time>2021-07-01T12:24:55Z</time>
      </trkpt>
      <trkpt lat="42.513138" lon="2.818395">
        <ele>90.04016</ele>
        <time>2021-07-01T12:24:56Z</time>
      </trkpt>
      <trkpt lat="42.512768" lon="2.818364">
        <ele>90.34082</ele>
        <time>2021-07-01T12:24:57Z</time>
      </trkpt>
      <trkpt lat="42.512398" lon="2.818339">
        <ele>90.16333</ele>
        <time>2021-07-01T12:24:58Z</time>
      </trkpt>
      <trkpt lat="42.512043" lon="2.818317">
        <ele>90.61987</ele>
        <time>2021-07-01T12:25:00Z</time>
      </trkpt>
      <trkpt lat="42.511620" lon="2.818292">
        <ele>90.74573</ele>
        <time>2021-07-01T12:25:00Z</time>
      </trkpt>
      <trkpt lat="42.511246" lon="2.818270">
        <ele>91.57617</ele>
        <time>2021-07-01T12:25:01Z</time>
      </trkpt>
      <trkpt lat="42.510860" lon="2.818247">
        <ele>92.19177</ele>
        <time>2021-07-01T12:25:02Z</time>
      </trkpt>
      <trkpt lat="42.510441" lon="2.818221">
        <ele>92.24902</ele>
        <time>2021-07-01T12:25:04Z</time>
      </trkpt>
      <trkpt lat="42.510117" lon="2.818200">
        <ele>92.22443</ele>
        <time>2021-07-01T12:25:05Z</time>
      </trkpt>
      <trkpt lat="42.510117" lon="2.818200">
        <ele>92.10767</ele>
        <time>2021-07-01T12:25:05Z</time>
      </trkpt>
      <trkpt lat="42.509750" lon="2.818172">
        <ele>92.55640</ele>
        <time>2021-07-01T12:25:06Z</time>
      </trkpt>
      <trkpt lat="42.509377" lon="2.818144">
        <ele>93.96082</ele>
        <time>2021-07-01T12:25:07Z</time>
      </trkpt>
      <trkpt lat="42.509033" lon="2.818117">
        <ele>95.00385</ele>
        <time>2021-07-01T12:25:08Z</time>
      </trkpt>
      <trkpt lat="42.508675" lon="2.818090">
        <ele>95.58118</ele>
        <time>2021-07-01T12:25:10Z</time>
      </trkpt>
      <trkpt lat="42.508259" lon="2.818057">
        <ele>96.42108</ele>
        <time>2021-07-01T12:25:11Z</time>
      </trkpt>
      <trkpt lat="42.507893" lon="2.818029">
        <ele>96.80237</ele>
        <time>2021-07-01T12:25:11Z</time>
      </trkpt>
      <trkpt lat="42.507500" lon="2.818004">
        <ele>96.21924</ele>
        <time>2021-07-01T12:25:12Z</time>
      </trkpt>
      <trkpt lat="42.507137" lon="2.817980">
        <ele>96.38898</ele>
        <time>2021-07-01T12:25:13Z</time>
      </trkpt>
      <trkpt lat="42.506760" lon="2.817956">
        <ele>95.99854</ele>
        <time>2021-07-01T12:25:14Z</time>
      </trkpt>
      <trkpt lat="42.506672" lon="2.817950">
        <ele>96.97351</ele>
        <time>2021-07-01T12:25:15Z</time>
      </trkpt>
      <trkpt lat="42.506355" lon="2.817929">
        <ele>97.28674</ele>
        <time>2021-07-01T12:25:16Z</time>
      </trkpt>
      <trkpt lat="42.505779" lon="2.817892">
        <ele>97.79156</ele>
        <time>2021-07-01T12:25:17Z</time>
      </trkpt>
      <trkpt lat="42.505283" lon="2.817860">
        <ele>97.71619</ele>
        <time>2021-07-01T12:25:18Z</time>
      </trkpt>
      <trkpt lat="42.504868" lon="2.817849">
        <ele>98.34680</ele>
        <time>2021-07-01T12:25:19Z</time>
      </trkpt>
      <trkpt lat="42.504532" lon="2.817856">
        <ele>99.05743</ele>
        <time>2021-07-01T12:25:20Z</time>
      </trkpt>
      <trkpt lat="42.504532" lon="2.817856">
        <ele>98.93604</ele>
        <time>2021-07-01T12:25:21Z</time>
      </trkpt>
      <trkpt lat="42.504108" lon="2.817883">
        <ele>99.12170</ele>
        <time>2021-07-01T12:25:22Z</time>
      </trkpt>
      <trkpt lat="42.503761" lon="2.817924">
        <ele>97.61084</ele>
        <time>2021-07-01T12:25:23Z</time>
      </trkpt>
      <trkpt lat="42.503387" lon="2.817981">
        <ele>97.61346</ele>
        <time>2021-07-01T12:25:24Z</time>
      </trkpt>
      <trkpt lat="42.503010" lon="2.818071">
        <ele>97.41321</ele>
        <time>2021-07-01T12:25:25Z</time>
      </trkpt>
      <trkpt lat="42.502850" lon="2.818117">
        <ele>97.80994</ele>
        <time>2021-07-01T12:25:26Z</time>
      </trkpt>
      <trkpt lat="42.502460" lon="2.818255">
        <ele>98.79907</ele>
        <time>2021-07-01T12:25:27Z</time>
      </trkpt>
      <trkpt lat="42.502079" lon="2.818388">
        <ele>99.30194</ele>
        <time>2021-07-01T12:25:28Z</time>
      </trkpt>
      <trkpt lat="42.501537" lon="2.818624">
        <ele>99.58618</ele>
        <time>2021-07-01T12:25:29Z</time>
      </trkpt>
      <trkpt lat="42.501225" lon="2.818799">
        <ele>100.79944</ele>
        <time>2021-07-01T12:25:30Z</time>
      </trkpt>
      <trkpt lat="42.500877" lon="2.819007">
        <ele>101.43982</ele>
        <time>2021-07-01T12:25:31Z</time>
      </trkpt>
      <trkpt lat="42.500534" lon="2.819249">
        <ele>102.70349</ele>
        <time>2021-07-01T12:25:32Z</time>
      </trkpt>
      <trkpt lat="42.500195" lon="2.819509">
        <ele>104.66309</ele>
        <time>2021-07-01T12:25:33Z</time>
      </trkpt>
      <trkpt lat="42.500050" lon="2.819628">
        <ele>106.05463</ele>
        <time>2021-07-01T12:25:34Z</time>
      </trkpt>
      <trkpt lat="42.500050" lon="2.819628">
        <ele>106.03052</ele>
        <time>2021-07-01T12:25:35Z</time>
      </trkpt>
      <trkpt lat="42.499481" lon="2.820159">
        <ele>105.96326</ele>
        <time>2021-07-01T12:25:36Z</time>
      </trkpt>
      <trkpt lat="42.499226" lon="2.820423">
        <ele>106.71375</ele>
        <time>2021-07-01T12:25:37Z</time>
      </trkpt>
      <trkpt lat="42.498955" lon="2.820735">
        <ele>107.94672</ele>
        <time>2021-07-01T12:25:38Z</time>
      </trkpt>
      <trkpt lat="42.498692" lon="2.821051">
        <ele>109.46271</ele>
        <time>2021-07-01T12:25:39Z</time>
      </trkpt>
      <trkpt lat="42.498402" lon="2.821449">
        <ele>111.07654</ele>
        <time>2021-07-01T12:25:40Z</time>
      </trkpt>
      <trkpt lat="42.498158" lon="2.821817">
        <ele>112.65295</ele>
        <time>2021-07-01T12:25:41Z</time>
      </trkpt>
      <trkpt lat="42.497898" lon="2.822226">
        <ele>114.31720</ele>
        <time>2021-07-01T12:25:42Z</time>
      </trkpt>
      <trkpt lat="42.497677" lon="2.822622">
        <ele>115.86963</ele>
        <time>2021-07-01T12:25:43Z</time>
      </trkpt>
      <trkpt lat="42.497486" lon="2.822985">
        <ele>117.74011</ele>
        <time>2021-07-01T12:25:44Z</time>
      </trkpt>
      <trkpt lat="42.497326" lon="2.823335">
        <ele>119.54028</ele>
        <time>2021-07-01T12:25:46Z</time>
      </trkpt>
      <trkpt lat="42.497139" lon="2.823749">
        <ele>121.29645</ele>
        <time>2021-07-01T12:25:46Z</time>
      </trkpt>
      <trkpt lat="42.496956" lon="2.824216">
        <ele>122.46844</ele>
        <time>2021-07-01T12:25:47Z</time>
      </trkpt>
      <trkpt lat="42.496956" lon="2.824216">
        <ele>123.96570</ele>
        <time>2021-07-01T12:25:48Z</time>
      </trkpt>
      <trkpt lat="42.496792" lon="2.824658">
        <ele>124.92987</ele>
        <time>2021-07-01T12:25:49Z</time>
      </trkpt>
      <trkpt lat="42.496632" lon="2.825140">
        <ele>124.86926</ele>
        <time>2021-07-01T12:25:50Z</time>
      </trkpt>
      <trkpt lat="42.496510" lon="2.825529">
        <ele>125.97485</ele>
        <time>2021-07-01T12:25:51Z</time>
      </trkpt>
      <trkpt lat="42.496368" lon="2.826014">
        <ele>127.26959</ele>
        <time>2021-07-01T12:25:52Z</time>
      </trkpt>
      <trkpt lat="42.496231" lon="2.826466">
        <ele>128.89111</ele>
        <time>2021-07-01T12:25:53Z</time>
      </trkpt>
      <trkpt lat="42.496098" lon="2.826918">
        <ele>129.32703</ele>
        <time>2021-07-01T12:25:54Z</time>
      </trkpt>
      <trkpt lat="42.495964" lon="2.827338">
        <ele>130.93073</ele>
        <time>2021-07-01T12:25:55Z</time>
      </trkpt>
      <trkpt lat="42.495827" lon="2.827749">
        <ele>131.95685</ele>
        <time>2021-07-01T12:25:56Z</time>
      </trkpt>
      <trkpt lat="42.495689" lon="2.828096">
        <ele>134.06958</ele>
        <time>2021-07-01T12:25:57Z</time>
      </trkpt>
      <trkpt lat="42.495541" lon="2.828469">
        <ele>135.96710</ele>
        <time>2021-07-01T12:25:58Z</time>
      </trkpt>
      <trkpt lat="42.495354" lon="2.828859">
        <ele>137.24683</ele>
        <time>2021-07-01T12:25:59Z</time>
      </trkpt>
      <trkpt lat="42.495354" lon="2.828859">
        <ele>138.37842</ele>
        <time>2021-07-01T12:26:00Z</time>
      </trkpt>
      <trkpt lat="42.495163" lon="2.829225">
        <ele>138.78577</ele>
        <time>2021-07-01T12:26:01Z</time>
      </trkpt>
      <trkpt lat="42.494984" lon="2.829540">
        <ele>139.79163</ele>
        <time>2021-07-01T12:26:02Z</time>
      </trkpt>
      <trkpt lat="42.494774" lon="2.829877">
        <ele>141.10333</ele>
        <time>2021-07-01T12:26:04Z</time>
      </trkpt>
      <trkpt lat="42.494682" lon="2.830021">
        <ele>141.94031</ele>
        <time>2021-07-01T12:26:04Z</time>
      </trkpt>
      <trkpt lat="42.494316" lon="2.830557">
        <ele>142.49811</ele>
        <time>2021-07-01T12:26:05Z</time>
      </trkpt>
      <trkpt lat="42.494148" lon="2.830797">
        <ele>143.23596</ele>
        <time>2021-07-01T12:26:06Z</time>
      </trkpt>
      <trkpt lat="42.494003" lon="2.831002">
        <ele>144.62128</ele>
        <time>2021-07-01T12:26:07Z</time>
      </trkpt>
      <trkpt lat="42.493793" lon="2.831296">
        <ele>145.62964</ele>
        <time>2021-07-01T12:26:08Z</time>
      </trkpt>
      <trkpt lat="42.493614" lon="2.831554">
        <ele>146.91602</ele>
        <time>2021-07-01T12:26:09Z</time>
      </trkpt>
      <trkpt lat="42.493614" lon="2.831554">
        <ele>148.55676</ele>
        <time>2021-07-01T12:26:10Z</time>
      </trkpt>
      <trkpt lat="42.493397" lon="2.831869">
        <ele>150.05206</ele>
        <time>2021-07-01T12:26:11Z</time>
      </trkpt>
      <trkpt lat="42.493237" lon="2.832120">
        <ele>150.64307</ele>
        <time>2021-07-01T12:26:12Z</time>
      </trkpt>
      <trkpt lat="42.493046" lon="2.832430">
        <ele>151.39154</ele>
        <time>2021-07-01T12:26:13Z</time>
      </trkpt>
      <trkpt lat="42.492855" lon="2.832732">
        <ele>151.96497</ele>
        <time>2021-07-01T12:26:14Z</time>
      </trkpt>
      <trkpt lat="42.492699" lon="2.833014">
        <ele>152.26935</ele>
        <time>2021-07-01T12:26:15Z</time>
      </trkpt>
      <trkpt lat="42.492519" lon="2.833342">
        <ele>153.47119</ele>
        <time>2021-07-01T12:26:16Z</time>
      </trkpt>
      <trkpt lat="42.492344" lon="2.833657">
        <ele>154.22095</ele>
        <time>2021-07-01T12:26:17Z</time>
      </trkpt>
      <trkpt lat="42.492165" lon="2.833982">
        <ele>155.81293</ele>
        <time>2021-07-01T12:26:18Z</time>
      </trkpt>
      <trkpt lat="42.492027" lon="2.834245">
        <ele>156.38519</ele>
        <time>2021-07-01T12:26:19Z</time>
      </trkpt>
      <trkpt lat="42.491871" lon="2.834544">
        <ele>157.60602</ele>
        <time>2021-07-01T12:26:20Z</time>
      </trkpt>
      <trkpt lat="42.491871" lon="2.834544">
        <ele>158.21558</ele>
        <time>2021-07-01T12:26:21Z</time>
      </trkpt>
      <trkpt lat="42.491692" lon="2.834881">
        <ele>159.63074</ele>
        <time>2021-07-01T12:26:22Z</time>
      </trkpt>
      <trkpt lat="42.491600" lon="2.835054">
        <ele>161.30438</ele>
        <time>2021-07-01T12:26:23Z</time>
      </trkpt>
      <trkpt lat="42.491478" lon="2.835271">
        <ele>162.14203</ele>
        <time>2021-07-01T12:26:24Z</time>
      </trkpt>
      <trkpt lat="42.491196" lon="2.835793">
        <ele>162.72235</ele>
        <time>2021-07-01T12:26:25Z</time>
      </trkpt>
      <trkpt lat="42.491077" lon="2.836005">
        <ele>163.35016</ele>
        <time>2021-07-01T12:26:26Z</time>
      </trkpt>
      <trkpt lat="42.490898" lon="2.836330">
        <ele>165.25378</ele>
        <time>2021-07-01T12:26:27Z</time>
      </trkpt>
      <trkpt lat="42.490742" lon="2.836613">
        <ele>166.66901</ele>
        <time>2021-07-01T12:26:29Z</time>
      </trkpt>
      <trkpt lat="42.490578" lon="2.836894">
        <ele>168.85583</ele>
        <time>2021-07-01T12:26:29Z</time>
      </trkpt>
      <trkpt lat="42.490536" lon="2.836965">
        <ele>170.26312</ele>
        <time>2021-07-01T12:26:30Z</time>
      </trkpt>
      <trkpt lat="42.490276" lon="2.837415">
        <ele>170.53632</ele>
        <time>2021-07-01T12:26:31Z</time>
      </trkpt>
      <trkpt lat="42.490086" lon="2.837729">
        <ele>171.89655</ele>
        <time>2021-07-01T12:26:32Z</time>
      </trkpt>
      <trkpt lat="42.489902" lon="2.838033">
        <ele>172.76221</ele>
        <time>2021-07-01T12:26:33Z</time>
      </trkpt>
      <trkpt lat="42.489902" lon="2.838033">
        <ele>174.43518</ele>
        <time>2021-07-01T12:26:34Z</time>
      </trkpt>
      <trkpt lat="42.489731" lon="2.838319">
        <ele>176.00330</ele>
        <time>2021-07-01T12:26:35Z</time>
      </trkpt>
      <trkpt lat="42.489544" lon="2.838616">
        <ele>177.10748</ele>
        <time>2021-07-01T12:26:36Z</time>
      </trkpt>
      <trkpt lat="42.489365" lon="2.838893">
        <ele>178.28766</ele>
        <time>2021-07-01T12:26:37Z</time>
      </trkpt>
      <trkpt lat="42.489182" lon="2.839175">
        <ele>179.27057</ele>
        <time>2021-07-01T12:26:38Z</time>
      </trkpt>
      <trkpt lat="42.489002" lon="2.839448">
        <ele>180.77429</ele>
        <time>2021-07-01T12:26:39Z</time>
      </trkpt>
      <trkpt lat="42.488800" lon="2.839741">
        <ele>182.44067</ele>
        <time>2021-07-01T12:26:40Z</time>
      </trkpt>
      <trkpt lat="42.488621" lon="2.839999">
        <ele>183.05347</ele>
        <time>2021-07-01T12:26:41Z</time>
      </trkpt>
      <trkpt lat="42.488403" lon="2.840313">
        <ele>185.31006</ele>
        <time>2021-07-01T12:26:42Z</time>
      </trkpt>
      <trkpt lat="42.488224" lon="2.840574">
        <ele>188.20764</ele>
        <time>2021-07-01T12:26:43Z</time>
      </trkpt>
      <trkpt lat="42.488018" lon="2.840868">
        <ele>189.47552</ele>
        <time>2021-07-01T12:26:44Z</time>
      </trkpt>
      <trkpt lat="42.487816" lon="2.841146">
        <ele>191.39496</ele>
        <time>2021-07-01T12:26:45Z</time>
      </trkpt>
      <trkpt lat="42.487816" lon="2.841146">
        <ele>193.39783</ele>
        <time>2021-07-01T12:26:46Z</time>
      </trkpt>
      <trkpt lat="42.487614" lon="2.841410">
        <ele>195.81372</ele>
        <time>2021-07-01T12:26:47Z</time>
      </trkpt>
      <trkpt lat="42.487404" lon="2.841681">
        <ele>197.22058</ele>
        <time>2021-07-01T12:26:48Z</time>
      </trkpt>
      <trkpt lat="42.487232" lon="2.841904">
        <ele>198.03265</ele>
        <time>2021-07-01T12:26:49Z</time>
      </trkpt>
      <trkpt lat="42.487026" lon="2.842157">
        <ele>198.74347</ele>
        <time>2021-07-01T12:26:50Z</time>
      </trkpt>
      <trkpt lat="42.486778" lon="2.842450">
        <ele>200.70349</ele>
        <time>2021-07-01T12:26:51Z</time>
      </trkpt>
      <trkpt lat="42.486664" lon="2.842576">
        <ele>201.97174</ele>
        <time>2021-07-01T12:26:52Z</time>
      </trkpt>
      <trkpt lat="42.486294" lon="2.842957">
        <ele>203.51996</ele>
        <time>2021-07-01T12:26:54Z</time>
      </trkpt>
      <trkpt lat="42.485935" lon="2.843285">
        <ele>205.32422</ele>
        <time>2021-07-01T12:26:54Z</time>
      </trkpt>
      <trkpt lat="42.485672" lon="2.843484">
        <ele>205.92157</ele>
        <time>2021-07-01T12:26:55Z</time>
      </trkpt>
      <trkpt lat="42.485390" lon="2.843675">
        <ele>207.28821</ele>
        <time>2021-07-01T12:26:56Z</time>
      </trkpt>
      <trkpt lat="42.485390" lon="2.843675">
        <ele>209.34827</ele>
        <time>2021-07-01T12:26:57Z</time>
      </trkpt>
      <trkpt lat="42.485092" lon="2.843864">
        <ele>210.40552</ele>
        <time>2021-07-01T12:26:58Z</time>
      </trkpt>
      <trkpt lat="42.484802" lon="2.844032">
        <ele>211.84033</ele>
        <time>2021-07-01T12:26:59Z</time>
      </trkpt>
      <trkpt lat="42.484516" lon="2.844171">
        <ele>214.12939</ele>
        <time>2021-07-01T12:27:00Z</time>
      </trkpt>
      <trkpt lat="42.484192" lon="2.844305">
        <ele>216.72375</ele>
        <time>2021-07-01T12:27:01Z</time>
      </trkpt>
      <trkpt lat="42.483913" lon="2.844404">
        <ele>218.74707</ele>
        <time>2021-07-01T12:27:02Z</time>
      </trkpt>
      <trkpt lat="42.483616" lon="2.844499">
        <ele>220.42456</ele>
        <time>2021-07-01T12:27:03Z</time>
      </trkpt>
      <trkpt lat="42.483288" lon="2.844596">
        <ele>223.05835</ele>
        <time>2021-07-01T12:27:04Z</time>
      </trkpt>
      <trkpt lat="42.482971" lon="2.844693">
        <ele>224.66052</ele>
        <time>2021-07-01T12:27:05Z</time>
      </trkpt>
      <trkpt lat="42.482643" lon="2.844794">
        <ele>226.10535</ele>
        <time>2021-07-01T12:27:06Z</time>
      </trkpt>
      <trkpt lat="42.482334" lon="2.844901">
        <ele>228.32788</ele>
        <time>2021-07-01T12:27:07Z</time>
      </trkpt>
      <trkpt lat="42.482025" lon="2.845030">
        <ele>229.57678</ele>
        <time>2021-07-01T12:27:08Z</time>
      </trkpt>
      <trkpt lat="42.481735" lon="2.845175">
        <ele>230.45532</ele>
        <time>2021-07-01T12:27:09Z</time>
      </trkpt>
      <trkpt lat="42.481697" lon="2.845196">
        <ele>231.85425</ele>
        <time>2021-07-01T12:27:10Z</time>
      </trkpt>
      <trkpt lat="42.481030" lon="2.845624">
        <ele>232.43738</ele>
        <time>2021-07-01T12:27:11Z</time>
      </trkpt>
      <trkpt lat="42.481030" lon="2.845624">
        <ele>233.10706</ele>
        <time>2021-07-01T12:27:12Z</time>
      </trkpt>
      <trkpt lat="42.480797" lon="2.845791">
        <ele>235.34241</ele>
        <time>2021-07-01T12:27:13Z</time>
      </trkpt>
      <trkpt lat="42.480530" lon="2.846002">
        <ele>237.16455</ele>
        <time>2021-07-01T12:27:14Z</time>
      </trkpt>
      <trkpt lat="42.480206" lon="2.846301">
        <ele>238.80859</ele>
        <time>2021-07-01T12:27:15Z</time>
      </trkpt>
      <trkpt lat="42.479969" lon="2.846536">
        <ele>240.43555</ele>
        <time>2021-07-01T12:27:16Z</time>
      </trkpt>
      <trkpt lat="42.479694" lon="2.846862">
        <ele>241.73523</ele>
        <time>2021-07-01T12:27:17Z</time>
      </trkpt>
      <trkpt lat="42.479412" lon="2.847216">
        <ele>243.47485</ele>
        <time>2021-07-01T12:27:18Z</time>
      </trkpt>
      <trkpt lat="42.479229" lon="2.847452">
        <ele>245.34662</ele>
        <time>2021-07-01T12:27:19Z</time>
      </trkpt>
      <trkpt lat="42.479179" lon="2.847513">
        <ele>246.83923</ele>
        <time>2021-07-01T12:27:21Z</time>
      </trkpt>
      <trkpt lat="42.478703" lon="2.848191">
        <ele>248.49792</ele>
        <time>2021-07-01T12:27:21Z</time>
      </trkpt>
      <trkpt lat="42.478523" lon="2.848442">
        <ele>250.83698</ele>
        <time>2021-07-01T12:27:22Z</time>
      </trkpt>
      <trkpt lat="42.478283" lon="2.848798">
        <ele>252.47888</ele>
        <time>2021-07-01T12:27:24Z</time>
      </trkpt>
      <trkpt lat="42.478283" lon="2.848798">
        <ele>254.07733</ele>
        <time>2021-07-01T12:27:24Z</time>
      </trkpt>
      <trkpt lat="42.478043" lon="2.849161">
        <ele>256.06677</ele>
        <time>2021-07-01T12:27:25Z</time>
      </trkpt>
      <trkpt lat="42.477821" lon="2.849516">
        <ele>258.23291</ele>
        <time>2021-07-01T12:27:26Z</time>
      </trkpt>
      <trkpt lat="42.477650" lon="2.849805">
        <ele>260.14655</ele>
        <time>2021-07-01T12:27:27Z</time>
      </trkpt>
      <trkpt lat="42.477432" lon="2.850187">
        <ele>261.48560</ele>
        <time>2021-07-01T12:27:28Z</time>
      </trkpt>
      <trkpt lat="42.477226" lon="2.850607">
        <ele>263.25464</ele>
        <time>2021-07-01T12:27:29Z</time>
      </trkpt>
      <trkpt lat="42.477047" lon="2.850969">
        <ele>263.83752</ele>
        <time>2021-07-01T12:27:30Z</time>
      </trkpt>
      <trkpt lat="42.477032" lon="2.850997">
        <ele>265.34473</ele>
        <time>2021-07-01T12:27:31Z</time>
      </trkpt>
      <trkpt lat="42.476719" lon="2.851800">
        <ele>266.60114</ele>
        <time>2021-07-01T12:27:32Z</time>
      </trkpt>
      <trkpt lat="42.476700" lon="2.851857">
        <ele>268.55243</ele>
        <time>2021-07-01T12:27:33Z</time>
      </trkpt>
      <trkpt lat="42.476452" lon="2.852665">
        <ele>269.91913</ele>
        <time>2021-07-01T12:27:34Z</time>
      </trkpt>
      <trkpt lat="42.476391" lon="2.852919">
        <ele>271.57733</ele>
        <time>2021-07-01T12:27:35Z</time>
      </trkpt>
      <trkpt lat="42.476391" lon="2.852919">
        <ele>273.37732</ele>
        <time>2021-07-01T12:27:36Z</time>
      </trkpt>
      <trkpt lat="42.476292" lon="2.853329">
        <ele>274.81744</ele>
        <time>2021-07-01T12:27:37Z</time>
      </trkpt>
      <trkpt lat="42.476215" lon="2.853693">
        <ele>276.14771</ele>
        <time>2021-07-01T12:27:38Z</time>
      </trkpt>
      <trkpt lat="42.476131" lon="2.854089">
        <ele>278.03705</ele>
        <time>2021-07-01T12:27:39Z</time>
      </trkpt>
      <trkpt lat="42.476051" lon="2.854461">
        <ele>279.24554</ele>
        <time>2021-07-01T12:27:40Z</time>
      </trkpt>
      <trkpt lat="42.475971" lon="2.854837">
        <ele>281.34705</ele>
        <time>2021-07-01T12:27:41Z</time>
      </trkpt>
      <trkpt lat="42.475883" lon="2.855244">
        <ele>282.20117</ele>
        <time>2021-07-01T12:27:42Z</time>
      </trkpt>
      <trkpt lat="42.475796" lon="2.855657">
        <ele>282.91064</ele>
        <time>2021-07-01T12:27:43Z</time>
      </trkpt>
      <trkpt lat="42.475708" lon="2.856000">
        <ele>284.28796</ele>
        <time>2021-07-01T12:27:44Z</time>
      </trkpt>
      <trkpt lat="42.475620" lon="2.856317">
        <ele>286.26855</ele>
        <time>2021-07-01T12:27:45Z</time>
      </trkpt>
      <trkpt lat="42.475513" lon="2.856681">
        <ele>285.98163</ele>
        <time>2021-07-01T12:27:46Z</time>
      </trkpt>
      <trkpt lat="42.475399" lon="2.857033">
        <ele>286.20709</ele>
        <time>2021-07-01T12:27:47Z</time>
      </trkpt>
      <trkpt lat="42.475269" lon="2.857398">
        <ele>287.13513</ele>
        <time>2021-07-01T12:27:48Z</time>
      </trkpt>
      <trkpt lat="42.475269" lon="2.857398">
        <ele>286.98584</ele>
        <time>2021-07-01T12:27:49Z</time>
      </trkpt>
      <trkpt lat="42.475117" lon="2.857787">
        <ele>287.17639</ele>
        <time>2021-07-01T12:27:50Z</time>
      </trkpt>
      <trkpt lat="42.474960" lon="2.858155">
        <ele>287.12622</ele>
        <time>2021-07-01T12:27:51Z</time>
      </trkpt>
      <trkpt lat="42.474785" lon="2.858531">
        <ele>286.39050</ele>
        <time>2021-07-01T12:27:52Z</time>
      </trkpt>
      <trkpt lat="42.474617" lon="2.858863">
        <ele>286.71539</ele>
        <time>2021-07-01T12:27:53Z</time>
      </trkpt>
      <trkpt lat="42.474548" lon="2.858989">
        <ele>287.05493</ele>
        <time>2021-07-01T12:27:54Z</time>
      </trkpt>
      <trkpt lat="42.474319" lon="2.859383">
        <ele>286.72302</ele>
        <time>2021-07-01T12:27:55Z</time>
      </trkpt>
      <trkpt lat="42.474056" lon="2.859833">
        <ele>286.24121</ele>
        <time>2021-07-01T12:27:56Z</time>
      </trkpt>
      <trkpt lat="42.473869" lon="2.860133">
        <ele>286.31848</ele>
        <time>2021-07-01T12:27:57Z</time>
      </trkpt>
      <trkpt lat="42.473682" lon="2.860433">
        <ele>286.84418</ele>
        <time>2021-07-01T12:27:58Z</time>
      </trkpt>
      <trkpt lat="42.473518" lon="2.860700">
        <ele>286.76715</ele>
        <time>2021-07-01T12:27:59Z</time>
      </trkpt>
      <trkpt lat="42.473312" lon="2.861040">
        <ele>286.04663</ele>
        <time>2021-07-01T12:28:00Z</time>
      </trkpt>
      <trkpt lat="42.473312" lon="2.861040">
        <ele>285.97314</ele>
        <time>2021-07-01T12:28:01Z</time>
      </trkpt>
      <trkpt lat="42.473141" lon="2.861311">
        <ele>285.14648</ele>
        <time>2021-07-01T12:28:02Z</time>
      </trkpt>
      <trkpt lat="42.472958" lon="2.861576">
        <ele>284.54218</ele>
        <time>2021-07-01T12:28:03Z</time>
      </trkpt>
      <trkpt lat="42.472740" lon="2.861879">
        <ele>283.70355</ele>
        <time>2021-07-01T12:28:04Z</time>
      </trkpt>
      <trkpt lat="42.472542" lon="2.862122">
        <ele>283.97253</ele>
        <time>2021-07-01T12:28:05Z</time>
      </trkpt>
      <trkpt lat="42.472328" lon="2.862371">
        <ele>283.31329</ele>
        <time>2021-07-01T12:28:06Z</time>
      </trkpt>
      <trkpt lat="42.472122" lon="2.862595">
        <ele>282.78571</ele>
        <time>2021-07-01T12:28:07Z</time>
      </trkpt>
      <trkpt lat="42.471874" lon="2.862845">
        <ele>283.11230</ele>
        <time>2021-07-01T12:28:08Z</time>
      </trkpt>
      <trkpt lat="42.471619" lon="2.863082">
        <ele>283.18860</ele>
        <time>2021-07-01T12:28:09Z</time>
      </trkpt>
      <trkpt lat="42.471371" lon="2.863280">
        <ele>283.53003</ele>
        <time>2021-07-01T12:28:10Z</time>
      </trkpt>
      <trkpt lat="42.471287" lon="2.863343">
        <ele>284.67084</ele>
        <time>2021-07-01T12:28:11Z</time>
      </trkpt>
      <trkpt lat="42.470722" lon="2.863690">
        <ele>284.85681</ele>
        <time>2021-07-01T12:28:12Z</time>
      </trkpt>
      <trkpt lat="42.470722" lon="2.863690">
        <ele>285.80072</ele>
        <time>2021-07-01T12:28:13Z</time>
      </trkpt>
      <trkpt lat="42.470524" lon="2.863799">
        <ele>285.86182</ele>
        <time>2021-07-01T12:28:14Z</time>
      </trkpt>
      <trkpt lat="42.470219" lon="2.863941">
        <ele>287.19202</ele>
        <time>2021-07-01T12:28:15Z</time>
      </trkpt>
      <trkpt lat="42.469898" lon="2.864081">
        <ele>287.10071</ele>
        <time>2021-07-01T12:28:16Z</time>
      </trkpt>
      <trkpt lat="42.469631" lon="2.864180">
        <ele>287.48718</ele>
        <time>2021-07-01T12:28:17Z</time>
      </trkpt>
      <trkpt lat="42.469322" lon="2.864289">
        <ele>288.07910</ele>
        <time>2021-07-01T12:28:18Z</time>
      </trkpt>
      <trkpt lat="42.468990" lon="2.864392">
        <ele>288.74274</ele>
        <time>2021-07-01T12:28:19Z</time>
      </trkpt>
      <trkpt lat="42.468704" lon="2.864458">
        <ele>289.28735</ele>
        <time>2021-07-01T12:28:20Z</time>
      </trkpt>
      <trkpt lat="42.468605" lon="2.864480">
        <ele>290.15979</ele>
        <time>2021-07-01T12:28:21Z</time>
      </trkpt>
      <trkpt lat="42.467918" lon="2.864615">
        <ele>290.38660</ele>
        <time>2021-07-01T12:28:22Z</time>
      </trkpt>
      <trkpt lat="42.467918" lon="2.864615">
        <ele>290.10364</ele>
        <time>2021-07-01T12:28:23Z</time>
      </trkpt>
      <trkpt lat="42.467693" lon="2.864662">
        <ele>290.71808</ele>
        <time>2021-07-01T12:28:24Z</time>
      </trkpt>
      <trkpt lat="42.467461" lon="2.864714">
        <ele>290.53296</ele>
        <time>2021-07-01T12:28:25Z</time>
      </trkpt>
      <trkpt lat="42.466927" lon="2.864835">
        <ele>291.05829</ele>
        <time>2021-07-01T12:28:26Z</time>
      </trkpt>
      <trkpt lat="42.466682" lon="2.864892">
        <ele>290.40668</ele>
        <time>2021-07-01T12:28:27Z</time>
      </trkpt>
      <trkpt lat="42.466339" lon="2.864975">
        <ele>291.07849</ele>
        <time>2021-07-01T12:28:28Z</time>
      </trkpt>
      <trkpt lat="42.466248" lon="2.864998">
        <ele>291.00641</ele>
        <time>2021-07-01T12:28:29Z</time>
      </trkpt>
      <trkpt lat="42.465652" lon="2.865143">
        <ele>290.76672</ele>
        <time>2021-07-01T12:28:30Z</time>
      </trkpt>
      <trkpt lat="42.465351" lon="2.865216">
        <ele>291.07434</ele>
        <time>2021-07-01T12:28:31Z</time>
      </trkpt>
      <trkpt lat="42.465050" lon="2.865289">
        <ele>290.33472</ele>
        <time>2021-07-01T12:28:32Z</time>
      </trkpt>
      <trkpt lat="42.464741" lon="2.865364">
        <ele>290.03406</ele>
        <time>2021-07-01T12:28:33Z</time>
      </trkpt>
      <trkpt lat="42.464420" lon="2.865440">
        <ele>289.78467</ele>
        <time>2021-07-01T12:28:34Z</time>
      </trkpt>
      <trkpt lat="42.464111" lon="2.865515">
        <ele>289.65448</ele>
        <time>2021-07-01T12:28:35Z</time>
      </trkpt>
      <trkpt lat="42.464111" lon="2.865515">
        <ele>289.56226</ele>
        <time>2021-07-01T12:28:36Z</time>
      </trkpt>
      <trkpt lat="42.463833" lon="2.865590">
        <ele>289.12415</ele>
        <time>2021-07-01T12:28:37Z</time>
      </trkpt>
      <trkpt lat="42.463665" lon="2.865633">
        <ele>288.69446</ele>
        <time>2021-07-01T12:28:39Z</time>
      </trkpt>
      <trkpt lat="42.463387" lon="2.865693">
        <ele>288.01617</ele>
        <time>2021-07-01T12:28:39Z</time>
      </trkpt>
      <trkpt lat="42.463047" lon="2.865759">
        <ele>286.52570</ele>
        <time>2021-07-01T12:28:40Z</time>
      </trkpt>
      <trkpt lat="42.462650" lon="2.865820">
        <ele>285.74152</ele>
        <time>2021-07-01T12:28:41Z</time>
      </trkpt>
      <trkpt lat="42.462334" lon="2.865853">
        <ele>284.12207</ele>
        <time>2021-07-01T12:28:42Z</time>
      </trkpt>
      <trkpt lat="42.462048" lon="2.865858">
        <ele>283.14160</ele>
        <time>2021-07-01T12:28:44Z</time>
      </trkpt>
      <trkpt lat="42.461739" lon="2.865854">
        <ele>281.96838</ele>
        <time>2021-07-01T12:28:44Z</time>
      </trkpt>
      <trkpt lat="42.461414" lon="2.865824">
        <ele>280.66663</ele>
        <time>2021-07-01T12:28:45Z</time>
      </trkpt>
      <trkpt lat="42.461384" lon="2.865817">
        <ele>279.42126</ele>
        <time>2021-07-01T12:28:46Z</time>
      </trkpt>
      <trkpt lat="42.460716" lon="2.865652">
        <ele>278.01465</ele>
        <time>2021-07-01T12:28:47Z</time>
      </trkpt>
      <trkpt lat="42.460487" lon="2.865579">
        <ele>276.22034</ele>
        <time>2021-07-01T12:28:48Z</time>
      </trkpt>
      <trkpt lat="42.460487" lon="2.865579">
        <ele>274.30896</ele>
        <time>2021-07-01T12:28:49Z</time>
      </trkpt>
      <trkpt lat="42.460205" lon="2.865486">
        <ele>272.66980</ele>
        <time>2021-07-01T12:28:50Z</time>
      </trkpt>
      <trkpt lat="42.459877" lon="2.865375">
        <ele>269.79797</ele>
        <time>2021-07-01T12:28:51Z</time>
      </trkpt>
      <trkpt lat="42.459595" lon="2.865292">
        <ele>267.95276</ele>
        <time>2021-07-01T12:28:52Z</time>
      </trkpt>
      <trkpt lat="42.459251" lon="2.865215">
        <ele>266.49390</ele>
        <time>2021-07-01T12:28:53Z</time>
      </trkpt>
      <trkpt lat="42.458946" lon="2.865179">
        <ele>264.54590</ele>
        <time>2021-07-01T12:28:54Z</time>
      </trkpt>
      <trkpt lat="42.458668" lon="2.865168">
        <ele>262.51172</ele>
        <time>2021-07-01T12:28:55Z</time>
      </trkpt>
      <trkpt lat="42.458344" lon="2.865186">
        <ele>260.68787</ele>
        <time>2021-07-01T12:28:56Z</time>
      </trkpt>
      <trkpt lat="42.458015" lon="2.865231">
        <ele>258.74670</ele>
        <time>2021-07-01T12:28:57Z</time>
      </trkpt>
      <trkpt lat="42.457668" lon="2.865317">
        <ele>256.97198</ele>
        <time>2021-07-01T12:28:58Z</time>
      </trkpt>
      <trkpt lat="42.457321" lon="2.865421">
        <ele>255.07892</ele>
        <time>2021-07-01T12:28:59Z</time>
      </trkpt>
      <trkpt lat="42.457047" lon="2.865544">
        <ele>252.67627</ele>
        <time>2021-07-01T12:29:00Z</time>
      </trkpt>
      <trkpt lat="42.456745" lon="2.865695">
        <ele>251.18652</ele>
        <time>2021-07-01T12:29:01Z</time>
      </trkpt>
      <trkpt lat="42.456501" lon="2.865852">
        <ele>250.15515</ele>
        <time>2021-07-01T12:29:02Z</time>
      </trkpt>
      <trkpt lat="42.456192" lon="2.866059">
        <ele>248.96301</ele>
        <time>2021-07-01T12:29:04Z</time>
      </trkpt>
      <trkpt lat="42.456192" lon="2.866059">
        <ele>247.62781</ele>
        <time>2021-07-01T12:29:04Z</time>
      </trkpt>
      <trkpt lat="42.455914" lon="2.866256">
        <ele>246.59607</ele>
        <time>2021-07-01T12:29:05Z</time>
      </trkpt>
      <trkpt lat="42.455589" lon="2.866457">
        <ele>244.92023</ele>
        <time>2021-07-01T12:29:06Z</time>
      </trkpt>
      <trkpt lat="42.455280" lon="2.866651">
        <ele>243.60358</ele>
        <time>2021-07-01T12:29:07Z</time>
      </trkpt>
      <trkpt lat="42.454998" lon="2.866823">
        <ele>242.70569</ele>
        <time>2021-07-01T12:29:08Z</time>
      </trkpt>
      <trkpt lat="42.454720" lon="2.866973">
        <ele>241.56195</ele>
        <time>2021-07-01T12:29:09Z</time>
      </trkpt>
      <trkpt lat="42.454678" lon="2.866995">
        <ele>240.23438</ele>
        <time>2021-07-01T12:29:10Z</time>
      </trkpt>
      <trkpt lat="42.453995" lon="2.867216">
        <ele>239.34595</ele>
        <time>2021-07-01T12:29:11Z</time>
      </trkpt>
      <trkpt lat="42.453693" lon="2.867287">
        <ele>237.93579</ele>
        <time>2021-07-01T12:29:12Z</time>
      </trkpt>
      <trkpt lat="42.453434" lon="2.867349">
        <ele>236.81445</ele>
        <time>2021-07-01T12:29:13Z</time>
      </trkpt>
      <trkpt lat="42.453125" lon="2.867422">
        <ele>236.05859</ele>
        <time>2021-07-01T12:29:14Z</time>
      </trkpt>
      <trkpt lat="42.453125" lon="2.867422">
        <ele>234.12640</ele>
        <time>2021-07-01T12:29:15Z</time>
      </trkpt>
      <trkpt lat="42.452930" lon="2.867469">
        <ele>232.95532</ele>
        <time>2021-07-01T12:29:16Z</time>
      </trkpt>
      <trkpt lat="42.452625" lon="2.867541">
        <ele>232.35724</ele>
        <time>2021-07-01T12:29:17Z</time>
      </trkpt>
      <trkpt lat="42.452164" lon="2.867673">
        <ele>231.77521</ele>
        <time>2021-07-01T12:29:18Z</time>
      </trkpt>
      <trkpt lat="42.451935" lon="2.867740">
        <ele>230.43988</ele>
        <time>2021-07-01T12:29:19Z</time>
      </trkpt>
      <trkpt lat="42.451630" lon="2.867835">
        <ele>228.78223</ele>
        <time>2021-07-01T12:29:20Z</time>
      </trkpt>
      <trkpt lat="42.451317" lon="2.867933">
        <ele>227.33844</ele>
        <time>2021-07-01T12:29:21Z</time>
      </trkpt>
      <trkpt lat="42.451015" lon="2.868026">
        <ele>225.93713</ele>
        <time>2021-07-01T12:29:22Z</time>
      </trkpt>
      <trkpt lat="42.450760" lon="2.868090">
        <ele>225.51306</ele>
        <time>2021-07-01T12:29:23Z</time>
      </trkpt>
      <trkpt lat="42.450405" lon="2.868160">
        <ele>224.98474</ele>
        <time>2021-07-01T12:29:24Z</time>
      </trkpt>
      <trkpt lat="42.450405" lon="2.868160">
        <ele>223.10522</ele>
        <time>2021-07-01T12:29:25Z</time>
      </trkpt>
      <trkpt lat="42.450130" lon="2.868186">
        <ele>220.71008</ele>
        <time>2021-07-01T12:29:26Z</time>
      </trkpt>
      <trkpt lat="42.449780" lon="2.868191">
        <ele>219.44177</ele>
        <time>2021-07-01T12:29:27Z</time>
      </trkpt>
      <trkpt lat="42.449455" lon="2.868170">
        <ele>218.48120</ele>
        <time>2021-07-01T12:29:28Z</time>
      </trkpt>
      <trkpt lat="42.449066" lon="2.868115">
        <ele>217.53888</ele>
        <time>2021-07-01T12:29:29Z</time>
      </trkpt>
      <trkpt lat="42.448696" lon="2.868049">
        <ele>216.47217</ele>
        <time>2021-07-01T12:29:30Z</time>
      </trkpt>
      <trkpt lat="42.448288" lon="2.867957">
        <ele>215.12610</ele>
        <time>2021-07-01T12:29:31Z</time>
      </trkpt>
      <trkpt lat="42.447948" lon="2.867896">
        <ele>213.71960</ele>
        <time>2021-07-01T12:29:32Z</time>
      </trkpt>
      <trkpt lat="42.447571" lon="2.867860">
        <ele>213.02264</ele>
        <time>2021-07-01T12:29:33Z</time>
      </trkpt>
      <trkpt lat="42.447235" lon="2.867845">
        <ele>211.81305</ele>
        <time>2021-07-01T12:29:34Z</time>
      </trkpt>
      <trkpt lat="42.446861" lon="2.867866">
        <ele>209.76495</ele>
        <time>2021-07-01T12:29:35Z</time>
      </trkpt>
      <trkpt lat="42.446526" lon="2.867934">
        <ele>208.18555</ele>
        <time>2021-07-01T12:29:36Z</time>
      </trkpt>
      <trkpt lat="42.446526" lon="2.867934">
        <ele>207.00732</ele>
        <time>2021-07-01T12:29:37Z</time>
      </trkpt>
      <trkpt lat="42.446152" lon="2.868022">
        <ele>205.48901</ele>
        <time>2021-07-01T12:29:39Z</time>
      </trkpt>
      <trkpt lat="42.445812" lon="2.868130">
        <ele>203.97681</ele>
        <time>2021-07-01T12:29:39Z</time>
      </trkpt>
      <trkpt lat="42.445499" lon="2.868233">
        <ele>203.47961</ele>
        <time>2021-07-01T12:29:40Z</time>
      </trkpt>
      <trkpt lat="42.445148" lon="2.868325">
        <ele>202.73132</ele>
        <time>2021-07-01T12:29:42Z</time>
      </trkpt>
      <trkpt lat="42.444836" lon="2.868404">
        <ele>201.58228</ele>
        <time>2021-07-01T12:29:42Z</time>
      </trkpt>
      <trkpt lat="42.444534" lon="2.868453">
        <ele>199.91852</ele>
        <time>2021-07-01T12:29:44Z</time>
      </trkpt>
      <trkpt lat="42.444435" lon="2.868464">
        <ele>198.30884</ele>
        <time>2021-07-01T12:29:44Z</time>
      </trkpt>
      <trkpt lat="42.443790" lon="2.868471">
        <ele>196.59192</ele>
        <time>2021-07-01T12:29:45Z</time>
      </trkpt>
      <trkpt lat="42.443462" lon="2.868432">
        <ele>194.98828</ele>
        <time>2021-07-01T12:29:46Z</time>
      </trkpt>
      <trkpt lat="42.443230" lon="2.868383">
        <ele>193.04437</ele>
        <time>2021-07-01T12:29:47Z</time>
      </trkpt>
      <trkpt lat="42.443153" lon="2.868365">
        <ele>191.52734</ele>
        <time>2021-07-01T12:29:48Z</time>
      </trkpt>
      <trkpt lat="42.442467" lon="2.868113">
        <ele>190.71753</ele>
        <time>2021-07-01T12:29:49Z</time>
      </trkpt>
      <trkpt lat="42.442467" lon="2.868113">
        <ele>189.63739</ele>
        <time>2021-07-01T12:29:50Z</time>
      </trkpt>
      <trkpt lat="42.442204" lon="2.867979">
        <ele>188.56067</ele>
        <time>2021-07-01T12:29:51Z</time>
      </trkpt>
      <trkpt lat="42.441639" lon="2.867635">
        <ele>187.30017</ele>
        <time>2021-07-01T12:29:53Z</time>
      </trkpt>
      <trkpt lat="42.441639" lon="2.867635">
        <ele>185.70667</ele>
        <time>2021-07-01T12:29:53Z</time>
      </trkpt>
      <trkpt lat="42.441307" lon="2.867420">
        <ele>184.12463</ele>
        <time>2021-07-01T12:29:54Z</time>
      </trkpt>
      <trkpt lat="42.441013" lon="2.867234">
        <ele>183.11597</ele>
        <time>2021-07-01T12:29:55Z</time>
      </trkpt>
      <trkpt lat="42.440723" lon="2.867073">
        <ele>181.54425</ele>
        <time>2021-07-01T12:29:56Z</time>
      </trkpt>
      <trkpt lat="42.440483" lon="2.866944">
        <ele>180.01562</ele>
        <time>2021-07-01T12:29:57Z</time>
      </trkpt>
      <trkpt lat="42.440247" lon="2.866828">
        <ele>178.34741</ele>
        <time>2021-07-01T12:29:58Z</time>
      </trkpt>
      <trkpt lat="42.439957" lon="2.866706">
        <ele>177.74048</ele>
        <time>2021-07-01T12:29:59Z</time>
      </trkpt>
      <trkpt lat="42.439735" lon="2.866613">
        <ele>176.32001</ele>
        <time>2021-07-01T12:30:00Z</time>
      </trkpt>
      <trkpt lat="42.439457" lon="2.866496">
        <ele>174.92236</ele>
        <time>2021-07-01T12:30:01Z</time>
      </trkpt>
      <trkpt lat="42.439190" lon="2.866385">
        <ele>172.68103</ele>
        <time>2021-07-01T12:30:02Z</time>
      </trkpt>
      <trkpt lat="42.438934" lon="2.866257">
        <ele>172.29443</ele>
        <time>2021-07-01T12:30:03Z</time>
      </trkpt>
      <trkpt lat="42.438736" lon="2.866135">
        <ele>171.10004</ele>
        <time>2021-07-01T12:30:04Z</time>
      </trkpt>
      <trkpt lat="42.438686" lon="2.866104">
        <ele>170.23639</ele>
        <time>2021-07-01T12:30:05Z</time>
      </trkpt>
      <trkpt lat="42.438686" lon="2.866104">
        <ele>169.24744</ele>
        <time>2021-07-01T12:30:06Z</time>
      </trkpt>
      <trkpt lat="42.438255" lon="2.865806">
        <ele>167.85022</ele>
        <time>2021-07-01T12:30:07Z</time>
      </trkpt>
      <trkpt lat="42.438164" lon="2.865737">
        <ele>167.45306</ele>
        <time>2021-07-01T12:30:08Z</time>
      </trkpt>
      <trkpt lat="42.437710" lon="2.865326">
        <ele>166.44458</ele>
        <time>2021-07-01T12:30:09Z</time>
      </trkpt>
      <trkpt lat="42.437546" lon="2.865188">
        <ele>166.91876</ele>
        <time>2021-07-01T12:30:10Z</time>
      </trkpt>
      <trkpt lat="42.437344" lon="2.865005">
        <ele>166.78992</ele>
        <time>2021-07-01T12:30:11Z</time>
      </trkpt>
      <trkpt lat="42.437122" lon="2.864828">
        <ele>165.74939</ele>
        <time>2021-07-01T12:30:12Z</time>
      </trkpt>
      <trkpt lat="42.436874" lon="2.864638">
        <ele>165.50000</ele>
        <time>2021-07-01T12:30:13Z</time>
      </trkpt>
      <trkpt lat="42.436642" lon="2.864474">
        <ele>164.53937</ele>
        <time>2021-07-01T12:30:14Z</time>
      </trkpt>
      <trkpt lat="42.436413" lon="2.864339">
        <ele>164.73828</ele>
        <time>2021-07-01T12:30:15Z</time>
      </trkpt>
      <trkpt lat="42.436150" lon="2.864198">
        <ele>163.74139</ele>
        <time>2021-07-01T12:30:16Z</time>
      </trkpt>
      <trkpt lat="42.435913" lon="2.864098">
        <ele>163.59619</ele>
        <time>2021-07-01T12:30:17Z</time>
      </trkpt>
      <trkpt lat="42.435913" lon="2.864098">
        <ele>162.70972</ele>
        <time>2021-07-01T12:30:18Z</time>
      </trkpt>
      <trkpt lat="42.435665" lon="2.864001">
        <ele>161.16425</ele>
        <time>2021-07-01T12:30:19Z</time>
      </trkpt>
      <trkpt lat="42.435379" lon="2.863913">
        <ele>159.37158</ele>
        <time>2021-07-01T12:30:20Z</time>
      </trkpt>
      <trkpt lat="42.435101" lon="2.863837">
        <ele>158.22058</ele>
        <time>2021-07-01T12:30:21Z</time>
      </trkpt>
      <trkpt lat="42.434883" lon="2.863790">
        <ele>157.10205</ele>
        <time>2021-07-01T12:30:22Z</time>
      </trkpt>
      <trkpt lat="42.434605" lon="2.863733">
        <ele>156.53412</ele>
        <time>2021-07-01T12:30:24Z</time>
      </trkpt>
      <trkpt lat="42.434299" lon="2.863675">
        <ele>155.75836</ele>
        <time>2021-07-01T12:30:24Z</time>
      </trkpt>
      <trkpt lat="42.434013" lon="2.863633">
        <ele>155.19989</ele>
        <time>2021-07-01T12:30:25Z</time>
      </trkpt>
      <trkpt lat="42.433777" lon="2.863607">
        <ele>153.96155</ele>
        <time>2021-07-01T12:30:26Z</time>
      </trkpt>
      <trkpt lat="42.433479" lon="2.863574">
        <ele>152.60913</ele>
        <time>2021-07-01T12:30:27Z</time>
      </trkpt>
      <trkpt lat="42.433479" lon="2.863574">
        <ele>151.04590</ele>
        <time>2021-07-01T12:30:28Z</time>
      </trkpt>
      <trkpt lat="42.433205" lon="2.863557">
        <ele>149.38263</ele>
        <time>2021-07-01T12:30:29Z</time>
      </trkpt>
      <trkpt lat="42.432915" lon="2.863539">
        <ele>147.39404</ele>
        <time>2021-07-01T12:30:30Z</time>
      </trkpt>
      <trkpt lat="42.432655" lon="2.863529">
        <ele>147.25140</ele>
        <time>2021-07-01T12:30:31Z</time>
      </trkpt>
      <trkpt lat="42.432430" lon="2.863529">
        <ele>146.52954</ele>
        <time>2021-07-01T12:30:33Z</time>
      </trkpt>
      <trkpt lat="42.432308" lon="2.863530">
        <ele>144.98889</ele>
        <time>2021-07-01T12:30:33Z</time>
      </trkpt>
      <trkpt lat="42.431942" lon="2.863555">
        <ele>143.29285</ele>
        <time>2021-07-01T12:30:34Z</time>
      </trkpt>
      <trkpt lat="42.431591" lon="2.863588">
        <ele>142.66986</ele>
        <time>2021-07-01T12:30:35Z</time>
      </trkpt>
      <trkpt lat="42.431339" lon="2.863618">
        <ele>140.81677</ele>
        <time>2021-07-01T12:30:36Z</time>
      </trkpt>
      <trkpt lat="42.431049" lon="2.863657">
        <ele>140.45245</ele>
        <time>2021-07-01T12:30:37Z</time>
      </trkpt>
      <trkpt lat="42.430744" lon="2.863709">
        <ele>139.49506</ele>
        <time>2021-07-01T12:30:38Z</time>
      </trkpt>
      <trkpt lat="42.430462" lon="2.863757">
        <ele>138.26501</ele>
        <time>2021-07-01T12:30:39Z</time>
      </trkpt>
      <trkpt lat="42.430153" lon="2.863828">
        <ele>136.84149</ele>
        <time>2021-07-01T12:30:40Z</time>
      </trkpt>
      <trkpt lat="42.430153" lon="2.863828">
        <ele>135.03101</ele>
        <time>2021-07-01T12:30:41Z</time>
      </trkpt>
      <trkpt lat="42.429901" lon="2.863897">
        <ele>133.82867</ele>
        <time>2021-07-01T12:30:42Z</time>
      </trkpt>
      <trkpt lat="42.429581" lon="2.863985">
        <ele>132.52216</ele>
        <time>2021-07-01T12:30:43Z</time>
      </trkpt>
      <trkpt lat="42.429249" lon="2.864088">
        <ele>131.28662</ele>
        <time>2021-07-01T12:30:44Z</time>
      </trkpt>
      <trkpt lat="42.428936" lon="2.864209">
        <ele>130.54565</ele>
        <time>2021-07-01T12:30:45Z</time>
      </trkpt>
      <trkpt lat="42.428673" lon="2.864319">
        <ele>129.61578</ele>
        <time>2021-07-01T12:30:46Z</time>
      </trkpt>
      <trkpt lat="42.428371" lon="2.864461">
        <ele>128.62250</ele>
        <time>2021-07-01T12:30:47Z</time>
      </trkpt>
      <trkpt lat="42.428062" lon="2.864627">
        <ele>127.80591</ele>
        <time>2021-07-01T12:30:49Z</time>
      </trkpt>
      <trkpt lat="42.427776" lon="2.864793">
        <ele>124.98010</ele>
        <time>2021-07-01T12:30:49Z</time>
      </trkpt>
      <trkpt lat="42.427776" lon="2.864793">
        <ele>124.27118</ele>
        <time>2021-07-01T12:30:51Z</time>
      </trkpt>
      <trkpt lat="42.427490" lon="2.864967">
        <ele>123.75073</ele>
        <time>2021-07-01T12:30:51Z</time>
      </trkpt>
      <trkpt lat="42.427258" lon="2.865118">
        <ele>123.77490</ele>
        <time>2021-07-01T12:30:52Z</time>
      </trkpt>
      <trkpt lat="42.426949" lon="2.865333">
        <ele>122.01257</ele>
        <time>2021-07-01T12:30:53Z</time>
      </trkpt>
      <trkpt lat="42.426689" lon="2.865538">
        <ele>120.77356</ele>
        <time>2021-07-01T12:30:54Z</time>
      </trkpt>
      <trkpt lat="42.426430" lon="2.865741">
        <ele>119.58673</ele>
        <time>2021-07-01T12:30:55Z</time>
      </trkpt>
      <trkpt lat="42.426174" lon="2.865940">
        <ele>119.67542</ele>
        <time>2021-07-01T12:30:56Z</time>
      </trkpt>
      <trkpt lat="42.425926" lon="2.866151">
        <ele>119.17108</ele>
        <time>2021-07-01T12:30:57Z</time>
      </trkpt>
      <trkpt lat="42.425846" lon="2.866228">
        <ele>119.56488</ele>
        <time>2021-07-01T12:30:58Z</time>
      </trkpt>
      <trkpt lat="42.425472" lon="2.866579">
        <ele>118.85693</ele>
        <time>2021-07-01T12:30:59Z</time>
      </trkpt>
      <trkpt lat="42.425175" lon="2.866853">
        <ele>118.00940</ele>
        <time>2021-07-01T12:31:00Z</time>
      </trkpt>
      <trkpt lat="42.425003" lon="2.867020">
        <ele>116.84766</ele>
        <time>2021-07-01T12:31:01Z</time>
      </trkpt>
      <trkpt lat="42.424797" lon="2.867221">
        <ele>116.21729</ele>
        <time>2021-07-01T12:31:02Z</time>
      </trkpt>
      <trkpt lat="42.424526" lon="2.867479">
        <ele>115.95288</ele>
        <time>2021-07-01T12:31:03Z</time>
      </trkpt>
      <trkpt lat="42.424274" lon="2.867721">
        <ele>115.74359</ele>
        <time>2021-07-01T12:31:04Z</time>
      </trkpt>
      <trkpt lat="42.424042" lon="2.867945">
        <ele>115.41125</ele>
        <time>2021-07-01T12:31:05Z</time>
      </trkpt>
      <trkpt lat="42.423794" lon="2.868179">
        <ele>115.27545</ele>
        <time>2021-07-01T12:31:06Z</time>
      </trkpt>
      <trkpt lat="42.423794" lon="2.868179">
        <ele>114.84534</ele>
        <time>2021-07-01T12:31:07Z</time>
      </trkpt>
      <trkpt lat="42.423599" lon="2.868366">
        <ele>114.68951</ele>
        <time>2021-07-01T12:31:09Z</time>
      </trkpt>
      <trkpt lat="42.423405" lon="2.868526">
        <ele>114.75427</ele>
        <time>2021-07-01T12:31:09Z</time>
      </trkpt>
      <trkpt lat="42.422962" lon="2.868882">
        <ele>114.65503</ele>
        <time>2021-07-01T12:31:10Z</time>
      </trkpt>
      <trkpt lat="42.422775" lon="2.869019">
        <ele>114.60626</ele>
        <time>2021-07-01T12:31:11Z</time>
      </trkpt>
      <trkpt lat="42.422527" lon="2.869202">
        <ele>114.05420</ele>
        <time>2021-07-01T12:31:12Z</time>
      </trkpt>
      <trkpt lat="42.422455" lon="2.869256">
        <ele>113.99231</ele>
        <time>2021-07-01T12:31:13Z</time>
      </trkpt>
      <trkpt lat="42.421898" lon="2.869628">
        <ele>114.40918</ele>
        <time>2021-07-01T12:31:14Z</time>
      </trkpt>
      <trkpt lat="42.421673" lon="2.869768">
        <ele>113.44849</ele>
        <time>2021-07-01T12:31:15Z</time>
      </trkpt>
      <trkpt lat="42.421673" lon="2.869768">
        <ele>112.31226</ele>
        <time>2021-07-01T12:31:16Z</time>
      </trkpt>
      <trkpt lat="42.421375" lon="2.869929">
        <ele>112.00891</ele>
        <time>2021-07-01T12:31:17Z</time>
      </trkpt>
      <trkpt lat="42.421127" lon="2.870048">
        <ele>111.87067</ele>
        <time>2021-07-01T12:31:19Z</time>
      </trkpt>
      <trkpt lat="42.420986" lon="2.870109">
        <ele>112.01123</ele>
        <time>2021-07-01T12:31:19Z</time>
      </trkpt>
      <trkpt lat="42.420643" lon="2.870246">
        <ele>112.00256</ele>
        <time>2021-07-01T12:31:20Z</time>
      </trkpt>
      <trkpt lat="42.420223" lon="2.870394">
        <ele>112.16962</ele>
        <time>2021-07-01T12:31:21Z</time>
      </trkpt>
      <trkpt lat="42.419964" lon="2.870481">
        <ele>111.54797</ele>
        <time>2021-07-01T12:31:22Z</time>
      </trkpt>
      <trkpt lat="42.419662" lon="2.870570">
        <ele>111.71094</ele>
        <time>2021-07-01T12:31:23Z</time>
      </trkpt>
      <trkpt lat="42.419388" lon="2.870649">
        <ele>110.48688</ele>
        <time>2021-07-01T12:31:24Z</time>
      </trkpt>
      <trkpt lat="42.419258" lon="2.870683">
        <ele>109.92468</ele>
        <time>2021-07-01T12:31:25Z</time>
      </trkpt>
      <trkpt lat="42.418747" lon="2.870817">
        <ele>109.89392</ele>
        <time>2021-07-01T12:31:26Z</time>
      </trkpt>
      <trkpt lat="42.418747" lon="2.870817">
        <ele>110.14801</ele>
        <time>2021-07-01T12:31:27Z</time>
      </trkpt>
      <trkpt lat="42.418602" lon="2.870851">
        <ele>110.18774</ele>
        <time>2021-07-01T12:31:28Z</time>
      </trkpt>
      <trkpt lat="42.418102" lon="2.870966">
        <ele>109.38593</ele>
        <time>2021-07-01T12:31:29Z</time>
      </trkpt>
      <trkpt lat="42.417885" lon="2.871015">
        <ele>109.51331</ele>
        <time>2021-07-01T12:31:30Z</time>
      </trkpt>
      <trkpt lat="42.417583" lon="2.871082">
        <ele>109.20728</ele>
        <time>2021-07-01T12:31:31Z</time>
      </trkpt>
      <trkpt lat="42.417290" lon="2.871147">
        <ele>109.43420</ele>
        <time>2021-07-01T12:31:32Z</time>
      </trkpt>
      <trkpt lat="42.417023" lon="2.871207">
        <ele>108.87463</ele>
        <time>2021-07-01T12:31:33Z</time>
      </trkpt>
      <trkpt lat="42.416721" lon="2.871274">
        <ele>108.58453</ele>
        <time>2021-07-01T12:31:34Z</time>
      </trkpt>
      <trkpt lat="42.416454" lon="2.871334">
        <ele>108.57373</ele>
        <time>2021-07-01T12:31:35Z</time>
      </trkpt>
      <trkpt lat="42.416176" lon="2.871400">
        <ele>108.75153</ele>
        <time>2021-07-01T12:31:36Z</time>
      </trkpt>
      <trkpt lat="42.415916" lon="2.871463">
        <ele>108.00317</ele>
        <time>2021-07-01T12:31:37Z</time>
      </trkpt>
      <trkpt lat="42.415668" lon="2.871522">
        <ele>107.56873</ele>
        <time>2021-07-01T12:31:38Z</time>
      </trkpt>
      <trkpt lat="42.415630" lon="2.871531">
        <ele>107.10669</ele>
        <time>2021-07-01T12:31:39Z</time>
      </trkpt>
      <trkpt lat="42.415150" lon="2.871647">
        <ele>106.24591</ele>
        <time>2021-07-01T12:31:40Z</time>
      </trkpt>
      <trkpt lat="42.415089" lon="2.871661">
        <ele>106.38000</ele>
        <time>2021-07-01T12:31:41Z</time>
      </trkpt>
      <trkpt lat="42.415089" lon="2.871661">
        <ele>106.14581</ele>
        <time>2021-07-01T12:31:42Z</time>
      </trkpt>
      <trkpt lat="42.414570" lon="2.871787">
        <ele>106.53375</ele>
        <time>2021-07-01T12:31:44Z</time>
      </trkpt>
      <trkpt lat="42.414421" lon="2.871826">
        <ele>104.88293</ele>
        <time>2021-07-01T12:31:44Z</time>
      </trkpt>
      <trkpt lat="42.414181" lon="2.871890">
        <ele>105.00208</ele>
        <time>2021-07-01T12:31:45Z</time>
      </trkpt>
      <trkpt lat="42.413963" lon="2.871948">
        <ele>103.83093</ele>
        <time>2021-07-01T12:31:46Z</time>
      </trkpt>
      <trkpt lat="42.413734" lon="2.872008">
        <ele>103.47693</ele>
        <time>2021-07-01T12:31:47Z</time>
      </trkpt>
      <trkpt lat="42.413532" lon="2.872062">
        <ele>103.60187</ele>
        <time>2021-07-01T12:31:48Z</time>
      </trkpt>
      <trkpt lat="42.413319" lon="2.872114">
        <ele>103.66431</ele>
        <time>2021-07-01T12:31:50Z</time>
      </trkpt>
      <trkpt lat="42.413319" lon="2.872114">
        <ele>102.69629</ele>
        <time>2021-07-01T12:31:50Z</time>
      </trkpt>
      <trkpt lat="42.413139" lon="2.872145">
        <ele>102.42535</ele>
        <time>2021-07-01T12:31:51Z</time>
      </trkpt>
      <trkpt lat="42.412952" lon="2.872175">
        <ele>101.46753</ele>
        <time>2021-07-01T12:31:52Z</time>
      </trkpt>
      <trkpt lat="42.412693" lon="2.872184">
        <ele>101.27551</ele>
        <time>2021-07-01T12:31:54Z</time>
      </trkpt>
      <trkpt lat="42.412495" lon="2.872161">
        <ele>101.28082</ele>
        <time>2021-07-01T12:31:54Z</time>
      </trkpt>
      <trkpt lat="42.412300" lon="2.872129">
        <ele>101.46765</ele>
        <time>2021-07-01T12:31:55Z</time>
      </trkpt>
      <trkpt lat="42.412285" lon="2.872126">
        <ele>101.03479</ele>
        <time>2021-07-01T12:31:56Z</time>
      </trkpt>
      <trkpt lat="42.411957" lon="2.872073">
        <ele>100.86182</ele>
        <time>2021-07-01T12:31:57Z</time>
      </trkpt>
      <trkpt lat="42.411861" lon="2.872061">
        <ele>101.21277</ele>
        <time>2021-07-01T12:31:58Z</time>
      </trkpt>
      <trkpt lat="42.411732" lon="2.872045">
        <ele>101.61377</ele>
        <time>2021-07-01T12:31:59Z</time>
      </trkpt>
      <trkpt lat="42.411633" lon="2.872033">
        <ele>100.97302</ele>
        <time>2021-07-01T12:32:00Z</time>
      </trkpt>
      <trkpt lat="42.411533" lon="2.872020">
        <ele>102.00348</ele>
        <time>2021-07-01T12:32:01Z</time>
      </trkpt>
      <trkpt lat="42.411533" lon="2.872020">
        <ele>102.45520</ele>
        <time>2021-07-01T12:32:02Z</time>
      </trkpt>
      <trkpt lat="42.411469" lon="2.872012">
        <ele>102.75500</ele>
        <time>2021-07-01T12:32:03Z</time>
      </trkpt>
      <trkpt lat="42.411366" lon="2.871999">
        <ele>102.81927</ele>
        <time>2021-07-01T12:32:04Z</time>
      </trkpt>
      <trkpt lat="42.411201" lon="2.871984">
        <ele>102.80096</ele>
        <time>2021-07-01T12:32:05Z</time>
      </trkpt>
      <trkpt lat="42.411186" lon="2.871983">
        <ele>102.71252</ele>
        <time>2021-07-01T12:32:06Z</time>
      </trkpt>
      <trkpt lat="42.411144" lon="2.871980">
        <ele>103.02808</ele>
        <time>2021-07-01T12:32:07Z</time>
      </trkpt>
      <trkpt lat="42.411106" lon="2.871977">
        <ele>103.22449</ele>
        <time>2021-07-01T12:32:08Z</time>
      </trkpt>
      <trkpt lat="42.411072" lon="2.871974">
        <ele>101.91431</ele>
        <time>2021-07-01T12:32:10Z</time>
      </trkpt>
      <trkpt lat="42.411053" lon="2.871973">
        <ele>101.53180</ele>
        <time>2021-07-01T12:32:11Z</time>
      </trkpt>
      <trkpt lat="42.411053" lon="2.871973">
        <ele>101.17969</ele>
        <time>2021-07-01T12:32:11Z</time>
      </trkpt>
      <trkpt lat="42.411030" lon="2.871971">
        <ele>100.83960</ele>
        <time>2021-07-01T12:32:12Z</time>
      </trkpt>
      <trkpt lat="42.410995" lon="2.871969">
        <ele>99.57019</ele>
        <time>2021-07-01T12:32:14Z</time>
      </trkpt>
      <trkpt lat="42.410938" lon="2.871965">
        <ele>99.95386</ele>
        <time>2021-07-01T12:32:14Z</time>
      </trkpt>
      <trkpt lat="42.410870" lon="2.871959">
        <ele>100.75708</ele>
        <time>2021-07-01T12:32:15Z</time>
      </trkpt>
      <trkpt lat="42.410740" lon="2.871952">
        <ele>100.65894</ele>
        <time>2021-07-01T12:32:16Z</time>
      </trkpt>
      <trkpt lat="42.410709" lon="2.871951">
        <ele>100.61053</ele>
        <time>2021-07-01T12:32:17Z</time>
      </trkpt>
      <trkpt lat="42.410496" lon="2.871946">
        <ele>99.68365</ele>
        <time>2021-07-01T12:32:18Z</time>
      </trkpt>
      <trkpt lat="42.410450" lon="2.871946">
        <ele>99.67279</ele>
        <time>2021-07-01T12:32:19Z</time>
      </trkpt>
      <trkpt lat="42.410450" lon="2.871946">
        <ele>99.41687</ele>
        <time>2021-07-01T12:32:20Z</time>
      </trkpt>
      <trkpt lat="42.410267" lon="2.871954">
        <ele>99.62854</ele>
        <time>2021-07-01T12:32:21Z</time>
      </trkpt>
      <trkpt lat="42.410183" lon="2.871959">
        <ele>99.04382</ele>
        <time>2021-07-01T12:32:22Z</time>
      </trkpt>
      <trkpt lat="42.409931" lon="2.871990">
        <ele>98.55725</ele>
        <time>2021-07-01T12:32:24Z</time>
      </trkpt>
      <trkpt lat="42.409843" lon="2.872002">
        <ele>99.08826</ele>
        <time>2021-07-01T12:32:24Z</time>
      </trkpt>
      <trkpt lat="42.409546" lon="2.872047">
        <ele>99.33875</ele>
        <time>2021-07-01T12:32:25Z</time>
      </trkpt>
      <trkpt lat="42.409180" lon="2.872160">
        <ele>97.95294</ele>
        <time>2021-07-01T12:32:27Z</time>
      </trkpt>
      <trkpt lat="42.409180" lon="2.872160">
        <ele>97.95294</ele>
        <time>2021-07-01T12:32:27Z</time>
      </trkpt>
      <trkpt lat="42.409012" lon="2.872214">
        <ele>98.00970</ele>
        <time>2021-07-01T12:32:28Z</time>
      </trkpt>
      <trkpt lat="42.409012" lon="2.872214">
        <ele>98.13666</ele>
        <time>2021-07-01T12:32:29Z</time>
      </trkpt>
      <trkpt lat="42.408913" lon="2.872243">
        <ele>98.02417</ele>
        <time>2021-07-01T12:32:30Z</time>
      </trkpt>
      <trkpt lat="42.408783" lon="2.872281">
        <ele>94.13879</ele>
        <time>2021-07-01T12:32:31Z</time>
      </trkpt>
      <trkpt lat="42.408661" lon="2.872305">
        <ele>96.60406</ele>
        <time>2021-07-01T12:32:32Z</time>
      </trkpt>
      <trkpt lat="42.408546" lon="2.872323">
        <ele>97.13361</ele>
        <time>2021-07-01T12:32:33Z</time>
      </trkpt>
      <trkpt lat="42.408504" lon="2.872329">
        <ele>96.38544</ele>
        <time>2021-07-01T12:32:34Z</time>
      </trkpt>
      <trkpt lat="42.408325" lon="2.872353">
        <ele>96.22144</ele>
        <time>2021-07-01T12:32:35Z</time>
      </trkpt>
      <trkpt lat="42.408215" lon="2.872362">
        <ele>95.56483</ele>
        <time>2021-07-01T12:32:36Z</time>
      </trkpt>
      <trkpt lat="42.408211" lon="2.872363">
        <ele>92.74270</ele>
        <time>2021-07-01T12:32:37Z</time>
      </trkpt>
      <trkpt lat="42.408211" lon="2.872363">
        <ele>94.58844</ele>
        <time>2021-07-01T12:32:38Z</time>
      </trkpt>
      <trkpt lat="42.408211" lon="2.872363">
        <ele>92.28037</ele>
        <time>2021-07-01T12:32:39Z</time>
      </trkpt>
      <trkpt lat="42.408211" lon="2.872363">
        <ele>94.43396</ele>
        <time>2021-07-01T12:32:40Z</time>
      </trkpt>
      <trkpt lat="42.408211" lon="2.872363">
        <ele>95.33862</ele>
        <time>2021-07-01T12:32:41Z</time>
      </trkpt>
      <trkpt lat="42.408211" lon="2.872363">
        <ele>95.94507</ele>
        <time>2021-07-01T12:32:42Z</time>
      </trkpt>
      <trkpt lat="42.408211" lon="2.872363">
        <ele>92.73275</ele>
        <time>2021-07-01T12:32:43Z</time>
      </trkpt>
      <trkpt lat="42.408211" lon="2.872363">
        <ele>92.53350</ele>
        <time>2021-07-01T12:32:44Z</time>
      </trkpt>
      <trkpt lat="42.408211" lon="2.872363">
        <ele>95.45721</ele>
        <time>2021-07-01T12:32:45Z</time>
      </trkpt>
      <trkpt lat="42.408211" lon="2.872363">
        <ele>96.43762</ele>
        <time>2021-07-01T12:32:46Z</time>
      </trkpt>
      <trkpt lat="42.408211" lon="2.872363">
        <ele>97.49731</ele>
        <time>2021-07-01T12:32:47Z</time>
      </trkpt>
      <trkpt lat="42.408211" lon="2.872363">
        <ele>97.69604</ele>
        <time>2021-07-01T12:32:48Z</time>
      </trkpt>
      <trkpt lat="42.408211" lon="2.872363">
        <ele>97.11230</ele>
        <time>2021-07-01T12:32:49Z</time>
      </trkpt>
      <trkpt lat="42.408211" lon="2.872363">
        <ele>92.70672</ele>
        <time>2021-07-01T12:32:50Z</time>
      </trkpt>
      <trkpt lat="42.408211" lon="2.872363">
        <ele>95.84216</ele>
        <time>2021-07-01T12:32:51Z</time>
      </trkpt>
      <trkpt lat="42.408211" lon="2.872363">
        <ele>92.99960</ele>
        <time>2021-07-01T12:32:52Z</time>
      </trkpt>
      <trkpt lat="42.408211" lon="2.872363">
        <ele>95.71289</ele>
        <time>2021-07-01T12:32:54Z</time>
      </trkpt>
      <trkpt lat="42.408211" lon="2.872363">
        <ele>93.26673</ele>
        <time>2021-07-01T12:32:54Z</time>
      </trkpt>
      <trkpt lat="42.408211" lon="2.872363">
        <ele>95.73926</ele>
        <time>2021-07-01T12:32:55Z</time>
      </trkpt>
      <trkpt lat="42.408211" lon="2.872363">
        <ele>96.27063</ele>
        <time>2021-07-01T12:32:56Z</time>
      </trkpt>
      <trkpt lat="42.408211" lon="2.872363">
        <ele>93.31798</ele>
        <time>2021-07-01T12:32:57Z</time>
      </trkpt>
      <trkpt lat="42.408211" lon="2.872363">
        <ele>96.22278</ele>
        <time>2021-07-01T12:32:58Z</time>
      </trkpt>
      <trkpt lat="42.408211" lon="2.872363">
        <ele>97.01477</ele>
        <time>2021-07-01T12:32:59Z</time>
      </trkpt>
      <trkpt lat="42.408211" lon="2.872363">
        <ele>93.93162</ele>
        <time>2021-07-01T12:33:00Z</time>
      </trkpt>
      <trkpt lat="42.408211" lon="2.872363">
        <ele>96.11487</ele>
        <time>2021-07-01T12:33:01Z</time>
      </trkpt>
      <trkpt lat="42.408211" lon="2.872363">
        <ele>96.64612</ele>
        <time>2021-07-01T12:33:02Z</time>
      </trkpt>
      <trkpt lat="42.408211" lon="2.872363">
        <ele>93.21921</ele>
        <time>2021-07-01T12:33:03Z</time>
      </trkpt>
      <trkpt lat="42.408211" lon="2.872363">
        <ele>94.85777</ele>
        <time>2021-07-01T12:33:04Z</time>
      </trkpt>
      <trkpt lat="42.408211" lon="2.872363">
        <ele>96.62244</ele>
        <time>2021-07-01T12:33:05Z</time>
      </trkpt>
      <trkpt lat="42.408211" lon="2.872363">
        <ele>97.31104</ele>
        <time>2021-07-01T12:33:06Z</time>
      </trkpt>
      <trkpt lat="42.408211" lon="2.872363">
        <ele>97.18561</ele>
        <time>2021-07-01T12:33:07Z</time>
      </trkpt>
      <trkpt lat="42.408211" lon="2.872363">
        <ele>97.12848</ele>
        <time>2021-07-01T12:33:08Z</time>
      </trkpt>
      <trkpt lat="42.408211" lon="2.872363">
        <ele>97.22546</ele>
        <time>2021-07-01T12:33:09Z</time>
      </trkpt>
      <trkpt lat="42.408211" lon="2.872363">
        <ele>97.47461</ele>
        <time>2021-07-01T12:33:10Z</time>
      </trkpt>
      <trkpt lat="42.408211" lon="2.872363">
        <ele>98.19934</ele>
        <time>2021-07-01T12:33:11Z</time>
      </trkpt>
      <trkpt lat="42.408211" lon="2.872363">
        <ele>98.43073</ele>
        <time>2021-07-01T12:33:12Z</time>
      </trkpt>
      <trkpt lat="42.408211" lon="2.872363">
        <ele>97.86926</ele>
        <time>2021-07-01T12:33:13Z</time>
      </trkpt>
      <trkpt lat="42.408211" lon="2.872363">
        <ele>97.72260</ele>
        <time>2021-07-01T12:33:14Z</time>
      </trkpt>
      <trkpt lat="42.408211" lon="2.872363">
        <ele>97.37097</ele>
        <time>2021-07-01T12:33:15Z</time>
      </trkpt>
      <trkpt lat="42.408211" lon="2.872363">
        <ele>97.74506</ele>
        <time>2021-07-01T12:33:16Z</time>
      </trkpt>
      <trkpt lat="42.408211" lon="2.872363">
        <ele>97.65466</ele>
        <time>2021-07-01T12:33:17Z</time>
      </trkpt>
      <trkpt lat="42.408211" lon="2.872363">
        <ele>98.17157</ele>
        <time>2021-07-01T12:33:18Z</time>
      </trkpt>
      <trkpt lat="42.408211" lon="2.872363">
        <ele>98.56616</ele>
        <time>2021-07-01T12:33:19Z</time>
      </trkpt>
      <trkpt lat="42.408211" lon="2.872363">
        <ele>98.77850</ele>
        <time>2021-07-01T12:33:20Z</time>
      </trkpt>
      <trkpt lat="42.408211" lon="2.872363">
        <ele>98.95886</ele>
        <time>2021-07-01T12:33:21Z</time>
      </trkpt>
      <trkpt lat="42.408211" lon="2.872363">
        <ele>99.59827</ele>
        <time>2021-07-01T12:33:22Z</time>
      </trkpt>
      <trkpt lat="42.408211" lon="2.872363">
        <ele>94.96613</ele>
        <time>2021-07-01T12:33:23Z</time>
      </trkpt>
      <trkpt lat="42.408211" lon="2.872363">
        <ele>94.97437</ele>
        <time>2021-07-01T12:33:24Z</time>
      </trkpt>
      <trkpt lat="42.408211" lon="2.872363">
        <ele>95.12172</ele>
        <time>2021-07-01T12:33:25Z</time>
      </trkpt>
      <trkpt lat="42.408211" lon="2.872363">
        <ele>95.33087</ele>
        <time>2021-07-01T12:33:26Z</time>
      </trkpt>
      <trkpt lat="42.408211" lon="2.872363">
        <ele>95.12753</ele>
        <time>2021-07-01T12:33:27Z</time>
      </trkpt>
      <trkpt lat="42.408211" lon="2.872363">
        <ele>95.09794</ele>
        <time>2021-07-01T12:33:28Z</time>
      </trkpt>
      <trkpt lat="42.408211" lon="2.872363">
        <ele>98.85339</ele>
        <time>2021-07-01T12:33:29Z</time>
      </trkpt>
      <trkpt lat="42.408211" lon="2.872363">
        <ele>99.66223</ele>
        <time>2021-07-01T12:33:30Z</time>
      </trkpt>
      <trkpt lat="42.408211" lon="2.872363">
        <ele>99.99945</ele>
        <time>2021-07-01T12:33:31Z</time>
      </trkpt>
      <trkpt lat="42.408211" lon="2.872363">
        <ele>100.03699</ele>
        <time>2021-07-01T12:33:32Z</time>
      </trkpt>
      <trkpt lat="42.408211" lon="2.872363">
        <ele>100.69556</ele>
        <time>2021-07-01T12:33:33Z</time>
      </trkpt>
      <trkpt lat="42.408211" lon="2.872363">
        <ele>101.01819</ele>
        <time>2021-07-01T12:33:34Z</time>
      </trkpt>
      <trkpt lat="42.408211" lon="2.872363">
        <ele>95.86233</ele>
        <time>2021-07-01T12:33:35Z</time>
      </trkpt>
      <trkpt lat="42.408211" lon="2.872363">
        <ele>95.86566</ele>
        <time>2021-07-01T12:33:36Z</time>
      </trkpt>
      <trkpt lat="42.408211" lon="2.872363">
        <ele>95.95657</ele>
        <time>2021-07-01T12:33:37Z</time>
      </trkpt>
      <trkpt lat="42.408211" lon="2.872363">
        <ele>96.00381</ele>
        <time>2021-07-01T12:33:38Z</time>
      </trkpt>
      <trkpt lat="42.408211" lon="2.872363">
        <ele>95.99518</ele>
        <time>2021-07-01T12:33:39Z</time>
      </trkpt>
      <trkpt lat="42.408211" lon="2.872363">
        <ele>99.41663</ele>
        <time>2021-07-01T12:33:40Z</time>
      </trkpt>
      <trkpt lat="42.408211" lon="2.872363">
        <ele>100.26202</ele>
        <time>2021-07-01T12:33:41Z</time>
      </trkpt>
      <trkpt lat="42.408211" lon="2.872363">
        <ele>100.71686</ele>
        <time>2021-07-01T12:33:42Z</time>
      </trkpt>
      <trkpt lat="42.408211" lon="2.872363">
        <ele>100.89111</ele>
        <time>2021-07-01T12:33:43Z</time>
      </trkpt>
      <trkpt lat="42.408211" lon="2.872363">
        <ele>96.57441</ele>
        <time>2021-07-01T12:33:44Z</time>
      </trkpt>
      <trkpt lat="42.408211" lon="2.872363">
        <ele>96.62246</ele>
        <time>2021-07-01T12:33:45Z</time>
      </trkpt>
      <trkpt lat="42.408211" lon="2.872363">
        <ele>96.95650</ele>
        <time>2021-07-01T12:33:46Z</time>
      </trkpt>
      <trkpt lat="42.408211" lon="2.872363">
        <ele>96.60344</ele>
        <time>2021-07-01T12:33:47Z</time>
      </trkpt>
      <trkpt lat="42.408211" lon="2.872363">
        <ele>99.45007</ele>
        <time>2021-07-01T12:33:48Z</time>
      </trkpt>
      <trkpt lat="42.408211" lon="2.872363">
        <ele>100.18213</ele>
        <time>2021-07-01T12:33:49Z</time>
      </trkpt>
      <trkpt lat="42.408211" lon="2.872363">
        <ele>100.63269</ele>
        <time>2021-07-01T12:33:50Z</time>
      </trkpt>
      <trkpt lat="42.408211" lon="2.872363">
        <ele>96.94104</ele>
        <time>2021-07-01T12:33:51Z</time>
      </trkpt>
      <trkpt lat="42.408211" lon="2.872363">
        <ele>99.84357</ele>
        <time>2021-07-01T12:33:52Z</time>
      </trkpt>
      <trkpt lat="42.408211" lon="2.872363">
        <ele>96.55643</ele>
        <time>2021-07-01T12:33:53Z</time>
      </trkpt>
      <trkpt lat="42.408211" lon="2.872363">
        <ele>98.78638</ele>
        <time>2021-07-01T12:33:54Z</time>
      </trkpt>
      <trkpt lat="42.408211" lon="2.872363">
        <ele>100.63837</ele>
        <time>2021-07-01T12:33:55Z</time>
      </trkpt>
      <trkpt lat="42.408211" lon="2.872363">
        <ele>97.25177</ele>
        <time>2021-07-01T12:33:56Z</time>
      </trkpt>
      <trkpt lat="42.408211" lon="2.872363">
        <ele>100.21552</ele>
        <time>2021-07-01T12:33:57Z</time>
      </trkpt>
      <trkpt lat="42.408211" lon="2.872363">
        <ele>100.73560</ele>
        <time>2021-07-01T12:33:58Z</time>
      </trkpt>
      <trkpt lat="42.408211" lon="2.872363">
        <ele>97.26666</ele>
        <time>2021-07-01T12:33:59Z</time>
      </trkpt>
      <trkpt lat="42.408211" lon="2.872363">
        <ele>97.58047</ele>
        <time>2021-07-01T12:34:00Z</time>
      </trkpt>
      <trkpt lat="42.408211" lon="2.872363">
        <ele>100.35565</ele>
        <time>2021-07-01T12:34:01Z</time>
      </trkpt>
      <trkpt lat="42.408211" lon="2.872363">
        <ele>100.74475</ele>
        <time>2021-07-01T12:34:02Z</time>
      </trkpt>
      <trkpt lat="42.408211" lon="2.872363">
        <ele>97.46442</ele>
        <time>2021-07-01T12:34:03Z</time>
      </trkpt>
      <trkpt lat="42.408211" lon="2.872363">
        <ele>100.18811</ele>
        <time>2021-07-01T12:34:04Z</time>
      </trkpt>
      <trkpt lat="42.408211" lon="2.872363">
        <ele>97.89899</ele>
        <time>2021-07-01T12:34:05Z</time>
      </trkpt>
      <trkpt lat="42.408211" lon="2.872363">
        <ele>98.01775</ele>
        <time>2021-07-01T12:34:06Z</time>
      </trkpt>
      <trkpt lat="42.408211" lon="2.872363">
        <ele>98.07008</ele>
        <time>2021-07-01T12:34:07Z</time>
      </trkpt>
      <trkpt lat="42.408211" lon="2.872363">
        <ele>98.07635</ele>
        <time>2021-07-01T12:34:08Z</time>
      </trkpt>
      <trkpt lat="42.408211" lon="2.872363">
        <ele>97.66026</ele>
        <time>2021-07-01T12:34:09Z</time>
      </trkpt>
      <trkpt lat="42.408211" lon="2.872363">
        <ele>99.68692</ele>
        <time>2021-07-01T12:34:10Z</time>
      </trkpt>
      <trkpt lat="42.408211" lon="2.872363">
        <ele>98.36359</ele>
        <time>2021-07-01T12:34:11Z</time>
      </trkpt>
      <trkpt lat="42.408211" lon="2.872363">
        <ele>98.02863</ele>
        <time>2021-07-01T12:34:12Z</time>
      </trkpt>
      <trkpt lat="42.408211" lon="2.872363">
        <ele>98.17031</ele>
        <time>2021-07-01T12:34:13Z</time>
      </trkpt>
      <trkpt lat="42.408211" lon="2.872363">
        <ele>98.03998</ele>
        <time>2021-07-01T12:34:14Z</time>
      </trkpt>
      <trkpt lat="42.408211" lon="2.872363">
        <ele>97.93870</ele>
        <time>2021-07-01T12:34:15Z</time>
      </trkpt>
      <trkpt lat="42.408211" lon="2.872363">
        <ele>99.11707</ele>
        <time>2021-07-01T12:34:16Z</time>
      </trkpt>
      <trkpt lat="42.408211" lon="2.872363">
        <ele>100.64893</ele>
        <time>2021-07-01T12:34:17Z</time>
      </trkpt>
      <trkpt lat="42.408211" lon="2.872363">
        <ele>100.98901</ele>
        <time>2021-07-01T12:34:18Z</time>
      </trkpt>
      <trkpt lat="42.408211" lon="2.872363">
        <ele>101.21185</ele>
        <time>2021-07-01T12:34:19Z</time>
      </trkpt>
      <trkpt lat="42.408211" lon="2.872363">
        <ele>101.33429</ele>
        <time>2021-07-01T12:34:20Z</time>
      </trkpt>
      <trkpt lat="42.408211" lon="2.872363">
        <ele>101.39410</ele>
        <time>2021-07-01T12:34:21Z</time>
      </trkpt>
      <trkpt lat="42.408211" lon="2.872363">
        <ele>101.42889</ele>
        <time>2021-07-01T12:34:22Z</time>
      </trkpt>
      <trkpt lat="42.408211" lon="2.872363">
        <ele>101.45490</ele>
        <time>2021-07-01T12:34:23Z</time>
      </trkpt>
      <trkpt lat="42.408211" lon="2.872363">
        <ele>101.47546</ele>
        <time>2021-07-01T12:34:24Z</time>
      </trkpt>
      <trkpt lat="42.408211" lon="2.872363">
        <ele>98.10161</ele>
        <time>2021-07-01T12:34:25Z</time>
      </trkpt>
      <trkpt lat="42.408211" lon="2.872363">
        <ele>100.55957</ele>
        <time>2021-07-01T12:34:26Z</time>
      </trkpt>
      <trkpt lat="42.408211" lon="2.872363">
        <ele>101.13940</ele>
        <time>2021-07-01T12:34:27Z</time>
      </trkpt>
      <trkpt lat="42.408211" lon="2.872363">
        <ele>101.88007</ele>
        <time>2021-07-01T12:34:28Z</time>
      </trkpt>
      <trkpt lat="42.408211" lon="2.872363">
        <ele>102.18958</ele>
        <time>2021-07-01T12:34:29Z</time>
      </trkpt>
      <trkpt lat="42.408211" lon="2.872363">
        <ele>102.38953</ele>
        <time>2021-07-01T12:34:30Z</time>
      </trkpt>
      <trkpt lat="42.408211" lon="2.872363">
        <ele>102.72052</ele>
        <time>2021-07-01T12:34:31Z</time>
      </trkpt>
      <trkpt lat="42.408211" lon="2.872363">
        <ele>102.97424</ele>
        <time>2021-07-01T12:34:32Z</time>
      </trkpt>
      <trkpt lat="42.408211" lon="2.872363">
        <ele>103.30829</ele>
        <time>2021-07-01T12:34:33Z</time>
      </trkpt>
      <trkpt lat="42.408211" lon="2.872363">
        <ele>103.72961</ele>
        <time>2021-07-01T12:34:34Z</time>
      </trkpt>
      <trkpt lat="42.408211" lon="2.872363">
        <ele>103.91553</ele>
        <time>2021-07-01T12:34:35Z</time>
      </trkpt>
      <trkpt lat="42.408211" lon="2.872363">
        <ele>103.96228</ele>
        <time>2021-07-01T12:34:36Z</time>
      </trkpt>
      <trkpt lat="42.408211" lon="2.872363">
        <ele>103.75769</ele>
        <time>2021-07-01T12:34:38Z</time>
      </trkpt>
      <trkpt lat="42.408211" lon="2.872363">
        <ele>104.15668</ele>
        <time>2021-07-01T12:34:38Z</time>
      </trkpt>
      <trkpt lat="42.408211" lon="2.872363">
        <ele>99.36937</ele>
        <time>2021-07-01T12:34:39Z</time>
      </trkpt>
      <trkpt lat="42.408211" lon="2.872363">
        <ele>101.98558</ele>
        <time>2021-07-01T12:34:40Z</time>
      </trkpt>
      <trkpt lat="42.408211" lon="2.872363">
        <ele>103.36029</ele>
        <time>2021-07-01T12:34:41Z</time>
      </trkpt>
      <trkpt lat="42.408211" lon="2.872363">
        <ele>104.04077</ele>
        <time>2021-07-01T12:34:42Z</time>
      </trkpt>
      <trkpt lat="42.408211" lon="2.872363">
        <ele>100.09856</ele>
        <time>2021-07-01T12:34:43Z</time>
      </trkpt>
      <trkpt lat="42.408211" lon="2.872363">
        <ele>100.18732</ele>
        <time>2021-07-01T12:34:44Z</time>
      </trkpt>
      <trkpt lat="42.408211" lon="2.872363">
        <ele>103.15845</ele>
        <time>2021-07-01T12:34:45Z</time>
      </trkpt>
      <trkpt lat="42.408211" lon="2.872363">
        <ele>100.30584</ele>
        <time>2021-07-01T12:34:46Z</time>
      </trkpt>
      <trkpt lat="42.408211" lon="2.872363">
        <ele>100.54276</ele>
        <time>2021-07-01T12:34:47Z</time>
      </trkpt>
      <trkpt lat="42.408211" lon="2.872363">
        <ele>100.42871</ele>
        <time>2021-07-01T12:34:48Z</time>
      </trkpt>
      <trkpt lat="42.408211" lon="2.872363">
        <ele>100.32088</ele>
        <time>2021-07-01T12:34:49Z</time>
      </trkpt>
      <trkpt lat="42.408211" lon="2.872363">
        <ele>100.12019</ele>
        <time>2021-07-01T12:34:50Z</time>
      </trkpt>
      <trkpt lat="42.408211" lon="2.872363">
        <ele>102.91541</ele>
        <time>2021-07-01T12:34:51Z</time>
      </trkpt>
      <trkpt lat="42.408211" lon="2.872363">
        <ele>103.38281</ele>
        <time>2021-07-01T12:34:52Z</time>
      </trkpt>
      <trkpt lat="42.408211" lon="2.872363">
        <ele>100.48851</ele>
        <time>2021-07-01T12:34:53Z</time>
      </trkpt>
      <trkpt lat="42.408211" lon="2.872363">
        <ele>103.04260</ele>
        <time>2021-07-01T12:34:54Z</time>
      </trkpt>
      <trkpt lat="42.408211" lon="2.872363">
        <ele>103.45227</ele>
        <time>2021-07-01T12:34:55Z</time>
      </trkpt>
      <trkpt lat="42.408211" lon="2.872363">
        <ele>103.66406</ele>
        <time>2021-07-01T12:34:56Z</time>
      </trkpt>
      <trkpt lat="42.408211" lon="2.872363">
        <ele>100.78042</ele>
        <time>2021-07-01T12:34:57Z</time>
      </trkpt>
      <trkpt lat="42.408211" lon="2.872363">
        <ele>103.12976</ele>
        <time>2021-07-01T12:34:58Z</time>
      </trkpt>
      <trkpt lat="42.408211" lon="2.872363">
        <ele>103.50488</ele>
        <time>2021-07-01T12:34:59Z</time>
      </trkpt>
      <trkpt lat="42.408211" lon="2.872363">
        <ele>103.70410</ele>
        <time>2021-07-01T12:35:00Z</time>
      </trkpt>
      <trkpt lat="42.408211" lon="2.872363">
        <ele>101.33419</ele>
        <time>2021-07-01T12:35:01Z</time>
      </trkpt>
      <trkpt lat="42.408211" lon="2.872363">
        <ele>101.97678</ele>
        <time>2021-07-01T12:35:02Z</time>
      </trkpt>
      <trkpt lat="42.408211" lon="2.872363">
        <ele>103.47357</ele>
        <time>2021-07-01T12:35:03Z</time>
      </trkpt>
      <trkpt lat="42.408211" lon="2.872363">
        <ele>101.48563</ele>
        <time>2021-07-01T12:35:04Z</time>
      </trkpt>
      <trkpt lat="42.408211" lon="2.872363">
        <ele>101.87363</ele>
        <time>2021-07-01T12:35:05Z</time>
      </trkpt>
      <trkpt lat="42.408211" lon="2.872363">
        <ele>101.79230</ele>
        <time>2021-07-01T12:35:06Z</time>
      </trkpt>
      <trkpt lat="42.408211" lon="2.872363">
        <ele>101.63123</ele>
        <time>2021-07-01T12:35:07Z</time>
      </trkpt>
      <trkpt lat="42.408211" lon="2.872363">
        <ele>101.50906</ele>
        <time>2021-07-01T12:35:08Z</time>
      </trkpt>
      <trkpt lat="42.408211" lon="2.872363">
        <ele>102.53101</ele>
        <time>2021-07-01T12:35:09Z</time>
      </trkpt>
      <trkpt lat="42.408211" lon="2.872363">
        <ele>101.41049</ele>
        <time>2021-07-01T12:35:10Z</time>
      </trkpt>
      <trkpt lat="42.408211" lon="2.872363">
        <ele>101.54763</ele>
        <time>2021-07-01T12:35:11Z</time>
      </trkpt>
      <trkpt lat="42.408211" lon="2.872363">
        <ele>102.55928</ele>
        <time>2021-07-01T12:35:12Z</time>
      </trkpt>
      <trkpt lat="42.408211" lon="2.872363">
        <ele>103.64777</ele>
        <time>2021-07-01T12:35:13Z</time>
      </trkpt>
      <trkpt lat="42.408211" lon="2.872363">
        <ele>103.81445</ele>
        <time>2021-07-01T12:35:14Z</time>
      </trkpt>
      <trkpt lat="42.408211" lon="2.872363">
        <ele>103.63226</ele>
        <time>2021-07-01T12:35:15Z</time>
      </trkpt>
      <trkpt lat="42.408211" lon="2.872363">
        <ele>102.57971</ele>
        <time>2021-07-01T12:35:16Z</time>
      </trkpt>
      <trkpt lat="42.408192" lon="2.872364">
        <ele>102.42969</ele>
        <time>2021-07-01T12:35:17Z</time>
      </trkpt>
      <trkpt lat="42.408100" lon="2.872373">
        <ele>100.65808</ele>
        <time>2021-07-01T12:35:18Z</time>
      </trkpt>
      <trkpt lat="42.408016" lon="2.872381">
        <ele>100.61218</ele>
        <time>2021-07-01T12:35:19Z</time>
      </trkpt>
      <trkpt lat="42.407715" lon="2.872428">
        <ele>99.87964</ele>
        <time>2021-07-01T12:35:20Z</time>
      </trkpt>
      <trkpt lat="42.407681" lon="2.872433">
        <ele>99.01605</ele>
        <time>2021-07-01T12:35:21Z</time>
      </trkpt>
      <trkpt lat="42.407219" lon="2.872518">
        <ele>97.86340</ele>
        <time>2021-07-01T12:35:22Z</time>
      </trkpt>
      <trkpt lat="42.406864" lon="2.872599">
        <ele>97.26685</ele>
        <time>2021-07-01T12:35:23Z</time>
      </trkpt>
      <trkpt lat="42.406605" lon="2.872673">
        <ele>96.56622</ele>
        <time>2021-07-01T12:35:25Z</time>
      </trkpt>
      <trkpt lat="42.406605" lon="2.872673">
        <ele>95.20312</ele>
        <time>2021-07-01T12:35:25Z</time>
      </trkpt>
      <trkpt lat="42.406170" lon="2.872830">
        <ele>94.73499</ele>
        <time>2021-07-01T12:35:26Z</time>
      </trkpt>
      <trkpt lat="42.405849" lon="2.872945">
        <ele>94.77954</ele>
        <time>2021-07-01T12:35:27Z</time>
      </trkpt>
      <trkpt lat="42.405567" lon="2.873072">
        <ele>94.17242</ele>
        <time>2021-07-01T12:35:28Z</time>
      </trkpt>
      <trkpt lat="42.405273" lon="2.873211">
        <ele>94.36792</ele>
        <time>2021-07-01T12:35:29Z</time>
      </trkpt>
      <trkpt lat="42.404999" lon="2.873351">
        <ele>94.80328</ele>
        <time>2021-07-01T12:35:30Z</time>
      </trkpt>
      <trkpt lat="42.404980" lon="2.873363">
        <ele>94.25348</ele>
        <time>2021-07-01T12:35:31Z</time>
      </trkpt>
      <trkpt lat="42.404613" lon="2.873569">
        <ele>92.98792</ele>
        <time>2021-07-01T12:35:32Z</time>
      </trkpt>
      <trkpt lat="42.404377" lon="2.873705">
        <ele>92.81555</ele>
        <time>2021-07-01T12:35:33Z</time>
      </trkpt>
      <trkpt lat="42.404377" lon="2.873705">
        <ele>92.09442</ele>
        <time>2021-07-01T12:35:34Z</time>
      </trkpt>
      <trkpt lat="42.403835" lon="2.874037">
        <ele>91.55029</ele>
        <time>2021-07-01T12:35:35Z</time>
      </trkpt>
      <trkpt lat="42.403568" lon="2.874212">
        <ele>91.55676</ele>
        <time>2021-07-01T12:35:36Z</time>
      </trkpt>
      <trkpt lat="42.403400" lon="2.874330">
        <ele>90.49158</ele>
        <time>2021-07-01T12:35:37Z</time>
      </trkpt>
      <trkpt lat="42.403194" lon="2.874465">
        <ele>90.56482</ele>
        <time>2021-07-01T12:35:38Z</time>
      </trkpt>
      <trkpt lat="42.402786" lon="2.874700">
        <ele>90.20227</ele>
        <time>2021-07-01T12:35:39Z</time>
      </trkpt>
      <trkpt lat="42.402378" lon="2.874947">
        <ele>90.60303</ele>
        <time>2021-07-01T12:35:40Z</time>
      </trkpt>
      <trkpt lat="42.402306" lon="2.874992">
        <ele>89.72742</ele>
        <time>2021-07-01T12:35:41Z</time>
      </trkpt>
      <trkpt lat="42.401943" lon="2.875222">
        <ele>89.80603</ele>
        <time>2021-07-01T12:35:42Z</time>
      </trkpt>
      <trkpt lat="42.401688" lon="2.875381">
        <ele>89.97516</ele>
        <time>2021-07-01T12:35:43Z</time>
      </trkpt>
      <trkpt lat="42.401379" lon="2.875568">
        <ele>89.09552</ele>
        <time>2021-07-01T12:35:44Z</time>
      </trkpt>
      <trkpt lat="42.401024" lon="2.875780">
        <ele>88.86035</ele>
        <time>2021-07-01T12:35:45Z</time>
      </trkpt>
      <trkpt lat="42.400490" lon="2.876072">
        <ele>89.03247</ele>
        <time>2021-07-01T12:35:46Z</time>
      </trkpt>
      <trkpt lat="42.400490" lon="2.876072">
        <ele>88.63849</ele>
        <time>2021-07-01T12:35:47Z</time>
      </trkpt>
      <trkpt lat="42.400311" lon="2.876170">
        <ele>88.34399</ele>
        <time>2021-07-01T12:35:48Z</time>
      </trkpt>
      <trkpt lat="42.400146" lon="2.876256">
        <ele>88.58228</ele>
        <time>2021-07-01T12:35:49Z</time>
      </trkpt>
      <trkpt lat="42.399841" lon="2.876421">
        <ele>88.33093</ele>
        <time>2021-07-01T12:35:50Z</time>
      </trkpt>
      <trkpt lat="42.399586" lon="2.876554">
        <ele>87.86047</ele>
        <time>2021-07-01T12:35:51Z</time>
      </trkpt>
      <trkpt lat="42.399139" lon="2.876764">
        <ele>88.01471</ele>
        <time>2021-07-01T12:35:52Z</time>
      </trkpt>
      <trkpt lat="42.398685" lon="2.876969">
        <ele>88.27423</ele>
        <time>2021-07-01T12:35:53Z</time>
      </trkpt>
      <trkpt lat="42.398605" lon="2.877003">
        <ele>87.51270</ele>
        <time>2021-07-01T12:35:54Z</time>
      </trkpt>
      <trkpt lat="42.398281" lon="2.877143">
        <ele>87.84534</ele>
        <time>2021-07-01T12:35:55Z</time>
      </trkpt>
      <trkpt lat="42.397984" lon="2.877259">
        <ele>87.80127</ele>
        <time>2021-07-01T12:35:56Z</time>
      </trkpt>
      <trkpt lat="42.397488" lon="2.877449">
        <ele>87.83447</ele>
        <time>2021-07-01T12:35:57Z</time>
      </trkpt>
      <trkpt lat="42.397472" lon="2.877454">
        <ele>87.06659</ele>
        <time>2021-07-01T12:35:58Z</time>
      </trkpt>
      <trkpt lat="42.397034" lon="2.877622">
        <ele>86.50842</ele>
        <time>2021-07-01T12:35:59Z</time>
      </trkpt>
      <trkpt lat="42.396763" lon="2.877726">
        <ele>85.84741</ele>
        <time>2021-07-01T12:36:00Z</time>
      </trkpt>
      <trkpt lat="42.396763" lon="2.877726">
        <ele>86.16907</ele>
        <time>2021-07-01T12:36:01Z</time>
      </trkpt>
      <trkpt lat="42.396214" lon="2.877936">
        <ele>85.58234</ele>
        <time>2021-07-01T12:36:02Z</time>
      </trkpt>
      <trkpt lat="42.395985" lon="2.878024">
        <ele>85.15259</ele>
        <time>2021-07-01T12:36:03Z</time>
      </trkpt>
      <trkpt lat="42.395592" lon="2.878191">
        <ele>84.59058</ele>
        <time>2021-07-01T12:36:04Z</time>
      </trkpt>
      <trkpt lat="42.395332" lon="2.878317">
        <ele>84.30682</ele>
        <time>2021-07-01T12:36:05Z</time>
      </trkpt>
      <trkpt lat="42.395031" lon="2.878474">
        <ele>84.25635</ele>
        <time>2021-07-01T12:36:06Z</time>
      </trkpt>
      <trkpt lat="42.394806" lon="2.878594">
        <ele>83.18530</ele>
        <time>2021-07-01T12:36:07Z</time>
      </trkpt>
      <trkpt lat="42.394520" lon="2.878761">
        <ele>82.74835</ele>
        <time>2021-07-01T12:36:08Z</time>
      </trkpt>
      <trkpt lat="42.394043" lon="2.879070">
        <ele>82.26794</ele>
        <time>2021-07-01T12:36:09Z</time>
      </trkpt>
      <trkpt lat="42.394043" lon="2.879070">
        <ele>81.34131</ele>
        <time>2021-07-01T12:36:10Z</time>
      </trkpt>
      <trkpt lat="42.393921" lon="2.879153">
        <ele>80.18018</ele>
        <time>2021-07-01T12:36:11Z</time>
      </trkpt>
      <trkpt lat="42.393509" lon="2.879454">
        <ele>79.08276</ele>
        <time>2021-07-01T12:36:12Z</time>
      </trkpt>
      <trkpt lat="42.393230" lon="2.879671">
        <ele>78.15509</ele>
        <time>2021-07-01T12:36:13Z</time>
      </trkpt>
      <trkpt lat="42.392963" lon="2.879880">
        <ele>77.97839</ele>
        <time>2021-07-01T12:36:14Z</time>
      </trkpt>
      <trkpt lat="42.392506" lon="2.880239">
        <ele>77.20679</ele>
        <time>2021-07-01T12:36:15Z</time>
      </trkpt>
      <trkpt lat="42.392452" lon="2.880281">
        <ele>76.34491</ele>
        <time>2021-07-01T12:36:16Z</time>
      </trkpt>
      <trkpt lat="42.392075" lon="2.880575">
        <ele>75.18909</ele>
        <time>2021-07-01T12:36:17Z</time>
      </trkpt>
      <trkpt lat="42.391647" lon="2.880877">
        <ele>74.36420</ele>
        <time>2021-07-01T12:36:18Z</time>
      </trkpt>
      <trkpt lat="42.391598" lon="2.880911">
        <ele>74.14368</ele>
        <time>2021-07-01T12:36:19Z</time>
      </trkpt>
      <trkpt lat="42.391598" lon="2.880911">
        <ele>73.96130</ele>
        <time>2021-07-01T12:36:20Z</time>
      </trkpt>
      <trkpt lat="42.391174" lon="2.881185">
        <ele>73.06433</ele>
        <time>2021-07-01T12:36:21Z</time>
      </trkpt>
      <trkpt lat="42.390938" lon="2.881316">
        <ele>71.97327</ele>
        <time>2021-07-01T12:36:22Z</time>
      </trkpt>
      <trkpt lat="42.390633" lon="2.881476">
        <ele>70.85272</ele>
        <time>2021-07-01T12:36:23Z</time>
      </trkpt>
      <trkpt lat="42.390327" lon="2.881619">
        <ele>71.59802</ele>
        <time>2021-07-01T12:36:24Z</time>
      </trkpt>
      <trkpt lat="42.390026" lon="2.881759">
        <ele>72.13397</ele>
        <time>2021-07-01T12:36:25Z</time>
      </trkpt>
      <trkpt lat="42.389679" lon="2.881897">
        <ele>72.67670</ele>
        <time>2021-07-01T12:36:26Z</time>
      </trkpt>
      <trkpt lat="42.389355" lon="2.882014">
        <ele>72.53656</ele>
        <time>2021-07-01T12:36:27Z</time>
      </trkpt>
      <trkpt lat="42.389015" lon="2.882122">
        <ele>72.49994</ele>
        <time>2021-07-01T12:36:28Z</time>
      </trkpt>
      <trkpt lat="42.389015" lon="2.882122">
        <ele>71.32172</ele>
        <time>2021-07-01T12:36:29Z</time>
      </trkpt>
      <trkpt lat="42.388657" lon="2.882236">
        <ele>70.87250</ele>
        <time>2021-07-01T12:36:30Z</time>
      </trkpt>
      <trkpt lat="42.388199" lon="2.882381">
        <ele>71.20819</ele>
        <time>2021-07-01T12:36:31Z</time>
      </trkpt>
      <trkpt lat="42.387810" lon="2.882503">
        <ele>70.13641</ele>
        <time>2021-07-01T12:36:32Z</time>
      </trkpt>
      <trkpt lat="42.387405" lon="2.882654">
        <ele>70.03479</ele>
        <time>2021-07-01T12:36:33Z</time>
      </trkpt>
      <trkpt lat="42.387280" lon="2.882704">
        <ele>70.40033</ele>
        <time>2021-07-01T12:36:34Z</time>
      </trkpt>
      <trkpt lat="42.386795" lon="2.882916">
        <ele>69.79071</ele>
        <time>2021-07-01T12:36:35Z</time>
      </trkpt>
      <trkpt lat="42.386711" lon="2.882956">
        <ele>69.72583</ele>
        <time>2021-07-01T12:36:36Z</time>
      </trkpt>
      <trkpt lat="42.386406" lon="2.883106">
        <ele>70.14941</ele>
        <time>2021-07-01T12:36:37Z</time>
      </trkpt>
      <trkpt lat="42.386169" lon="2.883253">
        <ele>71.21436</ele>
        <time>2021-07-01T12:36:38Z</time>
      </trkpt>
      <trkpt lat="42.385715" lon="2.883534">
        <ele>71.21472</ele>
        <time>2021-07-01T12:36:39Z</time>
      </trkpt>
      <trkpt lat="42.385330" lon="2.883781">
        <ele>72.42261</ele>
        <time>2021-07-01T12:36:40Z</time>
      </trkpt>
      <trkpt lat="42.385086" lon="2.883942">
        <ele>72.14758</ele>
        <time>2021-07-01T12:36:41Z</time>
      </trkpt>
      <trkpt lat="42.385040" lon="2.883973">
        <ele>71.49866</ele>
        <time>2021-07-01T12:36:42Z</time>
      </trkpt>
      <trkpt lat="42.384686" lon="2.884204">
        <ele>71.67932</ele>
        <time>2021-07-01T12:36:43Z</time>
      </trkpt>
      <trkpt lat="42.384686" lon="2.884204">
        <ele>73.18939</ele>
        <time>2021-07-01T12:36:44Z</time>
      </trkpt>
      <trkpt lat="42.384434" lon="2.884370">
        <ele>73.11639</ele>
        <time>2021-07-01T12:36:45Z</time>
      </trkpt>
      <trkpt lat="42.384113" lon="2.884565">
        <ele>73.83368</ele>
        <time>2021-07-01T12:36:46Z</time>
      </trkpt>
      <trkpt lat="42.383808" lon="2.884736">
        <ele>74.03192</ele>
        <time>2021-07-01T12:36:47Z</time>
      </trkpt>
      <trkpt lat="42.383392" lon="2.884963">
        <ele>73.42371</ele>
        <time>2021-07-01T12:36:48Z</time>
      </trkpt>
      <trkpt lat="42.383186" lon="2.885065">
        <ele>72.81671</ele>
        <time>2021-07-01T12:36:49Z</time>
      </trkpt>
      <trkpt lat="42.382854" lon="2.885218">
        <ele>73.04346</ele>
        <time>2021-07-01T12:36:50Z</time>
      </trkpt>
      <trkpt lat="42.382591" lon="2.885328">
        <ele>73.40253</ele>
        <time>2021-07-01T12:36:51Z</time>
      </trkpt>
      <trkpt lat="42.382099" lon="2.885495">
        <ele>73.69940</ele>
        <time>2021-07-01T12:36:52Z</time>
      </trkpt>
      <trkpt lat="42.381748" lon="2.885581">
        <ele>73.65106</ele>
        <time>2021-07-01T12:36:53Z</time>
      </trkpt>
      <trkpt lat="42.381714" lon="2.885590">
        <ele>73.54669</ele>
        <time>2021-07-01T12:36:54Z</time>
      </trkpt>
      <trkpt lat="42.381348" lon="2.885680">
        <ele>73.56152</ele>
        <time>2021-07-01T12:36:55Z</time>
      </trkpt>
      <trkpt lat="42.381081" lon="2.885746">
        <ele>73.23694</ele>
        <time>2021-07-01T12:36:56Z</time>
      </trkpt>
      <trkpt lat="42.380768" lon="2.885800">
        <ele>72.95734</ele>
        <time>2021-07-01T12:36:57Z</time>
      </trkpt>
      <trkpt lat="42.380245" lon="2.885880">
        <ele>73.08954</ele>
        <time>2021-07-01T12:36:58Z</time>
      </trkpt>
      <trkpt lat="42.380138" lon="2.885893">
        <ele>73.13110</ele>
        <time>2021-07-01T12:36:59Z</time>
      </trkpt>
      <trkpt lat="42.380138" lon="2.885893">
        <ele>73.27063</ele>
        <time>2021-07-01T12:37:00Z</time>
      </trkpt>
      <trkpt lat="42.379631" lon="2.885941">
        <ele>73.63293</ele>
        <time>2021-07-01T12:37:01Z</time>
      </trkpt>
      <trkpt lat="42.379128" lon="2.885988">
        <ele>74.03424</ele>
        <time>2021-07-01T12:37:02Z</time>
      </trkpt>
      <trkpt lat="42.378948" lon="2.886004">
        <ele>74.52393</ele>
        <time>2021-07-01T12:37:03Z</time>
      </trkpt>
      <trkpt lat="42.378788" lon="2.886019">
        <ele>74.96667</ele>
        <time>2021-07-01T12:37:04Z</time>
      </trkpt>
      <trkpt lat="42.378380" lon="2.886066">
        <ele>75.32355</ele>
        <time>2021-07-01T12:37:05Z</time>
      </trkpt>
      <trkpt lat="42.378059" lon="2.886116">
        <ele>75.71063</ele>
        <time>2021-07-01T12:37:06Z</time>
      </trkpt>
      <trkpt lat="42.377804" lon="2.886174">
        <ele>74.40314</ele>
        <time>2021-07-01T12:37:07Z</time>
      </trkpt>
      <trkpt lat="42.377476" lon="2.886263">
        <ele>74.56879</ele>
        <time>2021-07-01T12:37:08Z</time>
      </trkpt>
      <trkpt lat="42.377159" lon="2.886361">
        <ele>75.05640</ele>
        <time>2021-07-01T12:37:09Z</time>
      </trkpt>
      <trkpt lat="42.376846" lon="2.886473">
        <ele>75.53748</ele>
        <time>2021-07-01T12:37:10Z</time>
      </trkpt>
      <trkpt lat="42.376522" lon="2.886594">
        <ele>76.27118</ele>
        <time>2021-07-01T12:37:11Z</time>
      </trkpt>
      <trkpt lat="42.376015" lon="2.886801">
        <ele>77.08521</ele>
        <time>2021-07-01T12:37:12Z</time>
      </trkpt>
      <trkpt lat="42.375980" lon="2.886819">
        <ele>78.21295</ele>
        <time>2021-07-01T12:37:13Z</time>
      </trkpt>
      <trkpt lat="42.375980" lon="2.886819">
        <ele>77.90540</ele>
        <time>2021-07-01T12:37:14Z</time>
      </trkpt>
      <trkpt lat="42.375542" lon="2.887068">
        <ele>77.82666</ele>
        <time>2021-07-01T12:37:15Z</time>
      </trkpt>
      <trkpt lat="42.375221" lon="2.887266">
        <ele>78.04199</ele>
        <time>2021-07-01T12:37:16Z</time>
      </trkpt>
      <trkpt lat="42.374767" lon="2.887578">
        <ele>78.91345</ele>
        <time>2021-07-01T12:37:17Z</time>
      </trkpt>
      <trkpt lat="42.374474" lon="2.887780">
        <ele>79.36401</ele>
        <time>2021-07-01T12:37:18Z</time>
      </trkpt>
      <trkpt lat="42.374363" lon="2.887857">
        <ele>79.89136</ele>
        <time>2021-07-01T12:37:19Z</time>
      </trkpt>
      <trkpt lat="42.373894" lon="2.888191">
        <ele>79.98126</ele>
        <time>2021-07-01T12:37:20Z</time>
      </trkpt>
      <trkpt lat="42.373550" lon="2.888438">
        <ele>80.07941</ele>
        <time>2021-07-01T12:37:21Z</time>
      </trkpt>
      <trkpt lat="42.373520" lon="2.888461">
        <ele>80.78381</ele>
        <time>2021-07-01T12:37:22Z</time>
      </trkpt>
      <trkpt lat="42.373005" lon="2.888819">
        <ele>80.77173</ele>
        <time>2021-07-01T12:37:23Z</time>
      </trkpt>
      <trkpt lat="42.372723" lon="2.888995">
        <ele>80.93182</ele>
        <time>2021-07-01T12:37:24Z</time>
      </trkpt>
      <trkpt lat="42.372669" lon="2.889024">
        <ele>80.77087</ele>
        <time>2021-07-01T12:37:25Z</time>
      </trkpt>
      <trkpt lat="42.372330" lon="2.889215">
        <ele>80.26257</ele>
        <time>2021-07-01T12:37:26Z</time>
      </trkpt>
      <trkpt lat="42.372330" lon="2.889215">
        <ele>79.55151</ele>
        <time>2021-07-01T12:37:27Z</time>
      </trkpt>
      <trkpt lat="42.372063" lon="2.889347">
        <ele>79.48511</ele>
        <time>2021-07-01T12:37:28Z</time>
      </trkpt>
      <trkpt lat="42.371689" lon="2.889509">
        <ele>78.84198</ele>
        <time>2021-07-01T12:37:29Z</time>
      </trkpt>
      <trkpt lat="42.371334" lon="2.889649">
        <ele>78.64355</ele>
        <time>2021-07-01T12:37:30Z</time>
      </trkpt>
      <trkpt lat="42.371170" lon="2.889706">
        <ele>78.12415</ele>
        <time>2021-07-01T12:37:31Z</time>
      </trkpt>
      <trkpt lat="42.370667" lon="2.889868">
        <ele>77.51617</ele>
        <time>2021-07-01T12:37:32Z</time>
      </trkpt>
      <trkpt lat="42.370190" lon="2.889987">
        <ele>76.83405</ele>
        <time>2021-07-01T12:37:33Z</time>
      </trkpt>
      <trkpt lat="42.370110" lon="2.890008">
        <ele>76.47729</ele>
        <time>2021-07-01T12:37:34Z</time>
      </trkpt>
      <trkpt lat="42.369778" lon="2.890090">
        <ele>76.57495</ele>
        <time>2021-07-01T12:37:35Z</time>
      </trkpt>
      <trkpt lat="42.369209" lon="2.890225">
        <ele>76.63806</ele>
        <time>2021-07-01T12:37:36Z</time>
      </trkpt>
      <trkpt lat="42.369175" lon="2.890234">
        <ele>76.18219</ele>
        <time>2021-07-01T12:37:37Z</time>
      </trkpt>
      <trkpt lat="42.368790" lon="2.890335">
        <ele>74.96771</ele>
        <time>2021-07-01T12:37:38Z</time>
      </trkpt>
      <trkpt lat="42.368790" lon="2.890335">
        <ele>75.26721</ele>
        <time>2021-07-01T12:37:39Z</time>
      </trkpt>
      <trkpt lat="42.368431" lon="2.890461">
        <ele>75.05597</ele>
        <time>2021-07-01T12:37:40Z</time>
      </trkpt>
      <trkpt lat="42.367992" lon="2.890618">
        <ele>74.50079</ele>
        <time>2021-07-01T12:37:41Z</time>
      </trkpt>
      <trkpt lat="42.367512" lon="2.890835">
        <ele>72.44586</ele>
        <time>2021-07-01T12:37:42Z</time>
      </trkpt>
      <trkpt lat="42.367416" lon="2.890880">
        <ele>71.96832</ele>
        <time>2021-07-01T12:37:43Z</time>
      </trkpt>
      <trkpt lat="42.366905" lon="2.891171">
        <ele>71.71783</ele>
        <time>2021-07-01T12:37:44Z</time>
      </trkpt>
      <trkpt lat="42.366783" lon="2.891243">
        <ele>71.48572</ele>
        <time>2021-07-01T12:37:45Z</time>
      </trkpt>
      <trkpt lat="42.366520" lon="2.891402">
        <ele>70.85815</ele>
        <time>2021-07-01T12:37:46Z</time>
      </trkpt>
      <trkpt lat="42.366234" lon="2.891593">
        <ele>69.96320</ele>
        <time>2021-07-01T12:37:47Z</time>
      </trkpt>
      <trkpt lat="42.365959" lon="2.891805">
        <ele>68.19183</ele>
        <time>2021-07-01T12:37:48Z</time>
      </trkpt>
      <trkpt lat="42.365959" lon="2.891805">
        <ele>67.79657</ele>
        <time>2021-07-01T12:37:49Z</time>
      </trkpt>
      <trkpt lat="42.365677" lon="2.892047">
        <ele>67.87531</ele>
        <time>2021-07-01T12:37:50Z</time>
      </trkpt>
      <trkpt lat="42.365372" lon="2.892307">
        <ele>66.79346</ele>
        <time>2021-07-01T12:37:51Z</time>
      </trkpt>
      <trkpt lat="42.365028" lon="2.892621">
        <ele>65.93524</ele>
        <time>2021-07-01T12:37:52Z</time>
      </trkpt>
      <trkpt lat="42.364826" lon="2.892822">
        <ele>65.29089</ele>
        <time>2021-07-01T12:37:53Z</time>
      </trkpt>
      <trkpt lat="42.364574" lon="2.893089">
        <ele>65.10596</ele>
        <time>2021-07-01T12:37:54Z</time>
      </trkpt>
      <trkpt lat="42.364323" lon="2.893362">
        <ele>64.07446</ele>
        <time>2021-07-01T12:37:55Z</time>
      </trkpt>
      <trkpt lat="42.363907" lon="2.893885">
        <ele>63.64313</ele>
        <time>2021-07-01T12:37:56Z</time>
      </trkpt>
      <trkpt lat="42.363873" lon="2.893929">
        <ele>63.26880</ele>
        <time>2021-07-01T12:37:57Z</time>
      </trkpt>
      <trkpt lat="42.363579" lon="2.894309">
        <ele>63.24231</ele>
        <time>2021-07-01T12:37:58Z</time>
      </trkpt>
      <trkpt lat="42.363396" lon="2.894604">
        <ele>63.00342</ele>
        <time>2021-07-01T12:37:59Z</time>
      </trkpt>
      <trkpt lat="42.363396" lon="2.894604">
        <ele>62.74243</ele>
        <time>2021-07-01T12:38:00Z</time>
      </trkpt>
      <trkpt lat="42.363125" lon="2.895045">
        <ele>62.78369</ele>
        <time>2021-07-01T12:38:01Z</time>
      </trkpt>
      <trkpt lat="42.362904" lon="2.895419">
        <ele>62.09552</ele>
        <time>2021-07-01T12:38:02Z</time>
      </trkpt>
      <trkpt lat="42.362679" lon="2.895819">
        <ele>61.67084</ele>
        <time>2021-07-01T12:38:03Z</time>
      </trkpt>
      <trkpt lat="42.362404" lon="2.896311">
        <ele>61.32465</ele>
        <time>2021-07-01T12:38:04Z</time>
      </trkpt>
      <trkpt lat="42.362217" lon="2.896638">
        <ele>61.20221</ele>
        <time>2021-07-01T12:38:05Z</time>
      </trkpt>
      <trkpt lat="42.362190" lon="2.896684">
        <ele>60.92480</ele>
        <time>2021-07-01T12:38:06Z</time>
      </trkpt>
      <trkpt lat="42.361778" lon="2.897387">
        <ele>59.94159</ele>
        <time>2021-07-01T12:38:07Z</time>
      </trkpt>
      <trkpt lat="42.361702" lon="2.897512">
        <ele>60.22266</ele>
        <time>2021-07-01T12:38:08Z</time>
      </trkpt>
      <trkpt lat="42.361397" lon="2.897990">
        <ele>60.19781</ele>
        <time>2021-07-01T12:38:09Z</time>
      </trkpt>
      <trkpt lat="42.361267" lon="2.898182">
        <ele>59.37683</ele>
        <time>2021-07-01T12:38:10Z</time>
      </trkpt>
      <trkpt lat="42.360901" lon="2.898681">
        <ele>58.63525</ele>
        <time>2021-07-01T12:38:11Z</time>
      </trkpt>
      <trkpt lat="42.360901" lon="2.898681">
        <ele>58.66351</ele>
        <time>2021-07-01T12:38:12Z</time>
      </trkpt>
      <trkpt lat="42.360756" lon="2.898876">
        <ele>57.50867</ele>
        <time>2021-07-01T12:38:13Z</time>
      </trkpt>
      <trkpt lat="42.360687" lon="2.898967">
        <ele>57.03149</ele>
        <time>2021-07-01T12:38:14Z</time>
      </trkpt>
      <trkpt lat="42.360432" lon="2.899277">
        <ele>56.52173</ele>
        <time>2021-07-01T12:38:15Z</time>
      </trkpt>
      <trkpt lat="42.360195" lon="2.899551">
        <ele>56.05988</ele>
        <time>2021-07-01T12:38:16Z</time>
      </trkpt>
      <trkpt lat="42.359932" lon="2.899850">
        <ele>55.61664</ele>
        <time>2021-07-01T12:38:17Z</time>
      </trkpt>
      <trkpt lat="42.359570" lon="2.900223">
        <ele>54.68884</ele>
        <time>2021-07-01T12:38:18Z</time>
      </trkpt>
      <trkpt lat="42.359180" lon="2.900593">
        <ele>54.13525</ele>
        <time>2021-07-01T12:38:19Z</time>
      </trkpt>
      <trkpt lat="42.359104" lon="2.900664">
        <ele>53.35303</ele>
        <time>2021-07-01T12:38:20Z</time>
      </trkpt>
      <trkpt lat="42.358616" lon="2.901080">
        <ele>54.23840</ele>
        <time>2021-07-01T12:38:21Z</time>
      </trkpt>
      <trkpt lat="42.358368" lon="2.901280">
        <ele>52.91821</ele>
        <time>2021-07-01T12:38:22Z</time>
      </trkpt>
      <trkpt lat="42.358349" lon="2.901295">
        <ele>53.11487</ele>
        <time>2021-07-01T12:38:23Z</time>
      </trkpt>
      <trkpt lat="42.357826" lon="2.901681">
        <ele>53.29224</ele>
        <time>2021-07-01T12:38:24Z</time>
      </trkpt>
      <trkpt lat="42.357578" lon="2.901853">
        <ele>53.66864</ele>
        <time>2021-07-01T12:38:25Z</time>
      </trkpt>
      <trkpt lat="42.357479" lon="2.901917">
        <ele>54.42365</ele>
        <time>2021-07-01T12:38:26Z</time>
      </trkpt>
      <trkpt lat="42.357014" lon="2.902218">
        <ele>54.90698</ele>
        <time>2021-07-01T12:38:27Z</time>
      </trkpt>
      <trkpt lat="42.357014" lon="2.902218">
        <ele>54.40948</ele>
        <time>2021-07-01T12:38:28Z</time>
      </trkpt>
      <trkpt lat="42.356899" lon="2.902290">
        <ele>55.35785</ele>
        <time>2021-07-01T12:38:29Z</time>
      </trkpt>
      <trkpt lat="42.356621" lon="2.902470">
        <ele>54.45551</ele>
        <time>2021-07-01T12:38:30Z</time>
      </trkpt>
      <trkpt lat="42.356171" lon="2.902772">
        <ele>55.16339</ele>
        <time>2021-07-01T12:38:31Z</time>
      </trkpt>
      <trkpt lat="42.355762" lon="2.903056">
        <ele>54.54205</ele>
        <time>2021-07-01T12:38:32Z</time>
      </trkpt>
      <trkpt lat="42.355526" lon="2.903240">
        <ele>54.15967</ele>
        <time>2021-07-01T12:38:33Z</time>
      </trkpt>
      <trkpt lat="42.355442" lon="2.903304">
        <ele>53.94879</ele>
        <time>2021-07-01T12:38:34Z</time>
      </trkpt>
      <trkpt lat="42.355160" lon="2.903532">
        <ele>54.12415</ele>
        <time>2021-07-01T12:38:35Z</time>
      </trkpt>
      <trkpt lat="42.354927" lon="2.903730">
        <ele>54.58972</ele>
        <time>2021-07-01T12:38:36Z</time>
      </trkpt>
      <trkpt lat="42.354404" lon="2.904204">
        <ele>54.62390</ele>
        <time>2021-07-01T12:38:37Z</time>
      </trkpt>
      <trkpt lat="42.354111" lon="2.904501">
        <ele>54.52875</ele>
        <time>2021-07-01T12:38:38Z</time>
      </trkpt>
      <trkpt lat="42.353855" lon="2.904783">
        <ele>53.46033</ele>
        <time>2021-07-01T12:38:39Z</time>
      </trkpt>
      <trkpt lat="42.353855" lon="2.904783">
        <ele>53.62946</ele>
        <time>2021-07-01T12:38:40Z</time>
      </trkpt>
      <trkpt lat="42.353596" lon="2.905082">
        <ele>53.70142</ele>
        <time>2021-07-01T12:38:41Z</time>
      </trkpt>
      <trkpt lat="42.353447" lon="2.905257">
        <ele>53.59259</ele>
        <time>2021-07-01T12:38:42Z</time>
      </trkpt>
      <trkpt lat="42.353260" lon="2.905488">
        <ele>53.58496</ele>
        <time>2021-07-01T12:38:43Z</time>
      </trkpt>
      <trkpt lat="42.353016" lon="2.905798">
        <ele>53.15698</ele>
        <time>2021-07-01T12:38:44Z</time>
      </trkpt>
      <trkpt lat="42.352791" lon="2.906112">
        <ele>53.11902</ele>
        <time>2021-07-01T12:38:45Z</time>
      </trkpt>
      <trkpt lat="42.352562" lon="2.906445">
        <ele>52.73724</ele>
        <time>2021-07-01T12:38:46Z</time>
      </trkpt>
      <trkpt lat="42.352219" lon="2.906976">
        <ele>52.39459</ele>
        <time>2021-07-01T12:38:47Z</time>
      </trkpt>
      <trkpt lat="42.352219" lon="2.906976">
        <ele>52.25702</ele>
        <time>2021-07-01T12:38:48Z</time>
      </trkpt>
      <trkpt lat="42.352047" lon="2.907258">
        <ele>51.69769</ele>
        <time>2021-07-01T12:38:49Z</time>
      </trkpt>
      <trkpt lat="42.351791" lon="2.907708">
        <ele>51.58167</ele>
        <time>2021-07-01T12:38:50Z</time>
      </trkpt>
      <trkpt lat="42.351574" lon="2.908087">
        <ele>50.82385</ele>
        <time>2021-07-01T12:38:51Z</time>
      </trkpt>
      <trkpt lat="42.351440" lon="2.908322">
        <ele>49.80450</ele>
        <time>2021-07-01T12:38:52Z</time>
      </trkpt>
      <trkpt lat="42.351185" lon="2.908779">
        <ele>49.18091</ele>
        <time>2021-07-01T12:38:53Z</time>
      </trkpt>
      <trkpt lat="42.350937" lon="2.909225">
        <ele>48.91656</ele>
        <time>2021-07-01T12:38:54Z</time>
      </trkpt>
      <trkpt lat="42.350777" lon="2.909510">
        <ele>48.82220</ele>
        <time>2021-07-01T12:38:55Z</time>
      </trkpt>
      <trkpt lat="42.350700" lon="2.909648">
        <ele>48.95801</ele>
        <time>2021-07-01T12:38:56Z</time>
      </trkpt>
      <trkpt lat="42.350559" lon="2.909901">
        <ele>48.67639</ele>
        <time>2021-07-01T12:38:57Z</time>
      </trkpt>
      <trkpt lat="42.350349" lon="2.910259">
        <ele>48.16614</ele>
        <time>2021-07-01T12:38:58Z</time>
      </trkpt>
      <trkpt lat="42.350166" lon="2.910565">
        <ele>47.82623</ele>
        <time>2021-07-01T12:38:59Z</time>
      </trkpt>
      <trkpt lat="42.349804" lon="2.911171">
        <ele>47.41479</ele>
        <time>2021-07-01T12:39:00Z</time>
      </trkpt>
      <trkpt lat="42.349567" lon="2.911549">
        <ele>47.40192</ele>
        <time>2021-07-01T12:39:01Z</time>
      </trkpt>
      <trkpt lat="42.349380" lon="2.911842">
        <ele>47.78674</ele>
        <time>2021-07-01T12:39:02Z</time>
      </trkpt>
      <trkpt lat="42.349243" lon="2.912049">
        <ele>47.63904</ele>
        <time>2021-07-01T12:39:03Z</time>
      </trkpt>
      <trkpt lat="42.349243" lon="2.912049">
        <ele>47.35443</ele>
        <time>2021-07-01T12:39:04Z</time>
      </trkpt>
      <trkpt lat="42.348858" lon="2.912602">
        <ele>47.06085</ele>
        <time>2021-07-01T12:39:05Z</time>
      </trkpt>
      <trkpt lat="42.348755" lon="2.912750">
        <ele>46.26221</ele>
        <time>2021-07-01T12:39:06Z</time>
      </trkpt>
      <trkpt lat="42.348656" lon="2.912883">
        <ele>45.71167</ele>
        <time>2021-07-01T12:39:07Z</time>
      </trkpt>
      <trkpt lat="42.348427" lon="2.913201">
        <ele>44.95508</ele>
        <time>2021-07-01T12:39:08Z</time>
      </trkpt>
      <trkpt lat="42.348183" lon="2.913515">
        <ele>44.95929</ele>
        <time>2021-07-01T12:39:09Z</time>
      </trkpt>
      <trkpt lat="42.347942" lon="2.913823">
        <ele>45.09772</ele>
        <time>2021-07-01T12:39:10Z</time>
      </trkpt>
      <trkpt lat="42.347546" lon="2.914313">
        <ele>44.95496</ele>
        <time>2021-07-01T12:39:11Z</time>
      </trkpt>
      <trkpt lat="42.347240" lon="2.914672">
        <ele>44.74548</ele>
        <time>2021-07-01T12:39:12Z</time>
      </trkpt>
      <trkpt lat="42.346996" lon="2.914952">
        <ele>43.73938</ele>
        <time>2021-07-01T12:39:13Z</time>
      </trkpt>
      <trkpt lat="42.346966" lon="2.914984">
        <ele>43.84558</ele>
        <time>2021-07-01T12:39:14Z</time>
      </trkpt>
      <trkpt lat="42.346680" lon="2.915298">
        <ele>43.63519</ele>
        <time>2021-07-01T12:39:15Z</time>
      </trkpt>
      <trkpt lat="42.346401" lon="2.915598">
        <ele>43.45386</ele>
        <time>2021-07-01T12:39:16Z</time>
      </trkpt>
      <trkpt lat="42.346401" lon="2.915598">
        <ele>42.26343</ele>
        <time>2021-07-01T12:39:17Z</time>
      </trkpt>
      <trkpt lat="42.345924" lon="2.916075">
        <ele>41.68860</ele>
        <time>2021-07-01T12:39:18Z</time>
      </trkpt>
      <trkpt lat="42.345676" lon="2.916318">
        <ele>41.05548</ele>
        <time>2021-07-01T12:39:19Z</time>
      </trkpt>
      <trkpt lat="42.345409" lon="2.916569">
        <ele>40.53467</ele>
        <time>2021-07-01T12:39:20Z</time>
      </trkpt>
      <trkpt lat="42.345139" lon="2.916821">
        <ele>37.42871</ele>
        <time>2021-07-01T12:39:21Z</time>
      </trkpt>
      <trkpt lat="42.345039" lon="2.916914">
        <ele>37.33765</ele>
        <time>2021-07-01T12:39:22Z</time>
      </trkpt>
      <trkpt lat="42.344685" lon="2.917238">
        <ele>37.85175</ele>
        <time>2021-07-01T12:39:23Z</time>
      </trkpt>
      <trkpt lat="42.344547" lon="2.917355">
        <ele>37.46179</ele>
        <time>2021-07-01T12:39:24Z</time>
      </trkpt>
      <trkpt lat="42.344337" lon="2.917535">
        <ele>37.98230</ele>
        <time>2021-07-01T12:39:25Z</time>
      </trkpt>
      <trkpt lat="42.344067" lon="2.917764">
        <ele>37.86890</ele>
        <time>2021-07-01T12:39:26Z</time>
      </trkpt>
      <trkpt lat="42.343609" lon="2.918135">
        <ele>38.34735</ele>
        <time>2021-07-01T12:39:27Z</time>
      </trkpt>
      <trkpt lat="42.343452" lon="2.918263">
        <ele>37.62872</ele>
        <time>2021-07-01T12:39:28Z</time>
      </trkpt>
      <trkpt lat="42.343121" lon="2.918531">
        <ele>37.37744</ele>
        <time>2021-07-01T12:39:29Z</time>
      </trkpt>
      <trkpt lat="42.343121" lon="2.918531">
        <ele>39.00574</ele>
        <time>2021-07-01T12:39:30Z</time>
      </trkpt>
      <trkpt lat="42.342670" lon="2.918897">
        <ele>39.26099</ele>
        <time>2021-07-01T12:39:31Z</time>
      </trkpt>
      <trkpt lat="42.342392" lon="2.919121">
        <ele>39.56488</ele>
        <time>2021-07-01T12:39:32Z</time>
      </trkpt>
      <trkpt lat="42.342129" lon="2.919338">
        <ele>39.56921</ele>
        <time>2021-07-01T12:39:33Z</time>
      </trkpt>
      <trkpt lat="42.341999" lon="2.919447">
        <ele>39.65302</ele>
        <time>2021-07-01T12:39:34Z</time>
      </trkpt>
      <trkpt lat="42.341801" lon="2.919613">
        <ele>39.22961</ele>
        <time>2021-07-01T12:39:35Z</time>
      </trkpt>
      <trkpt lat="42.341530" lon="2.919838">
        <ele>39.60815</ele>
        <time>2021-07-01T12:39:36Z</time>
      </trkpt>
      <trkpt lat="42.341278" lon="2.920050">
        <ele>39.78406</ele>
        <time>2021-07-01T12:39:37Z</time>
      </trkpt>
      <trkpt lat="42.341019" lon="2.920268">
        <ele>39.81897</ele>
        <time>2021-07-01T12:39:38Z</time>
      </trkpt>
      <trkpt lat="42.340576" lon="2.920654">
        <ele>39.22461</ele>
        <time>2021-07-01T12:39:39Z</time>
      </trkpt>
      <trkpt lat="42.340473" lon="2.920747">
        <ele>39.02264</ele>
        <time>2021-07-01T12:39:40Z</time>
      </trkpt>
      <trkpt lat="42.340183" lon="2.921012">
        <ele>38.33740</ele>
        <time>2021-07-01T12:39:41Z</time>
      </trkpt>
      <trkpt lat="42.339931" lon="2.921250">
        <ele>37.96777</ele>
        <time>2021-07-01T12:39:42Z</time>
      </trkpt>
      <trkpt lat="42.339474" lon="2.921690">
        <ele>37.17688</ele>
        <time>2021-07-01T12:39:43Z</time>
      </trkpt>
      <trkpt lat="42.339458" lon="2.921705">
        <ele>37.18610</ele>
        <time>2021-07-01T12:39:44Z</time>
      </trkpt>
      <trkpt lat="42.339111" lon="2.922067">
        <ele>36.09540</ele>
        <time>2021-07-01T12:39:45Z</time>
      </trkpt>
      <trkpt lat="42.338749" lon="2.922443">
        <ele>36.29724</ele>
        <time>2021-07-01T12:39:46Z</time>
      </trkpt>
      <trkpt lat="42.338749" lon="2.922443">
        <ele>36.57642</ele>
        <time>2021-07-01T12:39:47Z</time>
      </trkpt>
      <trkpt lat="42.338608" lon="2.922590">
        <ele>36.70477</ele>
        <time>2021-07-01T12:39:48Z</time>
      </trkpt>
      <trkpt lat="42.338226" lon="2.923006">
        <ele>36.91522</ele>
        <time>2021-07-01T12:39:49Z</time>
      </trkpt>
      <trkpt lat="42.338135" lon="2.923109">
        <ele>37.34241</ele>
        <time>2021-07-01T12:39:50Z</time>
      </trkpt>
      <trkpt lat="42.337864" lon="2.923425">
        <ele>36.44757</ele>
        <time>2021-07-01T12:39:51Z</time>
      </trkpt>
      <trkpt lat="42.337631" lon="2.923700">
        <ele>36.62579</ele>
        <time>2021-07-01T12:39:52Z</time>
      </trkpt>
      <trkpt lat="42.337307" lon="2.924089">
        <ele>35.60663</ele>
        <time>2021-07-01T12:39:53Z</time>
      </trkpt>
      <trkpt lat="42.337128" lon="2.924306">
        <ele>35.90393</ele>
        <time>2021-07-01T12:39:54Z</time>
      </trkpt>
      <trkpt lat="42.336845" lon="2.924657">
        <ele>35.92194</ele>
        <time>2021-07-01T12:39:55Z</time>
      </trkpt>
      <trkpt lat="42.336525" lon="2.925077">
        <ele>35.63812</ele>
        <time>2021-07-01T12:39:56Z</time>
      </trkpt>
      <trkpt lat="42.336479" lon="2.925136">
        <ele>36.56702</ele>
        <time>2021-07-01T12:39:57Z</time>
      </trkpt>
      <trkpt lat="42.336174" lon="2.925540">
        <ele>36.39587</ele>
        <time>2021-07-01T12:39:58Z</time>
      </trkpt>
      <trkpt lat="42.335926" lon="2.925872">
        <ele>35.96613</ele>
        <time>2021-07-01T12:39:59Z</time>
      </trkpt>
      <trkpt lat="42.335926" lon="2.925872">
        <ele>35.80267</ele>
        <time>2021-07-01T12:40:00Z</time>
      </trkpt>
      <trkpt lat="42.335510" lon="2.926446">
        <ele>35.43335</ele>
        <time>2021-07-01T12:40:01Z</time>
      </trkpt>
      <trkpt lat="42.335281" lon="2.926763">
        <ele>35.31610</ele>
        <time>2021-07-01T12:40:02Z</time>
      </trkpt>
      <trkpt lat="42.335087" lon="2.927035">
        <ele>34.79388</ele>
        <time>2021-07-01T12:40:03Z</time>
      </trkpt>
      <trkpt lat="42.334850" lon="2.927356">
        <ele>33.99225</ele>
        <time>2021-07-01T12:40:04Z</time>
      </trkpt>
      <trkpt lat="42.334606" lon="2.927698">
        <ele>33.70410</ele>
        <time>2021-07-01T12:40:05Z</time>
      </trkpt>
      <trkpt lat="42.334515" lon="2.927819">
        <ele>33.62451</ele>
        <time>2021-07-01T12:40:06Z</time>
      </trkpt>
      <trkpt lat="42.334366" lon="2.928027">
        <ele>32.65021</ele>
        <time>2021-07-01T12:40:07Z</time>
      </trkpt>
      <trkpt lat="42.334137" lon="2.928342">
        <ele>32.08325</ele>
        <time>2021-07-01T12:40:08Z</time>
      </trkpt>
      <trkpt lat="42.333801" lon="2.928806">
        <ele>32.37457</ele>
        <time>2021-07-01T12:40:09Z</time>
      </trkpt>
      <trkpt lat="42.333488" lon="2.929238">
        <ele>33.15717</ele>
        <time>2021-07-01T12:40:10Z</time>
      </trkpt>
      <trkpt lat="42.333450" lon="2.929291">
        <ele>32.98938</ele>
        <time>2021-07-01T12:40:11Z</time>
      </trkpt>
      <trkpt lat="42.333183" lon="2.929660">
        <ele>33.64325</ele>
        <time>2021-07-01T12:40:12Z</time>
      </trkpt>
      <trkpt lat="42.332802" lon="2.930163">
        <ele>33.94739</ele>
        <time>2021-07-01T12:40:13Z</time>
      </trkpt>
      <trkpt lat="42.332802" lon="2.930163">
        <ele>34.12622</ele>
        <time>2021-07-01T12:40:14Z</time>
      </trkpt>
      <trkpt lat="42.332611" lon="2.930412">
        <ele>34.27887</ele>
        <time>2021-07-01T12:40:15Z</time>
      </trkpt>
      <trkpt lat="42.332481" lon="2.930583">
        <ele>34.63416</ele>
        <time>2021-07-01T12:40:16Z</time>
      </trkpt>
      <trkpt lat="42.332214" lon="2.930933">
        <ele>34.95990</ele>
        <time>2021-07-01T12:40:17Z</time>
      </trkpt>
      <trkpt lat="42.332039" lon="2.931147">
        <ele>34.50610</ele>
        <time>2021-07-01T12:40:18Z</time>
      </trkpt>
      <trkpt lat="42.331829" lon="2.931401">
        <ele>35.05334</ele>
        <time>2021-07-01T12:40:19Z</time>
      </trkpt>
      <trkpt lat="42.331505" lon="2.931798">
        <ele>36.40948</ele>
        <time>2021-07-01T12:40:20Z</time>
      </trkpt>
      <trkpt lat="42.331341" lon="2.931997">
        <ele>36.66962</ele>
        <time>2021-07-01T12:40:21Z</time>
      </trkpt>
      <trkpt lat="42.331020" lon="2.932373">
        <ele>36.16547</ele>
        <time>2021-07-01T12:40:22Z</time>
      </trkpt>
      <trkpt lat="42.330647" lon="2.932801">
        <ele>35.43250</ele>
        <time>2021-07-01T12:40:23Z</time>
      </trkpt>
      <trkpt lat="42.330383" lon="2.933103">
        <ele>35.35840</ele>
        <time>2021-07-01T12:40:24Z</time>
      </trkpt>
      <trkpt lat="42.330315" lon="2.933187">
        <ele>33.89911</ele>
        <time>2021-07-01T12:40:25Z</time>
      </trkpt>
      <trkpt lat="42.330029" lon="2.933509">
        <ele>32.88080</ele>
        <time>2021-07-01T12:40:26Z</time>
      </trkpt>
      <trkpt lat="42.330029" lon="2.933509">
        <ele>33.21674</ele>
        <time>2021-07-01T12:40:27Z</time>
      </trkpt>
      <trkpt lat="42.329784" lon="2.933774">
        <ele>32.87634</ele>
        <time>2021-07-01T12:40:28Z</time>
      </trkpt>
      <trkpt lat="42.329361" lon="2.934231">
        <ele>33.10089</ele>
        <time>2021-07-01T12:40:29Z</time>
      </trkpt>
      <trkpt lat="42.329216" lon="2.934387">
        <ele>32.19989</ele>
        <time>2021-07-01T12:40:30Z</time>
      </trkpt>
      <trkpt lat="42.329075" lon="2.934539">
        <ele>32.01837</ele>
        <time>2021-07-01T12:40:31Z</time>
      </trkpt>
      <trkpt lat="42.328709" lon="2.934911">
        <ele>32.62347</ele>
        <time>2021-07-01T12:40:32Z</time>
      </trkpt>
      <trkpt lat="42.328449" lon="2.935171">
        <ele>32.05115</ele>
        <time>2021-07-01T12:40:33Z</time>
      </trkpt>
      <trkpt lat="42.328300" lon="2.935320">
        <ele>31.67139</ele>
        <time>2021-07-01T12:40:34Z</time>
      </trkpt>
      <trkpt lat="42.328026" lon="2.935596">
        <ele>31.41547</ele>
        <time>2021-07-01T12:40:35Z</time>
      </trkpt>
      <trkpt lat="42.327789" lon="2.935830">
        <ele>31.16534</ele>
        <time>2021-07-01T12:40:36Z</time>
      </trkpt>
      <trkpt lat="42.327404" lon="2.936191">
        <ele>31.57068</ele>
        <time>2021-07-01T12:40:37Z</time>
      </trkpt>
      <trkpt lat="42.327026" lon="2.936537">
        <ele>31.78558</ele>
        <time>2021-07-01T12:40:38Z</time>
      </trkpt>
      <trkpt lat="42.326973" lon="2.936585">
        <ele>31.40045</ele>
        <time>2021-07-01T12:40:39Z</time>
      </trkpt>
      <trkpt lat="42.326439" lon="2.937062">
        <ele>31.13654</ele>
        <time>2021-07-01T12:40:40Z</time>
      </trkpt>
      <trkpt lat="42.326214" lon="2.937259">
        <ele>31.43115</ele>
        <time>2021-07-01T12:40:41Z</time>
      </trkpt>
      <trkpt lat="42.326122" lon="2.937339">
        <ele>32.22858</ele>
        <time>2021-07-01T12:40:42Z</time>
      </trkpt>
      <trkpt lat="42.325607" lon="2.937777">
        <ele>32.27539</ele>
        <time>2021-07-01T12:40:43Z</time>
      </trkpt>
      <trkpt lat="42.325607" lon="2.937777">
        <ele>32.56592</ele>
        <time>2021-07-01T12:40:44Z</time>
      </trkpt>
      <trkpt lat="42.325562" lon="2.937815">
        <ele>32.19073</ele>
        <time>2021-07-01T12:40:45Z</time>
      </trkpt>
      <trkpt lat="42.325256" lon="2.938072">
        <ele>32.34766</ele>
        <time>2021-07-01T12:40:46Z</time>
      </trkpt>
      <trkpt lat="42.325020" lon="2.938274">
        <ele>32.69391</ele>
        <time>2021-07-01T12:40:47Z</time>
      </trkpt>
      <trkpt lat="42.324745" lon="2.938494">
        <ele>33.30713</ele>
        <time>2021-07-01T12:40:48Z</time>
      </trkpt>
      <trkpt lat="42.324474" lon="2.938709">
        <ele>33.19513</ele>
        <time>2021-07-01T12:40:49Z</time>
      </trkpt>
      <trkpt lat="42.324169" lon="2.938950">
        <ele>33.25836</ele>
        <time>2021-07-01T12:40:50Z</time>
      </trkpt>
      <trkpt lat="42.323895" lon="2.939164">
        <ele>33.47119</ele>
        <time>2021-07-01T12:40:51Z</time>
      </trkpt>
      <trkpt lat="42.323639" lon="2.939355">
        <ele>33.42773</ele>
        <time>2021-07-01T12:40:52Z</time>
      </trkpt>
      <trkpt lat="42.323185" lon="2.939694">
        <ele>34.30298</ele>
        <time>2021-07-01T12:40:53Z</time>
      </trkpt>
      <trkpt lat="42.323097" lon="2.939759">
        <ele>34.44965</ele>
        <time>2021-07-01T12:40:54Z</time>
      </trkpt>
      <trkpt lat="42.322678" lon="2.940063">
        <ele>34.34320</ele>
        <time>2021-07-01T12:40:55Z</time>
      </trkpt>
      <trkpt lat="42.322678" lon="2.940063">
        <ele>34.36060</ele>
        <time>2021-07-01T12:40:56Z</time>
      </trkpt>
      <trkpt lat="42.322411" lon="2.940251">
        <ele>34.41534</ele>
        <time>2021-07-01T12:40:57Z</time>
      </trkpt>
      <trkpt lat="42.321915" lon="2.940591">
        <ele>35.19189</ele>
        <time>2021-07-01T12:40:58Z</time>
      </trkpt>
      <trkpt lat="42.321751" lon="2.940702">
        <ele>35.13483</ele>
        <time>2021-07-01T12:40:59Z</time>
      </trkpt>
      <trkpt lat="42.321560" lon="2.940833">
        <ele>35.59698</ele>
        <time>2021-07-01T12:41:00Z</time>
      </trkpt>
      <trkpt lat="42.321110" lon="2.941133">
        <ele>35.98572</ele>
        <time>2021-07-01T12:41:01Z</time>
      </trkpt>
      <trkpt lat="42.320717" lon="2.941388">
        <ele>35.55573</ele>
        <time>2021-07-01T12:41:02Z</time>
      </trkpt>
      <trkpt lat="42.320442" lon="2.941565">
        <ele>34.81354</ele>
        <time>2021-07-01T12:41:03Z</time>
      </trkpt>
      <trkpt lat="42.320370" lon="2.941610">
        <ele>33.61151</ele>
        <time>2021-07-01T12:41:04Z</time>
      </trkpt>
      <trkpt lat="42.320126" lon="2.941759">
        <ele>33.21295</ele>
        <time>2021-07-01T12:41:05Z</time>
      </trkpt>
      <trkpt lat="42.319618" lon="2.942062">
        <ele>33.27264</ele>
        <time>2021-07-01T12:41:06Z</time>
      </trkpt>
      <trkpt lat="42.319580" lon="2.942085">
        <ele>33.00671</ele>
        <time>2021-07-01T12:41:07Z</time>
      </trkpt>
      <trkpt lat="42.319160" lon="2.942328">
        <ele>32.65875</ele>
        <time>2021-07-01T12:41:08Z</time>
      </trkpt>
      <trkpt lat="42.319160" lon="2.942328">
        <ele>33.14404</ele>
        <time>2021-07-01T12:41:09Z</time>
      </trkpt>
      <trkpt lat="42.318897" lon="2.942484">
        <ele>33.20068</ele>
        <time>2021-07-01T12:41:10Z</time>
      </trkpt>
      <trkpt lat="42.318573" lon="2.942672">
        <ele>33.89612</ele>
        <time>2021-07-01T12:41:11Z</time>
      </trkpt>
      <trkpt lat="42.318142" lon="2.942905">
        <ele>33.67163</ele>
        <time>2021-07-01T12:41:12Z</time>
      </trkpt>
      <trkpt lat="42.317963" lon="2.943003">
        <ele>33.02313</ele>
        <time>2021-07-01T12:41:13Z</time>
      </trkpt>
      <trkpt lat="42.317493" lon="2.943246">
        <ele>33.71613</ele>
        <time>2021-07-01T12:41:14Z</time>
      </trkpt>
      <trkpt lat="42.317322" lon="2.943332">
        <ele>33.70105</ele>
        <time>2021-07-01T12:41:15Z</time>
      </trkpt>
      <trkpt lat="42.316753" lon="2.943621">
        <ele>33.66058</ele>
        <time>2021-07-01T12:41:16Z</time>
      </trkpt>
      <trkpt lat="42.316463" lon="2.943759">
        <ele>33.30963</ele>
        <time>2021-07-01T12:41:17Z</time>
      </trkpt>
      <trkpt lat="42.316402" lon="2.943788">
        <ele>33.43445</ele>
        <time>2021-07-01T12:41:18Z</time>
      </trkpt>
      <trkpt lat="42.315823" lon="2.944055">
        <ele>33.57172</ele>
        <time>2021-07-01T12:41:19Z</time>
      </trkpt>
      <trkpt lat="42.315796" lon="2.944067">
        <ele>33.23438</ele>
        <time>2021-07-01T12:41:20Z</time>
      </trkpt>
      <trkpt lat="42.315472" lon="2.944212">
        <ele>32.36243</ele>
        <time>2021-07-01T12:41:21Z</time>
      </trkpt>
      <trkpt lat="42.315197" lon="2.944335">
        <ele>32.30914</ele>
        <time>2021-07-01T12:41:22Z</time>
      </trkpt>
      <trkpt lat="42.314709" lon="2.944539">
        <ele>32.50281</ele>
        <time>2021-07-01T12:41:23Z</time>
      </trkpt>
      <trkpt lat="42.314678" lon="2.944551">
        <ele>32.30981</ele>
        <time>2021-07-01T12:41:24Z</time>
      </trkpt>
      <trkpt lat="42.314678" lon="2.944551">
        <ele>32.27246</ele>
        <time>2021-07-01T12:41:25Z</time>
      </trkpt>
      <trkpt lat="42.313969" lon="2.944818">
        <ele>31.64514</ele>
        <time>2021-07-01T12:41:26Z</time>
      </trkpt>
      <trkpt lat="42.313805" lon="2.944881">
        <ele>31.35620</ele>
        <time>2021-07-01T12:41:27Z</time>
      </trkpt>
      <trkpt lat="42.313660" lon="2.944935">
        <ele>30.51044</ele>
        <time>2021-07-01T12:41:28Z</time>
      </trkpt>
      <trkpt lat="42.313335" lon="2.945052">
        <ele>30.17505</ele>
        <time>2021-07-01T12:41:29Z</time>
      </trkpt>
      <trkpt lat="42.312813" lon="2.945227">
        <ele>30.06091</ele>
        <time>2021-07-01T12:41:30Z</time>
      </trkpt>
      <trkpt lat="42.312656" lon="2.945272">
        <ele>30.33759</ele>
        <time>2021-07-01T12:41:31Z</time>
      </trkpt>
      <trkpt lat="42.312027" lon="2.945442">
        <ele>30.23645</ele>
        <time>2021-07-01T12:41:32Z</time>
      </trkpt>
      <trkpt lat="42.311787" lon="2.945500">
        <ele>30.60547</ele>
        <time>2021-07-01T12:41:33Z</time>
      </trkpt>
      <trkpt lat="42.311478" lon="2.945573">
        <ele>30.88501</ele>
        <time>2021-07-01T12:41:34Z</time>
      </trkpt>
      <trkpt lat="42.311474" lon="2.945573">
        <ele>30.56042</ele>
        <time>2021-07-01T12:41:35Z</time>
      </trkpt>
      <trkpt lat="42.311474" lon="2.945573">
        <ele>30.03363</ele>
        <time>2021-07-01T12:41:36Z</time>
      </trkpt>
      <trkpt lat="42.311035" lon="2.945668">
        <ele>29.15161</ele>
        <time>2021-07-01T12:41:37Z</time>
      </trkpt>
      <trkpt lat="42.310635" lon="2.945753">
        <ele>28.23016</ele>
        <time>2021-07-01T12:41:38Z</time>
      </trkpt>
      <trkpt lat="42.310116" lon="2.945829">
        <ele>28.42786</ele>
        <time>2021-07-01T12:41:39Z</time>
      </trkpt>
      <trkpt lat="42.309792" lon="2.945865">
        <ele>28.25659</ele>
        <time>2021-07-01T12:41:40Z</time>
      </trkpt>
      <trkpt lat="42.309502" lon="2.945897">
        <ele>28.36469</ele>
        <time>2021-07-01T12:41:41Z</time>
      </trkpt>
      <trkpt lat="42.309208" lon="2.945924">
        <ele>28.38574</ele>
        <time>2021-07-01T12:41:42Z</time>
      </trkpt>
      <trkpt lat="42.309113" lon="2.945930">
        <ele>28.03949</ele>
        <time>2021-07-01T12:41:43Z</time>
      </trkpt>
      <trkpt lat="42.308582" lon="2.945952">
        <ele>28.20294</ele>
        <time>2021-07-01T12:41:44Z</time>
      </trkpt>
      <trkpt lat="42.308247" lon="2.945957">
        <ele>28.61707</ele>
        <time>2021-07-01T12:41:45Z</time>
      </trkpt>
      <trkpt lat="42.308208" lon="2.945958">
        <ele>28.98236</ele>
        <time>2021-07-01T12:41:46Z</time>
      </trkpt>
      <trkpt lat="42.307842" lon="2.945954">
        <ele>28.89075</ele>
        <time>2021-07-01T12:41:47Z</time>
      </trkpt>
      <trkpt lat="42.307568" lon="2.945943">
        <ele>29.63867</ele>
        <time>2021-07-01T12:41:48Z</time>
      </trkpt>
      <trkpt lat="42.307224" lon="2.945924">
        <ele>29.69128</ele>
        <time>2021-07-01T12:41:49Z</time>
      </trkpt>
      <trkpt lat="42.307224" lon="2.945924">
        <ele>29.57507</ele>
        <time>2021-07-01T12:41:50Z</time>
      </trkpt>
      <trkpt lat="42.306915" lon="2.945890">
        <ele>29.36090</ele>
        <time>2021-07-01T12:41:51Z</time>
      </trkpt>
      <trkpt lat="42.306557" lon="2.945847">
        <ele>29.38263</ele>
        <time>2021-07-01T12:41:52Z</time>
      </trkpt>
      <trkpt lat="42.306137" lon="2.945789">
        <ele>29.36151</ele>
        <time>2021-07-01T12:41:53Z</time>
      </trkpt>
      <trkpt lat="42.305817" lon="2.945735">
        <ele>28.52966</ele>
        <time>2021-07-01T12:41:54Z</time>
      </trkpt>
      <trkpt lat="42.305576" lon="2.945689">
        <ele>28.21509</ele>
        <time>2021-07-01T12:41:55Z</time>
      </trkpt>
      <trkpt lat="42.305267" lon="2.945613">
        <ele>27.99805</ele>
        <time>2021-07-01T12:41:56Z</time>
      </trkpt>
      <trkpt lat="42.304768" lon="2.945488">
        <ele>28.01141</ele>
        <time>2021-07-01T12:41:57Z</time>
      </trkpt>
      <trkpt lat="42.304634" lon="2.945455">
        <ele>28.05676</ele>
        <time>2021-07-01T12:41:58Z</time>
      </trkpt>
      <trkpt lat="42.304264" lon="2.945347">
        <ele>28.16357</ele>
        <time>2021-07-01T12:41:59Z</time>
      </trkpt>
      <trkpt lat="42.303974" lon="2.945257">
        <ele>27.65375</ele>
        <time>2021-07-01T12:42:00Z</time>
      </trkpt>
      <trkpt lat="42.303421" lon="2.945056">
        <ele>27.66016</ele>
        <time>2021-07-01T12:42:01Z</time>
      </trkpt>
      <trkpt lat="42.303421" lon="2.945056">
        <ele>28.01514</ele>
        <time>2021-07-01T12:42:02Z</time>
      </trkpt>
      <trkpt lat="42.303074" lon="2.944920">
        <ele>27.89905</ele>
        <time>2021-07-01T12:42:03Z</time>
      </trkpt>
      <trkpt lat="42.302727" lon="2.944774">
        <ele>28.20013</ele>
        <time>2021-07-01T12:42:04Z</time>
      </trkpt>
      <trkpt lat="42.302597" lon="2.944720">
        <ele>28.19281</ele>
        <time>2021-07-01T12:42:05Z</time>
      </trkpt>
      <trkpt lat="42.302200" lon="2.944534">
        <ele>28.28497</ele>
        <time>2021-07-01T12:42:06Z</time>
      </trkpt>
      <trkpt lat="42.301785" lon="2.944343">
        <ele>27.75848</ele>
        <time>2021-07-01T12:42:07Z</time>
      </trkpt>
      <trkpt lat="42.301716" lon="2.944308">
        <ele>28.37262</ele>
        <time>2021-07-01T12:42:08Z</time>
      </trkpt>
      <trkpt lat="42.301395" lon="2.944126">
        <ele>29.41321</ele>
        <time>2021-07-01T12:42:09Z</time>
      </trkpt>
      <trkpt lat="42.301144" lon="2.943985">
        <ele>29.95715</ele>
        <time>2021-07-01T12:42:10Z</time>
      </trkpt>
      <trkpt lat="42.300880" lon="2.943835">
        <ele>30.43542</ele>
        <time>2021-07-01T12:42:11Z</time>
      </trkpt>
      <trkpt lat="42.300301" lon="2.943499">
        <ele>30.94000</ele>
        <time>2021-07-01T12:42:12Z</time>
      </trkpt>
      <trkpt lat="42.299988" lon="2.943311">
        <ele>31.73340</ele>
        <time>2021-07-01T12:42:13Z</time>
      </trkpt>
      <trkpt lat="42.299988" lon="2.943311">
        <ele>32.00897</ele>
        <time>2021-07-01T12:42:14Z</time>
      </trkpt>
      <trkpt lat="42.299667" lon="2.943119">
        <ele>32.90454</ele>
        <time>2021-07-01T12:42:15Z</time>
      </trkpt>
      <trkpt lat="42.299507" lon="2.943020">
        <ele>33.43488</ele>
        <time>2021-07-01T12:42:16Z</time>
      </trkpt>
      <trkpt lat="42.299030" lon="2.942731">
        <ele>34.43256</ele>
        <time>2021-07-01T12:42:17Z</time>
      </trkpt>
      <trkpt lat="42.298916" lon="2.942660">
        <ele>34.59778</ele>
        <time>2021-07-01T12:42:18Z</time>
      </trkpt>
      <trkpt lat="42.298634" lon="2.942491">
        <ele>34.95703</ele>
        <time>2021-07-01T12:42:19Z</time>
      </trkpt>
      <trkpt lat="42.298157" lon="2.942205">
        <ele>36.56049</ele>
        <time>2021-07-01T12:42:20Z</time>
      </trkpt>
      <trkpt lat="42.297813" lon="2.942012">
        <ele>38.00934</ele>
        <time>2021-07-01T12:42:21Z</time>
      </trkpt>
      <trkpt lat="42.297783" lon="2.941993">
        <ele>38.82391</ele>
        <time>2021-07-01T12:42:22Z</time>
      </trkpt>
      <trkpt lat="42.297783" lon="2.941993">
        <ele>39.89923</ele>
        <time>2021-07-01T12:42:23Z</time>
      </trkpt>
      <trkpt lat="42.297157" lon="2.941650">
        <ele>39.49683</ele>
        <time>2021-07-01T12:42:24Z</time>
      </trkpt>
      <trkpt lat="42.296852" lon="2.941506">
        <ele>39.61426</ele>
        <time>2021-07-01T12:42:25Z</time>
      </trkpt>
      <trkpt lat="42.296665" lon="2.941419">
        <ele>39.74677</ele>
        <time>2021-07-01T12:42:26Z</time>
      </trkpt>
      <trkpt lat="42.296486" lon="2.941335">
        <ele>40.21228</ele>
        <time>2021-07-01T12:42:27Z</time>
      </trkpt>
      <trkpt lat="42.296150" lon="2.941184">
        <ele>40.64856</ele>
        <time>2021-07-01T12:42:28Z</time>
      </trkpt>
      <trkpt lat="42.295628" lon="2.940983">
        <ele>40.75439</ele>
        <time>2021-07-01T12:42:29Z</time>
      </trkpt>
      <trkpt lat="42.295238" lon="2.940845">
        <ele>41.41003</ele>
        <time>2021-07-01T12:42:30Z</time>
      </trkpt>
      <trkpt lat="42.295219" lon="2.940838">
        <ele>42.67651</ele>
        <time>2021-07-01T12:42:31Z</time>
      </trkpt>
      <trkpt lat="42.294632" lon="2.940647">
        <ele>43.23578</ele>
        <time>2021-07-01T12:42:33Z</time>
      </trkpt>
      <trkpt lat="42.294506" lon="2.940608">
        <ele>44.00702</ele>
        <time>2021-07-01T12:42:33Z</time>
      </trkpt>
      <trkpt lat="42.293964" lon="2.940461">
        <ele>44.64746</ele>
        <time>2021-07-01T12:42:34Z</time>
      </trkpt>
      <trkpt lat="42.293964" lon="2.940461">
        <ele>46.12323</ele>
        <time>2021-07-01T12:42:35Z</time>
      </trkpt>
      <trkpt lat="42.293934" lon="2.940453">
        <ele>46.17932</ele>
        <time>2021-07-01T12:42:36Z</time>
      </trkpt>
      <trkpt lat="42.293545" lon="2.940368">
        <ele>46.86725</ele>
        <time>2021-07-01T12:42:37Z</time>
      </trkpt>
      <trkpt lat="42.293259" lon="2.940317">
        <ele>48.07184</ele>
        <time>2021-07-01T12:42:38Z</time>
      </trkpt>
      <trkpt lat="42.292980" lon="2.940275">
        <ele>48.37396</ele>
        <time>2021-07-01T12:42:39Z</time>
      </trkpt>
      <trkpt lat="42.292473" lon="2.940237">
        <ele>49.96783</ele>
        <time>2021-07-01T12:42:40Z</time>
      </trkpt>
      <trkpt lat="42.292274" lon="2.940227">
        <ele>50.19092</ele>
        <time>2021-07-01T12:42:41Z</time>
      </trkpt>
      <trkpt lat="42.291721" lon="2.940211">
        <ele>51.32593</ele>
        <time>2021-07-01T12:42:42Z</time>
      </trkpt>
      <trkpt lat="42.291569" lon="2.940206">
        <ele>51.29071</ele>
        <time>2021-07-01T12:42:43Z</time>
      </trkpt>
      <trkpt lat="42.290989" lon="2.940229">
        <ele>52.09644</ele>
        <time>2021-07-01T12:42:44Z</time>
      </trkpt>
      <trkpt lat="42.290886" lon="2.940235">
        <ele>54.47351</ele>
        <time>2021-07-01T12:42:45Z</time>
      </trkpt>
      <trkpt lat="42.290428" lon="2.940262">
        <ele>55.61646</ele>
        <time>2021-07-01T12:42:46Z</time>
      </trkpt>
      <trkpt lat="42.290428" lon="2.940262">
        <ele>55.49884</ele>
        <time>2021-07-01T12:42:47Z</time>
      </trkpt>
      <trkpt lat="42.290344" lon="2.940268">
        <ele>56.22998</ele>
        <time>2021-07-01T12:42:48Z</time>
      </trkpt>
      <trkpt lat="42.289967" lon="2.940307">
        <ele>56.62323</ele>
        <time>2021-07-01T12:42:49Z</time>
      </trkpt>
      <trkpt lat="42.289700" lon="2.940335">
        <ele>58.06738</ele>
        <time>2021-07-01T12:42:50Z</time>
      </trkpt>
      <trkpt lat="42.289257" lon="2.940393">
        <ele>59.49854</ele>
        <time>2021-07-01T12:42:51Z</time>
      </trkpt>
      <trkpt lat="42.289104" lon="2.940424">
        <ele>60.76367</ele>
        <time>2021-07-01T12:42:52Z</time>
      </trkpt>
      <trkpt lat="42.288651" lon="2.940516">
        <ele>62.10614</ele>
        <time>2021-07-01T12:42:53Z</time>
      </trkpt>
      <trkpt lat="42.288364" lon="2.940580">
        <ele>63.93213</ele>
        <time>2021-07-01T12:42:54Z</time>
      </trkpt>
      <trkpt lat="42.287769" lon="2.940719">
        <ele>64.78479</ele>
        <time>2021-07-01T12:42:55Z</time>
      </trkpt>
      <trkpt lat="42.287476" lon="2.940791">
        <ele>65.71887</ele>
        <time>2021-07-01T12:42:56Z</time>
      </trkpt>
      <trkpt lat="42.287186" lon="2.940863">
        <ele>66.90747</ele>
        <time>2021-07-01T12:42:57Z</time>
      </trkpt>
      <trkpt lat="42.287128" lon="2.940877">
        <ele>68.23737</ele>
        <time>2021-07-01T12:42:58Z</time>
      </trkpt>
      <trkpt lat="42.286549" lon="2.941021">
        <ele>68.61285</ele>
        <time>2021-07-01T12:42:59Z</time>
      </trkpt>
      <trkpt lat="42.286415" lon="2.941053">
        <ele>69.34161</ele>
        <time>2021-07-01T12:43:00Z</time>
      </trkpt>
      <trkpt lat="42.285870" lon="2.941189">
        <ele>70.18378</ele>
        <time>2021-07-01T12:43:01Z</time>
      </trkpt>
      <trkpt lat="42.285690" lon="2.941234">
        <ele>71.31390</ele>
        <time>2021-07-01T12:43:02Z</time>
      </trkpt>
      <trkpt lat="42.285622" lon="2.941251">
        <ele>72.51331</ele>
        <time>2021-07-01T12:43:03Z</time>
      </trkpt>
      <trkpt lat="42.285622" lon="2.941251">
        <ele>74.00696</ele>
        <time>2021-07-01T12:43:04Z</time>
      </trkpt>
      <trkpt lat="42.285225" lon="2.941333">
        <ele>74.72534</ele>
        <time>2021-07-01T12:43:05Z</time>
      </trkpt>
      <trkpt lat="42.284946" lon="2.941384">
        <ele>76.15350</ele>
        <time>2021-07-01T12:43:06Z</time>
      </trkpt>
      <trkpt lat="42.284618" lon="2.941444">
        <ele>77.25659</ele>
        <time>2021-07-01T12:43:08Z</time>
      </trkpt>
      <trkpt lat="42.284145" lon="2.941528">
        <ele>77.50952</ele>
        <time>2021-07-01T12:43:08Z</time>
      </trkpt>
      <trkpt lat="42.283665" lon="2.941587">
        <ele>77.87799</ele>
        <time>2021-07-01T12:43:09Z</time>
      </trkpt>
      <trkpt lat="42.283306" lon="2.941617">
        <ele>78.10144</ele>
        <time>2021-07-01T12:43:10Z</time>
      </trkpt>
      <trkpt lat="42.282963" lon="2.941637">
        <ele>78.47382</ele>
        <time>2021-07-01T12:43:11Z</time>
      </trkpt>
      <trkpt lat="42.282642" lon="2.941642">
        <ele>79.18176</ele>
        <time>2021-07-01T12:43:12Z</time>
      </trkpt>
      <trkpt lat="42.282364" lon="2.941637">
        <ele>80.01434</ele>
        <time>2021-07-01T12:43:13Z</time>
      </trkpt>
      <trkpt lat="42.282284" lon="2.941636">
        <ele>80.10376</ele>
        <time>2021-07-01T12:43:14Z</time>
      </trkpt>
      <trkpt lat="42.281635" lon="2.941598">
        <ele>80.22687</ele>
        <time>2021-07-01T12:43:15Z</time>
      </trkpt>
      <trkpt lat="42.281635" lon="2.941598">
        <ele>80.12640</ele>
        <time>2021-07-01T12:43:16Z</time>
      </trkpt>
      <trkpt lat="42.281418" lon="2.941579">
        <ele>80.80762</ele>
        <time>2021-07-01T12:43:17Z</time>
      </trkpt>
      <trkpt lat="42.281296" lon="2.941562">
        <ele>80.07758</ele>
        <time>2021-07-01T12:43:18Z</time>
      </trkpt>
      <trkpt lat="42.280945" lon="2.941511">
        <ele>80.40552</ele>
        <time>2021-07-01T12:43:19Z</time>
      </trkpt>
      <trkpt lat="42.280621" lon="2.941450">
        <ele>79.26794</ele>
        <time>2021-07-01T12:43:20Z</time>
      </trkpt>
      <trkpt lat="42.280231" lon="2.941364">
        <ele>79.42883</ele>
        <time>2021-07-01T12:43:21Z</time>
      </trkpt>
      <trkpt lat="42.279743" lon="2.941240">
        <ele>79.60339</ele>
        <time>2021-07-01T12:43:22Z</time>
      </trkpt>
      <trkpt lat="42.279621" lon="2.941206">
        <ele>79.84192</ele>
        <time>2021-07-01T12:43:23Z</time>
      </trkpt>
      <trkpt lat="42.279358" lon="2.941128">
        <ele>79.30817</ele>
        <time>2021-07-01T12:43:24Z</time>
      </trkpt>
      <trkpt lat="42.278927" lon="2.940980">
        <ele>79.58087</ele>
        <time>2021-07-01T12:43:25Z</time>
      </trkpt>
      <trkpt lat="42.278538" lon="2.940847">
        <ele>79.53479</ele>
        <time>2021-07-01T12:43:26Z</time>
      </trkpt>
      <trkpt lat="42.278477" lon="2.940827">
        <ele>79.84717</ele>
        <time>2021-07-01T12:43:27Z</time>
      </trkpt>
      <trkpt lat="42.278191" lon="2.940721">
        <ele>80.81610</ele>
        <time>2021-07-01T12:43:28Z</time>
      </trkpt>
      <trkpt lat="42.277710" lon="2.940542">
        <ele>81.10181</ele>
        <time>2021-07-01T12:43:29Z</time>
      </trkpt>
      <trkpt lat="42.277603" lon="2.940501">
        <ele>80.36884</ele>
        <time>2021-07-01T12:43:30Z</time>
      </trkpt>
      <trkpt lat="42.276920" lon="2.940234">
        <ele>80.43921</ele>
        <time>2021-07-01T12:43:31Z</time>
      </trkpt>
      <trkpt lat="42.276672" lon="2.940142">
        <ele>80.45447</ele>
        <time>2021-07-01T12:43:32Z</time>
      </trkpt>
      <trkpt lat="42.276672" lon="2.940142">
        <ele>79.80597</ele>
        <time>2021-07-01T12:43:33Z</time>
      </trkpt>
      <trkpt lat="42.276340" lon="2.940018">
        <ele>80.57971</ele>
        <time>2021-07-01T12:43:34Z</time>
      </trkpt>
      <trkpt lat="42.276096" lon="2.939927">
        <ele>80.34058</ele>
        <time>2021-07-01T12:43:35Z</time>
      </trkpt>
      <trkpt lat="42.275784" lon="2.939817">
        <ele>80.13696</ele>
        <time>2021-07-01T12:43:36Z</time>
      </trkpt>
      <trkpt lat="42.275337" lon="2.939666">
        <ele>79.47314</ele>
        <time>2021-07-01T12:43:37Z</time>
      </trkpt>
      <trkpt lat="42.275024" lon="2.939564">
        <ele>78.77563</ele>
        <time>2021-07-01T12:43:38Z</time>
      </trkpt>
      <trkpt lat="42.274719" lon="2.939484">
        <ele>78.74438</ele>
        <time>2021-07-01T12:43:39Z</time>
      </trkpt>
      <trkpt lat="42.274673" lon="2.939472">
        <ele>79.08734</ele>
        <time>2021-07-01T12:43:40Z</time>
      </trkpt>
      <trkpt lat="42.274006" lon="2.939325">
        <ele>78.99725</ele>
        <time>2021-07-01T12:43:41Z</time>
      </trkpt>
      <trkpt lat="42.273945" lon="2.939312">
        <ele>78.60291</ele>
        <time>2021-07-01T12:43:42Z</time>
      </trkpt>
      <trkpt lat="42.273708" lon="2.939261">
        <ele>79.31152</ele>
        <time>2021-07-01T12:43:43Z</time>
      </trkpt>
      <trkpt lat="42.273422" lon="2.939210">
        <ele>79.31030</ele>
        <time>2021-07-01T12:43:44Z</time>
      </trkpt>
      <trkpt lat="42.272869" lon="2.939134">
        <ele>78.91339</ele>
        <time>2021-07-01T12:43:45Z</time>
      </trkpt>
      <trkpt lat="42.272842" lon="2.939131">
        <ele>79.18945</ele>
        <time>2021-07-01T12:43:46Z</time>
      </trkpt>
      <trkpt lat="42.272404" lon="2.939100">
        <ele>78.39001</ele>
        <time>2021-07-01T12:43:47Z</time>
      </trkpt>
      <trkpt lat="42.271854" lon="2.939083">
        <ele>78.66302</ele>
        <time>2021-07-01T12:43:48Z</time>
      </trkpt>
      <trkpt lat="42.271854" lon="2.939083">
        <ele>78.33124</ele>
        <time>2021-07-01T12:43:49Z</time>
      </trkpt>
      <trkpt lat="42.271530" lon="2.939082">
        <ele>78.08643</ele>
        <time>2021-07-01T12:43:50Z</time>
      </trkpt>
      <trkpt lat="42.271423" lon="2.939089">
        <ele>77.57214</ele>
        <time>2021-07-01T12:43:51Z</time>
      </trkpt>
      <trkpt lat="42.271084" lon="2.939115">
        <ele>77.19287</ele>
        <time>2021-07-01T12:43:52Z</time>
      </trkpt>
      <trkpt lat="42.270653" lon="2.939150">
        <ele>76.66211</ele>
        <time>2021-07-01T12:43:53Z</time>
      </trkpt>
      <trkpt lat="42.270344" lon="2.939195">
        <ele>75.68243</ele>
        <time>2021-07-01T12:43:54Z</time>
      </trkpt>
      <trkpt lat="42.270073" lon="2.939233">
        <ele>75.30048</ele>
        <time>2021-07-01T12:43:55Z</time>
      </trkpt>
      <trkpt lat="42.269756" lon="2.939290">
        <ele>74.40363</ele>
        <time>2021-07-01T12:43:56Z</time>
      </trkpt>
      <trkpt lat="42.269463" lon="2.939356">
        <ele>74.59583</ele>
        <time>2021-07-01T12:43:57Z</time>
      </trkpt>
      <trkpt lat="42.268944" lon="2.939493">
        <ele>73.62769</ele>
        <time>2021-07-01T12:43:58Z</time>
      </trkpt>
      <trkpt lat="42.268566" lon="2.939604">
        <ele>72.95386</ele>
        <time>2021-07-01T12:43:59Z</time>
      </trkpt>
      <trkpt lat="42.268505" lon="2.939623">
        <ele>72.47668</ele>
        <time>2021-07-01T12:44:00Z</time>
      </trkpt>
      <trkpt lat="42.268120" lon="2.939779">
        <ele>71.79364</ele>
        <time>2021-07-01T12:44:01Z</time>
      </trkpt>
      <trkpt lat="42.267715" lon="2.939942">
        <ele>71.24512</ele>
        <time>2021-07-01T12:44:02Z</time>
      </trkpt>
      <trkpt lat="42.267509" lon="2.940027">
        <ele>71.18506</ele>
        <time>2021-07-01T12:44:03Z</time>
      </trkpt>
      <trkpt lat="42.267509" lon="2.940027">
        <ele>70.74384</ele>
        <time>2021-07-01T12:44:04Z</time>
      </trkpt>
      <trkpt lat="42.267075" lon="2.940232">
        <ele>69.45520</ele>
        <time>2021-07-01T12:44:05Z</time>
      </trkpt>
      <trkpt lat="42.266926" lon="2.940304">
        <ele>68.78503</ele>
        <time>2021-07-01T12:44:06Z</time>
      </trkpt>
      <trkpt lat="42.266521" lon="2.940506">
        <ele>69.25049</ele>
        <time>2021-07-01T12:44:07Z</time>
      </trkpt>
      <trkpt lat="42.266270" lon="2.940642">
        <ele>69.49268</ele>
        <time>2021-07-01T12:44:08Z</time>
      </trkpt>
      <trkpt lat="42.266018" lon="2.940786">
        <ele>69.08984</ele>
        <time>2021-07-01T12:44:09Z</time>
      </trkpt>
      <trkpt lat="42.265762" lon="2.940930">
        <ele>69.25769</ele>
        <time>2021-07-01T12:44:10Z</time>
      </trkpt>
      <trkpt lat="42.265255" lon="2.941217">
        <ele>69.37360</ele>
        <time>2021-07-01T12:44:11Z</time>
      </trkpt>
      <trkpt lat="42.264881" lon="2.941425">
        <ele>69.32928</ele>
        <time>2021-07-01T12:44:12Z</time>
      </trkpt>
      <trkpt lat="42.264595" lon="2.941574">
        <ele>69.20911</ele>
        <time>2021-07-01T12:44:13Z</time>
      </trkpt>
      <trkpt lat="42.264576" lon="2.941584">
        <ele>69.38928</ele>
        <time>2021-07-01T12:44:14Z</time>
      </trkpt>
      <trkpt lat="42.264217" lon="2.941787">
        <ele>68.57361</ele>
        <time>2021-07-01T12:44:15Z</time>
      </trkpt>
      <trkpt lat="42.264217" lon="2.941787">
        <ele>68.97919</ele>
        <time>2021-07-01T12:44:16Z</time>
      </trkpt>
      <trkpt lat="42.263924" lon="2.941954">
        <ele>68.97034</ele>
        <time>2021-07-01T12:44:17Z</time>
      </trkpt>
      <trkpt lat="42.263618" lon="2.942126">
        <ele>68.57635</ele>
        <time>2021-07-01T12:44:18Z</time>
      </trkpt>
      <trkpt lat="42.263302" lon="2.942292">
        <ele>68.25159</ele>
        <time>2021-07-01T12:44:19Z</time>
      </trkpt>
      <trkpt lat="42.262901" lon="2.942498">
        <ele>67.76196</ele>
        <time>2021-07-01T12:44:20Z</time>
      </trkpt>
      <trkpt lat="42.262421" lon="2.942747">
        <ele>67.08905</ele>
        <time>2021-07-01T12:44:21Z</time>
      </trkpt>
      <trkpt lat="42.262329" lon="2.942792">
        <ele>66.05792</ele>
        <time>2021-07-01T12:44:22Z</time>
      </trkpt>
      <trkpt lat="42.261787" lon="2.943028">
        <ele>65.63263</ele>
        <time>2021-07-01T12:44:23Z</time>
      </trkpt>
      <trkpt lat="42.261688" lon="2.943071">
        <ele>66.80493</ele>
        <time>2021-07-01T12:44:24Z</time>
      </trkpt>
      <trkpt lat="42.261414" lon="2.943191">
        <ele>66.68750</ele>
        <time>2021-07-01T12:44:25Z</time>
      </trkpt>
      <trkpt lat="42.260929" lon="2.943390">
        <ele>66.61865</ele>
        <time>2021-07-01T12:44:26Z</time>
      </trkpt>
      <trkpt lat="42.260605" lon="2.943491">
        <ele>66.49359</ele>
        <time>2021-07-01T12:44:27Z</time>
      </trkpt>
      <trkpt lat="42.260326" lon="2.943577">
        <ele>65.93671</ele>
        <time>2021-07-01T12:44:28Z</time>
      </trkpt>
      <trkpt lat="42.260250" lon="2.943602">
        <ele>66.39294</ele>
        <time>2021-07-01T12:44:29Z</time>
      </trkpt>
      <trkpt lat="42.259914" lon="2.943703">
        <ele>67.54663</ele>
        <time>2021-07-01T12:44:30Z</time>
      </trkpt>
      <trkpt lat="42.259914" lon="2.943703">
        <ele>66.57666</ele>
        <time>2021-07-01T12:44:31Z</time>
      </trkpt>
      <trkpt lat="42.259613" lon="2.943775">
        <ele>65.76617</ele>
        <time>2021-07-01T12:44:32Z</time>
      </trkpt>
      <trkpt lat="42.259064" lon="2.943908">
        <ele>64.67145</ele>
        <time>2021-07-01T12:44:34Z</time>
      </trkpt>
      <trkpt lat="42.258865" lon="2.943956">
        <ele>63.18677</ele>
        <time>2021-07-01T12:44:34Z</time>
      </trkpt>
      <trkpt lat="42.258457" lon="2.944022">
        <ele>62.92255</ele>
        <time>2021-07-01T12:44:35Z</time>
      </trkpt>
      <trkpt lat="42.258247" lon="2.944053">
        <ele>62.23914</ele>
        <time>2021-07-01T12:44:36Z</time>
      </trkpt>
      <trkpt lat="42.258018" lon="2.944086">
        <ele>62.16241</ele>
        <time>2021-07-01T12:44:37Z</time>
      </trkpt>
      <trkpt lat="42.257652" lon="2.944120">
        <ele>61.38562</ele>
        <time>2021-07-01T12:44:38Z</time>
      </trkpt>
      <trkpt lat="42.257023" lon="2.944177">
        <ele>60.14270</ele>
        <time>2021-07-01T12:44:39Z</time>
      </trkpt>
      <trkpt lat="42.256706" lon="2.944180">
        <ele>60.19904</ele>
        <time>2021-07-01T12:44:40Z</time>
      </trkpt>
      <trkpt lat="42.256443" lon="2.944182">
        <ele>59.10083</ele>
        <time>2021-07-01T12:44:41Z</time>
      </trkpt>
      <trkpt lat="42.256443" lon="2.944182">
        <ele>58.28857</ele>
        <time>2021-07-01T12:44:42Z</time>
      </trkpt>
      <trkpt lat="42.256310" lon="2.944183">
        <ele>57.63989</ele>
        <time>2021-07-01T12:44:43Z</time>
      </trkpt>
      <trkpt lat="42.255878" lon="2.944171">
        <ele>57.07251</ele>
        <time>2021-07-01T12:44:44Z</time>
      </trkpt>
      <trkpt lat="42.255585" lon="2.944150">
        <ele>56.41089</ele>
        <time>2021-07-01T12:44:45Z</time>
      </trkpt>
      <trkpt lat="42.255116" lon="2.944116">
        <ele>55.89966</ele>
        <time>2021-07-01T12:44:46Z</time>
      </trkpt>
      <trkpt lat="42.254692" lon="2.944081">
        <ele>55.45575</ele>
        <time>2021-07-01T12:44:47Z</time>
      </trkpt>
      <trkpt lat="42.254406" lon="2.944046">
        <ele>54.74658</ele>
        <time>2021-07-01T12:44:48Z</time>
      </trkpt>
      <trkpt lat="42.254124" lon="2.944004">
        <ele>54.34924</ele>
        <time>2021-07-01T12:44:49Z</time>
      </trkpt>
      <trkpt lat="42.254017" lon="2.943982">
        <ele>53.81812</ele>
        <time>2021-07-01T12:44:50Z</time>
      </trkpt>
      <trkpt lat="42.253502" lon="2.943875">
        <ele>53.63745</ele>
        <time>2021-07-01T12:44:51Z</time>
      </trkpt>
      <trkpt lat="42.253174" lon="2.943804">
        <ele>53.08960</ele>
        <time>2021-07-01T12:44:52Z</time>
      </trkpt>
      <trkpt lat="42.253120" lon="2.943791">
        <ele>51.81921</ele>
        <time>2021-07-01T12:44:53Z</time>
      </trkpt>
      <trkpt lat="42.252510" lon="2.943630">
        <ele>51.35907</ele>
        <time>2021-07-01T12:44:54Z</time>
      </trkpt>
      <trkpt lat="42.252464" lon="2.943618">
        <ele>50.52765</ele>
        <time>2021-07-01T12:44:55Z</time>
      </trkpt>
      <trkpt lat="42.252090" lon="2.943511">
        <ele>50.20996</ele>
        <time>2021-07-01T12:44:56Z</time>
      </trkpt>
      <trkpt lat="42.251656" lon="2.943351">
        <ele>49.11511</ele>
        <time>2021-07-01T12:44:57Z</time>
      </trkpt>
      <trkpt lat="42.251656" lon="2.943351">
        <ele>48.12036</ele>
        <time>2021-07-01T12:44:58Z</time>
      </trkpt>
      <trkpt lat="42.251492" lon="2.943292">
        <ele>47.39648</ele>
        <time>2021-07-01T12:44:59Z</time>
      </trkpt>
      <trkpt lat="42.251141" lon="2.943154">
        <ele>47.05774</ele>
        <time>2021-07-01T12:45:00Z</time>
      </trkpt>
      <trkpt lat="42.250664" lon="2.942954">
        <ele>46.54248</ele>
        <time>2021-07-01T12:45:01Z</time>
      </trkpt>
      <trkpt lat="42.250252" lon="2.942759">
        <ele>45.80383</ele>
        <time>2021-07-01T12:45:02Z</time>
      </trkpt>
      <trkpt lat="42.249962" lon="2.942620">
        <ele>45.58264</ele>
        <time>2021-07-01T12:45:03Z</time>
      </trkpt>
      <trkpt lat="42.249912" lon="2.942597">
        <ele>45.44336</ele>
        <time>2021-07-01T12:45:04Z</time>
      </trkpt>
      <trkpt lat="42.249557" lon="2.942410">
        <ele>44.52643</ele>
        <time>2021-07-01T12:45:05Z</time>
      </trkpt>
      <trkpt lat="42.249252" lon="2.942247">
        <ele>43.84106</ele>
        <time>2021-07-01T12:45:06Z</time>
      </trkpt>
      <trkpt lat="42.248894" lon="2.942046">
        <ele>43.37500</ele>
        <time>2021-07-01T12:45:07Z</time>
      </trkpt>
      <trkpt lat="42.248516" lon="2.941823">
        <ele>43.41376</ele>
        <time>2021-07-01T12:45:08Z</time>
      </trkpt>
      <trkpt lat="42.248516" lon="2.941823">
        <ele>42.80829</ele>
        <time>2021-07-01T12:45:09Z</time>
      </trkpt>
      <trkpt lat="42.248207" lon="2.941641">
        <ele>42.49365</ele>
        <time>2021-07-01T12:45:10Z</time>
      </trkpt>
      <trkpt lat="42.247898" lon="2.941448">
        <ele>41.31830</ele>
        <time>2021-07-01T12:45:11Z</time>
      </trkpt>
      <trkpt lat="42.247562" lon="2.941232">
        <ele>40.92230</ele>
        <time>2021-07-01T12:45:12Z</time>
      </trkpt>
      <trkpt lat="42.247364" lon="2.941107">
        <ele>40.34216</ele>
        <time>2021-07-01T12:45:13Z</time>
      </trkpt>
      <trkpt lat="42.247162" lon="2.940977">
        <ele>39.93536</ele>
        <time>2021-07-01T12:45:14Z</time>
      </trkpt>
      <trkpt lat="42.246895" lon="2.940807">
        <ele>39.34839</ele>
        <time>2021-07-01T12:45:15Z</time>
      </trkpt>
      <trkpt lat="42.246613" lon="2.940627">
        <ele>39.79004</ele>
        <time>2021-07-01T12:45:16Z</time>
      </trkpt>
      <trkpt lat="42.246159" lon="2.940337">
        <ele>39.50232</ele>
        <time>2021-07-01T12:45:17Z</time>
      </trkpt>
      <trkpt lat="42.246040" lon="2.940263">
        <ele>39.75610</ele>
        <time>2021-07-01T12:45:18Z</time>
      </trkpt>
      <trkpt lat="42.245686" lon="2.940037">
        <ele>39.96204</ele>
        <time>2021-07-01T12:45:19Z</time>
      </trkpt>
      <trkpt lat="42.245430" lon="2.939878">
        <ele>39.91870</ele>
        <time>2021-07-01T12:45:20Z</time>
      </trkpt>
      <trkpt lat="42.245132" lon="2.939692">
        <ele>39.46722</ele>
        <time>2021-07-01T12:45:21Z</time>
      </trkpt>
      <trkpt lat="42.244816" lon="2.939495">
        <ele>39.46851</ele>
        <time>2021-07-01T12:45:22Z</time>
      </trkpt>
      <trkpt lat="42.244370" lon="2.939225">
        <ele>39.62799</ele>
        <time>2021-07-01T12:45:23Z</time>
      </trkpt>
      <trkpt lat="42.244289" lon="2.939180">
        <ele>40.05981</ele>
        <time>2021-07-01T12:45:25Z</time>
      </trkpt>
      <trkpt lat="42.243824" lon="2.938907">
        <ele>40.13184</ele>
        <time>2021-07-01T12:45:25Z</time>
      </trkpt>
      <trkpt lat="42.243824" lon="2.938907">
        <ele>40.59119</ele>
        <time>2021-07-01T12:45:26Z</time>
      </trkpt>
      <trkpt lat="42.243568" lon="2.938759">
        <ele>41.46619</ele>
        <time>2021-07-01T12:45:28Z</time>
      </trkpt>
      <trkpt lat="42.243065" lon="2.938504">
        <ele>42.12457</ele>
        <time>2021-07-01T12:45:28Z</time>
      </trkpt>
      <trkpt lat="42.242958" lon="2.938451">
        <ele>41.63495</ele>
        <time>2021-07-01T12:45:29Z</time>
      </trkpt>
      <trkpt lat="42.242664" lon="2.938304">
        <ele>42.23804</ele>
        <time>2021-07-01T12:45:30Z</time>
      </trkpt>
      <trkpt lat="42.242409" lon="2.938183">
        <ele>41.07190</ele>
        <time>2021-07-01T12:45:31Z</time>
      </trkpt>
      <trkpt lat="42.242039" lon="2.938024">
        <ele>40.42316</ele>
        <time>2021-07-01T12:45:32Z</time>
      </trkpt>
      <trkpt lat="42.241550" lon="2.937812">
        <ele>41.47290</ele>
        <time>2021-07-01T12:45:33Z</time>
      </trkpt>
      <trkpt lat="42.241447" lon="2.937767">
        <ele>41.88348</ele>
        <time>2021-07-01T12:45:34Z</time>
      </trkpt>
      <trkpt lat="42.241043" lon="2.937620">
        <ele>41.64429</ele>
        <time>2021-07-01T12:45:35Z</time>
      </trkpt>
      <trkpt lat="42.240643" lon="2.937475">
        <ele>42.39520</ele>
        <time>2021-07-01T12:45:36Z</time>
      </trkpt>
      <trkpt lat="42.240643" lon="2.937475">
        <ele>42.87677</ele>
        <time>2021-07-01T12:45:37Z</time>
      </trkpt>
      <trkpt lat="42.240505" lon="2.937424">
        <ele>42.68634</ele>
        <time>2021-07-01T12:45:38Z</time>
      </trkpt>
      <trkpt lat="42.240143" lon="2.937316">
        <ele>43.65985</ele>
        <time>2021-07-01T12:45:39Z</time>
      </trkpt>
      <trkpt lat="42.239880" lon="2.937240">
        <ele>44.01001</ele>
        <time>2021-07-01T12:45:40Z</time>
      </trkpt>
      <trkpt lat="42.239582" lon="2.937153">
        <ele>44.61249</ele>
        <time>2021-07-01T12:45:41Z</time>
      </trkpt>
      <trkpt lat="42.239285" lon="2.937079">
        <ele>44.51440</ele>
        <time>2021-07-01T12:45:42Z</time>
      </trkpt>
      <trkpt lat="42.238689" lon="2.936938">
        <ele>45.15588</ele>
        <time>2021-07-01T12:45:43Z</time>
      </trkpt>
      <trkpt lat="42.238621" lon="2.936922">
        <ele>45.09009</ele>
        <time>2021-07-01T12:45:44Z</time>
      </trkpt>
      <trkpt lat="42.238232" lon="2.936847">
        <ele>45.42963</ele>
        <time>2021-07-01T12:45:45Z</time>
      </trkpt>
      <trkpt lat="42.237923" lon="2.936792">
        <ele>45.27313</ele>
        <time>2021-07-01T12:45:46Z</time>
      </trkpt>
      <trkpt lat="42.237583" lon="2.936732">
        <ele>45.92474</ele>
        <time>2021-07-01T12:45:47Z</time>
      </trkpt>
      <trkpt lat="42.237583" lon="2.936732">
        <ele>47.55225</ele>
        <time>2021-07-01T12:45:48Z</time>
      </trkpt>
      <trkpt lat="42.237156" lon="2.936669">
        <ele>46.89270</ele>
        <time>2021-07-01T12:45:49Z</time>
      </trkpt>
      <trkpt lat="42.236958" lon="2.936649">
        <ele>47.88269</ele>
        <time>2021-07-01T12:45:51Z</time>
      </trkpt>
      <trkpt lat="42.236610" lon="2.936614">
        <ele>49.21698</ele>
        <time>2021-07-01T12:45:51Z</time>
      </trkpt>
      <trkpt lat="42.236103" lon="2.936565">
        <ele>50.00806</ele>
        <time>2021-07-01T12:45:52Z</time>
      </trkpt>
      <trkpt lat="42.235676" lon="2.936544">
        <ele>49.44171</ele>
        <time>2021-07-01T12:45:53Z</time>
      </trkpt>
      <trkpt lat="42.235641" lon="2.936542">
        <ele>49.58752</ele>
        <time>2021-07-01T12:45:54Z</time>
      </trkpt>
      <trkpt lat="42.235294" lon="2.936525">
        <ele>48.99896</ele>
        <time>2021-07-01T12:45:55Z</time>
      </trkpt>
      <trkpt lat="42.234989" lon="2.936530">
        <ele>48.24023</ele>
        <time>2021-07-01T12:45:56Z</time>
      </trkpt>
      <trkpt lat="42.234432" lon="2.936547">
        <ele>48.11993</ele>
        <time>2021-07-01T12:45:57Z</time>
      </trkpt>
      <trkpt lat="42.234295" lon="2.936551">
        <ele>48.46826</ele>
        <time>2021-07-01T12:45:58Z</time>
      </trkpt>
      <trkpt lat="42.233864" lon="2.936572">
        <ele>48.79736</ele>
        <time>2021-07-01T12:45:59Z</time>
      </trkpt>
      <trkpt lat="42.233864" lon="2.936572">
        <ele>49.14166</ele>
        <time>2021-07-01T12:46:00Z</time>
      </trkpt>
      <trkpt lat="42.233356" lon="2.936617">
        <ele>48.83032</ele>
        <time>2021-07-01T12:46:01Z</time>
      </trkpt>
      <trkpt lat="42.233040" lon="2.936653">
        <ele>49.22510</ele>
        <time>2021-07-01T12:46:02Z</time>
      </trkpt>
      <trkpt lat="42.232910" lon="2.936670">
        <ele>49.11816</ele>
        <time>2021-07-01T12:46:03Z</time>
      </trkpt>
      <trkpt lat="42.232578" lon="2.936713">
        <ele>49.56274</ele>
        <time>2021-07-01T12:46:04Z</time>
      </trkpt>
      <trkpt lat="42.232048" lon="2.936798">
        <ele>49.21332</ele>
        <time>2021-07-01T12:46:05Z</time>
      </trkpt>
      <trkpt lat="42.232002" lon="2.936806">
        <ele>48.74884</ele>
        <time>2021-07-01T12:46:06Z</time>
      </trkpt>
      <trkpt lat="42.231636" lon="2.936868">
        <ele>48.45361</ele>
        <time>2021-07-01T12:46:07Z</time>
      </trkpt>
      <trkpt lat="42.231129" lon="2.936971">
        <ele>47.74683</ele>
        <time>2021-07-01T12:46:08Z</time>
      </trkpt>
      <trkpt lat="42.230885" lon="2.937023">
        <ele>46.91620</ele>
        <time>2021-07-01T12:46:10Z</time>
      </trkpt>
      <trkpt lat="42.230885" lon="2.937023">
        <ele>46.91730</ele>
        <time>2021-07-01T12:46:10Z</time>
      </trkpt>
      <trkpt lat="42.230339" lon="2.937146">
        <ele>46.59906</ele>
        <time>2021-07-01T12:46:11Z</time>
      </trkpt>
      <trkpt lat="42.230122" lon="2.937202">
        <ele>46.18964</ele>
        <time>2021-07-01T12:46:12Z</time>
      </trkpt>
      <trkpt lat="42.229816" lon="2.937287">
        <ele>45.84827</ele>
        <time>2021-07-01T12:46:14Z</time>
      </trkpt>
      <trkpt lat="42.229389" lon="2.937405">
        <ele>45.59540</ele>
        <time>2021-07-01T12:46:14Z</time>
      </trkpt>
      <trkpt lat="42.229053" lon="2.937501">
        <ele>45.29968</ele>
        <time>2021-07-01T12:46:15Z</time>
      </trkpt>
      <trkpt lat="42.229012" lon="2.937513">
        <ele>45.47980</ele>
        <time>2021-07-01T12:46:16Z</time>
      </trkpt>
      <trkpt lat="42.228718" lon="2.937602">
        <ele>45.50153</ele>
        <time>2021-07-01T12:46:17Z</time>
      </trkpt>
      <trkpt lat="42.228420" lon="2.937692">
        <ele>46.03552</ele>
        <time>2021-07-01T12:46:18Z</time>
      </trkpt>
      <trkpt lat="42.227913" lon="2.937844">
        <ele>46.64606</ele>
        <time>2021-07-01T12:46:19Z</time>
      </trkpt>
      <trkpt lat="42.227509" lon="2.937965">
        <ele>46.27856</ele>
        <time>2021-07-01T12:46:20Z</time>
      </trkpt>
      <trkpt lat="42.227146" lon="2.938074">
        <ele>46.78888</ele>
        <time>2021-07-01T12:46:21Z</time>
      </trkpt>
      <trkpt lat="42.226837" lon="2.938167">
        <ele>47.19690</ele>
        <time>2021-07-01T12:46:22Z</time>
      </trkpt>
      <trkpt lat="42.226505" lon="2.938267">
        <ele>47.69189</ele>
        <time>2021-07-01T12:46:23Z</time>
      </trkpt>
      <trkpt lat="42.226192" lon="2.938359">
        <ele>48.62115</ele>
        <time>2021-07-01T12:46:25Z</time>
      </trkpt>
      <trkpt lat="42.226192" lon="2.938359">
        <ele>48.40057</ele>
        <time>2021-07-01T12:46:25Z</time>
      </trkpt>
      <trkpt lat="42.226021" lon="2.938409">
        <ele>48.16302</ele>
        <time>2021-07-01T12:46:26Z</time>
      </trkpt>
      <trkpt lat="42.225716" lon="2.938506">
        <ele>47.12231</ele>
        <time>2021-07-01T12:46:27Z</time>
      </trkpt>
      <trkpt lat="42.225441" lon="2.938590">
        <ele>47.42029</ele>
        <time>2021-07-01T12:46:28Z</time>
      </trkpt>
      <trkpt lat="42.225040" lon="2.938712">
        <ele>47.96771</ele>
        <time>2021-07-01T12:46:29Z</time>
      </trkpt>
      <trkpt lat="42.224640" lon="2.938836">
        <ele>47.98645</ele>
        <time>2021-07-01T12:46:30Z</time>
      </trkpt>
      <trkpt lat="42.224346" lon="2.938926">
        <ele>47.63208</ele>
        <time>2021-07-01T12:46:31Z</time>
      </trkpt>
      <trkpt lat="42.224037" lon="2.939021">
        <ele>47.73004</ele>
        <time>2021-07-01T12:46:32Z</time>
      </trkpt>
      <trkpt lat="42.223721" lon="2.939119">
        <ele>47.61267</ele>
        <time>2021-07-01T12:46:33Z</time>
      </trkpt>
      <trkpt lat="42.223392" lon="2.939220">
        <ele>47.88916</ele>
        <time>2021-07-01T12:46:34Z</time>
      </trkpt>
      <trkpt lat="42.223064" lon="2.939322">
        <ele>48.75531</ele>
        <time>2021-07-01T12:46:36Z</time>
      </trkpt>
      <trkpt lat="42.222752" lon="2.939406">
        <ele>48.92896</ele>
        <time>2021-07-01T12:46:37Z</time>
      </trkpt>
      <trkpt lat="42.222435" lon="2.939492">
        <ele>49.62781</ele>
        <time>2021-07-01T12:46:38Z</time>
      </trkpt>
      <trkpt lat="42.222435" lon="2.939492">
        <ele>50.27759</ele>
        <time>2021-07-01T12:46:38Z</time>
      </trkpt>
      <trkpt lat="42.222076" lon="2.939589">
        <ele>49.97937</ele>
        <time>2021-07-01T12:46:40Z</time>
      </trkpt>
      <trkpt lat="42.221760" lon="2.939672">
        <ele>50.28259</ele>
        <time>2021-07-01T12:46:40Z</time>
      </trkpt>
      <trkpt lat="42.221462" lon="2.939738">
        <ele>50.38007</ele>
        <time>2021-07-01T12:46:41Z</time>
      </trkpt>
      <trkpt lat="42.221100" lon="2.939821">
        <ele>49.83710</ele>
        <time>2021-07-01T12:46:42Z</time>
      </trkpt>
      <trkpt lat="42.220760" lon="2.939897">
        <ele>50.74396</ele>
        <time>2021-07-01T12:46:43Z</time>
      </trkpt>
      <trkpt lat="42.220711" lon="2.939909">
        <ele>51.54071</ele>
        <time>2021-07-01T12:46:44Z</time>
      </trkpt>
      <trkpt lat="42.220165" lon="2.940023">
        <ele>50.94897</ele>
        <time>2021-07-01T12:46:45Z</time>
      </trkpt>
      <trkpt lat="42.219845" lon="2.940079">
        <ele>51.95825</ele>
        <time>2021-07-01T12:46:46Z</time>
      </trkpt>
      <trkpt lat="42.219498" lon="2.940138">
        <ele>52.70660</ele>
        <time>2021-07-01T12:46:47Z</time>
      </trkpt>
      <trkpt lat="42.219170" lon="2.940187">
        <ele>53.41357</ele>
        <time>2021-07-01T12:46:48Z</time>
      </trkpt>
      <trkpt lat="42.218830" lon="2.940234">
        <ele>53.56647</ele>
        <time>2021-07-01T12:46:49Z</time>
      </trkpt>
      <trkpt lat="42.218513" lon="2.940269">
        <ele>53.75757</ele>
        <time>2021-07-01T12:46:50Z</time>
      </trkpt>
      <trkpt lat="42.218220" lon="2.940297">
        <ele>54.01501</ele>
        <time>2021-07-01T12:46:51Z</time>
      </trkpt>
      <trkpt lat="42.217896" lon="2.940317">
        <ele>54.27557</ele>
        <time>2021-07-01T12:46:52Z</time>
      </trkpt>
      <trkpt lat="42.217621" lon="2.940335">
        <ele>54.19855</ele>
        <time>2021-07-01T12:46:53Z</time>
      </trkpt>
      <trkpt lat="42.217621" lon="2.940335">
        <ele>55.60785</ele>
        <time>2021-07-01T12:46:54Z</time>
      </trkpt>
      <trkpt lat="42.217297" lon="2.940348">
        <ele>55.96362</ele>
        <time>2021-07-01T12:46:55Z</time>
      </trkpt>
      <trkpt lat="42.216969" lon="2.940351">
        <ele>56.41443</ele>
        <time>2021-07-01T12:46:56Z</time>
      </trkpt>
      <trkpt lat="42.216629" lon="2.940354">
        <ele>55.56921</ele>
        <time>2021-07-01T12:46:57Z</time>
      </trkpt>
      <trkpt lat="42.216331" lon="2.940357">
        <ele>55.76868</ele>
        <time>2021-07-01T12:46:58Z</time>
      </trkpt>
      <trkpt lat="42.215996" lon="2.940360">
        <ele>56.31360</ele>
        <time>2021-07-01T12:47:00Z</time>
      </trkpt>
      <trkpt lat="42.215664" lon="2.940353">
        <ele>56.69440</ele>
        <time>2021-07-01T12:47:00Z</time>
      </trkpt>
      <trkpt lat="42.215347" lon="2.940334">
        <ele>57.49475</ele>
        <time>2021-07-01T12:47:01Z</time>
      </trkpt>
      <trkpt lat="42.215057" lon="2.940314">
        <ele>57.78424</ele>
        <time>2021-07-01T12:47:02Z</time>
      </trkpt>
      <trkpt lat="42.214745" lon="2.940294">
        <ele>57.86401</ele>
        <time>2021-07-01T12:47:04Z</time>
      </trkpt>
      <trkpt lat="42.214378" lon="2.940255">
        <ele>58.76361</ele>
        <time>2021-07-01T12:47:04Z</time>
      </trkpt>
      <trkpt lat="42.214127" lon="2.940224">
        <ele>59.53223</ele>
        <time>2021-07-01T12:47:05Z</time>
      </trkpt>
      <trkpt lat="42.213924" lon="2.940199">
        <ele>59.92487</ele>
        <time>2021-07-01T12:47:06Z</time>
      </trkpt>
      <trkpt lat="42.213367" lon="2.940125">
        <ele>60.51099</ele>
        <time>2021-07-01T12:47:07Z</time>
      </trkpt>
      <trkpt lat="42.213367" lon="2.940125">
        <ele>61.06982</ele>
        <time>2021-07-01T12:47:08Z</time>
      </trkpt>
      <trkpt lat="42.213062" lon="2.940072">
        <ele>61.44720</ele>
        <time>2021-07-01T12:47:10Z</time>
      </trkpt>
      <trkpt lat="42.212761" lon="2.940018">
        <ele>62.20844</ele>
        <time>2021-07-01T12:47:10Z</time>
      </trkpt>
      <trkpt lat="42.212456" lon="2.939948">
        <ele>63.01331</ele>
        <time>2021-07-01T12:47:11Z</time>
      </trkpt>
      <trkpt lat="42.212112" lon="2.939869">
        <ele>63.62744</ele>
        <time>2021-07-01T12:47:12Z</time>
      </trkpt>
      <trkpt lat="42.211758" lon="2.939783">
        <ele>64.15851</ele>
        <time>2021-07-01T12:47:13Z</time>
      </trkpt>
      <trkpt lat="42.211445" lon="2.939701">
        <ele>65.25122</ele>
        <time>2021-07-01T12:47:14Z</time>
      </trkpt>
      <trkpt lat="42.211124" lon="2.939619">
        <ele>65.71332</ele>
        <time>2021-07-01T12:47:16Z</time>
      </trkpt>
      <trkpt lat="42.210808" lon="2.939536">
        <ele>66.27167</ele>
        <time>2021-07-01T12:47:16Z</time>
      </trkpt>
      <trkpt lat="42.210472" lon="2.939437">
        <ele>67.04297</ele>
        <time>2021-07-01T12:47:17Z</time>
      </trkpt>
      <trkpt lat="42.210148" lon="2.939340">
        <ele>67.82263</ele>
        <time>2021-07-01T12:47:18Z</time>
      </trkpt>
      <trkpt lat="42.210148" lon="2.939340">
        <ele>68.63446</ele>
        <time>2021-07-01T12:47:19Z</time>
      </trkpt>
      <trkpt lat="42.209812" lon="2.939235">
        <ele>69.45819</ele>
        <time>2021-07-01T12:47:20Z</time>
      </trkpt>
      <trkpt lat="42.209511" lon="2.939137">
        <ele>70.42053</ele>
        <time>2021-07-01T12:47:21Z</time>
      </trkpt>
      <trkpt lat="42.209362" lon="2.939080">
        <ele>71.52222</ele>
        <time>2021-07-01T12:47:22Z</time>
      </trkpt>
      <trkpt lat="42.208881" lon="2.938902">
        <ele>72.47974</ele>
        <time>2021-07-01T12:47:23Z</time>
      </trkpt>
      <trkpt lat="42.208549" lon="2.938765">
        <ele>73.45929</ele>
        <time>2021-07-01T12:47:24Z</time>
      </trkpt>
      <trkpt lat="42.208473" lon="2.938732">
        <ele>74.08014</ele>
        <time>2021-07-01T12:47:25Z</time>
      </trkpt>
      <trkpt lat="42.207932" lon="2.938500">
        <ele>75.09467</ele>
        <time>2021-07-01T12:47:26Z</time>
      </trkpt>
      <trkpt lat="42.207657" lon="2.938383">
        <ele>75.13379</ele>
        <time>2021-07-01T12:47:27Z</time>
      </trkpt>
      <trkpt lat="42.207378" lon="2.938261">
        <ele>75.82330</ele>
        <time>2021-07-01T12:47:28Z</time>
      </trkpt>
      <trkpt lat="42.207355" lon="2.938249">
        <ele>76.21619</ele>
        <time>2021-07-01T12:47:29Z</time>
      </trkpt>
      <trkpt lat="42.206692" lon="2.937937">
        <ele>77.46350</ele>
        <time>2021-07-01T12:47:30Z</time>
      </trkpt>
      <trkpt lat="42.206394" lon="2.937787">
        <ele>77.97620</ele>
        <time>2021-07-01T12:47:31Z</time>
      </trkpt>
      <trkpt lat="42.206181" lon="2.937680">
        <ele>77.94250</ele>
        <time>2021-07-01T12:47:32Z</time>
      </trkpt>
      <trkpt lat="42.205948" lon="2.937563">
        <ele>78.67529</ele>
        <time>2021-07-01T12:47:34Z</time>
      </trkpt>
      <trkpt lat="42.205948" lon="2.937563">
        <ele>79.50085</ele>
        <time>2021-07-01T12:47:34Z</time>
      </trkpt>
      <trkpt lat="42.205456" lon="2.937317">
        <ele>80.55420</ele>
        <time>2021-07-01T12:47:35Z</time>
      </trkpt>
      <trkpt lat="42.205330" lon="2.937252">
        <ele>81.81171</ele>
        <time>2021-07-01T12:47:36Z</time>
      </trkpt>
      <trkpt lat="42.205009" lon="2.937083">
        <ele>82.78870</ele>
        <time>2021-07-01T12:47:37Z</time>
      </trkpt>
      <trkpt lat="42.204578" lon="2.936855">
        <ele>83.58710</ele>
        <time>2021-07-01T12:47:39Z</time>
      </trkpt>
      <trkpt lat="42.204273" lon="2.936694">
        <ele>84.96167</ele>
        <time>2021-07-01T12:47:39Z</time>
      </trkpt>
      <trkpt lat="42.203960" lon="2.936529">
        <ele>84.89142</ele>
        <time>2021-07-01T12:47:40Z</time>
      </trkpt>
      <trkpt lat="42.203625" lon="2.936350">
        <ele>85.91388</ele>
        <time>2021-07-01T12:47:41Z</time>
      </trkpt>
      <trkpt lat="42.203342" lon="2.936202">
        <ele>85.89813</ele>
        <time>2021-07-01T12:47:42Z</time>
      </trkpt>
      <trkpt lat="42.203079" lon="2.936062">
        <ele>86.76581</ele>
        <time>2021-07-01T12:47:43Z</time>
      </trkpt>
      <trkpt lat="42.202740" lon="2.935882">
        <ele>88.18097</ele>
        <time>2021-07-01T12:47:44Z</time>
      </trkpt>
      <trkpt lat="42.202465" lon="2.935736">
        <ele>88.47821</ele>
        <time>2021-07-01T12:47:45Z</time>
      </trkpt>
      <trkpt lat="42.202160" lon="2.935574">
        <ele>89.87659</ele>
        <time>2021-07-01T12:47:46Z</time>
      </trkpt>
      <trkpt lat="42.202160" lon="2.935574">
        <ele>91.48114</ele>
        <time>2021-07-01T12:47:47Z</time>
      </trkpt>
      <trkpt lat="42.201839" lon="2.935406">
        <ele>92.53625</ele>
        <time>2021-07-01T12:47:48Z</time>
      </trkpt>
      <trkpt lat="42.201679" lon="2.935320">
        <ele>93.58673</ele>
        <time>2021-07-01T12:47:49Z</time>
      </trkpt>
      <trkpt lat="42.201504" lon="2.935229">
        <ele>93.93567</ele>
        <time>2021-07-01T12:47:50Z</time>
      </trkpt>
      <trkpt lat="42.201080" lon="2.935003">
        <ele>94.00269</ele>
        <time>2021-07-01T12:47:51Z</time>
      </trkpt>
      <trkpt lat="42.200642" lon="2.934784">
        <ele>94.29266</ele>
        <time>2021-07-01T12:47:52Z</time>
      </trkpt>
      <trkpt lat="42.200306" lon="2.934620">
        <ele>94.66840</ele>
        <time>2021-07-01T12:47:54Z</time>
      </trkpt>
      <trkpt lat="42.199986" lon="2.934464">
        <ele>95.11108</ele>
        <time>2021-07-01T12:47:54Z</time>
      </trkpt>
      <trkpt lat="42.199657" lon="2.934304">
        <ele>96.12103</ele>
        <time>2021-07-01T12:47:55Z</time>
      </trkpt>
      <trkpt lat="42.199352" lon="2.934163">
        <ele>96.43109</ele>
        <time>2021-07-01T12:47:56Z</time>
      </trkpt>
      <trkpt lat="42.199028" lon="2.934017">
        <ele>97.53198</ele>
        <time>2021-07-01T12:47:57Z</time>
      </trkpt>
      <trkpt lat="42.198814" lon="2.933921">
        <ele>97.69946</ele>
        <time>2021-07-01T12:47:58Z</time>
      </trkpt>
      <trkpt lat="42.198566" lon="2.933818">
        <ele>98.28766</ele>
        <time>2021-07-01T12:48:00Z</time>
      </trkpt>
      <trkpt lat="42.198566" lon="2.933818">
        <ele>99.32977</ele>
        <time>2021-07-01T12:48:00Z</time>
      </trkpt>
      <trkpt lat="42.198055" lon="2.933613">
        <ele>99.69427</ele>
        <time>2021-07-01T12:48:01Z</time>
      </trkpt>
      <trkpt lat="42.197773" lon="2.933504">
        <ele>99.14844</ele>
        <time>2021-07-01T12:48:02Z</time>
      </trkpt>
      <trkpt lat="42.197468" lon="2.933388">
        <ele>99.62970</ele>
        <time>2021-07-01T12:48:03Z</time>
      </trkpt>
      <trkpt lat="42.197128" lon="2.933269">
        <ele>99.26489</ele>
        <time>2021-07-01T12:48:04Z</time>
      </trkpt>
      <trkpt lat="42.196789" lon="2.933149">
        <ele>99.53265</ele>
        <time>2021-07-01T12:48:05Z</time>
      </trkpt>
      <trkpt lat="42.196484" lon="2.933047">
        <ele>99.30554</ele>
        <time>2021-07-01T12:48:06Z</time>
      </trkpt>
      <trkpt lat="42.196171" lon="2.932951">
        <ele>99.48706</ele>
        <time>2021-07-01T12:48:07Z</time>
      </trkpt>
      <trkpt lat="42.195820" lon="2.932851">
        <ele>99.07965</ele>
        <time>2021-07-01T12:48:08Z</time>
      </trkpt>
      <trkpt lat="42.195793" lon="2.932844">
        <ele>99.93701</ele>
        <time>2021-07-01T12:48:09Z</time>
      </trkpt>
      <trkpt lat="42.195148" lon="2.932675">
        <ele>100.71289</ele>
        <time>2021-07-01T12:48:10Z</time>
      </trkpt>
      <trkpt lat="42.194885" lon="2.932618">
        <ele>100.78601</ele>
        <time>2021-07-01T12:48:11Z</time>
      </trkpt>
      <trkpt lat="42.194645" lon="2.932568">
        <ele>100.70569</ele>
        <time>2021-07-01T12:48:12Z</time>
      </trkpt>
      <trkpt lat="42.194378" lon="2.932511">
        <ele>101.70447</ele>
        <time>2021-07-01T12:48:13Z</time>
      </trkpt>
      <trkpt lat="42.194378" lon="2.932511">
        <ele>100.88416</ele>
        <time>2021-07-01T12:48:14Z</time>
      </trkpt>
      <trkpt lat="42.193848" lon="2.932418">
        <ele>100.43262</ele>
        <time>2021-07-01T12:48:15Z</time>
      </trkpt>
      <trkpt lat="42.193554" lon="2.932375">
        <ele>100.46667</ele>
        <time>2021-07-01T12:48:16Z</time>
      </trkpt>
      <trkpt lat="42.193226" lon="2.932331">
        <ele>100.25378</ele>
        <time>2021-07-01T12:48:17Z</time>
      </trkpt>
      <trkpt lat="42.193123" lon="2.932320">
        <ele>99.80261</ele>
        <time>2021-07-01T12:48:18Z</time>
      </trkpt>
      <trkpt lat="42.192528" lon="2.932261">
        <ele>99.79028</ele>
        <time>2021-07-01T12:48:19Z</time>
      </trkpt>
      <trkpt lat="42.192234" lon="2.932232">
        <ele>99.77942</ele>
        <time>2021-07-01T12:48:20Z</time>
      </trkpt>
      <trkpt lat="42.191952" lon="2.932224">
        <ele>99.15863</ele>
        <time>2021-07-01T12:48:21Z</time>
      </trkpt>
      <trkpt lat="42.191628" lon="2.932222">
        <ele>99.33862</ele>
        <time>2021-07-01T12:48:22Z</time>
      </trkpt>
      <trkpt lat="42.191292" lon="2.932222">
        <ele>99.72711</ele>
        <time>2021-07-01T12:48:23Z</time>
      </trkpt>
      <trkpt lat="42.190964" lon="2.932230">
        <ele>99.76477</ele>
        <time>2021-07-01T12:48:24Z</time>
      </trkpt>
      <trkpt lat="42.190647" lon="2.932238">
        <ele>98.78894</ele>
        <time>2021-07-01T12:48:26Z</time>
      </trkpt>
      <trkpt lat="42.190331" lon="2.932256">
        <ele>98.20056</ele>
        <time>2021-07-01T12:48:26Z</time>
      </trkpt>
      <trkpt lat="42.190331" lon="2.932256">
        <ele>98.01807</ele>
        <time>2021-07-01T12:48:27Z</time>
      </trkpt>
      <trkpt lat="42.190121" lon="2.932271">
        <ele>97.75098</ele>
        <time>2021-07-01T12:48:28Z</time>
      </trkpt>
      <trkpt lat="42.189720" lon="2.932300">
        <ele>96.91083</ele>
        <time>2021-07-01T12:48:29Z</time>
      </trkpt>
      <trkpt lat="42.189289" lon="2.932338">
        <ele>96.91400</ele>
        <time>2021-07-01T12:48:30Z</time>
      </trkpt>
      <trkpt lat="42.189198" lon="2.932349">
        <ele>96.04022</ele>
        <time>2021-07-01T12:48:31Z</time>
      </trkpt>
      <trkpt lat="42.188797" lon="2.932398">
        <ele>94.89844</ele>
        <time>2021-07-01T12:48:32Z</time>
      </trkpt>
      <trkpt lat="42.188324" lon="2.932471">
        <ele>94.55035</ele>
        <time>2021-07-01T12:48:34Z</time>
      </trkpt>
      <trkpt lat="42.188274" lon="2.932479">
        <ele>93.76636</ele>
        <time>2021-07-01T12:48:34Z</time>
      </trkpt>
      <trkpt lat="42.187630" lon="2.932580">
        <ele>93.40344</ele>
        <time>2021-07-01T12:48:35Z</time>
      </trkpt>
      <trkpt lat="42.187569" lon="2.932589">
        <ele>93.01373</ele>
        <time>2021-07-01T12:48:36Z</time>
      </trkpt>
      <trkpt lat="42.186893" lon="2.932709">
        <ele>91.62854</ele>
        <time>2021-07-01T12:48:37Z</time>
      </trkpt>
      <trkpt lat="42.186558" lon="2.932769">
        <ele>89.57782</ele>
        <time>2021-07-01T12:48:38Z</time>
      </trkpt>
      <trkpt lat="42.186161" lon="2.932840">
        <ele>88.43353</ele>
        <time>2021-07-01T12:48:39Z</time>
      </trkpt>
      <trkpt lat="42.186161" lon="2.932840">
        <ele>87.07404</ele>
        <time>2021-07-01T12:48:40Z</time>
      </trkpt>
      <trkpt lat="42.185806" lon="2.932903">
        <ele>86.42371</ele>
        <time>2021-07-01T12:48:41Z</time>
      </trkpt>
      <trkpt lat="42.185658" lon="2.932930">
        <ele>85.79706</ele>
        <time>2021-07-01T12:48:42Z</time>
      </trkpt>
      <trkpt lat="42.185024" lon="2.933043">
        <ele>84.48077</ele>
        <time>2021-07-01T12:48:43Z</time>
      </trkpt>
      <trkpt lat="42.184971" lon="2.933053">
        <ele>83.93011</ele>
        <time>2021-07-01T12:48:44Z</time>
      </trkpt>
      <trkpt lat="42.184326" lon="2.933160">
        <ele>82.35559</ele>
        <time>2021-07-01T12:48:45Z</time>
      </trkpt>
      <trkpt lat="42.184010" lon="2.933203">
        <ele>81.32544</ele>
        <time>2021-07-01T12:48:46Z</time>
      </trkpt>
      <trkpt lat="42.183979" lon="2.933207">
        <ele>79.88245</ele>
        <time>2021-07-01T12:48:47Z</time>
      </trkpt>
      <trkpt lat="42.183311" lon="2.933291">
        <ele>79.13367</ele>
        <time>2021-07-01T12:48:48Z</time>
      </trkpt>
      <trkpt lat="42.183311" lon="2.933291">
        <ele>78.06580</ele>
        <time>2021-07-01T12:48:49Z</time>
      </trkpt>
      <trkpt lat="42.183117" lon="2.933312">
        <ele>76.50574</ele>
        <time>2021-07-01T12:48:50Z</time>
      </trkpt>
      <trkpt lat="42.182533" lon="2.933359">
        <ele>75.46387</ele>
        <time>2021-07-01T12:48:51Z</time>
      </trkpt>
      <trkpt lat="42.182220" lon="2.933372">
        <ele>73.92072</ele>
        <time>2021-07-01T12:48:52Z</time>
      </trkpt>
      <trkpt lat="42.181850" lon="2.933384">
        <ele>72.97223</ele>
        <time>2021-07-01T12:48:53Z</time>
      </trkpt>
      <trkpt lat="42.181461" lon="2.933384">
        <ele>71.81989</ele>
        <time>2021-07-01T12:48:54Z</time>
      </trkpt>
      <trkpt lat="42.181129" lon="2.933380">
        <ele>71.09204</ele>
        <time>2021-07-01T12:48:55Z</time>
      </trkpt>
      <trkpt lat="42.181087" lon="2.933380">
        <ele>70.24847</ele>
        <time>2021-07-01T12:48:56Z</time>
      </trkpt>
      <trkpt lat="42.180679" lon="2.933352">
        <ele>68.87714</ele>
        <time>2021-07-01T12:48:57Z</time>
      </trkpt>
      <trkpt lat="42.180107" lon="2.933303">
        <ele>67.78912</ele>
        <time>2021-07-01T12:48:58Z</time>
      </trkpt>
      <trkpt lat="42.179768" lon="2.933257">
        <ele>67.32471</ele>
        <time>2021-07-01T12:48:59Z</time>
      </trkpt>
      <trkpt lat="42.179504" lon="2.933219">
        <ele>66.24847</ele>
        <time>2021-07-01T12:49:00Z</time>
      </trkpt>
      <trkpt lat="42.179268" lon="2.933176">
        <ele>65.54718</ele>
        <time>2021-07-01T12:49:01Z</time>
      </trkpt>
      <trkpt lat="42.178825" lon="2.933089">
        <ele>64.46686</ele>
        <time>2021-07-01T12:49:02Z</time>
      </trkpt>
      <trkpt lat="42.178722" lon="2.933066">
        <ele>63.56433</ele>
        <time>2021-07-01T12:49:04Z</time>
      </trkpt>
      <trkpt lat="42.178722" lon="2.933066">
        <ele>62.54382</ele>
        <time>2021-07-01T12:49:04Z</time>
      </trkpt>
      <trkpt lat="42.178288" lon="2.932963">
        <ele>61.74628</ele>
        <time>2021-07-01T12:49:05Z</time>
      </trkpt>
      <trkpt lat="42.177998" lon="2.932881">
        <ele>61.16772</ele>
        <time>2021-07-01T12:49:06Z</time>
      </trkpt>
      <trkpt lat="42.177433" lon="2.932709">
        <ele>60.12836</ele>
        <time>2021-07-01T12:49:07Z</time>
      </trkpt>
      <trkpt lat="42.177376" lon="2.932690">
        <ele>59.94458</ele>
        <time>2021-07-01T12:49:08Z</time>
      </trkpt>
      <trkpt lat="42.177067" lon="2.932585">
        <ele>59.52338</ele>
        <time>2021-07-01T12:49:09Z</time>
      </trkpt>
      <trkpt lat="42.176788" lon="2.932489">
        <ele>58.89502</ele>
        <time>2021-07-01T12:49:10Z</time>
      </trkpt>
      <trkpt lat="42.176228" lon="2.932262">
        <ele>57.98529</ele>
        <time>2021-07-01T12:49:11Z</time>
      </trkpt>
      <trkpt lat="42.175915" lon="2.932129">
        <ele>56.99060</ele>
        <time>2021-07-01T12:49:12Z</time>
      </trkpt>
      <trkpt lat="42.175636" lon="2.932002">
        <ele>56.23169</ele>
        <time>2021-07-01T12:49:13Z</time>
      </trkpt>
      <trkpt lat="42.175636" lon="2.932002">
        <ele>55.22400</ele>
        <time>2021-07-01T12:49:14Z</time>
      </trkpt>
      <trkpt lat="42.175289" lon="2.931827">
        <ele>55.10400</ele>
        <time>2021-07-01T12:49:15Z</time>
      </trkpt>
      <trkpt lat="42.175045" lon="2.931699">
        <ele>54.97113</ele>
        <time>2021-07-01T12:49:16Z</time>
      </trkpt>
      <trkpt lat="42.174889" lon="2.931617">
        <ele>54.78400</ele>
        <time>2021-07-01T12:49:17Z</time>
      </trkpt>
      <trkpt lat="42.174610" lon="2.931458">
        <ele>54.14062</ele>
        <time>2021-07-01T12:49:18Z</time>
      </trkpt>
      <trkpt lat="42.174301" lon="2.931276">
        <ele>54.14337</ele>
        <time>2021-07-01T12:49:19Z</time>
      </trkpt>
      <trkpt lat="42.174053" lon="2.931124">
        <ele>53.83466</ele>
        <time>2021-07-01T12:49:20Z</time>
      </trkpt>
      <trkpt lat="42.173698" lon="2.930895">
        <ele>54.01746</ele>
        <time>2021-07-01T12:49:21Z</time>
      </trkpt>
      <trkpt lat="42.173508" lon="2.930770">
        <ele>53.53784</ele>
        <time>2021-07-01T12:49:22Z</time>
      </trkpt>
      <trkpt lat="42.173241" lon="2.930586">
        <ele>53.04736</ele>
        <time>2021-07-01T12:49:23Z</time>
      </trkpt>
      <trkpt lat="42.173000" lon="2.930410">
        <ele>52.61108</ele>
        <time>2021-07-01T12:49:25Z</time>
      </trkpt>
      <trkpt lat="42.172539" lon="2.930053">
        <ele>52.36041</ele>
        <time>2021-07-01T12:49:25Z</time>
      </trkpt>
      <trkpt lat="42.172478" lon="2.930006">
        <ele>52.36646</ele>
        <time>2021-07-01T12:49:26Z</time>
      </trkpt>
      <trkpt lat="42.172131" lon="2.929727">
        <ele>52.02295</ele>
        <time>2021-07-01T12:49:27Z</time>
      </trkpt>
      <trkpt lat="42.171955" lon="2.929570">
        <ele>51.49329</ele>
        <time>2021-07-01T12:49:28Z</time>
      </trkpt>
      <trkpt lat="42.171955" lon="2.929570">
        <ele>50.68652</ele>
        <time>2021-07-01T12:49:30Z</time>
      </trkpt>
      <trkpt lat="42.171577" lon="2.929224">
        <ele>50.33167</ele>
        <time>2021-07-01T12:49:30Z</time>
      </trkpt>
      <trkpt lat="42.171204" lon="2.928873">
        <ele>50.54608</ele>
        <time>2021-07-01T12:49:31Z</time>
      </trkpt>
      <trkpt lat="42.170956" lon="2.928629">
        <ele>50.36707</ele>
        <time>2021-07-01T12:49:32Z</time>
      </trkpt>
      <trkpt lat="42.170895" lon="2.928565">
        <ele>49.78082</ele>
        <time>2021-07-01T12:49:34Z</time>
      </trkpt>
      <trkpt lat="42.170666" lon="2.928339">
        <ele>48.73615</ele>
        <time>2021-07-01T12:49:34Z</time>
      </trkpt>
      <trkpt lat="42.170300" lon="2.927950">
        <ele>47.78143</ele>
        <time>2021-07-01T12:49:35Z</time>
      </trkpt>
      <trkpt lat="42.170219" lon="2.927864">
        <ele>47.71277</ele>
        <time>2021-07-01T12:49:36Z</time>
      </trkpt>
      <trkpt lat="42.169743" lon="2.927342">
        <ele>47.22308</ele>
        <time>2021-07-01T12:49:37Z</time>
      </trkpt>
      <trkpt lat="42.169724" lon="2.927318">
        <ele>47.29407</ele>
        <time>2021-07-01T12:49:38Z</time>
      </trkpt>
      <trkpt lat="42.169495" lon="2.927050">
        <ele>47.46301</ele>
        <time>2021-07-01T12:49:39Z</time>
      </trkpt>
      <trkpt lat="42.169243" lon="2.926757">
        <ele>47.47382</ele>
        <time>2021-07-01T12:49:40Z</time>
      </trkpt>
      <trkpt lat="42.169243" lon="2.926757">
        <ele>47.60266</ele>
        <time>2021-07-01T12:49:41Z</time>
      </trkpt>
      <trkpt lat="42.168865" lon="2.926316">
        <ele>47.39185</ele>
        <time>2021-07-01T12:49:42Z</time>
      </trkpt>
      <trkpt lat="42.168743" lon="2.926169">
        <ele>47.41083</ele>
        <time>2021-07-01T12:49:44Z</time>
      </trkpt>
      <trkpt lat="42.168392" lon="2.925734">
        <ele>47.94550</ele>
        <time>2021-07-01T12:49:44Z</time>
      </trkpt>
      <trkpt lat="42.168159" lon="2.925439">
        <ele>47.46692</ele>
        <time>2021-07-01T12:49:45Z</time>
      </trkpt>
      <trkpt lat="42.167961" lon="2.925195">
        <ele>46.89081</ele>
        <time>2021-07-01T12:49:46Z</time>
      </trkpt>
      <trkpt lat="42.167908" lon="2.925128">
        <ele>46.16443</ele>
        <time>2021-07-01T12:49:47Z</time>
      </trkpt>
      <trkpt lat="42.167698" lon="2.924867">
        <ele>46.15436</ele>
        <time>2021-07-01T12:49:48Z</time>
      </trkpt>
      <trkpt lat="42.167519" lon="2.924642">
        <ele>46.07080</ele>
        <time>2021-07-01T12:49:49Z</time>
      </trkpt>
      <trkpt lat="42.167294" lon="2.924359">
        <ele>45.21338</ele>
        <time>2021-07-01T12:49:50Z</time>
      </trkpt>
      <trkpt lat="42.166771" lon="2.923712">
        <ele>44.62421</ele>
        <time>2021-07-01T12:49:51Z</time>
      </trkpt>
      <trkpt lat="42.166679" lon="2.923600">
        <ele>44.68866</ele>
        <time>2021-07-01T12:49:52Z</time>
      </trkpt>
      <trkpt lat="42.166386" lon="2.923240">
        <ele>43.64355</ele>
        <time>2021-07-01T12:49:53Z</time>
      </trkpt>
      <trkpt lat="42.166080" lon="2.922875">
        <ele>43.58685</ele>
        <time>2021-07-01T12:49:54Z</time>
      </trkpt>
      <trkpt lat="42.165657" lon="2.922363">
        <ele>43.57471</ele>
        <time>2021-07-01T12:49:55Z</time>
      </trkpt>
      <trkpt lat="42.165432" lon="2.922098">
        <ele>42.49194</ele>
        <time>2021-07-01T12:49:56Z</time>
      </trkpt>
      <trkpt lat="42.165432" lon="2.922098">
        <ele>42.69556</ele>
        <time>2021-07-01T12:49:57Z</time>
      </trkpt>
      <trkpt lat="42.165047" lon="2.921655">
        <ele>42.13159</ele>
        <time>2021-07-01T12:49:58Z</time>
      </trkpt>
      <trkpt lat="42.164928" lon="2.921518">
        <ele>42.00806</ele>
        <time>2021-07-01T12:49:59Z</time>
      </trkpt>
      <trkpt lat="42.164410" lon="2.920935">
        <ele>41.80615</ele>
        <time>2021-07-01T12:50:00Z</time>
      </trkpt>
      <trkpt lat="42.164150" lon="2.920666">
        <ele>42.43646</ele>
        <time>2021-07-01T12:50:01Z</time>
      </trkpt>
      <trkpt lat="42.163578" lon="2.920079">
        <ele>42.22888</ele>
        <time>2021-07-01T12:50:02Z</time>
      </trkpt>
      <trkpt lat="42.163551" lon="2.920051">
        <ele>41.92621</ele>
        <time>2021-07-01T12:50:04Z</time>
      </trkpt>
      <trkpt lat="42.163265" lon="2.919790">
        <ele>42.79663</ele>
        <time>2021-07-01T12:50:04Z</time>
      </trkpt>
      <trkpt lat="42.162727" lon="2.919304">
        <ele>42.48279</ele>
        <time>2021-07-01T12:50:05Z</time>
      </trkpt>
      <trkpt lat="42.162674" lon="2.919258">
        <ele>42.85919</ele>
        <time>2021-07-01T12:50:06Z</time>
      </trkpt>
      <trkpt lat="42.162251" lon="2.918915">
        <ele>43.52667</ele>
        <time>2021-07-01T12:50:07Z</time>
      </trkpt>
      <trkpt lat="42.161896" lon="2.918641">
        <ele>44.12225</ele>
        <time>2021-07-01T12:50:08Z</time>
      </trkpt>
      <trkpt lat="42.161430" lon="2.918310">
        <ele>45.05048</ele>
        <time>2021-07-01T12:50:09Z</time>
      </trkpt>
      <trkpt lat="42.161430" lon="2.918310">
        <ele>44.52057</ele>
        <time>2021-07-01T12:50:10Z</time>
      </trkpt>
      <trkpt lat="42.161232" lon="2.918176">
        <ele>44.10767</ele>
        <time>2021-07-01T12:50:11Z</time>
      </trkpt>
      <trkpt lat="42.160862" lon="2.917941">
        <ele>44.77875</ele>
        <time>2021-07-01T12:50:12Z</time>
      </trkpt>
      <trkpt lat="42.160553" lon="2.917768">
        <ele>45.96716</ele>
        <time>2021-07-01T12:50:14Z</time>
      </trkpt>
      <trkpt lat="42.160065" lon="2.917507">
        <ele>46.76160</ele>
        <time>2021-07-01T12:50:14Z</time>
      </trkpt>
      <trkpt lat="42.159565" lon="2.917291">
        <ele>47.29083</ele>
        <time>2021-07-01T12:50:15Z</time>
      </trkpt>
      <trkpt lat="42.159508" lon="2.917266">
        <ele>48.48077</ele>
        <time>2021-07-01T12:50:16Z</time>
      </trkpt>
      <trkpt lat="42.159122" lon="2.917117">
        <ele>48.78180</ele>
        <time>2021-07-01T12:50:17Z</time>
      </trkpt>
      <trkpt lat="42.158600" lon="2.916949">
        <ele>49.15881</ele>
        <time>2021-07-01T12:50:18Z</time>
      </trkpt>
      <trkpt lat="42.158283" lon="2.916858">
        <ele>49.91785</ele>
        <time>2021-07-01T12:50:19Z</time>
      </trkpt>
      <trkpt lat="42.158035" lon="2.916808">
        <ele>50.98529</ele>
        <time>2021-07-01T12:50:20Z</time>
      </trkpt>
      <trkpt lat="42.158035" lon="2.916808">
        <ele>51.49316</ele>
        <time>2021-07-01T12:50:21Z</time>
      </trkpt>
      <trkpt lat="42.157715" lon="2.916743">
        <ele>52.26935</ele>
        <time>2021-07-01T12:50:22Z</time>
      </trkpt>
      <trkpt lat="42.157249" lon="2.916655">
        <ele>53.16284</ele>
        <time>2021-07-01T12:50:24Z</time>
      </trkpt>
      <trkpt lat="42.157104" lon="2.916633">
        <ele>53.38129</ele>
        <time>2021-07-01T12:50:24Z</time>
      </trkpt>
      <trkpt lat="42.156651" lon="2.916597">
        <ele>52.59424</ele>
        <time>2021-07-01T12:50:25Z</time>
      </trkpt>
      <trkpt lat="42.156464" lon="2.916586">
        <ele>53.96643</ele>
        <time>2021-07-01T12:50:26Z</time>
      </trkpt>
      <trkpt lat="42.156231" lon="2.916579">
        <ele>54.72632</ele>
        <time>2021-07-01T12:50:27Z</time>
      </trkpt>
      <trkpt lat="42.155903" lon="2.916567">
        <ele>55.85681</ele>
        <time>2021-07-01T12:50:28Z</time>
      </trkpt>
      <trkpt lat="42.155338" lon="2.916565">
        <ele>56.35858</ele>
        <time>2021-07-01T12:50:29Z</time>
      </trkpt>
      <trkpt lat="42.155308" lon="2.916568">
        <ele>57.70276</ele>
        <time>2021-07-01T12:50:30Z</time>
      </trkpt>
      <trkpt lat="42.154919" lon="2.916597">
        <ele>58.00854</ele>
        <time>2021-07-01T12:50:31Z</time>
      </trkpt>
      <trkpt lat="42.154465" lon="2.916661">
        <ele>58.75952</ele>
        <time>2021-07-01T12:50:32Z</time>
      </trkpt>
      <trkpt lat="42.154381" lon="2.916674">
        <ele>59.71509</ele>
        <time>2021-07-01T12:50:34Z</time>
      </trkpt>
      <trkpt lat="42.154381" lon="2.916674">
        <ele>60.34436</ele>
        <time>2021-07-01T12:50:34Z</time>
      </trkpt>
      <trkpt lat="42.153870" lon="2.916761">
        <ele>60.35046</ele>
        <time>2021-07-01T12:50:35Z</time>
      </trkpt>
      <trkpt lat="42.153408" lon="2.916861">
        <ele>61.80518</ele>
        <time>2021-07-01T12:50:36Z</time>
      </trkpt>
      <trkpt lat="42.153248" lon="2.916902">
        <ele>62.94885</ele>
        <time>2021-07-01T12:50:37Z</time>
      </trkpt>
      <trkpt lat="42.153065" lon="2.916950">
        <ele>63.51331</ele>
        <time>2021-07-01T12:50:38Z</time>
      </trkpt>
      <trkpt lat="42.152752" lon="2.917036">
        <ele>64.44855</ele>
        <time>2021-07-01T12:50:39Z</time>
      </trkpt>
      <trkpt lat="42.152451" lon="2.917118">
        <ele>64.98041</ele>
        <time>2021-07-01T12:50:40Z</time>
      </trkpt>
      <trkpt lat="42.152119" lon="2.917212">
        <ele>66.47760</ele>
        <time>2021-07-01T12:50:41Z</time>
      </trkpt>
      <trkpt lat="42.151814" lon="2.917301">
        <ele>67.18988</ele>
        <time>2021-07-01T12:50:42Z</time>
      </trkpt>
      <trkpt lat="42.151295" lon="2.917455">
        <ele>67.96375</ele>
        <time>2021-07-01T12:50:44Z</time>
      </trkpt>
      <trkpt lat="42.151253" lon="2.917468">
        <ele>69.00745</ele>
        <time>2021-07-01T12:50:44Z</time>
      </trkpt>
      <trkpt lat="42.150604" lon="2.917669">
        <ele>70.37872</ele>
        <time>2021-07-01T12:50:45Z</time>
      </trkpt>
      <trkpt lat="42.150551" lon="2.917686">
        <ele>71.15210</ele>
        <time>2021-07-01T12:50:46Z</time>
      </trkpt>
      <trkpt lat="42.150208" lon="2.917791">
        <ele>72.08777</ele>
        <time>2021-07-01T12:50:47Z</time>
      </trkpt>
      <trkpt lat="42.149841" lon="2.917904">
        <ele>73.56787</ele>
        <time>2021-07-01T12:50:48Z</time>
      </trkpt>
      <trkpt lat="42.149429" lon="2.918032">
        <ele>74.61450</ele>
        <time>2021-07-01T12:50:49Z</time>
      </trkpt>
      <trkpt lat="42.149429" lon="2.918032">
        <ele>75.56970</ele>
        <time>2021-07-01T12:50:50Z</time>
      </trkpt>
      <trkpt lat="42.149075" lon="2.918139">
        <ele>76.77051</ele>
        <time>2021-07-01T12:50:51Z</time>
      </trkpt>
      <trkpt lat="42.148624" lon="2.918262">
        <ele>77.32715</ele>
        <time>2021-07-01T12:50:52Z</time>
      </trkpt>
      <trkpt lat="42.148293" lon="2.918352">
        <ele>78.13550</ele>
        <time>2021-07-01T12:50:54Z</time>
      </trkpt>
      <trkpt lat="42.147957" lon="2.918426">
        <ele>78.83643</ele>
        <time>2021-07-01T12:50:54Z</time>
      </trkpt>
      <trkpt lat="42.147636" lon="2.918496">
        <ele>80.58197</ele>
        <time>2021-07-01T12:50:55Z</time>
      </trkpt>
      <trkpt lat="42.147343" lon="2.918559">
        <ele>81.87506</ele>
        <time>2021-07-01T12:50:56Z</time>
      </trkpt>
      <trkpt lat="42.147114" lon="2.918604">
        <ele>83.80176</ele>
        <time>2021-07-01T12:50:57Z</time>
      </trkpt>
      <trkpt lat="42.146664" lon="2.918673">
        <ele>84.49628</ele>
        <time>2021-07-01T12:50:58Z</time>
      </trkpt>
      <trkpt lat="42.146664" lon="2.918673">
        <ele>85.50299</ele>
        <time>2021-07-01T12:51:00Z</time>
      </trkpt>
      <trkpt lat="42.146526" lon="2.918695">
        <ele>86.18176</ele>
        <time>2021-07-01T12:51:00Z</time>
      </trkpt>
      <trkpt lat="42.146118" lon="2.918748">
        <ele>87.15833</ele>
        <time>2021-07-01T12:51:01Z</time>
      </trkpt>
      <trkpt lat="42.145645" lon="2.918786">
        <ele>88.35974</ele>
        <time>2021-07-01T12:51:02Z</time>
      </trkpt>
      <trkpt lat="42.145325" lon="2.918809">
        <ele>90.06738</ele>
        <time>2021-07-01T12:51:04Z</time>
      </trkpt>
      <trkpt lat="42.144981" lon="2.918812">
        <ele>90.58191</ele>
        <time>2021-07-01T12:51:04Z</time>
      </trkpt>
      <trkpt lat="42.144653" lon="2.918815">
        <ele>91.44507</ele>
        <time>2021-07-01T12:51:05Z</time>
      </trkpt>
      <trkpt lat="42.144585" lon="2.918816">
        <ele>92.34882</ele>
        <time>2021-07-01T12:51:06Z</time>
      </trkpt>
      <trkpt lat="42.143948" lon="2.918813">
        <ele>93.48438</ele>
        <time>2021-07-01T12:51:07Z</time>
      </trkpt>
      <trkpt lat="42.143921" lon="2.918812">
        <ele>93.65063</ele>
        <time>2021-07-01T12:51:08Z</time>
      </trkpt>
      <trkpt lat="42.143513" lon="2.918792">
        <ele>94.11670</ele>
        <time>2021-07-01T12:51:09Z</time>
      </trkpt>
      <trkpt lat="42.142952" lon="2.918735">
        <ele>95.23474</ele>
        <time>2021-07-01T12:51:10Z</time>
      </trkpt>
      <trkpt lat="42.142952" lon="2.918735">
        <ele>95.94342</ele>
        <time>2021-07-01T12:51:11Z</time>
      </trkpt>
      <trkpt lat="42.142628" lon="2.918699">
        <ele>96.83459</ele>
        <time>2021-07-01T12:51:12Z</time>
      </trkpt>
      <trkpt lat="42.142471" lon="2.918676">
        <ele>97.52057</ele>
        <time>2021-07-01T12:51:14Z</time>
      </trkpt>
      <trkpt lat="42.142258" lon="2.918645">
        <ele>99.11560</ele>
        <time>2021-07-01T12:51:14Z</time>
      </trkpt>
      <trkpt lat="42.141823" lon="2.918569">
        <ele>99.49634</ele>
        <time>2021-07-01T12:51:15Z</time>
      </trkpt>
      <trkpt lat="42.141571" lon="2.918517">
        <ele>100.99298</ele>
        <time>2021-07-01T12:51:16Z</time>
      </trkpt>
      <trkpt lat="42.141064" lon="2.918403">
        <ele>101.81171</ele>
        <time>2021-07-01T12:51:17Z</time>
      </trkpt>
      <trkpt lat="42.140907" lon="2.918361">
        <ele>101.62964</ele>
        <time>2021-07-01T12:51:19Z</time>
      </trkpt>
      <trkpt lat="42.140400" lon="2.918222">
        <ele>102.22406</ele>
        <time>2021-07-01T12:51:19Z</time>
      </trkpt>
      <trkpt lat="42.140106" lon="2.918132">
        <ele>102.77197</ele>
        <time>2021-07-01T12:51:20Z</time>
      </trkpt>
      <trkpt lat="42.139774" lon="2.918023">
        <ele>103.01465</ele>
        <time>2021-07-01T12:51:21Z</time>
      </trkpt>
      <trkpt lat="42.139748" lon="2.918012">
        <ele>104.10852</ele>
        <time>2021-07-01T12:51:22Z</time>
      </trkpt>
      <trkpt lat="42.139378" lon="2.917874">
        <ele>104.55353</ele>
        <time>2021-07-01T12:51:23Z</time>
      </trkpt>
      <trkpt lat="42.139099" lon="2.917771">
        <ele>104.83759</ele>
        <time>2021-07-01T12:51:24Z</time>
      </trkpt>
      <trkpt lat="42.138821" lon="2.917658">
        <ele>106.98120</ele>
        <time>2021-07-01T12:51:25Z</time>
      </trkpt>
      <trkpt lat="42.138821" lon="2.917658">
        <ele>108.22156</ele>
        <time>2021-07-01T12:51:26Z</time>
      </trkpt>
      <trkpt lat="42.138481" lon="2.917509">
        <ele>108.85168</ele>
        <time>2021-07-01T12:51:27Z</time>
      </trkpt>
      <trkpt lat="42.138184" lon="2.917367">
        <ele>108.50146</ele>
        <time>2021-07-01T12:51:28Z</time>
      </trkpt>
      <trkpt lat="42.137905" lon="2.917234">
        <ele>109.17938</ele>
        <time>2021-07-01T12:51:29Z</time>
      </trkpt>
      <trkpt lat="42.137600" lon="2.917073">
        <ele>109.03375</ele>
        <time>2021-07-01T12:51:30Z</time>
      </trkpt>
      <trkpt lat="42.137283" lon="2.916905">
        <ele>110.93420</ele>
        <time>2021-07-01T12:51:31Z</time>
      </trkpt>
      <trkpt lat="42.136768" lon="2.916617">
        <ele>112.04285</ele>
        <time>2021-07-01T12:51:32Z</time>
      </trkpt>
      <trkpt lat="42.136402" lon="2.916403">
        <ele>112.76477</ele>
        <time>2021-07-01T12:51:34Z</time>
      </trkpt>
      <trkpt lat="42.136375" lon="2.916388">
        <ele>114.31665</ele>
        <time>2021-07-01T12:51:34Z</time>
      </trkpt>
      <trkpt lat="42.135796" lon="2.916048">
        <ele>115.22931</ele>
        <time>2021-07-01T12:51:35Z</time>
      </trkpt>
      <trkpt lat="42.135769" lon="2.916032">
        <ele>116.66278</ele>
        <time>2021-07-01T12:51:36Z</time>
      </trkpt>
      <trkpt lat="42.135441" lon="2.915830">
        <ele>118.04456</ele>
        <time>2021-07-01T12:51:37Z</time>
      </trkpt>
      <trkpt lat="42.134987" lon="2.915549">
        <ele>119.05548</ele>
        <time>2021-07-01T12:51:38Z</time>
      </trkpt>
      <trkpt lat="42.134914" lon="2.915507">
        <ele>120.49597</ele>
        <time>2021-07-01T12:51:39Z</time>
      </trkpt>
      <trkpt lat="42.134914" lon="2.915507">
        <ele>122.11884</ele>
        <time>2021-07-01T12:51:40Z</time>
      </trkpt>
      <trkpt lat="42.134441" lon="2.915214">
        <ele>121.84937</ele>
        <time>2021-07-01T12:51:41Z</time>
      </trkpt>
      <trkpt lat="42.134201" lon="2.915067">
        <ele>122.80554</ele>
        <time>2021-07-01T12:51:42Z</time>
      </trkpt>
      <trkpt lat="42.133923" lon="2.914895">
        <ele>123.92865</ele>
        <time>2021-07-01T12:51:43Z</time>
      </trkpt>
      <trkpt lat="42.133644" lon="2.914726">
        <ele>125.51984</ele>
        <time>2021-07-01T12:51:44Z</time>
      </trkpt>
      <trkpt lat="42.133381" lon="2.914575">
        <ele>126.28784</ele>
        <time>2021-07-01T12:51:45Z</time>
      </trkpt>
      <trkpt lat="42.133091" lon="2.914408">
        <ele>128.03137</ele>
        <time>2021-07-01T12:51:46Z</time>
      </trkpt>
      <trkpt lat="42.132767" lon="2.914224">
        <ele>127.68787</ele>
        <time>2021-07-01T12:51:47Z</time>
      </trkpt>
      <trkpt lat="42.132446" lon="2.914040">
        <ele>128.49475</ele>
        <time>2021-07-01T12:51:48Z</time>
      </trkpt>
      <trkpt lat="42.132137" lon="2.913865">
        <ele>129.03870</ele>
        <time>2021-07-01T12:51:49Z</time>
      </trkpt>
      <trkpt lat="42.131859" lon="2.913729">
        <ele>128.76654</ele>
        <time>2021-07-01T12:51:50Z</time>
      </trkpt>
      <trkpt lat="42.131859" lon="2.913729">
        <ele>129.02991</ele>
        <time>2021-07-01T12:51:51Z</time>
      </trkpt>
      <trkpt lat="42.131470" lon="2.913538">
        <ele>128.79321</ele>
        <time>2021-07-01T12:51:52Z</time>
      </trkpt>
      <trkpt lat="42.130882" lon="2.913262">
        <ele>129.33588</ele>
        <time>2021-07-01T12:51:53Z</time>
      </trkpt>
      <trkpt lat="42.130772" lon="2.913212">
        <ele>129.38574</ele>
        <time>2021-07-01T12:51:54Z</time>
      </trkpt>
      <trkpt lat="42.130531" lon="2.913106">
        <ele>131.36505</ele>
        <time>2021-07-01T12:51:55Z</time>
      </trkpt>
      <trkpt lat="42.130219" lon="2.912978">
        <ele>131.75549</ele>
        <time>2021-07-01T12:51:56Z</time>
      </trkpt>
      <trkpt lat="42.129719" lon="2.912788">
        <ele>131.44019</ele>
        <time>2021-07-01T12:51:57Z</time>
      </trkpt>
      <trkpt lat="42.129635" lon="2.912757">
        <ele>131.61444</ele>
        <time>2021-07-01T12:51:58Z</time>
      </trkpt>
      <trkpt lat="42.129295" lon="2.912626">
        <ele>132.96643</ele>
        <time>2021-07-01T12:52:00Z</time>
      </trkpt>
      <trkpt lat="42.128956" lon="2.912516">
        <ele>132.65009</ele>
        <time>2021-07-01T12:52:00Z</time>
      </trkpt>
      <trkpt lat="42.128380" lon="2.912331">
        <ele>133.53796</ele>
        <time>2021-07-01T12:52:01Z</time>
      </trkpt>
      <trkpt lat="42.128147" lon="2.912257">
        <ele>133.26251</ele>
        <time>2021-07-01T12:52:02Z</time>
      </trkpt>
      <trkpt lat="42.128147" lon="2.912257">
        <ele>133.29608</ele>
        <time>2021-07-01T12:52:03Z</time>
      </trkpt>
      <trkpt lat="42.127876" lon="2.912181">
        <ele>133.21765</ele>
        <time>2021-07-01T12:52:04Z</time>
      </trkpt>
      <trkpt lat="42.127487" lon="2.912085">
        <ele>133.78070</ele>
        <time>2021-07-01T12:52:05Z</time>
      </trkpt>
      <trkpt lat="42.127335" lon="2.912048">
        <ele>134.74133</ele>
        <time>2021-07-01T12:52:06Z</time>
      </trkpt>
      <trkpt lat="42.127003" lon="2.911982">
        <ele>133.50635</ele>
        <time>2021-07-01T12:52:07Z</time>
      </trkpt>
      <trkpt lat="42.126682" lon="2.911921">
        <ele>133.41772</ele>
        <time>2021-07-01T12:52:08Z</time>
      </trkpt>
      <trkpt lat="42.126129" lon="2.911825">
        <ele>132.91522</ele>
        <time>2021-07-01T12:52:09Z</time>
      </trkpt>
      <trkpt lat="42.125763" lon="2.911773">
        <ele>133.02039</ele>
        <time>2021-07-01T12:52:10Z</time>
      </trkpt>
      <trkpt lat="42.125736" lon="2.911770">
        <ele>132.33051</ele>
        <time>2021-07-01T12:52:11Z</time>
      </trkpt>
      <trkpt lat="42.125313" lon="2.911723">
        <ele>131.91577</ele>
        <time>2021-07-01T12:52:12Z</time>
      </trkpt>
      <trkpt lat="42.125004" lon="2.911694">
        <ele>131.58215</ele>
        <time>2021-07-01T12:52:14Z</time>
      </trkpt>
      <trkpt lat="42.125004" lon="2.911694">
        <ele>131.98810</ele>
        <time>2021-07-01T12:52:14Z</time>
      </trkpt>
      <trkpt lat="42.124561" lon="2.911659">
        <ele>131.41815</ele>
        <time>2021-07-01T12:52:15Z</time>
      </trkpt>
      <trkpt lat="42.124035" lon="2.911645">
        <ele>131.67938</ele>
        <time>2021-07-01T12:52:16Z</time>
      </trkpt>
      <trkpt lat="42.123940" lon="2.911646">
        <ele>131.56958</ele>
        <time>2021-07-01T12:52:17Z</time>
      </trkpt>
      <trkpt lat="42.123341" lon="2.911649">
        <ele>131.45782</ele>
        <time>2021-07-01T12:52:19Z</time>
      </trkpt>
      <trkpt lat="42.123055" lon="2.911656">
        <ele>131.08948</ele>
        <time>2021-07-01T12:52:19Z</time>
      </trkpt>
      <trkpt lat="42.122997" lon="2.911659">
        <ele>130.14526</ele>
        <time>2021-07-01T12:52:20Z</time>
      </trkpt>
      <trkpt lat="42.122707" lon="2.911674">
        <ele>129.11084</ele>
        <time>2021-07-01T12:52:21Z</time>
      </trkpt>
      <trkpt lat="42.122429" lon="2.911690">
        <ele>127.49536</ele>
        <time>2021-07-01T12:52:22Z</time>
      </trkpt>
      <trkpt lat="42.122101" lon="2.911714">
        <ele>126.48975</ele>
        <time>2021-07-01T12:52:23Z</time>
      </trkpt>
      <trkpt lat="42.121750" lon="2.911739">
        <ele>126.20953</ele>
        <time>2021-07-01T12:52:24Z</time>
      </trkpt>
      <trkpt lat="42.121239" lon="2.911798">
        <ele>125.50647</ele>
        <time>2021-07-01T12:52:25Z</time>
      </trkpt>
      <trkpt lat="42.121014" lon="2.911825">
        <ele>125.12988</ele>
        <time>2021-07-01T12:52:26Z</time>
      </trkpt>
      <trkpt lat="42.121014" lon="2.911825">
        <ele>123.79675</ele>
        <time>2021-07-01T12:52:27Z</time>
      </trkpt>
      <trkpt lat="42.120491" lon="2.911896">
        <ele>122.09485</ele>
        <time>2021-07-01T12:52:28Z</time>
      </trkpt>
      <trkpt lat="42.120350" lon="2.911918">
        <ele>121.66754</ele>
        <time>2021-07-01T12:52:29Z</time>
      </trkpt>
      <trkpt lat="42.120117" lon="2.911960">
        <ele>120.77551</ele>
        <time>2021-07-01T12:52:30Z</time>
      </trkpt>
      <trkpt lat="42.119755" lon="2.912029">
        <ele>120.01392</ele>
        <time>2021-07-01T12:52:31Z</time>
      </trkpt>
      <trkpt lat="42.119274" lon="2.912114">
        <ele>119.86395</ele>
        <time>2021-07-01T12:52:32Z</time>
      </trkpt>
      <trkpt lat="42.119137" lon="2.912136">
        <ele>118.60736</ele>
        <time>2021-07-01T12:52:34Z</time>
      </trkpt>
      <trkpt lat="42.118774" lon="2.912196">
        <ele>117.78198</ele>
        <time>2021-07-01T12:52:34Z</time>
      </trkpt>
      <trkpt lat="42.118530" lon="2.912248">
        <ele>116.26276</ele>
        <time>2021-07-01T12:52:35Z</time>
      </trkpt>
      <trkpt lat="42.117977" lon="2.912367">
        <ele>115.97888</ele>
        <time>2021-07-01T12:52:36Z</time>
      </trkpt>
      <trkpt lat="42.117962" lon="2.912370">
        <ele>114.75494</ele>
        <time>2021-07-01T12:52:37Z</time>
      </trkpt>
      <trkpt lat="42.117565" lon="2.912454">
        <ele>114.56067</ele>
        <time>2021-07-01T12:52:39Z</time>
      </trkpt>
      <trkpt lat="42.116955" lon="2.912585">
        <ele>113.05249</ele>
        <time>2021-07-01T12:52:39Z</time>
      </trkpt>
      <trkpt lat="42.116955" lon="2.912585">
        <ele>112.00281</ele>
        <time>2021-07-01T12:52:40Z</time>
      </trkpt>
      <trkpt lat="42.116764" lon="2.912626">
        <ele>111.80542</ele>
        <time>2021-07-01T12:52:41Z</time>
      </trkpt>
      <trkpt lat="42.116352" lon="2.912709">
        <ele>110.54480</ele>
        <time>2021-07-01T12:52:42Z</time>
      </trkpt>
      <trkpt lat="42.115952" lon="2.912782">
        <ele>109.56140</ele>
        <time>2021-07-01T12:52:43Z</time>
      </trkpt>
      <trkpt lat="42.115681" lon="2.912830">
        <ele>108.21436</ele>
        <time>2021-07-01T12:52:44Z</time>
      </trkpt>
      <trkpt lat="42.115559" lon="2.912848">
        <ele>108.33081</ele>
        <time>2021-07-01T12:52:45Z</time>
      </trkpt>
      <trkpt lat="42.115280" lon="2.912888">
        <ele>107.09863</ele>
        <time>2021-07-01T12:52:46Z</time>
      </trkpt>
      <trkpt lat="42.114773" lon="2.912960">
        <ele>106.75208</ele>
        <time>2021-07-01T12:52:47Z</time>
      </trkpt>
      <trkpt lat="42.114365" lon="2.912992">
        <ele>105.01752</ele>
        <time>2021-07-01T12:52:49Z</time>
      </trkpt>
      <trkpt lat="42.114357" lon="2.912993">
        <ele>104.81616</ele>
        <time>2021-07-01T12:52:49Z</time>
      </trkpt>
      <trkpt lat="42.113655" lon="2.913034">
        <ele>103.38470</ele>
        <time>2021-07-01T12:52:50Z</time>
      </trkpt>
      <trkpt lat="42.113384" lon="2.913034">
        <ele>102.37793</ele>
        <time>2021-07-01T12:52:51Z</time>
      </trkpt>
      <trkpt lat="42.113148" lon="2.913024">
        <ele>101.90155</ele>
        <time>2021-07-01T12:52:52Z</time>
      </trkpt>
      <trkpt lat="42.112888" lon="2.913014">
        <ele>100.76831</ele>
        <time>2021-07-01T12:52:53Z</time>
      </trkpt>
      <trkpt lat="42.112633" lon="2.913001">
        <ele>100.28882</ele>
        <time>2021-07-01T12:52:54Z</time>
      </trkpt>
      <trkpt lat="42.112633" lon="2.913001">
        <ele>99.74896</ele>
        <time>2021-07-01T12:52:55Z</time>
      </trkpt>
      <trkpt lat="42.112175" lon="2.912951">
        <ele>98.47565</ele>
        <time>2021-07-01T12:52:56Z</time>
      </trkpt>
      <trkpt lat="42.111919" lon="2.912908">
        <ele>97.79761</ele>
        <time>2021-07-01T12:52:57Z</time>
      </trkpt>
      <trkpt lat="42.111439" lon="2.912820">
        <ele>97.15137</ele>
        <time>2021-07-01T12:52:58Z</time>
      </trkpt>
      <trkpt lat="42.111137" lon="2.912754">
        <ele>95.66003</ele>
        <time>2021-07-01T12:52:59Z</time>
      </trkpt>
      <trkpt lat="42.111023" lon="2.912725">
        <ele>95.39014</ele>
        <time>2021-07-01T12:53:00Z</time>
      </trkpt>
      <trkpt lat="42.110455" lon="2.912550">
        <ele>93.55762</ele>
        <time>2021-07-01T12:53:01Z</time>
      </trkpt>
      <trkpt lat="42.110161" lon="2.912448">
        <ele>92.95984</ele>
        <time>2021-07-01T12:53:02Z</time>
      </trkpt>
      <trkpt lat="42.109863" lon="2.912336">
        <ele>91.66516</ele>
        <time>2021-07-01T12:53:04Z</time>
      </trkpt>
      <trkpt lat="42.109821" lon="2.912320">
        <ele>91.71954</ele>
        <time>2021-07-01T12:53:04Z</time>
      </trkpt>
      <trkpt lat="42.109459" lon="2.912167">
        <ele>91.73254</ele>
        <time>2021-07-01T12:53:06Z</time>
      </trkpt>
      <trkpt lat="42.108917" lon="2.911896">
        <ele>90.49744</ele>
        <time>2021-07-01T12:53:06Z</time>
      </trkpt>
      <trkpt lat="42.108589" lon="2.911716">
        <ele>89.34442</ele>
        <time>2021-07-01T12:53:07Z</time>
      </trkpt>
      <trkpt lat="42.108589" lon="2.911716">
        <ele>88.38605</ele>
        <time>2021-07-01T12:53:09Z</time>
      </trkpt>
      <trkpt lat="42.108421" lon="2.911608">
        <ele>88.03638</ele>
        <time>2021-07-01T12:53:09Z</time>
      </trkpt>
      <trkpt lat="42.108219" lon="2.911483">
        <ele>86.88092</ele>
        <time>2021-07-01T12:53:10Z</time>
      </trkpt>
      <trkpt lat="42.107811" lon="2.911225">
        <ele>85.92010</ele>
        <time>2021-07-01T12:53:11Z</time>
      </trkpt>
      <trkpt lat="42.107601" lon="2.911088">
        <ele>85.45111</ele>
        <time>2021-07-01T12:53:12Z</time>
      </trkpt>
      <trkpt lat="42.107029" lon="2.910647">
        <ele>84.91290</ele>
        <time>2021-07-01T12:53:14Z</time>
      </trkpt>
      <trkpt lat="42.106796" lon="2.910454">
        <ele>84.22998</ele>
        <time>2021-07-01T12:53:14Z</time>
      </trkpt>
      <trkpt lat="42.106537" lon="2.910231">
        <ele>83.22961</ele>
        <time>2021-07-01T12:53:16Z</time>
      </trkpt>
      <trkpt lat="42.106255" lon="2.909965">
        <ele>82.92456</ele>
        <time>2021-07-01T12:53:17Z</time>
      </trkpt>
      <trkpt lat="42.105984" lon="2.909711">
        <ele>82.14532</ele>
        <time>2021-07-01T12:53:17Z</time>
      </trkpt>
      <trkpt lat="42.105728" lon="2.909452">
        <ele>82.28497</ele>
        <time>2021-07-01T12:53:18Z</time>
      </trkpt>
      <trkpt lat="42.105469" lon="2.909174">
        <ele>82.01569</ele>
        <time>2021-07-01T12:53:19Z</time>
      </trkpt>
      <trkpt lat="42.105469" lon="2.909174">
        <ele>81.67908</ele>
        <time>2021-07-01T12:53:20Z</time>
      </trkpt>
      <trkpt lat="42.105347" lon="2.909032">
        <ele>81.55438</ele>
        <time>2021-07-01T12:53:21Z</time>
      </trkpt>
      <trkpt lat="42.105080" lon="2.908721">
        <ele>80.76544</ele>
        <time>2021-07-01T12:53:22Z</time>
      </trkpt>
      <trkpt lat="42.104839" lon="2.908433">
        <ele>80.63049</ele>
        <time>2021-07-01T12:53:23Z</time>
      </trkpt>
      <trkpt lat="42.104538" lon="2.908045">
        <ele>80.79944</ele>
        <time>2021-07-01T12:53:24Z</time>
      </trkpt>
      <trkpt lat="42.104256" lon="2.907674">
        <ele>80.47253</ele>
        <time>2021-07-01T12:53:25Z</time>
      </trkpt>
      <trkpt lat="42.104218" lon="2.907627">
        <ele>80.45746</ele>
        <time>2021-07-01T12:53:26Z</time>
      </trkpt>
      <trkpt lat="42.103775" lon="2.907010">
        <ele>80.69373</ele>
        <time>2021-07-01T12:53:27Z</time>
      </trkpt>
      <trkpt lat="42.103748" lon="2.906972">
        <ele>81.06537</ele>
        <time>2021-07-01T12:53:28Z</time>
      </trkpt>
      <trkpt lat="42.103539" lon="2.906653">
        <ele>81.37512</ele>
        <time>2021-07-01T12:53:29Z</time>
      </trkpt>
      <trkpt lat="42.103336" lon="2.906356">
        <ele>81.28723</ele>
        <time>2021-07-01T12:53:30Z</time>
      </trkpt>
      <trkpt lat="42.102940" lon="2.905750">
        <ele>81.51208</ele>
        <time>2021-07-01T12:53:31Z</time>
      </trkpt>
      <trkpt lat="42.102749" lon="2.905448">
        <ele>81.49194</ele>
        <time>2021-07-01T12:53:32Z</time>
      </trkpt>
      <trkpt lat="42.102688" lon="2.905350">
        <ele>82.47223</ele>
        <time>2021-07-01T12:53:34Z</time>
      </trkpt>
      <trkpt lat="42.102348" lon="2.904802">
        <ele>82.18713</ele>
        <time>2021-07-01T12:53:34Z</time>
      </trkpt>
      <trkpt lat="42.102348" lon="2.904802">
        <ele>83.31421</ele>
        <time>2021-07-01T12:53:35Z</time>
      </trkpt>
      <trkpt lat="42.102070" lon="2.904345">
        <ele>84.76166</ele>
        <time>2021-07-01T12:53:36Z</time>
      </trkpt>
      <trkpt lat="42.101925" lon="2.904114">
        <ele>85.99506</ele>
        <time>2021-07-01T12:53:37Z</time>
      </trkpt>
      <trkpt lat="42.101700" lon="2.903739">
        <ele>86.19592</ele>
        <time>2021-07-01T12:53:38Z</time>
      </trkpt>
      <trkpt lat="42.101398" lon="2.903238">
        <ele>87.38184</ele>
        <time>2021-07-01T12:53:39Z</time>
      </trkpt>
      <trkpt lat="42.101288" lon="2.903055">
        <ele>88.55731</ele>
        <time>2021-07-01T12:53:40Z</time>
      </trkpt>
      <trkpt lat="42.101048" lon="2.902666">
        <ele>89.72614</ele>
        <time>2021-07-01T12:53:41Z</time>
      </trkpt>
      <trkpt lat="42.100719" lon="2.902148">
        <ele>90.42725</ele>
        <time>2021-07-01T12:53:42Z</time>
      </trkpt>
      <trkpt lat="42.100498" lon="2.901796">
        <ele>91.82837</ele>
        <time>2021-07-01T12:53:44Z</time>
      </trkpt>
      <trkpt lat="42.100414" lon="2.901663">
        <ele>92.85815</ele>
        <time>2021-07-01T12:53:44Z</time>
      </trkpt>
      <trkpt lat="42.100060" lon="2.901133">
        <ele>93.72974</ele>
        <time>2021-07-01T12:53:45Z</time>
      </trkpt>
      <trkpt lat="42.100060" lon="2.901133">
        <ele>94.32648</ele>
        <time>2021-07-01T12:53:46Z</time>
      </trkpt>
      <trkpt lat="42.099895" lon="2.900895">
        <ele>95.54059</ele>
        <time>2021-07-01T12:53:47Z</time>
      </trkpt>
      <trkpt lat="42.099663" lon="2.900560">
        <ele>96.21399</ele>
        <time>2021-07-01T12:53:49Z</time>
      </trkpt>
      <trkpt lat="42.099499" lon="2.900335">
        <ele>96.65186</ele>
        <time>2021-07-01T12:53:49Z</time>
      </trkpt>
      <trkpt lat="42.099171" lon="2.899892">
        <ele>97.40759</ele>
        <time>2021-07-01T12:53:50Z</time>
      </trkpt>
      <trkpt lat="42.098858" lon="2.899485">
        <ele>97.43567</ele>
        <time>2021-07-01T12:53:51Z</time>
      </trkpt>
      <trkpt lat="42.098614" lon="2.899177">
        <ele>98.98291</ele>
        <time>2021-07-01T12:53:52Z</time>
      </trkpt>
      <trkpt lat="42.098354" lon="2.898854">
        <ele>100.32617</ele>
        <time>2021-07-01T12:53:53Z</time>
      </trkpt>
      <trkpt lat="42.098141" lon="2.898610">
        <ele>101.37488</ele>
        <time>2021-07-01T12:53:54Z</time>
      </trkpt>
      <trkpt lat="42.098064" lon="2.898528">
        <ele>102.00903</ele>
        <time>2021-07-01T12:53:55Z</time>
      </trkpt>
      <trkpt lat="42.097637" lon="2.898054">
        <ele>102.50549</ele>
        <time>2021-07-01T12:53:56Z</time>
      </trkpt>
      <trkpt lat="42.097637" lon="2.898054">
        <ele>103.33057</ele>
        <time>2021-07-01T12:53:57Z</time>
      </trkpt>
      <trkpt lat="42.097557" lon="2.897963">
        <ele>104.12610</ele>
        <time>2021-07-01T12:53:58Z</time>
      </trkpt>
      <trkpt lat="42.097317" lon="2.897699">
        <ele>105.42090</ele>
        <time>2021-07-01T12:53:59Z</time>
      </trkpt>
      <trkpt lat="42.097061" lon="2.897433">
        <ele>106.40796</ele>
        <time>2021-07-01T12:54:00Z</time>
      </trkpt>
      <trkpt lat="42.096806" lon="2.897178">
        <ele>107.58228</ele>
        <time>2021-07-01T12:54:01Z</time>
      </trkpt>
      <trkpt lat="42.096355" lon="2.896725">
        <ele>108.55029</ele>
        <time>2021-07-01T12:54:02Z</time>
      </trkpt>
      <trkpt lat="42.096001" lon="2.896395">
        <ele>108.90021</ele>
        <time>2021-07-01T12:54:04Z</time>
      </trkpt>
      <trkpt lat="42.095997" lon="2.896390">
        <ele>110.07581</ele>
        <time>2021-07-01T12:54:04Z</time>
      </trkpt>
      <trkpt lat="42.095676" lon="2.896111">
        <ele>111.08142</ele>
        <time>2021-07-01T12:54:05Z</time>
      </trkpt>
      <trkpt lat="42.095356" lon="2.895830">
        <ele>112.01965</ele>
        <time>2021-07-01T12:54:06Z</time>
      </trkpt>
      <trkpt lat="42.094944" lon="2.895481">
        <ele>113.00427</ele>
        <time>2021-07-01T12:54:07Z</time>
      </trkpt>
      <trkpt lat="42.094944" lon="2.895481">
        <ele>114.01245</ele>
        <time>2021-07-01T12:54:09Z</time>
      </trkpt>
      <trkpt lat="42.094673" lon="2.895254">
        <ele>115.18945</ele>
        <time>2021-07-01T12:54:09Z</time>
      </trkpt>
      <trkpt lat="42.094269" lon="2.894914">
        <ele>116.27661</ele>
        <time>2021-07-01T12:54:10Z</time>
      </trkpt>
      <trkpt lat="42.094185" lon="2.894850">
        <ele>116.68927</ele>
        <time>2021-07-01T12:54:11Z</time>
      </trkpt>
      <trkpt lat="42.093956" lon="2.894670">
        <ele>116.50403</ele>
        <time>2021-07-01T12:54:12Z</time>
      </trkpt>
      <trkpt lat="42.093472" lon="2.894291">
        <ele>116.45374</ele>
        <time>2021-07-01T12:54:13Z</time>
      </trkpt>
      <trkpt lat="42.093117" lon="2.894024">
        <ele>117.67047</ele>
        <time>2021-07-01T12:54:14Z</time>
      </trkpt>
      <trkpt lat="42.093075" lon="2.893993">
        <ele>119.16559</ele>
        <time>2021-07-01T12:54:15Z</time>
      </trkpt>
      <trkpt lat="42.092728" lon="2.893748">
        <ele>119.51196</ele>
        <time>2021-07-01T12:54:16Z</time>
      </trkpt>
      <trkpt lat="42.092316" lon="2.893464">
        <ele>119.88818</ele>
        <time>2021-07-01T12:54:17Z</time>
      </trkpt>
      <trkpt lat="42.092163" lon="2.893360">
        <ele>120.38739</ele>
        <time>2021-07-01T12:54:18Z</time>
      </trkpt>
      <trkpt lat="42.091644" lon="2.893004">
        <ele>120.58948</ele>
        <time>2021-07-01T12:54:19Z</time>
      </trkpt>
      <trkpt lat="42.091442" lon="2.892875">
        <ele>120.55396</ele>
        <time>2021-07-01T12:54:20Z</time>
      </trkpt>
      <trkpt lat="42.091442" lon="2.892875">
        <ele>121.20190</ele>
        <time>2021-07-01T12:54:21Z</time>
      </trkpt>
      <trkpt lat="42.091228" lon="2.892747">
        <ele>121.45831</ele>
        <time>2021-07-01T12:54:22Z</time>
      </trkpt>
      <trkpt lat="42.090851" lon="2.892521">
        <ele>122.25720</ele>
        <time>2021-07-01T12:54:24Z</time>
      </trkpt>
      <trkpt lat="42.090733" lon="2.892450">
        <ele>121.47424</ele>
        <time>2021-07-01T12:54:24Z</time>
      </trkpt>
      <trkpt lat="42.090240" lon="2.892168">
        <ele>121.54211</ele>
        <time>2021-07-01T12:54:25Z</time>
      </trkpt>
      <trkpt lat="42.089813" lon="2.891933">
        <ele>121.06354</ele>
        <time>2021-07-01T12:54:26Z</time>
      </trkpt>
      <trkpt lat="42.089542" lon="2.891793">
        <ele>120.95935</ele>
        <time>2021-07-01T12:54:27Z</time>
      </trkpt>
      <trkpt lat="42.089245" lon="2.891640">
        <ele>119.81555</ele>
        <time>2021-07-01T12:54:28Z</time>
      </trkpt>
      <trkpt lat="42.088943" lon="2.891486">
        <ele>118.36292</ele>
        <time>2021-07-01T12:54:29Z</time>
      </trkpt>
      <trkpt lat="42.088863" lon="2.891445">
        <ele>117.49811</ele>
        <time>2021-07-01T12:54:30Z</time>
      </trkpt>
      <trkpt lat="42.088535" lon="2.891296">
        <ele>116.33020</ele>
        <time>2021-07-01T12:54:31Z</time>
      </trkpt>
      <trkpt lat="42.088196" lon="2.891145">
        <ele>115.87109</ele>
        <time>2021-07-01T12:54:32Z</time>
      </trkpt>
      <trkpt lat="42.087769" lon="2.890961">
        <ele>115.79449</ele>
        <time>2021-07-01T12:54:34Z</time>
      </trkpt>
      <trkpt lat="42.087769" lon="2.890961">
        <ele>115.22430</ele>
        <time>2021-07-01T12:54:34Z</time>
      </trkpt>
      <trkpt lat="42.087341" lon="2.890783">
        <ele>115.06934</ele>
        <time>2021-07-01T12:54:35Z</time>
      </trkpt>
      <trkpt lat="42.086941" lon="2.890624">
        <ele>114.58850</ele>
        <time>2021-07-01T12:54:36Z</time>
      </trkpt>
      <trkpt lat="42.086655" lon="2.890521">
        <ele>114.57965</ele>
        <time>2021-07-01T12:54:37Z</time>
      </trkpt>
      <trkpt lat="42.086311" lon="2.890396">
        <ele>114.20337</ele>
        <time>2021-07-01T12:54:38Z</time>
      </trkpt>
      <trkpt lat="42.086288" lon="2.890388">
        <ele>113.59167</ele>
        <time>2021-07-01T12:54:39Z</time>
      </trkpt>
      <trkpt lat="42.085941" lon="2.890283">
        <ele>113.64044</ele>
        <time>2021-07-01T12:54:40Z</time>
      </trkpt>
      <trkpt lat="42.085686" lon="2.890208">
        <ele>112.42114</ele>
        <time>2021-07-01T12:54:41Z</time>
      </trkpt>
      <trkpt lat="42.085365" lon="2.890129">
        <ele>111.92126</ele>
        <time>2021-07-01T12:54:42Z</time>
      </trkpt>
      <trkpt lat="42.085033" lon="2.890050">
        <ele>111.22363</ele>
        <time>2021-07-01T12:54:44Z</time>
      </trkpt>
      <trkpt lat="42.084625" lon="2.889963">
        <ele>110.40240</ele>
        <time>2021-07-01T12:54:44Z</time>
      </trkpt>
      <trkpt lat="42.084080" lon="2.889872">
        <ele>110.33063</ele>
        <time>2021-07-01T12:54:45Z</time>
      </trkpt>
      <trkpt lat="42.083813" lon="2.889840">
        <ele>110.05377</ele>
        <time>2021-07-01T12:54:46Z</time>
      </trkpt>
      <trkpt lat="42.083813" lon="2.889840">
        <ele>109.29120</ele>
        <time>2021-07-01T12:54:47Z</time>
      </trkpt>
      <trkpt lat="42.083477" lon="2.889801">
        <ele>108.68445</ele>
        <time>2021-07-01T12:54:48Z</time>
      </trkpt>
      <trkpt lat="42.083172" lon="2.889785">
        <ele>109.35248</ele>
        <time>2021-07-01T12:54:49Z</time>
      </trkpt>
      <trkpt lat="42.083015" lon="2.889777">
        <ele>109.23071</ele>
        <time>2021-07-01T12:54:50Z</time>
      </trkpt>
      <trkpt lat="42.082783" lon="2.889766">
        <ele>108.65271</ele>
        <time>2021-07-01T12:54:51Z</time>
      </trkpt>
      <trkpt lat="42.082314" lon="2.889742">
        <ele>108.16669</ele>
        <time>2021-07-01T12:54:52Z</time>
      </trkpt>
      <trkpt lat="42.082119" lon="2.889732">
        <ele>107.82068</ele>
        <time>2021-07-01T12:54:54Z</time>
      </trkpt>
      <trkpt lat="42.081482" lon="2.889714">
        <ele>107.15930</ele>
        <time>2021-07-01T12:54:54Z</time>
      </trkpt>
      <trkpt lat="42.081196" lon="2.889707">
        <ele>106.95325</ele>
        <time>2021-07-01T12:54:55Z</time>
      </trkpt>
      <trkpt lat="42.081127" lon="2.889706">
        <ele>106.16821</ele>
        <time>2021-07-01T12:54:56Z</time>
      </trkpt>
      <trkpt lat="42.080528" lon="2.889690">
        <ele>105.36096</ele>
        <time>2021-07-01T12:54:57Z</time>
      </trkpt>
      <trkpt lat="42.080528" lon="2.889690">
        <ele>104.83240</ele>
        <time>2021-07-01T12:54:58Z</time>
      </trkpt>
      <trkpt lat="42.080376" lon="2.889683">
        <ele>104.68262</ele>
        <time>2021-07-01T12:54:59Z</time>
      </trkpt>
      <trkpt lat="42.080048" lon="2.889667">
        <ele>104.07489</ele>
        <time>2021-07-01T12:55:00Z</time>
      </trkpt>
      <trkpt lat="42.079647" lon="2.889630">
        <ele>103.45508</ele>
        <time>2021-07-01T12:55:01Z</time>
      </trkpt>
      <trkpt lat="42.079178" lon="2.889567">
        <ele>102.55603</ele>
        <time>2021-07-01T12:55:02Z</time>
      </trkpt>
      <trkpt lat="42.079041" lon="2.889547">
        <ele>101.74274</ele>
        <time>2021-07-01T12:55:04Z</time>
      </trkpt>
      <trkpt lat="42.078758" lon="2.889500">
        <ele>101.13916</ele>
        <time>2021-07-01T12:55:04Z</time>
      </trkpt>
      <trkpt lat="42.078232" lon="2.889388">
        <ele>101.21716</ele>
        <time>2021-07-01T12:55:05Z</time>
      </trkpt>
      <trkpt lat="42.078171" lon="2.889373">
        <ele>100.93726</ele>
        <time>2021-07-01T12:55:06Z</time>
      </trkpt>
      <trkpt lat="42.077808" lon="2.889288">
        <ele>100.26227</ele>
        <time>2021-07-01T12:55:07Z</time>
      </trkpt>
      <trkpt lat="42.077511" lon="2.889196">
        <ele>99.53656</ele>
        <time>2021-07-01T12:55:08Z</time>
      </trkpt>
      <trkpt lat="42.076977" lon="2.889012">
        <ele>99.40265</ele>
        <time>2021-07-01T12:55:09Z</time>
      </trkpt>
      <trkpt lat="42.076897" lon="2.888980">
        <ele>99.05066</ele>
        <time>2021-07-01T12:55:10Z</time>
      </trkpt>
      <trkpt lat="42.076492" lon="2.888819">
        <ele>98.92499</ele>
        <time>2021-07-01T12:55:11Z</time>
      </trkpt>
      <trkpt lat="42.076492" lon="2.888819">
        <ele>98.67139</ele>
        <time>2021-07-01T12:55:12Z</time>
      </trkpt>
      <trkpt lat="42.075943" lon="2.888579">
        <ele>96.51062</ele>
        <time>2021-07-01T12:55:14Z</time>
      </trkpt>
      <trkpt lat="42.075764" lon="2.888500">
        <ele>95.32806</ele>
        <time>2021-07-01T12:55:14Z</time>
      </trkpt>
      <trkpt lat="42.075287" lon="2.888281">
        <ele>95.04523</ele>
        <time>2021-07-01T12:55:15Z</time>
      </trkpt>
      <trkpt lat="42.075195" lon="2.888233">
        <ele>94.73987</ele>
        <time>2021-07-01T12:55:16Z</time>
      </trkpt>
      <trkpt lat="42.074959" lon="2.888112">
        <ele>94.74512</ele>
        <time>2021-07-01T12:55:17Z</time>
      </trkpt>
      <trkpt lat="42.074669" lon="2.887968">
        <ele>94.05328</ele>
        <time>2021-07-01T12:55:18Z</time>
      </trkpt>
      <trkpt lat="42.074390" lon="2.887844">
        <ele>92.57471</ele>
        <time>2021-07-01T12:55:19Z</time>
      </trkpt>
      <trkpt lat="42.073902" lon="2.887627">
        <ele>92.32629</ele>
        <time>2021-07-01T12:55:20Z</time>
      </trkpt>
      <trkpt lat="42.073540" lon="2.887468">
        <ele>92.55829</ele>
        <time>2021-07-01T12:55:21Z</time>
      </trkpt>
      <trkpt lat="42.073200" lon="2.887316">
        <ele>91.74579</ele>
        <time>2021-07-01T12:55:22Z</time>
      </trkpt>
      <trkpt lat="42.072952" lon="2.887226">
        <ele>91.16644</ele>
        <time>2021-07-01T12:55:23Z</time>
      </trkpt>
      <trkpt lat="42.072788" lon="2.887179">
        <ele>89.50604</ele>
        <time>2021-07-01T12:55:25Z</time>
      </trkpt>
      <trkpt lat="42.072220" lon="2.887020">
        <ele>87.87762</ele>
        <time>2021-07-01T12:55:25Z</time>
      </trkpt>
      <trkpt lat="42.072220" lon="2.887020">
        <ele>87.93372</ele>
        <time>2021-07-01T12:55:26Z</time>
      </trkpt>
      <trkpt lat="42.071930" lon="2.886944">
        <ele>86.41418</ele>
        <time>2021-07-01T12:55:27Z</time>
      </trkpt>
      <trkpt lat="42.071754" lon="2.886902">
        <ele>86.53345</ele>
        <time>2021-07-01T12:55:28Z</time>
      </trkpt>
      <trkpt lat="42.071590" lon="2.886865">
        <ele>85.52484</ele>
        <time>2021-07-01T12:55:29Z</time>
      </trkpt>
      <trkpt lat="42.071262" lon="2.886802">
        <ele>84.44250</ele>
        <time>2021-07-01T12:55:30Z</time>
      </trkpt>
      <trkpt lat="42.070793" lon="2.886723">
        <ele>84.05402</ele>
        <time>2021-07-01T12:55:31Z</time>
      </trkpt>
      <trkpt lat="42.070347" lon="2.886676">
        <ele>83.58716</ele>
        <time>2021-07-01T12:55:32Z</time>
      </trkpt>
      <trkpt lat="42.070030" lon="2.886656">
        <ele>82.72968</ele>
        <time>2021-07-01T12:55:34Z</time>
      </trkpt>
      <trkpt lat="42.069698" lon="2.886636">
        <ele>81.90674</ele>
        <time>2021-07-01T12:55:34Z</time>
      </trkpt>
      <trkpt lat="42.069382" lon="2.886618">
        <ele>82.18896</ele>
        <time>2021-07-01T12:55:35Z</time>
      </trkpt>
      <trkpt lat="42.069321" lon="2.886615">
        <ele>81.92072</ele>
        <time>2021-07-01T12:55:36Z</time>
      </trkpt>
      <trkpt lat="42.068779" lon="2.886586">
        <ele>81.65765</ele>
        <time>2021-07-01T12:55:37Z</time>
      </trkpt>
      <trkpt lat="42.068459" lon="2.886569">
        <ele>81.09436</ele>
        <time>2021-07-01T12:55:38Z</time>
      </trkpt>
      <trkpt lat="42.068428" lon="2.886568">
        <ele>80.45190</ele>
        <time>2021-07-01T12:55:39Z</time>
      </trkpt>
      <trkpt lat="42.068047" lon="2.886548">
        <ele>79.38593</ele>
        <time>2021-07-01T12:55:40Z</time>
      </trkpt>
      <trkpt lat="42.067764" lon="2.886533">
        <ele>78.64734</ele>
        <time>2021-07-01T12:55:41Z</time>
      </trkpt>
      <trkpt lat="42.067425" lon="2.886519">
        <ele>77.79718</ele>
        <time>2021-07-01T12:55:42Z</time>
      </trkpt>
      <trkpt lat="42.067085" lon="2.886504">
        <ele>76.77966</ele>
        <time>2021-07-01T12:55:43Z</time>
      </trkpt>
      <trkpt lat="42.067085" lon="2.886504">
        <ele>76.71600</ele>
        <time>2021-07-01T12:55:44Z</time>
      </trkpt>
      <trkpt lat="42.066486" lon="2.886446">
        <ele>76.28186</ele>
        <time>2021-07-01T12:55:45Z</time>
      </trkpt>
      <trkpt lat="42.066334" lon="2.886428">
        <ele>75.68829</ele>
        <time>2021-07-01T12:55:46Z</time>
      </trkpt>
      <trkpt lat="42.065987" lon="2.886382">
        <ele>74.87292</ele>
        <time>2021-07-01T12:55:47Z</time>
      </trkpt>
      <trkpt lat="42.065533" lon="2.886304">
        <ele>73.41003</ele>
        <time>2021-07-01T12:55:48Z</time>
      </trkpt>
      <trkpt lat="42.065228" lon="2.886245">
        <ele>72.79761</ele>
        <time>2021-07-01T12:55:49Z</time>
      </trkpt>
      <trkpt lat="42.064903" lon="2.886176">
        <ele>71.94818</ele>
        <time>2021-07-01T12:55:50Z</time>
      </trkpt>
      <trkpt lat="42.064571" lon="2.886106">
        <ele>70.82141</ele>
        <time>2021-07-01T12:55:51Z</time>
      </trkpt>
      <trkpt lat="42.064510" lon="2.886093">
        <ele>70.06207</ele>
        <time>2021-07-01T12:55:52Z</time>
      </trkpt>
      <trkpt lat="42.064152" lon="2.885999">
        <ele>69.41394</ele>
        <time>2021-07-01T12:55:54Z</time>
      </trkpt>
      <trkpt lat="42.063595" lon="2.885842">
        <ele>68.58990</ele>
        <time>2021-07-01T12:55:54Z</time>
      </trkpt>
      <trkpt lat="42.063240" lon="2.885728">
        <ele>67.70361</ele>
        <time>2021-07-01T12:55:55Z</time>
      </trkpt>
      <trkpt lat="42.062904" lon="2.885620">
        <ele>66.60846</ele>
        <time>2021-07-01T12:55:56Z</time>
      </trkpt>
      <trkpt lat="42.062717" lon="2.885552">
        <ele>64.60846</ele>
        <time>2021-07-01T12:55:57Z</time>
      </trkpt>
      <trkpt lat="42.062717" lon="2.885552">
        <ele>64.01074</ele>
        <time>2021-07-01T12:55:58Z</time>
      </trkpt>
      <trkpt lat="42.062534" lon="2.885481">
        <ele>64.57275</ele>
        <time>2021-07-01T12:56:00Z</time>
      </trkpt>
      <trkpt lat="42.062222" lon="2.885361">
        <ele>62.82507</ele>
        <time>2021-07-01T12:56:00Z</time>
      </trkpt>
      <trkpt lat="42.061806" lon="2.885195">
        <ele>61.10004</ele>
        <time>2021-07-01T12:56:01Z</time>
      </trkpt>
      <trkpt lat="42.061363" lon="2.885002">
        <ele>60.59082</ele>
        <time>2021-07-01T12:56:02Z</time>
      </trkpt>
      <trkpt lat="42.061047" lon="2.884850">
        <ele>60.81213</ele>
        <time>2021-07-01T12:56:03Z</time>
      </trkpt>
      <trkpt lat="42.060692" lon="2.884669">
        <ele>59.32886</ele>
        <time>2021-07-01T12:56:04Z</time>
      </trkpt>
      <trkpt lat="42.060413" lon="2.884526">
        <ele>58.86938</ele>
        <time>2021-07-01T12:56:05Z</time>
      </trkpt>
      <trkpt lat="42.060368" lon="2.884502">
        <ele>57.21863</ele>
        <time>2021-07-01T12:56:06Z</time>
      </trkpt>
      <trkpt lat="42.060013" lon="2.884303">
        <ele>55.91461</ele>
        <time>2021-07-01T12:56:07Z</time>
      </trkpt>
      <trkpt lat="42.059517" lon="2.884021">
        <ele>54.55621</ele>
        <time>2021-07-01T12:56:08Z</time>
      </trkpt>
      <trkpt lat="42.059177" lon="2.883803">
        <ele>53.90863</ele>
        <time>2021-07-01T12:56:09Z</time>
      </trkpt>
      <trkpt lat="42.058964" lon="2.883665">
        <ele>52.00201</ele>
        <time>2021-07-01T12:56:10Z</time>
      </trkpt>
      <trkpt lat="42.058636" lon="2.883452">
        <ele>51.95410</ele>
        <time>2021-07-01T12:56:12Z</time>
      </trkpt>
      <trkpt lat="42.058636" lon="2.883452">
        <ele>50.96143</ele>
        <time>2021-07-01T12:56:12Z</time>
      </trkpt>
      <trkpt lat="42.058289" lon="2.883212">
        <ele>50.71484</ele>
        <time>2021-07-01T12:56:14Z</time>
      </trkpt>
      <trkpt lat="42.058044" lon="2.883035">
        <ele>49.11877</ele>
        <time>2021-07-01T12:56:14Z</time>
      </trkpt>
      <trkpt lat="42.057915" lon="2.882943">
        <ele>47.85443</ele>
        <time>2021-07-01T12:56:15Z</time>
      </trkpt>
      <trkpt lat="42.057728" lon="2.882796">
        <ele>47.61761</ele>
        <time>2021-07-01T12:56:16Z</time>
      </trkpt>
      <trkpt lat="42.057304" lon="2.882458">
        <ele>46.50330</ele>
        <time>2021-07-01T12:56:17Z</time>
      </trkpt>
      <trkpt lat="42.057144" lon="2.882333">
        <ele>45.08606</ele>
        <time>2021-07-01T12:56:18Z</time>
      </trkpt>
      <trkpt lat="42.056587" lon="2.881857">
        <ele>43.88580</ele>
        <time>2021-07-01T12:56:19Z</time>
      </trkpt>
      <trkpt lat="42.056561" lon="2.881834">
        <ele>43.68506</ele>
        <time>2021-07-01T12:56:20Z</time>
      </trkpt>
      <trkpt lat="42.056080" lon="2.881394">
        <ele>43.03815</ele>
        <time>2021-07-01T12:56:21Z</time>
      </trkpt>
      <trkpt lat="42.055809" lon="2.881149">
        <ele>43.23053</ele>
        <time>2021-07-01T12:56:23Z</time>
      </trkpt>
      <trkpt lat="42.055561" lon="2.880928">
        <ele>43.19409</ele>
        <time>2021-07-01T12:56:23Z</time>
      </trkpt>
      <trkpt lat="42.055275" lon="2.880632">
        <ele>42.01941</ele>
        <time>2021-07-01T12:56:25Z</time>
      </trkpt>
      <trkpt lat="42.055275" lon="2.880632">
        <ele>41.50293</ele>
        <time>2021-07-01T12:56:25Z</time>
      </trkpt>
      <trkpt lat="42.055019" lon="2.880347">
        <ele>40.43878</ele>
        <time>2021-07-01T12:56:26Z</time>
      </trkpt>
      <trkpt lat="42.054737" lon="2.880045">
        <ele>39.48901</ele>
        <time>2021-07-01T12:56:27Z</time>
      </trkpt>
      <trkpt lat="42.054462" lon="2.879737">
        <ele>38.24054</ele>
        <time>2021-07-01T12:56:28Z</time>
      </trkpt>
      <trkpt lat="42.054390" lon="2.879654">
        <ele>38.30518</ele>
        <time>2021-07-01T12:56:29Z</time>
      </trkpt>
      <trkpt lat="42.053970" lon="2.879166">
        <ele>37.16077</ele>
        <time>2021-07-01T12:56:30Z</time>
      </trkpt>
      <trkpt lat="42.053921" lon="2.879105">
        <ele>36.95050</ele>
        <time>2021-07-01T12:56:31Z</time>
      </trkpt>
      <trkpt lat="42.053440" lon="2.878531">
        <ele>36.87341</ele>
        <time>2021-07-01T12:56:32Z</time>
      </trkpt>
      <trkpt lat="42.053242" lon="2.878293">
        <ele>36.74341</ele>
        <time>2021-07-01T12:56:33Z</time>
      </trkpt>
      <trkpt lat="42.053074" lon="2.878088">
        <ele>36.62329</ele>
        <time>2021-07-01T12:56:34Z</time>
      </trkpt>
      <trkpt lat="42.053074" lon="2.878088">
        <ele>37.66656</ele>
        <time>2021-07-01T12:56:35Z</time>
      </trkpt>
      <trkpt lat="42.052773" lon="2.877719">
        <ele>37.91895</ele>
        <time>2021-07-01T12:56:36Z</time>
      </trkpt>
      <trkpt lat="42.052536" lon="2.877422">
        <ele>37.97131</ele>
        <time>2021-07-01T12:56:37Z</time>
      </trkpt>
      <trkpt lat="42.052216" lon="2.877019">
        <ele>37.95154</ele>
        <time>2021-07-01T12:56:39Z</time>
      </trkpt>
      <trkpt lat="42.052116" lon="2.876890">
        <ele>37.96301</ele>
        <time>2021-07-01T12:56:40Z</time>
      </trkpt>
      <trkpt lat="42.051765" lon="2.876421">
        <ele>38.22827</ele>
        <time>2021-07-01T12:56:40Z</time>
      </trkpt>
      <trkpt lat="42.051510" lon="2.876074">
        <ele>38.62720</ele>
        <time>2021-07-01T12:56:41Z</time>
      </trkpt>
      <trkpt lat="42.051476" lon="2.876029">
        <ele>38.88300</ele>
        <time>2021-07-01T12:56:42Z</time>
      </trkpt>
      <trkpt lat="42.051052" lon="2.875455">
        <ele>39.29694</ele>
        <time>2021-07-01T12:56:44Z</time>
      </trkpt>
      <trkpt lat="42.051006" lon="2.875389">
        <ele>39.71832</ele>
        <time>2021-07-01T12:56:44Z</time>
      </trkpt>
      <trkpt lat="42.050602" lon="2.874840">
        <ele>39.92126</ele>
        <time>2021-07-01T12:56:45Z</time>
      </trkpt>
      <trkpt lat="42.050583" lon="2.874808">
        <ele>40.21039</ele>
        <time>2021-07-01T12:56:46Z</time>
      </trkpt>
      <trkpt lat="42.050144" lon="2.874188">
        <ele>40.25610</ele>
        <time>2021-07-01T12:56:47Z</time>
      </trkpt>
      <trkpt lat="42.049946" lon="2.873906">
        <ele>40.83649</ele>
        <time>2021-07-01T12:56:49Z</time>
      </trkpt>
      <trkpt lat="42.049732" lon="2.873603">
        <ele>41.36774</ele>
        <time>2021-07-01T12:56:49Z</time>
      </trkpt>
      <trkpt lat="42.049500" lon="2.873261">
        <ele>41.97070</ele>
        <time>2021-07-01T12:56:51Z</time>
      </trkpt>
      <trkpt lat="42.049500" lon="2.873261">
        <ele>41.88641</ele>
        <time>2021-07-01T12:56:51Z</time>
      </trkpt>
      <trkpt lat="42.049267" lon="2.872925">
        <ele>42.42792</ele>
        <time>2021-07-01T12:56:52Z</time>
      </trkpt>
      <trkpt lat="42.049053" lon="2.872609">
        <ele>42.70557</ele>
        <time>2021-07-01T12:56:53Z</time>
      </trkpt>
      <trkpt lat="42.048840" lon="2.872283">
        <ele>42.62469</ele>
        <time>2021-07-01T12:56:54Z</time>
      </trkpt>
      <trkpt lat="42.048626" lon="2.871956">
        <ele>42.76440</ele>
        <time>2021-07-01T12:56:55Z</time>
      </trkpt>
      <trkpt lat="42.048420" lon="2.871642">
        <ele>42.86432</ele>
        <time>2021-07-01T12:56:57Z</time>
      </trkpt>
      <trkpt lat="42.048359" lon="2.871548">
        <ele>43.94421</ele>
        <time>2021-07-01T12:56:57Z</time>
      </trkpt>
      <trkpt lat="42.047985" lon="2.870965">
        <ele>44.18823</ele>
        <time>2021-07-01T12:56:58Z</time>
      </trkpt>
      <trkpt lat="42.047798" lon="2.870663">
        <ele>43.97919</ele>
        <time>2021-07-01T12:57:00Z</time>
      </trkpt>
      <trkpt lat="42.047775" lon="2.870627">
        <ele>44.43933</ele>
        <time>2021-07-01T12:57:00Z</time>
      </trkpt>
      <trkpt lat="42.047371" lon="2.869980">
        <ele>43.89594</ele>
        <time>2021-07-01T12:57:01Z</time>
      </trkpt>
      <trkpt lat="42.047188" lon="2.869684">
        <ele>44.63306</ele>
        <time>2021-07-01T12:57:02Z</time>
      </trkpt>
      <trkpt lat="42.046997" lon="2.869381">
        <ele>44.91077</ele>
        <time>2021-07-01T12:57:04Z</time>
      </trkpt>
      <trkpt lat="42.046909" lon="2.869236">
        <ele>44.93201</ele>
        <time>2021-07-01T12:57:05Z</time>
      </trkpt>
      <trkpt lat="42.046543" lon="2.868609">
        <ele>44.95801</ele>
        <time>2021-07-01T12:57:05Z</time>
      </trkpt>
      <trkpt lat="42.046432" lon="2.868418">
        <ele>44.21704</ele>
        <time>2021-07-01T12:57:06Z</time>
      </trkpt>
      <trkpt lat="42.046432" lon="2.868418">
        <ele>44.03589</ele>
        <time>2021-07-01T12:57:07Z</time>
      </trkpt>
      <trkpt lat="42.046173" lon="2.867924">
        <ele>43.88007</ele>
        <time>2021-07-01T12:57:08Z</time>
      </trkpt>
      <trkpt lat="42.045967" lon="2.867532">
        <ele>43.87549</ele>
        <time>2021-07-01T12:57:09Z</time>
      </trkpt>
      <trkpt lat="42.045906" lon="2.867414">
        <ele>44.61743</ele>
        <time>2021-07-01T12:57:10Z</time>
      </trkpt>
      <trkpt lat="42.045715" lon="2.867027">
        <ele>44.19910</ele>
        <time>2021-07-01T12:57:11Z</time>
      </trkpt>
      <trkpt lat="42.045460" lon="2.866468">
        <ele>44.28015</ele>
        <time>2021-07-01T12:57:12Z</time>
      </trkpt>
      <trkpt lat="42.045296" lon="2.866081">
        <ele>44.80475</ele>
        <time>2021-07-01T12:57:14Z</time>
      </trkpt>
      <trkpt lat="42.045277" lon="2.866036">
        <ele>45.52759</ele>
        <time>2021-07-01T12:57:14Z</time>
      </trkpt>
      <trkpt lat="42.044975" lon="2.865262">
        <ele>45.86743</ele>
        <time>2021-07-01T12:57:15Z</time>
      </trkpt>
      <trkpt lat="42.044930" lon="2.865144">
        <ele>45.75439</ele>
        <time>2021-07-01T12:57:16Z</time>
      </trkpt>
      <trkpt lat="42.044674" lon="2.864435">
        <ele>46.00867</ele>
        <time>2021-07-01T12:57:17Z</time>
      </trkpt>
      <trkpt lat="42.044590" lon="2.864193">
        <ele>46.62598</ele>
        <time>2021-07-01T12:57:19Z</time>
      </trkpt>
      <trkpt lat="42.044590" lon="2.864193">
        <ele>47.25702</ele>
        <time>2021-07-01T12:57:19Z</time>
      </trkpt>
      <trkpt lat="42.044483" lon="2.863836">
        <ele>47.17566</ele>
        <time>2021-07-01T12:57:20Z</time>
      </trkpt>
      <trkpt lat="42.044346" lon="2.863380">
        <ele>47.13599</ele>
        <time>2021-07-01T12:57:21Z</time>
      </trkpt>
      <trkpt lat="42.044224" lon="2.862895">
        <ele>47.03473</ele>
        <time>2021-07-01T12:57:22Z</time>
      </trkpt>
      <trkpt lat="42.044109" lon="2.862420">
        <ele>47.68372</ele>
        <time>2021-07-01T12:57:24Z</time>
      </trkpt>
      <trkpt lat="42.044071" lon="2.862252">
        <ele>47.90033</ele>
        <time>2021-07-01T12:57:24Z</time>
      </trkpt>
      <trkpt lat="42.043926" lon="2.861524">
        <ele>48.68469</ele>
        <time>2021-07-01T12:57:25Z</time>
      </trkpt>
      <trkpt lat="42.043850" lon="2.861091">
        <ele>49.40228</ele>
        <time>2021-07-01T12:57:26Z</time>
      </trkpt>
      <trkpt lat="42.043793" lon="2.860739">
        <ele>49.63885</ele>
        <time>2021-07-01T12:57:27Z</time>
      </trkpt>
      <trkpt lat="42.043739" lon="2.860330">
        <ele>50.33337</ele>
        <time>2021-07-01T12:57:29Z</time>
      </trkpt>
      <trkpt lat="42.043732" lon="2.860278">
        <ele>50.54553</ele>
        <time>2021-07-01T12:57:29Z</time>
      </trkpt>
      <trkpt lat="42.043663" lon="2.859758">
        <ele>51.64984</ele>
        <time>2021-07-01T12:57:30Z</time>
      </trkpt>
      <trkpt lat="42.043613" lon="2.859370">
        <ele>52.34503</ele>
        <time>2021-07-01T12:57:31Z</time>
      </trkpt>
      <trkpt lat="42.043568" lon="2.858558">
        <ele>52.81665</ele>
        <time>2021-07-01T12:57:32Z</time>
      </trkpt>
      <trkpt lat="42.043545" lon="2.858115">
        <ele>53.31293</ele>
        <time>2021-07-01T12:57:34Z</time>
      </trkpt>
      <trkpt lat="42.043545" lon="2.858115">
        <ele>53.69128</ele>
        <time>2021-07-01T12:57:34Z</time>
      </trkpt>
      <trkpt lat="42.043526" lon="2.857671">
        <ele>54.48187</ele>
        <time>2021-07-01T12:57:35Z</time>
      </trkpt>
      <trkpt lat="42.043507" lon="2.857199">
        <ele>54.92981</ele>
        <time>2021-07-01T12:57:36Z</time>
      </trkpt>
      <trkpt lat="42.043510" lon="2.856769">
        <ele>55.99048</ele>
        <time>2021-07-01T12:57:37Z</time>
      </trkpt>
      <trkpt lat="42.043510" lon="2.856355">
        <ele>57.35974</ele>
        <time>2021-07-01T12:57:39Z</time>
      </trkpt>
      <trkpt lat="42.043510" lon="2.856212">
        <ele>58.09869</ele>
        <time>2021-07-01T12:57:39Z</time>
      </trkpt>
      <trkpt lat="42.043514" lon="2.855479">
        <ele>58.14447</ele>
        <time>2021-07-01T12:57:40Z</time>
      </trkpt>
      <trkpt lat="42.043514" lon="2.855354">
        <ele>59.40802</ele>
        <time>2021-07-01T12:57:41Z</time>
      </trkpt>
      <trkpt lat="42.043533" lon="2.854560">
        <ele>60.50525</ele>
        <time>2021-07-01T12:57:42Z</time>
      </trkpt>
      <trkpt lat="42.043549" lon="2.854160">
        <ele>61.68274</ele>
        <time>2021-07-01T12:57:44Z</time>
      </trkpt>
      <trkpt lat="42.043549" lon="2.854107">
        <ele>62.65955</ele>
        <time>2021-07-01T12:57:44Z</time>
      </trkpt>
      <trkpt lat="42.043579" lon="2.853225">
        <ele>63.56311</ele>
        <time>2021-07-01T12:57:45Z</time>
      </trkpt>
      <trkpt lat="42.043594" lon="2.852982">
        <ele>65.01166</ele>
        <time>2021-07-01T12:57:46Z</time>
      </trkpt>
      <trkpt lat="42.043594" lon="2.852937">
        <ele>65.92194</ele>
        <time>2021-07-01T12:57:47Z</time>
      </trkpt>
      <trkpt lat="42.043621" lon="2.852402">
        <ele>66.69421</ele>
        <time>2021-07-01T12:57:49Z</time>
      </trkpt>
      <trkpt lat="42.043621" lon="2.852402">
        <ele>67.69360</ele>
        <time>2021-07-01T12:57:49Z</time>
      </trkpt>
      <trkpt lat="42.043652" lon="2.851839">
        <ele>69.36902</ele>
        <time>2021-07-01T12:57:50Z</time>
      </trkpt>
      <trkpt lat="42.043674" lon="2.851364">
        <ele>70.55463</ele>
        <time>2021-07-01T12:57:51Z</time>
      </trkpt>
      <trkpt lat="42.043705" lon="2.850707">
        <ele>72.04407</ele>
        <time>2021-07-01T12:57:52Z</time>
      </trkpt>
      <trkpt lat="42.043716" lon="2.850475">
        <ele>73.62317</ele>
        <time>2021-07-01T12:57:54Z</time>
      </trkpt>
      <trkpt lat="42.043736" lon="2.850092">
        <ele>75.66101</ele>
        <time>2021-07-01T12:57:54Z</time>
      </trkpt>
      <trkpt lat="42.043747" lon="2.849315">
        <ele>77.39606</ele>
        <time>2021-07-01T12:57:55Z</time>
      </trkpt>
      <trkpt lat="42.043747" lon="2.849190">
        <ele>78.17114</ele>
        <time>2021-07-01T12:57:56Z</time>
      </trkpt>
      <trkpt lat="42.043739" lon="2.848480">
        <ele>79.07300</ele>
        <time>2021-07-01T12:57:57Z</time>
      </trkpt>
      <trkpt lat="42.043732" lon="2.848368">
        <ele>80.36694</ele>
        <time>2021-07-01T12:57:59Z</time>
      </trkpt>
      <trkpt lat="42.043701" lon="2.847808">
        <ele>81.90320</ele>
        <time>2021-07-01T12:58:00Z</time>
      </trkpt>
      <trkpt lat="42.043701" lon="2.847808">
        <ele>83.16290</ele>
        <time>2021-07-01T12:58:00Z</time>
      </trkpt>
      <trkpt lat="42.043636" lon="2.847117">
        <ele>84.77625</ele>
        <time>2021-07-01T12:58:01Z</time>
      </trkpt>
      <trkpt lat="42.043575" lon="2.846657">
        <ele>86.25024</ele>
        <time>2021-07-01T12:58:03Z</time>
      </trkpt>
      <trkpt lat="42.043549" lon="2.846509">
        <ele>87.62299</ele>
        <time>2021-07-01T12:58:04Z</time>
      </trkpt>
      <trkpt lat="42.043400" lon="2.845683">
        <ele>88.60565</ele>
        <time>2021-07-01T12:58:04Z</time>
      </trkpt>
      <trkpt lat="42.043331" lon="2.845332">
        <ele>89.66071</ele>
        <time>2021-07-01T12:58:05Z</time>
      </trkpt>
      <trkpt lat="42.043324" lon="2.845290">
        <ele>90.81055</ele>
        <time>2021-07-01T12:58:06Z</time>
      </trkpt>
      <trkpt lat="42.043106" lon="2.844554">
        <ele>92.22168</ele>
        <time>2021-07-01T12:58:07Z</time>
      </trkpt>
      <trkpt lat="42.043079" lon="2.844480">
        <ele>93.01324</ele>
        <time>2021-07-01T12:58:09Z</time>
      </trkpt>
      <trkpt lat="42.042938" lon="2.844091">
        <ele>93.86328</ele>
        <time>2021-07-01T12:58:09Z</time>
      </trkpt>
      <trkpt lat="42.042645" lon="2.843374">
        <ele>94.68628</ele>
        <time>2021-07-01T12:58:10Z</time>
      </trkpt>
      <trkpt lat="42.042645" lon="2.843374">
        <ele>95.16382</ele>
        <time>2021-07-01T12:58:11Z</time>
      </trkpt>
      <trkpt lat="42.042461" lon="2.842997">
        <ele>96.38019</ele>
        <time>2021-07-01T12:58:12Z</time>
      </trkpt>
      <trkpt lat="42.042297" lon="2.842678">
        <ele>96.54468</ele>
        <time>2021-07-01T12:58:14Z</time>
      </trkpt>
      <trkpt lat="42.042168" lon="2.842464">
        <ele>97.58447</ele>
        <time>2021-07-01T12:58:14Z</time>
      </trkpt>
      <trkpt lat="42.041901" lon="2.842022">
        <ele>98.47144</ele>
        <time>2021-07-01T12:58:15Z</time>
      </trkpt>
      <trkpt lat="42.041740" lon="2.841808">
        <ele>99.31567</ele>
        <time>2021-07-01T12:58:17Z</time>
      </trkpt>
      <trkpt lat="42.041397" lon="2.841350">
        <ele>99.84613</ele>
        <time>2021-07-01T12:58:17Z</time>
      </trkpt>
      <trkpt lat="42.041328" lon="2.841269">
        <ele>101.26465</ele>
        <time>2021-07-01T12:58:19Z</time>
      </trkpt>
      <trkpt lat="42.041073" lon="2.840961">
        <ele>101.45172</ele>
        <time>2021-07-01T12:58:19Z</time>
      </trkpt>
      <trkpt lat="42.040661" lon="2.840548">
        <ele>101.88593</ele>
        <time>2021-07-01T12:58:20Z</time>
      </trkpt>
      <trkpt lat="42.040604" lon="2.840494">
        <ele>102.19641</ele>
        <time>2021-07-01T12:58:21Z</time>
      </trkpt>
      <trkpt lat="42.040096" lon="2.840057">
        <ele>102.57001</ele>
        <time>2021-07-01T12:58:23Z</time>
      </trkpt>
      <trkpt lat="42.040054" lon="2.840025">
        <ele>102.96667</ele>
        <time>2021-07-01T12:58:24Z</time>
      </trkpt>
      <trkpt lat="42.039719" lon="2.839782">
        <ele>102.73346</ele>
        <time>2021-07-01T12:58:25Z</time>
      </trkpt>
      <trkpt lat="42.039230" lon="2.839466">
        <ele>101.96027</ele>
        <time>2021-07-01T12:58:25Z</time>
      </trkpt>
      <trkpt lat="42.039230" lon="2.839466">
        <ele>102.20923</ele>
        <time>2021-07-01T12:58:26Z</time>
      </trkpt>
      <trkpt lat="42.038895" lon="2.839262">
        <ele>102.23840</ele>
        <time>2021-07-01T12:58:27Z</time>
      </trkpt>
      <trkpt lat="42.038761" lon="2.839186">
        <ele>101.45142</ele>
        <time>2021-07-01T12:58:28Z</time>
      </trkpt>
      <trkpt lat="42.038567" lon="2.839074">
        <ele>101.13147</ele>
        <time>2021-07-01T12:58:29Z</time>
      </trkpt>
      <trkpt lat="42.038143" lon="2.838830">
        <ele>100.19629</ele>
        <time>2021-07-01T12:58:30Z</time>
      </trkpt>
      <trkpt lat="42.037712" lon="2.838579">
        <ele>100.20728</ele>
        <time>2021-07-01T12:58:31Z</time>
      </trkpt>
      <trkpt lat="42.037411" lon="2.838399">
        <ele>99.20099</ele>
        <time>2021-07-01T12:58:32Z</time>
      </trkpt>
      <trkpt lat="42.037121" lon="2.838219">
        <ele>98.73523</ele>
        <time>2021-07-01T12:58:34Z</time>
      </trkpt>
      <trkpt lat="42.037064" lon="2.838184">
        <ele>98.08313</ele>
        <time>2021-07-01T12:58:34Z</time>
      </trkpt>
      <trkpt lat="42.036697" lon="2.837944">
        <ele>98.51489</ele>
        <time>2021-07-01T12:58:35Z</time>
      </trkpt>
      <trkpt lat="42.036224" lon="2.837596">
        <ele>98.01843</ele>
        <time>2021-07-01T12:58:36Z</time>
      </trkpt>
      <trkpt lat="42.036175" lon="2.837558">
        <ele>97.54504</ele>
        <time>2021-07-01T12:58:37Z</time>
      </trkpt>
      <trkpt lat="42.035591" lon="2.837092">
        <ele>97.36218</ele>
        <time>2021-07-01T12:58:39Z</time>
      </trkpt>
      <trkpt lat="42.035381" lon="2.836921">
        <ele>96.35193</ele>
        <time>2021-07-01T12:58:39Z</time>
      </trkpt>
      <trkpt lat="42.035381" lon="2.836921">
        <ele>96.10175</ele>
        <time>2021-07-01T12:58:40Z</time>
      </trkpt>
      <trkpt lat="42.035191" lon="2.836763">
        <ele>95.35992</ele>
        <time>2021-07-01T12:58:41Z</time>
      </trkpt>
      <trkpt lat="42.034985" lon="2.836581">
        <ele>94.21863</ele>
        <time>2021-07-01T12:58:42Z</time>
      </trkpt>
      <trkpt lat="42.034534" lon="2.836187">
        <ele>93.82477</ele>
        <time>2021-07-01T12:58:44Z</time>
      </trkpt>
      <trkpt lat="42.034431" lon="2.836086">
        <ele>92.93695</ele>
        <time>2021-07-01T12:58:44Z</time>
      </trkpt>
      <trkpt lat="42.034004" lon="2.835656">
        <ele>91.69073</ele>
        <time>2021-07-01T12:58:45Z</time>
      </trkpt>
      <trkpt lat="42.033749" lon="2.835393">
        <ele>91.38324</ele>
        <time>2021-07-01T12:58:46Z</time>
      </trkpt>
      <trkpt lat="42.033520" lon="2.835129">
        <ele>90.47656</ele>
        <time>2021-07-01T12:58:47Z</time>
      </trkpt>
      <trkpt lat="42.033489" lon="2.835093">
        <ele>89.02155</ele>
        <time>2021-07-01T12:58:48Z</time>
      </trkpt>
      <trkpt lat="42.033047" lon="2.834585">
        <ele>87.94623</ele>
        <time>2021-07-01T12:58:49Z</time>
      </trkpt>
      <trkpt lat="42.032803" lon="2.834249">
        <ele>88.08032</ele>
        <time>2021-07-01T12:58:50Z</time>
      </trkpt>
      <trkpt lat="42.032597" lon="2.833962">
        <ele>87.03467</ele>
        <time>2021-07-01T12:58:51Z</time>
      </trkpt>
      <trkpt lat="42.032398" lon="2.833682">
        <ele>86.42719</ele>
        <time>2021-07-01T12:58:52Z</time>
      </trkpt>
      <trkpt lat="42.032345" lon="2.833608">
        <ele>84.62628</ele>
        <time>2021-07-01T12:58:54Z</time>
      </trkpt>
      <trkpt lat="42.031876" lon="2.832954">
        <ele>83.77374</ele>
        <time>2021-07-01T12:58:54Z</time>
      </trkpt>
      <trkpt lat="42.031715" lon="2.832716">
        <ele>83.24237</ele>
        <time>2021-07-01T12:58:55Z</time>
      </trkpt>
      <trkpt lat="42.031513" lon="2.832410">
        <ele>82.74194</ele>
        <time>2021-07-01T12:58:56Z</time>
      </trkpt>
      <trkpt lat="42.031387" lon="2.832227">
        <ele>82.29297</ele>
        <time>2021-07-01T12:58:57Z</time>
      </trkpt>
      <trkpt lat="42.031387" lon="2.832227">
        <ele>80.22992</ele>
        <time>2021-07-01T12:58:58Z</time>
      </trkpt>
      <trkpt lat="42.031235" lon="2.831983">
        <ele>79.62817</ele>
        <time>2021-07-01T12:58:59Z</time>
      </trkpt>
      <trkpt lat="42.030983" lon="2.831579">
        <ele>78.78839</ele>
        <time>2021-07-01T12:59:00Z</time>
      </trkpt>
      <trkpt lat="42.030895" lon="2.831428">
        <ele>77.49182</ele>
        <time>2021-07-01T12:59:01Z</time>
      </trkpt>
      <trkpt lat="42.030800" lon="2.831132">
        <ele>76.49719</ele>
        <time>2021-07-01T12:59:02Z</time>
      </trkpt>
      <trkpt lat="42.030548" lon="2.830817">
        <ele>75.87238</ele>
        <time>2021-07-01T12:59:03Z</time>
      </trkpt>
      <trkpt lat="42.030384" lon="2.830516">
        <ele>74.54932</ele>
        <time>2021-07-01T12:59:04Z</time>
      </trkpt>
      <trkpt lat="42.030163" lon="2.830081">
        <ele>73.97510</ele>
        <time>2021-07-01T12:59:05Z</time>
      </trkpt>
      <trkpt lat="42.030067" lon="2.829897">
        <ele>72.97894</ele>
        <time>2021-07-01T12:59:06Z</time>
      </trkpt>
      <trkpt lat="42.029835" lon="2.829408">
        <ele>72.48981</ele>
        <time>2021-07-01T12:59:07Z</time>
      </trkpt>
      <trkpt lat="42.029724" lon="2.829169">
        <ele>72.05005</ele>
        <time>2021-07-01T12:59:08Z</time>
      </trkpt>
      <trkpt lat="42.029564" lon="2.828812">
        <ele>71.20569</ele>
        <time>2021-07-01T12:59:09Z</time>
      </trkpt>
      <trkpt lat="42.029308" lon="2.828219">
        <ele>70.28210</ele>
        <time>2021-07-01T12:59:10Z</time>
      </trkpt>
      <trkpt lat="42.029274" lon="2.828142">
        <ele>69.66779</ele>
        <time>2021-07-01T12:59:11Z</time>
      </trkpt>
      <trkpt lat="42.028969" lon="2.827430">
        <ele>68.68127</ele>
        <time>2021-07-01T12:59:12Z</time>
      </trkpt>
      <trkpt lat="42.028854" lon="2.827172">
        <ele>67.26953</ele>
        <time>2021-07-01T12:59:13Z</time>
      </trkpt>
      <trkpt lat="42.028854" lon="2.827172">
        <ele>66.81122</ele>
        <time>2021-07-01T12:59:14Z</time>
      </trkpt>
      <trkpt lat="42.028606" lon="2.826619">
        <ele>66.31293</ele>
        <time>2021-07-01T12:59:16Z</time>
      </trkpt>
      <trkpt lat="42.028461" lon="2.826301">
        <ele>65.15527</ele>
        <time>2021-07-01T12:59:16Z</time>
      </trkpt>
      <trkpt lat="42.028278" lon="2.825887">
        <ele>64.61902</ele>
        <time>2021-07-01T12:59:17Z</time>
      </trkpt>
      <trkpt lat="42.028244" lon="2.825813">
        <ele>64.71332</ele>
        <time>2021-07-01T12:59:19Z</time>
      </trkpt>
      <trkpt lat="42.027897" lon="2.825034">
        <ele>63.94598</ele>
        <time>2021-07-01T12:59:19Z</time>
      </trkpt>
      <trkpt lat="42.027874" lon="2.824985">
        <ele>64.22412</ele>
        <time>2021-07-01T12:59:20Z</time>
      </trkpt>
      <trkpt lat="42.027699" lon="2.824602">
        <ele>63.55121</ele>
        <time>2021-07-01T12:59:21Z</time>
      </trkpt>
      <trkpt lat="42.027550" lon="2.824279">
        <ele>63.21661</ele>
        <time>2021-07-01T12:59:22Z</time>
      </trkpt>
      <trkpt lat="42.027328" lon="2.823825">
        <ele>62.89484</ele>
        <time>2021-07-01T12:59:24Z</time>
      </trkpt>
      <trkpt lat="42.027328" lon="2.823825">
        <ele>62.75549</ele>
        <time>2021-07-01T12:59:24Z</time>
      </trkpt>
      <trkpt lat="42.027119" lon="2.823400">
        <ele>62.75549</ele>
        <time>2021-07-01T12:59:25Z</time>
      </trkpt>
      <trkpt lat="42.027016" lon="2.823191">
        <ele>62.75549</ele>
        <time>2021-07-01T12:59:26Z</time>
      </trkpt>
      <trkpt lat="42.026920" lon="2.823005">
        <ele>62.75549</ele>
        <time>2021-07-01T12:59:27Z</time>
      </trkpt>
      <trkpt lat="42.026920" lon="2.823005">
        <ele>62.75549</ele>
        <time>2021-07-01T12:59:29Z</time>
      </trkpt>
      <trkpt lat="42.026920" lon="2.823005">
        <ele>62.65295</ele>
        <time>2021-07-01T12:59:29Z</time>
      </trkpt>
      <trkpt lat="42.026920" lon="2.823005">
        <ele>62.87805</ele>
        <time>2021-07-01T12:59:30Z</time>
      </trkpt>
      <trkpt lat="42.026348" lon="2.821971">
        <ele>63.16559</ele>
        <time>2021-07-01T12:59:31Z</time>
      </trkpt>
      <trkpt lat="42.025921" lon="2.821282">
        <ele>64.74652</ele>
        <time>2021-07-01T12:59:32Z</time>
      </trkpt>
      <trkpt lat="42.025440" lon="2.820564">
        <ele>65.16144</ele>
        <time>2021-07-01T12:59:33Z</time>
      </trkpt>
      <trkpt lat="42.025162" lon="2.820189">
        <ele>66.04736</ele>
        <time>2021-07-01T12:59:34Z</time>
      </trkpt>
      <trkpt lat="42.024906" lon="2.819862">
        <ele>67.36597</ele>
        <time>2021-07-01T12:59:35Z</time>
      </trkpt>
      <trkpt lat="42.024689" lon="2.819581">
        <ele>68.18781</ele>
        <time>2021-07-01T12:59:36Z</time>
      </trkpt>
      <trkpt lat="42.024689" lon="2.819581">
        <ele>67.97766</ele>
        <time>2021-07-01T12:59:37Z</time>
      </trkpt>
      <trkpt lat="42.024452" lon="2.819295">
        <ele>68.16663</ele>
        <time>2021-07-01T12:59:38Z</time>
      </trkpt>
      <trkpt lat="42.024178" lon="2.818981">
        <ele>67.97125</ele>
        <time>2021-07-01T12:59:39Z</time>
      </trkpt>
      <trkpt lat="42.023937" lon="2.818717">
        <ele>68.51355</ele>
        <time>2021-07-01T12:59:40Z</time>
      </trkpt>
      <trkpt lat="42.023666" lon="2.818426">
        <ele>68.53638</ele>
        <time>2021-07-01T12:59:41Z</time>
      </trkpt>
      <trkpt lat="42.023396" lon="2.818155">
        <ele>68.81305</ele>
        <time>2021-07-01T12:59:42Z</time>
      </trkpt>
      <trkpt lat="42.023148" lon="2.817921">
        <ele>69.79803</ele>
        <time>2021-07-01T12:59:43Z</time>
      </trkpt>
      <trkpt lat="42.022861" lon="2.817650">
        <ele>69.61316</ele>
        <time>2021-07-01T12:59:44Z</time>
      </trkpt>
      <trkpt lat="42.022606" lon="2.817423">
        <ele>69.81433</ele>
        <time>2021-07-01T12:59:45Z</time>
      </trkpt>
      <trkpt lat="42.022556" lon="2.817384">
        <ele>69.92371</ele>
        <time>2021-07-01T12:59:46Z</time>
      </trkpt>
      <trkpt lat="42.022007" lon="2.816932">
        <ele>70.68024</ele>
        <time>2021-07-01T12:59:47Z</time>
      </trkpt>
      <trkpt lat="42.021755" lon="2.816738">
        <ele>71.35028</ele>
        <time>2021-07-01T12:59:48Z</time>
      </trkpt>
      <trkpt lat="42.021568" lon="2.816591">
        <ele>72.04486</ele>
        <time>2021-07-01T12:59:49Z</time>
      </trkpt>
      <trkpt lat="42.021358" lon="2.816430">
        <ele>73.30408</ele>
        <time>2021-07-01T12:59:50Z</time>
      </trkpt>
      <trkpt lat="42.021358" lon="2.816430">
        <ele>72.94745</ele>
        <time>2021-07-01T12:59:51Z</time>
      </trkpt>
      <trkpt lat="42.020866" lon="2.816113">
        <ele>73.72559</ele>
        <time>2021-07-01T12:59:52Z</time>
      </trkpt>
      <trkpt lat="42.020596" lon="2.815954">
        <ele>74.05286</ele>
        <time>2021-07-01T12:59:53Z</time>
      </trkpt>
      <trkpt lat="42.020302" lon="2.815785">
        <ele>74.39185</ele>
        <time>2021-07-01T12:59:54Z</time>
      </trkpt>
      <trkpt lat="42.020023" lon="2.815623">
        <ele>74.53253</ele>
        <time>2021-07-01T12:59:55Z</time>
      </trkpt>
      <trkpt lat="42.019714" lon="2.815449">
        <ele>74.94836</ele>
        <time>2021-07-01T12:59:56Z</time>
      </trkpt>
      <trkpt lat="42.019436" lon="2.815306">
        <ele>75.19446</ele>
        <time>2021-07-01T12:59:57Z</time>
      </trkpt>
      <trkpt lat="42.019138" lon="2.815151">
        <ele>75.21161</ele>
        <time>2021-07-01T12:59:58Z</time>
      </trkpt>
      <trkpt lat="42.018837" lon="2.815006">
        <ele>75.96088</ele>
        <time>2021-07-01T12:59:59Z</time>
      </trkpt>
      <trkpt lat="42.018543" lon="2.814868">
        <ele>75.94171</ele>
        <time>2021-07-01T13:00:00Z</time>
      </trkpt>
      <trkpt lat="42.018234" lon="2.814722">
        <ele>76.36987</ele>
        <time>2021-07-01T13:00:01Z</time>
      </trkpt>
      <trkpt lat="42.017910" lon="2.814570">
        <ele>76.44470</ele>
        <time>2021-07-01T13:00:02Z</time>
      </trkpt>
      <trkpt lat="42.017651" lon="2.814447">
        <ele>77.11603</ele>
        <time>2021-07-01T13:00:03Z</time>
      </trkpt>
      <trkpt lat="42.017490" lon="2.814372">
        <ele>77.52649</ele>
        <time>2021-07-01T13:00:04Z</time>
      </trkpt>
      <trkpt lat="42.017048" lon="2.814164">
        <ele>78.02966</ele>
        <time>2021-07-01T13:00:05Z</time>
      </trkpt>
      <trkpt lat="42.016865" lon="2.814077">
        <ele>79.14893</ele>
        <time>2021-07-01T13:00:06Z</time>
      </trkpt>
      <trkpt lat="42.016464" lon="2.813887">
        <ele>79.40149</ele>
        <time>2021-07-01T13:00:07Z</time>
      </trkpt>
      <trkpt lat="42.016464" lon="2.813887">
        <ele>79.38336</ele>
        <time>2021-07-01T13:00:08Z</time>
      </trkpt>
      <trkpt lat="42.016151" lon="2.813736">
        <ele>79.32361</ele>
        <time>2021-07-01T13:00:09Z</time>
      </trkpt>
      <trkpt lat="42.015701" lon="2.813518">
        <ele>78.29089</ele>
        <time>2021-07-01T13:00:10Z</time>
      </trkpt>
      <trkpt lat="42.015488" lon="2.813413">
        <ele>78.31024</ele>
        <time>2021-07-01T13:00:11Z</time>
      </trkpt>
      <trkpt lat="42.015190" lon="2.813251">
        <ele>78.52307</ele>
        <time>2021-07-01T13:00:12Z</time>
      </trkpt>
      <trkpt lat="42.014874" lon="2.813071">
        <ele>79.35693</ele>
        <time>2021-07-01T13:00:13Z</time>
      </trkpt>
      <trkpt lat="42.014557" lon="2.812884">
        <ele>79.81836</ele>
        <time>2021-07-01T13:00:14Z</time>
      </trkpt>
      <trkpt lat="42.014286" lon="2.812707">
        <ele>81.41760</ele>
        <time>2021-07-01T13:00:15Z</time>
      </trkpt>
      <trkpt lat="42.013996" lon="2.812517">
        <ele>83.26355</ele>
        <time>2021-07-01T13:00:16Z</time>
      </trkpt>
      <trkpt lat="42.013695" lon="2.812299">
        <ele>83.37683</ele>
        <time>2021-07-01T13:00:17Z</time>
      </trkpt>
      <trkpt lat="42.013542" lon="2.812186">
        <ele>83.41016</ele>
        <time>2021-07-01T13:00:18Z</time>
      </trkpt>
      <trkpt lat="42.013149" lon="2.811881">
        <ele>83.21393</ele>
        <time>2021-07-01T13:00:19Z</time>
      </trkpt>
      <trkpt lat="42.013069" lon="2.811818">
        <ele>84.06836</ele>
        <time>2021-07-01T13:00:20Z</time>
      </trkpt>
      <trkpt lat="42.012707" lon="2.811519">
        <ele>85.53265</ele>
        <time>2021-07-01T13:00:21Z</time>
      </trkpt>
      <trkpt lat="42.012707" lon="2.811519">
        <ele>85.91510</ele>
        <time>2021-07-01T13:00:22Z</time>
      </trkpt>
      <trkpt lat="42.012409" lon="2.811258">
        <ele>85.76630</ele>
        <time>2021-07-01T13:00:23Z</time>
      </trkpt>
      <trkpt lat="42.012215" lon="2.811093">
        <ele>86.77057</ele>
        <time>2021-07-01T13:00:24Z</time>
      </trkpt>
      <trkpt lat="42.011944" lon="2.810866">
        <ele>87.95782</ele>
        <time>2021-07-01T13:00:25Z</time>
      </trkpt>
      <trkpt lat="42.011662" lon="2.810629">
        <ele>89.22394</ele>
        <time>2021-07-01T13:00:26Z</time>
      </trkpt>
      <trkpt lat="42.011166" lon="2.810213">
        <ele>90.22656</ele>
        <time>2021-07-01T13:00:27Z</time>
      </trkpt>
      <trkpt lat="42.011105" lon="2.810161">
        <ele>90.59302</ele>
        <time>2021-07-01T13:00:28Z</time>
      </trkpt>
      <trkpt lat="42.010551" lon="2.809736">
        <ele>90.14966</ele>
        <time>2021-07-01T13:00:29Z</time>
      </trkpt>
      <trkpt lat="42.010262" lon="2.809528">
        <ele>90.03809</ele>
        <time>2021-07-01T13:00:30Z</time>
      </trkpt>
      <trkpt lat="42.010014" lon="2.809355">
        <ele>90.25085</ele>
        <time>2021-07-01T13:00:31Z</time>
      </trkpt>
      <trkpt lat="42.009712" lon="2.809158">
        <ele>90.39722</ele>
        <time>2021-07-01T13:00:32Z</time>
      </trkpt>
      <trkpt lat="42.009403" lon="2.808973">
        <ele>91.43073</ele>
        <time>2021-07-01T13:00:33Z</time>
      </trkpt>
      <trkpt lat="42.009113" lon="2.808815">
        <ele>91.26477</ele>
        <time>2021-07-01T13:00:34Z</time>
      </trkpt>
      <trkpt lat="42.008888" lon="2.808691">
        <ele>91.43298</ele>
        <time>2021-07-01T13:00:35Z</time>
      </trkpt>
      <trkpt lat="42.008888" lon="2.808691">
        <ele>92.36621</ele>
        <time>2021-07-01T13:00:36Z</time>
      </trkpt>
      <trkpt lat="42.008587" lon="2.808547">
        <ele>92.13428</ele>
        <time>2021-07-01T13:00:37Z</time>
      </trkpt>
      <trkpt lat="42.008125" lon="2.808330">
        <ele>92.56732</ele>
        <time>2021-07-01T13:00:38Z</time>
      </trkpt>
      <trkpt lat="42.007812" lon="2.808181">
        <ele>92.67139</ele>
        <time>2021-07-01T13:00:39Z</time>
      </trkpt>
      <trkpt lat="42.007496" lon="2.808034">
        <ele>92.99487</ele>
        <time>2021-07-01T13:00:40Z</time>
      </trkpt>
      <trkpt lat="42.007481" lon="2.808027">
        <ele>92.82446</ele>
        <time>2021-07-01T13:00:41Z</time>
      </trkpt>
      <trkpt lat="42.006874" lon="2.807746">
        <ele>92.91321</ele>
        <time>2021-07-01T13:00:42Z</time>
      </trkpt>
      <trkpt lat="42.006729" lon="2.807681">
        <ele>92.43018</ele>
        <time>2021-07-01T13:00:43Z</time>
      </trkpt>
      <trkpt lat="42.006184" lon="2.807415">
        <ele>92.55548</ele>
        <time>2021-07-01T13:00:44Z</time>
      </trkpt>
      <trkpt lat="42.006184" lon="2.807415">
        <ele>93.37128</ele>
        <time>2021-07-01T13:00:45Z</time>
      </trkpt>
      <trkpt lat="42.006050" lon="2.807345">
        <ele>93.54895</ele>
        <time>2021-07-01T13:00:46Z</time>
      </trkpt>
      <trkpt lat="42.005615" lon="2.807113">
        <ele>93.80328</ele>
        <time>2021-07-01T13:00:47Z</time>
      </trkpt>
      <trkpt lat="42.005444" lon="2.807021">
        <ele>94.29950</ele>
        <time>2021-07-01T13:00:48Z</time>
      </trkpt>
      <trkpt lat="42.005020" lon="2.806813">
        <ele>94.39368</ele>
        <time>2021-07-01T13:00:49Z</time>
      </trkpt>
      <trkpt lat="42.004879" lon="2.806726">
        <ele>94.86652</ele>
        <time>2021-07-01T13:00:50Z</time>
      </trkpt>
      <trkpt lat="42.004620" lon="2.806569">
        <ele>94.81793</ele>
        <time>2021-07-01T13:00:51Z</time>
      </trkpt>
      <trkpt lat="42.004105" lon="2.806239">
        <ele>94.87860</ele>
        <time>2021-07-01T13:00:52Z</time>
      </trkpt>
      <trkpt lat="42.003796" lon="2.806036">
        <ele>94.95013</ele>
        <time>2021-07-01T13:00:53Z</time>
      </trkpt>
      <trkpt lat="42.003475" lon="2.805799">
        <ele>95.11389</ele>
        <time>2021-07-01T13:00:54Z</time>
      </trkpt>
      <trkpt lat="42.003239" lon="2.805622">
        <ele>94.47241</ele>
        <time>2021-07-01T13:00:55Z</time>
      </trkpt>
      <trkpt lat="42.003113" lon="2.805528">
        <ele>94.53668</ele>
        <time>2021-07-01T13:00:56Z</time>
      </trkpt>
      <trkpt lat="42.002617" lon="2.805130">
        <ele>94.52057</ele>
        <time>2021-07-01T13:00:57Z</time>
      </trkpt>
      <trkpt lat="42.002617" lon="2.805130">
        <ele>94.55908</ele>
        <time>2021-07-01T13:00:58Z</time>
      </trkpt>
      <trkpt lat="42.002468" lon="2.804994">
        <ele>93.59174</ele>
        <time>2021-07-01T13:00:59Z</time>
      </trkpt>
      <trkpt lat="42.002193" lon="2.804749">
        <ele>93.32251</ele>
        <time>2021-07-01T13:01:00Z</time>
      </trkpt>
      <trkpt lat="42.001804" lon="2.804389">
        <ele>93.46124</ele>
        <time>2021-07-01T13:01:01Z</time>
      </trkpt>
      <trkpt lat="42.001537" lon="2.804119">
        <ele>92.97070</ele>
        <time>2021-07-01T13:01:02Z</time>
      </trkpt>
      <trkpt lat="42.001274" lon="2.803850">
        <ele>93.38782</ele>
        <time>2021-07-01T13:01:03Z</time>
      </trkpt>
      <trkpt lat="42.001228" lon="2.803801">
        <ele>92.97156</ele>
        <time>2021-07-01T13:01:04Z</time>
      </trkpt>
      <trkpt lat="42.000736" lon="2.803290">
        <ele>92.93939</ele>
        <time>2021-07-01T13:01:05Z</time>
      </trkpt>
      <trkpt lat="42.000687" lon="2.803239">
        <ele>92.08148</ele>
        <time>2021-07-01T13:01:06Z</time>
      </trkpt>
      <trkpt lat="42.000244" lon="2.802754">
        <ele>90.68268</ele>
        <time>2021-07-01T13:01:07Z</time>
      </trkpt>
      <trkpt lat="42.000027" lon="2.802510">
        <ele>89.90698</ele>
        <time>2021-07-01T13:01:08Z</time>
      </trkpt>
      <trkpt lat="41.999763" lon="2.802222">
        <ele>89.28943</ele>
        <time>2021-07-01T13:01:09Z</time>
      </trkpt>
      <trkpt lat="41.999763" lon="2.802222">
        <ele>88.26843</ele>
        <time>2021-07-01T13:01:10Z</time>
      </trkpt>
      <trkpt lat="41.999519" lon="2.801930">
        <ele>87.73279</ele>
        <time>2021-07-01T13:01:11Z</time>
      </trkpt>
      <trkpt lat="41.999260" lon="2.801617">
        <ele>86.85980</ele>
        <time>2021-07-01T13:01:12Z</time>
      </trkpt>
      <trkpt lat="41.999149" lon="2.801485">
        <ele>86.32843</ele>
        <time>2021-07-01T13:01:13Z</time>
      </trkpt>
      <trkpt lat="41.998798" lon="2.801058">
        <ele>86.07019</ele>
        <time>2021-07-01T13:01:14Z</time>
      </trkpt>
      <trkpt lat="41.998688" lon="2.800918">
        <ele>86.02332</ele>
        <time>2021-07-01T13:01:15Z</time>
      </trkpt>
      <trkpt lat="41.998314" lon="2.800436">
        <ele>85.59546</ele>
        <time>2021-07-01T13:01:16Z</time>
      </trkpt>
      <trkpt lat="41.998077" lon="2.800129">
        <ele>85.85828</ele>
        <time>2021-07-01T13:01:17Z</time>
      </trkpt>
      <trkpt lat="41.997871" lon="2.799856">
        <ele>84.95972</ele>
        <time>2021-07-01T13:01:18Z</time>
      </trkpt>
      <trkpt lat="41.997639" lon="2.799533">
        <ele>84.59052</ele>
        <time>2021-07-01T13:01:19Z</time>
      </trkpt>
      <trkpt lat="41.997597" lon="2.799474">
        <ele>84.93976</ele>
        <time>2021-07-01T13:01:20Z</time>
      </trkpt>
      <trkpt lat="41.997139" lon="2.798841">
        <ele>85.19958</ele>
        <time>2021-07-01T13:01:21Z</time>
      </trkpt>
      <trkpt lat="41.996964" lon="2.798581">
        <ele>84.28705</ele>
        <time>2021-07-01T13:01:22Z</time>
      </trkpt>
      <trkpt lat="41.996807" lon="2.798351">
        <ele>84.46423</ele>
        <time>2021-07-01T13:01:23Z</time>
      </trkpt>
      <trkpt lat="41.996807" lon="2.798351">
        <ele>84.10699</ele>
        <time>2021-07-01T13:01:24Z</time>
      </trkpt>
      <trkpt lat="41.996555" lon="2.797976">
        <ele>84.31494</ele>
        <time>2021-07-01T13:01:25Z</time>
      </trkpt>
      <trkpt lat="41.996380" lon="2.797712">
        <ele>84.25739</ele>
        <time>2021-07-01T13:01:26Z</time>
      </trkpt>
      <trkpt lat="41.996132" lon="2.797339">
        <ele>84.56897</ele>
        <time>2021-07-01T13:01:27Z</time>
      </trkpt>
      <trkpt lat="41.995956" lon="2.797072">
        <ele>84.96722</ele>
        <time>2021-07-01T13:01:28Z</time>
      </trkpt>
      <trkpt lat="41.995842" lon="2.796895">
        <ele>83.79565</ele>
        <time>2021-07-01T13:01:29Z</time>
      </trkpt>
      <trkpt lat="41.995533" lon="2.796418">
        <ele>83.89148</ele>
        <time>2021-07-01T13:01:30Z</time>
      </trkpt>
      <trkpt lat="41.995426" lon="2.796258">
        <ele>83.45898</ele>
        <time>2021-07-01T13:01:31Z</time>
      </trkpt>
      <trkpt lat="41.995197" lon="2.795898">
        <ele>83.46527</ele>
        <time>2021-07-01T13:01:32Z</time>
      </trkpt>
      <trkpt lat="41.994820" lon="2.795301">
        <ele>82.87512</ele>
        <time>2021-07-01T13:01:33Z</time>
      </trkpt>
      <trkpt lat="41.994560" lon="2.794893">
        <ele>83.09979</ele>
        <time>2021-07-01T13:01:34Z</time>
      </trkpt>
      <trkpt lat="41.994434" lon="2.794686">
        <ele>82.31116</ele>
        <time>2021-07-01T13:01:35Z</time>
      </trkpt>
      <trkpt lat="41.994312" lon="2.794474">
        <ele>82.92603</ele>
        <time>2021-07-01T13:01:36Z</time>
      </trkpt>
      <trkpt lat="41.994312" lon="2.794474">
        <ele>83.05426</ele>
        <time>2021-07-01T13:01:37Z</time>
      </trkpt>
      <trkpt lat="41.993965" lon="2.793863">
        <ele>82.08307</ele>
        <time>2021-07-01T13:01:38Z</time>
      </trkpt>
      <trkpt lat="41.993771" lon="2.793517">
        <ele>81.94403</ele>
        <time>2021-07-01T13:01:39Z</time>
      </trkpt>
      <trkpt lat="41.993660" lon="2.793347">
        <ele>82.09363</ele>
        <time>2021-07-01T13:01:40Z</time>
      </trkpt>
      <trkpt lat="41.993374" lon="2.792897">
        <ele>80.99463</ele>
        <time>2021-07-01T13:01:41Z</time>
      </trkpt>
      <trkpt lat="41.993259" lon="2.792729">
        <ele>79.66907</ele>
        <time>2021-07-01T13:01:42Z</time>
      </trkpt>
      <trkpt lat="41.992947" lon="2.792266">
        <ele>79.73413</ele>
        <time>2021-07-01T13:01:43Z</time>
      </trkpt>
      <trkpt lat="41.992722" lon="2.791942">
        <ele>80.08783</ele>
        <time>2021-07-01T13:01:44Z</time>
      </trkpt>
      <trkpt lat="41.992500" lon="2.791632">
        <ele>80.44989</ele>
        <time>2021-07-01T13:01:45Z</time>
      </trkpt>
      <trkpt lat="41.992302" lon="2.791354">
        <ele>79.82635</ele>
        <time>2021-07-01T13:01:46Z</time>
      </trkpt>
      <trkpt lat="41.992249" lon="2.791277">
        <ele>79.08118</ele>
        <time>2021-07-01T13:01:47Z</time>
      </trkpt>
      <trkpt lat="41.992023" lon="2.790955">
        <ele>79.69043</ele>
        <time>2021-07-01T13:01:48Z</time>
      </trkpt>
      <trkpt lat="41.991837" lon="2.790684">
        <ele>79.27411</ele>
        <time>2021-07-01T13:01:49Z</time>
      </trkpt>
      <trkpt lat="41.991837" lon="2.790684">
        <ele>79.58911</ele>
        <time>2021-07-01T13:01:50Z</time>
      </trkpt>
      <trkpt lat="41.991589" lon="2.790325">
        <ele>79.64252</ele>
        <time>2021-07-01T13:01:51Z</time>
      </trkpt>
      <trkpt lat="41.991230" lon="2.789816">
        <ele>78.66809</ele>
        <time>2021-07-01T13:01:52Z</time>
      </trkpt>
      <trkpt lat="41.991020" lon="2.789522">
        <ele>78.30402</ele>
        <time>2021-07-01T13:01:53Z</time>
      </trkpt>
      <trkpt lat="41.990795" lon="2.789208">
        <ele>78.97034</ele>
        <time>2021-07-01T13:01:54Z</time>
      </trkpt>
      <trkpt lat="41.990734" lon="2.789122">
        <ele>78.96075</ele>
        <time>2021-07-01T13:01:55Z</time>
      </trkpt>
      <trkpt lat="41.990494" lon="2.788793">
        <ele>79.33600</ele>
        <time>2021-07-01T13:01:56Z</time>
      </trkpt>
      <trkpt lat="41.990147" lon="2.788330">
        <ele>79.49139</ele>
        <time>2021-07-01T13:01:57Z</time>
      </trkpt>
      <trkpt lat="41.990086" lon="2.788249">
        <ele>79.41174</ele>
        <time>2021-07-01T13:01:58Z</time>
      </trkpt>
      <trkpt lat="41.989780" lon="2.787856">
        <ele>79.79718</ele>
        <time>2021-07-01T13:01:59Z</time>
      </trkpt>
      <trkpt lat="41.989582" lon="2.787618">
        <ele>80.09070</ele>
        <time>2021-07-01T13:02:00Z</time>
      </trkpt>
      <trkpt lat="41.989353" lon="2.787348">
        <ele>80.30823</ele>
        <time>2021-07-01T13:02:01Z</time>
      </trkpt>
      <trkpt lat="41.989117" lon="2.787065">
        <ele>80.33862</ele>
        <time>2021-07-01T13:02:02Z</time>
      </trkpt>
      <trkpt lat="41.988876" lon="2.786779">
        <ele>80.11816</ele>
        <time>2021-07-01T13:02:03Z</time>
      </trkpt>
      <trkpt lat="41.988876" lon="2.786779">
        <ele>80.03540</ele>
        <time>2021-07-01T13:02:04Z</time>
      </trkpt>
      <trkpt lat="41.988628" lon="2.786495">
        <ele>80.21954</ele>
        <time>2021-07-01T13:02:05Z</time>
      </trkpt>
      <trkpt lat="41.988358" lon="2.786199">
        <ele>80.55688</ele>
        <time>2021-07-01T13:02:06Z</time>
      </trkpt>
      <trkpt lat="41.988014" lon="2.785819">
        <ele>80.99225</ele>
        <time>2021-07-01T13:02:07Z</time>
      </trkpt>
      <trkpt lat="41.987816" lon="2.785602">
        <ele>81.68518</ele>
        <time>2021-07-01T13:02:08Z</time>
      </trkpt>
      <trkpt lat="41.987305" lon="2.785066">
        <ele>81.83832</ele>
        <time>2021-07-01T13:02:09Z</time>
      </trkpt>
      <trkpt lat="41.987061" lon="2.784820">
        <ele>82.78613</ele>
        <time>2021-07-01T13:02:10Z</time>
      </trkpt>
      <trkpt lat="41.987038" lon="2.784798">
        <ele>82.30396</ele>
        <time>2021-07-01T13:02:11Z</time>
      </trkpt>
      <trkpt lat="41.986511" lon="2.784309">
        <ele>82.52344</ele>
        <time>2021-07-01T13:02:12Z</time>
      </trkpt>
      <trkpt lat="41.986320" lon="2.784133">
        <ele>82.19995</ele>
        <time>2021-07-01T13:02:13Z</time>
      </trkpt>
      <trkpt lat="41.986275" lon="2.784095">
        <ele>82.45074</ele>
        <time>2021-07-01T13:02:14Z</time>
      </trkpt>
      <trkpt lat="41.985783" lon="2.783674">
        <ele>82.54120</ele>
        <time>2021-07-01T13:02:15Z</time>
      </trkpt>
      <trkpt lat="41.985703" lon="2.783608">
        <ele>82.83362</ele>
        <time>2021-07-01T13:02:16Z</time>
      </trkpt>
      <trkpt lat="41.985336" lon="2.783301">
        <ele>83.10535</ele>
        <time>2021-07-01T13:02:17Z</time>
      </trkpt>
      <trkpt lat="41.985336" lon="2.783301">
        <ele>82.22986</ele>
        <time>2021-07-01T13:02:18Z</time>
      </trkpt>
      <trkpt lat="41.984905" lon="2.782949">
        <ele>82.27277</ele>
        <time>2021-07-01T13:02:19Z</time>
      </trkpt>
      <trkpt lat="41.984776" lon="2.782849">
        <ele>82.68152</ele>
        <time>2021-07-01T13:02:20Z</time>
      </trkpt>
      <trkpt lat="41.984295" lon="2.782479">
        <ele>82.72900</ele>
        <time>2021-07-01T13:02:21Z</time>
      </trkpt>
      <trkpt lat="41.984028" lon="2.782276">
        <ele>82.54419</ele>
        <time>2021-07-01T13:02:22Z</time>
      </trkpt>
      <trkpt lat="41.983963" lon="2.782231">
        <ele>82.16052</ele>
        <time>2021-07-01T13:02:23Z</time>
      </trkpt>
      <trkpt lat="41.983707" lon="2.782050">
        <ele>82.26031</ele>
        <time>2021-07-01T13:02:24Z</time>
      </trkpt>
      <trkpt lat="41.983215" lon="2.781713">
        <ele>82.08655</ele>
        <time>2021-07-01T13:02:25Z</time>
      </trkpt>
      <trkpt lat="41.982887" lon="2.781496">
        <ele>82.85181</ele>
        <time>2021-07-01T13:02:26Z</time>
      </trkpt>
      <trkpt lat="41.982574" lon="2.781304">
        <ele>81.82104</ele>
        <time>2021-07-01T13:02:27Z</time>
      </trkpt>
      <trkpt lat="41.982296" lon="2.781136">
        <ele>81.02173</ele>
        <time>2021-07-01T13:02:28Z</time>
      </trkpt>
      <trkpt lat="41.981976" lon="2.780943">
        <ele>81.44324</ele>
        <time>2021-07-01T13:02:29Z</time>
      </trkpt>
      <trkpt lat="41.981674" lon="2.780778">
        <ele>80.85809</ele>
        <time>2021-07-01T13:02:30Z</time>
      </trkpt>
      <trkpt lat="41.981674" lon="2.780778">
        <ele>80.85828</ele>
        <time>2021-07-01T13:02:31Z</time>
      </trkpt>
      <trkpt lat="41.981354" lon="2.780600">
        <ele>80.56781</ele>
        <time>2021-07-01T13:02:32Z</time>
      </trkpt>
      <trkpt lat="41.981071" lon="2.780446">
        <ele>81.18903</ele>
        <time>2021-07-01T13:02:33Z</time>
      </trkpt>
      <trkpt lat="41.980907" lon="2.780363">
        <ele>81.58740</ele>
        <time>2021-07-01T13:02:34Z</time>
      </trkpt>
      <trkpt lat="41.980453" lon="2.780139">
        <ele>81.93732</ele>
        <time>2021-07-01T13:02:35Z</time>
      </trkpt>
      <trkpt lat="41.980293" lon="2.780058">
        <ele>81.71643</ele>
        <time>2021-07-01T13:02:36Z</time>
      </trkpt>
      <trkpt lat="41.980103" lon="2.779969">
        <ele>81.50012</ele>
        <time>2021-07-01T13:02:37Z</time>
      </trkpt>
      <trkpt lat="41.979782" lon="2.779828">
        <ele>81.64746</ele>
        <time>2021-07-01T13:02:38Z</time>
      </trkpt>
      <trkpt lat="41.979240" lon="2.779589">
        <ele>81.86560</ele>
        <time>2021-07-01T13:02:39Z</time>
      </trkpt>
      <trkpt lat="41.978886" lon="2.779451">
        <ele>82.59924</ele>
        <time>2021-07-01T13:02:40Z</time>
      </trkpt>
      <trkpt lat="41.978504" lon="2.779303">
        <ele>83.07690</ele>
        <time>2021-07-01T13:02:41Z</time>
      </trkpt>
      <trkpt lat="41.978222" lon="2.779195">
        <ele>83.04596</ele>
        <time>2021-07-01T13:02:42Z</time>
      </trkpt>
      <trkpt lat="41.978222" lon="2.779195">
        <ele>82.45868</ele>
        <time>2021-07-01T13:02:43Z</time>
      </trkpt>
      <trkpt lat="41.977962" lon="2.779109">
        <ele>82.32245</ele>
        <time>2021-07-01T13:02:44Z</time>
      </trkpt>
      <trkpt lat="41.977749" lon="2.779042">
        <ele>82.06323</ele>
        <time>2021-07-01T13:02:45Z</time>
      </trkpt>
      <trkpt lat="41.977406" lon="2.778935">
        <ele>81.20422</ele>
        <time>2021-07-01T13:02:46Z</time>
      </trkpt>
      <trkpt lat="41.976913" lon="2.778781">
        <ele>81.52393</ele>
        <time>2021-07-01T13:02:47Z</time>
      </trkpt>
      <trkpt lat="41.976711" lon="2.778718">
        <ele>80.69592</ele>
        <time>2021-07-01T13:02:48Z</time>
      </trkpt>
      <trkpt lat="41.976082" lon="2.778567">
        <ele>81.00061</ele>
        <time>2021-07-01T13:02:49Z</time>
      </trkpt>
      <trkpt lat="41.976044" lon="2.778557">
        <ele>82.64563</ele>
        <time>2021-07-01T13:02:50Z</time>
      </trkpt>
      <trkpt lat="41.975700" lon="2.778481">
        <ele>83.11353</ele>
        <time>2021-07-01T13:02:51Z</time>
      </trkpt>
      <trkpt lat="41.975388" lon="2.778424">
        <ele>82.58386</ele>
        <time>2021-07-01T13:02:52Z</time>
      </trkpt>
      <trkpt lat="41.974892" lon="2.778340">
        <ele>83.12299</ele>
        <time>2021-07-01T13:02:53Z</time>
      </trkpt>
      <trkpt lat="41.974575" lon="2.778286">
        <ele>83.71472</ele>
        <time>2021-07-01T13:02:54Z</time>
      </trkpt>
      <trkpt lat="41.974575" lon="2.778286">
        <ele>85.10449</ele>
        <time>2021-07-01T13:02:55Z</time>
      </trkpt>
      <trkpt lat="41.974091" lon="2.778222">
        <ele>84.55579</ele>
        <time>2021-07-01T13:02:56Z</time>
      </trkpt>
      <trkpt lat="41.973808" lon="2.778201">
        <ele>84.57330</ele>
        <time>2021-07-01T13:02:57Z</time>
      </trkpt>
      <trkpt lat="41.973663" lon="2.778190">
        <ele>85.37097</ele>
        <time>2021-07-01T13:02:58Z</time>
      </trkpt>
      <trkpt lat="41.973145" lon="2.778151">
        <ele>85.51331</ele>
        <time>2021-07-01T13:02:59Z</time>
      </trkpt>
      <trkpt lat="41.973045" lon="2.778144">
        <ele>85.79346</ele>
        <time>2021-07-01T13:03:00Z</time>
      </trkpt>
      <trkpt lat="41.972759" lon="2.778135">
        <ele>87.40308</ele>
        <time>2021-07-01T13:03:01Z</time>
      </trkpt>
      <trkpt lat="41.972248" lon="2.778129">
        <ele>86.98627</ele>
        <time>2021-07-01T13:03:02Z</time>
      </trkpt>
      <trkpt lat="41.972153" lon="2.778128">
        <ele>86.96948</ele>
        <time>2021-07-01T13:03:03Z</time>
      </trkpt>
      <trkpt lat="41.971806" lon="2.778125">
        <ele>87.22852</ele>
        <time>2021-07-01T13:03:04Z</time>
      </trkpt>
      <trkpt lat="41.971291" lon="2.778150">
        <ele>87.56390</ele>
        <time>2021-07-01T13:03:05Z</time>
      </trkpt>
      <trkpt lat="41.971214" lon="2.778155">
        <ele>87.97681</ele>
        <time>2021-07-01T13:03:06Z</time>
      </trkpt>
      <trkpt lat="41.970558" lon="2.778201">
        <ele>88.68140</ele>
        <time>2021-07-01T13:03:07Z</time>
      </trkpt>
      <trkpt lat="41.970272" lon="2.778227">
        <ele>89.67883</ele>
        <time>2021-07-01T13:03:08Z</time>
      </trkpt>
      <trkpt lat="41.969936" lon="2.778277">
        <ele>89.72571</ele>
        <time>2021-07-01T13:03:09Z</time>
      </trkpt>
      <trkpt lat="41.969936" lon="2.778277">
        <ele>90.02625</ele>
        <time>2021-07-01T13:03:10Z</time>
      </trkpt>
      <trkpt lat="41.969627" lon="2.778325">
        <ele>90.90576</ele>
        <time>2021-07-01T13:03:11Z</time>
      </trkpt>
      <trkpt lat="41.969521" lon="2.778341">
        <ele>91.99939</ele>
        <time>2021-07-01T13:03:12Z</time>
      </trkpt>
      <trkpt lat="41.969166" lon="2.778400">
        <ele>92.20874</ele>
        <time>2021-07-01T13:03:13Z</time>
      </trkpt>
      <trkpt lat="41.968876" lon="2.778458">
        <ele>92.41156</ele>
        <time>2021-07-01T13:03:14Z</time>
      </trkpt>
      <trkpt lat="41.968754" lon="2.778483">
        <ele>91.98352</ele>
        <time>2021-07-01T13:03:15Z</time>
      </trkpt>
      <trkpt lat="41.968357" lon="2.778572">
        <ele>92.19861</ele>
        <time>2021-07-01T13:03:16Z</time>
      </trkpt>
      <trkpt lat="41.968037" lon="2.778653">
        <ele>91.72998</ele>
        <time>2021-07-01T13:03:17Z</time>
      </trkpt>
      <trkpt lat="41.967800" lon="2.778713">
        <ele>91.38281</ele>
        <time>2021-07-01T13:03:18Z</time>
      </trkpt>
      <trkpt lat="41.967548" lon="2.778785">
        <ele>91.36469</ele>
        <time>2021-07-01T13:03:19Z</time>
      </trkpt>
      <trkpt lat="41.967518" lon="2.778794">
        <ele>91.06024</ele>
        <time>2021-07-01T13:03:20Z</time>
      </trkpt>
      <trkpt lat="41.967148" lon="2.778910">
        <ele>91.08954</ele>
        <time>2021-07-01T13:03:21Z</time>
      </trkpt>
      <trkpt lat="41.966824" lon="2.779011">
        <ele>90.72998</ele>
        <time>2021-07-01T13:03:22Z</time>
      </trkpt>
      <trkpt lat="41.966824" lon="2.779011">
        <ele>91.20618</ele>
        <time>2021-07-01T13:03:23Z</time>
      </trkpt>
      <trkpt lat="41.966564" lon="2.779099">
        <ele>91.11786</ele>
        <time>2021-07-01T13:03:24Z</time>
      </trkpt>
      <trkpt lat="41.966316" lon="2.779192">
        <ele>92.65540</ele>
        <time>2021-07-01T13:03:25Z</time>
      </trkpt>
      <trkpt lat="41.966228" lon="2.779225">
        <ele>92.18640</ele>
        <time>2021-07-01T13:03:26Z</time>
      </trkpt>
      <trkpt lat="41.965916" lon="2.779350">
        <ele>92.67963</ele>
        <time>2021-07-01T13:03:27Z</time>
      </trkpt>
      <trkpt lat="41.965759" lon="2.779417">
        <ele>92.69788</ele>
        <time>2021-07-01T13:03:28Z</time>
      </trkpt>
      <trkpt lat="41.965515" lon="2.779521">
        <ele>94.43073</ele>
        <time>2021-07-01T13:03:29Z</time>
      </trkpt>
      <trkpt lat="41.965359" lon="2.779590">
        <ele>95.89716</ele>
        <time>2021-07-01T13:03:30Z</time>
      </trkpt>
      <trkpt lat="41.964989" lon="2.779770">
        <ele>96.05280</ele>
        <time>2021-07-01T13:03:31Z</time>
      </trkpt>
      <trkpt lat="41.964779" lon="2.779873">
        <ele>95.77740</ele>
        <time>2021-07-01T13:03:32Z</time>
      </trkpt>
      <trkpt lat="41.964577" lon="2.779973">
        <ele>96.31946</ele>
        <time>2021-07-01T13:03:34Z</time>
      </trkpt>
      <trkpt lat="41.964516" lon="2.780001">
        <ele>95.78876</ele>
        <time>2021-07-01T13:03:34Z</time>
      </trkpt>
      <trkpt lat="41.964012" lon="2.780241">
        <ele>95.97137</ele>
        <time>2021-07-01T13:03:35Z</time>
      </trkpt>
      <trkpt lat="41.964012" lon="2.780241">
        <ele>95.11224</ele>
        <time>2021-07-01T13:03:36Z</time>
      </trkpt>
      <trkpt lat="41.963825" lon="2.780335">
        <ele>94.11719</ele>
        <time>2021-07-01T13:03:37Z</time>
      </trkpt>
      <trkpt lat="41.963699" lon="2.780410">
        <ele>95.33179</ele>
        <time>2021-07-01T13:03:38Z</time>
      </trkpt>
      <trkpt lat="41.963493" lon="2.780533">
        <ele>94.97260</ele>
        <time>2021-07-01T13:03:39Z</time>
      </trkpt>
      <trkpt lat="41.963123" lon="2.780763">
        <ele>94.58459</ele>
        <time>2021-07-01T13:03:40Z</time>
      </trkpt>
      <trkpt lat="41.963100" lon="2.780776">
        <ele>96.35773</ele>
        <time>2021-07-01T13:03:41Z</time>
      </trkpt>
      <trkpt lat="41.962742" lon="2.781003">
        <ele>96.58533</ele>
        <time>2021-07-01T13:03:42Z</time>
      </trkpt>
      <trkpt lat="41.962452" lon="2.781186">
        <ele>96.44080</ele>
        <time>2021-07-01T13:03:43Z</time>
      </trkpt>
      <trkpt lat="41.962238" lon="2.781322">
        <ele>97.85651</ele>
        <time>2021-07-01T13:03:44Z</time>
      </trkpt>
      <trkpt lat="41.962032" lon="2.781459">
        <ele>99.40625</ele>
        <time>2021-07-01T13:03:45Z</time>
      </trkpt>
      <trkpt lat="41.961815" lon="2.781603">
        <ele>99.23358</ele>
        <time>2021-07-01T13:03:46Z</time>
      </trkpt>
      <trkpt lat="41.961815" lon="2.781603">
        <ele>99.51477</ele>
        <time>2021-07-01T13:03:47Z</time>
      </trkpt>
      <trkpt lat="41.961601" lon="2.781745">
        <ele>97.78992</ele>
        <time>2021-07-01T13:03:48Z</time>
      </trkpt>
      <trkpt lat="41.961418" lon="2.781864">
        <ele>96.99866</ele>
        <time>2021-07-01T13:03:49Z</time>
      </trkpt>
      <trkpt lat="41.961193" lon="2.782017">
        <ele>96.44568</ele>
        <time>2021-07-01T13:03:50Z</time>
      </trkpt>
      <trkpt lat="41.961109" lon="2.782072">
        <ele>96.81586</ele>
        <time>2021-07-01T13:03:51Z</time>
      </trkpt>
      <trkpt lat="41.960918" lon="2.782201">
        <ele>96.09631</ele>
        <time>2021-07-01T13:03:52Z</time>
      </trkpt>
      <trkpt lat="41.960743" lon="2.782320">
        <ele>94.24902</ele>
        <time>2021-07-01T13:03:53Z</time>
      </trkpt>
      <trkpt lat="41.960529" lon="2.782464">
        <ele>93.07086</ele>
        <time>2021-07-01T13:03:54Z</time>
      </trkpt>
      <trkpt lat="41.960148" lon="2.782722">
        <ele>92.62598</ele>
        <time>2021-07-01T13:03:55Z</time>
      </trkpt>
      <trkpt lat="41.959946" lon="2.782860">
        <ele>94.91412</ele>
        <time>2021-07-01T13:03:56Z</time>
      </trkpt>
      <trkpt lat="41.959946" lon="2.782860">
        <ele>96.31116</ele>
        <time>2021-07-01T13:03:57Z</time>
      </trkpt>
      <trkpt lat="41.959736" lon="2.783003">
        <ele>97.50519</ele>
        <time>2021-07-01T13:03:58Z</time>
      </trkpt>
      <trkpt lat="41.959526" lon="2.783136">
        <ele>97.55377</ele>
        <time>2021-07-01T13:03:59Z</time>
      </trkpt>
      <trkpt lat="41.959324" lon="2.783264">
        <ele>97.81738</ele>
        <time>2021-07-01T13:04:00Z</time>
      </trkpt>
      <trkpt lat="41.959122" lon="2.783396">
        <ele>97.13892</ele>
        <time>2021-07-01T13:04:01Z</time>
      </trkpt>
      <trkpt lat="41.958931" lon="2.783397">
        <ele>95.81635</ele>
        <time>2021-07-01T13:04:02Z</time>
      </trkpt>
      <trkpt lat="41.958748" lon="2.783453">
        <ele>95.69373</ele>
        <time>2021-07-01T13:04:03Z</time>
      </trkpt>
      <trkpt lat="41.958622" lon="2.783726">
        <ele>95.32922</ele>
        <time>2021-07-01T13:04:04Z</time>
      </trkpt>
      <trkpt lat="41.958462" lon="2.783828">
        <ele>96.12482</ele>
        <time>2021-07-01T13:04:05Z</time>
      </trkpt>
      <trkpt lat="41.958420" lon="2.783853">
        <ele>95.53778</ele>
        <time>2021-07-01T13:04:06Z</time>
      </trkpt>
      <trkpt lat="41.958275" lon="2.783233">
        <ele>93.92969</ele>
        <time>2021-07-01T13:04:07Z</time>
      </trkpt>
      <trkpt lat="41.958275" lon="2.783233">
        <ele>93.42126</ele>
        <time>2021-07-01T13:04:08Z</time>
      </trkpt>
      <trkpt lat="41.958225" lon="2.783112">
        <ele>93.90283</ele>
        <time>2021-07-01T13:04:09Z</time>
      </trkpt>
      <trkpt lat="41.958199" lon="2.782916">
        <ele>93.12476</ele>
        <time>2021-07-01T13:04:10Z</time>
      </trkpt>
      <trkpt lat="41.958248" lon="2.782612">
        <ele>91.76788</ele>
        <time>2021-07-01T13:04:11Z</time>
      </trkpt>
      <trkpt lat="41.958313" lon="2.782494">
        <ele>92.03430</ele>
        <time>2021-07-01T13:04:12Z</time>
      </trkpt>
      <trkpt lat="41.958336" lon="2.782473">
        <ele>93.40027</ele>
        <time>2021-07-01T13:04:13Z</time>
      </trkpt>
      <trkpt lat="41.958614" lon="2.782338">
        <ele>93.87225</ele>
        <time>2021-07-01T13:04:14Z</time>
      </trkpt>
      <trkpt lat="41.958717" lon="2.782354">
        <ele>93.53497</ele>
        <time>2021-07-01T13:04:15Z</time>
      </trkpt>
      <trkpt lat="41.958790" lon="2.782390">
        <ele>94.49591</ele>
        <time>2021-07-01T13:04:16Z</time>
      </trkpt>
      <trkpt lat="41.958824" lon="2.782412">
        <ele>95.59412</ele>
        <time>2021-07-01T13:04:17Z</time>
      </trkpt>
      <trkpt lat="41.958824" lon="2.782412">
        <ele>95.78741</ele>
        <time>2021-07-01T13:04:18Z</time>
      </trkpt>
      <trkpt lat="41.959175" lon="2.782757">
        <ele>95.86456</ele>
        <time>2021-07-01T13:04:19Z</time>
      </trkpt>
      <trkpt lat="41.959209" lon="2.782820">
        <ele>96.20020</ele>
        <time>2021-07-01T13:04:20Z</time>
      </trkpt>
      <trkpt lat="41.959263" lon="2.782917">
        <ele>96.66388</ele>
        <time>2021-07-01T13:04:21Z</time>
      </trkpt>
      <trkpt lat="41.959408" lon="2.783198">
        <ele>96.23743</ele>
        <time>2021-07-01T13:04:22Z</time>
      </trkpt>
      <trkpt lat="41.959496" lon="2.783395">
        <ele>96.33075</ele>
        <time>2021-07-01T13:04:23Z</time>
      </trkpt>
      <trkpt lat="41.959545" lon="2.783503">
        <ele>96.06451</ele>
        <time>2021-07-01T13:04:24Z</time>
      </trkpt>
      <trkpt lat="41.959694" lon="2.783849">
        <ele>95.21252</ele>
        <time>2021-07-01T13:04:25Z</time>
      </trkpt>
      <trkpt lat="41.959728" lon="2.783928">
        <ele>94.96478</ele>
        <time>2021-07-01T13:04:26Z</time>
      </trkpt>
      <trkpt lat="41.959854" lon="2.784220">
        <ele>95.34363</ele>
        <time>2021-07-01T13:04:27Z</time>
      </trkpt>
      <trkpt lat="41.959873" lon="2.784270">
        <ele>94.71210</ele>
        <time>2021-07-01T13:04:28Z</time>
      </trkpt>
      <trkpt lat="41.959938" lon="2.784441">
        <ele>95.12585</ele>
        <time>2021-07-01T13:04:29Z</time>
      </trkpt>
      <trkpt lat="41.959972" lon="2.784532">
        <ele>94.67969</ele>
        <time>2021-07-01T13:04:30Z</time>
      </trkpt>
      <trkpt lat="41.960052" lon="2.784751">
        <ele>94.99786</ele>
        <time>2021-07-01T13:04:31Z</time>
      </trkpt>
      <trkpt lat="41.960052" lon="2.784751">
        <ele>95.42035</ele>
        <time>2021-07-01T13:04:32Z</time>
      </trkpt>
      <trkpt lat="41.960140" lon="2.784984">
        <ele>95.40698</ele>
        <time>2021-07-01T13:04:33Z</time>
      </trkpt>
      <trkpt lat="41.960175" lon="2.785079">
        <ele>80.68288</ele>
        <time>2021-07-01T13:04:34Z</time>
      </trkpt>
      <trkpt lat="41.960243" lon="2.785270">
        <ele>87.22198</ele>
        <time>2021-07-01T13:04:35Z</time>
      </trkpt>
      <trkpt lat="41.960285" lon="2.785380">
        <ele>89.45544</ele>
        <time>2021-07-01T13:04:36Z</time>
      </trkpt>
      <trkpt lat="41.960327" lon="2.785492">
        <ele>90.60828</ele>
        <time>2021-07-01T13:04:37Z</time>
      </trkpt>
      <trkpt lat="41.960411" lon="2.785714">
        <ele>80.50684</ele>
        <time>2021-07-01T13:04:38Z</time>
      </trkpt>
      <trkpt lat="41.960426" lon="2.785757">
        <ele>85.51807</ele>
        <time>2021-07-01T13:04:39Z</time>
      </trkpt>
      <trkpt lat="41.960529" lon="2.786041">
        <ele>88.10931</ele>
        <time>2021-07-01T13:04:40Z</time>
      </trkpt>
      <trkpt lat="41.960598" lon="2.786227">
        <ele>89.32086</ele>
        <time>2021-07-01T13:04:41Z</time>
      </trkpt>
      <trkpt lat="41.960613" lon="2.786269">
        <ele>89.64832</ele>
        <time>2021-07-01T13:04:42Z</time>
      </trkpt>
      <trkpt lat="41.960732" lon="2.786580">
        <ele>90.05505</ele>
        <time>2021-07-01T13:04:43Z</time>
      </trkpt>
      <trkpt lat="41.960732" lon="2.786580">
        <ele>90.47058</ele>
        <time>2021-07-01T13:04:44Z</time>
      </trkpt>
      <trkpt lat="41.960831" lon="2.786844">
        <ele>90.20374</ele>
        <time>2021-07-01T13:04:45Z</time>
      </trkpt>
      <trkpt lat="41.960884" lon="2.786991">
        <ele>88.29846</ele>
        <time>2021-07-01T13:04:46Z</time>
      </trkpt>
      <trkpt lat="41.960907" lon="2.787047">
        <ele>88.21777</ele>
        <time>2021-07-01T13:04:47Z</time>
      </trkpt>
      <trkpt lat="41.960976" lon="2.787230">
        <ele>88.47009</ele>
        <time>2021-07-01T13:04:48Z</time>
      </trkpt>
      <trkpt lat="41.961056" lon="2.787449">
        <ele>89.37598</ele>
        <time>2021-07-01T13:04:49Z</time>
      </trkpt>
      <trkpt lat="41.961102" lon="2.787578">
        <ele>89.67102</ele>
        <time>2021-07-01T13:04:50Z</time>
      </trkpt>
      <trkpt lat="41.961147" lon="2.787706">
        <ele>89.53583</ele>
        <time>2021-07-01T13:04:51Z</time>
      </trkpt>
      <trkpt lat="41.961178" lon="2.787790">
        <ele>89.48376</ele>
        <time>2021-07-01T13:04:52Z</time>
      </trkpt>
      <trkpt lat="41.961185" lon="2.787816">
        <ele>89.86462</ele>
        <time>2021-07-01T13:04:53Z</time>
      </trkpt>
      <trkpt lat="41.961281" lon="2.788079">
        <ele>89.56537</ele>
        <time>2021-07-01T13:04:54Z</time>
      </trkpt>
      <trkpt lat="41.961281" lon="2.788079">
        <ele>90.37256</ele>
        <time>2021-07-01T13:04:55Z</time>
      </trkpt>
      <trkpt lat="41.961288" lon="2.788093">
        <ele>90.78760</ele>
        <time>2021-07-01T13:04:56Z</time>
      </trkpt>
      <trkpt lat="41.961304" lon="2.788136">
        <ele>91.87842</ele>
        <time>2021-07-01T13:04:57Z</time>
      </trkpt>
      <trkpt lat="41.961311" lon="2.788164">
        <ele>91.55389</ele>
        <time>2021-07-01T13:04:58Z</time>
      </trkpt>
      <trkpt lat="41.961346" lon="2.788257">
        <ele>91.21423</ele>
        <time>2021-07-01T13:04:59Z</time>
      </trkpt>
      <trkpt lat="41.961369" lon="2.788322">
        <ele>91.41254</ele>
        <time>2021-07-01T13:05:00Z</time>
      </trkpt>
      <trkpt lat="41.961384" lon="2.788361">
        <ele>89.95648</ele>
        <time>2021-07-01T13:05:01Z</time>
      </trkpt>
      <trkpt lat="41.961391" lon="2.788381">
        <ele>89.65198</ele>
        <time>2021-07-01T13:05:02Z</time>
      </trkpt>
      <trkpt lat="41.961426" lon="2.788490">
        <ele>90.26428</ele>
        <time>2021-07-01T13:05:03Z</time>
      </trkpt>
      <trkpt lat="41.961437" lon="2.788530">
        <ele>90.05750</ele>
        <time>2021-07-01T13:05:04Z</time>
      </trkpt>
      <trkpt lat="41.961502" lon="2.788731">
        <ele>90.39490</ele>
        <time>2021-07-01T13:05:05Z</time>
      </trkpt>
      <trkpt lat="41.961502" lon="2.788731">
        <ele>90.02979</ele>
        <time>2021-07-01T13:05:06Z</time>
      </trkpt>
      <trkpt lat="41.961506" lon="2.788743">
        <ele>89.07068</ele>
        <time>2021-07-01T13:05:07Z</time>
      </trkpt>
      <trkpt lat="41.961529" lon="2.788801">
        <ele>89.59943</ele>
        <time>2021-07-01T13:05:08Z</time>
      </trkpt>
      <trkpt lat="41.961582" lon="2.788967">
        <ele>88.97687</ele>
        <time>2021-07-01T13:05:09Z</time>
      </trkpt>
      <trkpt lat="41.961617" lon="2.789066">
        <ele>88.39429</ele>
        <time>2021-07-01T13:05:10Z</time>
      </trkpt>
      <trkpt lat="41.961620" lon="2.789076">
        <ele>88.12915</ele>
        <time>2021-07-01T13:05:11Z</time>
      </trkpt>
      <trkpt lat="41.961647" lon="2.789149">
        <ele>88.99615</ele>
        <time>2021-07-01T13:05:12Z</time>
      </trkpt>
      <trkpt lat="41.961647" lon="2.789152">
        <ele>90.24890</ele>
        <time>2021-07-01T13:05:13Z</time>
      </trkpt>
      <trkpt lat="41.961647" lon="2.789152">
        <ele>90.04907</ele>
        <time>2021-07-01T13:05:14Z</time>
      </trkpt>
      <trkpt lat="41.961647" lon="2.789152">
        <ele>90.41895</ele>
        <time>2021-07-01T13:05:15Z</time>
      </trkpt>
      <trkpt lat="41.961647" lon="2.789152">
        <ele>91.17694</ele>
        <time>2021-07-01T13:05:16Z</time>
      </trkpt>
      <trkpt lat="41.961647" lon="2.789152">
        <ele>91.59094</ele>
        <time>2021-07-01T13:05:17Z</time>
      </trkpt>
      <trkpt lat="41.961647" lon="2.789152">
        <ele>91.64111</ele>
        <time>2021-07-01T13:05:18Z</time>
      </trkpt>
      <trkpt lat="41.961647" lon="2.789152">
        <ele>93.26404</ele>
        <time>2021-07-01T13:05:19Z</time>
      </trkpt>
      <trkpt lat="41.961647" lon="2.789152">
        <ele>93.83411</ele>
        <time>2021-07-01T13:05:20Z</time>
      </trkpt>
      <trkpt lat="41.961647" lon="2.789152">
        <ele>93.94617</ele>
        <time>2021-07-01T13:05:21Z</time>
      </trkpt>
      <trkpt lat="41.961647" lon="2.789152">
        <ele>94.19135</ele>
        <time>2021-07-01T13:05:22Z</time>
      </trkpt>
      <trkpt lat="41.961647" lon="2.789152">
        <ele>94.73993</ele>
        <time>2021-07-01T13:05:23Z</time>
      </trkpt>
      <trkpt lat="41.961647" lon="2.789152">
        <ele>93.90344</ele>
        <time>2021-07-01T13:05:24Z</time>
      </trkpt>
      <trkpt lat="41.961647" lon="2.789152">
        <ele>77.84036</ele>
        <time>2021-07-01T13:05:25Z</time>
      </trkpt>
      <trkpt lat="41.961647" lon="2.789152">
        <ele>77.84338</ele>
        <time>2021-07-01T13:05:26Z</time>
      </trkpt>
      <trkpt lat="41.961647" lon="2.789152">
        <ele>77.90079</ele>
        <time>2021-07-01T13:05:27Z</time>
      </trkpt>
      <trkpt lat="41.961647" lon="2.789152">
        <ele>78.00692</ele>
        <time>2021-07-01T13:05:28Z</time>
      </trkpt>
      <trkpt lat="41.961647" lon="2.789152">
        <ele>78.10670</ele>
        <time>2021-07-01T13:05:29Z</time>
      </trkpt>
      <trkpt lat="41.961647" lon="2.789152">
        <ele>83.04572</ele>
        <time>2021-07-01T13:05:30Z</time>
      </trkpt>
      <trkpt lat="41.961647" lon="2.789152">
        <ele>86.25415</ele>
        <time>2021-07-01T13:05:31Z</time>
      </trkpt>
      <trkpt lat="41.961647" lon="2.789152">
        <ele>88.78137</ele>
        <time>2021-07-01T13:05:32Z</time>
      </trkpt>
      <trkpt lat="41.961647" lon="2.789152">
        <ele>78.76225</ele>
        <time>2021-07-01T13:05:33Z</time>
      </trkpt>
      <trkpt lat="41.961647" lon="2.789152">
        <ele>84.46716</ele>
        <time>2021-07-01T13:05:34Z</time>
      </trkpt>
      <trkpt lat="41.961647" lon="2.789152">
        <ele>86.94958</ele>
        <time>2021-07-01T13:05:35Z</time>
      </trkpt>
      <trkpt lat="41.961647" lon="2.789152">
        <ele>87.99695</ele>
        <time>2021-07-01T13:05:36Z</time>
      </trkpt>
      <trkpt lat="41.961647" lon="2.789152">
        <ele>79.15941</ele>
        <time>2021-07-01T13:05:37Z</time>
      </trkpt>
      <trkpt lat="41.961647" lon="2.789152">
        <ele>79.27950</ele>
        <time>2021-07-01T13:05:38Z</time>
      </trkpt>
      <trkpt lat="41.961647" lon="2.789152">
        <ele>79.45744</ele>
        <time>2021-07-01T13:05:39Z</time>
      </trkpt>
      <trkpt lat="41.961647" lon="2.789152">
        <ele>79.58932</ele>
        <time>2021-07-01T13:05:40Z</time>
      </trkpt>
      <trkpt lat="41.961647" lon="2.789152">
        <ele>79.76003</ele>
        <time>2021-07-01T13:05:41Z</time>
      </trkpt>
      <trkpt lat="41.961647" lon="2.789152">
        <ele>84.51923</ele>
        <time>2021-07-01T13:05:42Z</time>
      </trkpt>
      <trkpt lat="41.961647" lon="2.789152">
        <ele>86.24115</ele>
        <time>2021-07-01T13:05:43Z</time>
      </trkpt>
      <trkpt lat="41.961647" lon="2.789152">
        <ele>80.08112</ele>
        <time>2021-07-01T13:05:44Z</time>
      </trkpt>
      <trkpt lat="41.961647" lon="2.789152">
        <ele>80.00912</ele>
        <time>2021-07-01T13:05:45Z</time>
      </trkpt>
      <trkpt lat="41.961647" lon="2.789152">
        <ele>80.03764</ele>
        <time>2021-07-01T13:05:46Z</time>
      </trkpt>
      <trkpt lat="41.961647" lon="2.789152">
        <ele>80.07394</ele>
        <time>2021-07-01T13:05:47Z</time>
      </trkpt>
      <trkpt lat="41.961647" lon="2.789152">
        <ele>84.48035</ele>
        <time>2021-07-01T13:05:48Z</time>
      </trkpt>
      <trkpt lat="41.961647" lon="2.789152">
        <ele>86.39215</ele>
        <time>2021-07-01T13:05:49Z</time>
      </trkpt>
      <trkpt lat="41.961647" lon="2.789152">
        <ele>80.42343</ele>
        <time>2021-07-01T13:05:50Z</time>
      </trkpt>
      <trkpt lat="41.961647" lon="2.789152">
        <ele>80.37348</ele>
        <time>2021-07-01T13:05:51Z</time>
      </trkpt>
      <trkpt lat="41.961647" lon="2.789152">
        <ele>80.56471</ele>
        <time>2021-07-01T13:05:52Z</time>
      </trkpt>
      <trkpt lat="41.961647" lon="2.789152">
        <ele>80.73045</ele>
        <time>2021-07-01T13:05:53Z</time>
      </trkpt>
      <trkpt lat="41.961647" lon="2.789152">
        <ele>84.52637</ele>
        <time>2021-07-01T13:05:54Z</time>
      </trkpt>
      <trkpt lat="41.961647" lon="2.789152">
        <ele>80.85134</ele>
        <time>2021-07-01T13:05:55Z</time>
      </trkpt>
      <trkpt lat="41.961647" lon="2.789152">
        <ele>84.87628</ele>
        <time>2021-07-01T13:05:56Z</time>
      </trkpt>
      <trkpt lat="41.961647" lon="2.789152">
        <ele>81.03402</ele>
        <time>2021-07-01T13:05:57Z</time>
      </trkpt>
      <trkpt lat="41.961647" lon="2.789152">
        <ele>80.68710</ele>
        <time>2021-07-01T13:05:58Z</time>
      </trkpt>
      <trkpt lat="41.961647" lon="2.789152">
        <ele>84.98120</ele>
        <time>2021-07-01T13:05:59Z</time>
      </trkpt>
      <trkpt lat="41.961647" lon="2.789152">
        <ele>86.98523</ele>
        <time>2021-07-01T13:06:00Z</time>
      </trkpt>
      <trkpt lat="41.961647" lon="2.789152">
        <ele>89.90961</ele>
        <time>2021-07-01T13:06:01Z</time>
      </trkpt>
      <trkpt lat="41.961647" lon="2.789152">
        <ele>91.75867</ele>
        <time>2021-07-01T13:06:02Z</time>
      </trkpt>
      <trkpt lat="41.961647" lon="2.789152">
        <ele>92.90125</ele>
        <time>2021-07-01T13:06:03Z</time>
      </trkpt>
      <trkpt lat="41.961647" lon="2.789152">
        <ele>92.82300</ele>
        <time>2021-07-01T13:06:04Z</time>
      </trkpt>
      <trkpt lat="41.961647" lon="2.789152">
        <ele>90.27356</ele>
        <time>2021-07-01T13:06:05Z</time>
      </trkpt>
      <trkpt lat="41.961647" lon="2.789152">
        <ele>91.43597</ele>
        <time>2021-07-01T13:06:06Z</time>
      </trkpt>
      <trkpt lat="41.961647" lon="2.789152">
        <ele>91.26843</ele>
        <time>2021-07-01T13:06:07Z</time>
      </trkpt>
      <trkpt lat="41.961658" lon="2.789182">
        <ele>90.91827</ele>
        <time>2021-07-01T13:06:09Z</time>
      </trkpt>
      <trkpt lat="41.961658" lon="2.789182">
        <ele>89.39899</ele>
        <time>2021-07-01T13:06:09Z</time>
      </trkpt>
      <trkpt lat="41.961685" lon="2.789265">
        <ele>88.09668</ele>
        <time>2021-07-01T13:06:10Z</time>
      </trkpt>
      <trkpt lat="41.961723" lon="2.789370">
        <ele>86.58167</ele>
        <time>2021-07-01T13:06:11Z</time>
      </trkpt>
      <trkpt lat="41.961788" lon="2.789562">
        <ele>85.91248</ele>
        <time>2021-07-01T13:06:12Z</time>
      </trkpt>
      <trkpt lat="41.961800" lon="2.789588">
        <ele>85.82281</ele>
        <time>2021-07-01T13:06:13Z</time>
      </trkpt>
      <trkpt lat="41.961903" lon="2.789873">
        <ele>85.26172</ele>
        <time>2021-07-01T13:06:14Z</time>
      </trkpt>
      <trkpt lat="41.961910" lon="2.789898">
        <ele>85.52063</ele>
        <time>2021-07-01T13:06:15Z</time>
      </trkpt>
      <trkpt lat="41.961929" lon="2.789950">
        <ele>85.38727</ele>
        <time>2021-07-01T13:06:16Z</time>
      </trkpt>
      <trkpt lat="41.961952" lon="2.790009">
        <ele>83.97961</ele>
        <time>2021-07-01T13:06:17Z</time>
      </trkpt>
      <trkpt lat="41.961975" lon="2.790067">
        <ele>82.56360</ele>
        <time>2021-07-01T13:06:18Z</time>
      </trkpt>
      <trkpt lat="41.961975" lon="2.790067">
        <ele>83.08087</ele>
        <time>2021-07-01T13:06:19Z</time>
      </trkpt>
      <trkpt lat="41.961987" lon="2.790098">
        <ele>82.76624</ele>
        <time>2021-07-01T13:06:20Z</time>
      </trkpt>
      <trkpt lat="41.962002" lon="2.790144">
        <ele>81.94049</ele>
        <time>2021-07-01T13:06:21Z</time>
      </trkpt>
      <trkpt lat="41.961990" lon="2.790201">
        <ele>82.97437</ele>
        <time>2021-07-01T13:06:22Z</time>
      </trkpt>
      <trkpt lat="41.961933" lon="2.790268">
        <ele>82.96619</ele>
        <time>2021-07-01T13:06:23Z</time>
      </trkpt>
      <trkpt lat="41.961876" lon="2.790444">
        <ele>82.68994</ele>
        <time>2021-07-01T13:06:24Z</time>
      </trkpt>
      <trkpt lat="41.961880" lon="2.790581">
        <ele>82.22119</ele>
        <time>2021-07-01T13:06:25Z</time>
      </trkpt>
      <trkpt lat="41.961884" lon="2.790608">
        <ele>81.14014</ele>
        <time>2021-07-01T13:06:26Z</time>
      </trkpt>
      <trkpt lat="41.962036" lon="2.790848">
        <ele>81.42218</ele>
        <time>2021-07-01T13:06:27Z</time>
      </trkpt>
      <trkpt lat="41.962067" lon="2.790864">
        <ele>80.26477</ele>
        <time>2021-07-01T13:06:28Z</time>
      </trkpt>
      <trkpt lat="41.962158" lon="2.790877">
        <ele>80.41852</ele>
        <time>2021-07-01T13:06:29Z</time>
      </trkpt>
      <trkpt lat="41.962242" lon="2.790865">
        <ele>82.04974</ele>
        <time>2021-07-01T13:06:30Z</time>
      </trkpt>
      <trkpt lat="41.962242" lon="2.790865">
        <ele>81.96515</ele>
        <time>2021-07-01T13:06:31Z</time>
      </trkpt>
      <trkpt lat="41.962315" lon="2.790814">
        <ele>82.30518</ele>
        <time>2021-07-01T13:06:32Z</time>
      </trkpt>
      <trkpt lat="41.962383" lon="2.790718">
        <ele>82.81927</ele>
        <time>2021-07-01T13:06:33Z</time>
      </trkpt>
      <trkpt lat="41.962410" lon="2.790667">
        <ele>83.09991</ele>
        <time>2021-07-01T13:06:34Z</time>
      </trkpt>
      <trkpt lat="41.962448" lon="2.790532">
        <ele>83.77380</ele>
        <time>2021-07-01T13:06:35Z</time>
      </trkpt>
      <trkpt lat="41.962463" lon="2.790500">
        <ele>84.67419</ele>
        <time>2021-07-01T13:06:36Z</time>
      </trkpt>
      <trkpt lat="41.962589" lon="2.790456">
        <ele>84.69769</ele>
        <time>2021-07-01T13:06:37Z</time>
      </trkpt>
      <trkpt lat="41.962673" lon="2.790428">
        <ele>84.72241</ele>
        <time>2021-07-01T13:06:38Z</time>
      </trkpt>
      <trkpt lat="41.962784" lon="2.790388">
        <ele>84.98212</ele>
        <time>2021-07-01T13:06:39Z</time>
      </trkpt>
      <trkpt lat="41.962852" lon="2.790365">
        <ele>84.32117</ele>
        <time>2021-07-01T13:06:40Z</time>
      </trkpt>
      <trkpt lat="41.962917" lon="2.790342">
        <ele>84.44818</ele>
        <time>2021-07-01T13:06:41Z</time>
      </trkpt>
      <trkpt lat="41.963074" lon="2.790277">
        <ele>84.28748</ele>
        <time>2021-07-01T13:06:42Z</time>
      </trkpt>
      <trkpt lat="41.963181" lon="2.790232">
        <ele>84.80139</ele>
        <time>2021-07-01T13:06:43Z</time>
      </trkpt>
      <trkpt lat="41.963287" lon="2.790175">
        <ele>83.65820</ele>
        <time>2021-07-01T13:06:44Z</time>
      </trkpt>
      <trkpt lat="41.963390" lon="2.790121">
        <ele>82.45020</ele>
        <time>2021-07-01T13:06:45Z</time>
      </trkpt>
      <trkpt lat="41.963436" lon="2.790097">
        <ele>82.06793</ele>
        <time>2021-07-01T13:06:46Z</time>
      </trkpt>
      <trkpt lat="41.963657" lon="2.789962">
        <ele>82.41333</ele>
        <time>2021-07-01T13:06:47Z</time>
      </trkpt>
      <trkpt lat="41.963657" lon="2.789962">
        <ele>81.43195</ele>
        <time>2021-07-01T13:06:48Z</time>
      </trkpt>
      <trkpt lat="41.963657" lon="2.789962">
        <ele>81.34326</ele>
        <time>2021-07-01T13:06:49Z</time>
      </trkpt>
      <trkpt lat="41.963757" lon="2.789901">
        <ele>80.73206</ele>
        <time>2021-07-01T13:06:50Z</time>
      </trkpt>
      <trkpt lat="41.963909" lon="2.789805">
        <ele>81.24396</ele>
        <time>2021-07-01T13:06:51Z</time>
      </trkpt>
      <trkpt lat="41.964012" lon="2.789740">
        <ele>81.73029</ele>
        <time>2021-07-01T13:06:52Z</time>
      </trkpt>
      <trkpt lat="41.964100" lon="2.789684">
        <ele>80.18707</ele>
        <time>2021-07-01T13:06:53Z</time>
      </trkpt>
      <trkpt lat="41.964115" lon="2.789675">
        <ele>80.79633</ele>
        <time>2021-07-01T13:06:54Z</time>
      </trkpt>
      <trkpt lat="41.964314" lon="2.789549">
        <ele>80.96991</ele>
        <time>2021-07-01T13:06:55Z</time>
      </trkpt>
      <trkpt lat="41.964375" lon="2.789509">
        <ele>81.73370</ele>
        <time>2021-07-01T13:06:56Z</time>
      </trkpt>
      <trkpt lat="41.964466" lon="2.789447">
        <ele>81.00824</ele>
        <time>2021-07-01T13:06:57Z</time>
      </trkpt>
      <trkpt lat="41.964493" lon="2.789429">
        <ele>80.77856</ele>
        <time>2021-07-01T13:06:58Z</time>
      </trkpt>
      <trkpt lat="41.964493" lon="2.789429">
        <ele>81.06165</ele>
        <time>2021-07-01T13:06:59Z</time>
      </trkpt>
      <trkpt lat="41.964706" lon="2.789281">
        <ele>79.61053</ele>
        <time>2021-07-01T13:07:00Z</time>
      </trkpt>
      <trkpt lat="41.964771" lon="2.789236">
        <ele>79.22131</ele>
        <time>2021-07-01T13:07:01Z</time>
      </trkpt>
      <trkpt lat="41.964905" lon="2.789141">
        <ele>77.99536</ele>
        <time>2021-07-01T13:07:02Z</time>
      </trkpt>
      <trkpt lat="41.964954" lon="2.789105">
        <ele>77.72485</ele>
        <time>2021-07-01T13:07:03Z</time>
      </trkpt>
      <trkpt lat="41.965042" lon="2.789042">
        <ele>76.75940</ele>
        <time>2021-07-01T13:07:04Z</time>
      </trkpt>
      <trkpt lat="41.965115" lon="2.788992">
        <ele>75.55743</ele>
        <time>2021-07-01T13:07:05Z</time>
      </trkpt>
      <trkpt lat="41.965267" lon="2.788881">
        <ele>75.72998</ele>
        <time>2021-07-01T13:07:06Z</time>
      </trkpt>
      <trkpt lat="41.965324" lon="2.788842">
        <ele>75.64929</ele>
        <time>2021-07-01T13:07:07Z</time>
      </trkpt>
      <trkpt lat="41.965466" lon="2.788741">
        <ele>76.74597</ele>
        <time>2021-07-01T13:07:08Z</time>
      </trkpt>
      <trkpt lat="41.965599" lon="2.788644">
        <ele>75.80426</ele>
        <time>2021-07-01T13:07:09Z</time>
      </trkpt>
      <trkpt lat="41.965672" lon="2.788594">
        <ele>76.16101</ele>
        <time>2021-07-01T13:07:10Z</time>
      </trkpt>
      <trkpt lat="41.965775" lon="2.788521">
        <ele>76.01904</ele>
        <time>2021-07-01T13:07:11Z</time>
      </trkpt>
      <trkpt lat="41.965778" lon="2.788517">
        <ele>75.94836</ele>
        <time>2021-07-01T13:07:12Z</time>
      </trkpt>
      <trkpt lat="41.965939" lon="2.788403">
        <ele>75.72241</ele>
        <time>2021-07-01T13:07:13Z</time>
      </trkpt>
      <trkpt lat="41.965981" lon="2.788372">
        <ele>75.87231</ele>
        <time>2021-07-01T13:07:14Z</time>
      </trkpt>
      <trkpt lat="41.966148" lon="2.788252">
        <ele>76.02136</ele>
        <time>2021-07-01T13:07:15Z</time>
      </trkpt>
      <trkpt lat="41.966259" lon="2.788169">
        <ele>76.59796</ele>
        <time>2021-07-01T13:07:16Z</time>
      </trkpt>
      <trkpt lat="41.966259" lon="2.788169">
        <ele>77.41711</ele>
        <time>2021-07-01T13:07:17Z</time>
      </trkpt>
      <trkpt lat="41.966354" lon="2.788102">
        <ele>77.89868</ele>
        <time>2021-07-01T13:07:18Z</time>
      </trkpt>
      <trkpt lat="41.966408" lon="2.788067">
        <ele>77.81439</ele>
        <time>2021-07-01T13:07:19Z</time>
      </trkpt>
      <trkpt lat="41.966503" lon="2.788004">
        <ele>76.55518</ele>
        <time>2021-07-01T13:07:20Z</time>
      </trkpt>
      <trkpt lat="41.966648" lon="2.787909">
        <ele>77.11420</ele>
        <time>2021-07-01T13:07:21Z</time>
      </trkpt>
      <trkpt lat="41.966736" lon="2.787853">
        <ele>77.19342</ele>
        <time>2021-07-01T13:07:22Z</time>
      </trkpt>
      <trkpt lat="41.966816" lon="2.787833">
        <ele>77.64191</ele>
        <time>2021-07-01T13:07:23Z</time>
      </trkpt>
      <trkpt lat="41.966831" lon="2.787840">
        <ele>77.96259</ele>
        <time>2021-07-01T13:07:24Z</time>
      </trkpt>
      <trkpt lat="41.966885" lon="2.787868">
        <ele>78.67120</ele>
        <time>2021-07-01T13:07:25Z</time>
      </trkpt>
      <trkpt lat="41.966999" lon="2.787851">
        <ele>80.47925</ele>
        <time>2021-07-01T13:07:26Z</time>
      </trkpt>
      <trkpt lat="41.967075" lon="2.787807">
        <ele>81.11499</ele>
        <time>2021-07-01T13:07:27Z</time>
      </trkpt>
      <trkpt lat="41.967106" lon="2.787766">
        <ele>79.08423</ele>
        <time>2021-07-01T13:07:28Z</time>
      </trkpt>
      <trkpt lat="41.967121" lon="2.787744">
        <ele>79.54993</ele>
        <time>2021-07-01T13:07:29Z</time>
      </trkpt>
      <trkpt lat="41.967121" lon="2.787744">
        <ele>81.23169</ele>
        <time>2021-07-01T13:07:30Z</time>
      </trkpt>
      <trkpt lat="41.967155" lon="2.787531">
        <ele>80.90771</ele>
        <time>2021-07-01T13:07:31Z</time>
      </trkpt>
      <trkpt lat="41.967152" lon="2.787512">
        <ele>81.14050</ele>
        <time>2021-07-01T13:07:32Z</time>
      </trkpt>
      <trkpt lat="41.967144" lon="2.787485">
        <ele>81.41675</ele>
        <time>2021-07-01T13:07:33Z</time>
      </trkpt>
      <trkpt lat="41.967144" lon="2.787472">
        <ele>81.02045</ele>
        <time>2021-07-01T13:07:34Z</time>
      </trkpt>
      <trkpt lat="41.967140" lon="2.787469">
        <ele>85.64484</ele>
        <time>2021-07-01T13:07:35Z</time>
      </trkpt>
      <trkpt lat="41.967079" lon="2.787348">
        <ele>84.73071</ele>
        <time>2021-07-01T13:07:36Z</time>
      </trkpt>
      <trkpt lat="41.967014" lon="2.787269">
        <ele>83.79370</ele>
        <time>2021-07-01T13:07:37Z</time>
      </trkpt>
      <trkpt lat="41.966988" lon="2.787178">
        <ele>83.71741</ele>
        <time>2021-07-01T13:07:38Z</time>
      </trkpt>
      <trkpt lat="41.966976" lon="2.787153">
        <ele>83.76038</ele>
        <time>2021-07-01T13:07:39Z</time>
      </trkpt>
      <trkpt lat="41.966976" lon="2.787153">
        <ele>83.50043</ele>
        <time>2021-07-01T13:07:40Z</time>
      </trkpt>
      <trkpt lat="41.966900" lon="2.786915">
        <ele>85.67365</ele>
        <time>2021-07-01T13:07:41Z</time>
      </trkpt>
      <trkpt lat="41.966850" lon="2.786764">
        <ele>85.12048</ele>
        <time>2021-07-01T13:07:42Z</time>
      </trkpt>
      <trkpt lat="41.966770" lon="2.786512">
        <ele>85.11218</ele>
        <time>2021-07-01T13:07:43Z</time>
      </trkpt>
      <trkpt lat="41.966728" lon="2.786385">
        <ele>85.21478</ele>
        <time>2021-07-01T13:07:44Z</time>
      </trkpt>
      <trkpt lat="41.966717" lon="2.786351">
        <ele>84.58698</ele>
        <time>2021-07-01T13:07:45Z</time>
      </trkpt>
      <trkpt lat="41.966644" lon="2.786130">
        <ele>84.27161</ele>
        <time>2021-07-01T13:07:46Z</time>
      </trkpt>
      <trkpt lat="41.966591" lon="2.785959">
        <ele>84.22565</ele>
        <time>2021-07-01T13:07:47Z</time>
      </trkpt>
      <trkpt lat="41.966507" lon="2.785702">
        <ele>84.55457</ele>
        <time>2021-07-01T13:07:48Z</time>
      </trkpt>
      <trkpt lat="41.966446" lon="2.785511">
        <ele>83.27422</ele>
        <time>2021-07-01T13:07:49Z</time>
      </trkpt>
      <trkpt lat="41.966389" lon="2.785337">
        <ele>84.53088</ele>
        <time>2021-07-01T13:07:50Z</time>
      </trkpt>
      <trkpt lat="41.966377" lon="2.785299">
        <ele>85.08490</ele>
        <time>2021-07-01T13:07:51Z</time>
      </trkpt>
      <trkpt lat="41.966232" lon="2.784848">
        <ele>85.59479</ele>
        <time>2021-07-01T13:07:52Z</time>
      </trkpt>
      <trkpt lat="41.966217" lon="2.784804">
        <ele>85.32214</ele>
        <time>2021-07-01T13:07:53Z</time>
      </trkpt>
      <trkpt lat="41.966217" lon="2.784804">
        <ele>85.94238</ele>
        <time>2021-07-01T13:07:54Z</time>
      </trkpt>
      <trkpt lat="41.966183" lon="2.784692">
        <ele>86.27173</ele>
        <time>2021-07-01T13:07:55Z</time>
      </trkpt>
      <trkpt lat="41.966064" lon="2.784321">
        <ele>86.06982</ele>
        <time>2021-07-01T13:07:56Z</time>
      </trkpt>
      <trkpt lat="41.966026" lon="2.784207">
        <ele>86.56042</ele>
        <time>2021-07-01T13:07:57Z</time>
      </trkpt>
      <trkpt lat="41.965977" lon="2.784046">
        <ele>86.83252</ele>
        <time>2021-07-01T13:07:58Z</time>
      </trkpt>
      <trkpt lat="41.965927" lon="2.783906">
        <ele>86.77045</ele>
        <time>2021-07-01T13:07:59Z</time>
      </trkpt>
      <trkpt lat="41.965874" lon="2.783747">
        <ele>86.73694</ele>
        <time>2021-07-01T13:08:00Z</time>
      </trkpt>
      <trkpt lat="41.965862" lon="2.783716">
        <ele>87.16064</ele>
        <time>2021-07-01T13:08:01Z</time>
      </trkpt>
      <trkpt lat="41.965744" lon="2.783368">
        <ele>87.15051</ele>
        <time>2021-07-01T13:08:02Z</time>
      </trkpt>
      <trkpt lat="41.965736" lon="2.783345">
        <ele>87.51379</ele>
        <time>2021-07-01T13:08:03Z</time>
      </trkpt>
      <trkpt lat="41.965641" lon="2.783064">
        <ele>87.27478</ele>
        <time>2021-07-01T13:08:04Z</time>
      </trkpt>
      <trkpt lat="41.965626" lon="2.783027">
        <ele>87.84363</ele>
        <time>2021-07-01T13:08:05Z</time>
      </trkpt>
      <trkpt lat="41.965561" lon="2.782815">
        <ele>88.12976</ele>
        <time>2021-07-01T13:08:06Z</time>
      </trkpt>
      <trkpt lat="41.965561" lon="2.782815">
        <ele>87.96124</ele>
        <time>2021-07-01T13:08:07Z</time>
      </trkpt>
      <trkpt lat="41.965542" lon="2.782759">
        <ele>87.11420</ele>
        <time>2021-07-01T13:08:08Z</time>
      </trkpt>
      <trkpt lat="41.965511" lon="2.782666">
        <ele>86.77759</ele>
        <time>2021-07-01T13:08:09Z</time>
      </trkpt>
      <trkpt lat="41.965492" lon="2.782606">
        <ele>87.56592</ele>
        <time>2021-07-01T13:08:10Z</time>
      </trkpt>
      <trkpt lat="41.965496" lon="2.782530">
        <ele>86.82397</ele>
        <time>2021-07-01T13:08:11Z</time>
      </trkpt>
      <trkpt lat="41.965534" lon="2.782393">
        <ele>87.08838</ele>
        <time>2021-07-01T13:08:12Z</time>
      </trkpt>
      <trkpt lat="41.965542" lon="2.782241">
        <ele>87.83868</ele>
        <time>2021-07-01T13:08:13Z</time>
      </trkpt>
      <trkpt lat="41.965500" lon="2.782141">
        <ele>88.28296</ele>
        <time>2021-07-01T13:08:14Z</time>
      </trkpt>
      <trkpt lat="41.965473" lon="2.782105">
        <ele>87.73877</ele>
        <time>2021-07-01T13:08:15Z</time>
      </trkpt>
      <trkpt lat="41.965462" lon="2.782094">
        <ele>87.47345</ele>
        <time>2021-07-01T13:08:16Z</time>
      </trkpt>
      <trkpt lat="41.965237" lon="2.782027">
        <ele>87.68518</ele>
        <time>2021-07-01T13:08:17Z</time>
      </trkpt>
      <trkpt lat="41.965229" lon="2.782031">
        <ele>87.66956</ele>
        <time>2021-07-01T13:08:18Z</time>
      </trkpt>
      <trkpt lat="41.965134" lon="2.781777">
        <ele>88.54980</ele>
        <time>2021-07-01T13:08:19Z</time>
      </trkpt>
      <trkpt lat="41.965134" lon="2.781777">
        <ele>88.64441</ele>
        <time>2021-07-01T13:08:20Z</time>
      </trkpt>
      <trkpt lat="41.965084" lon="2.781638">
        <ele>89.85809</ele>
        <time>2021-07-01T13:08:21Z</time>
      </trkpt>
      <trkpt lat="41.965034" lon="2.781484">
        <ele>90.76239</ele>
        <time>2021-07-01T13:08:22Z</time>
      </trkpt>
      <trkpt lat="41.964989" lon="2.781346">
        <ele>92.17065</ele>
        <time>2021-07-01T13:08:23Z</time>
      </trkpt>
      <trkpt lat="41.964935" lon="2.781203">
        <ele>91.79089</ele>
        <time>2021-07-01T13:08:24Z</time>
      </trkpt>
      <trkpt lat="41.964878" lon="2.781054">
        <ele>92.75409</ele>
        <time>2021-07-01T13:08:25Z</time>
      </trkpt>
      <trkpt lat="41.964867" lon="2.781020">
        <ele>93.61072</ele>
        <time>2021-07-01T13:08:26Z</time>
      </trkpt>
      <trkpt lat="41.964710" lon="2.780593">
        <ele>94.18982</ele>
        <time>2021-07-01T13:08:27Z</time>
      </trkpt>
      <trkpt lat="41.964672" lon="2.780485">
        <ele>94.88141</ele>
        <time>2021-07-01T13:08:28Z</time>
      </trkpt>
      <trkpt lat="41.964661" lon="2.780448">
        <ele>95.42358</ele>
        <time>2021-07-01T13:08:29Z</time>
      </trkpt>
      <trkpt lat="41.964577" lon="2.780164">
        <ele>95.70441</ele>
        <time>2021-07-01T13:08:30Z</time>
      </trkpt>
      <trkpt lat="41.964516" lon="2.779962">
        <ele>96.13464</ele>
        <time>2021-07-01T13:08:31Z</time>
      </trkpt>
      <trkpt lat="41.964516" lon="2.779962">
        <ele>96.00574</ele>
        <time>2021-07-01T13:08:32Z</time>
      </trkpt>
      <trkpt lat="41.964481" lon="2.779854">
        <ele>95.92542</ele>
        <time>2021-07-01T13:08:33Z</time>
      </trkpt>
      <trkpt lat="41.964447" lon="2.779748">
        <ele>95.87585</ele>
        <time>2021-07-01T13:08:34Z</time>
      </trkpt>
      <trkpt lat="41.964355" lon="2.779471">
        <ele>95.89777</ele>
        <time>2021-07-01T13:08:35Z</time>
      </trkpt>
      <trkpt lat="41.964333" lon="2.779398">
        <ele>94.78583</ele>
        <time>2021-07-01T13:08:36Z</time>
      </trkpt>
      <trkpt lat="41.964279" lon="2.779235">
        <ele>94.68671</ele>
        <time>2021-07-01T13:08:37Z</time>
      </trkpt>
      <trkpt lat="41.964188" lon="2.778955">
        <ele>93.90295</ele>
        <time>2021-07-01T13:08:38Z</time>
      </trkpt>
      <trkpt lat="41.964108" lon="2.778747">
        <ele>92.68994</ele>
        <time>2021-07-01T13:08:39Z</time>
      </trkpt>
      <trkpt lat="41.964046" lon="2.778586">
        <ele>91.28540</ele>
        <time>2021-07-01T13:08:40Z</time>
      </trkpt>
      <trkpt lat="41.964039" lon="2.778564">
        <ele>91.10022</ele>
        <time>2021-07-01T13:08:41Z</time>
      </trkpt>
      <trkpt lat="41.963894" lon="2.778176">
        <ele>90.95520</ele>
        <time>2021-07-01T13:08:42Z</time>
      </trkpt>
      <trkpt lat="41.963860" lon="2.778087">
        <ele>90.51062</ele>
        <time>2021-07-01T13:08:43Z</time>
      </trkpt>
      <trkpt lat="41.963860" lon="2.778087">
        <ele>91.56116</ele>
        <time>2021-07-01T13:08:44Z</time>
      </trkpt>
      <trkpt lat="41.963799" lon="2.777918">
        <ele>91.01416</ele>
        <time>2021-07-01T13:08:45Z</time>
      </trkpt>
      <trkpt lat="41.963772" lon="2.777853">
        <ele>91.31519</ele>
        <time>2021-07-01T13:08:46Z</time>
      </trkpt>
      <trkpt lat="41.963696" lon="2.777645">
        <ele>90.47284</ele>
        <time>2021-07-01T13:08:47Z</time>
      </trkpt>
      <trkpt lat="41.963593" lon="2.777402">
        <ele>90.70959</ele>
        <time>2021-07-01T13:08:48Z</time>
      </trkpt>
      <trkpt lat="41.963589" lon="2.777397">
        <ele>91.08795</ele>
        <time>2021-07-01T13:08:49Z</time>
      </trkpt>
      <trkpt lat="41.963501" lon="2.777216">
        <ele>91.63611</ele>
        <time>2021-07-01T13:08:50Z</time>
      </trkpt>
      <trkpt lat="41.963467" lon="2.777147">
        <ele>92.91663</ele>
        <time>2021-07-01T13:08:51Z</time>
      </trkpt>
      <trkpt lat="41.963333" lon="2.776923">
        <ele>92.29486</ele>
        <time>2021-07-01T13:08:52Z</time>
      </trkpt>
      <trkpt lat="41.963261" lon="2.776817">
        <ele>92.08923</ele>
        <time>2021-07-01T13:08:53Z</time>
      </trkpt>
      <trkpt lat="41.963207" lon="2.776753">
        <ele>92.86450</ele>
        <time>2021-07-01T13:08:54Z</time>
      </trkpt>
      <trkpt lat="41.963207" lon="2.776753">
        <ele>92.99719</ele>
        <time>2021-07-01T13:08:55Z</time>
      </trkpt>
      <trkpt lat="41.963169" lon="2.776714">
        <ele>92.69995</ele>
        <time>2021-07-01T13:08:56Z</time>
      </trkpt>
      <trkpt lat="41.963226" lon="2.776576">
        <ele>93.25732</ele>
        <time>2021-07-01T13:08:57Z</time>
      </trkpt>
      <trkpt lat="41.963242" lon="2.776534">
        <ele>93.29694</ele>
        <time>2021-07-01T13:08:58Z</time>
      </trkpt>
      <trkpt lat="41.963326" lon="2.776470">
        <ele>93.35645</ele>
        <time>2021-07-01T13:08:59Z</time>
      </trkpt>
      <trkpt lat="41.963467" lon="2.776370">
        <ele>93.10425</ele>
        <time>2021-07-01T13:09:00Z</time>
      </trkpt>
      <trkpt lat="41.963486" lon="2.776354">
        <ele>93.09583</ele>
        <time>2021-07-01T13:09:01Z</time>
      </trkpt>
      <trkpt lat="41.963676" lon="2.776186">
        <ele>91.59686</ele>
        <time>2021-07-01T13:09:02Z</time>
      </trkpt>
      <trkpt lat="41.963772" lon="2.776113">
        <ele>91.43915</ele>
        <time>2021-07-01T13:09:03Z</time>
      </trkpt>
      <trkpt lat="41.963844" lon="2.776055">
        <ele>89.95026</ele>
        <time>2021-07-01T13:09:04Z</time>
      </trkpt>
      <trkpt lat="41.963955" lon="2.775970">
        <ele>90.62189</ele>
        <time>2021-07-01T13:09:05Z</time>
      </trkpt>
      <trkpt lat="41.963955" lon="2.775970">
        <ele>90.82391</ele>
        <time>2021-07-01T13:09:06Z</time>
      </trkpt>
      <trkpt lat="41.964046" lon="2.775899">
        <ele>90.03778</ele>
        <time>2021-07-01T13:09:07Z</time>
      </trkpt>
      <trkpt lat="41.964134" lon="2.775831">
        <ele>91.30725</ele>
        <time>2021-07-01T13:09:08Z</time>
      </trkpt>
      <trkpt lat="41.964184" lon="2.775795">
        <ele>90.02527</ele>
        <time>2021-07-01T13:09:09Z</time>
      </trkpt>
      <trkpt lat="41.964268" lon="2.775730">
        <ele>90.32513</ele>
        <time>2021-07-01T13:09:10Z</time>
      </trkpt>
      <trkpt lat="41.964382" lon="2.775638">
        <ele>90.97430</ele>
        <time>2021-07-01T13:09:11Z</time>
      </trkpt>
      <trkpt lat="41.964458" lon="2.775582">
        <ele>91.24780</ele>
        <time>2021-07-01T13:09:12Z</time>
      </trkpt>
      <trkpt lat="41.964546" lon="2.775512">
        <ele>92.13342</ele>
        <time>2021-07-01T13:09:13Z</time>
      </trkpt>
      <trkpt lat="41.964684" lon="2.775404">
        <ele>90.28204</ele>
        <time>2021-07-01T13:09:14Z</time>
      </trkpt>
      <trkpt lat="41.964722" lon="2.775371">
        <ele>90.60809</ele>
        <time>2021-07-01T13:09:15Z</time>
      </trkpt>
      <trkpt lat="41.964817" lon="2.775293">
        <ele>90.48535</ele>
        <time>2021-07-01T13:09:16Z</time>
      </trkpt>
      <trkpt lat="41.964931" lon="2.775194">
        <ele>91.41937</ele>
        <time>2021-07-01T13:09:17Z</time>
      </trkpt>
      <trkpt lat="41.965019" lon="2.775122">
        <ele>91.04700</ele>
        <time>2021-07-01T13:09:18Z</time>
      </trkpt>
      <trkpt lat="41.965084" lon="2.775067">
        <ele>90.46826</ele>
        <time>2021-07-01T13:09:19Z</time>
      </trkpt>
      <trkpt lat="41.965084" lon="2.775067">
        <ele>90.44684</ele>
        <time>2021-07-01T13:09:20Z</time>
      </trkpt>
      <trkpt lat="41.965134" lon="2.775026">
        <ele>90.47205</ele>
        <time>2021-07-01T13:09:21Z</time>
      </trkpt>
      <trkpt lat="41.965298" lon="2.774888">
        <ele>90.98334</ele>
        <time>2021-07-01T13:09:22Z</time>
      </trkpt>
      <trkpt lat="41.965347" lon="2.774847">
        <ele>90.88232</ele>
        <time>2021-07-01T13:09:23Z</time>
      </trkpt>
      <trkpt lat="41.965500" lon="2.774717">
        <ele>89.73560</ele>
        <time>2021-07-01T13:09:24Z</time>
      </trkpt>
      <trkpt lat="41.965607" lon="2.774630">
        <ele>89.72137</ele>
        <time>2021-07-01T13:09:25Z</time>
      </trkpt>
      <trkpt lat="41.965672" lon="2.774582">
        <ele>88.61743</ele>
        <time>2021-07-01T13:09:26Z</time>
      </trkpt>
      <trkpt lat="41.965775" lon="2.774506">
        <ele>88.85559</ele>
        <time>2021-07-01T13:09:27Z</time>
      </trkpt>
      <trkpt lat="41.965885" lon="2.774427">
        <ele>88.72778</ele>
        <time>2021-07-01T13:09:28Z</time>
      </trkpt>
      <trkpt lat="41.965889" lon="2.774422">
        <ele>88.95636</ele>
        <time>2021-07-01T13:09:29Z</time>
      </trkpt>
      <trkpt lat="41.966145" lon="2.774236">
        <ele>89.00806</ele>
        <time>2021-07-01T13:09:30Z</time>
      </trkpt>
      <trkpt lat="41.966190" lon="2.774202">
        <ele>89.30157</ele>
        <time>2021-07-01T13:09:31Z</time>
      </trkpt>
      <trkpt lat="41.966248" lon="2.774159">
        <ele>89.70087</ele>
        <time>2021-07-01T13:09:32Z</time>
      </trkpt>
      <trkpt lat="41.966290" lon="2.774128">
        <ele>90.05682</ele>
        <time>2021-07-01T13:09:33Z</time>
      </trkpt>
      <trkpt lat="41.966290" lon="2.774128">
        <ele>90.37683</ele>
        <time>2021-07-01T13:09:34Z</time>
      </trkpt>
      <trkpt lat="41.966419" lon="2.774032">
        <ele>91.03796</ele>
        <time>2021-07-01T13:09:35Z</time>
      </trkpt>
      <trkpt lat="41.966434" lon="2.774021">
        <ele>91.61591</ele>
        <time>2021-07-01T13:09:36Z</time>
      </trkpt>
      <trkpt lat="41.966469" lon="2.773997">
        <ele>91.17438</ele>
        <time>2021-07-01T13:09:37Z</time>
      </trkpt>
      <trkpt lat="41.966629" lon="2.773864">
        <ele>89.93066</ele>
        <time>2021-07-01T13:09:38Z</time>
      </trkpt>
      <trkpt lat="41.966690" lon="2.773806">
        <ele>90.78516</ele>
        <time>2021-07-01T13:09:39Z</time>
      </trkpt>
      <trkpt lat="41.966763" lon="2.773755">
        <ele>88.93567</ele>
        <time>2021-07-01T13:09:40Z</time>
      </trkpt>
      <trkpt lat="41.966812" lon="2.773720">
        <ele>88.51648</ele>
        <time>2021-07-01T13:09:41Z</time>
      </trkpt>
      <trkpt lat="41.966934" lon="2.773632">
        <ele>87.90198</ele>
        <time>2021-07-01T13:09:42Z</time>
      </trkpt>
      <trkpt lat="41.967037" lon="2.773555">
        <ele>88.10901</ele>
        <time>2021-07-01T13:09:43Z</time>
      </trkpt>
      <trkpt lat="41.967136" lon="2.773484">
        <ele>87.91205</ele>
        <time>2021-07-01T13:09:44Z</time>
      </trkpt>
      <trkpt lat="41.967190" lon="2.773447">
        <ele>88.55811</ele>
        <time>2021-07-01T13:09:45Z</time>
      </trkpt>
      <trkpt lat="41.967258" lon="2.773401">
        <ele>88.44043</ele>
        <time>2021-07-01T13:09:46Z</time>
      </trkpt>
      <trkpt lat="41.967339" lon="2.773358">
        <ele>88.21533</ele>
        <time>2021-07-01T13:09:47Z</time>
      </trkpt>
      <trkpt lat="41.967400" lon="2.773323">
        <ele>88.28802</ele>
        <time>2021-07-01T13:09:48Z</time>
      </trkpt>
      <trkpt lat="41.967587" lon="2.773244">
        <ele>87.93555</ele>
        <time>2021-07-01T13:09:49Z</time>
      </trkpt>
      <trkpt lat="41.967587" lon="2.773244">
        <ele>88.03851</ele>
        <time>2021-07-01T13:09:50Z</time>
      </trkpt>
      <trkpt lat="41.967625" lon="2.773230">
        <ele>88.00281</ele>
        <time>2021-07-01T13:09:51Z</time>
      </trkpt>
      <trkpt lat="41.967754" lon="2.773198">
        <ele>88.24329</ele>
        <time>2021-07-01T13:09:52Z</time>
      </trkpt>
      <trkpt lat="41.967880" lon="2.773177">
        <ele>89.16687</ele>
        <time>2021-07-01T13:09:53Z</time>
      </trkpt>
      <trkpt lat="41.967907" lon="2.773172">
        <ele>88.65704</ele>
        <time>2021-07-01T13:09:54Z</time>
      </trkpt>
      <trkpt lat="41.968086" lon="2.773143">
        <ele>88.76849</ele>
        <time>2021-07-01T13:09:55Z</time>
      </trkpt>
      <trkpt lat="41.968193" lon="2.773126">
        <ele>88.95032</ele>
        <time>2021-07-01T13:09:56Z</time>
      </trkpt>
      <trkpt lat="41.968269" lon="2.773115">
        <ele>88.69159</ele>
        <time>2021-07-01T13:09:57Z</time>
      </trkpt>
      <trkpt lat="41.968292" lon="2.773111">
        <ele>89.18481</ele>
        <time>2021-07-01T13:09:58Z</time>
      </trkpt>
      <trkpt lat="41.968575" lon="2.773067">
        <ele>88.06116</ele>
        <time>2021-07-01T13:09:59Z</time>
      </trkpt>
      <trkpt lat="41.968594" lon="2.773064">
        <ele>87.81580</ele>
        <time>2021-07-01T13:10:00Z</time>
      </trkpt>
      <trkpt lat="41.968651" lon="2.773055">
        <ele>86.54095</ele>
        <time>2021-07-01T13:10:01Z</time>
      </trkpt>
      <trkpt lat="41.968651" lon="2.773055">
        <ele>86.43665</ele>
        <time>2021-07-01T13:10:02Z</time>
      </trkpt>
      <trkpt lat="41.968842" lon="2.773026">
        <ele>85.84631</ele>
        <time>2021-07-01T13:10:03Z</time>
      </trkpt>
      <trkpt lat="41.968868" lon="2.773021">
        <ele>85.46674</ele>
        <time>2021-07-01T13:10:04Z</time>
      </trkpt>
      <trkpt lat="41.968925" lon="2.773012">
        <ele>85.66400</ele>
        <time>2021-07-01T13:10:05Z</time>
      </trkpt>
      <trkpt lat="41.969120" lon="2.772982">
        <ele>83.15820</ele>
        <time>2021-07-01T13:10:06Z</time>
      </trkpt>
      <trkpt lat="41.969261" lon="2.772961">
        <ele>83.50610</ele>
        <time>2021-07-01T13:10:07Z</time>
      </trkpt>
      <trkpt lat="41.969376" lon="2.772979">
        <ele>83.58020</ele>
        <time>2021-07-01T13:10:08Z</time>
      </trkpt>
      <trkpt lat="41.969421" lon="2.773004">
        <ele>83.56268</ele>
        <time>2021-07-01T13:10:09Z</time>
      </trkpt>
      <trkpt lat="41.969433" lon="2.773007">
        <ele>83.67542</ele>
        <time>2021-07-01T13:10:10Z</time>
      </trkpt>
      <trkpt lat="41.969517" lon="2.773047">
        <ele>84.36383</ele>
        <time>2021-07-01T13:10:11Z</time>
      </trkpt>
      <trkpt lat="41.969543" lon="2.773157">
        <ele>84.21729</ele>
        <time>2021-07-01T13:10:12Z</time>
      </trkpt>
      <trkpt lat="41.969635" lon="2.773229">
        <ele>83.98999</ele>
        <time>2021-07-01T13:10:13Z</time>
      </trkpt>
      <trkpt lat="41.969635" lon="2.773229">
        <ele>84.60889</ele>
        <time>2021-07-01T13:10:14Z</time>
      </trkpt>
      <trkpt lat="41.969715" lon="2.773214">
        <ele>85.20746</ele>
        <time>2021-07-01T13:10:15Z</time>
      </trkpt>
      <trkpt lat="41.969742" lon="2.773183">
        <ele>85.46289</ele>
        <time>2021-07-01T13:10:16Z</time>
      </trkpt>
      <trkpt lat="41.969772" lon="2.773053">
        <ele>85.52386</ele>
        <time>2021-07-01T13:10:17Z</time>
      </trkpt>
      <trkpt lat="41.969757" lon="2.772952">
        <ele>84.00208</ele>
        <time>2021-07-01T13:10:18Z</time>
      </trkpt>
      <trkpt lat="41.969757" lon="2.772952">
        <ele>85.15149</ele>
        <time>2021-07-01T13:10:19Z</time>
      </trkpt>
      <trkpt lat="41.969627" lon="2.772586">
        <ele>85.68085</ele>
        <time>2021-07-01T13:10:20Z</time>
      </trkpt>
      <trkpt lat="41.969601" lon="2.772418">
        <ele>86.17596</ele>
        <time>2021-07-01T13:10:21Z</time>
      </trkpt>
      <trkpt lat="41.969540" lon="2.771947">
        <ele>86.79242</ele>
        <time>2021-07-01T13:10:22Z</time>
      </trkpt>
      <trkpt lat="41.969528" lon="2.771846">
        <ele>86.15326</ele>
        <time>2021-07-01T13:10:23Z</time>
      </trkpt>
      <trkpt lat="41.969528" lon="2.771846">
        <ele>86.89093</ele>
        <time>2021-07-01T13:10:24Z</time>
      </trkpt>
      <trkpt lat="41.969517" lon="2.771756">
        <ele>88.18262</ele>
        <time>2021-07-01T13:10:25Z</time>
      </trkpt>
      <trkpt lat="41.969475" lon="2.771406">
        <ele>86.99121</ele>
        <time>2021-07-01T13:10:26Z</time>
      </trkpt>
      <trkpt lat="41.969471" lon="2.771267">
        <ele>87.11328</ele>
        <time>2021-07-01T13:10:27Z</time>
      </trkpt>
      <trkpt lat="41.969467" lon="2.771185">
        <ele>88.12903</ele>
        <time>2021-07-01T13:10:28Z</time>
      </trkpt>
      <trkpt lat="41.969456" lon="2.770946">
        <ele>88.47449</ele>
        <time>2021-07-01T13:10:29Z</time>
      </trkpt>
      <trkpt lat="41.969448" lon="2.770843">
        <ele>89.34521</ele>
        <time>2021-07-01T13:10:30Z</time>
      </trkpt>
      <trkpt lat="41.969536" lon="2.770672">
        <ele>89.58167</ele>
        <time>2021-07-01T13:10:31Z</time>
      </trkpt>
      <trkpt lat="41.969582" lon="2.770511">
        <ele>89.17297</ele>
        <time>2021-07-01T13:10:32Z</time>
      </trkpt>
      <trkpt lat="41.969551" lon="2.770395">
        <ele>89.55029</ele>
        <time>2021-07-01T13:10:33Z</time>
      </trkpt>
      <trkpt lat="41.969528" lon="2.770363">
        <ele>90.32080</ele>
        <time>2021-07-01T13:10:34Z</time>
      </trkpt>
      <trkpt lat="41.969524" lon="2.770359">
        <ele>89.76355</ele>
        <time>2021-07-01T13:10:35Z</time>
      </trkpt>
      <trkpt lat="41.969410" lon="2.770092">
        <ele>88.38855</ele>
        <time>2021-07-01T13:10:36Z</time>
      </trkpt>
      <trkpt lat="41.969402" lon="2.769909">
        <ele>89.11774</ele>
        <time>2021-07-01T13:10:37Z</time>
      </trkpt>
      <trkpt lat="41.969395" lon="2.769781">
        <ele>88.39636</ele>
        <time>2021-07-01T13:10:38Z</time>
      </trkpt>
      <trkpt lat="41.969387" lon="2.769608">
        <ele>88.02161</ele>
        <time>2021-07-01T13:10:39Z</time>
      </trkpt>
      <trkpt lat="41.969387" lon="2.769608">
        <ele>88.21820</ele>
        <time>2021-07-01T13:10:40Z</time>
      </trkpt>
      <trkpt lat="41.969379" lon="2.769476">
        <ele>88.68677</ele>
        <time>2021-07-01T13:10:41Z</time>
      </trkpt>
      <trkpt lat="41.969372" lon="2.769339">
        <ele>89.51843</ele>
        <time>2021-07-01T13:10:42Z</time>
      </trkpt>
      <trkpt lat="41.969349" lon="2.769029">
        <ele>88.18451</ele>
        <time>2021-07-01T13:10:43Z</time>
      </trkpt>
      <trkpt lat="41.969341" lon="2.768903">
        <ele>88.48901</ele>
        <time>2021-07-01T13:10:44Z</time>
      </trkpt>
      <trkpt lat="41.969326" lon="2.768637">
        <ele>88.25366</ele>
        <time>2021-07-01T13:10:45Z</time>
      </trkpt>
      <trkpt lat="41.969311" lon="2.768303">
        <ele>87.69495</ele>
        <time>2021-07-01T13:10:46Z</time>
      </trkpt>
      <trkpt lat="41.969299" lon="2.768096">
        <ele>88.12384</ele>
        <time>2021-07-01T13:10:47Z</time>
      </trkpt>
      <trkpt lat="41.969292" lon="2.767835">
        <ele>87.56372</ele>
        <time>2021-07-01T13:10:48Z</time>
      </trkpt>
      <trkpt lat="41.969288" lon="2.767798">
        <ele>87.56262</ele>
        <time>2021-07-01T13:10:49Z</time>
      </trkpt>
      <trkpt lat="41.969284" lon="2.767508">
        <ele>87.55896</ele>
        <time>2021-07-01T13:10:50Z</time>
      </trkpt>
      <trkpt lat="41.969276" lon="2.767183">
        <ele>87.68604</ele>
        <time>2021-07-01T13:10:51Z</time>
      </trkpt>
      <trkpt lat="41.969273" lon="2.767001">
        <ele>88.02814</ele>
        <time>2021-07-01T13:10:52Z</time>
      </trkpt>
      <trkpt lat="41.969273" lon="2.766970">
        <ele>88.31012</ele>
        <time>2021-07-01T13:10:53Z</time>
      </trkpt>
      <trkpt lat="41.969288" lon="2.766601">
        <ele>88.91931</ele>
        <time>2021-07-01T13:10:54Z</time>
      </trkpt>
      <trkpt lat="41.969288" lon="2.766601">
        <ele>89.20251</ele>
        <time>2021-07-01T13:10:55Z</time>
      </trkpt>
      <trkpt lat="41.969292" lon="2.766452">
        <ele>89.45868</ele>
        <time>2021-07-01T13:10:56Z</time>
      </trkpt>
      <trkpt lat="41.969303" lon="2.766371">
        <ele>89.25452</ele>
        <time>2021-07-01T13:10:57Z</time>
      </trkpt>
      <trkpt lat="41.969341" lon="2.766093">
        <ele>89.18579</ele>
        <time>2021-07-01T13:10:58Z</time>
      </trkpt>
      <trkpt lat="41.969353" lon="2.766011">
        <ele>89.60742</ele>
        <time>2021-07-01T13:10:59Z</time>
      </trkpt>
      <trkpt lat="41.969395" lon="2.765720">
        <ele>90.18994</ele>
        <time>2021-07-01T13:11:00Z</time>
      </trkpt>
      <trkpt lat="41.969433" lon="2.765527">
        <ele>91.26709</ele>
        <time>2021-07-01T13:11:01Z</time>
      </trkpt>
      <trkpt lat="41.969509" lon="2.765116">
        <ele>91.51050</ele>
        <time>2021-07-01T13:11:02Z</time>
      </trkpt>
      <trkpt lat="41.969543" lon="2.764957">
        <ele>91.63531</ele>
        <time>2021-07-01T13:11:03Z</time>
      </trkpt>
      <trkpt lat="41.969604" lon="2.764588">
        <ele>92.31567</ele>
        <time>2021-07-01T13:11:04Z</time>
      </trkpt>
      <trkpt lat="41.969666" lon="2.764271">
        <ele>92.09369</ele>
        <time>2021-07-01T13:11:05Z</time>
      </trkpt>
      <trkpt lat="41.969715" lon="2.764008">
        <ele>92.07800</ele>
        <time>2021-07-01T13:11:06Z</time>
      </trkpt>
      <trkpt lat="41.969765" lon="2.763721">
        <ele>92.15942</ele>
        <time>2021-07-01T13:11:07Z</time>
      </trkpt>
      <trkpt lat="41.969776" lon="2.763650">
        <ele>92.33069</ele>
        <time>2021-07-01T13:11:08Z</time>
      </trkpt>
      <trkpt lat="41.969894" lon="2.762992">
        <ele>90.86316</ele>
        <time>2021-07-01T13:11:09Z</time>
      </trkpt>
      <trkpt lat="41.969894" lon="2.762992">
        <ele>89.47681</ele>
        <time>2021-07-01T13:11:10Z</time>
      </trkpt>
      <trkpt lat="41.969910" lon="2.762939">
        <ele>91.09265</ele>
        <time>2021-07-01T13:11:11Z</time>
      </trkpt>
      <trkpt lat="41.969967" lon="2.762693">
        <ele>91.68903</ele>
        <time>2021-07-01T13:11:12Z</time>
      </trkpt>
      <trkpt lat="41.970039" lon="2.762395">
        <ele>92.30994</ele>
        <time>2021-07-01T13:11:13Z</time>
      </trkpt>
      <trkpt lat="41.970127" lon="2.762031">
        <ele>91.65997</ele>
        <time>2021-07-01T13:11:14Z</time>
      </trkpt>
      <trkpt lat="41.970158" lon="2.761905">
        <ele>91.82410</ele>
        <time>2021-07-01T13:11:15Z</time>
      </trkpt>
      <trkpt lat="41.970222" lon="2.761573">
        <ele>90.65973</ele>
        <time>2021-07-01T13:11:16Z</time>
      </trkpt>
      <trkpt lat="41.970284" lon="2.761290">
        <ele>90.54291</ele>
        <time>2021-07-01T13:11:17Z</time>
      </trkpt>
      <trkpt lat="41.970325" lon="2.761067">
        <ele>91.05261</ele>
        <time>2021-07-01T13:11:18Z</time>
      </trkpt>
      <trkpt lat="41.970325" lon="2.761056">
        <ele>91.55212</ele>
        <time>2021-07-01T13:11:19Z</time>
      </trkpt>
      <trkpt lat="41.970459" lon="2.760459">
        <ele>91.44666</ele>
        <time>2021-07-01T13:11:20Z</time>
      </trkpt>
      <trkpt lat="41.970505" lon="2.760245">
        <ele>91.14441</ele>
        <time>2021-07-01T13:11:21Z</time>
      </trkpt>
      <trkpt lat="41.970505" lon="2.760245">
        <ele>90.94977</ele>
        <time>2021-07-01T13:11:22Z</time>
      </trkpt>
      <trkpt lat="41.970551" lon="2.760037">
        <ele>91.93237</ele>
        <time>2021-07-01T13:11:23Z</time>
      </trkpt>
      <trkpt lat="41.970585" lon="2.759887">
        <ele>91.89478</ele>
        <time>2021-07-01T13:11:24Z</time>
      </trkpt>
      <trkpt lat="41.970676" lon="2.759437">
        <ele>91.06506</ele>
        <time>2021-07-01T13:11:25Z</time>
      </trkpt>
      <trkpt lat="41.970749" lon="2.759039">
        <ele>91.70551</ele>
        <time>2021-07-01T13:11:26Z</time>
      </trkpt>
      <trkpt lat="41.970818" lon="2.758671">
        <ele>90.46759</ele>
        <time>2021-07-01T13:11:27Z</time>
      </trkpt>
      <trkpt lat="41.970886" lon="2.758356">
        <ele>89.61096</ele>
        <time>2021-07-01T13:11:28Z</time>
      </trkpt>
      <trkpt lat="41.970894" lon="2.758300">
        <ele>87.85004</ele>
        <time>2021-07-01T13:11:29Z</time>
      </trkpt>
      <trkpt lat="41.970959" lon="2.757862">
        <ele>87.18323</ele>
        <time>2021-07-01T13:11:30Z</time>
      </trkpt>
      <trkpt lat="41.970982" lon="2.757363">
        <ele>87.24646</ele>
        <time>2021-07-01T13:11:31Z</time>
      </trkpt>
      <trkpt lat="41.970978" lon="2.757293">
        <ele>88.19812</ele>
        <time>2021-07-01T13:11:32Z</time>
      </trkpt>
      <trkpt lat="41.970848" lon="2.756498">
        <ele>88.38599</ele>
        <time>2021-07-01T13:11:33Z</time>
      </trkpt>
      <trkpt lat="41.970802" lon="2.756259">
        <ele>87.81006</ele>
        <time>2021-07-01T13:11:34Z</time>
      </trkpt>
      <trkpt lat="41.970802" lon="2.756259">
        <ele>88.80200</ele>
        <time>2021-07-01T13:11:35Z</time>
      </trkpt>
      <trkpt lat="41.970745" lon="2.755936">
        <ele>89.50714</ele>
        <time>2021-07-01T13:11:36Z</time>
      </trkpt>
      <trkpt lat="41.970692" lon="2.755641">
        <ele>89.74133</ele>
        <time>2021-07-01T13:11:37Z</time>
      </trkpt>
      <trkpt lat="41.970634" lon="2.755309">
        <ele>90.88782</ele>
        <time>2021-07-01T13:11:38Z</time>
      </trkpt>
      <trkpt lat="41.970577" lon="2.754994">
        <ele>90.76581</ele>
        <time>2021-07-01T13:11:39Z</time>
      </trkpt>
      <trkpt lat="41.970528" lon="2.754725">
        <ele>90.75012</ele>
        <time>2021-07-01T13:11:40Z</time>
      </trkpt>
      <trkpt lat="41.970520" lon="2.754697">
        <ele>92.14795</ele>
        <time>2021-07-01T13:11:41Z</time>
      </trkpt>
      <trkpt lat="41.970394" lon="2.754176">
        <ele>92.75031</ele>
        <time>2021-07-01T13:11:42Z</time>
      </trkpt>
      <trkpt lat="41.970387" lon="2.754147">
        <ele>93.09198</ele>
        <time>2021-07-01T13:11:43Z</time>
      </trkpt>
      <trkpt lat="41.970310" lon="2.753864">
        <ele>93.31958</ele>
        <time>2021-07-01T13:11:44Z</time>
      </trkpt>
      <trkpt lat="41.970272" lon="2.753722">
        <ele>94.56018</ele>
        <time>2021-07-01T13:11:45Z</time>
      </trkpt>
      <trkpt lat="41.970272" lon="2.753722">
        <ele>94.55127</ele>
        <time>2021-07-01T13:11:46Z</time>
      </trkpt>
      <trkpt lat="41.970158" lon="2.753350">
        <ele>95.27350</ele>
        <time>2021-07-01T13:11:47Z</time>
      </trkpt>
      <trkpt lat="41.970158" lon="2.753350">
        <ele>95.86353</ele>
        <time>2021-07-01T13:11:48Z</time>
      </trkpt>
      <trkpt lat="41.970009" lon="2.752918">
        <ele>95.95996</ele>
        <time>2021-07-01T13:11:49Z</time>
      </trkpt>
      <trkpt lat="41.969982" lon="2.752841">
        <ele>96.32587</ele>
        <time>2021-07-01T13:11:50Z</time>
      </trkpt>
      <trkpt lat="41.969921" lon="2.752663">
        <ele>96.43915</ele>
        <time>2021-07-01T13:11:51Z</time>
      </trkpt>
      <trkpt lat="41.969864" lon="2.752493">
        <ele>97.16956</ele>
        <time>2021-07-01T13:11:52Z</time>
      </trkpt>
      <trkpt lat="41.969845" lon="2.752442">
        <ele>98.24097</ele>
        <time>2021-07-01T13:11:53Z</time>
      </trkpt>
      <trkpt lat="41.969753" lon="2.752240">
        <ele>99.42615</ele>
        <time>2021-07-01T13:11:54Z</time>
      </trkpt>
      <trkpt lat="41.969666" lon="2.751976">
        <ele>100.36450</ele>
        <time>2021-07-01T13:11:55Z</time>
      </trkpt>
      <trkpt lat="41.969658" lon="2.751959">
        <ele>100.56671</ele>
        <time>2021-07-01T13:11:56Z</time>
      </trkpt>
      <trkpt lat="41.969490" lon="2.751663">
        <ele>101.01758</ele>
        <time>2021-07-01T13:11:57Z</time>
      </trkpt>
      <trkpt lat="41.969437" lon="2.751580">
        <ele>100.34558</ele>
        <time>2021-07-01T13:11:58Z</time>
      </trkpt>
      <trkpt lat="41.969437" lon="2.751580">
        <ele>99.38879</ele>
        <time>2021-07-01T13:11:59Z</time>
      </trkpt>
      <trkpt lat="41.969238" lon="2.751284">
        <ele>98.98181</ele>
        <time>2021-07-01T13:12:00Z</time>
      </trkpt>
      <trkpt lat="41.969162" lon="2.751170">
        <ele>98.48096</ele>
        <time>2021-07-01T13:12:01Z</time>
      </trkpt>
      <trkpt lat="41.969097" lon="2.751074">
        <ele>96.63654</ele>
        <time>2021-07-01T13:12:02Z</time>
      </trkpt>
      <trkpt lat="41.968872" lon="2.750736">
        <ele>99.54651</ele>
        <time>2021-07-01T13:12:03Z</time>
      </trkpt>
      <trkpt lat="41.968781" lon="2.750603">
        <ele>97.87030</ele>
        <time>2021-07-01T13:12:04Z</time>
      </trkpt>
      <trkpt lat="41.968685" lon="2.750445">
        <ele>96.77509</ele>
        <time>2021-07-01T13:12:05Z</time>
      </trkpt>
      <trkpt lat="41.968517" lon="2.750156">
        <ele>96.63440</ele>
        <time>2021-07-01T13:12:06Z</time>
      </trkpt>
      <trkpt lat="41.968369" lon="2.749901">
        <ele>96.42102</ele>
        <time>2021-07-01T13:12:07Z</time>
      </trkpt>
      <trkpt lat="41.968353" lon="2.749871">
        <ele>97.32147</ele>
        <time>2021-07-01T13:12:08Z</time>
      </trkpt>
      <trkpt lat="41.968121" lon="2.749401">
        <ele>97.18970</ele>
        <time>2021-07-01T13:12:09Z</time>
      </trkpt>
      <trkpt lat="41.968094" lon="2.749325">
        <ele>96.81195</ele>
        <time>2021-07-01T13:12:10Z</time>
      </trkpt>
      <trkpt lat="41.968094" lon="2.749325">
        <ele>96.62891</ele>
        <time>2021-07-01T13:12:11Z</time>
      </trkpt>
      <trkpt lat="41.967964" lon="2.748918">
        <ele>97.04626</ele>
        <time>2021-07-01T13:12:12Z</time>
      </trkpt>
      <trkpt lat="41.967907" lon="2.748661">
        <ele>96.68945</ele>
        <time>2021-07-01T13:12:13Z</time>
      </trkpt>
      <trkpt lat="41.967880" lon="2.748549">
        <ele>96.80554</ele>
        <time>2021-07-01T13:12:14Z</time>
      </trkpt>
      <trkpt lat="41.967808" lon="2.748153">
        <ele>96.59155</ele>
        <time>2021-07-01T13:12:15Z</time>
      </trkpt>
      <trkpt lat="41.967747" lon="2.747821">
        <ele>96.76361</ele>
        <time>2021-07-01T13:12:16Z</time>
      </trkpt>
      <trkpt lat="41.967648" lon="2.747338">
        <ele>95.85071</ele>
        <time>2021-07-01T13:12:17Z</time>
      </trkpt>
      <trkpt lat="41.967583" lon="2.747011">
        <ele>95.79462</ele>
        <time>2021-07-01T13:12:18Z</time>
      </trkpt>
      <trkpt lat="41.967525" lon="2.746737">
        <ele>95.31348</ele>
        <time>2021-07-01T13:12:19Z</time>
      </trkpt>
      <trkpt lat="41.967476" lon="2.746481">
        <ele>95.96991</ele>
        <time>2021-07-01T13:12:20Z</time>
      </trkpt>
      <trkpt lat="41.967468" lon="2.746459">
        <ele>95.94897</ele>
        <time>2021-07-01T13:12:21Z</time>
      </trkpt>
      <trkpt lat="41.967388" lon="2.746040">
        <ele>96.30249</ele>
        <time>2021-07-01T13:12:22Z</time>
      </trkpt>
      <trkpt lat="41.967388" lon="2.746040">
        <ele>96.66412</ele>
        <time>2021-07-01T13:12:23Z</time>
      </trkpt>
      <trkpt lat="41.967373" lon="2.745961">
        <ele>96.38782</ele>
        <time>2021-07-01T13:12:24Z</time>
      </trkpt>
      <trkpt lat="41.967323" lon="2.745730">
        <ele>96.42505</ele>
        <time>2021-07-01T13:12:25Z</time>
      </trkpt>
      <trkpt lat="41.967278" lon="2.745494">
        <ele>95.97998</ele>
        <time>2021-07-01T13:12:26Z</time>
      </trkpt>
      <trkpt lat="41.967255" lon="2.745397">
        <ele>96.24738</ele>
        <time>2021-07-01T13:12:27Z</time>
      </trkpt>
      <trkpt lat="41.967354" lon="2.745318">
        <ele>95.50122</ele>
        <time>2021-07-01T13:12:28Z</time>
      </trkpt>
      <trkpt lat="41.967403" lon="2.745153">
        <ele>95.24866</ele>
        <time>2021-07-01T13:12:29Z</time>
      </trkpt>
      <trkpt lat="41.967403" lon="2.745153">
        <ele>95.47955</ele>
        <time>2021-07-01T13:12:30Z</time>
      </trkpt>
      <trkpt lat="41.967319" lon="2.744927">
        <ele>95.56879</ele>
        <time>2021-07-01T13:12:31Z</time>
      </trkpt>
      <trkpt lat="41.967194" lon="2.744904">
        <ele>95.76105</ele>
        <time>2021-07-01T13:12:32Z</time>
      </trkpt>
      <trkpt lat="41.967148" lon="2.744917">
        <ele>94.84949</ele>
        <time>2021-07-01T13:12:33Z</time>
      </trkpt>
      <trkpt lat="41.967068" lon="2.744497">
        <ele>94.11121</ele>
        <time>2021-07-01T13:12:34Z</time>
      </trkpt>
      <trkpt lat="41.967041" lon="2.744350">
        <ele>94.50745</ele>
        <time>2021-07-01T13:12:35Z</time>
      </trkpt>
      <trkpt lat="41.967010" lon="2.744184">
        <ele>94.83405</ele>
        <time>2021-07-01T13:12:36Z</time>
      </trkpt>
      <trkpt lat="41.966988" lon="2.744072">
        <ele>94.76740</ele>
        <time>2021-07-01T13:12:37Z</time>
      </trkpt>
      <trkpt lat="41.966988" lon="2.744072">
        <ele>95.55176</ele>
        <time>2021-07-01T13:12:38Z</time>
      </trkpt>
      <trkpt lat="41.966953" lon="2.743935">
        <ele>94.93195</ele>
        <time>2021-07-01T13:12:39Z</time>
      </trkpt>
      <trkpt lat="41.966915" lon="2.743780">
        <ele>95.62427</ele>
        <time>2021-07-01T13:12:40Z</time>
      </trkpt>
      <trkpt lat="41.966900" lon="2.743704">
        <ele>94.99194</ele>
        <time>2021-07-01T13:12:41Z</time>
      </trkpt>
      <trkpt lat="41.966873" lon="2.743573">
        <ele>94.98724</ele>
        <time>2021-07-01T13:12:42Z</time>
      </trkpt>
      <trkpt lat="41.966827" lon="2.743326">
        <ele>95.73376</ele>
        <time>2021-07-01T13:12:43Z</time>
      </trkpt>
      <trkpt lat="41.966801" lon="2.743197">
        <ele>96.52325</ele>
        <time>2021-07-01T13:12:44Z</time>
      </trkpt>
      <trkpt lat="41.966797" lon="2.743165">
        <ele>96.53131</ele>
        <time>2021-07-01T13:12:45Z</time>
      </trkpt>
      <trkpt lat="41.966736" lon="2.742866">
        <ele>95.97943</ele>
        <time>2021-07-01T13:12:46Z</time>
      </trkpt>
      <trkpt lat="41.966690" lon="2.742624">
        <ele>96.27728</ele>
        <time>2021-07-01T13:12:47Z</time>
      </trkpt>
      <trkpt lat="41.966690" lon="2.742624">
        <ele>92.31244</ele>
        <time>2021-07-01T13:12:48Z</time>
      </trkpt>
      <trkpt lat="41.966682" lon="2.742593">
        <ele>92.85925</ele>
        <time>2021-07-01T13:12:49Z</time>
      </trkpt>
      <trkpt lat="41.966679" lon="2.742570">
        <ele>93.81244</ele>
        <time>2021-07-01T13:12:50Z</time>
      </trkpt>
      <trkpt lat="41.966621" lon="2.742245">
        <ele>94.56360</ele>
        <time>2021-07-01T13:12:51Z</time>
      </trkpt>
      <trkpt lat="41.966602" lon="2.742137">
        <ele>94.01929</ele>
        <time>2021-07-01T13:12:52Z</time>
      </trkpt>
      <trkpt lat="41.966583" lon="2.742058">
        <ele>94.58557</ele>
        <time>2021-07-01T13:12:53Z</time>
      </trkpt>
      <trkpt lat="41.966553" lon="2.741907">
        <ele>92.89893</ele>
        <time>2021-07-01T13:12:54Z</time>
      </trkpt>
      <trkpt lat="41.966488" lon="2.741611">
        <ele>93.28601</ele>
        <time>2021-07-01T13:12:55Z</time>
      </trkpt>
      <trkpt lat="41.966450" lon="2.741437">
        <ele>93.52283</ele>
        <time>2021-07-01T13:12:56Z</time>
      </trkpt>
      <trkpt lat="41.966423" lon="2.741321">
        <ele>92.46326</ele>
        <time>2021-07-01T13:12:57Z</time>
      </trkpt>
      <trkpt lat="41.966423" lon="2.741321">
        <ele>93.21790</ele>
        <time>2021-07-01T13:12:58Z</time>
      </trkpt>
      <trkpt lat="41.966412" lon="2.741265">
        <ele>93.89404</ele>
        <time>2021-07-01T13:12:59Z</time>
      </trkpt>
      <trkpt lat="41.966335" lon="2.740914">
        <ele>94.57501</ele>
        <time>2021-07-01T13:13:00Z</time>
      </trkpt>
      <trkpt lat="41.966316" lon="2.740805">
        <ele>94.99097</ele>
        <time>2021-07-01T13:13:01Z</time>
      </trkpt>
      <trkpt lat="41.966278" lon="2.740597">
        <ele>95.41718</ele>
        <time>2021-07-01T13:13:02Z</time>
      </trkpt>
      <trkpt lat="41.966267" lon="2.740535">
        <ele>95.09473</ele>
        <time>2021-07-01T13:13:03Z</time>
      </trkpt>
      <trkpt lat="41.966236" lon="2.740365">
        <ele>95.25397</ele>
        <time>2021-07-01T13:13:04Z</time>
      </trkpt>
      <trkpt lat="41.966209" lon="2.740202">
        <ele>96.00537</ele>
        <time>2021-07-01T13:13:05Z</time>
      </trkpt>
      <trkpt lat="41.966190" lon="2.740083">
        <ele>93.98803</ele>
        <time>2021-07-01T13:13:06Z</time>
      </trkpt>
      <trkpt lat="41.966190" lon="2.739953">
        <ele>94.08405</ele>
        <time>2021-07-01T13:13:07Z</time>
      </trkpt>
      <trkpt lat="41.966190" lon="2.739925">
        <ele>94.26660</ele>
        <time>2021-07-01T13:13:08Z</time>
      </trkpt>
      <trkpt lat="41.966198" lon="2.739706">
        <ele>94.94086</ele>
        <time>2021-07-01T13:13:09Z</time>
      </trkpt>
      <trkpt lat="41.966202" lon="2.739641">
        <ele>94.91455</ele>
        <time>2021-07-01T13:13:10Z</time>
      </trkpt>
      <trkpt lat="41.966202" lon="2.739638">
        <ele>94.76294</ele>
        <time>2021-07-01T13:13:11Z</time>
      </trkpt>
      <trkpt lat="41.966202" lon="2.739638">
        <ele>95.42181</ele>
        <time>2021-07-01T13:13:12Z</time>
      </trkpt>
      <trkpt lat="41.966206" lon="2.739596">
        <ele>95.83624</ele>
        <time>2021-07-01T13:13:13Z</time>
      </trkpt>
      <trkpt lat="41.966209" lon="2.739483">
        <ele>95.93909</ele>
        <time>2021-07-01T13:13:14Z</time>
      </trkpt>
      <trkpt lat="41.966209" lon="2.739483">
        <ele>96.39539</ele>
        <time>2021-07-01T13:13:15Z</time>
      </trkpt>
      <trkpt lat="41.966209" lon="2.739483">
        <ele>96.39062</ele>
        <time>2021-07-01T13:13:16Z</time>
      </trkpt>
      <trkpt lat="41.966209" lon="2.739483">
        <ele>96.98291</ele>
        <time>2021-07-01T13:13:17Z</time>
      </trkpt>
      <trkpt lat="41.966209" lon="2.739483">
        <ele>97.35986</ele>
        <time>2021-07-01T13:13:18Z</time>
      </trkpt>
      <trkpt lat="41.966209" lon="2.739483">
        <ele>97.68921</ele>
        <time>2021-07-01T13:13:19Z</time>
      </trkpt>
      <trkpt lat="41.966209" lon="2.739483">
        <ele>98.12482</ele>
        <time>2021-07-01T13:13:20Z</time>
      </trkpt>
      <trkpt lat="41.966209" lon="2.739483">
        <ele>97.47906</ele>
        <time>2021-07-01T13:13:21Z</time>
      </trkpt>
      <trkpt lat="41.966209" lon="2.739483">
        <ele>92.75822</ele>
        <time>2021-07-01T13:13:22Z</time>
      </trkpt>
      <trkpt lat="41.966209" lon="2.739483">
        <ele>92.83280</ele>
        <time>2021-07-01T13:13:23Z</time>
      </trkpt>
      <trkpt lat="41.966209" lon="2.739483">
        <ele>92.97324</ele>
        <time>2021-07-01T13:13:24Z</time>
      </trkpt>
      <trkpt lat="41.966209" lon="2.739483">
        <ele>93.32111</ele>
        <time>2021-07-01T13:13:25Z</time>
      </trkpt>
      <trkpt lat="41.966209" lon="2.739483">
        <ele>94.99402</ele>
        <time>2021-07-01T13:13:26Z</time>
      </trkpt>
      <trkpt lat="41.966209" lon="2.739483">
        <ele>94.01953</ele>
        <time>2021-07-01T13:13:27Z</time>
      </trkpt>
      <trkpt lat="41.966209" lon="2.739483">
        <ele>94.20419</ele>
        <time>2021-07-01T13:13:28Z</time>
      </trkpt>
      <trkpt lat="41.966209" lon="2.739483">
        <ele>95.56628</ele>
        <time>2021-07-01T13:13:29Z</time>
      </trkpt>
      <trkpt lat="41.966209" lon="2.739483">
        <ele>96.36450</ele>
        <time>2021-07-01T13:13:30Z</time>
      </trkpt>
      <trkpt lat="41.966209" lon="2.739483">
        <ele>94.10350</ele>
        <time>2021-07-01T13:13:31Z</time>
      </trkpt>
      <trkpt lat="41.966209" lon="2.739483">
        <ele>93.94785</ele>
        <time>2021-07-01T13:13:32Z</time>
      </trkpt>
      <trkpt lat="41.966209" lon="2.739483">
        <ele>93.75761</ele>
        <time>2021-07-01T13:13:33Z</time>
      </trkpt>
      <trkpt lat="41.966209" lon="2.739483">
        <ele>95.22424</ele>
        <time>2021-07-01T13:13:34Z</time>
      </trkpt>
      <trkpt lat="41.966209" lon="2.739483">
        <ele>93.77369</ele>
        <time>2021-07-01T13:13:35Z</time>
      </trkpt>
      <trkpt lat="41.966209" lon="2.739483">
        <ele>93.94485</ele>
        <time>2021-07-01T13:13:36Z</time>
      </trkpt>
      <trkpt lat="41.966209" lon="2.739483">
        <ele>94.08619</ele>
        <time>2021-07-01T13:13:37Z</time>
      </trkpt>
      <trkpt lat="41.966209" lon="2.739483">
        <ele>95.49976</ele>
        <time>2021-07-01T13:13:38Z</time>
      </trkpt>
      <trkpt lat="41.966209" lon="2.739483">
        <ele>96.07544</ele>
        <time>2021-07-01T13:13:40Z</time>
      </trkpt>
      <trkpt lat="41.966209" lon="2.739483">
        <ele>96.50525</ele>
        <time>2021-07-01T13:13:40Z</time>
      </trkpt>
      <trkpt lat="41.966209" lon="2.739483">
        <ele>96.82648</ele>
        <time>2021-07-01T13:13:41Z</time>
      </trkpt>
      <trkpt lat="41.966209" lon="2.739483">
        <ele>97.02783</ele>
        <time>2021-07-01T13:13:42Z</time>
      </trkpt>
      <trkpt lat="41.966209" lon="2.739483">
        <ele>97.16675</ele>
        <time>2021-07-01T13:13:43Z</time>
      </trkpt>
      <trkpt lat="41.966209" lon="2.739483">
        <ele>97.24579</ele>
        <time>2021-07-01T13:13:44Z</time>
      </trkpt>
      <trkpt lat="41.966209" lon="2.739483">
        <ele>97.31073</ele>
        <time>2021-07-01T13:13:45Z</time>
      </trkpt>
      <trkpt lat="41.966209" lon="2.739483">
        <ele>97.36249</ele>
        <time>2021-07-01T13:13:46Z</time>
      </trkpt>
      <trkpt lat="41.966209" lon="2.739483">
        <ele>97.38904</ele>
        <time>2021-07-01T13:13:47Z</time>
      </trkpt>
      <trkpt lat="41.966209" lon="2.739483">
        <ele>94.14540</ele>
        <time>2021-07-01T13:13:48Z</time>
      </trkpt>
      <trkpt lat="41.966209" lon="2.739483">
        <ele>94.20859</ele>
        <time>2021-07-01T13:13:49Z</time>
      </trkpt>
      <trkpt lat="41.966209" lon="2.739483">
        <ele>94.14667</ele>
        <time>2021-07-01T13:13:50Z</time>
      </trkpt>
      <trkpt lat="41.966209" lon="2.739483">
        <ele>94.19984</ele>
        <time>2021-07-01T13:13:51Z</time>
      </trkpt>
      <trkpt lat="41.966209" lon="2.739483">
        <ele>94.16796</ele>
        <time>2021-07-01T13:13:52Z</time>
      </trkpt>
      <trkpt lat="41.966209" lon="2.739483">
        <ele>94.39462</ele>
        <time>2021-07-01T13:13:53Z</time>
      </trkpt>
      <trkpt lat="41.966209" lon="2.739483">
        <ele>95.81323</ele>
        <time>2021-07-01T13:13:54Z</time>
      </trkpt>
      <trkpt lat="41.966209" lon="2.739483">
        <ele>94.43649</ele>
        <time>2021-07-01T13:13:55Z</time>
      </trkpt>
      <trkpt lat="41.966209" lon="2.739483">
        <ele>94.64116</ele>
        <time>2021-07-01T13:13:56Z</time>
      </trkpt>
      <trkpt lat="41.966209" lon="2.739483">
        <ele>94.79657</ele>
        <time>2021-07-01T13:13:57Z</time>
      </trkpt>
      <trkpt lat="41.966209" lon="2.739483">
        <ele>94.79703</ele>
        <time>2021-07-01T13:13:58Z</time>
      </trkpt>
      <trkpt lat="41.966209" lon="2.739483">
        <ele>94.84825</ele>
        <time>2021-07-01T13:13:59Z</time>
      </trkpt>
      <trkpt lat="41.966209" lon="2.739483">
        <ele>94.80766</ele>
        <time>2021-07-01T13:14:00Z</time>
      </trkpt>
      <trkpt lat="41.966209" lon="2.739483">
        <ele>94.82970</ele>
        <time>2021-07-01T13:14:01Z</time>
      </trkpt>
      <trkpt lat="41.966209" lon="2.739483">
        <ele>94.85948</ele>
        <time>2021-07-01T13:14:02Z</time>
      </trkpt>
      <trkpt lat="41.966209" lon="2.739483">
        <ele>94.82230</ele>
        <time>2021-07-01T13:14:03Z</time>
      </trkpt>
      <trkpt lat="41.966209" lon="2.739483">
        <ele>96.71948</ele>
        <time>2021-07-01T13:14:04Z</time>
      </trkpt>
      <trkpt lat="41.966209" lon="2.739483">
        <ele>96.98926</ele>
        <time>2021-07-01T13:14:05Z</time>
      </trkpt>
      <trkpt lat="41.966209" lon="2.739483">
        <ele>97.19482</ele>
        <time>2021-07-01T13:14:06Z</time>
      </trkpt>
      <trkpt lat="41.966209" lon="2.739481">
        <ele>96.78296</ele>
        <time>2021-07-01T13:14:07Z</time>
      </trkpt>
      <trkpt lat="41.966209" lon="2.739477">
        <ele>97.43701</ele>
        <time>2021-07-01T13:14:08Z</time>
      </trkpt>
      <trkpt lat="41.966244" lon="2.739278">
        <ele>97.46442</ele>
        <time>2021-07-01T13:14:09Z</time>
      </trkpt>
      <trkpt lat="41.966251" lon="2.739211">
        <ele>97.95319</ele>
        <time>2021-07-01T13:14:10Z</time>
      </trkpt>
      <trkpt lat="41.966263" lon="2.739126">
        <ele>97.81982</ele>
        <time>2021-07-01T13:14:11Z</time>
      </trkpt>
      <trkpt lat="41.966267" lon="2.739071">
        <ele>97.85284</ele>
        <time>2021-07-01T13:14:12Z</time>
      </trkpt>
      <trkpt lat="41.966282" lon="2.738929">
        <ele>97.42322</ele>
        <time>2021-07-01T13:14:13Z</time>
      </trkpt>
      <trkpt lat="41.966297" lon="2.738817">
        <ele>98.44470</ele>
        <time>2021-07-01T13:14:14Z</time>
      </trkpt>
      <trkpt lat="41.966297" lon="2.738817">
        <ele>98.53381</ele>
        <time>2021-07-01T13:14:15Z</time>
      </trkpt>
      <trkpt lat="41.966309" lon="2.738699">
        <ele>98.95068</ele>
        <time>2021-07-01T13:14:16Z</time>
      </trkpt>
      <trkpt lat="41.966328" lon="2.738551">
        <ele>98.99658</ele>
        <time>2021-07-01T13:14:17Z</time>
      </trkpt>
      <trkpt lat="41.966328" lon="2.738532">
        <ele>98.08557</ele>
        <time>2021-07-01T13:14:18Z</time>
      </trkpt>
      <trkpt lat="41.966339" lon="2.738418">
        <ele>98.90759</ele>
        <time>2021-07-01T13:14:19Z</time>
      </trkpt>
      <trkpt lat="41.966358" lon="2.738283">
        <ele>98.83179</ele>
        <time>2021-07-01T13:14:20Z</time>
      </trkpt>
      <trkpt lat="41.966366" lon="2.738196">
        <ele>98.38727</ele>
        <time>2021-07-01T13:14:21Z</time>
      </trkpt>
      <trkpt lat="41.966370" lon="2.738183">
        <ele>97.24316</ele>
        <time>2021-07-01T13:14:22Z</time>
      </trkpt>
      <trkpt lat="41.966389" lon="2.738009">
        <ele>98.22754</ele>
        <time>2021-07-01T13:14:23Z</time>
      </trkpt>
      <trkpt lat="41.966396" lon="2.737931">
        <ele>98.75659</ele>
        <time>2021-07-01T13:14:24Z</time>
      </trkpt>
      <trkpt lat="41.966396" lon="2.737931">
        <ele>99.04529</ele>
        <time>2021-07-01T13:14:25Z</time>
      </trkpt>
      <trkpt lat="41.966408" lon="2.737848">
        <ele>99.06366</ele>
        <time>2021-07-01T13:14:26Z</time>
      </trkpt>
      <trkpt lat="41.966412" lon="2.737808">
        <ele>99.54736</ele>
        <time>2021-07-01T13:14:27Z</time>
      </trkpt>
      <trkpt lat="41.966438" lon="2.737576">
        <ele>100.41974</ele>
        <time>2021-07-01T13:14:28Z</time>
      </trkpt>
      <trkpt lat="41.966454" lon="2.737434">
        <ele>100.46515</ele>
        <time>2021-07-01T13:14:29Z</time>
      </trkpt>
      <trkpt lat="41.966465" lon="2.737336">
        <ele>99.21289</ele>
        <time>2021-07-01T13:14:30Z</time>
      </trkpt>
      <trkpt lat="41.966476" lon="2.737248">
        <ele>99.83716</ele>
        <time>2021-07-01T13:14:31Z</time>
      </trkpt>
      <trkpt lat="41.966488" lon="2.737167">
        <ele>99.64490</ele>
        <time>2021-07-01T13:14:32Z</time>
      </trkpt>
      <trkpt lat="41.966507" lon="2.737000">
        <ele>100.15460</ele>
        <time>2021-07-01T13:14:33Z</time>
      </trkpt>
      <trkpt lat="41.966526" lon="2.736833">
        <ele>101.07697</ele>
        <time>2021-07-01T13:14:34Z</time>
      </trkpt>
      <trkpt lat="41.966545" lon="2.736697">
        <ele>100.10278</ele>
        <time>2021-07-01T13:14:35Z</time>
      </trkpt>
      <trkpt lat="41.966545" lon="2.736680">
        <ele>100.36115</ele>
        <time>2021-07-01T13:14:36Z</time>
      </trkpt>
      <trkpt lat="41.966602" lon="2.736227">
        <ele>100.02747</ele>
        <time>2021-07-01T13:14:38Z</time>
      </trkpt>
      <trkpt lat="41.966602" lon="2.736227">
        <ele>100.02747</ele>
        <time>2021-07-01T13:14:38Z</time>
      </trkpt>
      <trkpt lat="41.966633" lon="2.735970">
        <ele>99.81091</ele>
        <time>2021-07-01T13:14:39Z</time>
      </trkpt>
      <trkpt lat="41.966633" lon="2.735957">
        <ele>98.86053</ele>
        <time>2021-07-01T13:14:40Z</time>
      </trkpt>
      <trkpt lat="41.966633" lon="2.735957">
        <ele>98.70325</ele>
        <time>2021-07-01T13:14:41Z</time>
      </trkpt>
      <trkpt lat="41.966648" lon="2.735843">
        <ele>97.70947</ele>
        <time>2021-07-01T13:14:42Z</time>
      </trkpt>
      <trkpt lat="41.966660" lon="2.735738">
        <ele>97.81830</ele>
        <time>2021-07-01T13:14:43Z</time>
      </trkpt>
      <trkpt lat="41.966667" lon="2.735671">
        <ele>97.87122</ele>
        <time>2021-07-01T13:14:44Z</time>
      </trkpt>
      <trkpt lat="41.966694" lon="2.735450">
        <ele>99.23883</ele>
        <time>2021-07-01T13:14:45Z</time>
      </trkpt>
      <trkpt lat="41.966709" lon="2.735270">
        <ele>99.06458</ele>
        <time>2021-07-01T13:14:46Z</time>
      </trkpt>
      <trkpt lat="41.966724" lon="2.735111">
        <ele>98.81946</ele>
        <time>2021-07-01T13:14:47Z</time>
      </trkpt>
      <trkpt lat="41.966740" lon="2.734966">
        <ele>99.11633</ele>
        <time>2021-07-01T13:14:48Z</time>
      </trkpt>
      <trkpt lat="41.966755" lon="2.734834">
        <ele>96.69879</ele>
        <time>2021-07-01T13:14:49Z</time>
      </trkpt>
      <trkpt lat="41.966766" lon="2.734694">
        <ele>95.35803</ele>
        <time>2021-07-01T13:14:50Z</time>
      </trkpt>
      <trkpt lat="41.966766" lon="2.734694">
        <ele>95.59686</ele>
        <time>2021-07-01T13:14:51Z</time>
      </trkpt>
      <trkpt lat="41.966782" lon="2.734545">
        <ele>95.95874</ele>
        <time>2021-07-01T13:14:52Z</time>
      </trkpt>
      <trkpt lat="41.966797" lon="2.734404">
        <ele>96.17651</ele>
        <time>2021-07-01T13:14:53Z</time>
      </trkpt>
      <trkpt lat="41.966812" lon="2.734252">
        <ele>96.06433</ele>
        <time>2021-07-01T13:14:54Z</time>
      </trkpt>
      <trkpt lat="41.966824" lon="2.734119">
        <ele>96.72583</ele>
        <time>2021-07-01T13:14:55Z</time>
      </trkpt>
      <trkpt lat="41.966835" lon="2.733993">
        <ele>97.72485</ele>
        <time>2021-07-01T13:14:56Z</time>
      </trkpt>
      <trkpt lat="41.966846" lon="2.733892">
        <ele>98.38757</ele>
        <time>2021-07-01T13:14:57Z</time>
      </trkpt>
      <trkpt lat="41.966858" lon="2.733816">
        <ele>98.33923</ele>
        <time>2021-07-01T13:14:58Z</time>
      </trkpt>
      <trkpt lat="41.966858" lon="2.733800">
        <ele>98.27972</ele>
        <time>2021-07-01T13:14:59Z</time>
      </trkpt>
      <trkpt lat="41.966892" lon="2.733512">
        <ele>97.56433</ele>
        <time>2021-07-01T13:15:00Z</time>
      </trkpt>
      <trkpt lat="41.966908" lon="2.733387">
        <ele>96.04712</ele>
        <time>2021-07-01T13:15:01Z</time>
      </trkpt>
      <trkpt lat="41.966930" lon="2.733194">
        <ele>94.64703</ele>
        <time>2021-07-01T13:15:02Z</time>
      </trkpt>
      <trkpt lat="41.966934" lon="2.733175">
        <ele>94.89185</ele>
        <time>2021-07-01T13:15:03Z</time>
      </trkpt>
      <trkpt lat="41.966949" lon="2.733046">
        <ele>94.72186</ele>
        <time>2021-07-01T13:15:04Z</time>
      </trkpt>
      <trkpt lat="41.966961" lon="2.732953">
        <ele>94.64508</ele>
        <time>2021-07-01T13:15:05Z</time>
      </trkpt>
      <trkpt lat="41.966972" lon="2.732830">
        <ele>94.83289</ele>
        <time>2021-07-01T13:15:06Z</time>
      </trkpt>
      <trkpt lat="41.966980" lon="2.732754">
        <ele>95.04407</ele>
        <time>2021-07-01T13:15:07Z</time>
      </trkpt>
      <trkpt lat="41.966980" lon="2.732754">
        <ele>94.90393</ele>
        <time>2021-07-01T13:15:08Z</time>
      </trkpt>
      <trkpt lat="41.966988" lon="2.732692">
        <ele>95.15186</ele>
        <time>2021-07-01T13:15:09Z</time>
      </trkpt>
      <trkpt lat="41.967010" lon="2.732466">
        <ele>95.48138</ele>
        <time>2021-07-01T13:15:10Z</time>
      </trkpt>
      <trkpt lat="41.967026" lon="2.732348">
        <ele>95.79364</ele>
        <time>2021-07-01T13:15:11Z</time>
      </trkpt>
      <trkpt lat="41.967041" lon="2.732236">
        <ele>95.83820</ele>
        <time>2021-07-01T13:15:12Z</time>
      </trkpt>
      <trkpt lat="41.967052" lon="2.732206">
        <ele>96.80981</ele>
        <time>2021-07-01T13:15:13Z</time>
      </trkpt>
      <trkpt lat="41.967190" lon="2.732016">
        <ele>96.43768</ele>
        <time>2021-07-01T13:15:15Z</time>
      </trkpt>
      <trkpt lat="41.967190" lon="2.732016">
        <ele>96.43768</ele>
        <time>2021-07-01T13:15:15Z</time>
      </trkpt>
      <trkpt lat="41.967205" lon="2.731990">
        <ele>95.49774</ele>
        <time>2021-07-01T13:15:16Z</time>
      </trkpt>
      <trkpt lat="41.967224" lon="2.731835">
        <ele>96.22156</ele>
        <time>2021-07-01T13:15:17Z</time>
      </trkpt>
      <trkpt lat="41.967209" lon="2.731747">
        <ele>96.18420</ele>
        <time>2021-07-01T13:15:18Z</time>
      </trkpt>
      <trkpt lat="41.967117" lon="2.731436">
        <ele>96.55664</ele>
        <time>2021-07-01T13:15:19Z</time>
      </trkpt>
      <trkpt lat="41.967117" lon="2.731375">
        <ele>97.73920</ele>
        <time>2021-07-01T13:15:20Z</time>
      </trkpt>
      <trkpt lat="41.967117" lon="2.731375">
        <ele>97.05786</ele>
        <time>2021-07-01T13:15:21Z</time>
      </trkpt>
      <trkpt lat="41.967197" lon="2.730835">
        <ele>98.39209</ele>
        <time>2021-07-01T13:15:22Z</time>
      </trkpt>
      <trkpt lat="41.967220" lon="2.730629">
        <ele>98.84406</ele>
        <time>2021-07-01T13:15:23Z</time>
      </trkpt>
      <trkpt lat="41.967247" lon="2.730407">
        <ele>100.09607</ele>
        <time>2021-07-01T13:15:24Z</time>
      </trkpt>
      <trkpt lat="41.967297" lon="2.729993">
        <ele>100.41870</ele>
        <time>2021-07-01T13:15:25Z</time>
      </trkpt>
      <trkpt lat="41.967297" lon="2.729978">
        <ele>100.28088</ele>
        <time>2021-07-01T13:15:26Z</time>
      </trkpt>
      <trkpt lat="41.967323" lon="2.729744">
        <ele>100.02704</ele>
        <time>2021-07-01T13:15:27Z</time>
      </trkpt>
      <trkpt lat="41.967365" lon="2.729390">
        <ele>99.13464</ele>
        <time>2021-07-01T13:15:28Z</time>
      </trkpt>
      <trkpt lat="41.967388" lon="2.729188">
        <ele>99.52417</ele>
        <time>2021-07-01T13:15:29Z</time>
      </trkpt>
      <trkpt lat="41.967388" lon="2.729167">
        <ele>100.02057</ele>
        <time>2021-07-01T13:15:30Z</time>
      </trkpt>
      <trkpt lat="41.967442" lon="2.728710">
        <ele>100.21130</ele>
        <time>2021-07-01T13:15:31Z</time>
      </trkpt>
      <trkpt lat="41.967472" lon="2.728430">
        <ele>101.14325</ele>
        <time>2021-07-01T13:15:32Z</time>
      </trkpt>
      <trkpt lat="41.967472" lon="2.728430">
        <ele>102.21417</ele>
        <time>2021-07-01T13:15:33Z</time>
      </trkpt>
      <trkpt lat="41.967480" lon="2.728352">
        <ele>101.94897</ele>
        <time>2021-07-01T13:15:34Z</time>
      </trkpt>
      <trkpt lat="41.967522" lon="2.727987">
        <ele>102.34100</ele>
        <time>2021-07-01T13:15:35Z</time>
      </trkpt>
      <trkpt lat="41.967548" lon="2.727766">
        <ele>102.71906</ele>
        <time>2021-07-01T13:15:36Z</time>
      </trkpt>
      <trkpt lat="41.967583" lon="2.727466">
        <ele>102.39972</ele>
        <time>2021-07-01T13:15:37Z</time>
      </trkpt>
      <trkpt lat="41.967606" lon="2.727259">
        <ele>101.86328</ele>
        <time>2021-07-01T13:15:38Z</time>
      </trkpt>
      <trkpt lat="41.967636" lon="2.726988">
        <ele>101.23126</ele>
        <time>2021-07-01T13:15:39Z</time>
      </trkpt>
      <trkpt lat="41.967678" lon="2.726621">
        <ele>101.27124</ele>
        <time>2021-07-01T13:15:40Z</time>
      </trkpt>
      <trkpt lat="41.967693" lon="2.726482">
        <ele>101.63220</ele>
        <time>2021-07-01T13:15:41Z</time>
      </trkpt>
      <trkpt lat="41.967758" lon="2.725966">
        <ele>102.17273</ele>
        <time>2021-07-01T13:15:42Z</time>
      </trkpt>
      <trkpt lat="41.967789" lon="2.725728">
        <ele>102.46790</ele>
        <time>2021-07-01T13:15:43Z</time>
      </trkpt>
      <trkpt lat="41.967793" lon="2.725684">
        <ele>102.12842</ele>
        <time>2021-07-01T13:15:44Z</time>
      </trkpt>
      <trkpt lat="41.967857" lon="2.725131">
        <ele>101.26489</ele>
        <time>2021-07-01T13:15:45Z</time>
      </trkpt>
      <trkpt lat="41.967857" lon="2.725131">
        <ele>100.52594</ele>
        <time>2021-07-01T13:15:46Z</time>
      </trkpt>
      <trkpt lat="41.967865" lon="2.725074">
        <ele>100.21130</ele>
        <time>2021-07-01T13:15:47Z</time>
      </trkpt>
      <trkpt lat="41.967903" lon="2.724715">
        <ele>100.70380</ele>
        <time>2021-07-01T13:15:48Z</time>
      </trkpt>
      <trkpt lat="41.967918" lon="2.724539">
        <ele>100.10742</ele>
        <time>2021-07-01T13:15:49Z</time>
      </trkpt>
      <trkpt lat="41.967964" lon="2.724020">
        <ele>100.69458</ele>
        <time>2021-07-01T13:15:50Z</time>
      </trkpt>
      <trkpt lat="41.967991" lon="2.723705">
        <ele>100.26636</ele>
        <time>2021-07-01T13:15:51Z</time>
      </trkpt>
      <trkpt lat="41.968018" lon="2.723397">
        <ele>99.69049</ele>
        <time>2021-07-01T13:15:52Z</time>
      </trkpt>
      <trkpt lat="41.968029" lon="2.723270">
        <ele>99.44086</ele>
        <time>2021-07-01T13:15:53Z</time>
      </trkpt>
      <trkpt lat="41.968060" lon="2.722922">
        <ele>100.48145</ele>
        <time>2021-07-01T13:15:54Z</time>
      </trkpt>
      <trkpt lat="41.968082" lon="2.722636">
        <ele>101.10938</ele>
        <time>2021-07-01T13:15:55Z</time>
      </trkpt>
      <trkpt lat="41.968090" lon="2.722415">
        <ele>102.58002</ele>
        <time>2021-07-01T13:15:56Z</time>
      </trkpt>
      <trkpt lat="41.968094" lon="2.722184">
        <ele>102.56219</ele>
        <time>2021-07-01T13:15:57Z</time>
      </trkpt>
      <trkpt lat="41.968094" lon="2.721908">
        <ele>102.09906</ele>
        <time>2021-07-01T13:15:58Z</time>
      </trkpt>
      <trkpt lat="41.968147" lon="2.721597">
        <ele>102.11035</ele>
        <time>2021-07-01T13:15:59Z</time>
      </trkpt>
      <trkpt lat="41.968193" lon="2.721295">
        <ele>103.28027</ele>
        <time>2021-07-01T13:16:00Z</time>
      </trkpt>
      <trkpt lat="41.968254" lon="2.721007">
        <ele>103.66028</ele>
        <time>2021-07-01T13:16:01Z</time>
      </trkpt>
      <trkpt lat="41.968254" lon="2.721007">
        <ele>105.01428</ele>
        <time>2021-07-01T13:16:02Z</time>
      </trkpt>
      <trkpt lat="41.968372" lon="2.720561">
        <ele>105.00110</ele>
        <time>2021-07-01T13:16:03Z</time>
      </trkpt>
      <trkpt lat="41.968441" lon="2.720362">
        <ele>104.88269</ele>
        <time>2021-07-01T13:16:04Z</time>
      </trkpt>
      <trkpt lat="41.968613" lon="2.720055">
        <ele>104.72375</ele>
        <time>2021-07-01T13:16:05Z</time>
      </trkpt>
      <trkpt lat="41.968758" lon="2.719880">
        <ele>104.86407</ele>
        <time>2021-07-01T13:16:06Z</time>
      </trkpt>
      <trkpt lat="41.968929" lon="2.719681">
        <ele>105.64246</ele>
        <time>2021-07-01T13:16:07Z</time>
      </trkpt>
      <trkpt lat="41.969246" lon="2.719304">
        <ele>105.38007</ele>
        <time>2021-07-01T13:16:08Z</time>
      </trkpt>
      <trkpt lat="41.969410" lon="2.719111">
        <ele>105.98206</ele>
        <time>2021-07-01T13:16:09Z</time>
      </trkpt>
      <trkpt lat="41.969555" lon="2.718940">
        <ele>106.29260</ele>
        <time>2021-07-01T13:16:10Z</time>
      </trkpt>
      <trkpt lat="41.969578" lon="2.718913">
        <ele>106.70093</ele>
        <time>2021-07-01T13:16:11Z</time>
      </trkpt>
      <trkpt lat="41.969921" lon="2.718421">
        <ele>105.74304</ele>
        <time>2021-07-01T13:16:12Z</time>
      </trkpt>
      <trkpt lat="41.969921" lon="2.718421">
        <ele>106.37048</ele>
        <time>2021-07-01T13:16:13Z</time>
      </trkpt>
      <trkpt lat="41.970001" lon="2.718322">
        <ele>107.01947</ele>
        <time>2021-07-01T13:16:14Z</time>
      </trkpt>
      <trkpt lat="41.970081" lon="2.718221">
        <ele>107.21228</ele>
        <time>2021-07-01T13:16:15Z</time>
      </trkpt>
      <trkpt lat="41.970444" lon="2.717767">
        <ele>106.93140</ele>
        <time>2021-07-01T13:16:16Z</time>
      </trkpt>
      <trkpt lat="41.970467" lon="2.717740">
        <ele>106.36456</ele>
        <time>2021-07-01T13:16:17Z</time>
      </trkpt>
      <trkpt lat="41.970642" lon="2.717518">
        <ele>106.96667</ele>
        <time>2021-07-01T13:16:18Z</time>
      </trkpt>
      <trkpt lat="41.970921" lon="2.717170">
        <ele>107.71558</ele>
        <time>2021-07-01T13:16:19Z</time>
      </trkpt>
      <trkpt lat="41.971039" lon="2.717028">
        <ele>108.86780</ele>
        <time>2021-07-01T13:16:20Z</time>
      </trkpt>
      <trkpt lat="41.971207" lon="2.716819">
        <ele>108.45129</ele>
        <time>2021-07-01T13:16:21Z</time>
      </trkpt>
      <trkpt lat="41.971371" lon="2.716612">
        <ele>108.84735</ele>
        <time>2021-07-01T13:16:22Z</time>
      </trkpt>
      <trkpt lat="41.971535" lon="2.716409">
        <ele>109.15454</ele>
        <time>2021-07-01T13:16:23Z</time>
      </trkpt>
      <trkpt lat="41.971699" lon="2.716206">
        <ele>108.96851</ele>
        <time>2021-07-01T13:16:24Z</time>
      </trkpt>
      <trkpt lat="41.971718" lon="2.716179">
        <ele>108.87347</ele>
        <time>2021-07-01T13:16:25Z</time>
      </trkpt>
      <trkpt lat="41.972118" lon="2.715682">
        <ele>108.73816</ele>
        <time>2021-07-01T13:16:26Z</time>
      </trkpt>
      <trkpt lat="41.972206" lon="2.715574">
        <ele>109.03552</ele>
        <time>2021-07-01T13:16:27Z</time>
      </trkpt>
      <trkpt lat="41.972206" lon="2.715574">
        <ele>109.13110</ele>
        <time>2021-07-01T13:16:28Z</time>
      </trkpt>
      <trkpt lat="41.972275" lon="2.715489">
        <ele>109.32935</ele>
        <time>2021-07-01T13:16:29Z</time>
      </trkpt>
      <trkpt lat="41.972580" lon="2.715108">
        <ele>109.77881</ele>
        <time>2021-07-01T13:16:30Z</time>
      </trkpt>
      <trkpt lat="41.972668" lon="2.714999">
        <ele>109.97961</ele>
        <time>2021-07-01T13:16:31Z</time>
      </trkpt>
      <trkpt lat="41.972870" lon="2.714749">
        <ele>110.21729</ele>
        <time>2021-07-01T13:16:32Z</time>
      </trkpt>
      <trkpt lat="41.973068" lon="2.714501">
        <ele>109.88000</ele>
        <time>2021-07-01T13:16:33Z</time>
      </trkpt>
      <trkpt lat="41.973099" lon="2.714461">
        <ele>110.16693</ele>
        <time>2021-07-01T13:16:34Z</time>
      </trkpt>
      <trkpt lat="41.973270" lon="2.714246">
        <ele>110.39777</ele>
        <time>2021-07-01T13:16:35Z</time>
      </trkpt>
      <trkpt lat="41.973431" lon="2.714048">
        <ele>110.28052</ele>
        <time>2021-07-01T13:16:36Z</time>
      </trkpt>
      <trkpt lat="41.973675" lon="2.713743">
        <ele>110.42621</ele>
        <time>2021-07-01T13:16:37Z</time>
      </trkpt>
      <trkpt lat="41.973858" lon="2.713517">
        <ele>111.05304</ele>
        <time>2021-07-01T13:16:38Z</time>
      </trkpt>
      <trkpt lat="41.973991" lon="2.713350">
        <ele>112.59277</ele>
        <time>2021-07-01T13:16:39Z</time>
      </trkpt>
      <trkpt lat="41.974026" lon="2.713311">
        <ele>112.72375</ele>
        <time>2021-07-01T13:16:40Z</time>
      </trkpt>
      <trkpt lat="41.974403" lon="2.712839">
        <ele>113.10968</ele>
        <time>2021-07-01T13:16:41Z</time>
      </trkpt>
      <trkpt lat="41.974403" lon="2.712839">
        <ele>113.47632</ele>
        <time>2021-07-01T13:16:42Z</time>
      </trkpt>
      <trkpt lat="41.974453" lon="2.712776">
        <ele>113.34650</ele>
        <time>2021-07-01T13:16:43Z</time>
      </trkpt>
      <trkpt lat="41.974529" lon="2.712679">
        <ele>113.14777</ele>
        <time>2021-07-01T13:16:44Z</time>
      </trkpt>
      <trkpt lat="41.974743" lon="2.712414">
        <ele>113.66534</ele>
        <time>2021-07-01T13:16:45Z</time>
      </trkpt>
      <trkpt lat="41.974846" lon="2.712286">
        <ele>113.67303</ele>
        <time>2021-07-01T13:16:46Z</time>
      </trkpt>
      <trkpt lat="41.975056" lon="2.712025">
        <ele>113.37756</ele>
        <time>2021-07-01T13:16:47Z</time>
      </trkpt>
      <trkpt lat="41.975273" lon="2.711752">
        <ele>113.45752</ele>
        <time>2021-07-01T13:16:48Z</time>
      </trkpt>
      <trkpt lat="41.975433" lon="2.711553">
        <ele>113.42236</ele>
        <time>2021-07-01T13:16:49Z</time>
      </trkpt>
      <trkpt lat="41.975613" lon="2.711329">
        <ele>114.08466</ele>
        <time>2021-07-01T13:16:50Z</time>
      </trkpt>
      <trkpt lat="41.975777" lon="2.711126">
        <ele>114.07080</ele>
        <time>2021-07-01T13:16:51Z</time>
      </trkpt>
      <trkpt lat="41.975895" lon="2.710980">
        <ele>113.88025</ele>
        <time>2021-07-01T13:16:52Z</time>
      </trkpt>
      <trkpt lat="41.975922" lon="2.710946">
        <ele>114.28754</ele>
        <time>2021-07-01T13:16:53Z</time>
      </trkpt>
      <trkpt lat="41.976185" lon="2.710619">
        <ele>114.06403</ele>
        <time>2021-07-01T13:16:54Z</time>
      </trkpt>
      <trkpt lat="41.976185" lon="2.710619">
        <ele>114.57507</ele>
        <time>2021-07-01T13:16:55Z</time>
      </trkpt>
      <trkpt lat="41.976215" lon="2.710581">
        <ele>114.24292</ele>
        <time>2021-07-01T13:16:56Z</time>
      </trkpt>
      <trkpt lat="41.976292" lon="2.710485">
        <ele>114.69592</ele>
        <time>2021-07-01T13:16:57Z</time>
      </trkpt>
      <trkpt lat="41.976490" lon="2.710240">
        <ele>114.93085</ele>
        <time>2021-07-01T13:16:58Z</time>
      </trkpt>
      <trkpt lat="41.976555" lon="2.710159">
        <ele>114.71143</ele>
        <time>2021-07-01T13:16:59Z</time>
      </trkpt>
      <trkpt lat="41.976704" lon="2.709974">
        <ele>115.27185</ele>
        <time>2021-07-01T13:17:00Z</time>
      </trkpt>
      <trkpt lat="41.976822" lon="2.709824">
        <ele>115.43384</ele>
        <time>2021-07-01T13:17:01Z</time>
      </trkpt>
      <trkpt lat="41.976952" lon="2.709664">
        <ele>115.62427</ele>
        <time>2021-07-01T13:17:02Z</time>
      </trkpt>
      <trkpt lat="41.977089" lon="2.709486">
        <ele>116.41040</ele>
        <time>2021-07-01T13:17:03Z</time>
      </trkpt>
      <trkpt lat="41.977230" lon="2.709300">
        <ele>115.50708</ele>
        <time>2021-07-01T13:17:04Z</time>
      </trkpt>
      <trkpt lat="41.977383" lon="2.709109">
        <ele>116.26923</ele>
        <time>2021-07-01T13:17:05Z</time>
      </trkpt>
      <trkpt lat="41.977535" lon="2.708925">
        <ele>116.43341</ele>
        <time>2021-07-01T13:17:06Z</time>
      </trkpt>
      <trkpt lat="41.977699" lon="2.708718">
        <ele>116.41266</ele>
        <time>2021-07-01T13:17:07Z</time>
      </trkpt>
      <trkpt lat="41.977737" lon="2.708670">
        <ele>117.05164</ele>
        <time>2021-07-01T13:17:08Z</time>
      </trkpt>
      <trkpt lat="41.978092" lon="2.708195">
        <ele>117.84888</ele>
        <time>2021-07-01T13:17:09Z</time>
      </trkpt>
      <trkpt lat="41.978168" lon="2.708085">
        <ele>118.64545</ele>
        <time>2021-07-01T13:17:10Z</time>
      </trkpt>
      <trkpt lat="41.978279" lon="2.707881">
        <ele>119.50891</ele>
        <time>2021-07-01T13:17:11Z</time>
      </trkpt>
      <trkpt lat="41.978279" lon="2.707881">
        <ele>119.07269</ele>
        <time>2021-07-01T13:17:12Z</time>
      </trkpt>
      <trkpt lat="41.978371" lon="2.707621">
        <ele>119.72180</ele>
        <time>2021-07-01T13:17:13Z</time>
      </trkpt>
      <trkpt lat="41.978416" lon="2.707437">
        <ele>119.16345</ele>
        <time>2021-07-01T13:17:14Z</time>
      </trkpt>
      <trkpt lat="41.978458" lon="2.707228">
        <ele>118.94586</ele>
        <time>2021-07-01T13:17:15Z</time>
      </trkpt>
      <trkpt lat="41.978550" lon="2.706774">
        <ele>117.89917</ele>
        <time>2021-07-01T13:17:16Z</time>
      </trkpt>
      <trkpt lat="41.978580" lon="2.706611">
        <ele>117.72937</ele>
        <time>2021-07-01T13:17:17Z</time>
      </trkpt>
      <trkpt lat="41.978664" lon="2.706115">
        <ele>117.97595</ele>
        <time>2021-07-01T13:17:18Z</time>
      </trkpt>
      <trkpt lat="41.978695" lon="2.705947">
        <ele>118.22137</ele>
        <time>2021-07-01T13:17:19Z</time>
      </trkpt>
      <trkpt lat="41.978806" lon="2.705289">
        <ele>118.25775</ele>
        <time>2021-07-01T13:17:20Z</time>
      </trkpt>
      <trkpt lat="41.978828" lon="2.705082">
        <ele>118.31146</ele>
        <time>2021-07-01T13:17:21Z</time>
      </trkpt>
      <trkpt lat="41.978828" lon="2.705082">
        <ele>118.96014</ele>
        <time>2021-07-01T13:17:22Z</time>
      </trkpt>
      <trkpt lat="41.978832" lon="2.705017">
        <ele>119.26886</ele>
        <time>2021-07-01T13:17:23Z</time>
      </trkpt>
      <trkpt lat="41.978848" lon="2.704546">
        <ele>118.65216</ele>
        <time>2021-07-01T13:17:24Z</time>
      </trkpt>
      <trkpt lat="41.978836" lon="2.704358">
        <ele>118.51660</ele>
        <time>2021-07-01T13:17:25Z</time>
      </trkpt>
      <trkpt lat="41.978813" lon="2.703993">
        <ele>118.75830</ele>
        <time>2021-07-01T13:17:26Z</time>
      </trkpt>
      <trkpt lat="41.978786" lon="2.703517">
        <ele>118.80798</ele>
        <time>2021-07-01T13:17:27Z</time>
      </trkpt>
      <trkpt lat="41.978764" lon="2.703019">
        <ele>119.12195</ele>
        <time>2021-07-01T13:17:28Z</time>
      </trkpt>
      <trkpt lat="41.978745" lon="2.702581">
        <ele>118.79895</ele>
        <time>2021-07-01T13:17:29Z</time>
      </trkpt>
      <trkpt lat="41.978729" lon="2.702273">
        <ele>117.93701</ele>
        <time>2021-07-01T13:17:30Z</time>
      </trkpt>
      <trkpt lat="41.978710" lon="2.701884">
        <ele>116.93854</ele>
        <time>2021-07-01T13:17:31Z</time>
      </trkpt>
      <trkpt lat="41.978653" lon="2.701531">
        <ele>116.63892</ele>
        <time>2021-07-01T13:17:32Z</time>
      </trkpt>
      <trkpt lat="41.978565" lon="2.701282">
        <ele>116.67419</ele>
        <time>2021-07-01T13:17:33Z</time>
      </trkpt>
      <trkpt lat="41.978550" lon="2.701251">
        <ele>117.25293</ele>
        <time>2021-07-01T13:17:34Z</time>
      </trkpt>
      <trkpt lat="41.978550" lon="2.701251">
        <ele>117.72931</ele>
        <time>2021-07-01T13:17:35Z</time>
      </trkpt>
      <trkpt lat="41.978249" lon="2.700780">
        <ele>117.97070</ele>
        <time>2021-07-01T13:17:36Z</time>
      </trkpt>
      <trkpt lat="41.978176" lon="2.700710">
        <ele>118.12335</ele>
        <time>2021-07-01T13:17:37Z</time>
      </trkpt>
      <trkpt lat="41.977970" lon="2.700546">
        <ele>118.12366</ele>
        <time>2021-07-01T13:17:38Z</time>
      </trkpt>
      <trkpt lat="41.977695" lon="2.700371">
        <ele>118.03052</ele>
        <time>2021-07-01T13:17:39Z</time>
      </trkpt>
      <trkpt lat="41.977558" lon="2.700267">
        <ele>115.28931</ele>
        <time>2021-07-01T13:17:40Z</time>
      </trkpt>
      <trkpt lat="41.977261" lon="2.699826">
        <ele>115.51709</ele>
        <time>2021-07-01T13:17:41Z</time>
      </trkpt>
      <trkpt lat="41.977139" lon="2.699490">
        <ele>115.55658</ele>
        <time>2021-07-01T13:17:42Z</time>
      </trkpt>
      <trkpt lat="41.977024" lon="2.699207">
        <ele>116.01660</ele>
        <time>2021-07-01T13:17:43Z</time>
      </trkpt>
      <trkpt lat="41.977001" lon="2.699158">
        <ele>116.54596</ele>
        <time>2021-07-01T13:17:44Z</time>
      </trkpt>
      <trkpt lat="41.976837" lon="2.698752">
        <ele>116.15558</ele>
        <time>2021-07-01T13:17:45Z</time>
      </trkpt>
      <trkpt lat="41.976837" lon="2.698752">
        <ele>115.81958</ele>
        <time>2021-07-01T13:17:46Z</time>
      </trkpt>
      <trkpt lat="41.976654" lon="2.698269">
        <ele>116.26971</ele>
        <time>2021-07-01T13:17:47Z</time>
      </trkpt>
      <trkpt lat="41.976574" lon="2.698060">
        <ele>116.98694</ele>
        <time>2021-07-01T13:17:48Z</time>
      </trkpt>
      <trkpt lat="41.976448" lon="2.697752">
        <ele>117.70636</ele>
        <time>2021-07-01T13:17:49Z</time>
      </trkpt>
      <trkpt lat="41.976322" lon="2.697375">
        <ele>117.92273</ele>
        <time>2021-07-01T13:17:50Z</time>
      </trkpt>
      <trkpt lat="41.976246" lon="2.696991">
        <ele>118.27234</ele>
        <time>2021-07-01T13:17:51Z</time>
      </trkpt>
      <trkpt lat="41.976135" lon="2.696506">
        <ele>118.10693</ele>
        <time>2021-07-01T13:17:52Z</time>
      </trkpt>
      <trkpt lat="41.976131" lon="2.696489">
        <ele>118.34692</ele>
        <time>2021-07-01T13:17:53Z</time>
      </trkpt>
      <trkpt lat="41.976017" lon="2.696087">
        <ele>118.96045</ele>
        <time>2021-07-01T13:17:54Z</time>
      </trkpt>
      <trkpt lat="41.975903" lon="2.695832">
        <ele>118.81256</ele>
        <time>2021-07-01T13:17:55Z</time>
      </trkpt>
      <trkpt lat="41.975777" lon="2.695586">
        <ele>117.91406</ele>
        <time>2021-07-01T13:17:56Z</time>
      </trkpt>
      <trkpt lat="41.975777" lon="2.695586">
        <ele>118.53705</ele>
        <time>2021-07-01T13:17:57Z</time>
      </trkpt>
      <trkpt lat="41.975685" lon="2.695439">
        <ele>119.51331</ele>
        <time>2021-07-01T13:17:58Z</time>
      </trkpt>
      <trkpt lat="41.975632" lon="2.695348">
        <ele>120.32269</ele>
        <time>2021-07-01T13:17:59Z</time>
      </trkpt>
      <trkpt lat="41.975452" lon="2.695020">
        <ele>122.13379</ele>
        <time>2021-07-01T13:18:00Z</time>
      </trkpt>
      <trkpt lat="41.975368" lon="2.694846">
        <ele>121.75488</ele>
        <time>2021-07-01T13:18:01Z</time>
      </trkpt>
      <trkpt lat="41.975189" lon="2.694465">
        <ele>121.52673</ele>
        <time>2021-07-01T13:18:02Z</time>
      </trkpt>
      <trkpt lat="41.975021" lon="2.694103">
        <ele>123.02588</ele>
        <time>2021-07-01T13:18:03Z</time>
      </trkpt>
      <trkpt lat="41.974995" lon="2.694040">
        <ele>124.71899</ele>
        <time>2021-07-01T13:18:04Z</time>
      </trkpt>
      <trkpt lat="41.974857" lon="2.693746">
        <ele>124.82062</ele>
        <time>2021-07-01T13:18:05Z</time>
      </trkpt>
      <trkpt lat="41.974659" lon="2.693406">
        <ele>124.50903</ele>
        <time>2021-07-01T13:18:06Z</time>
      </trkpt>
      <trkpt lat="41.974632" lon="2.693363">
        <ele>123.89648</ele>
        <time>2021-07-01T13:18:07Z</time>
      </trkpt>
      <trkpt lat="41.974339" lon="2.692830">
        <ele>123.82532</ele>
        <time>2021-07-01T13:18:08Z</time>
      </trkpt>
      <trkpt lat="41.974285" lon="2.692733">
        <ele>123.25037</ele>
        <time>2021-07-01T13:18:09Z</time>
      </trkpt>
      <trkpt lat="41.974285" lon="2.692733">
        <ele>126.10144</ele>
        <time>2021-07-01T13:18:10Z</time>
      </trkpt>
      <trkpt lat="41.974190" lon="2.692529">
        <ele>125.33228</ele>
        <time>2021-07-01T13:18:11Z</time>
      </trkpt>
      <trkpt lat="41.974129" lon="2.692349">
        <ele>125.14001</ele>
        <time>2021-07-01T13:18:12Z</time>
      </trkpt>
      <trkpt lat="41.974018" lon="2.691958">
        <ele>124.62793</ele>
        <time>2021-07-01T13:18:13Z</time>
      </trkpt>
      <trkpt lat="41.973976" lon="2.691816">
        <ele>124.29144</ele>
        <time>2021-07-01T13:18:14Z</time>
      </trkpt>
      <trkpt lat="41.973877" lon="2.691447">
        <ele>123.80841</ele>
        <time>2021-07-01T13:18:15Z</time>
      </trkpt>
      <trkpt lat="41.973774" lon="2.691080">
        <ele>123.58667</ele>
        <time>2021-07-01T13:18:16Z</time>
      </trkpt>
      <trkpt lat="41.973686" lon="2.690766">
        <ele>124.04846</ele>
        <time>2021-07-01T13:18:17Z</time>
      </trkpt>
      <trkpt lat="41.973682" lon="2.690746">
        <ele>123.56189</ele>
        <time>2021-07-01T13:18:18Z</time>
      </trkpt>
      <trkpt lat="41.973480" lon="2.690017">
        <ele>124.06744</ele>
        <time>2021-07-01T13:18:19Z</time>
      </trkpt>
      <trkpt lat="41.973408" lon="2.689750">
        <ele>123.66003</ele>
        <time>2021-07-01T13:18:20Z</time>
      </trkpt>
      <trkpt lat="41.973408" lon="2.689750">
        <ele>123.77893</ele>
        <time>2021-07-01T13:18:21Z</time>
      </trkpt>
      <trkpt lat="41.973312" lon="2.689435">
        <ele>123.87695</ele>
        <time>2021-07-01T13:18:22Z</time>
      </trkpt>
      <trkpt lat="41.973240" lon="2.689211">
        <ele>123.60779</ele>
        <time>2021-07-01T13:18:23Z</time>
      </trkpt>
      <trkpt lat="41.973148" lon="2.688975">
        <ele>124.93597</ele>
        <time>2021-07-01T13:18:24Z</time>
      </trkpt>
      <trkpt lat="41.972908" lon="2.688442">
        <ele>124.12091</ele>
        <time>2021-07-01T13:18:25Z</time>
      </trkpt>
      <trkpt lat="41.972790" lon="2.688197">
        <ele>124.21735</ele>
        <time>2021-07-01T13:18:26Z</time>
      </trkpt>
      <trkpt lat="41.972641" lon="2.687895">
        <ele>124.52942</ele>
        <time>2021-07-01T13:18:27Z</time>
      </trkpt>
      <trkpt lat="41.972507" lon="2.687622">
        <ele>124.34546</ele>
        <time>2021-07-01T13:18:28Z</time>
      </trkpt>
      <trkpt lat="41.972477" lon="2.687561">
        <ele>125.06451</ele>
        <time>2021-07-01T13:18:29Z</time>
      </trkpt>
      <trkpt lat="41.972347" lon="2.687217">
        <ele>124.13129</ele>
        <time>2021-07-01T13:18:30Z</time>
      </trkpt>
      <trkpt lat="41.972279" lon="2.686762">
        <ele>124.74316</ele>
        <time>2021-07-01T13:18:31Z</time>
      </trkpt>
      <trkpt lat="41.972252" lon="2.686413">
        <ele>124.89594</ele>
        <time>2021-07-01T13:18:32Z</time>
      </trkpt>
      <trkpt lat="41.972244" lon="2.686300">
        <ele>124.96350</ele>
        <time>2021-07-01T13:18:33Z</time>
      </trkpt>
      <trkpt lat="41.972244" lon="2.686300">
        <ele>125.09442</ele>
        <time>2021-07-01T13:18:34Z</time>
      </trkpt>
      <trkpt lat="41.972210" lon="2.685520">
        <ele>124.82263</ele>
        <time>2021-07-01T13:18:35Z</time>
      </trkpt>
      <trkpt lat="41.972206" lon="2.685414">
        <ele>123.91089</ele>
        <time>2021-07-01T13:18:36Z</time>
      </trkpt>
      <trkpt lat="41.972198" lon="2.685224">
        <ele>124.58569</ele>
        <time>2021-07-01T13:18:37Z</time>
      </trkpt>
      <trkpt lat="41.972179" lon="2.684750">
        <ele>124.48401</ele>
        <time>2021-07-01T13:18:38Z</time>
      </trkpt>
      <trkpt lat="41.972176" lon="2.684613">
        <ele>125.27063</ele>
        <time>2021-07-01T13:18:39Z</time>
      </trkpt>
      <trkpt lat="41.972157" lon="2.684158">
        <ele>125.07050</ele>
        <time>2021-07-01T13:18:40Z</time>
      </trkpt>
      <trkpt lat="41.972141" lon="2.683788">
        <ele>123.90106</ele>
        <time>2021-07-01T13:18:41Z</time>
      </trkpt>
      <trkpt lat="41.972130" lon="2.683546">
        <ele>125.55920</ele>
        <time>2021-07-01T13:18:42Z</time>
      </trkpt>
      <trkpt lat="41.972130" lon="2.683513">
        <ele>125.22742</ele>
        <time>2021-07-01T13:18:43Z</time>
      </trkpt>
      <trkpt lat="41.972107" lon="2.683088">
        <ele>125.51440</ele>
        <time>2021-07-01T13:18:44Z</time>
      </trkpt>
      <trkpt lat="41.972099" lon="2.682888">
        <ele>124.68530</ele>
        <time>2021-07-01T13:18:45Z</time>
      </trkpt>
      <trkpt lat="41.972099" lon="2.682888">
        <ele>125.19751</ele>
        <time>2021-07-01T13:18:46Z</time>
      </trkpt>
      <trkpt lat="41.972073" lon="2.682347">
        <ele>124.82227</ele>
        <time>2021-07-01T13:18:47Z</time>
      </trkpt>
      <trkpt lat="41.972061" lon="2.682159">
        <ele>125.33850</ele>
        <time>2021-07-01T13:18:48Z</time>
      </trkpt>
      <trkpt lat="41.972057" lon="2.682005">
        <ele>125.40076</ele>
        <time>2021-07-01T13:18:49Z</time>
      </trkpt>
      <trkpt lat="41.972031" lon="2.681509">
        <ele>124.49768</ele>
        <time>2021-07-01T13:18:50Z</time>
      </trkpt>
      <trkpt lat="41.972019" lon="2.681237">
        <ele>124.36646</ele>
        <time>2021-07-01T13:18:51Z</time>
      </trkpt>
      <trkpt lat="41.972000" lon="2.680817">
        <ele>125.30249</ele>
        <time>2021-07-01T13:18:52Z</time>
      </trkpt>
      <trkpt lat="41.971989" lon="2.680593">
        <ele>125.98810</ele>
        <time>2021-07-01T13:18:53Z</time>
      </trkpt>
      <trkpt lat="41.971989" lon="2.680566">
        <ele>126.06152</ele>
        <time>2021-07-01T13:18:54Z</time>
      </trkpt>
      <trkpt lat="41.971962" lon="2.680051">
        <ele>125.96625</ele>
        <time>2021-07-01T13:18:55Z</time>
      </trkpt>
      <trkpt lat="41.971947" lon="2.679739">
        <ele>125.61670</ele>
        <time>2021-07-01T13:18:56Z</time>
      </trkpt>
      <trkpt lat="41.971947" lon="2.679726">
        <ele>125.68994</ele>
        <time>2021-07-01T13:18:57Z</time>
      </trkpt>
      <trkpt lat="41.971924" lon="2.679380">
        <ele>125.82861</ele>
        <time>2021-07-01T13:18:58Z</time>
      </trkpt>
      <trkpt lat="41.971920" lon="2.679198">
        <ele>126.37012</ele>
        <time>2021-07-01T13:18:59Z</time>
      </trkpt>
      <trkpt lat="41.971901" lon="2.678741">
        <ele>126.60413</ele>
        <time>2021-07-01T13:19:00Z</time>
      </trkpt>
      <trkpt lat="41.971901" lon="2.678741">
        <ele>127.10803</ele>
        <time>2021-07-01T13:19:01Z</time>
      </trkpt>
      <trkpt lat="41.971882" lon="2.678381">
        <ele>127.62811</ele>
        <time>2021-07-01T13:19:02Z</time>
      </trkpt>
      <trkpt lat="41.971878" lon="2.678183">
        <ele>128.23657</ele>
        <time>2021-07-01T13:19:03Z</time>
      </trkpt>
      <trkpt lat="41.971874" lon="2.678117">
        <ele>127.75293</ele>
        <time>2021-07-01T13:19:04Z</time>
      </trkpt>
      <trkpt lat="41.971855" lon="2.677582">
        <ele>128.37976</ele>
        <time>2021-07-01T13:19:05Z</time>
      </trkpt>
      <trkpt lat="41.971844" lon="2.677375">
        <ele>128.13715</ele>
        <time>2021-07-01T13:19:06Z</time>
      </trkpt>
      <trkpt lat="41.971836" lon="2.677193">
        <ele>129.03455</ele>
        <time>2021-07-01T13:19:07Z</time>
      </trkpt>
      <trkpt lat="41.971828" lon="2.676964">
        <ele>129.09186</ele>
        <time>2021-07-01T13:19:08Z</time>
      </trkpt>
      <trkpt lat="41.971821" lon="2.676811">
        <ele>129.18115</ele>
        <time>2021-07-01T13:19:09Z</time>
      </trkpt>
      <trkpt lat="41.971813" lon="2.676684">
        <ele>128.68896</ele>
        <time>2021-07-01T13:19:10Z</time>
      </trkpt>
      <trkpt lat="41.971794" lon="2.676460">
        <ele>127.47711</ele>
        <time>2021-07-01T13:19:11Z</time>
      </trkpt>
      <trkpt lat="41.971760" lon="2.676268">
        <ele>126.34619</ele>
        <time>2021-07-01T13:19:12Z</time>
      </trkpt>
      <trkpt lat="41.971748" lon="2.676233">
        <ele>126.45374</ele>
        <time>2021-07-01T13:19:13Z</time>
      </trkpt>
      <trkpt lat="41.971748" lon="2.676233">
        <ele>126.16101</ele>
        <time>2021-07-01T13:19:14Z</time>
      </trkpt>
      <trkpt lat="41.971642" lon="2.675903">
        <ele>125.45538</ele>
        <time>2021-07-01T13:19:15Z</time>
      </trkpt>
      <trkpt lat="41.971577" lon="2.675785">
        <ele>125.73676</ele>
        <time>2021-07-01T13:19:16Z</time>
      </trkpt>
      <trkpt lat="41.971405" lon="2.675530">
        <ele>125.66077</ele>
        <time>2021-07-01T13:19:17Z</time>
      </trkpt>
      <trkpt lat="41.971359" lon="2.675462">
        <ele>126.25574</ele>
        <time>2021-07-01T13:19:18Z</time>
      </trkpt>
      <trkpt lat="41.971233" lon="2.675275">
        <ele>127.47461</ele>
        <time>2021-07-01T13:19:19Z</time>
      </trkpt>
      <trkpt lat="41.971073" lon="2.675040">
        <ele>127.55756</ele>
        <time>2021-07-01T13:19:20Z</time>
      </trkpt>
      <trkpt lat="41.971073" lon="2.675040">
        <ele>127.46143</ele>
        <time>2021-07-01T13:19:21Z</time>
      </trkpt>
      <trkpt lat="41.970921" lon="2.674819">
        <ele>127.30176</ele>
        <time>2021-07-01T13:19:22Z</time>
      </trkpt>
      <trkpt lat="41.970829" lon="2.674686">
        <ele>128.00848</ele>
        <time>2021-07-01T13:19:23Z</time>
      </trkpt>
      <trkpt lat="41.970829" lon="2.674686">
        <ele>128.10400</ele>
        <time>2021-07-01T13:19:24Z</time>
      </trkpt>
      <trkpt lat="41.970650" lon="2.674423">
        <ele>129.01367</ele>
        <time>2021-07-01T13:19:25Z</time>
      </trkpt>
      <trkpt lat="41.970608" lon="2.674361">
        <ele>128.96838</ele>
        <time>2021-07-01T13:19:26Z</time>
      </trkpt>
      <trkpt lat="41.970573" lon="2.674310">
        <ele>129.07056</ele>
        <time>2021-07-01T13:19:27Z</time>
      </trkpt>
      <trkpt lat="41.970566" lon="2.674299">
        <ele>128.85187</ele>
        <time>2021-07-01T13:19:28Z</time>
      </trkpt>
      <trkpt lat="41.970436" lon="2.674111">
        <ele>128.94550</ele>
        <time>2021-07-01T13:19:29Z</time>
      </trkpt>
      <trkpt lat="41.970436" lon="2.674111">
        <ele>128.89832</ele>
        <time>2021-07-01T13:19:30Z</time>
      </trkpt>
      <trkpt lat="41.970432" lon="2.674101">
        <ele>129.82434</ele>
        <time>2021-07-01T13:19:31Z</time>
      </trkpt>
      <trkpt lat="41.970421" lon="2.674089">
        <ele>130.67236</ele>
        <time>2021-07-01T13:19:32Z</time>
      </trkpt>
      <trkpt lat="41.970379" lon="2.674024">
        <ele>130.20801</ele>
        <time>2021-07-01T13:19:33Z</time>
      </trkpt>
      <trkpt lat="41.970375" lon="2.674017">
        <ele>126.90978</ele>
        <time>2021-07-01T13:19:34Z</time>
      </trkpt>
      <trkpt lat="41.970367" lon="2.674010">
        <ele>128.04443</ele>
        <time>2021-07-01T13:19:35Z</time>
      </trkpt>
      <trkpt lat="41.970367" lon="2.674010">
        <ele>128.61365</ele>
        <time>2021-07-01T13:19:36Z</time>
      </trkpt>
      <trkpt lat="41.970367" lon="2.674010">
        <ele>128.50940</ele>
        <time>2021-07-01T13:19:37Z</time>
      </trkpt>
      <trkpt lat="41.970367" lon="2.674010">
        <ele>127.94519</ele>
        <time>2021-07-01T13:19:38Z</time>
      </trkpt>
      <trkpt lat="41.970367" lon="2.674010">
        <ele>129.16724</ele>
        <time>2021-07-01T13:19:39Z</time>
      </trkpt>
      <trkpt lat="41.970367" lon="2.674010">
        <ele>129.85449</ele>
        <time>2021-07-01T13:19:40Z</time>
      </trkpt>
      <trkpt lat="41.970367" lon="2.674010">
        <ele>130.08936</ele>
        <time>2021-07-01T13:19:41Z</time>
      </trkpt>
      <trkpt lat="41.970367" lon="2.674010">
        <ele>129.84393</ele>
        <time>2021-07-01T13:19:42Z</time>
      </trkpt>
      <trkpt lat="41.970367" lon="2.674010">
        <ele>130.47009</ele>
        <time>2021-07-01T13:19:43Z</time>
      </trkpt>
      <trkpt lat="41.970367" lon="2.674010">
        <ele>130.16156</ele>
        <time>2021-07-01T13:19:44Z</time>
      </trkpt>
      <trkpt lat="41.970367" lon="2.674010">
        <ele>129.49646</ele>
        <time>2021-07-01T13:19:45Z</time>
      </trkpt>
      <trkpt lat="41.970367" lon="2.674010">
        <ele>130.08044</ele>
        <time>2021-07-01T13:19:46Z</time>
      </trkpt>
      <trkpt lat="41.970367" lon="2.674010">
        <ele>127.10681</ele>
        <time>2021-07-01T13:19:47Z</time>
      </trkpt>
      <trkpt lat="41.970367" lon="2.674010">
        <ele>128.13812</ele>
        <time>2021-07-01T13:19:48Z</time>
      </trkpt>
      <trkpt lat="41.970367" lon="2.674010">
        <ele>127.13221</ele>
        <time>2021-07-01T13:19:49Z</time>
      </trkpt>
      <trkpt lat="41.970367" lon="2.674010">
        <ele>128.13727</ele>
        <time>2021-07-01T13:19:50Z</time>
      </trkpt>
      <trkpt lat="41.970367" lon="2.674010">
        <ele>128.10413</ele>
        <time>2021-07-01T13:19:51Z</time>
      </trkpt>
      <trkpt lat="41.970367" lon="2.674010">
        <ele>127.59515</ele>
        <time>2021-07-01T13:19:52Z</time>
      </trkpt>
      <trkpt lat="41.970367" lon="2.674010">
        <ele>128.44336</ele>
        <time>2021-07-01T13:19:53Z</time>
      </trkpt>
      <trkpt lat="41.970367" lon="2.674010">
        <ele>128.62939</ele>
        <time>2021-07-01T13:19:54Z</time>
      </trkpt>
      <trkpt lat="41.970367" lon="2.674010">
        <ele>129.15637</ele>
        <time>2021-07-01T13:19:55Z</time>
      </trkpt>
      <trkpt lat="41.970348" lon="2.673979">
        <ele>128.47595</ele>
        <time>2021-07-01T13:19:56Z</time>
      </trkpt>
      <trkpt lat="41.970276" lon="2.673878">
        <ele>128.38629</ele>
        <time>2021-07-01T13:19:57Z</time>
      </trkpt>
      <trkpt lat="41.970203" lon="2.673786">
        <ele>128.98737</ele>
        <time>2021-07-01T13:19:58Z</time>
      </trkpt>
      <trkpt lat="41.970112" lon="2.673666">
        <ele>129.84216</ele>
        <time>2021-07-01T13:19:59Z</time>
      </trkpt>
      <trkpt lat="41.970013" lon="2.673539">
        <ele>130.04956</ele>
        <time>2021-07-01T13:20:00Z</time>
      </trkpt>
      <trkpt lat="41.969917" lon="2.673414">
        <ele>129.19287</ele>
        <time>2021-07-01T13:20:01Z</time>
      </trkpt>
      <trkpt lat="41.969753" lon="2.673195">
        <ele>129.73651</ele>
        <time>2021-07-01T13:20:02Z</time>
      </trkpt>
      <trkpt lat="41.969662" lon="2.673056">
        <ele>130.66467</ele>
        <time>2021-07-01T13:20:03Z</time>
      </trkpt>
      <trkpt lat="41.969624" lon="2.673037">
        <ele>130.15723</ele>
        <time>2021-07-01T13:20:04Z</time>
      </trkpt>
      <trkpt lat="41.969624" lon="2.673037">
        <ele>129.78796</ele>
        <time>2021-07-01T13:20:05Z</time>
      </trkpt>
      <trkpt lat="41.969288" lon="2.672928">
        <ele>130.15759</ele>
        <time>2021-07-01T13:20:06Z</time>
      </trkpt>
      <trkpt lat="41.969261" lon="2.672925">
        <ele>130.80054</ele>
        <time>2021-07-01T13:20:07Z</time>
      </trkpt>
      <trkpt lat="41.969204" lon="2.672919">
        <ele>130.53717</ele>
        <time>2021-07-01T13:20:08Z</time>
      </trkpt>
      <trkpt lat="41.969116" lon="2.672909">
        <ele>130.06360</ele>
        <time>2021-07-01T13:20:09Z</time>
      </trkpt>
      <trkpt lat="41.969028" lon="2.672865">
        <ele>128.98193</ele>
        <time>2021-07-01T13:20:10Z</time>
      </trkpt>
      <trkpt lat="41.969028" lon="2.672855">
        <ele>129.21619</ele>
        <time>2021-07-01T13:20:11Z</time>
      </trkpt>
      <trkpt lat="41.969028" lon="2.672851">
        <ele>129.35394</ele>
        <time>2021-07-01T13:20:12Z</time>
      </trkpt>
      <trkpt lat="41.969021" lon="2.672492">
        <ele>128.03320</ele>
        <time>2021-07-01T13:20:13Z</time>
      </trkpt>
      <trkpt lat="41.969017" lon="2.672346">
        <ele>128.71222</ele>
        <time>2021-07-01T13:20:14Z</time>
      </trkpt>
      <trkpt lat="41.969013" lon="2.672244">
        <ele>126.35907</ele>
        <time>2021-07-01T13:20:15Z</time>
      </trkpt>
      <trkpt lat="41.969013" lon="2.672211">
        <ele>126.31409</ele>
        <time>2021-07-01T13:20:16Z</time>
      </trkpt>
      <trkpt lat="41.969013" lon="2.672211">
        <ele>128.40759</ele>
        <time>2021-07-01T13:20:17Z</time>
      </trkpt>
      <trkpt lat="41.968998" lon="2.671891">
        <ele>125.56946</ele>
        <time>2021-07-01T13:20:18Z</time>
      </trkpt>
      <trkpt lat="41.968994" lon="2.671833">
        <ele>125.54211</ele>
        <time>2021-07-01T13:20:19Z</time>
      </trkpt>
      <trkpt lat="41.968979" lon="2.671650">
        <ele>125.90381</ele>
        <time>2021-07-01T13:20:20Z</time>
      </trkpt>
      <trkpt lat="41.968971" lon="2.671546">
        <ele>125.17432</ele>
        <time>2021-07-01T13:20:21Z</time>
      </trkpt>
      <trkpt lat="41.968956" lon="2.671341">
        <ele>124.58868</ele>
        <time>2021-07-01T13:20:22Z</time>
      </trkpt>
      <trkpt lat="41.968967" lon="2.671164">
        <ele>124.65088</ele>
        <time>2021-07-01T13:20:23Z</time>
      </trkpt>
      <trkpt lat="41.968979" lon="2.671123">
        <ele>122.46655</ele>
        <time>2021-07-01T13:20:24Z</time>
      </trkpt>
      <trkpt lat="41.969055" lon="2.670981">
        <ele>122.04553</ele>
        <time>2021-07-01T13:20:25Z</time>
      </trkpt>
      <trkpt lat="41.969166" lon="2.670896">
        <ele>121.19916</ele>
        <time>2021-07-01T13:20:26Z</time>
      </trkpt>
      <trkpt lat="41.969177" lon="2.670887">
        <ele>121.64111</ele>
        <time>2021-07-01T13:20:27Z</time>
      </trkpt>
      <trkpt lat="41.969421" lon="2.670815">
        <ele>121.33844</ele>
        <time>2021-07-01T13:20:28Z</time>
      </trkpt>
      <trkpt lat="41.969540" lon="2.670791">
        <ele>121.61383</ele>
        <time>2021-07-01T13:20:29Z</time>
      </trkpt>
      <trkpt lat="41.969540" lon="2.670791">
        <ele>121.45984</ele>
        <time>2021-07-01T13:20:30Z</time>
      </trkpt>
      <trkpt lat="41.969597" lon="2.670779">
        <ele>119.60394</ele>
        <time>2021-07-01T13:20:31Z</time>
      </trkpt>
      <trkpt lat="41.970058" lon="2.670700">
        <ele>119.58313</ele>
        <time>2021-07-01T13:20:32Z</time>
      </trkpt>
      <trkpt lat="41.970108" lon="2.670691">
        <ele>119.99756</ele>
        <time>2021-07-01T13:20:33Z</time>
      </trkpt>
      <trkpt lat="41.970387" lon="2.670640">
        <ele>120.51611</ele>
        <time>2021-07-01T13:20:34Z</time>
      </trkpt>
      <trkpt lat="41.970566" lon="2.670607">
        <ele>120.95154</ele>
        <time>2021-07-01T13:20:35Z</time>
      </trkpt>
      <trkpt lat="41.970680" lon="2.670586">
        <ele>120.75464</ele>
        <time>2021-07-01T13:20:36Z</time>
      </trkpt>
      <trkpt lat="41.970890" lon="2.670545">
        <ele>120.70068</ele>
        <time>2021-07-01T13:20:37Z</time>
      </trkpt>
      <trkpt lat="41.971096" lon="2.670505">
        <ele>121.99866</ele>
        <time>2021-07-01T13:20:38Z</time>
      </trkpt>
      <trkpt lat="41.971329" lon="2.670459">
        <ele>123.04462</ele>
        <time>2021-07-01T13:20:39Z</time>
      </trkpt>
      <trkpt lat="41.971600" lon="2.670406">
        <ele>122.45703</ele>
        <time>2021-07-01T13:20:40Z</time>
      </trkpt>
      <trkpt lat="41.971958" lon="2.670335">
        <ele>123.26306</ele>
        <time>2021-07-01T13:20:41Z</time>
      </trkpt>
      <trkpt lat="41.971958" lon="2.670335">
        <ele>122.51099</ele>
        <time>2021-07-01T13:20:42Z</time>
      </trkpt>
      <trkpt lat="41.972130" lon="2.670302">
        <ele>122.66339</ele>
        <time>2021-07-01T13:20:43Z</time>
      </trkpt>
      <trkpt lat="41.972221" lon="2.670284">
        <ele>122.33215</ele>
        <time>2021-07-01T13:20:44Z</time>
      </trkpt>
      <trkpt lat="41.972504" lon="2.670234">
        <ele>123.05981</ele>
        <time>2021-07-01T13:20:45Z</time>
      </trkpt>
      <trkpt lat="41.972637" lon="2.670217">
        <ele>122.64740</ele>
        <time>2021-07-01T13:20:46Z</time>
      </trkpt>
      <trkpt lat="41.972855" lon="2.670233">
        <ele>122.84137</ele>
        <time>2021-07-01T13:20:47Z</time>
      </trkpt>
      <trkpt lat="41.972992" lon="2.670295">
        <ele>123.34967</ele>
        <time>2021-07-01T13:20:48Z</time>
      </trkpt>
      <trkpt lat="41.973194" lon="2.670460">
        <ele>127.35021</ele>
        <time>2021-07-01T13:20:49Z</time>
      </trkpt>
      <trkpt lat="41.973408" lon="2.670676">
        <ele>126.34315</ele>
        <time>2021-07-01T13:20:50Z</time>
      </trkpt>
      <trkpt lat="41.973583" lon="2.670839">
        <ele>125.94859</ele>
        <time>2021-07-01T13:20:51Z</time>
      </trkpt>
      <trkpt lat="41.973644" lon="2.670891">
        <ele>125.68032</ele>
        <time>2021-07-01T13:20:52Z</time>
      </trkpt>
      <trkpt lat="41.973793" lon="2.670969">
        <ele>125.56630</ele>
        <time>2021-07-01T13:20:53Z</time>
      </trkpt>
      <trkpt lat="41.973934" lon="2.670993">
        <ele>126.63475</ele>
        <time>2021-07-01T13:20:54Z</time>
      </trkpt>
      <trkpt lat="41.973934" lon="2.670993">
        <ele>127.83448</ele>
        <time>2021-07-01T13:20:55Z</time>
      </trkpt>
      <trkpt lat="41.974007" lon="2.670987">
        <ele>129.12259</ele>
        <time>2021-07-01T13:20:56Z</time>
      </trkpt>
      <trkpt lat="41.974205" lon="2.670916">
        <ele>132.24138</ele>
        <time>2021-07-01T13:20:57Z</time>
      </trkpt>
      <trkpt lat="41.974609" lon="2.670690">
        <ele>133.00970</ele>
        <time>2021-07-01T13:20:58Z</time>
      </trkpt>
      <trkpt lat="41.974705" lon="2.670661">
        <ele>133.54431</ele>
        <time>2021-07-01T13:20:59Z</time>
      </trkpt>
      <trkpt lat="41.974850" lon="2.670643">
        <ele>135.22337</ele>
        <time>2021-07-01T13:21:00Z</time>
      </trkpt>
      <trkpt lat="41.974964" lon="2.670687">
        <ele>136.39568</ele>
        <time>2021-07-01T13:21:01Z</time>
      </trkpt>
      <trkpt lat="41.975147" lon="2.670810">
        <ele>137.90775</ele>
        <time>2021-07-01T13:21:02Z</time>
      </trkpt>
      <trkpt lat="41.975288" lon="2.670954">
        <ele>139.60005</ele>
        <time>2021-07-01T13:21:03Z</time>
      </trkpt>
      <trkpt lat="41.975456" lon="2.671140">
        <ele>136.35803</ele>
        <time>2021-07-01T13:21:04Z</time>
      </trkpt>
      <trkpt lat="41.975456" lon="2.671140">
        <ele>134.39020</ele>
        <time>2021-07-01T13:21:05Z</time>
      </trkpt>
      <trkpt lat="41.975510" lon="2.671199">
        <ele>134.88330</ele>
        <time>2021-07-01T13:21:06Z</time>
      </trkpt>
      <trkpt lat="41.975807" lon="2.671592">
        <ele>135.03772</ele>
        <time>2021-07-01T13:21:07Z</time>
      </trkpt>
      <trkpt lat="41.975819" lon="2.671606">
        <ele>135.62170</ele>
        <time>2021-07-01T13:21:08Z</time>
      </trkpt>
      <trkpt lat="41.975895" lon="2.671709">
        <ele>135.12280</ele>
        <time>2021-07-01T13:21:09Z</time>
      </trkpt>
      <trkpt lat="41.976082" lon="2.671964">
        <ele>134.90723</ele>
        <time>2021-07-01T13:21:10Z</time>
      </trkpt>
      <trkpt lat="41.976128" lon="2.672025">
        <ele>134.01355</ele>
        <time>2021-07-01T13:21:11Z</time>
      </trkpt>
      <trkpt lat="41.976242" lon="2.672193">
        <ele>133.45630</ele>
        <time>2021-07-01T13:21:12Z</time>
      </trkpt>
      <trkpt lat="41.976284" lon="2.672258">
        <ele>133.59058</ele>
        <time>2021-07-01T13:21:13Z</time>
      </trkpt>
      <trkpt lat="41.976490" lon="2.672552">
        <ele>132.56976</ele>
        <time>2021-07-01T13:21:14Z</time>
      </trkpt>
      <trkpt lat="41.976566" lon="2.672633">
        <ele>133.62390</ele>
        <time>2021-07-01T13:21:15Z</time>
      </trkpt>
      <trkpt lat="41.976662" lon="2.672655">
        <ele>134.32025</ele>
        <time>2021-07-01T13:21:16Z</time>
      </trkpt>
      <trkpt lat="41.976734" lon="2.672641">
        <ele>134.17584</ele>
        <time>2021-07-01T13:21:17Z</time>
      </trkpt>
      <trkpt lat="41.976734" lon="2.672641">
        <ele>132.37384</ele>
        <time>2021-07-01T13:21:18Z</time>
      </trkpt>
      <trkpt lat="41.976807" lon="2.672611">
        <ele>132.05261</ele>
        <time>2021-07-01T13:21:19Z</time>
      </trkpt>
      <trkpt lat="41.977066" lon="2.672529">
        <ele>130.40698</ele>
        <time>2021-07-01T13:21:20Z</time>
      </trkpt>
      <trkpt lat="41.977116" lon="2.672519">
        <ele>130.02789</ele>
        <time>2021-07-01T13:21:21Z</time>
      </trkpt>
      <trkpt lat="41.977272" lon="2.672497">
        <ele>129.85706</ele>
        <time>2021-07-01T13:21:22Z</time>
      </trkpt>
      <trkpt lat="41.977360" lon="2.672487">
        <ele>130.51086</ele>
        <time>2021-07-01T13:21:23Z</time>
      </trkpt>
      <trkpt lat="41.977478" lon="2.672450">
        <ele>129.58441</ele>
        <time>2021-07-01T13:21:24Z</time>
      </trkpt>
      <trkpt lat="41.977623" lon="2.672385">
        <ele>127.32172</ele>
        <time>2021-07-01T13:21:25Z</time>
      </trkpt>
      <trkpt lat="41.977684" lon="2.672353">
        <ele>128.17371</ele>
        <time>2021-07-01T13:21:26Z</time>
      </trkpt>
      <trkpt lat="41.977932" lon="2.672331">
        <ele>127.65045</ele>
        <time>2021-07-01T13:21:27Z</time>
      </trkpt>
      <trkpt lat="41.978001" lon="2.672416">
        <ele>128.13245</ele>
        <time>2021-07-01T13:21:28Z</time>
      </trkpt>
      <trkpt lat="41.978039" lon="2.672513">
        <ele>126.87592</ele>
        <time>2021-07-01T13:21:29Z</time>
      </trkpt>
      <trkpt lat="41.978100" lon="2.672677">
        <ele>127.14362</ele>
        <time>2021-07-01T13:21:30Z</time>
      </trkpt>
      <trkpt lat="41.978100" lon="2.672677">
        <ele>126.93359</ele>
        <time>2021-07-01T13:21:31Z</time>
      </trkpt>
      <trkpt lat="41.978207" lon="2.672940">
        <ele>126.02625</ele>
        <time>2021-07-01T13:21:32Z</time>
      </trkpt>
      <trkpt lat="41.978283" lon="2.673124">
        <ele>123.46570</ele>
        <time>2021-07-01T13:21:33Z</time>
      </trkpt>
      <trkpt lat="41.978336" lon="2.673259">
        <ele>123.40027</ele>
        <time>2021-07-01T13:21:34Z</time>
      </trkpt>
      <trkpt lat="41.978500" lon="2.673716">
        <ele>122.13098</ele>
        <time>2021-07-01T13:21:35Z</time>
      </trkpt>
      <trkpt lat="41.978504" lon="2.673727">
        <ele>121.96844</ele>
        <time>2021-07-01T13:21:36Z</time>
      </trkpt>
      <trkpt lat="41.978481" lon="2.673979">
        <ele>122.42297</ele>
        <time>2021-07-01T13:21:37Z</time>
      </trkpt>
      <trkpt lat="41.978336" lon="2.674125">
        <ele>122.67938</ele>
        <time>2021-07-01T13:21:38Z</time>
      </trkpt>
      <trkpt lat="41.978336" lon="2.674125">
        <ele>122.84802</ele>
        <time>2021-07-01T13:21:39Z</time>
      </trkpt>
      <trkpt lat="41.978298" lon="2.674153">
        <ele>122.27527</ele>
        <time>2021-07-01T13:21:40Z</time>
      </trkpt>
      <trkpt lat="41.978149" lon="2.674266">
        <ele>121.32019</ele>
        <time>2021-07-01T13:21:41Z</time>
      </trkpt>
      <trkpt lat="41.978008" lon="2.674377">
        <ele>121.28137</ele>
        <time>2021-07-01T13:21:42Z</time>
      </trkpt>
      <trkpt lat="41.977993" lon="2.674389">
        <ele>119.60822</ele>
        <time>2021-07-01T13:21:43Z</time>
      </trkpt>
      <trkpt lat="41.977711" lon="2.674706">
        <ele>120.23645</ele>
        <time>2021-07-01T13:21:44Z</time>
      </trkpt>
      <trkpt lat="41.977711" lon="2.674706">
        <ele>120.46191</ele>
        <time>2021-07-01T13:21:45Z</time>
      </trkpt>
      <trkpt lat="41.977608" lon="2.675139">
        <ele>118.68976</ele>
        <time>2021-07-01T13:21:46Z</time>
      </trkpt>
      <trkpt lat="41.977608" lon="2.675139">
        <ele>118.08392</ele>
        <time>2021-07-01T13:21:47Z</time>
      </trkpt>
      <trkpt lat="41.977612" lon="2.675156">
        <ele>118.74591</ele>
        <time>2021-07-01T13:21:48Z</time>
      </trkpt>
      <trkpt lat="41.977654" lon="2.675315">
        <ele>118.12378</ele>
        <time>2021-07-01T13:21:49Z</time>
      </trkpt>
      <trkpt lat="41.977745" lon="2.675598">
        <ele>117.99963</ele>
        <time>2021-07-01T13:21:50Z</time>
      </trkpt>
      <trkpt lat="41.977818" lon="2.675823">
        <ele>118.44635</ele>
        <time>2021-07-01T13:21:51Z</time>
      </trkpt>
      <trkpt lat="41.977905" lon="2.676116">
        <ele>118.17938</ele>
        <time>2021-07-01T13:21:52Z</time>
      </trkpt>
      <trkpt lat="41.978004" lon="2.676466">
        <ele>118.47620</ele>
        <time>2021-07-01T13:21:53Z</time>
      </trkpt>
      <trkpt lat="41.978008" lon="2.676482">
        <ele>118.54816</ele>
        <time>2021-07-01T13:21:54Z</time>
      </trkpt>
      <trkpt lat="41.978081" lon="2.676857">
        <ele>118.14062</ele>
        <time>2021-07-01T13:21:55Z</time>
      </trkpt>
      <trkpt lat="41.978146" lon="2.677332">
        <ele>118.29083</ele>
        <time>2021-07-01T13:21:56Z</time>
      </trkpt>
      <trkpt lat="41.978176" lon="2.677587">
        <ele>117.91357</ele>
        <time>2021-07-01T13:21:57Z</time>
      </trkpt>
      <trkpt lat="41.978184" lon="2.677672">
        <ele>117.05682</ele>
        <time>2021-07-01T13:21:58Z</time>
      </trkpt>
      <trkpt lat="41.978241" lon="2.678135">
        <ele>117.13263</ele>
        <time>2021-07-01T13:21:59Z</time>
      </trkpt>
      <trkpt lat="41.978241" lon="2.678135">
        <ele>116.08337</ele>
        <time>2021-07-01T13:22:00Z</time>
      </trkpt>
      <trkpt lat="41.978271" lon="2.678400">
        <ele>115.24597</ele>
        <time>2021-07-01T13:22:01Z</time>
      </trkpt>
      <trkpt lat="41.978336" lon="2.678916">
        <ele>113.91211</ele>
        <time>2021-07-01T13:22:02Z</time>
      </trkpt>
      <trkpt lat="41.978371" lon="2.679212">
        <ele>114.24048</ele>
        <time>2021-07-01T13:22:03Z</time>
      </trkpt>
      <trkpt lat="41.978390" lon="2.679358">
        <ele>114.46075</ele>
        <time>2021-07-01T13:22:04Z</time>
      </trkpt>
      <trkpt lat="41.978447" lon="2.679737">
        <ele>114.90009</ele>
        <time>2021-07-01T13:22:05Z</time>
      </trkpt>
      <trkpt lat="41.978550" lon="2.680065">
        <ele>113.61407</ele>
        <time>2021-07-01T13:22:06Z</time>
      </trkpt>
      <trkpt lat="41.978558" lon="2.680089">
        <ele>113.48895</ele>
        <time>2021-07-01T13:22:07Z</time>
      </trkpt>
      <trkpt lat="41.978687" lon="2.680552">
        <ele>114.76831</ele>
        <time>2021-07-01T13:22:08Z</time>
      </trkpt>
      <trkpt lat="41.978710" lon="2.680615">
        <ele>115.56781</ele>
        <time>2021-07-01T13:22:09Z</time>
      </trkpt>
      <trkpt lat="41.978832" lon="2.680798">
        <ele>115.51086</ele>
        <time>2021-07-01T13:22:10Z</time>
      </trkpt>
      <trkpt lat="41.978851" lon="2.680819">
        <ele>115.43445</ele>
        <time>2021-07-01T13:22:11Z</time>
      </trkpt>
      <trkpt lat="41.978851" lon="2.680819">
        <ele>116.10510</ele>
        <time>2021-07-01T13:22:12Z</time>
      </trkpt>
      <trkpt lat="41.978989" lon="2.680920">
        <ele>116.80988</ele>
        <time>2021-07-01T13:22:13Z</time>
      </trkpt>
      <trkpt lat="41.979187" lon="2.681096">
        <ele>118.19153</ele>
        <time>2021-07-01T13:22:14Z</time>
      </trkpt>
      <trkpt lat="41.979248" lon="2.681171">
        <ele>119.04895</ele>
        <time>2021-07-01T13:22:15Z</time>
      </trkpt>
      <trkpt lat="41.979336" lon="2.681289">
        <ele>120.27863</ele>
        <time>2021-07-01T13:22:16Z</time>
      </trkpt>
      <trkpt lat="41.979492" lon="2.681570">
        <ele>121.36182</ele>
        <time>2021-07-01T13:22:17Z</time>
      </trkpt>
      <trkpt lat="41.979630" lon="2.681789">
        <ele>121.64209</ele>
        <time>2021-07-01T13:22:18Z</time>
      </trkpt>
      <trkpt lat="41.979683" lon="2.681870">
        <ele>122.33160</ele>
        <time>2021-07-01T13:22:19Z</time>
      </trkpt>
      <trkpt lat="41.979801" lon="2.682046">
        <ele>124.44000</ele>
        <time>2021-07-01T13:22:20Z</time>
      </trkpt>
      <trkpt lat="41.979916" lon="2.682176">
        <ele>122.89905</ele>
        <time>2021-07-01T13:22:21Z</time>
      </trkpt>
      <trkpt lat="41.980202" lon="2.682485">
        <ele>124.38910</ele>
        <time>2021-07-01T13:22:22Z</time>
      </trkpt>
      <trkpt lat="41.980263" lon="2.682551">
        <ele>124.03125</ele>
        <time>2021-07-01T13:22:23Z</time>
      </trkpt>
      <trkpt lat="41.980530" lon="2.682793">
        <ele>123.80048</ele>
        <time>2021-07-01T13:22:24Z</time>
      </trkpt>
      <trkpt lat="41.980644" lon="2.682891">
        <ele>123.57825</ele>
        <time>2021-07-01T13:22:25Z</time>
      </trkpt>
      <trkpt lat="41.980644" lon="2.682891">
        <ele>123.82336</ele>
        <time>2021-07-01T13:22:26Z</time>
      </trkpt>
      <trkpt lat="41.980904" lon="2.683149">
        <ele>123.19385</ele>
        <time>2021-07-01T13:22:27Z</time>
      </trkpt>
      <trkpt lat="41.981037" lon="2.683372">
        <ele>123.27692</ele>
        <time>2021-07-01T13:22:28Z</time>
      </trkpt>
      <trkpt lat="41.981102" lon="2.683569">
        <ele>125.39001</ele>
        <time>2021-07-01T13:22:29Z</time>
      </trkpt>
      <trkpt lat="41.981136" lon="2.683706">
        <ele>121.68860</ele>
        <time>2021-07-01T13:22:30Z</time>
      </trkpt>
      <trkpt lat="41.981209" lon="2.683997">
        <ele>119.86401</ele>
        <time>2021-07-01T13:22:31Z</time>
      </trkpt>
      <trkpt lat="41.981319" lon="2.684440">
        <ele>119.66766</ele>
        <time>2021-07-01T13:22:32Z</time>
      </trkpt>
      <trkpt lat="41.981323" lon="2.684448">
        <ele>121.93970</ele>
        <time>2021-07-01T13:22:33Z</time>
      </trkpt>
      <trkpt lat="41.981384" lon="2.684856">
        <ele>123.44397</ele>
        <time>2021-07-01T13:22:34Z</time>
      </trkpt>
      <trkpt lat="41.981369" lon="2.685128">
        <ele>123.23828</ele>
        <time>2021-07-01T13:22:35Z</time>
      </trkpt>
      <trkpt lat="41.981365" lon="2.685152">
        <ele>121.21948</ele>
        <time>2021-07-01T13:22:36Z</time>
      </trkpt>
      <trkpt lat="41.981312" lon="2.685794">
        <ele>123.15674</ele>
        <time>2021-07-01T13:22:37Z</time>
      </trkpt>
      <trkpt lat="41.981312" lon="2.685794">
        <ele>122.99542</ele>
        <time>2021-07-01T13:22:38Z</time>
      </trkpt>
      <trkpt lat="41.981319" lon="2.685868">
        <ele>123.83948</ele>
        <time>2021-07-01T13:22:39Z</time>
      </trkpt>
      <trkpt lat="41.981346" lon="2.685991">
        <ele>123.86041</ele>
        <time>2021-07-01T13:22:40Z</time>
      </trkpt>
      <trkpt lat="41.981411" lon="2.686274">
        <ele>123.58191</ele>
        <time>2021-07-01T13:22:41Z</time>
      </trkpt>
      <trkpt lat="41.981606" lon="2.686518">
        <ele>123.98340</ele>
        <time>2021-07-01T13:22:42Z</time>
      </trkpt>
      <trkpt lat="41.981613" lon="2.686517">
        <ele>123.17072</ele>
        <time>2021-07-01T13:22:43Z</time>
      </trkpt>
      <trkpt lat="41.981613" lon="2.686517">
        <ele>124.26733</ele>
        <time>2021-07-01T13:22:44Z</time>
      </trkpt>
      <trkpt lat="41.981709" lon="2.686427">
        <ele>124.01715</ele>
        <time>2021-07-01T13:22:45Z</time>
      </trkpt>
      <trkpt lat="41.981819" lon="2.686290">
        <ele>121.29333</ele>
        <time>2021-07-01T13:22:46Z</time>
      </trkpt>
      <trkpt lat="41.981930" lon="2.686250">
        <ele>121.09711</ele>
        <time>2021-07-01T13:22:47Z</time>
      </trkpt>
      <trkpt lat="41.981941" lon="2.686248">
        <ele>122.00476</ele>
        <time>2021-07-01T13:22:48Z</time>
      </trkpt>
      <trkpt lat="41.982143" lon="2.686307">
        <ele>122.94720</ele>
        <time>2021-07-01T13:22:49Z</time>
      </trkpt>
      <trkpt lat="41.982162" lon="2.686324">
        <ele>121.73975</ele>
        <time>2021-07-01T13:22:50Z</time>
      </trkpt>
      <trkpt lat="41.982162" lon="2.686324">
        <ele>122.53363</ele>
        <time>2021-07-01T13:22:51Z</time>
      </trkpt>
      <trkpt lat="41.982182" lon="2.686347">
        <ele>123.64124</ele>
        <time>2021-07-01T13:22:52Z</time>
      </trkpt>
      <trkpt lat="41.982258" lon="2.686464">
        <ele>123.60388</ele>
        <time>2021-07-01T13:22:53Z</time>
      </trkpt>
      <trkpt lat="41.982449" lon="2.686710">
        <ele>124.25903</ele>
        <time>2021-07-01T13:22:54Z</time>
      </trkpt>
      <trkpt lat="41.982594" lon="2.686830">
        <ele>124.56213</ele>
        <time>2021-07-01T13:22:55Z</time>
      </trkpt>
      <trkpt lat="41.982780" lon="2.686957">
        <ele>124.94897</ele>
        <time>2021-07-01T13:22:56Z</time>
      </trkpt>
      <trkpt lat="41.983021" lon="2.687055">
        <ele>125.61578</ele>
        <time>2021-07-01T13:22:57Z</time>
      </trkpt>
      <trkpt lat="41.983154" lon="2.687090">
        <ele>126.18854</ele>
        <time>2021-07-01T13:22:58Z</time>
      </trkpt>
      <trkpt lat="41.983311" lon="2.687117">
        <ele>123.06598</ele>
        <time>2021-07-01T13:22:59Z</time>
      </trkpt>
      <trkpt lat="41.983479" lon="2.687132">
        <ele>123.77100</ele>
        <time>2021-07-01T13:23:00Z</time>
      </trkpt>
      <trkpt lat="41.983685" lon="2.687120">
        <ele>123.80029</ele>
        <time>2021-07-01T13:23:01Z</time>
      </trkpt>
      <trkpt lat="41.983864" lon="2.687098">
        <ele>122.91022</ele>
        <time>2021-07-01T13:23:02Z</time>
      </trkpt>
      <trkpt lat="41.983944" lon="2.687054">
        <ele>122.03314</ele>
        <time>2021-07-01T13:23:03Z</time>
      </trkpt>
      <trkpt lat="41.983986" lon="2.687015">
        <ele>121.09351</ele>
        <time>2021-07-01T13:23:04Z</time>
      </trkpt>
      <trkpt lat="41.983990" lon="2.687012">
        <ele>121.12964</ele>
        <time>2021-07-01T13:23:05Z</time>
      </trkpt>
      <trkpt lat="41.984196" lon="2.686829">
        <ele>122.83472</ele>
        <time>2021-07-01T13:23:06Z</time>
      </trkpt>
      <trkpt lat="41.984196" lon="2.686829">
        <ele>123.64508</ele>
        <time>2021-07-01T13:23:07Z</time>
      </trkpt>
      <trkpt lat="41.984245" lon="2.686785">
        <ele>125.36603</ele>
        <time>2021-07-01T13:23:08Z</time>
      </trkpt>
      <trkpt lat="41.984516" lon="2.686637">
        <ele>124.22839</ele>
        <time>2021-07-01T13:23:09Z</time>
      </trkpt>
      <trkpt lat="41.984741" lon="2.686617">
        <ele>124.35498</ele>
        <time>2021-07-01T13:23:10Z</time>
      </trkpt>
      <trkpt lat="41.984791" lon="2.686629">
        <ele>125.69647</ele>
        <time>2021-07-01T13:23:11Z</time>
      </trkpt>
      <trkpt lat="41.984886" lon="2.686649">
        <ele>126.94696</ele>
        <time>2021-07-01T13:23:12Z</time>
      </trkpt>
      <trkpt lat="41.985153" lon="2.686662">
        <ele>126.41571</ele>
        <time>2021-07-01T13:23:13Z</time>
      </trkpt>
      <trkpt lat="41.985260" lon="2.686642">
        <ele>126.57495</ele>
        <time>2021-07-01T13:23:14Z</time>
      </trkpt>
      <trkpt lat="41.985428" lon="2.686590">
        <ele>123.82050</ele>
        <time>2021-07-01T13:23:15Z</time>
      </trkpt>
      <trkpt lat="41.985538" lon="2.686532">
        <ele>124.25940</ele>
        <time>2021-07-01T13:23:16Z</time>
      </trkpt>
      <trkpt lat="41.985760" lon="2.686309">
        <ele>126.16669</ele>
        <time>2021-07-01T13:23:17Z</time>
      </trkpt>
      <trkpt lat="41.985783" lon="2.686277">
        <ele>126.86798</ele>
        <time>2021-07-01T13:23:18Z</time>
      </trkpt>
      <trkpt lat="41.985886" lon="2.686011">
        <ele>127.93176</ele>
        <time>2021-07-01T13:23:19Z</time>
      </trkpt>
      <trkpt lat="41.985905" lon="2.685865">
        <ele>127.88257</ele>
        <time>2021-07-01T13:23:20Z</time>
      </trkpt>
      <trkpt lat="41.985893" lon="2.685685">
        <ele>128.51379</ele>
        <time>2021-07-01T13:23:21Z</time>
      </trkpt>
      <trkpt lat="41.985889" lon="2.685650">
        <ele>130.01617</ele>
        <time>2021-07-01T13:23:22Z</time>
      </trkpt>
      <trkpt lat="41.985889" lon="2.685650">
        <ele>130.03833</ele>
        <time>2021-07-01T13:23:23Z</time>
      </trkpt>
      <trkpt lat="41.985985" lon="2.685289">
        <ele>131.48682</ele>
        <time>2021-07-01T13:23:24Z</time>
      </trkpt>
      <trkpt lat="41.986012" lon="2.685257">
        <ele>131.57300</ele>
        <time>2021-07-01T13:23:25Z</time>
      </trkpt>
      <trkpt lat="41.986126" lon="2.685182">
        <ele>132.58624</ele>
        <time>2021-07-01T13:23:26Z</time>
      </trkpt>
      <trkpt lat="41.986160" lon="2.685170">
        <ele>140.85934</ele>
        <time>2021-07-01T13:23:27Z</time>
      </trkpt>
      <trkpt lat="41.986217" lon="2.685164">
        <ele>141.07314</ele>
        <time>2021-07-01T13:23:28Z</time>
      </trkpt>
      <trkpt lat="41.986294" lon="2.685168">
        <ele>140.53290</ele>
        <time>2021-07-01T13:23:29Z</time>
      </trkpt>
      <trkpt lat="41.986389" lon="2.685185">
        <ele>140.22343</ele>
        <time>2021-07-01T13:23:30Z</time>
      </trkpt>
      <trkpt lat="41.986622" lon="2.685248">
        <ele>138.33301</ele>
        <time>2021-07-01T13:23:31Z</time>
      </trkpt>
      <trkpt lat="41.986843" lon="2.685320">
        <ele>137.07068</ele>
        <time>2021-07-01T13:23:32Z</time>
      </trkpt>
      <trkpt lat="41.986931" lon="2.685318">
        <ele>136.07428</ele>
        <time>2021-07-01T13:23:33Z</time>
      </trkpt>
      <trkpt lat="41.987041" lon="2.685267">
        <ele>136.01990</ele>
        <time>2021-07-01T13:23:34Z</time>
      </trkpt>
      <trkpt lat="41.987125" lon="2.685175">
        <ele>134.19781</ele>
        <time>2021-07-01T13:23:35Z</time>
      </trkpt>
      <trkpt lat="41.987125" lon="2.685175">
        <ele>133.20166</ele>
        <time>2021-07-01T13:23:36Z</time>
      </trkpt>
      <trkpt lat="41.987198" lon="2.685013">
        <ele>134.31067</ele>
        <time>2021-07-01T13:23:37Z</time>
      </trkpt>
      <trkpt lat="41.987259" lon="2.684806">
        <ele>134.91681</ele>
        <time>2021-07-01T13:23:38Z</time>
      </trkpt>
      <trkpt lat="41.987347" lon="2.684513">
        <ele>134.84180</ele>
        <time>2021-07-01T13:23:39Z</time>
      </trkpt>
      <trkpt lat="41.987377" lon="2.684415">
        <ele>134.18372</ele>
        <time>2021-07-01T13:23:40Z</time>
      </trkpt>
      <trkpt lat="41.987434" lon="2.684284">
        <ele>135.83649</ele>
        <time>2021-07-01T13:23:41Z</time>
      </trkpt>
      <trkpt lat="41.987511" lon="2.684176">
        <ele>135.96472</ele>
        <time>2021-07-01T13:23:42Z</time>
      </trkpt>
      <trkpt lat="41.987629" lon="2.684082">
        <ele>137.61255</ele>
        <time>2021-07-01T13:23:43Z</time>
      </trkpt>
      <trkpt lat="41.987743" lon="2.683990">
        <ele>138.78003</ele>
        <time>2021-07-01T13:23:44Z</time>
      </trkpt>
      <trkpt lat="41.987900" lon="2.683793">
        <ele>138.91949</ele>
        <time>2021-07-01T13:23:45Z</time>
      </trkpt>
      <trkpt lat="41.987926" lon="2.683703">
        <ele>138.51495</ele>
        <time>2021-07-01T13:23:46Z</time>
      </trkpt>
      <trkpt lat="41.987934" lon="2.683533">
        <ele>139.15143</ele>
        <time>2021-07-01T13:23:47Z</time>
      </trkpt>
      <trkpt lat="41.987934" lon="2.683533">
        <ele>138.75421</ele>
        <time>2021-07-01T13:23:48Z</time>
      </trkpt>
      <trkpt lat="41.987904" lon="2.683311">
        <ele>139.83948</ele>
        <time>2021-07-01T13:23:49Z</time>
      </trkpt>
      <trkpt lat="41.987854" lon="2.683041">
        <ele>141.05878</ele>
        <time>2021-07-01T13:23:50Z</time>
      </trkpt>
      <trkpt lat="41.987804" lon="2.682775">
        <ele>142.06897</ele>
        <time>2021-07-01T13:23:51Z</time>
      </trkpt>
      <trkpt lat="41.987793" lon="2.682596">
        <ele>142.38428</ele>
        <time>2021-07-01T13:23:52Z</time>
      </trkpt>
      <trkpt lat="41.987804" lon="2.682463">
        <ele>143.28809</ele>
        <time>2021-07-01T13:23:53Z</time>
      </trkpt>
      <trkpt lat="41.987862" lon="2.682288">
        <ele>145.76276</ele>
        <time>2021-07-01T13:23:54Z</time>
      </trkpt>
      <trkpt lat="41.987961" lon="2.682032">
        <ele>145.20593</ele>
        <time>2021-07-01T13:23:55Z</time>
      </trkpt>
      <trkpt lat="41.988110" lon="2.681700">
        <ele>146.34265</ele>
        <time>2021-07-01T13:23:56Z</time>
      </trkpt>
      <trkpt lat="41.988228" lon="2.681436">
        <ele>148.19214</ele>
        <time>2021-07-01T13:23:57Z</time>
      </trkpt>
      <trkpt lat="41.988304" lon="2.681262">
        <ele>149.74512</ele>
        <time>2021-07-01T13:23:58Z</time>
      </trkpt>
      <trkpt lat="41.988373" lon="2.681126">
        <ele>149.61426</ele>
        <time>2021-07-01T13:23:59Z</time>
      </trkpt>
      <trkpt lat="41.988400" lon="2.681091">
        <ele>149.46387</ele>
        <time>2021-07-01T13:24:00Z</time>
      </trkpt>
      <trkpt lat="41.988441" lon="2.681050">
        <ele>149.62537</ele>
        <time>2021-07-01T13:24:01Z</time>
      </trkpt>
      <trkpt lat="41.988441" lon="2.681050">
        <ele>152.75964</ele>
        <time>2021-07-01T13:24:02Z</time>
      </trkpt>
      <trkpt lat="41.988503" lon="2.681018">
        <ele>153.30261</ele>
        <time>2021-07-01T13:24:03Z</time>
      </trkpt>
      <trkpt lat="41.988640" lon="2.681032">
        <ele>153.78802</ele>
        <time>2021-07-01T13:24:04Z</time>
      </trkpt>
      <trkpt lat="41.988747" lon="2.681067">
        <ele>153.91864</ele>
        <time>2021-07-01T13:24:05Z</time>
      </trkpt>
      <trkpt lat="41.988918" lon="2.681081">
        <ele>153.59991</ele>
        <time>2021-07-01T13:24:06Z</time>
      </trkpt>
      <trkpt lat="41.989113" lon="2.681089">
        <ele>152.94385</ele>
        <time>2021-07-01T13:24:07Z</time>
      </trkpt>
      <trkpt lat="41.989223" lon="2.681097">
        <ele>153.66602</ele>
        <time>2021-07-01T13:24:08Z</time>
      </trkpt>
      <trkpt lat="41.989426" lon="2.681127">
        <ele>152.73846</ele>
        <time>2021-07-01T13:24:09Z</time>
      </trkpt>
      <trkpt lat="41.989529" lon="2.681171">
        <ele>152.98242</ele>
        <time>2021-07-01T13:24:10Z</time>
      </trkpt>
      <trkpt lat="41.989529" lon="2.681171">
        <ele>154.72461</ele>
        <time>2021-07-01T13:24:11Z</time>
      </trkpt>
      <trkpt lat="41.989597" lon="2.681258">
        <ele>154.08020</ele>
        <time>2021-07-01T13:24:12Z</time>
      </trkpt>
      <trkpt lat="41.989639" lon="2.681312">
        <ele>152.91815</ele>
        <time>2021-07-01T13:24:13Z</time>
      </trkpt>
      <trkpt lat="41.989716" lon="2.681396">
        <ele>153.97113</ele>
        <time>2021-07-01T13:24:14Z</time>
      </trkpt>
      <trkpt lat="41.989803" lon="2.681414">
        <ele>154.06952</ele>
        <time>2021-07-01T13:24:15Z</time>
      </trkpt>
      <trkpt lat="41.989883" lon="2.681381">
        <ele>156.46106</ele>
        <time>2021-07-01T13:24:16Z</time>
      </trkpt>
      <trkpt lat="41.989964" lon="2.681349">
        <ele>157.86823</ele>
        <time>2021-07-01T13:24:17Z</time>
      </trkpt>
      <trkpt lat="41.990093" lon="2.681300">
        <ele>157.68738</ele>
        <time>2021-07-01T13:24:18Z</time>
      </trkpt>
      <trkpt lat="41.990330" lon="2.681267">
        <ele>157.56970</ele>
        <time>2021-07-01T13:24:19Z</time>
      </trkpt>
      <trkpt lat="41.990566" lon="2.681232">
        <ele>158.67822</ele>
        <time>2021-07-01T13:24:20Z</time>
      </trkpt>
      <trkpt lat="41.990738" lon="2.681182">
        <ele>160.66992</ele>
        <time>2021-07-01T13:24:21Z</time>
      </trkpt>
      <trkpt lat="41.990894" lon="2.681124">
        <ele>160.70508</ele>
        <time>2021-07-01T13:24:22Z</time>
      </trkpt>
      <trkpt lat="41.990894" lon="2.681124">
        <ele>158.42499</ele>
        <time>2021-07-01T13:24:23Z</time>
      </trkpt>
      <trkpt lat="41.991089" lon="2.681043">
        <ele>155.59607</ele>
        <time>2021-07-01T13:24:24Z</time>
      </trkpt>
      <trkpt lat="41.991238" lon="2.680971">
        <ele>156.23633</ele>
        <time>2021-07-01T13:24:25Z</time>
      </trkpt>
      <trkpt lat="41.991367" lon="2.680843">
        <ele>156.53711</ele>
        <time>2021-07-01T13:24:26Z</time>
      </trkpt>
      <trkpt lat="41.991436" lon="2.680704">
        <ele>156.69739</ele>
        <time>2021-07-01T13:24:27Z</time>
      </trkpt>
      <trkpt lat="41.991474" lon="2.680600">
        <ele>155.24060</ele>
        <time>2021-07-01T13:24:28Z</time>
      </trkpt>
      <trkpt lat="41.991558" lon="2.680331">
        <ele>158.19202</ele>
        <time>2021-07-01T13:24:29Z</time>
      </trkpt>
      <trkpt lat="41.991657" lon="2.679991">
        <ele>159.89728</ele>
        <time>2021-07-01T13:24:30Z</time>
      </trkpt>
      <trkpt lat="41.991730" lon="2.679867">
        <ele>159.30273</ele>
        <time>2021-07-01T13:24:31Z</time>
      </trkpt>
      <trkpt lat="41.991745" lon="2.679841">
        <ele>161.28790</ele>
        <time>2021-07-01T13:24:32Z</time>
      </trkpt>
      <trkpt lat="41.991852" lon="2.679661">
        <ele>161.36969</ele>
        <time>2021-07-01T13:24:33Z</time>
      </trkpt>
      <trkpt lat="41.991920" lon="2.679533">
        <ele>166.35052</ele>
        <time>2021-07-01T13:24:34Z</time>
      </trkpt>
      <trkpt lat="41.992004" lon="2.679395">
        <ele>166.85315</ele>
        <time>2021-07-01T13:24:35Z</time>
      </trkpt>
      <trkpt lat="41.992134" lon="2.679213">
        <ele>166.91821</ele>
        <time>2021-07-01T13:24:36Z</time>
      </trkpt>
      <trkpt lat="41.992249" lon="2.679048">
        <ele>167.96411</ele>
        <time>2021-07-01T13:24:37Z</time>
      </trkpt>
      <trkpt lat="41.992256" lon="2.679036">
        <ele>167.82886</ele>
        <time>2021-07-01T13:24:38Z</time>
      </trkpt>
      <trkpt lat="41.992256" lon="2.679036">
        <ele>167.42188</ele>
        <time>2021-07-01T13:24:39Z</time>
      </trkpt>
      <trkpt lat="41.992371" lon="2.678863">
        <ele>168.78168</ele>
        <time>2021-07-01T13:24:40Z</time>
      </trkpt>
      <trkpt lat="41.992393" lon="2.678820">
        <ele>169.90778</ele>
        <time>2021-07-01T13:24:41Z</time>
      </trkpt>
      <trkpt lat="41.992462" lon="2.678676">
        <ele>170.78430</ele>
        <time>2021-07-01T13:24:42Z</time>
      </trkpt>
      <trkpt lat="41.992485" lon="2.678629">
        <ele>172.60156</ele>
        <time>2021-07-01T13:24:43Z</time>
      </trkpt>
      <trkpt lat="41.992523" lon="2.678518">
        <ele>174.74744</ele>
        <time>2021-07-01T13:24:44Z</time>
      </trkpt>
      <trkpt lat="41.992542" lon="2.678475">
        <ele>176.78094</ele>
        <time>2021-07-01T13:24:45Z</time>
      </trkpt>
      <trkpt lat="41.992657" lon="2.678276">
        <ele>177.83887</ele>
        <time>2021-07-01T13:24:46Z</time>
      </trkpt>
      <trkpt lat="41.992748" lon="2.678137">
        <ele>178.09851</ele>
        <time>2021-07-01T13:24:47Z</time>
      </trkpt>
      <trkpt lat="41.992752" lon="2.678134">
        <ele>178.98108</ele>
        <time>2021-07-01T13:24:48Z</time>
      </trkpt>
      <trkpt lat="41.992962" lon="2.677872">
        <ele>179.32074</ele>
        <time>2021-07-01T13:24:49Z</time>
      </trkpt>
      <trkpt lat="41.992996" lon="2.677826">
        <ele>180.07611</ele>
        <time>2021-07-01T13:24:50Z</time>
      </trkpt>
      <trkpt lat="41.992996" lon="2.677826">
        <ele>178.57013</ele>
        <time>2021-07-01T13:24:51Z</time>
      </trkpt>
      <trkpt lat="41.993114" lon="2.677527">
        <ele>179.60876</ele>
        <time>2021-07-01T13:24:52Z</time>
      </trkpt>
      <trkpt lat="41.993145" lon="2.677436">
        <ele>180.26288</ele>
        <time>2021-07-01T13:24:53Z</time>
      </trkpt>
      <trkpt lat="41.993183" lon="2.677333">
        <ele>181.73431</ele>
        <time>2021-07-01T13:24:54Z</time>
      </trkpt>
      <trkpt lat="41.993233" lon="2.677203">
        <ele>182.06433</ele>
        <time>2021-07-01T13:24:55Z</time>
      </trkpt>
      <trkpt lat="41.993282" lon="2.676961">
        <ele>182.25458</ele>
        <time>2021-07-01T13:24:56Z</time>
      </trkpt>
      <trkpt lat="41.993294" lon="2.676781">
        <ele>183.99384</ele>
        <time>2021-07-01T13:24:57Z</time>
      </trkpt>
      <trkpt lat="41.993275" lon="2.676687">
        <ele>185.33990</ele>
        <time>2021-07-01T13:24:58Z</time>
      </trkpt>
      <trkpt lat="41.993137" lon="2.676457">
        <ele>187.72229</ele>
        <time>2021-07-01T13:24:59Z</time>
      </trkpt>
      <trkpt lat="41.993126" lon="2.676427">
        <ele>188.17773</ele>
        <time>2021-07-01T13:25:00Z</time>
      </trkpt>
      <trkpt lat="41.993137" lon="2.676272">
        <ele>189.51849</ele>
        <time>2021-07-01T13:25:01Z</time>
      </trkpt>
      <trkpt lat="41.993149" lon="2.676242">
        <ele>190.25824</ele>
        <time>2021-07-01T13:25:02Z</time>
      </trkpt>
      <trkpt lat="41.993149" lon="2.676242">
        <ele>191.08209</ele>
        <time>2021-07-01T13:25:03Z</time>
      </trkpt>
      <trkpt lat="41.993179" lon="2.676197">
        <ele>189.10052</ele>
        <time>2021-07-01T13:25:04Z</time>
      </trkpt>
      <trkpt lat="41.993202" lon="2.676175">
        <ele>191.04242</ele>
        <time>2021-07-01T13:25:05Z</time>
      </trkpt>
      <trkpt lat="41.993263" lon="2.676124">
        <ele>191.63940</ele>
        <time>2021-07-01T13:25:06Z</time>
      </trkpt>
      <trkpt lat="41.993465" lon="2.675951">
        <ele>191.40796</ele>
        <time>2021-07-01T13:25:07Z</time>
      </trkpt>
      <trkpt lat="41.993698" lon="2.675741">
        <ele>191.33777</ele>
        <time>2021-07-01T13:25:08Z</time>
      </trkpt>
      <trkpt lat="41.993855" lon="2.675539">
        <ele>191.22809</ele>
        <time>2021-07-01T13:25:09Z</time>
      </trkpt>
      <trkpt lat="41.993942" lon="2.675424">
        <ele>192.25323</ele>
        <time>2021-07-01T13:25:10Z</time>
      </trkpt>
      <trkpt lat="41.994049" lon="2.675287">
        <ele>193.48083</ele>
        <time>2021-07-01T13:25:11Z</time>
      </trkpt>
      <trkpt lat="41.994225" lon="2.675064">
        <ele>195.26648</ele>
        <time>2021-07-01T13:25:12Z</time>
      </trkpt>
      <trkpt lat="41.994366" lon="2.674823">
        <ele>195.11041</ele>
        <time>2021-07-01T13:25:13Z</time>
      </trkpt>
      <trkpt lat="41.994453" lon="2.674643">
        <ele>196.14392</ele>
        <time>2021-07-01T13:25:14Z</time>
      </trkpt>
      <trkpt lat="41.994473" lon="2.674605">
        <ele>194.07593</ele>
        <time>2021-07-01T13:25:15Z</time>
      </trkpt>
      <trkpt lat="41.994473" lon="2.674605">
        <ele>195.90686</ele>
        <time>2021-07-01T13:25:16Z</time>
      </trkpt>
      <trkpt lat="41.994606" lon="2.674196">
        <ele>195.50439</ele>
        <time>2021-07-01T13:25:17Z</time>
      </trkpt>
      <trkpt lat="41.994686" lon="2.673875">
        <ele>195.11328</ele>
        <time>2021-07-01T13:25:18Z</time>
      </trkpt>
      <trkpt lat="41.994804" lon="2.673624">
        <ele>196.00653</ele>
        <time>2021-07-01T13:25:19Z</time>
      </trkpt>
      <trkpt lat="41.994850" lon="2.673509">
        <ele>195.84241</ele>
        <time>2021-07-01T13:25:20Z</time>
      </trkpt>
      <trkpt lat="41.994926" lon="2.673279">
        <ele>198.45166</ele>
        <time>2021-07-01T13:25:21Z</time>
      </trkpt>
      <trkpt lat="41.994995" lon="2.672970">
        <ele>200.15277</ele>
        <time>2021-07-01T13:25:22Z</time>
      </trkpt>
      <trkpt lat="41.994995" lon="2.672957">
        <ele>201.98987</ele>
        <time>2021-07-01T13:25:23Z</time>
      </trkpt>
      <trkpt lat="41.994991" lon="2.672615">
        <ele>202.52686</ele>
        <time>2021-07-01T13:25:24Z</time>
      </trkpt>
      <trkpt lat="41.994980" lon="2.672432">
        <ele>203.10785</ele>
        <time>2021-07-01T13:25:25Z</time>
      </trkpt>
      <trkpt lat="41.994980" lon="2.672432">
        <ele>202.22717</ele>
        <time>2021-07-01T13:25:26Z</time>
      </trkpt>
      <trkpt lat="41.994957" lon="2.672234">
        <ele>203.46899</ele>
        <time>2021-07-01T13:25:27Z</time>
      </trkpt>
      <trkpt lat="41.994892" lon="2.672038">
        <ele>205.69299</ele>
        <time>2021-07-01T13:25:28Z</time>
      </trkpt>
      <trkpt lat="41.994865" lon="2.671959">
        <ele>206.12891</ele>
        <time>2021-07-01T13:25:29Z</time>
      </trkpt>
      <trkpt lat="41.994907" lon="2.671722">
        <ele>206.20422</ele>
        <time>2021-07-01T13:25:30Z</time>
      </trkpt>
      <trkpt lat="41.994942" lon="2.671713">
        <ele>205.84924</ele>
        <time>2021-07-01T13:25:31Z</time>
      </trkpt>
      <trkpt lat="41.994968" lon="2.671708">
        <ele>205.69104</ele>
        <time>2021-07-01T13:25:32Z</time>
      </trkpt>
      <trkpt lat="41.994968" lon="2.671708">
        <ele>205.91992</ele>
        <time>2021-07-01T13:25:33Z</time>
      </trkpt>
      <trkpt lat="41.994968" lon="2.671708">
        <ele>207.18127</ele>
        <time>2021-07-01T13:25:34Z</time>
      </trkpt>
      <trkpt lat="41.994995" lon="2.671717">
        <ele>211.46674</ele>
        <time>2021-07-01T13:25:35Z</time>
      </trkpt>
      <trkpt lat="41.995434" lon="2.671772">
        <ele>212.74036</ele>
        <time>2021-07-01T13:25:36Z</time>
      </trkpt>
      <trkpt lat="41.995522" lon="2.671663">
        <ele>212.52075</ele>
        <time>2021-07-01T13:25:37Z</time>
      </trkpt>
      <trkpt lat="41.995522" lon="2.671663">
        <ele>212.65643</ele>
        <time>2021-07-01T13:25:38Z</time>
      </trkpt>
      <trkpt lat="41.995537" lon="2.671646">
        <ele>215.01184</ele>
        <time>2021-07-01T13:25:39Z</time>
      </trkpt>
      <trkpt lat="41.995724" lon="2.671477">
        <ele>214.28333</ele>
        <time>2021-07-01T13:25:40Z</time>
      </trkpt>
      <trkpt lat="41.995846" lon="2.671382">
        <ele>215.26257</ele>
        <time>2021-07-01T13:25:41Z</time>
      </trkpt>
      <trkpt lat="41.996147" lon="2.671179">
        <ele>217.09253</ele>
        <time>2021-07-01T13:25:42Z</time>
      </trkpt>
      <trkpt lat="41.996193" lon="2.671136">
        <ele>217.51941</ele>
        <time>2021-07-01T13:25:43Z</time>
      </trkpt>
      <trkpt lat="41.996239" lon="2.670926">
        <ele>219.44238</ele>
        <time>2021-07-01T13:25:44Z</time>
      </trkpt>
      <trkpt lat="41.996239" lon="2.670768">
        <ele>220.28809</ele>
        <time>2021-07-01T13:25:45Z</time>
      </trkpt>
      <trkpt lat="41.996239" lon="2.670743">
        <ele>220.39856</ele>
        <time>2021-07-01T13:25:46Z</time>
      </trkpt>
      <trkpt lat="41.996273" lon="2.670637">
        <ele>221.40796</ele>
        <time>2021-07-01T13:25:47Z</time>
      </trkpt>
      <trkpt lat="41.996353" lon="2.670572">
        <ele>221.59180</ele>
        <time>2021-07-01T13:25:48Z</time>
      </trkpt>
      <trkpt lat="41.996353" lon="2.670572">
        <ele>222.93225</ele>
        <time>2021-07-01T13:25:49Z</time>
      </trkpt>
      <trkpt lat="41.996475" lon="2.670576">
        <ele>220.69360</ele>
        <time>2021-07-01T13:25:50Z</time>
      </trkpt>
      <trkpt lat="41.996609" lon="2.670553">
        <ele>219.89087</ele>
        <time>2021-07-01T13:25:51Z</time>
      </trkpt>
      <trkpt lat="41.996681" lon="2.670468">
        <ele>219.60657</ele>
        <time>2021-07-01T13:25:52Z</time>
      </trkpt>
      <trkpt lat="41.996864" lon="2.670112">
        <ele>219.81525</ele>
        <time>2021-07-01T13:25:53Z</time>
      </trkpt>
      <trkpt lat="41.997002" lon="2.669832">
        <ele>220.65051</ele>
        <time>2021-07-01T13:25:54Z</time>
      </trkpt>
      <trkpt lat="41.997089" lon="2.669652">
        <ele>220.79614</ele>
        <time>2021-07-01T13:25:55Z</time>
      </trkpt>
      <trkpt lat="41.997204" lon="2.669418">
        <ele>221.53076</ele>
        <time>2021-07-01T13:25:56Z</time>
      </trkpt>
      <trkpt lat="41.997288" lon="2.669243">
        <ele>221.76001</ele>
        <time>2021-07-01T13:25:57Z</time>
      </trkpt>
      <trkpt lat="41.997417" lon="2.668952">
        <ele>223.02924</ele>
        <time>2021-07-01T13:25:58Z</time>
      </trkpt>
      <trkpt lat="41.997540" lon="2.668739">
        <ele>223.60785</ele>
        <time>2021-07-01T13:25:59Z</time>
      </trkpt>
      <trkpt lat="41.997547" lon="2.668723">
        <ele>223.99951</ele>
        <time>2021-07-01T13:26:00Z</time>
      </trkpt>
      <trkpt lat="41.997547" lon="2.668723">
        <ele>224.06738</ele>
        <time>2021-07-01T13:26:01Z</time>
      </trkpt>
      <trkpt lat="41.997761" lon="2.668466">
        <ele>224.23572</ele>
        <time>2021-07-01T13:26:02Z</time>
      </trkpt>
      <trkpt lat="41.997894" lon="2.668428">
        <ele>224.45618</ele>
        <time>2021-07-01T13:26:03Z</time>
      </trkpt>
      <trkpt lat="41.997894" lon="2.668428">
        <ele>224.50903</ele>
        <time>2021-07-01T13:26:04Z</time>
      </trkpt>
      <trkpt lat="41.997993" lon="2.668432">
        <ele>225.60291</ele>
        <time>2021-07-01T13:26:05Z</time>
      </trkpt>
      <trkpt lat="41.998257" lon="2.668431">
        <ele>225.30139</ele>
        <time>2021-07-01T13:26:06Z</time>
      </trkpt>
      <trkpt lat="41.998360" lon="2.668424">
        <ele>229.14569</ele>
        <time>2021-07-01T13:26:07Z</time>
      </trkpt>
      <trkpt lat="41.998428" lon="2.668418">
        <ele>228.81213</ele>
        <time>2021-07-01T13:26:08Z</time>
      </trkpt>
      <trkpt lat="41.998699" lon="2.668405">
        <ele>228.00769</ele>
        <time>2021-07-01T13:26:09Z</time>
      </trkpt>
      <trkpt lat="41.999008" lon="2.668454">
        <ele>227.71277</ele>
        <time>2021-07-01T13:26:10Z</time>
      </trkpt>
      <trkpt lat="41.999249" lon="2.668517">
        <ele>233.53619</ele>
        <time>2021-07-01T13:26:11Z</time>
      </trkpt>
      <trkpt lat="41.999321" lon="2.668527">
        <ele>233.02283</ele>
        <time>2021-07-01T13:26:12Z</time>
      </trkpt>
      <trkpt lat="41.999607" lon="2.668501">
        <ele>233.34827</ele>
        <time>2021-07-01T13:26:13Z</time>
      </trkpt>
      <trkpt lat="41.999863" lon="2.668390">
        <ele>233.38428</ele>
        <time>2021-07-01T13:26:14Z</time>
      </trkpt>
      <trkpt lat="41.999901" lon="2.668373">
        <ele>237.56848</ele>
        <time>2021-07-01T13:26:15Z</time>
      </trkpt>
      <trkpt lat="42.000351" lon="2.668166">
        <ele>238.96155</ele>
        <time>2021-07-01T13:26:16Z</time>
      </trkpt>
      <trkpt lat="42.000351" lon="2.668166">
        <ele>238.97046</ele>
        <time>2021-07-01T13:26:17Z</time>
      </trkpt>
      <trkpt lat="42.000416" lon="2.668136">
        <ele>239.01501</ele>
        <time>2021-07-01T13:26:18Z</time>
      </trkpt>
      <trkpt lat="42.000484" lon="2.668105">
        <ele>240.45154</ele>
        <time>2021-07-01T13:26:19Z</time>
      </trkpt>
      <trkpt lat="42.000576" lon="2.668082">
        <ele>240.43042</ele>
        <time>2021-07-01T13:26:20Z</time>
      </trkpt>
      <trkpt lat="42.000748" lon="2.668118">
        <ele>240.36755</ele>
        <time>2021-07-01T13:26:21Z</time>
      </trkpt>
      <trkpt lat="42.000782" lon="2.668134">
        <ele>240.41632</ele>
        <time>2021-07-01T13:26:22Z</time>
      </trkpt>
      <trkpt lat="42.000832" lon="2.668160">
        <ele>241.73645</ele>
        <time>2021-07-01T13:26:23Z</time>
      </trkpt>
      <trkpt lat="42.000957" lon="2.668233">
        <ele>243.84009</ele>
        <time>2021-07-01T13:26:24Z</time>
      </trkpt>
      <trkpt lat="42.001022" lon="2.668272">
        <ele>243.83588</ele>
        <time>2021-07-01T13:26:25Z</time>
      </trkpt>
      <trkpt lat="42.001179" lon="2.668379">
        <ele>243.83484</ele>
        <time>2021-07-01T13:26:26Z</time>
      </trkpt>
      <trkpt lat="42.001328" lon="2.668493">
        <ele>245.90857</ele>
        <time>2021-07-01T13:26:27Z</time>
      </trkpt>
      <trkpt lat="42.001339" lon="2.668503">
        <ele>246.36914</ele>
        <time>2021-07-01T13:26:28Z</time>
      </trkpt>
      <trkpt lat="42.001415" lon="2.668702">
        <ele>247.61218</ele>
        <time>2021-07-01T13:26:29Z</time>
      </trkpt>
      <trkpt lat="42.001411" lon="2.668721">
        <ele>248.25366</ele>
        <time>2021-07-01T13:26:30Z</time>
      </trkpt>
      <trkpt lat="42.001411" lon="2.668721">
        <ele>248.59167</ele>
        <time>2021-07-01T13:26:31Z</time>
      </trkpt>
      <trkpt lat="42.001377" lon="2.668796">
        <ele>247.35828</ele>
        <time>2021-07-01T13:26:32Z</time>
      </trkpt>
      <trkpt lat="42.001343" lon="2.668833">
        <ele>247.35986</ele>
        <time>2021-07-01T13:26:33Z</time>
      </trkpt>
      <trkpt lat="42.001312" lon="2.668846">
        <ele>249.80121</ele>
        <time>2021-07-01T13:26:34Z</time>
      </trkpt>
      <trkpt lat="42.001209" lon="2.668834">
        <ele>249.73242</ele>
        <time>2021-07-01T13:26:35Z</time>
      </trkpt>
      <trkpt lat="42.001190" lon="2.668821">
        <ele>250.13916</ele>
        <time>2021-07-01T13:26:36Z</time>
      </trkpt>
      <trkpt lat="42.001141" lon="2.668792">
        <ele>250.88702</ele>
        <time>2021-07-01T13:26:37Z</time>
      </trkpt>
      <trkpt lat="42.001022" lon="2.668727">
        <ele>250.51978</ele>
        <time>2021-07-01T13:26:38Z</time>
      </trkpt>
      <trkpt lat="42.000931" lon="2.668679">
        <ele>251.10449</ele>
        <time>2021-07-01T13:26:39Z</time>
      </trkpt>
      <trkpt lat="42.000923" lon="2.668675">
        <ele>251.81866</ele>
        <time>2021-07-01T13:26:40Z</time>
      </trkpt>
      <trkpt lat="42.000748" lon="2.668657">
        <ele>251.15735</ele>
        <time>2021-07-01T13:26:41Z</time>
      </trkpt>
      <trkpt lat="42.000664" lon="2.668683">
        <ele>251.21899</ele>
        <time>2021-07-01T13:26:42Z</time>
      </trkpt>
      <trkpt lat="42.000664" lon="2.668684">
        <ele>251.63062</ele>
        <time>2021-07-01T13:26:43Z</time>
      </trkpt>
      <trkpt lat="42.000469" lon="2.668908">
        <ele>250.93042</ele>
        <time>2021-07-01T13:26:44Z</time>
      </trkpt>
      <trkpt lat="42.000462" lon="2.668938">
        <ele>253.36066</ele>
        <time>2021-07-01T13:26:45Z</time>
      </trkpt>
      <trkpt lat="42.000469" lon="2.669126">
        <ele>252.27673</ele>
        <time>2021-07-01T13:26:46Z</time>
      </trkpt>
      <trkpt lat="42.000469" lon="2.669126">
        <ele>253.97266</ele>
        <time>2021-07-01T13:26:47Z</time>
      </trkpt>
      <trkpt lat="42.000481" lon="2.669175">
        <ele>253.46625</ele>
        <time>2021-07-01T13:26:48Z</time>
      </trkpt>
      <trkpt lat="42.000565" lon="2.669332">
        <ele>253.47186</ele>
        <time>2021-07-01T13:26:49Z</time>
      </trkpt>
      <trkpt lat="42.000626" lon="2.669432">
        <ele>253.24084</ele>
        <time>2021-07-01T13:26:50Z</time>
      </trkpt>
      <trkpt lat="42.000813" lon="2.669764">
        <ele>254.17773</ele>
        <time>2021-07-01T13:26:51Z</time>
      </trkpt>
      <trkpt lat="42.001007" lon="2.670169">
        <ele>253.87366</ele>
        <time>2021-07-01T13:26:52Z</time>
      </trkpt>
      <trkpt lat="42.001026" lon="2.670209">
        <ele>254.44580</ele>
        <time>2021-07-01T13:26:53Z</time>
      </trkpt>
      <trkpt lat="42.001205" lon="2.670612">
        <ele>255.80371</ele>
        <time>2021-07-01T13:26:54Z</time>
      </trkpt>
      <trkpt lat="42.001312" lon="2.670827">
        <ele>256.74945</ele>
        <time>2021-07-01T13:26:55Z</time>
      </trkpt>
      <trkpt lat="42.001434" lon="2.671028">
        <ele>258.38660</ele>
        <time>2021-07-01T13:26:56Z</time>
      </trkpt>
      <trkpt lat="42.001572" lon="2.671204">
        <ele>259.25610</ele>
        <time>2021-07-01T13:26:57Z</time>
      </trkpt>
      <trkpt lat="42.001572" lon="2.671204">
        <ele>261.22815</ele>
        <time>2021-07-01T13:26:58Z</time>
      </trkpt>
      <trkpt lat="42.001743" lon="2.671385">
        <ele>263.84473</ele>
        <time>2021-07-01T13:26:59Z</time>
      </trkpt>
      <trkpt lat="42.001873" lon="2.671529">
        <ele>267.27661</ele>
        <time>2021-07-01T13:27:00Z</time>
      </trkpt>
      <trkpt lat="42.001938" lon="2.671603">
        <ele>268.25720</ele>
        <time>2021-07-01T13:27:01Z</time>
      </trkpt>
      <trkpt lat="42.002117" lon="2.671868">
        <ele>269.14368</ele>
        <time>2021-07-01T13:27:02Z</time>
      </trkpt>
      <trkpt lat="42.002159" lon="2.671950">
        <ele>270.47449</ele>
        <time>2021-07-01T13:27:03Z</time>
      </trkpt>
      <trkpt lat="42.002209" lon="2.672110">
        <ele>270.60144</ele>
        <time>2021-07-01T13:27:04Z</time>
      </trkpt>
      <trkpt lat="42.002239" lon="2.672321">
        <ele>271.41907</ele>
        <time>2021-07-01T13:27:05Z</time>
      </trkpt>
      <trkpt lat="42.002232" lon="2.672443">
        <ele>271.99170</ele>
        <time>2021-07-01T13:27:06Z</time>
      </trkpt>
      <trkpt lat="42.002182" lon="2.672885">
        <ele>274.80225</ele>
        <time>2021-07-01T13:27:07Z</time>
      </trkpt>
      <trkpt lat="42.002182" lon="2.673086">
        <ele>274.06897</ele>
        <time>2021-07-01T13:27:08Z</time>
      </trkpt>
      <trkpt lat="42.002182" lon="2.673107">
        <ele>275.59631</ele>
        <time>2021-07-01T13:27:09Z</time>
      </trkpt>
      <trkpt lat="42.002182" lon="2.673107">
        <ele>277.25226</ele>
        <time>2021-07-01T13:27:10Z</time>
      </trkpt>
      <trkpt lat="42.002201" lon="2.673499">
        <ele>277.78931</ele>
        <time>2021-07-01T13:27:11Z</time>
      </trkpt>
      <trkpt lat="42.002209" lon="2.673620">
        <ele>277.94775</ele>
        <time>2021-07-01T13:27:12Z</time>
      </trkpt>
      <trkpt lat="42.002220" lon="2.673862">
        <ele>277.18188</ele>
        <time>2021-07-01T13:27:13Z</time>
      </trkpt>
      <trkpt lat="42.002239" lon="2.674005">
        <ele>275.97263</ele>
        <time>2021-07-01T13:27:14Z</time>
      </trkpt>
      <trkpt lat="42.002316" lon="2.674205">
        <ele>275.62881</ele>
        <time>2021-07-01T13:27:15Z</time>
      </trkpt>
      <trkpt lat="42.002396" lon="2.674313">
        <ele>275.97214</ele>
        <time>2021-07-01T13:27:16Z</time>
      </trkpt>
      <trkpt lat="42.002445" lon="2.674365">
        <ele>276.12909</ele>
        <time>2021-07-01T13:27:17Z</time>
      </trkpt>
      <trkpt lat="42.002651" lon="2.674409">
        <ele>277.23306</ele>
        <time>2021-07-01T13:27:18Z</time>
      </trkpt>
      <trkpt lat="42.002735" lon="2.674380">
        <ele>277.69293</ele>
        <time>2021-07-01T13:27:19Z</time>
      </trkpt>
      <trkpt lat="42.002899" lon="2.674266">
        <ele>278.10324</ele>
        <time>2021-07-01T13:27:20Z</time>
      </trkpt>
      <trkpt lat="42.002945" lon="2.674235">
        <ele>279.12781</ele>
        <time>2021-07-01T13:27:21Z</time>
      </trkpt>
      <trkpt lat="42.002945" lon="2.674235">
        <ele>279.16089</ele>
        <time>2021-07-01T13:27:22Z</time>
      </trkpt>
      <trkpt lat="42.003014" lon="2.674183">
        <ele>279.27911</ele>
        <time>2021-07-01T13:27:23Z</time>
      </trkpt>
      <trkpt lat="42.003250" lon="2.674040">
        <ele>279.46869</ele>
        <time>2021-07-01T13:27:24Z</time>
      </trkpt>
      <trkpt lat="42.003448" lon="2.673994">
        <ele>279.81537</ele>
        <time>2021-07-01T13:27:25Z</time>
      </trkpt>
      <trkpt lat="42.003555" lon="2.674005">
        <ele>280.32092</ele>
        <time>2021-07-01T13:27:26Z</time>
      </trkpt>
      <trkpt lat="42.003605" lon="2.674010">
        <ele>282.32178</ele>
        <time>2021-07-01T13:27:27Z</time>
      </trkpt>
      <trkpt lat="42.003887" lon="2.674038">
        <ele>282.79565</ele>
        <time>2021-07-01T13:27:28Z</time>
      </trkpt>
      <trkpt lat="42.004116" lon="2.674054">
        <ele>283.01074</ele>
        <time>2021-07-01T13:27:29Z</time>
      </trkpt>
      <trkpt lat="42.004292" lon="2.674053">
        <ele>283.06665</ele>
        <time>2021-07-01T13:27:30Z</time>
      </trkpt>
      <trkpt lat="42.004444" lon="2.674039">
        <ele>283.79279</ele>
        <time>2021-07-01T13:27:31Z</time>
      </trkpt>
      <trkpt lat="42.004585" lon="2.674017">
        <ele>284.28644</ele>
        <time>2021-07-01T13:27:32Z</time>
      </trkpt>
      <trkpt lat="42.004726" lon="2.673931">
        <ele>283.86029</ele>
        <time>2021-07-01T13:27:33Z</time>
      </trkpt>
      <trkpt lat="42.004753" lon="2.673910">
        <ele>283.77380</ele>
        <time>2021-07-01T13:27:34Z</time>
      </trkpt>
      <trkpt lat="42.004944" lon="2.673674">
        <ele>283.59875</ele>
        <time>2021-07-01T13:27:35Z</time>
      </trkpt>
      <trkpt lat="42.004944" lon="2.673674">
        <ele>283.40613</ele>
        <time>2021-07-01T13:27:36Z</time>
      </trkpt>
      <trkpt lat="42.005058" lon="2.673560">
        <ele>283.54504</ele>
        <time>2021-07-01T13:27:37Z</time>
      </trkpt>
      <trkpt lat="42.005199" lon="2.673537">
        <ele>282.73621</ele>
        <time>2021-07-01T13:27:38Z</time>
      </trkpt>
      <trkpt lat="42.005302" lon="2.673604">
        <ele>283.30939</ele>
        <time>2021-07-01T13:27:39Z</time>
      </trkpt>
      <trkpt lat="42.005314" lon="2.673614">
        <ele>282.81134</ele>
        <time>2021-07-01T13:27:40Z</time>
      </trkpt>
      <trkpt lat="42.005375" lon="2.673688">
        <ele>283.19574</ele>
        <time>2021-07-01T13:27:41Z</time>
      </trkpt>
      <trkpt lat="42.005608" lon="2.673916">
        <ele>284.33130</ele>
        <time>2021-07-01T13:27:42Z</time>
      </trkpt>
      <trkpt lat="42.005684" lon="2.673961">
        <ele>283.91107</ele>
        <time>2021-07-01T13:27:43Z</time>
      </trkpt>
      <trkpt lat="42.006039" lon="2.674300">
        <ele>282.90680</ele>
        <time>2021-07-01T13:27:44Z</time>
      </trkpt>
      <trkpt lat="42.006039" lon="2.674300">
        <ele>284.21161</ele>
        <time>2021-07-01T13:27:45Z</time>
      </trkpt>
      <trkpt lat="42.006069" lon="2.674333">
        <ele>284.36261</ele>
        <time>2021-07-01T13:27:46Z</time>
      </trkpt>
      <trkpt lat="42.006237" lon="2.674536">
        <ele>285.18848</ele>
        <time>2021-07-01T13:27:47Z</time>
      </trkpt>
      <trkpt lat="42.006275" lon="2.674573">
        <ele>285.49091</ele>
        <time>2021-07-01T13:27:48Z</time>
      </trkpt>
      <trkpt lat="42.006374" lon="2.674642">
        <ele>286.27795</ele>
        <time>2021-07-01T13:27:49Z</time>
      </trkpt>
      <trkpt lat="42.006378" lon="2.674642">
        <ele>287.09644</ele>
        <time>2021-07-01T13:27:50Z</time>
      </trkpt>
      <trkpt lat="42.006516" lon="2.674657">
        <ele>288.45935</ele>
        <time>2021-07-01T13:27:51Z</time>
      </trkpt>
      <trkpt lat="42.006660" lon="2.674590">
        <ele>289.20605</ele>
        <time>2021-07-01T13:27:52Z</time>
      </trkpt>
      <trkpt lat="42.006672" lon="2.674583">
        <ele>289.84473</ele>
        <time>2021-07-01T13:27:53Z</time>
      </trkpt>
      <trkpt lat="42.006779" lon="2.674397">
        <ele>290.17798</ele>
        <time>2021-07-01T13:27:54Z</time>
      </trkpt>
      <trkpt lat="42.006802" lon="2.674306">
        <ele>289.37195</ele>
        <time>2021-07-01T13:27:55Z</time>
      </trkpt>
      <trkpt lat="42.006828" lon="2.674025">
        <ele>290.00867</ele>
        <time>2021-07-01T13:27:56Z</time>
      </trkpt>
      <trkpt lat="42.006832" lon="2.673988">
        <ele>290.54382</ele>
        <time>2021-07-01T13:27:57Z</time>
      </trkpt>
      <trkpt lat="42.006832" lon="2.673988">
        <ele>290.45032</ele>
        <time>2021-07-01T13:27:58Z</time>
      </trkpt>
      <trkpt lat="42.006859" lon="2.673648">
        <ele>289.43127</ele>
        <time>2021-07-01T13:27:59Z</time>
      </trkpt>
      <trkpt lat="42.006870" lon="2.673532">
        <ele>290.33691</ele>
        <time>2021-07-01T13:28:00Z</time>
      </trkpt>
      <trkpt lat="42.006897" lon="2.673384">
        <ele>290.33093</ele>
        <time>2021-07-01T13:28:01Z</time>
      </trkpt>
      <trkpt lat="42.006950" lon="2.673233">
        <ele>290.03992</ele>
        <time>2021-07-01T13:28:02Z</time>
      </trkpt>
      <trkpt lat="42.006973" lon="2.673203">
        <ele>290.79010</ele>
        <time>2021-07-01T13:28:03Z</time>
      </trkpt>
      <trkpt lat="42.007137" lon="2.673102">
        <ele>290.95074</ele>
        <time>2021-07-01T13:28:04Z</time>
      </trkpt>
      <trkpt lat="42.007187" lon="2.673087">
        <ele>291.40869</ele>
        <time>2021-07-01T13:28:05Z</time>
      </trkpt>
      <trkpt lat="42.007271" lon="2.673064">
        <ele>291.58533</ele>
        <time>2021-07-01T13:28:06Z</time>
      </trkpt>
      <trkpt lat="42.007332" lon="2.673048">
        <ele>290.22473</ele>
        <time>2021-07-01T13:28:07Z</time>
      </trkpt>
      <trkpt lat="42.007336" lon="2.673047">
        <ele>290.71008</ele>
        <time>2021-07-01T13:28:08Z</time>
      </trkpt>
      <trkpt lat="42.007336" lon="2.673047">
        <ele>290.93176</ele>
        <time>2021-07-01T13:28:09Z</time>
      </trkpt>
      <trkpt lat="42.007351" lon="2.673042">
        <ele>291.17188</ele>
        <time>2021-07-01T13:28:10Z</time>
      </trkpt>
      <trkpt lat="42.007442" lon="2.673008">
        <ele>291.24280</ele>
        <time>2021-07-01T13:28:11Z</time>
      </trkpt>
      <trkpt lat="42.007454" lon="2.673003">
        <ele>291.27802</ele>
        <time>2021-07-01T13:28:12Z</time>
      </trkpt>
      <trkpt lat="42.007481" lon="2.672993">
        <ele>290.87012</ele>
        <time>2021-07-01T13:28:13Z</time>
      </trkpt>
      <trkpt lat="42.007481" lon="2.672993">
        <ele>290.59595</ele>
        <time>2021-07-01T13:28:14Z</time>
      </trkpt>
      <trkpt lat="42.007481" lon="2.672993">
        <ele>290.31311</ele>
        <time>2021-07-01T13:28:15Z</time>
      </trkpt>
      <trkpt lat="42.007481" lon="2.672993">
        <ele>291.21368</ele>
        <time>2021-07-01T13:28:16Z</time>
      </trkpt>
      <trkpt lat="42.007481" lon="2.672993">
        <ele>291.75092</ele>
        <time>2021-07-01T13:28:17Z</time>
      </trkpt>
      <trkpt lat="42.007481" lon="2.672993">
        <ele>291.70044</ele>
        <time>2021-07-01T13:28:18Z</time>
      </trkpt>
      <trkpt lat="42.007481" lon="2.672993">
        <ele>291.74841</ele>
        <time>2021-07-01T13:28:19Z</time>
      </trkpt>
      <trkpt lat="42.007481" lon="2.672993">
        <ele>292.16626</ele>
        <time>2021-07-01T13:28:20Z</time>
      </trkpt>
      <trkpt lat="42.007481" lon="2.672993">
        <ele>287.52298</ele>
        <time>2021-07-01T13:28:21Z</time>
      </trkpt>
      <trkpt lat="42.007481" lon="2.672993">
        <ele>287.42642</ele>
        <time>2021-07-01T13:28:22Z</time>
      </trkpt>
      <trkpt lat="42.007481" lon="2.672993">
        <ele>287.55734</ele>
        <time>2021-07-01T13:28:23Z</time>
      </trkpt>
      <trkpt lat="42.007481" lon="2.672993">
        <ele>287.67380</ele>
        <time>2021-07-01T13:28:24Z</time>
      </trkpt>
      <trkpt lat="42.007481" lon="2.672993">
        <ele>287.88284</ele>
        <time>2021-07-01T13:28:25Z</time>
      </trkpt>
      <trkpt lat="42.007481" lon="2.672993">
        <ele>288.01755</ele>
        <time>2021-07-01T13:28:26Z</time>
      </trkpt>
      <trkpt lat="42.007481" lon="2.672993">
        <ele>288.04105</ele>
        <time>2021-07-01T13:28:27Z</time>
      </trkpt>
      <trkpt lat="42.007481" lon="2.672993">
        <ele>283.10986</ele>
        <time>2021-07-01T13:28:28Z</time>
      </trkpt>
      <trkpt lat="42.007481" lon="2.672993">
        <ele>283.94614</ele>
        <time>2021-07-01T13:28:29Z</time>
      </trkpt>
      <trkpt lat="42.007481" lon="2.672993">
        <ele>283.44818</ele>
        <time>2021-07-01T13:28:30Z</time>
      </trkpt>
      <trkpt lat="42.007481" lon="2.672993">
        <ele>284.72800</ele>
        <time>2021-07-01T13:28:31Z</time>
      </trkpt>
      <trkpt lat="42.007481" lon="2.672993">
        <ele>284.78915</ele>
        <time>2021-07-01T13:28:32Z</time>
      </trkpt>
      <trkpt lat="42.007481" lon="2.672993">
        <ele>283.53162</ele>
        <time>2021-07-01T13:28:33Z</time>
      </trkpt>
      <trkpt lat="42.007481" lon="2.672993">
        <ele>283.63773</ele>
        <time>2021-07-01T13:28:34Z</time>
      </trkpt>
      <trkpt lat="42.007481" lon="2.672993">
        <ele>283.30383</ele>
        <time>2021-07-01T13:28:35Z</time>
      </trkpt>
      <trkpt lat="42.007481" lon="2.672993">
        <ele>282.83899</ele>
        <time>2021-07-01T13:28:36Z</time>
      </trkpt>
      <trkpt lat="42.007481" lon="2.672993">
        <ele>292.13959</ele>
        <time>2021-07-01T13:28:37Z</time>
      </trkpt>
      <trkpt lat="42.007481" lon="2.672993">
        <ele>292.89075</ele>
        <time>2021-07-01T13:28:38Z</time>
      </trkpt>
      <trkpt lat="42.007481" lon="2.672993">
        <ele>293.20801</ele>
        <time>2021-07-01T13:28:39Z</time>
      </trkpt>
      <trkpt lat="42.007481" lon="2.672993">
        <ele>293.45630</ele>
        <time>2021-07-01T13:28:40Z</time>
      </trkpt>
      <trkpt lat="42.007481" lon="2.672993">
        <ele>293.40930</ele>
        <time>2021-07-01T13:28:41Z</time>
      </trkpt>
      <trkpt lat="42.007481" lon="2.672993">
        <ele>293.58899</ele>
        <time>2021-07-01T13:28:42Z</time>
      </trkpt>
      <trkpt lat="42.007481" lon="2.672993">
        <ele>293.69336</ele>
        <time>2021-07-01T13:28:43Z</time>
      </trkpt>
      <trkpt lat="42.007481" lon="2.672993">
        <ele>293.70886</ele>
        <time>2021-07-01T13:28:44Z</time>
      </trkpt>
      <trkpt lat="42.007481" lon="2.672993">
        <ele>293.73633</ele>
        <time>2021-07-01T13:28:45Z</time>
      </trkpt>
      <trkpt lat="42.007481" lon="2.672993">
        <ele>293.67773</ele>
        <time>2021-07-01T13:28:46Z</time>
      </trkpt>
      <trkpt lat="42.007481" lon="2.672993">
        <ele>293.18201</ele>
        <time>2021-07-01T13:28:47Z</time>
      </trkpt>
      <trkpt lat="42.007481" lon="2.672993">
        <ele>292.94696</ele>
        <time>2021-07-01T13:28:48Z</time>
      </trkpt>
      <trkpt lat="42.007481" lon="2.672993">
        <ele>292.61285</ele>
        <time>2021-07-01T13:28:49Z</time>
      </trkpt>
      <trkpt lat="42.007481" lon="2.672993">
        <ele>283.93613</ele>
        <time>2021-07-01T13:28:50Z</time>
      </trkpt>
      <trkpt lat="42.007481" lon="2.672993">
        <ele>290.82684</ele>
        <time>2021-07-01T13:28:51Z</time>
      </trkpt>
      <trkpt lat="42.007481" lon="2.672993">
        <ele>292.23828</ele>
        <time>2021-07-01T13:28:52Z</time>
      </trkpt>
      <trkpt lat="42.007481" lon="2.672993">
        <ele>293.23901</ele>
        <time>2021-07-01T13:28:53Z</time>
      </trkpt>
      <trkpt lat="42.007481" lon="2.672993">
        <ele>294.84509</ele>
        <time>2021-07-01T13:28:54Z</time>
      </trkpt>
      <trkpt lat="42.007481" lon="2.672993">
        <ele>295.53894</ele>
        <time>2021-07-01T13:28:55Z</time>
      </trkpt>
      <trkpt lat="42.007481" lon="2.672993">
        <ele>295.92218</ele>
        <time>2021-07-01T13:28:56Z</time>
      </trkpt>
      <trkpt lat="42.007481" lon="2.672993">
        <ele>295.66656</ele>
        <time>2021-07-01T13:28:57Z</time>
      </trkpt>
      <trkpt lat="42.007481" lon="2.672993">
        <ele>294.57855</ele>
        <time>2021-07-01T13:28:58Z</time>
      </trkpt>
      <trkpt lat="42.007481" lon="2.672993">
        <ele>294.56653</ele>
        <time>2021-07-01T13:28:59Z</time>
      </trkpt>
      <trkpt lat="42.007481" lon="2.672993">
        <ele>294.78699</ele>
        <time>2021-07-01T13:29:00Z</time>
      </trkpt>
      <trkpt lat="42.007481" lon="2.672993">
        <ele>294.36682</ele>
        <time>2021-07-01T13:29:01Z</time>
      </trkpt>
      <trkpt lat="42.007481" lon="2.672993">
        <ele>294.74731</ele>
        <time>2021-07-01T13:29:02Z</time>
      </trkpt>
      <trkpt lat="42.007481" lon="2.672993">
        <ele>294.28345</ele>
        <time>2021-07-01T13:29:03Z</time>
      </trkpt>
      <trkpt lat="42.007481" lon="2.672993">
        <ele>295.00574</ele>
        <time>2021-07-01T13:29:04Z</time>
      </trkpt>
      <trkpt lat="42.007481" lon="2.672993">
        <ele>295.54883</ele>
        <time>2021-07-01T13:29:05Z</time>
      </trkpt>
      <trkpt lat="42.007481" lon="2.672993">
        <ele>295.97070</ele>
        <time>2021-07-01T13:29:06Z</time>
      </trkpt>
      <trkpt lat="42.007481" lon="2.672993">
        <ele>286.91577</ele>
        <time>2021-07-01T13:29:07Z</time>
      </trkpt>
      <trkpt lat="42.007481" lon="2.672993">
        <ele>287.16016</ele>
        <time>2021-07-01T13:29:08Z</time>
      </trkpt>
      <trkpt lat="42.007481" lon="2.672993">
        <ele>293.08966</ele>
        <time>2021-07-01T13:29:09Z</time>
      </trkpt>
      <trkpt lat="42.007481" lon="2.672993">
        <ele>294.63672</ele>
        <time>2021-07-01T13:29:10Z</time>
      </trkpt>
      <trkpt lat="42.007481" lon="2.672993">
        <ele>287.73419</ele>
        <time>2021-07-01T13:29:11Z</time>
      </trkpt>
      <trkpt lat="42.007481" lon="2.672993">
        <ele>293.72113</ele>
        <time>2021-07-01T13:29:12Z</time>
      </trkpt>
      <trkpt lat="42.007481" lon="2.672993">
        <ele>295.13666</ele>
        <time>2021-07-01T13:29:13Z</time>
      </trkpt>
      <trkpt lat="42.007481" lon="2.672993">
        <ele>296.20825</ele>
        <time>2021-07-01T13:29:14Z</time>
      </trkpt>
      <trkpt lat="42.007481" lon="2.672993">
        <ele>296.66016</ele>
        <time>2021-07-01T13:29:15Z</time>
      </trkpt>
      <trkpt lat="42.007481" lon="2.672993">
        <ele>297.12952</ele>
        <time>2021-07-01T13:29:16Z</time>
      </trkpt>
      <trkpt lat="42.007481" lon="2.672993">
        <ele>297.12329</ele>
        <time>2021-07-01T13:29:17Z</time>
      </trkpt>
      <trkpt lat="42.007481" lon="2.672993">
        <ele>297.01929</ele>
        <time>2021-07-01T13:29:18Z</time>
      </trkpt>
      <trkpt lat="42.007481" lon="2.672993">
        <ele>296.99127</ele>
        <time>2021-07-01T13:29:19Z</time>
      </trkpt>
      <trkpt lat="42.007481" lon="2.672993">
        <ele>296.95062</ele>
        <time>2021-07-01T13:29:20Z</time>
      </trkpt>
      <trkpt lat="42.007481" lon="2.672993">
        <ele>296.83789</ele>
        <time>2021-07-01T13:29:21Z</time>
      </trkpt>
      <trkpt lat="42.007481" lon="2.672993">
        <ele>296.81885</ele>
        <time>2021-07-01T13:29:22Z</time>
      </trkpt>
      <trkpt lat="42.007481" lon="2.672993">
        <ele>296.82422</ele>
        <time>2021-07-01T13:29:23Z</time>
      </trkpt>
      <trkpt lat="42.007481" lon="2.672993">
        <ele>296.89508</ele>
        <time>2021-07-01T13:29:24Z</time>
      </trkpt>
      <trkpt lat="42.007481" lon="2.672993">
        <ele>296.92554</ele>
        <time>2021-07-01T13:29:25Z</time>
      </trkpt>
      <trkpt lat="42.007481" lon="2.672993">
        <ele>296.95770</ele>
        <time>2021-07-01T13:29:26Z</time>
      </trkpt>
      <trkpt lat="42.007481" lon="2.672993">
        <ele>296.98865</ele>
        <time>2021-07-01T13:29:27Z</time>
      </trkpt>
      <trkpt lat="42.007481" lon="2.672993">
        <ele>296.99426</ele>
        <time>2021-07-01T13:29:28Z</time>
      </trkpt>
      <trkpt lat="42.007481" lon="2.672993">
        <ele>297.00714</ele>
        <time>2021-07-01T13:29:29Z</time>
      </trkpt>
      <trkpt lat="42.007481" lon="2.672993">
        <ele>291.18961</ele>
        <time>2021-07-01T13:29:30Z</time>
      </trkpt>
      <trkpt lat="42.007481" lon="2.672993">
        <ele>295.34558</ele>
        <time>2021-07-01T13:29:31Z</time>
      </trkpt>
      <trkpt lat="42.007481" lon="2.672993">
        <ele>296.04657</ele>
        <time>2021-07-01T13:29:32Z</time>
      </trkpt>
      <trkpt lat="42.007481" lon="2.672993">
        <ele>296.55688</ele>
        <time>2021-07-01T13:29:33Z</time>
      </trkpt>
      <trkpt lat="42.007481" lon="2.672993">
        <ele>297.00366</ele>
        <time>2021-07-01T13:29:34Z</time>
      </trkpt>
      <trkpt lat="42.007481" lon="2.672993">
        <ele>297.13562</ele>
        <time>2021-07-01T13:29:35Z</time>
      </trkpt>
      <trkpt lat="42.007481" lon="2.672993">
        <ele>297.31836</ele>
        <time>2021-07-01T13:29:36Z</time>
      </trkpt>
      <trkpt lat="42.007481" lon="2.672993">
        <ele>297.36957</ele>
        <time>2021-07-01T13:29:37Z</time>
      </trkpt>
      <trkpt lat="42.007481" lon="2.672993">
        <ele>297.90759</ele>
        <time>2021-07-01T13:29:38Z</time>
      </trkpt>
      <trkpt lat="42.007481" lon="2.672993">
        <ele>298.12476</ele>
        <time>2021-07-01T13:29:39Z</time>
      </trkpt>
      <trkpt lat="42.007481" lon="2.672993">
        <ele>297.04651</ele>
        <time>2021-07-01T13:29:40Z</time>
      </trkpt>
      <trkpt lat="42.007481" lon="2.672993">
        <ele>297.29993</ele>
        <time>2021-07-01T13:29:41Z</time>
      </trkpt>
      <trkpt lat="42.007481" lon="2.672993">
        <ele>297.30933</ele>
        <time>2021-07-01T13:29:42Z</time>
      </trkpt>
      <trkpt lat="42.007481" lon="2.672993">
        <ele>298.07654</ele>
        <time>2021-07-01T13:29:44Z</time>
      </trkpt>
      <trkpt lat="42.007481" lon="2.672993">
        <ele>297.73535</ele>
        <time>2021-07-01T13:29:44Z</time>
      </trkpt>
      <trkpt lat="42.007481" lon="2.672993">
        <ele>298.09955</ele>
        <time>2021-07-01T13:29:45Z</time>
      </trkpt>
      <trkpt lat="42.007481" lon="2.672993">
        <ele>297.65039</ele>
        <time>2021-07-01T13:29:46Z</time>
      </trkpt>
      <trkpt lat="42.007481" lon="2.672993">
        <ele>298.22528</ele>
        <time>2021-07-01T13:29:47Z</time>
      </trkpt>
      <trkpt lat="42.007481" lon="2.672993">
        <ele>298.26642</ele>
        <time>2021-07-01T13:29:48Z</time>
      </trkpt>
      <trkpt lat="42.007481" lon="2.672993">
        <ele>298.30627</ele>
        <time>2021-07-01T13:29:49Z</time>
      </trkpt>
      <trkpt lat="42.007481" lon="2.672993">
        <ele>298.56873</ele>
        <time>2021-07-01T13:29:50Z</time>
      </trkpt>
      <trkpt lat="42.007481" lon="2.672993">
        <ele>298.34186</ele>
        <time>2021-07-01T13:29:51Z</time>
      </trkpt>
      <trkpt lat="42.007481" lon="2.672993">
        <ele>298.89319</ele>
        <time>2021-07-01T13:29:52Z</time>
      </trkpt>
      <trkpt lat="42.007481" lon="2.672993">
        <ele>299.15039</ele>
        <time>2021-07-01T13:29:53Z</time>
      </trkpt>
      <trkpt lat="42.007481" lon="2.672993">
        <ele>299.34436</ele>
        <time>2021-07-01T13:29:54Z</time>
      </trkpt>
      <trkpt lat="42.007481" lon="2.672993">
        <ele>299.41284</ele>
        <time>2021-07-01T13:29:55Z</time>
      </trkpt>
      <trkpt lat="42.007481" lon="2.672993">
        <ele>299.32074</ele>
        <time>2021-07-01T13:29:56Z</time>
      </trkpt>
      <trkpt lat="42.007481" lon="2.672993">
        <ele>299.16638</ele>
        <time>2021-07-01T13:29:57Z</time>
      </trkpt>
      <trkpt lat="42.007481" lon="2.672993">
        <ele>294.15530</ele>
        <time>2021-07-01T13:29:58Z</time>
      </trkpt>
      <trkpt lat="42.007481" lon="2.672993">
        <ele>294.35181</ele>
        <time>2021-07-01T13:29:59Z</time>
      </trkpt>
      <trkpt lat="42.007481" lon="2.672993">
        <ele>297.55762</ele>
        <time>2021-07-01T13:30:01Z</time>
      </trkpt>
      <trkpt lat="42.007481" lon="2.672993">
        <ele>294.38513</ele>
        <time>2021-07-01T13:30:03Z</time>
      </trkpt>
      <trkpt lat="42.007481" lon="2.672993">
        <ele>294.38513</ele>
        <time>2021-07-01T13:30:03Z</time>
      </trkpt>
      <trkpt lat="42.007481" lon="2.672993">
        <ele>294.38513</ele>
        <time>2021-07-01T13:30:03Z</time>
      </trkpt>
      <trkpt lat="42.007481" lon="2.672993">
        <ele>294.46289</ele>
        <time>2021-07-01T13:30:04Z</time>
      </trkpt>
      <trkpt lat="42.007481" lon="2.672993">
        <ele>294.42871</ele>
        <time>2021-07-01T13:30:05Z</time>
      </trkpt>
      <trkpt lat="42.007481" lon="2.672993">
        <ele>294.56870</ele>
        <time>2021-07-01T13:30:06Z</time>
      </trkpt>
      <trkpt lat="42.007481" lon="2.672993">
        <ele>294.67746</ele>
        <time>2021-07-01T13:30:07Z</time>
      </trkpt>
      <trkpt lat="42.007481" lon="2.672993">
        <ele>294.74527</ele>
        <time>2021-07-01T13:30:08Z</time>
      </trkpt>
      <trkpt lat="42.007481" lon="2.672993">
        <ele>294.74982</ele>
        <time>2021-07-01T13:30:09Z</time>
      </trkpt>
      <trkpt lat="42.007481" lon="2.672993">
        <ele>297.00232</ele>
        <time>2021-07-01T13:30:10Z</time>
      </trkpt>
      <trkpt lat="42.007481" lon="2.672993">
        <ele>297.67834</ele>
        <time>2021-07-01T13:30:11Z</time>
      </trkpt>
      <trkpt lat="42.007481" lon="2.672993">
        <ele>298.17883</ele>
        <time>2021-07-01T13:30:12Z</time>
      </trkpt>
      <trkpt lat="42.007481" lon="2.672993">
        <ele>298.46161</ele>
        <time>2021-07-01T13:30:13Z</time>
      </trkpt>
      <trkpt lat="42.007481" lon="2.672993">
        <ele>298.60376</ele>
        <time>2021-07-01T13:30:14Z</time>
      </trkpt>
      <trkpt lat="42.007481" lon="2.672993">
        <ele>298.71460</ele>
        <time>2021-07-01T13:30:15Z</time>
      </trkpt>
      <trkpt lat="42.007481" lon="2.672993">
        <ele>298.79346</ele>
        <time>2021-07-01T13:30:16Z</time>
      </trkpt>
      <trkpt lat="42.007481" lon="2.672993">
        <ele>298.84741</ele>
        <time>2021-07-01T13:30:17Z</time>
      </trkpt>
      <trkpt lat="42.007481" lon="2.672993">
        <ele>298.85443</ele>
        <time>2021-07-01T13:30:18Z</time>
      </trkpt>
      <trkpt lat="42.007481" lon="2.672993">
        <ele>295.38568</ele>
        <time>2021-07-01T13:30:19Z</time>
      </trkpt>
      <trkpt lat="42.007481" lon="2.672993">
        <ele>297.54663</ele>
        <time>2021-07-01T13:30:20Z</time>
      </trkpt>
      <trkpt lat="42.007481" lon="2.672993">
        <ele>298.04120</ele>
        <time>2021-07-01T13:30:21Z</time>
      </trkpt>
      <trkpt lat="42.007481" lon="2.672993">
        <ele>298.39606</ele>
        <time>2021-07-01T13:30:22Z</time>
      </trkpt>
      <trkpt lat="42.007481" lon="2.672993">
        <ele>298.61560</ele>
        <time>2021-07-01T13:30:23Z</time>
      </trkpt>
      <trkpt lat="42.007481" lon="2.672993">
        <ele>298.74664</ele>
        <time>2021-07-01T13:30:24Z</time>
      </trkpt>
      <trkpt lat="42.007481" lon="2.672993">
        <ele>298.77637</ele>
        <time>2021-07-01T13:30:25Z</time>
      </trkpt>
      <trkpt lat="42.007481" lon="2.672993">
        <ele>298.80670</ele>
        <time>2021-07-01T13:30:26Z</time>
      </trkpt>
      <trkpt lat="42.007481" lon="2.672993">
        <ele>298.82288</ele>
        <time>2021-07-01T13:30:27Z</time>
      </trkpt>
      <trkpt lat="42.007481" lon="2.672993">
        <ele>298.86804</ele>
        <time>2021-07-01T13:30:28Z</time>
      </trkpt>
      <trkpt lat="42.007481" lon="2.672993">
        <ele>298.90155</ele>
        <time>2021-07-01T13:30:29Z</time>
      </trkpt>
      <trkpt lat="42.007481" lon="2.672993">
        <ele>298.91455</ele>
        <time>2021-07-01T13:30:30Z</time>
      </trkpt>
      <trkpt lat="42.007481" lon="2.672993">
        <ele>298.92920</ele>
        <time>2021-07-01T13:30:31Z</time>
      </trkpt>
      <trkpt lat="42.007481" lon="2.672993">
        <ele>296.18112</ele>
        <time>2021-07-01T13:30:38Z</time>
      </trkpt>
      <trkpt lat="42.007481" lon="2.672993">
        <ele>296.18112</ele>
        <time>2021-07-01T13:30:38Z</time>
      </trkpt>
      <trkpt lat="42.007580" lon="2.672894">
        <ele>296.84229</ele>
        <time>2021-07-01T13:30:59Z</time>
      </trkpt>
      <trkpt lat="42.007580" lon="2.672894">
        <ele>296.78198</ele>
        <time>2021-07-01T13:31:00Z</time>
      </trkpt>
      <trkpt lat="42.007580" lon="2.672894">
        <ele>295.76917</ele>
        <time>2021-07-01T13:31:01Z</time>
      </trkpt>
      <trkpt lat="42.007580" lon="2.672894">
        <ele>295.60742</ele>
        <time>2021-07-01T13:31:02Z</time>
      </trkpt>
      <trkpt lat="42.007580" lon="2.672894">
        <ele>296.17993</ele>
        <time>2021-07-01T13:31:03Z</time>
      </trkpt>
      <trkpt lat="42.007580" lon="2.672894">
        <ele>296.31738</ele>
        <time>2021-07-01T13:31:04Z</time>
      </trkpt>
      <trkpt lat="42.007580" lon="2.672894">
        <ele>296.29120</ele>
        <time>2021-07-01T13:31:05Z</time>
      </trkpt>
      <trkpt lat="42.007595" lon="2.672877">
        <ele>295.62280</ele>
        <time>2021-07-01T13:31:06Z</time>
      </trkpt>
      <trkpt lat="42.007652" lon="2.672816">
        <ele>296.36963</ele>
        <time>2021-07-01T13:31:08Z</time>
      </trkpt>
      <trkpt lat="42.007683" lon="2.672790">
        <ele>298.56006</ele>
        <time>2021-07-01T13:31:10Z</time>
      </trkpt>
      <trkpt lat="42.007683" lon="2.672790">
        <ele>298.56006</ele>
        <time>2021-07-01T13:31:10Z</time>
      </trkpt>
      <trkpt lat="42.007706" lon="2.672760">
        <ele>298.56006</ele>
        <time>2021-07-01T13:31:10Z</time>
      </trkpt>
      <trkpt lat="42.007725" lon="2.672737">
        <ele>298.27472</ele>
        <time>2021-07-01T13:31:11Z</time>
      </trkpt>
      <trkpt lat="42.007744" lon="2.672711">
        <ele>297.22168</ele>
        <time>2021-07-01T13:31:12Z</time>
      </trkpt>
      <trkpt lat="42.007767" lon="2.672677">
        <ele>297.18079</ele>
        <time>2021-07-01T13:31:13Z</time>
      </trkpt>
      <trkpt lat="42.007935" lon="2.672523">
        <ele>297.22266</ele>
        <time>2021-07-01T13:31:14Z</time>
      </trkpt>
      <trkpt lat="42.007984" lon="2.672497">
        <ele>297.23621</ele>
        <time>2021-07-01T13:31:15Z</time>
      </trkpt>
      <trkpt lat="42.007984" lon="2.672497">
        <ele>296.90039</ele>
        <time>2021-07-01T13:31:16Z</time>
      </trkpt>
      <trkpt lat="42.008129" lon="2.672452">
        <ele>296.62280</ele>
        <time>2021-07-01T13:31:18Z</time>
      </trkpt>
      <trkpt lat="42.008198" lon="2.672446">
        <ele>296.14746</ele>
        <time>2021-07-01T13:31:18Z</time>
      </trkpt>
      <trkpt lat="42.008385" lon="2.672467">
        <ele>298.01031</ele>
        <time>2021-07-01T13:31:19Z</time>
      </trkpt>
      <trkpt lat="42.008457" lon="2.672498">
        <ele>297.77478</ele>
        <time>2021-07-01T13:31:20Z</time>
      </trkpt>
      <trkpt lat="42.008602" lon="2.672624">
        <ele>297.78986</ele>
        <time>2021-07-01T13:31:21Z</time>
      </trkpt>
      <trkpt lat="42.008686" lon="2.672714">
        <ele>297.52002</ele>
        <time>2021-07-01T13:31:22Z</time>
      </trkpt>
      <trkpt lat="42.008919" lon="2.672962">
        <ele>298.37030</ele>
        <time>2021-07-01T13:31:23Z</time>
      </trkpt>
      <trkpt lat="42.008984" lon="2.673013">
        <ele>298.38000</ele>
        <time>2021-07-01T13:31:24Z</time>
      </trkpt>
      <trkpt lat="42.009190" lon="2.673138">
        <ele>296.21924</ele>
        <time>2021-07-01T13:31:25Z</time>
      </trkpt>
      <trkpt lat="42.009281" lon="2.673186">
        <ele>295.83875</ele>
        <time>2021-07-01T13:31:26Z</time>
      </trkpt>
      <trkpt lat="42.009506" lon="2.673236">
        <ele>294.99036</ele>
        <time>2021-07-01T13:31:27Z</time>
      </trkpt>
      <trkpt lat="42.009583" lon="2.673250">
        <ele>296.18201</ele>
        <time>2021-07-01T13:31:28Z</time>
      </trkpt>
      <trkpt lat="42.009823" lon="2.673338">
        <ele>295.89624</ele>
        <time>2021-07-01T13:31:29Z</time>
      </trkpt>
      <trkpt lat="42.009991" lon="2.673474">
        <ele>295.44849</ele>
        <time>2021-07-01T13:31:30Z</time>
      </trkpt>
      <trkpt lat="42.009991" lon="2.673474">
        <ele>296.66113</ele>
        <time>2021-07-01T13:31:31Z</time>
      </trkpt>
      <trkpt lat="42.010052" lon="2.673524">
        <ele>296.69336</ele>
        <time>2021-07-01T13:31:32Z</time>
      </trkpt>
      <trkpt lat="42.010212" lon="2.673695">
        <ele>297.61267</ele>
        <time>2021-07-01T13:31:33Z</time>
      </trkpt>
      <trkpt lat="42.010277" lon="2.673765">
        <ele>297.50183</ele>
        <time>2021-07-01T13:31:34Z</time>
      </trkpt>
      <trkpt lat="42.010429" lon="2.673933">
        <ele>298.00732</ele>
        <time>2021-07-01T13:31:35Z</time>
      </trkpt>
      <trkpt lat="42.010593" lon="2.674124">
        <ele>297.35175</ele>
        <time>2021-07-01T13:31:36Z</time>
      </trkpt>
      <trkpt lat="42.010735" lon="2.674288">
        <ele>298.10974</ele>
        <time>2021-07-01T13:31:37Z</time>
      </trkpt>
      <trkpt lat="42.010857" lon="2.674457">
        <ele>300.54541</ele>
        <time>2021-07-01T13:31:38Z</time>
      </trkpt>
      <trkpt lat="42.010963" lon="2.674602">
        <ele>299.74805</ele>
        <time>2021-07-01T13:31:39Z</time>
      </trkpt>
      <trkpt lat="42.011044" lon="2.674674">
        <ele>300.65173</ele>
        <time>2021-07-01T13:31:40Z</time>
      </trkpt>
      <trkpt lat="42.011139" lon="2.674705">
        <ele>299.72583</ele>
        <time>2021-07-01T13:31:41Z</time>
      </trkpt>
      <trkpt lat="42.011288" lon="2.674729">
        <ele>299.24036</ele>
        <time>2021-07-01T13:31:42Z</time>
      </trkpt>
      <trkpt lat="42.011436" lon="2.674740">
        <ele>299.75555</ele>
        <time>2021-07-01T13:31:43Z</time>
      </trkpt>
      <trkpt lat="42.011436" lon="2.674740">
        <ele>296.86609</ele>
        <time>2021-07-01T13:31:44Z</time>
      </trkpt>
      <trkpt lat="42.011562" lon="2.674741">
        <ele>295.49365</ele>
        <time>2021-07-01T13:31:45Z</time>
      </trkpt>
      <trkpt lat="42.011681" lon="2.674694">
        <ele>295.93420</ele>
        <time>2021-07-01T13:31:46Z</time>
      </trkpt>
      <trkpt lat="42.011803" lon="2.674547">
        <ele>297.21631</ele>
        <time>2021-07-01T13:31:47Z</time>
      </trkpt>
      <trkpt lat="42.011940" lon="2.674207">
        <ele>297.45312</ele>
        <time>2021-07-01T13:31:48Z</time>
      </trkpt>
      <trkpt lat="42.011963" lon="2.674142">
        <ele>297.43921</ele>
        <time>2021-07-01T13:31:49Z</time>
      </trkpt>
      <trkpt lat="42.012043" lon="2.673982">
        <ele>295.64423</ele>
        <time>2021-07-01T13:31:50Z</time>
      </trkpt>
      <trkpt lat="42.012154" lon="2.673868">
        <ele>294.81042</ele>
        <time>2021-07-01T13:31:51Z</time>
      </trkpt>
      <trkpt lat="42.012199" lon="2.673850">
        <ele>294.26990</ele>
        <time>2021-07-01T13:31:52Z</time>
      </trkpt>
      <trkpt lat="42.012333" lon="2.673838">
        <ele>293.98962</ele>
        <time>2021-07-01T13:31:53Z</time>
      </trkpt>
      <trkpt lat="42.012459" lon="2.673834">
        <ele>293.47607</ele>
        <time>2021-07-01T13:31:54Z</time>
      </trkpt>
      <trkpt lat="42.012657" lon="2.673778">
        <ele>293.15271</ele>
        <time>2021-07-01T13:31:55Z</time>
      </trkpt>
      <trkpt lat="42.012875" lon="2.673683">
        <ele>293.41138</ele>
        <time>2021-07-01T13:31:56Z</time>
      </trkpt>
      <trkpt lat="42.012886" lon="2.673679">
        <ele>294.17163</ele>
        <time>2021-07-01T13:31:57Z</time>
      </trkpt>
      <trkpt lat="42.013100" lon="2.673763">
        <ele>292.86890</ele>
        <time>2021-07-01T13:31:58Z</time>
      </trkpt>
      <trkpt lat="42.013153" lon="2.673827">
        <ele>293.14624</ele>
        <time>2021-07-01T13:31:59Z</time>
      </trkpt>
      <trkpt lat="42.013153" lon="2.673827">
        <ele>291.57025</ele>
        <time>2021-07-01T13:32:00Z</time>
      </trkpt>
      <trkpt lat="42.013168" lon="2.673849">
        <ele>289.72058</ele>
        <time>2021-07-01T13:32:01Z</time>
      </trkpt>
      <trkpt lat="42.013367" lon="2.674029">
        <ele>286.42932</ele>
        <time>2021-07-01T13:32:02Z</time>
      </trkpt>
      <trkpt lat="42.013451" lon="2.674059">
        <ele>284.89276</ele>
        <time>2021-07-01T13:32:03Z</time>
      </trkpt>
      <trkpt lat="42.013683" lon="2.674036">
        <ele>284.80200</ele>
        <time>2021-07-01T13:32:04Z</time>
      </trkpt>
      <trkpt lat="42.013939" lon="2.673968">
        <ele>284.76013</ele>
        <time>2021-07-01T13:32:05Z</time>
      </trkpt>
      <trkpt lat="42.013973" lon="2.673958">
        <ele>284.74152</ele>
        <time>2021-07-01T13:32:06Z</time>
      </trkpt>
      <trkpt lat="42.014206" lon="2.673897">
        <ele>285.09900</ele>
        <time>2021-07-01T13:32:07Z</time>
      </trkpt>
      <trkpt lat="42.014290" lon="2.673869">
        <ele>285.29907</ele>
        <time>2021-07-01T13:32:08Z</time>
      </trkpt>
      <trkpt lat="42.014404" lon="2.673791">
        <ele>285.51978</ele>
        <time>2021-07-01T13:32:09Z</time>
      </trkpt>
      <trkpt lat="42.014404" lon="2.673791">
        <ele>285.79663</ele>
        <time>2021-07-01T13:32:10Z</time>
      </trkpt>
      <trkpt lat="42.014584" lon="2.673629">
        <ele>289.41797</ele>
        <time>2021-07-01T13:32:11Z</time>
      </trkpt>
      <trkpt lat="42.014812" lon="2.673426">
        <ele>288.43756</ele>
        <time>2021-07-01T13:32:12Z</time>
      </trkpt>
      <trkpt lat="42.014889" lon="2.673352">
        <ele>289.80682</ele>
        <time>2021-07-01T13:32:13Z</time>
      </trkpt>
      <trkpt lat="42.015026" lon="2.673153">
        <ele>289.24585</ele>
        <time>2021-07-01T13:32:14Z</time>
      </trkpt>
      <trkpt lat="42.015110" lon="2.672973">
        <ele>289.13202</ele>
        <time>2021-07-01T13:32:15Z</time>
      </trkpt>
      <trkpt lat="42.015186" lon="2.672497">
        <ele>292.29102</ele>
        <time>2021-07-01T13:32:18Z</time>
      </trkpt>
      <trkpt lat="42.015186" lon="2.672497">
        <ele>292.29102</ele>
        <time>2021-07-01T13:32:18Z</time>
      </trkpt>
      <trkpt lat="42.015186" lon="2.672497">
        <ele>292.29102</ele>
        <time>2021-07-01T13:32:18Z</time>
      </trkpt>
      <trkpt lat="42.015186" lon="2.672318">
        <ele>291.34375</ele>
        <time>2021-07-01T13:32:19Z</time>
      </trkpt>
      <trkpt lat="42.015244" lon="2.672137">
        <ele>289.48767</ele>
        <time>2021-07-01T13:32:20Z</time>
      </trkpt>
      <trkpt lat="42.015282" lon="2.672100">
        <ele>289.43091</ele>
        <time>2021-07-01T13:32:21Z</time>
      </trkpt>
      <trkpt lat="42.015450" lon="2.672076">
        <ele>291.10522</ele>
        <time>2021-07-01T13:32:22Z</time>
      </trkpt>
      <trkpt lat="42.015491" lon="2.672082">
        <ele>291.88550</ele>
        <time>2021-07-01T13:32:23Z</time>
      </trkpt>
      <trkpt lat="42.015594" lon="2.672094">
        <ele>293.01965</ele>
        <time>2021-07-01T13:32:24Z</time>
      </trkpt>
      <trkpt lat="42.015594" lon="2.672094">
        <ele>294.14661</ele>
        <time>2021-07-01T13:32:26Z</time>
      </trkpt>
      <trkpt lat="42.015739" lon="2.672058">
        <ele>294.11505</ele>
        <time>2021-07-01T13:32:29Z</time>
      </trkpt>
      <trkpt lat="42.015808" lon="2.671569">
        <ele>295.16345</ele>
        <time>2021-07-01T13:32:29Z</time>
      </trkpt>
      <trkpt lat="42.015793" lon="2.671506">
        <ele>295.29993</ele>
        <time>2021-07-01T13:32:30Z</time>
      </trkpt>
      <trkpt lat="42.015652" lon="2.670845">
        <ele>295.11047</ele>
        <time>2021-07-01T13:32:31Z</time>
      </trkpt>
      <trkpt lat="42.015640" lon="2.670803">
        <ele>296.02429</ele>
        <time>2021-07-01T13:32:32Z</time>
      </trkpt>
      <trkpt lat="42.015640" lon="2.670803">
        <ele>297.17114</ele>
        <time>2021-07-01T13:32:33Z</time>
      </trkpt>
      <trkpt lat="42.015545" lon="2.670450">
        <ele>297.30774</ele>
        <time>2021-07-01T13:32:34Z</time>
      </trkpt>
      <trkpt lat="42.015545" lon="2.670423">
        <ele>297.37561</ele>
        <time>2021-07-01T13:32:35Z</time>
      </trkpt>
      <trkpt lat="42.015583" lon="2.670283">
        <ele>296.79431</ele>
        <time>2021-07-01T13:32:36Z</time>
      </trkpt>
      <trkpt lat="42.015633" lon="2.670211">
        <ele>297.48785</ele>
        <time>2021-07-01T13:32:37Z</time>
      </trkpt>
      <trkpt lat="42.015675" lon="2.670163">
        <ele>295.77637</ele>
        <time>2021-07-01T13:32:38Z</time>
      </trkpt>
      <trkpt lat="42.015751" lon="2.670068">
        <ele>296.75439</ele>
        <time>2021-07-01T13:32:39Z</time>
      </trkpt>
      <trkpt lat="42.015873" lon="2.669810">
        <ele>298.08362</ele>
        <time>2021-07-01T13:32:40Z</time>
      </trkpt>
      <trkpt lat="42.015900" lon="2.669677">
        <ele>297.76526</ele>
        <time>2021-07-01T13:32:41Z</time>
      </trkpt>
      <trkpt lat="42.015923" lon="2.669523">
        <ele>298.21472</ele>
        <time>2021-07-01T13:32:42Z</time>
      </trkpt>
      <trkpt lat="42.015965" lon="2.669378">
        <ele>297.00330</ele>
        <time>2021-07-01T13:32:43Z</time>
      </trkpt>
      <trkpt lat="42.016003" lon="2.669316">
        <ele>298.18884</ele>
        <time>2021-07-01T13:32:44Z</time>
      </trkpt>
      <trkpt lat="42.016079" lon="2.669240">
        <ele>298.19019</ele>
        <time>2021-07-01T13:32:45Z</time>
      </trkpt>
      <trkpt lat="42.016079" lon="2.669240">
        <ele>297.11243</ele>
        <time>2021-07-01T13:32:46Z</time>
      </trkpt>
      <trkpt lat="42.016178" lon="2.669179">
        <ele>296.21600</ele>
        <time>2021-07-01T13:32:47Z</time>
      </trkpt>
      <trkpt lat="42.016281" lon="2.669128">
        <ele>294.60950</ele>
        <time>2021-07-01T13:32:48Z</time>
      </trkpt>
      <trkpt lat="42.016384" lon="2.669089">
        <ele>293.94934</ele>
        <time>2021-07-01T13:32:49Z</time>
      </trkpt>
      <trkpt lat="42.016449" lon="2.669069">
        <ele>292.76630</ele>
        <time>2021-07-01T13:32:50Z</time>
      </trkpt>
      <trkpt lat="42.016548" lon="2.669082">
        <ele>292.63831</ele>
        <time>2021-07-01T13:32:51Z</time>
      </trkpt>
      <trkpt lat="42.016659" lon="2.669197">
        <ele>293.47815</ele>
        <time>2021-07-01T13:32:52Z</time>
      </trkpt>
      <trkpt lat="42.016724" lon="2.669388">
        <ele>294.83569</ele>
        <time>2021-07-01T13:32:53Z</time>
      </trkpt>
      <trkpt lat="42.016773" lon="2.669547">
        <ele>295.77759</ele>
        <time>2021-07-01T13:32:54Z</time>
      </trkpt>
      <trkpt lat="42.016808" lon="2.669638">
        <ele>295.31970</ele>
        <time>2021-07-01T13:32:55Z</time>
      </trkpt>
      <trkpt lat="42.016838" lon="2.669712">
        <ele>296.97382</ele>
        <time>2021-07-01T13:32:56Z</time>
      </trkpt>
      <trkpt lat="42.016884" lon="2.669809">
        <ele>297.74829</ele>
        <time>2021-07-01T13:32:57Z</time>
      </trkpt>
      <trkpt lat="42.016922" lon="2.669887">
        <ele>298.31067</ele>
        <time>2021-07-01T13:32:58Z</time>
      </trkpt>
      <trkpt lat="42.016968" lon="2.669968">
        <ele>298.61841</ele>
        <time>2021-07-01T13:32:59Z</time>
      </trkpt>
      <trkpt lat="42.016968" lon="2.669968">
        <ele>299.66345</ele>
        <time>2021-07-01T13:33:00Z</time>
      </trkpt>
      <trkpt lat="42.017014" lon="2.670057">
        <ele>300.33765</ele>
        <time>2021-07-01T13:33:01Z</time>
      </trkpt>
      <trkpt lat="42.017014" lon="2.670057">
        <ele>300.68585</ele>
        <time>2021-07-01T13:33:02Z</time>
      </trkpt>
      <trkpt lat="42.017036" lon="2.670096">
        <ele>300.67957</ele>
        <time>2021-07-01T13:33:03Z</time>
      </trkpt>
      <trkpt lat="42.017059" lon="2.670142">
        <ele>300.96643</ele>
        <time>2021-07-01T13:33:04Z</time>
      </trkpt>
      <trkpt lat="42.017097" lon="2.670208">
        <ele>301.03558</ele>
        <time>2021-07-01T13:33:05Z</time>
      </trkpt>
      <trkpt lat="42.017155" lon="2.670314">
        <ele>300.54883</ele>
        <time>2021-07-01T13:33:06Z</time>
      </trkpt>
      <trkpt lat="42.017246" lon="2.670453">
        <ele>300.37817</ele>
        <time>2021-07-01T13:33:07Z</time>
      </trkpt>
      <trkpt lat="42.017368" lon="2.670537">
        <ele>301.09802</ele>
        <time>2021-07-01T13:33:08Z</time>
      </trkpt>
      <trkpt lat="42.017464" lon="2.670541">
        <ele>301.41510</ele>
        <time>2021-07-01T13:33:09Z</time>
      </trkpt>
      <trkpt lat="42.017559" lon="2.670510">
        <ele>301.49438</ele>
        <time>2021-07-01T13:33:10Z</time>
      </trkpt>
      <trkpt lat="42.017700" lon="2.670396">
        <ele>302.33923</ele>
        <time>2021-07-01T13:33:11Z</time>
      </trkpt>
      <trkpt lat="42.017849" lon="2.670280">
        <ele>300.74829</ele>
        <time>2021-07-01T13:33:12Z</time>
      </trkpt>
      <trkpt lat="42.018002" lon="2.670158">
        <ele>302.02411</ele>
        <time>2021-07-01T13:33:13Z</time>
      </trkpt>
      <trkpt lat="42.018124" lon="2.670090">
        <ele>301.43427</ele>
        <time>2021-07-01T13:33:14Z</time>
      </trkpt>
      <trkpt lat="42.018250" lon="2.670074">
        <ele>301.30597</ele>
        <time>2021-07-01T13:33:15Z</time>
      </trkpt>
      <trkpt lat="42.018410" lon="2.670099">
        <ele>301.02985</ele>
        <time>2021-07-01T13:33:16Z</time>
      </trkpt>
      <trkpt lat="42.018410" lon="2.670099">
        <ele>302.30615</ele>
        <time>2021-07-01T13:33:17Z</time>
      </trkpt>
      <trkpt lat="42.018585" lon="2.670138">
        <ele>302.17346</ele>
        <time>2021-07-01T13:33:18Z</time>
      </trkpt>
      <trkpt lat="42.018745" lon="2.670135">
        <ele>302.96863</ele>
        <time>2021-07-01T13:33:19Z</time>
      </trkpt>
      <trkpt lat="42.018925" lon="2.670063">
        <ele>301.61926</ele>
        <time>2021-07-01T13:33:20Z</time>
      </trkpt>
      <trkpt lat="42.019054" lon="2.669981">
        <ele>301.26160</ele>
        <time>2021-07-01T13:33:21Z</time>
      </trkpt>
      <trkpt lat="42.019150" lon="2.669897">
        <ele>301.64526</ele>
        <time>2021-07-01T13:33:22Z</time>
      </trkpt>
      <trkpt lat="42.019299" lon="2.669684">
        <ele>302.18286</ele>
        <time>2021-07-01T13:33:23Z</time>
      </trkpt>
      <trkpt lat="42.019375" lon="2.669583">
        <ele>301.94702</ele>
        <time>2021-07-01T13:33:24Z</time>
      </trkpt>
      <trkpt lat="42.019466" lon="2.669485">
        <ele>299.70953</ele>
        <time>2021-07-01T13:33:25Z</time>
      </trkpt>
      <trkpt lat="42.019588" lon="2.669400">
        <ele>302.27832</ele>
        <time>2021-07-01T13:33:26Z</time>
      </trkpt>
      <trkpt lat="42.019688" lon="2.669379">
        <ele>301.63342</ele>
        <time>2021-07-01T13:33:27Z</time>
      </trkpt>
      <trkpt lat="42.019802" lon="2.669401">
        <ele>300.17322</ele>
        <time>2021-07-01T13:33:28Z</time>
      </trkpt>
      <trkpt lat="42.019802" lon="2.669401">
        <ele>299.63562</ele>
        <time>2021-07-01T13:33:29Z</time>
      </trkpt>
      <trkpt lat="42.019901" lon="2.669459">
        <ele>299.47229</ele>
        <time>2021-07-01T13:33:30Z</time>
      </trkpt>
      <trkpt lat="42.020008" lon="2.669559">
        <ele>298.88031</ele>
        <time>2021-07-01T13:33:31Z</time>
      </trkpt>
      <trkpt lat="42.020126" lon="2.669671">
        <ele>297.54688</ele>
        <time>2021-07-01T13:33:32Z</time>
      </trkpt>
      <trkpt lat="42.020309" lon="2.669775">
        <ele>297.77490</ele>
        <time>2021-07-01T13:33:33Z</time>
      </trkpt>
      <trkpt lat="42.020454" lon="2.669743">
        <ele>296.81299</ele>
        <time>2021-07-01T13:33:34Z</time>
      </trkpt>
      <trkpt lat="42.020596" lon="2.669677">
        <ele>295.84546</ele>
        <time>2021-07-01T13:33:35Z</time>
      </trkpt>
      <trkpt lat="42.020775" lon="2.669524">
        <ele>294.68311</ele>
        <time>2021-07-01T13:33:36Z</time>
      </trkpt>
      <trkpt lat="42.020874" lon="2.669376">
        <ele>293.93494</ele>
        <time>2021-07-01T13:33:37Z</time>
      </trkpt>
      <trkpt lat="42.020996" lon="2.669178">
        <ele>292.34973</ele>
        <time>2021-07-01T13:33:38Z</time>
      </trkpt>
      <trkpt lat="42.021114" lon="2.669055">
        <ele>291.99188</ele>
        <time>2021-07-01T13:33:39Z</time>
      </trkpt>
      <trkpt lat="42.021271" lon="2.668924">
        <ele>292.38147</ele>
        <time>2021-07-01T13:33:40Z</time>
      </trkpt>
      <trkpt lat="42.021271" lon="2.668924">
        <ele>291.79016</ele>
        <time>2021-07-01T13:33:41Z</time>
      </trkpt>
      <trkpt lat="42.021416" lon="2.668819">
        <ele>290.03552</ele>
        <time>2021-07-01T13:33:42Z</time>
      </trkpt>
      <trkpt lat="42.021572" lon="2.668740">
        <ele>290.92566</ele>
        <time>2021-07-01T13:33:43Z</time>
      </trkpt>
      <trkpt lat="42.021572" lon="2.668740">
        <ele>289.74103</ele>
        <time>2021-07-01T13:33:44Z</time>
      </trkpt>
      <trkpt lat="42.022022" lon="2.668724">
        <ele>289.19580</ele>
        <time>2021-07-01T13:33:45Z</time>
      </trkpt>
      <trkpt lat="42.022457" lon="2.668843">
        <ele>286.83710</ele>
        <time>2021-07-01T13:33:46Z</time>
      </trkpt>
      <trkpt lat="42.022514" lon="2.668845">
        <ele>286.22650</ele>
        <time>2021-07-01T13:33:47Z</time>
      </trkpt>
      <trkpt lat="42.022514" lon="2.668845">
        <ele>285.41675</ele>
        <time>2021-07-01T13:33:48Z</time>
      </trkpt>
      <trkpt lat="42.022552" lon="2.668838">
        <ele>283.49756</ele>
        <time>2021-07-01T13:33:49Z</time>
      </trkpt>
      <trkpt lat="42.022778" lon="2.668699">
        <ele>282.18274</ele>
        <time>2021-07-01T13:33:50Z</time>
      </trkpt>
      <trkpt lat="42.022812" lon="2.668644">
        <ele>280.95435</ele>
        <time>2021-07-01T13:33:51Z</time>
      </trkpt>
      <trkpt lat="42.022877" lon="2.668510">
        <ele>279.19678</ele>
        <time>2021-07-01T13:33:52Z</time>
      </trkpt>
      <trkpt lat="42.022942" lon="2.668284">
        <ele>278.18170</ele>
        <time>2021-07-01T13:33:53Z</time>
      </trkpt>
      <trkpt lat="42.022999" lon="2.668032">
        <ele>277.25256</ele>
        <time>2021-07-01T13:33:54Z</time>
      </trkpt>
      <trkpt lat="42.023083" lon="2.667743">
        <ele>276.86682</ele>
        <time>2021-07-01T13:33:55Z</time>
      </trkpt>
      <trkpt lat="42.023190" lon="2.667522">
        <ele>277.70276</ele>
        <time>2021-07-01T13:33:56Z</time>
      </trkpt>
      <trkpt lat="42.023300" lon="2.667381">
        <ele>279.52490</ele>
        <time>2021-07-01T13:33:57Z</time>
      </trkpt>
      <trkpt lat="42.023441" lon="2.667186">
        <ele>278.81738</ele>
        <time>2021-07-01T13:33:58Z</time>
      </trkpt>
      <trkpt lat="42.023479" lon="2.666999">
        <ele>278.67297</ele>
        <time>2021-07-01T13:33:59Z</time>
      </trkpt>
      <trkpt lat="42.023479" lon="2.666997">
        <ele>279.58685</ele>
        <time>2021-07-01T13:34:00Z</time>
      </trkpt>
      <trkpt lat="42.023479" lon="2.666690">
        <ele>277.98962</ele>
        <time>2021-07-01T13:34:01Z</time>
      </trkpt>
      <trkpt lat="42.023464" lon="2.666578">
        <ele>279.40491</ele>
        <time>2021-07-01T13:34:02Z</time>
      </trkpt>
      <trkpt lat="42.023403" lon="2.666346">
        <ele>277.49133</ele>
        <time>2021-07-01T13:34:03Z</time>
      </trkpt>
      <trkpt lat="42.023403" lon="2.666346">
        <ele>278.58405</ele>
        <time>2021-07-01T13:34:04Z</time>
      </trkpt>
      <trkpt lat="42.023319" lon="2.666096">
        <ele>277.56903</ele>
        <time>2021-07-01T13:34:05Z</time>
      </trkpt>
      <trkpt lat="42.023258" lon="2.665891">
        <ele>275.60693</ele>
        <time>2021-07-01T13:34:06Z</time>
      </trkpt>
      <trkpt lat="42.023262" lon="2.665720">
        <ele>273.39685</ele>
        <time>2021-07-01T13:34:07Z</time>
      </trkpt>
      <trkpt lat="42.023331" lon="2.665579">
        <ele>272.02319</ele>
        <time>2021-07-01T13:34:08Z</time>
      </trkpt>
      <trkpt lat="42.023369" lon="2.665539">
        <ele>271.41766</ele>
        <time>2021-07-01T13:34:09Z</time>
      </trkpt>
      <trkpt lat="42.023472" lon="2.665494">
        <ele>271.03015</ele>
        <time>2021-07-01T13:34:10Z</time>
      </trkpt>
      <trkpt lat="42.023617" lon="2.665529">
        <ele>270.19116</ele>
        <time>2021-07-01T13:34:11Z</time>
      </trkpt>
      <trkpt lat="42.023731" lon="2.665581">
        <ele>268.89551</ele>
        <time>2021-07-01T13:34:12Z</time>
      </trkpt>
      <trkpt lat="42.023956" lon="2.665639">
        <ele>267.44800</ele>
        <time>2021-07-01T13:34:13Z</time>
      </trkpt>
      <trkpt lat="42.024071" lon="2.665615">
        <ele>265.72601</ele>
        <time>2021-07-01T13:34:14Z</time>
      </trkpt>
      <trkpt lat="42.024071" lon="2.665615">
        <ele>265.77332</ele>
        <time>2021-07-01T13:34:15Z</time>
      </trkpt>
      <trkpt lat="42.024429" lon="2.665527">
        <ele>266.64404</ele>
        <time>2021-07-01T13:34:16Z</time>
      </trkpt>
      <trkpt lat="42.024429" lon="2.665527">
        <ele>264.48120</ele>
        <time>2021-07-01T13:34:17Z</time>
      </trkpt>
      <trkpt lat="42.024635" lon="2.665565">
        <ele>263.24249</ele>
        <time>2021-07-01T13:34:18Z</time>
      </trkpt>
      <trkpt lat="42.024773" lon="2.665583">
        <ele>260.97034</ele>
        <time>2021-07-01T13:34:19Z</time>
      </trkpt>
      <trkpt lat="42.024971" lon="2.665569">
        <ele>259.33246</ele>
        <time>2021-07-01T13:34:20Z</time>
      </trkpt>
      <trkpt lat="42.025043" lon="2.665523">
        <ele>258.92853</ele>
        <time>2021-07-01T13:34:21Z</time>
      </trkpt>
      <trkpt lat="42.025139" lon="2.665422">
        <ele>257.77423</ele>
        <time>2021-07-01T13:34:22Z</time>
      </trkpt>
      <trkpt lat="42.025257" lon="2.665244">
        <ele>255.84656</ele>
        <time>2021-07-01T13:34:23Z</time>
      </trkpt>
      <trkpt lat="42.025345" lon="2.665053">
        <ele>253.19861</ele>
        <time>2021-07-01T13:34:24Z</time>
      </trkpt>
      <trkpt lat="42.025421" lon="2.664842">
        <ele>252.43903</ele>
        <time>2021-07-01T13:34:25Z</time>
      </trkpt>
      <trkpt lat="42.025471" lon="2.664609">
        <ele>248.88324</ele>
        <time>2021-07-01T13:34:26Z</time>
      </trkpt>
      <trkpt lat="42.025517" lon="2.664322">
        <ele>248.56873</ele>
        <time>2021-07-01T13:34:27Z</time>
      </trkpt>
      <trkpt lat="42.025558" lon="2.664034">
        <ele>246.90894</ele>
        <time>2021-07-01T13:34:28Z</time>
      </trkpt>
      <trkpt lat="42.025608" lon="2.663827">
        <ele>247.81580</ele>
        <time>2021-07-01T13:34:29Z</time>
      </trkpt>
      <trkpt lat="42.025703" lon="2.663627">
        <ele>248.01642</ele>
        <time>2021-07-01T13:34:30Z</time>
      </trkpt>
      <trkpt lat="42.025745" lon="2.663569">
        <ele>247.85632</ele>
        <time>2021-07-01T13:34:31Z</time>
      </trkpt>
      <trkpt lat="42.025902" lon="2.663386">
        <ele>248.76111</ele>
        <time>2021-07-01T13:34:32Z</time>
      </trkpt>
      <trkpt lat="42.025902" lon="2.663386">
        <ele>248.68628</ele>
        <time>2021-07-01T13:34:33Z</time>
      </trkpt>
      <trkpt lat="42.026051" lon="2.663273">
        <ele>248.44623</ele>
        <time>2021-07-01T13:34:34Z</time>
      </trkpt>
      <trkpt lat="42.026192" lon="2.663166">
        <ele>245.52350</ele>
        <time>2021-07-01T13:34:35Z</time>
      </trkpt>
      <trkpt lat="42.026321" lon="2.663047">
        <ele>244.27844</ele>
        <time>2021-07-01T13:34:36Z</time>
      </trkpt>
      <trkpt lat="42.026428" lon="2.662928">
        <ele>243.33911</ele>
        <time>2021-07-01T13:34:37Z</time>
      </trkpt>
      <trkpt lat="42.026524" lon="2.662801">
        <ele>242.73755</ele>
        <time>2021-07-01T13:34:38Z</time>
      </trkpt>
      <trkpt lat="42.026608" lon="2.662670">
        <ele>241.83057</ele>
        <time>2021-07-01T13:34:39Z</time>
      </trkpt>
      <trkpt lat="42.026688" lon="2.662558">
        <ele>240.89563</ele>
        <time>2021-07-01T13:34:40Z</time>
      </trkpt>
      <trkpt lat="42.026783" lon="2.662466">
        <ele>241.28705</ele>
        <time>2021-07-01T13:34:41Z</time>
      </trkpt>
      <trkpt lat="42.026878" lon="2.662442">
        <ele>240.49561</ele>
        <time>2021-07-01T13:34:42Z</time>
      </trkpt>
      <trkpt lat="42.026928" lon="2.662450">
        <ele>239.43262</ele>
        <time>2021-07-01T13:34:43Z</time>
      </trkpt>
      <trkpt lat="42.027004" lon="2.662482">
        <ele>238.43896</ele>
        <time>2021-07-01T13:34:44Z</time>
      </trkpt>
      <trkpt lat="42.027084" lon="2.662549">
        <ele>238.05249</ele>
        <time>2021-07-01T13:34:45Z</time>
      </trkpt>
      <trkpt lat="42.027134" lon="2.662590">
        <ele>238.22717</ele>
        <time>2021-07-01T13:34:46Z</time>
      </trkpt>
      <trkpt lat="42.027164" lon="2.662614">
        <ele>237.25952</ele>
        <time>2021-07-01T13:34:47Z</time>
      </trkpt>
      <trkpt lat="42.027164" lon="2.662614">
        <ele>236.93323</ele>
        <time>2021-07-01T13:34:48Z</time>
      </trkpt>
      <trkpt lat="42.027214" lon="2.662658">
        <ele>236.79987</ele>
        <time>2021-07-01T13:34:49Z</time>
      </trkpt>
      <trkpt lat="42.027241" lon="2.662681">
        <ele>236.70941</ele>
        <time>2021-07-01T13:34:50Z</time>
      </trkpt>
      <trkpt lat="42.027241" lon="2.662681">
        <ele>236.26117</ele>
        <time>2021-07-01T13:34:51Z</time>
      </trkpt>
      <trkpt lat="42.027241" lon="2.662681">
        <ele>237.15442</ele>
        <time>2021-07-01T13:34:52Z</time>
      </trkpt>
      <trkpt lat="42.027241" lon="2.662681">
        <ele>236.73413</ele>
        <time>2021-07-01T13:34:53Z</time>
      </trkpt>
      <trkpt lat="42.027241" lon="2.662681">
        <ele>238.05908</ele>
        <time>2021-07-01T13:34:54Z</time>
      </trkpt>
      <trkpt lat="42.027241" lon="2.662681">
        <ele>237.59595</ele>
        <time>2021-07-01T13:34:55Z</time>
      </trkpt>
      <trkpt lat="42.027241" lon="2.662681">
        <ele>237.82178</ele>
        <time>2021-07-01T13:34:56Z</time>
      </trkpt>
      <trkpt lat="42.027241" lon="2.662681">
        <ele>237.51300</ele>
        <time>2021-07-01T13:34:57Z</time>
      </trkpt>
      <trkpt lat="42.027241" lon="2.662681">
        <ele>237.77612</ele>
        <time>2021-07-01T13:34:58Z</time>
      </trkpt>
      <trkpt lat="42.027241" lon="2.662681">
        <ele>238.54529</ele>
        <time>2021-07-01T13:34:59Z</time>
      </trkpt>
      <trkpt lat="42.027241" lon="2.662681">
        <ele>237.91138</ele>
        <time>2021-07-01T13:35:00Z</time>
      </trkpt>
      <trkpt lat="42.027256" lon="2.662693">
        <ele>238.08887</ele>
        <time>2021-07-01T13:35:01Z</time>
      </trkpt>
      <trkpt lat="42.027287" lon="2.662690">
        <ele>238.69568</ele>
        <time>2021-07-01T13:35:02Z</time>
      </trkpt>
      <trkpt lat="42.027332" lon="2.662601">
        <ele>238.46802</ele>
        <time>2021-07-01T13:35:03Z</time>
      </trkpt>
      <trkpt lat="42.027439" lon="2.662398">
        <ele>238.17218</ele>
        <time>2021-07-01T13:35:04Z</time>
      </trkpt>
      <trkpt lat="42.027485" lon="2.662316">
        <ele>237.90265</ele>
        <time>2021-07-01T13:35:05Z</time>
      </trkpt>
      <trkpt lat="42.027573" lon="2.662149">
        <ele>237.58191</ele>
        <time>2021-07-01T13:35:06Z</time>
      </trkpt>
      <trkpt lat="42.027626" lon="2.662049">
        <ele>237.95056</ele>
        <time>2021-07-01T13:35:07Z</time>
      </trkpt>
      <trkpt lat="42.027714" lon="2.661889">
        <ele>239.14856</ele>
        <time>2021-07-01T13:35:08Z</time>
      </trkpt>
      <trkpt lat="42.027832" lon="2.661667">
        <ele>240.04993</ele>
        <time>2021-07-01T13:35:09Z</time>
      </trkpt>
      <trkpt lat="42.027958" lon="2.661427">
        <ele>239.74243</ele>
        <time>2021-07-01T13:35:10Z</time>
      </trkpt>
      <trkpt lat="42.028065" lon="2.661210">
        <ele>238.92517</ele>
        <time>2021-07-01T13:35:11Z</time>
      </trkpt>
      <trkpt lat="42.028065" lon="2.661210">
        <ele>238.29193</ele>
        <time>2021-07-01T13:35:12Z</time>
      </trkpt>
      <trkpt lat="42.028198" lon="2.660949">
        <ele>238.91913</ele>
        <time>2021-07-01T13:35:13Z</time>
      </trkpt>
      <trkpt lat="42.028336" lon="2.660676">
        <ele>239.19873</ele>
        <time>2021-07-01T13:35:14Z</time>
      </trkpt>
      <trkpt lat="42.028530" lon="2.660286">
        <ele>238.48865</ele>
        <time>2021-07-01T13:35:15Z</time>
      </trkpt>
      <trkpt lat="42.028648" lon="2.660067">
        <ele>237.99280</ele>
        <time>2021-07-01T13:35:16Z</time>
      </trkpt>
      <trkpt lat="42.028786" lon="2.659823">
        <ele>238.60846</ele>
        <time>2021-07-01T13:35:17Z</time>
      </trkpt>
      <trkpt lat="42.029015" lon="2.659430">
        <ele>238.48578</ele>
        <time>2021-07-01T13:35:18Z</time>
      </trkpt>
      <trkpt lat="42.029202" lon="2.659099">
        <ele>237.34772</ele>
        <time>2021-07-01T13:35:19Z</time>
      </trkpt>
      <trkpt lat="42.029224" lon="2.659054">
        <ele>237.50732</ele>
        <time>2021-07-01T13:35:20Z</time>
      </trkpt>
      <trkpt lat="42.029411" lon="2.658702">
        <ele>237.99915</ele>
        <time>2021-07-01T13:35:21Z</time>
      </trkpt>
      <trkpt lat="42.029514" lon="2.658512">
        <ele>239.13757</ele>
        <time>2021-07-01T13:35:22Z</time>
      </trkpt>
      <trkpt lat="42.029675" lon="2.658210">
        <ele>239.70239</ele>
        <time>2021-07-01T13:35:23Z</time>
      </trkpt>
      <trkpt lat="42.029675" lon="2.658210">
        <ele>239.11438</ele>
        <time>2021-07-01T13:35:24Z</time>
      </trkpt>
      <trkpt lat="42.029808" lon="2.657953">
        <ele>239.60571</ele>
        <time>2021-07-01T13:35:25Z</time>
      </trkpt>
      <trkpt lat="42.029964" lon="2.657657">
        <ele>240.12213</ele>
        <time>2021-07-01T13:35:26Z</time>
      </trkpt>
      <trkpt lat="42.030148" lon="2.657315">
        <ele>240.44257</ele>
        <time>2021-07-01T13:35:27Z</time>
      </trkpt>
      <trkpt lat="42.030296" lon="2.657034">
        <ele>240.98352</ele>
        <time>2021-07-01T13:35:28Z</time>
      </trkpt>
      <trkpt lat="42.030457" lon="2.656738">
        <ele>241.90521</ele>
        <time>2021-07-01T13:35:29Z</time>
      </trkpt>
      <trkpt lat="42.030609" lon="2.656448">
        <ele>242.65259</ele>
        <time>2021-07-01T13:35:30Z</time>
      </trkpt>
      <trkpt lat="42.030758" lon="2.656169">
        <ele>242.59497</ele>
        <time>2021-07-01T13:35:31Z</time>
      </trkpt>
      <trkpt lat="42.030937" lon="2.655831">
        <ele>242.16284</ele>
        <time>2021-07-01T13:35:32Z</time>
      </trkpt>
      <trkpt lat="42.031082" lon="2.655559">
        <ele>242.07678</ele>
        <time>2021-07-01T13:35:33Z</time>
      </trkpt>
      <trkpt lat="42.031082" lon="2.655559">
        <ele>242.76331</ele>
        <time>2021-07-01T13:35:34Z</time>
      </trkpt>
      <trkpt lat="42.031250" lon="2.655244">
        <ele>243.55640</ele>
        <time>2021-07-01T13:35:35Z</time>
      </trkpt>
      <trkpt lat="42.031406" lon="2.654947">
        <ele>243.89758</ele>
        <time>2021-07-01T13:35:36Z</time>
      </trkpt>
      <trkpt lat="42.031540" lon="2.654693">
        <ele>244.53015</ele>
        <time>2021-07-01T13:35:37Z</time>
      </trkpt>
      <trkpt lat="42.031696" lon="2.654400">
        <ele>244.78821</ele>
        <time>2021-07-01T13:35:38Z</time>
      </trkpt>
      <trkpt lat="42.031834" lon="2.654139">
        <ele>245.59509</ele>
        <time>2021-07-01T13:35:39Z</time>
      </trkpt>
      <trkpt lat="42.031982" lon="2.653854">
        <ele>244.98096</ele>
        <time>2021-07-01T13:35:40Z</time>
      </trkpt>
      <trkpt lat="42.032139" lon="2.653555">
        <ele>245.00751</ele>
        <time>2021-07-01T13:35:41Z</time>
      </trkpt>
      <trkpt lat="42.032288" lon="2.653272">
        <ele>245.10742</ele>
        <time>2021-07-01T13:35:42Z</time>
      </trkpt>
      <trkpt lat="42.032436" lon="2.652992">
        <ele>244.78174</ele>
        <time>2021-07-01T13:35:43Z</time>
      </trkpt>
      <trkpt lat="42.032604" lon="2.652675">
        <ele>244.57520</ele>
        <time>2021-07-01T13:35:44Z</time>
      </trkpt>
      <trkpt lat="42.032745" lon="2.652411">
        <ele>245.07556</ele>
        <time>2021-07-01T13:35:45Z</time>
      </trkpt>
      <trkpt lat="42.032745" lon="2.652411">
        <ele>245.24689</ele>
        <time>2021-07-01T13:35:46Z</time>
      </trkpt>
      <trkpt lat="42.032883" lon="2.652153">
        <ele>246.04669</ele>
        <time>2021-07-01T13:35:47Z</time>
      </trkpt>
      <trkpt lat="42.033020" lon="2.651893">
        <ele>245.68848</ele>
        <time>2021-07-01T13:35:48Z</time>
      </trkpt>
      <trkpt lat="42.033169" lon="2.651615">
        <ele>245.87030</ele>
        <time>2021-07-01T13:35:49Z</time>
      </trkpt>
      <trkpt lat="42.033310" lon="2.651349">
        <ele>246.09998</ele>
        <time>2021-07-01T13:35:50Z</time>
      </trkpt>
      <trkpt lat="42.033463" lon="2.651065">
        <ele>245.74744</ele>
        <time>2021-07-01T13:35:51Z</time>
      </trkpt>
      <trkpt lat="42.033607" lon="2.650793">
        <ele>246.11383</ele>
        <time>2021-07-01T13:35:52Z</time>
      </trkpt>
      <trkpt lat="42.033768" lon="2.650495">
        <ele>246.56079</ele>
        <time>2021-07-01T13:35:53Z</time>
      </trkpt>
      <trkpt lat="42.033924" lon="2.650193">
        <ele>246.32050</ele>
        <time>2021-07-01T13:35:54Z</time>
      </trkpt>
      <trkpt lat="42.034077" lon="2.649905">
        <ele>246.63745</ele>
        <time>2021-07-01T13:35:55Z</time>
      </trkpt>
      <trkpt lat="42.034191" lon="2.649682">
        <ele>247.65356</ele>
        <time>2021-07-01T13:35:56Z</time>
      </trkpt>
      <trkpt lat="42.034313" lon="2.649445">
        <ele>248.15503</ele>
        <time>2021-07-01T13:35:57Z</time>
      </trkpt>
      <trkpt lat="42.034313" lon="2.649445">
        <ele>248.06970</ele>
        <time>2021-07-01T13:35:58Z</time>
      </trkpt>
      <trkpt lat="42.034458" lon="2.649171">
        <ele>248.52344</ele>
        <time>2021-07-01T13:35:59Z</time>
      </trkpt>
      <trkpt lat="42.034630" lon="2.648863">
        <ele>248.44666</ele>
        <time>2021-07-01T13:36:00Z</time>
      </trkpt>
      <trkpt lat="42.034687" lon="2.648782">
        <ele>249.73865</ele>
        <time>2021-07-01T13:36:01Z</time>
      </trkpt>
      <trkpt lat="42.034798" lon="2.648631">
        <ele>248.89233</ele>
        <time>2021-07-01T13:36:02Z</time>
      </trkpt>
      <trkpt lat="42.034950" lon="2.648536">
        <ele>248.69104</ele>
        <time>2021-07-01T13:36:03Z</time>
      </trkpt>
      <trkpt lat="42.035244" lon="2.648361">
        <ele>249.28058</ele>
        <time>2021-07-01T13:36:04Z</time>
      </trkpt>
      <trkpt lat="42.035278" lon="2.648348">
        <ele>250.07190</ele>
        <time>2021-07-01T13:36:05Z</time>
      </trkpt>
      <trkpt lat="42.035538" lon="2.648278">
        <ele>249.75848</ele>
        <time>2021-07-01T13:36:06Z</time>
      </trkpt>
      <trkpt lat="42.035641" lon="2.648249">
        <ele>250.66138</ele>
        <time>2021-07-01T13:36:07Z</time>
      </trkpt>
      <trkpt lat="42.035770" lon="2.648213">
        <ele>250.15735</ele>
        <time>2021-07-01T13:36:08Z</time>
      </trkpt>
      <trkpt lat="42.035889" lon="2.648177">
        <ele>251.19519</ele>
        <time>2021-07-01T13:36:09Z</time>
      </trkpt>
      <trkpt lat="42.035889" lon="2.648177">
        <ele>250.01178</ele>
        <time>2021-07-01T13:36:10Z</time>
      </trkpt>
      <trkpt lat="42.036018" lon="2.648137">
        <ele>250.17749</ele>
        <time>2021-07-01T13:36:11Z</time>
      </trkpt>
      <trkpt lat="42.036156" lon="2.648095">
        <ele>250.23163</ele>
        <time>2021-07-01T13:36:12Z</time>
      </trkpt>
      <trkpt lat="42.036373" lon="2.648013">
        <ele>250.99866</ele>
        <time>2021-07-01T13:36:13Z</time>
      </trkpt>
      <trkpt lat="42.036434" lon="2.647961">
        <ele>250.74646</ele>
        <time>2021-07-01T13:36:14Z</time>
      </trkpt>
      <trkpt lat="42.036518" lon="2.647848">
        <ele>250.19641</ele>
        <time>2021-07-01T13:36:15Z</time>
      </trkpt>
      <trkpt lat="42.036594" lon="2.647735">
        <ele>250.06445</ele>
        <time>2021-07-01T13:36:16Z</time>
      </trkpt>
      <trkpt lat="42.036659" lon="2.647626">
        <ele>249.42749</ele>
        <time>2021-07-01T13:36:17Z</time>
      </trkpt>
      <trkpt lat="42.036720" lon="2.647549">
        <ele>248.89105</ele>
        <time>2021-07-01T13:36:18Z</time>
      </trkpt>
      <trkpt lat="42.036877" lon="2.647360">
        <ele>248.27722</ele>
        <time>2021-07-01T13:36:19Z</time>
      </trkpt>
      <trkpt lat="42.036938" lon="2.647275">
        <ele>249.17493</ele>
        <time>2021-07-01T13:36:20Z</time>
      </trkpt>
      <trkpt lat="42.037018" lon="2.647117">
        <ele>248.19861</ele>
        <time>2021-07-01T13:36:21Z</time>
      </trkpt>
      <trkpt lat="42.037155" lon="2.646805">
        <ele>247.48010</ele>
        <time>2021-07-01T13:36:22Z</time>
      </trkpt>
      <trkpt lat="42.037174" lon="2.646762">
        <ele>246.43097</ele>
        <time>2021-07-01T13:36:23Z</time>
      </trkpt>
      <trkpt lat="42.037289" lon="2.646502">
        <ele>246.35107</ele>
        <time>2021-07-01T13:36:24Z</time>
      </trkpt>
      <trkpt lat="42.037346" lon="2.646364">
        <ele>245.47803</ele>
        <time>2021-07-01T13:36:25Z</time>
      </trkpt>
      <trkpt lat="42.037422" lon="2.646160">
        <ele>246.09033</ele>
        <time>2021-07-01T13:36:26Z</time>
      </trkpt>
      <trkpt lat="42.037422" lon="2.646160">
        <ele>246.25549</ele>
        <time>2021-07-01T13:36:27Z</time>
      </trkpt>
      <trkpt lat="42.037582" lon="2.645737">
        <ele>246.75708</ele>
        <time>2021-07-01T13:36:28Z</time>
      </trkpt>
      <trkpt lat="42.037697" lon="2.645459">
        <ele>247.14099</ele>
        <time>2021-07-01T13:36:29Z</time>
      </trkpt>
      <trkpt lat="42.037785" lon="2.645244">
        <ele>247.91162</ele>
        <time>2021-07-01T13:36:30Z</time>
      </trkpt>
      <trkpt lat="42.037884" lon="2.645024">
        <ele>248.31213</ele>
        <time>2021-07-01T13:36:31Z</time>
      </trkpt>
      <trkpt lat="42.037968" lon="2.644850">
        <ele>247.77759</ele>
        <time>2021-07-01T13:36:32Z</time>
      </trkpt>
      <trkpt lat="42.038105" lon="2.644620">
        <ele>247.49432</ele>
        <time>2021-07-01T13:36:33Z</time>
      </trkpt>
      <trkpt lat="42.038242" lon="2.644409">
        <ele>246.20416</ele>
        <time>2021-07-01T13:36:34Z</time>
      </trkpt>
      <trkpt lat="42.038395" lon="2.644210">
        <ele>247.76819</ele>
        <time>2021-07-01T13:36:35Z</time>
      </trkpt>
      <trkpt lat="42.038513" lon="2.644053">
        <ele>246.28918</ele>
        <time>2021-07-01T13:36:36Z</time>
      </trkpt>
      <trkpt lat="42.038677" lon="2.643838">
        <ele>246.27124</ele>
        <time>2021-07-01T13:36:37Z</time>
      </trkpt>
      <trkpt lat="42.038845" lon="2.643617">
        <ele>245.88269</ele>
        <time>2021-07-01T13:36:38Z</time>
      </trkpt>
      <trkpt lat="42.039009" lon="2.643397">
        <ele>246.87408</ele>
        <time>2021-07-01T13:36:39Z</time>
      </trkpt>
      <trkpt lat="42.039009" lon="2.643397">
        <ele>247.26184</ele>
        <time>2021-07-01T13:36:40Z</time>
      </trkpt>
      <trkpt lat="42.039188" lon="2.643166">
        <ele>247.18103</ele>
        <time>2021-07-01T13:36:41Z</time>
      </trkpt>
      <trkpt lat="42.039383" lon="2.642918">
        <ele>248.86670</ele>
        <time>2021-07-01T13:36:42Z</time>
      </trkpt>
      <trkpt lat="42.039547" lon="2.642711">
        <ele>247.78235</ele>
        <time>2021-07-01T13:36:43Z</time>
      </trkpt>
      <trkpt lat="42.039703" lon="2.642509">
        <ele>247.23279</ele>
        <time>2021-07-01T13:36:44Z</time>
      </trkpt>
      <trkpt lat="42.039845" lon="2.642296">
        <ele>250.23376</ele>
        <time>2021-07-01T13:36:45Z</time>
      </trkpt>
      <trkpt lat="42.039925" lon="2.642084">
        <ele>249.86145</ele>
        <time>2021-07-01T13:36:46Z</time>
      </trkpt>
      <trkpt lat="42.039932" lon="2.642053">
        <ele>248.44080</ele>
        <time>2021-07-01T13:36:47Z</time>
      </trkpt>
      <trkpt lat="42.039982" lon="2.641744">
        <ele>249.13074</ele>
        <time>2021-07-01T13:36:48Z</time>
      </trkpt>
      <trkpt lat="42.040001" lon="2.641588">
        <ele>249.97754</ele>
        <time>2021-07-01T13:36:49Z</time>
      </trkpt>
      <trkpt lat="42.040051" lon="2.641470">
        <ele>250.83789</ele>
        <time>2021-07-01T13:36:50Z</time>
      </trkpt>
      <trkpt lat="42.040123" lon="2.641405">
        <ele>252.71790</ele>
        <time>2021-07-01T13:36:51Z</time>
      </trkpt>
      <trkpt lat="42.040295" lon="2.641397">
        <ele>252.77795</ele>
        <time>2021-07-01T13:36:52Z</time>
      </trkpt>
      <trkpt lat="42.040394" lon="2.641427">
        <ele>253.53198</ele>
        <time>2021-07-01T13:36:53Z</time>
      </trkpt>
      <trkpt lat="42.040493" lon="2.641457">
        <ele>253.45691</ele>
        <time>2021-07-01T13:36:54Z</time>
      </trkpt>
      <trkpt lat="42.040691" lon="2.641518">
        <ele>253.27515</ele>
        <time>2021-07-01T13:36:55Z</time>
      </trkpt>
      <trkpt lat="42.040840" lon="2.641571">
        <ele>252.78149</ele>
        <time>2021-07-01T13:36:56Z</time>
      </trkpt>
      <trkpt lat="42.040840" lon="2.641571">
        <ele>252.23969</ele>
        <time>2021-07-01T13:36:57Z</time>
      </trkpt>
      <trkpt lat="42.040894" lon="2.641604">
        <ele>251.35120</ele>
        <time>2021-07-01T13:36:58Z</time>
      </trkpt>
      <trkpt lat="42.041046" lon="2.641747">
        <ele>251.64844</ele>
        <time>2021-07-01T13:37:00Z</time>
      </trkpt>
      <trkpt lat="42.041145" lon="2.641851">
        <ele>251.76831</ele>
        <time>2021-07-01T13:37:00Z</time>
      </trkpt>
      <trkpt lat="42.041298" lon="2.642008">
        <ele>250.13446</ele>
        <time>2021-07-01T13:37:01Z</time>
      </trkpt>
      <trkpt lat="42.041462" lon="2.642124">
        <ele>249.54407</ele>
        <time>2021-07-01T13:37:02Z</time>
      </trkpt>
      <trkpt lat="42.041569" lon="2.642129">
        <ele>249.84045</ele>
        <time>2021-07-01T13:37:03Z</time>
      </trkpt>
      <trkpt lat="42.041721" lon="2.642108">
        <ele>250.88965</ele>
        <time>2021-07-01T13:37:04Z</time>
      </trkpt>
      <trkpt lat="42.041885" lon="2.642059">
        <ele>250.52179</ele>
        <time>2021-07-01T13:37:05Z</time>
      </trkpt>
      <trkpt lat="42.042110" lon="2.641990">
        <ele>252.38873</ele>
        <time>2021-07-01T13:37:06Z</time>
      </trkpt>
      <trkpt lat="42.042305" lon="2.641932">
        <ele>253.03088</ele>
        <time>2021-07-01T13:37:07Z</time>
      </trkpt>
      <trkpt lat="42.042549" lon="2.641859">
        <ele>254.68536</ele>
        <time>2021-07-01T13:37:08Z</time>
      </trkpt>
      <trkpt lat="42.042755" lon="2.641797">
        <ele>255.47681</ele>
        <time>2021-07-01T13:37:09Z</time>
      </trkpt>
      <trkpt lat="42.042973" lon="2.641726">
        <ele>256.44080</ele>
        <time>2021-07-01T13:37:10Z</time>
      </trkpt>
      <trkpt lat="42.043167" lon="2.641619">
        <ele>257.24084</ele>
        <time>2021-07-01T13:37:11Z</time>
      </trkpt>
      <trkpt lat="42.043396" lon="2.641496">
        <ele>258.56213</ele>
        <time>2021-07-01T13:37:12Z</time>
      </trkpt>
      <trkpt lat="42.043610" lon="2.641378">
        <ele>259.79553</ele>
        <time>2021-07-01T13:37:13Z</time>
      </trkpt>
      <trkpt lat="42.043812" lon="2.641268">
        <ele>260.41760</ele>
        <time>2021-07-01T13:37:14Z</time>
      </trkpt>
      <trkpt lat="42.043812" lon="2.641268">
        <ele>262.18665</ele>
        <time>2021-07-01T13:37:15Z</time>
      </trkpt>
      <trkpt lat="42.044075" lon="2.641126">
        <ele>260.68616</ele>
        <time>2021-07-01T13:37:16Z</time>
      </trkpt>
      <trkpt lat="42.044262" lon="2.641017">
        <ele>260.57727</ele>
        <time>2021-07-01T13:37:17Z</time>
      </trkpt>
      <trkpt lat="42.044430" lon="2.640850">
        <ele>262.08704</ele>
        <time>2021-07-01T13:37:18Z</time>
      </trkpt>
      <trkpt lat="42.044567" lon="2.640668">
        <ele>261.74548</ele>
        <time>2021-07-01T13:37:19Z</time>
      </trkpt>
      <trkpt lat="42.044682" lon="2.640462">
        <ele>261.29913</ele>
        <time>2021-07-01T13:37:20Z</time>
      </trkpt>
      <trkpt lat="42.044838" lon="2.640160">
        <ele>262.38306</ele>
        <time>2021-07-01T13:37:21Z</time>
      </trkpt>
      <trkpt lat="42.045101" lon="2.639646">
        <ele>263.21008</ele>
        <time>2021-07-01T13:37:22Z</time>
      </trkpt>
      <trkpt lat="42.045128" lon="2.639594">
        <ele>263.90942</ele>
        <time>2021-07-01T13:37:23Z</time>
      </trkpt>
      <trkpt lat="42.045338" lon="2.639191">
        <ele>265.21838</ele>
        <time>2021-07-01T13:37:24Z</time>
      </trkpt>
      <trkpt lat="42.045448" lon="2.638978">
        <ele>266.31445</ele>
        <time>2021-07-01T13:37:25Z</time>
      </trkpt>
      <trkpt lat="42.045593" lon="2.638694">
        <ele>266.92267</ele>
        <time>2021-07-01T13:37:26Z</time>
      </trkpt>
      <trkpt lat="42.045593" lon="2.638694">
        <ele>267.62061</ele>
        <time>2021-07-01T13:37:27Z</time>
      </trkpt>
      <trkpt lat="42.045750" lon="2.638379">
        <ele>268.15955</ele>
        <time>2021-07-01T13:37:28Z</time>
      </trkpt>
      <trkpt lat="42.045914" lon="2.638056">
        <ele>268.06061</ele>
        <time>2021-07-01T13:37:29Z</time>
      </trkpt>
      <trkpt lat="42.046070" lon="2.637743">
        <ele>268.74310</ele>
        <time>2021-07-01T13:37:30Z</time>
      </trkpt>
      <trkpt lat="42.046249" lon="2.637406">
        <ele>269.09131</ele>
        <time>2021-07-01T13:37:31Z</time>
      </trkpt>
      <trkpt lat="42.046425" lon="2.637086">
        <ele>269.47278</ele>
        <time>2021-07-01T13:37:32Z</time>
      </trkpt>
      <trkpt lat="42.046562" lon="2.636823">
        <ele>269.14050</ele>
        <time>2021-07-01T13:37:33Z</time>
      </trkpt>
      <trkpt lat="42.046692" lon="2.636550">
        <ele>269.21509</ele>
        <time>2021-07-01T13:37:34Z</time>
      </trkpt>
      <trkpt lat="42.046795" lon="2.636336">
        <ele>269.96460</ele>
        <time>2021-07-01T13:37:35Z</time>
      </trkpt>
      <trkpt lat="42.046917" lon="2.636088">
        <ele>270.02112</ele>
        <time>2021-07-01T13:37:36Z</time>
      </trkpt>
      <trkpt lat="42.046982" lon="2.635950">
        <ele>266.19830</ele>
        <time>2021-07-01T13:37:37Z</time>
      </trkpt>
      <trkpt lat="42.047066" lon="2.635772">
        <ele>266.98352</ele>
        <time>2021-07-01T13:37:38Z</time>
      </trkpt>
      <trkpt lat="42.047131" lon="2.635597">
        <ele>267.62262</ele>
        <time>2021-07-01T13:37:39Z</time>
      </trkpt>
      <trkpt lat="42.047131" lon="2.635597">
        <ele>267.90637</ele>
        <time>2021-07-01T13:37:40Z</time>
      </trkpt>
      <trkpt lat="42.047142" lon="2.635434">
        <ele>267.77063</ele>
        <time>2021-07-01T13:37:41Z</time>
      </trkpt>
      <trkpt lat="42.047157" lon="2.635239">
        <ele>267.76904</ele>
        <time>2021-07-01T13:37:42Z</time>
      </trkpt>
      <trkpt lat="42.047207" lon="2.635066">
        <ele>267.34436</ele>
        <time>2021-07-01T13:37:43Z</time>
      </trkpt>
      <trkpt lat="42.047287" lon="2.634936">
        <ele>267.68225</ele>
        <time>2021-07-01T13:37:44Z</time>
      </trkpt>
      <trkpt lat="42.047394" lon="2.634811">
        <ele>267.84839</ele>
        <time>2021-07-01T13:37:45Z</time>
      </trkpt>
      <trkpt lat="42.047447" lon="2.634745">
        <ele>267.22577</ele>
        <time>2021-07-01T13:37:46Z</time>
      </trkpt>
      <trkpt lat="42.047512" lon="2.634670">
        <ele>267.33728</ele>
        <time>2021-07-01T13:37:47Z</time>
      </trkpt>
      <trkpt lat="42.047581" lon="2.634592">
        <ele>267.39331</ele>
        <time>2021-07-01T13:37:48Z</time>
      </trkpt>
      <trkpt lat="42.047676" lon="2.634481">
        <ele>267.89288</ele>
        <time>2021-07-01T13:37:49Z</time>
      </trkpt>
      <trkpt lat="42.047760" lon="2.634384">
        <ele>268.48975</ele>
        <time>2021-07-01T13:37:50Z</time>
      </trkpt>
      <trkpt lat="42.047855" lon="2.634321">
        <ele>266.98450</ele>
        <time>2021-07-01T13:37:51Z</time>
      </trkpt>
      <trkpt lat="42.048004" lon="2.634224">
        <ele>269.07184</ele>
        <time>2021-07-01T13:37:52Z</time>
      </trkpt>
      <trkpt lat="42.048004" lon="2.634224">
        <ele>268.61206</ele>
        <time>2021-07-01T13:37:53Z</time>
      </trkpt>
      <trkpt lat="42.048115" lon="2.634172">
        <ele>268.00458</ele>
        <time>2021-07-01T13:37:54Z</time>
      </trkpt>
      <trkpt lat="42.048164" lon="2.634149">
        <ele>266.91150</ele>
        <time>2021-07-01T13:37:55Z</time>
      </trkpt>
      <trkpt lat="42.048225" lon="2.634119">
        <ele>266.76038</ele>
        <time>2021-07-01T13:37:56Z</time>
      </trkpt>
      <trkpt lat="42.048286" lon="2.634312">
        <ele>266.56519</ele>
        <time>2021-07-01T13:37:57Z</time>
      </trkpt>
      <trkpt lat="42.048340" lon="2.634393">
        <ele>268.04346</ele>
        <time>2021-07-01T13:37:58Z</time>
      </trkpt>
      <trkpt lat="42.048405" lon="2.634498">
        <ele>267.59174</ele>
        <time>2021-07-01T13:37:59Z</time>
      </trkpt>
      <trkpt lat="42.048477" lon="2.634612">
        <ele>266.79944</ele>
        <time>2021-07-01T13:38:00Z</time>
      </trkpt>
      <trkpt lat="42.048534" lon="2.634694">
        <ele>266.24438</ele>
        <time>2021-07-01T13:38:01Z</time>
      </trkpt>
      <trkpt lat="42.048599" lon="2.634779">
        <ele>267.32153</ele>
        <time>2021-07-01T13:38:02Z</time>
      </trkpt>
      <trkpt lat="42.048656" lon="2.634845">
        <ele>266.57825</ele>
        <time>2021-07-01T13:38:03Z</time>
      </trkpt>
      <trkpt lat="42.048733" lon="2.634936">
        <ele>266.58752</ele>
        <time>2021-07-01T13:38:04Z</time>
      </trkpt>
      <trkpt lat="42.048733" lon="2.634936">
        <ele>267.22559</ele>
        <time>2021-07-01T13:38:05Z</time>
      </trkpt>
      <trkpt lat="42.048786" lon="2.634984">
        <ele>269.06439</ele>
        <time>2021-07-01T13:38:06Z</time>
      </trkpt>
      <trkpt lat="42.048862" lon="2.634996">
        <ele>268.78577</ele>
        <time>2021-07-01T13:38:07Z</time>
      </trkpt>
      <trkpt lat="42.048977" lon="2.634970">
        <ele>269.23938</ele>
        <time>2021-07-01T13:38:08Z</time>
      </trkpt>
      <trkpt lat="42.049068" lon="2.634942">
        <ele>269.31158</ele>
        <time>2021-07-01T13:38:09Z</time>
      </trkpt>
      <trkpt lat="42.049232" lon="2.634892">
        <ele>266.54938</ele>
        <time>2021-07-01T13:38:10Z</time>
      </trkpt>
      <trkpt lat="42.049305" lon="2.634868">
        <ele>266.42529</ele>
        <time>2021-07-01T13:38:11Z</time>
      </trkpt>
      <trkpt lat="42.049603" lon="2.634759">
        <ele>268.02307</ele>
        <time>2021-07-01T13:38:12Z</time>
      </trkpt>
      <trkpt lat="42.049721" lon="2.634717">
        <ele>268.12000</ele>
        <time>2021-07-01T13:38:13Z</time>
      </trkpt>
      <trkpt lat="42.049934" lon="2.634645">
        <ele>268.77905</ele>
        <time>2021-07-01T13:38:14Z</time>
      </trkpt>
      <trkpt lat="42.049973" lon="2.634641">
        <ele>269.01654</ele>
        <time>2021-07-01T13:38:15Z</time>
      </trkpt>
      <trkpt lat="42.050117" lon="2.634631">
        <ele>271.22083</ele>
        <time>2021-07-01T13:38:16Z</time>
      </trkpt>
      <trkpt lat="42.050117" lon="2.634631">
        <ele>273.81494</ele>
        <time>2021-07-01T13:38:17Z</time>
      </trkpt>
      <trkpt lat="42.050262" lon="2.634647">
        <ele>273.76257</ele>
        <time>2021-07-01T13:38:18Z</time>
      </trkpt>
      <trkpt lat="42.050400" lon="2.634661">
        <ele>273.40039</ele>
        <time>2021-07-01T13:38:19Z</time>
      </trkpt>
      <trkpt lat="42.050629" lon="2.634729">
        <ele>273.89355</ele>
        <time>2021-07-01T13:38:20Z</time>
      </trkpt>
      <trkpt lat="42.050732" lon="2.634770">
        <ele>273.95544</ele>
        <time>2021-07-01T13:38:21Z</time>
      </trkpt>
      <trkpt lat="42.050854" lon="2.634847">
        <ele>274.32703</ele>
        <time>2021-07-01T13:38:22Z</time>
      </trkpt>
      <trkpt lat="42.051022" lon="2.634957">
        <ele>274.16437</ele>
        <time>2021-07-01T13:38:23Z</time>
      </trkpt>
      <trkpt lat="42.051174" lon="2.635078">
        <ele>274.73584</ele>
        <time>2021-07-01T13:38:24Z</time>
      </trkpt>
      <trkpt lat="42.051327" lon="2.635198">
        <ele>275.63867</ele>
        <time>2021-07-01T13:38:25Z</time>
      </trkpt>
      <trkpt lat="42.051468" lon="2.635329">
        <ele>276.44202</ele>
        <time>2021-07-01T13:38:26Z</time>
      </trkpt>
      <trkpt lat="42.051601" lon="2.635454">
        <ele>276.23749</ele>
        <time>2021-07-01T13:38:27Z</time>
      </trkpt>
      <trkpt lat="42.051704" lon="2.635567">
        <ele>275.97400</ele>
        <time>2021-07-01T13:38:28Z</time>
      </trkpt>
      <trkpt lat="42.051823" lon="2.635696">
        <ele>276.02759</ele>
        <time>2021-07-01T13:38:29Z</time>
      </trkpt>
      <trkpt lat="42.051926" lon="2.635846">
        <ele>276.35748</ele>
        <time>2021-07-01T13:38:30Z</time>
      </trkpt>
      <trkpt lat="42.051975" lon="2.635984">
        <ele>276.37793</ele>
        <time>2021-07-01T13:38:31Z</time>
      </trkpt>
      <trkpt lat="42.051975" lon="2.635984">
        <ele>276.65076</ele>
        <time>2021-07-01T13:38:32Z</time>
      </trkpt>
      <trkpt lat="42.051987" lon="2.636111">
        <ele>277.55023</ele>
        <time>2021-07-01T13:38:33Z</time>
      </trkpt>
      <trkpt lat="42.051994" lon="2.636266">
        <ele>277.89819</ele>
        <time>2021-07-01T13:38:34Z</time>
      </trkpt>
      <trkpt lat="42.051987" lon="2.636437">
        <ele>277.71191</ele>
        <time>2021-07-01T13:38:35Z</time>
      </trkpt>
      <trkpt lat="42.051975" lon="2.636634">
        <ele>278.15942</ele>
        <time>2021-07-01T13:38:36Z</time>
      </trkpt>
      <trkpt lat="42.051971" lon="2.636982">
        <ele>277.43933</ele>
        <time>2021-07-01T13:38:37Z</time>
      </trkpt>
      <trkpt lat="42.051971" lon="2.637098">
        <ele>277.90686</ele>
        <time>2021-07-01T13:38:38Z</time>
      </trkpt>
      <trkpt lat="42.051987" lon="2.637359">
        <ele>277.77167</ele>
        <time>2021-07-01T13:38:39Z</time>
      </trkpt>
      <trkpt lat="42.052010" lon="2.637447">
        <ele>277.83887</ele>
        <time>2021-07-01T13:38:40Z</time>
      </trkpt>
      <trkpt lat="42.052078" lon="2.637684">
        <ele>278.19714</ele>
        <time>2021-07-01T13:38:41Z</time>
      </trkpt>
      <trkpt lat="42.052158" lon="2.637945">
        <ele>278.94440</ele>
        <time>2021-07-01T13:38:42Z</time>
      </trkpt>
      <trkpt lat="42.052235" lon="2.638202">
        <ele>280.54968</ele>
        <time>2021-07-01T13:38:43Z</time>
      </trkpt>
      <trkpt lat="42.052299" lon="2.638428">
        <ele>281.91956</ele>
        <time>2021-07-01T13:38:44Z</time>
      </trkpt>
      <trkpt lat="42.052299" lon="2.638428">
        <ele>283.03241</ele>
        <time>2021-07-01T13:38:45Z</time>
      </trkpt>
      <trkpt lat="42.052383" lon="2.638713">
        <ele>283.59167</ele>
        <time>2021-07-01T13:38:46Z</time>
      </trkpt>
      <trkpt lat="42.052467" lon="2.638982">
        <ele>284.07971</ele>
        <time>2021-07-01T13:38:47Z</time>
      </trkpt>
      <trkpt lat="42.052544" lon="2.639232">
        <ele>285.60040</ele>
        <time>2021-07-01T13:38:48Z</time>
      </trkpt>
      <trkpt lat="42.052612" lon="2.639459">
        <ele>286.73541</ele>
        <time>2021-07-01T13:38:49Z</time>
      </trkpt>
      <trkpt lat="42.052673" lon="2.639668">
        <ele>287.84631</ele>
        <time>2021-07-01T13:38:50Z</time>
      </trkpt>
      <trkpt lat="42.052742" lon="2.639893">
        <ele>288.21729</ele>
        <time>2021-07-01T13:38:51Z</time>
      </trkpt>
      <trkpt lat="42.052826" lon="2.640065">
        <ele>289.68182</ele>
        <time>2021-07-01T13:38:52Z</time>
      </trkpt>
      <trkpt lat="42.052933" lon="2.640221">
        <ele>290.45020</ele>
        <time>2021-07-01T13:38:53Z</time>
      </trkpt>
      <trkpt lat="42.053047" lon="2.640310">
        <ele>290.69519</ele>
        <time>2021-07-01T13:38:54Z</time>
      </trkpt>
      <trkpt lat="42.053185" lon="2.640378">
        <ele>292.16211</ele>
        <time>2021-07-01T13:38:55Z</time>
      </trkpt>
      <trkpt lat="42.053364" lon="2.640445">
        <ele>293.17456</ele>
        <time>2021-07-01T13:38:56Z</time>
      </trkpt>
      <trkpt lat="42.053364" lon="2.640445">
        <ele>293.16504</ele>
        <time>2021-07-01T13:38:57Z</time>
      </trkpt>
      <trkpt lat="42.053555" lon="2.640510">
        <ele>291.84637</ele>
        <time>2021-07-01T13:38:58Z</time>
      </trkpt>
      <trkpt lat="42.053753" lon="2.640576">
        <ele>294.19086</ele>
        <time>2021-07-01T13:38:59Z</time>
      </trkpt>
      <trkpt lat="42.053955" lon="2.640644">
        <ele>295.27820</ele>
        <time>2021-07-01T13:39:00Z</time>
      </trkpt>
      <trkpt lat="42.054195" lon="2.640724">
        <ele>296.23145</ele>
        <time>2021-07-01T13:39:01Z</time>
      </trkpt>
      <trkpt lat="42.054390" lon="2.640789">
        <ele>296.15265</ele>
        <time>2021-07-01T13:39:02Z</time>
      </trkpt>
      <trkpt lat="42.054577" lon="2.640850">
        <ele>296.28967</ele>
        <time>2021-07-01T13:39:03Z</time>
      </trkpt>
      <trkpt lat="42.054783" lon="2.640923">
        <ele>298.36285</ele>
        <time>2021-07-01T13:39:04Z</time>
      </trkpt>
      <trkpt lat="42.054970" lon="2.641016">
        <ele>298.69586</ele>
        <time>2021-07-01T13:39:05Z</time>
      </trkpt>
      <trkpt lat="42.055054" lon="2.641069">
        <ele>298.85254</ele>
        <time>2021-07-01T13:39:06Z</time>
      </trkpt>
      <trkpt lat="42.055054" lon="2.641069">
        <ele>299.89868</ele>
        <time>2021-07-01T13:39:07Z</time>
      </trkpt>
      <trkpt lat="42.055218" lon="2.641237">
        <ele>300.50732</ele>
        <time>2021-07-01T13:39:08Z</time>
      </trkpt>
      <trkpt lat="42.055332" lon="2.641402">
        <ele>300.50732</ele>
        <time>2021-07-01T13:39:10Z</time>
      </trkpt>
      <trkpt lat="42.055412" lon="2.641563">
        <ele>303.50708</ele>
        <time>2021-07-01T13:39:10Z</time>
      </trkpt>
      <trkpt lat="42.055481" lon="2.641708">
        <ele>305.83551</ele>
        <time>2021-07-01T13:39:11Z</time>
      </trkpt>
      <trkpt lat="42.055599" lon="2.641926">
        <ele>306.66992</ele>
        <time>2021-07-01T13:39:12Z</time>
      </trkpt>
      <trkpt lat="42.055637" lon="2.641986">
        <ele>307.47339</ele>
        <time>2021-07-01T13:39:13Z</time>
      </trkpt>
      <trkpt lat="42.055775" lon="2.642184">
        <ele>308.57214</ele>
        <time>2021-07-01T13:39:14Z</time>
      </trkpt>
      <trkpt lat="42.055805" lon="2.642231">
        <ele>308.94641</ele>
        <time>2021-07-01T13:39:15Z</time>
      </trkpt>
      <trkpt lat="42.055885" lon="2.642349">
        <ele>309.97144</ele>
        <time>2021-07-01T13:39:16Z</time>
      </trkpt>
      <trkpt lat="42.055973" lon="2.642479">
        <ele>311.78473</ele>
        <time>2021-07-01T13:39:17Z</time>
      </trkpt>
      <trkpt lat="42.056053" lon="2.642596">
        <ele>312.00641</ele>
        <time>2021-07-01T13:39:18Z</time>
      </trkpt>
      <trkpt lat="42.056171" lon="2.642767">
        <ele>313.46057</ele>
        <time>2021-07-01T13:39:19Z</time>
      </trkpt>
      <trkpt lat="42.056259" lon="2.642901">
        <ele>314.02417</ele>
        <time>2021-07-01T13:39:20Z</time>
      </trkpt>
      <trkpt lat="42.056282" lon="2.642939">
        <ele>316.48987</ele>
        <time>2021-07-01T13:39:21Z</time>
      </trkpt>
      <trkpt lat="42.056282" lon="2.642939">
        <ele>317.60706</ele>
        <time>2021-07-01T13:39:22Z</time>
      </trkpt>
      <trkpt lat="42.056370" lon="2.643073">
        <ele>317.67792</ele>
        <time>2021-07-01T13:39:23Z</time>
      </trkpt>
      <trkpt lat="42.056370" lon="2.643073">
        <ele>318.09247</ele>
        <time>2021-07-01T13:39:24Z</time>
      </trkpt>
      <trkpt lat="42.056370" lon="2.643075">
        <ele>318.28357</ele>
        <time>2021-07-01T13:39:25Z</time>
      </trkpt>
      <trkpt lat="42.056370" lon="2.643076">
        <ele>319.82782</ele>
        <time>2021-07-01T13:39:26Z</time>
      </trkpt>
      <trkpt lat="42.056381" lon="2.643094">
        <ele>319.98633</ele>
        <time>2021-07-01T13:39:27Z</time>
      </trkpt>
      <trkpt lat="42.056393" lon="2.643112">
        <ele>321.86719</ele>
        <time>2021-07-01T13:39:28Z</time>
      </trkpt>
      <trkpt lat="42.056335" lon="2.643144">
        <ele>322.01196</ele>
        <time>2021-07-01T13:39:29Z</time>
      </trkpt>
      <trkpt lat="42.056274" lon="2.643150">
        <ele>321.78149</ele>
        <time>2021-07-01T13:39:30Z</time>
      </trkpt>
      <trkpt lat="42.056255" lon="2.643149">
        <ele>321.60699</ele>
        <time>2021-07-01T13:39:31Z</time>
      </trkpt>
      <trkpt lat="42.056236" lon="2.643149">
        <ele>321.20013</ele>
        <time>2021-07-01T13:39:32Z</time>
      </trkpt>
      <trkpt lat="42.056171" lon="2.643147">
        <ele>321.67389</ele>
        <time>2021-07-01T13:39:33Z</time>
      </trkpt>
      <trkpt lat="42.056156" lon="2.643147">
        <ele>321.01093</ele>
        <time>2021-07-01T13:39:34Z</time>
      </trkpt>
      <trkpt lat="42.056103" lon="2.643145">
        <ele>320.89050</ele>
        <time>2021-07-01T13:39:35Z</time>
      </trkpt>
      <trkpt lat="42.056068" lon="2.643144">
        <ele>319.21936</ele>
        <time>2021-07-01T13:39:36Z</time>
      </trkpt>
      <trkpt lat="42.056068" lon="2.643144">
        <ele>319.19031</ele>
        <time>2021-07-01T13:39:37Z</time>
      </trkpt>
      <trkpt lat="42.056156" lon="2.642746">
        <ele>318.85620</ele>
        <time>2021-07-01T13:39:38Z</time>
      </trkpt>
      <trkpt lat="42.056129" lon="2.642708">
        <ele>318.08588</ele>
        <time>2021-07-01T13:39:39Z</time>
      </trkpt>
      <trkpt lat="42.056107" lon="2.642673">
        <ele>317.62622</ele>
        <time>2021-07-01T13:39:40Z</time>
      </trkpt>
      <trkpt lat="42.055885" lon="2.643098">
        <ele>319.19537</ele>
        <time>2021-07-01T13:39:42Z</time>
      </trkpt>
      <trkpt lat="42.055817" lon="2.643060">
        <ele>307.94504</ele>
        <time>2021-07-01T13:39:43Z</time>
      </trkpt>
      <trkpt lat="42.055801" lon="2.643052">
        <ele>307.97375</ele>
        <time>2021-07-01T13:39:44Z</time>
      </trkpt>
      <trkpt lat="42.055904" lon="2.642717">
        <ele>307.97375</ele>
        <time>2021-07-01T13:39:46Z</time>
      </trkpt>
      <trkpt lat="42.055904" lon="2.642717">
        <ele>308.66959</ele>
        <time>2021-07-01T13:39:47Z</time>
      </trkpt>
      <trkpt lat="42.055855" lon="2.642723">
        <ele>308.66959</ele>
        <time>2021-07-01T13:39:47Z</time>
      </trkpt>
      <trkpt lat="42.055843" lon="2.642765">
        <ele>308.48309</ele>
        <time>2021-07-01T13:39:49Z</time>
      </trkpt>
      <trkpt lat="42.055843" lon="2.642765">
        <ele>308.11328</ele>
        <time>2021-07-01T13:39:49Z</time>
      </trkpt>
      <trkpt lat="42.055840" lon="2.642769">
        <ele>308.95154</ele>
        <time>2021-07-01T13:39:50Z</time>
      </trkpt>
      <trkpt lat="42.055840" lon="2.642769">
        <ele>309.04636</ele>
        <time>2021-07-01T13:39:51Z</time>
      </trkpt>
      <trkpt lat="42.055840" lon="2.642776">
        <ele>308.94235</ele>
        <time>2021-07-01T13:39:52Z</time>
      </trkpt>
      <trkpt lat="42.055840" lon="2.642778">
        <ele>308.53506</ele>
        <time>2021-07-01T13:39:53Z</time>
      </trkpt>
      <trkpt lat="42.055843" lon="2.642775">
        <ele>308.72485</ele>
        <time>2021-07-01T13:39:54Z</time>
      </trkpt>
      <trkpt lat="42.055843" lon="2.642775">
        <ele>307.80762</ele>
        <time>2021-07-01T13:39:55Z</time>
      </trkpt>
      <trkpt lat="42.055847" lon="2.642774">
        <ele>310.12708</ele>
        <time>2021-07-01T13:39:56Z</time>
      </trkpt>
      <trkpt lat="42.055843" lon="2.642780">
        <ele>309.02692</ele>
        <time>2021-07-01T13:39:57Z</time>
      </trkpt>
      <trkpt lat="42.055843" lon="2.642780">
        <ele>307.98651</ele>
        <time>2021-07-01T13:39:59Z</time>
      </trkpt>
      <trkpt lat="42.055843" lon="2.642780">
        <ele>308.76770</ele>
        <time>2021-07-01T13:39:59Z</time>
      </trkpt>
      <trkpt lat="42.055855" lon="2.642785">
        <ele>308.84918</ele>
        <time>2021-07-01T13:40:01Z</time>
      </trkpt>
      <trkpt lat="42.055855" lon="2.642785">
        <ele>308.84918</ele>
        <time>2021-07-01T13:40:02Z</time>
      </trkpt>
      <trkpt lat="42.055855" lon="2.642785">
        <ele>308.84918</ele>
        <time>2021-07-01T13:40:02Z</time>
      </trkpt>
      <trkpt lat="42.055855" lon="2.642785">
        <ele>309.09116</ele>
        <time>2021-07-01T13:40:03Z</time>
      </trkpt>
      <trkpt lat="42.055855" lon="2.642785">
        <ele>309.07947</ele>
        <time>2021-07-01T13:40:05Z</time>
      </trkpt>
      <trkpt lat="42.055855" lon="2.642785">
        <ele>309.06897</ele>
        <time>2021-07-01T13:40:05Z</time>
      </trkpt>
      <trkpt lat="42.055855" lon="2.642785">
        <ele>308.96033</ele>
        <time>2021-07-01T13:40:06Z</time>
      </trkpt>
      <trkpt lat="42.055855" lon="2.642785">
        <ele>318.78870</ele>
        <time>2021-07-01T13:40:07Z</time>
      </trkpt>
      <trkpt lat="42.055855" lon="2.642785">
        <ele>320.81787</ele>
        <time>2021-07-01T13:40:08Z</time>
      </trkpt>
      <trkpt lat="42.055855" lon="2.642785">
        <ele>309.17001</ele>
        <time>2021-07-01T13:40:09Z</time>
      </trkpt>
      <trkpt lat="42.055855" lon="2.642785">
        <ele>319.54700</ele>
        <time>2021-07-01T13:40:10Z</time>
      </trkpt>
      <trkpt lat="42.055855" lon="2.642785">
        <ele>308.97623</ele>
        <time>2021-07-01T13:40:11Z</time>
      </trkpt>
      <trkpt lat="42.055855" lon="2.642785">
        <ele>308.87531</ele>
        <time>2021-07-01T13:40:12Z</time>
      </trkpt>
      <trkpt lat="42.055855" lon="2.642785">
        <ele>319.33466</ele>
        <time>2021-07-01T13:40:13Z</time>
      </trkpt>
      <trkpt lat="42.055855" lon="2.642785">
        <ele>320.40741</ele>
        <time>2021-07-01T13:40:14Z</time>
      </trkpt>
      <trkpt lat="42.055855" lon="2.642785">
        <ele>320.73969</ele>
        <time>2021-07-01T13:40:15Z</time>
      </trkpt>
      <trkpt lat="42.055855" lon="2.642785">
        <ele>320.19904</ele>
        <time>2021-07-01T13:40:16Z</time>
      </trkpt>
      <trkpt lat="42.055882" lon="2.642806">
        <ele>320.72327</ele>
        <time>2021-07-01T13:40:17Z</time>
      </trkpt>
      <trkpt lat="42.055882" lon="2.642806">
        <ele>321.42114</ele>
        <time>2021-07-01T13:40:18Z</time>
      </trkpt>
      <trkpt lat="42.055885" lon="2.642804">
        <ele>320.05566</ele>
        <time>2021-07-01T13:40:19Z</time>
      </trkpt>
      <trkpt lat="42.055885" lon="2.642804">
        <ele>318.53235</ele>
        <time>2021-07-01T13:40:20Z</time>
      </trkpt>
      <trkpt lat="42.055874" lon="2.642779">
        <ele>319.08667</ele>
        <time>2021-07-01T13:40:21Z</time>
      </trkpt>
      <trkpt lat="42.055874" lon="2.642779">
        <ele>319.10529</ele>
        <time>2021-07-01T13:40:22Z</time>
      </trkpt>
      <trkpt lat="42.055874" lon="2.642779">
        <ele>318.88977</ele>
        <time>2021-07-01T13:40:23Z</time>
      </trkpt>
      <trkpt lat="42.055874" lon="2.642779">
        <ele>319.07812</ele>
        <time>2021-07-01T13:40:24Z</time>
      </trkpt>
      <trkpt lat="42.055866" lon="2.642771">
        <ele>318.22034</ele>
        <time>2021-07-01T13:40:25Z</time>
      </trkpt>
      <trkpt lat="42.055866" lon="2.642771">
        <ele>317.64539</ele>
        <time>2021-07-01T13:40:26Z</time>
      </trkpt>
      <trkpt lat="42.055866" lon="2.642771">
        <ele>317.46429</ele>
        <time>2021-07-01T13:40:27Z</time>
      </trkpt>
      <trkpt lat="42.055862" lon="2.642775">
        <ele>318.48181</ele>
        <time>2021-07-01T13:40:28Z</time>
      </trkpt>
      <trkpt lat="42.055862" lon="2.642775">
        <ele>318.65704</ele>
        <time>2021-07-01T13:40:29Z</time>
      </trkpt>
      <trkpt lat="42.055866" lon="2.642782">
        <ele>318.39960</ele>
        <time>2021-07-01T13:40:30Z</time>
      </trkpt>
      <trkpt lat="42.055866" lon="2.642782">
        <ele>317.73065</ele>
        <time>2021-07-01T13:40:31Z</time>
      </trkpt>
      <trkpt lat="42.055866" lon="2.642782">
        <ele>318.31708</ele>
        <time>2021-07-01T13:40:32Z</time>
      </trkpt>
      <trkpt lat="42.055866" lon="2.642782">
        <ele>318.95227</ele>
        <time>2021-07-01T13:40:33Z</time>
      </trkpt>
      <trkpt lat="42.055866" lon="2.642782">
        <ele>317.78650</ele>
        <time>2021-07-01T13:40:34Z</time>
      </trkpt>
      <trkpt lat="42.055866" lon="2.642782">
        <ele>317.88867</ele>
        <time>2021-07-01T13:40:35Z</time>
      </trkpt>
      <trkpt lat="42.055874" lon="2.642760">
        <ele>318.48804</ele>
        <time>2021-07-01T13:40:36Z</time>
      </trkpt>
      <trkpt lat="42.055874" lon="2.642760">
        <ele>319.18506</ele>
        <time>2021-07-01T13:40:37Z</time>
      </trkpt>
      <trkpt lat="42.055874" lon="2.642760">
        <ele>319.16113</ele>
        <time>2021-07-01T13:40:38Z</time>
      </trkpt>
      <trkpt lat="42.055874" lon="2.642760">
        <ele>317.01672</ele>
        <time>2021-07-01T13:40:39Z</time>
      </trkpt>
      <trkpt lat="42.055874" lon="2.642760">
        <ele>318.07080</ele>
        <time>2021-07-01T13:40:40Z</time>
      </trkpt>
      <trkpt lat="42.055874" lon="2.642760">
        <ele>318.40149</ele>
        <time>2021-07-01T13:40:41Z</time>
      </trkpt>
      <trkpt lat="42.055874" lon="2.642760">
        <ele>319.66882</ele>
        <time>2021-07-01T13:40:42Z</time>
      </trkpt>
      <trkpt lat="42.055874" lon="2.642760">
        <ele>319.98938</ele>
        <time>2021-07-01T13:40:43Z</time>
      </trkpt>
      <trkpt lat="42.055874" lon="2.642760">
        <ele>320.90527</ele>
        <time>2021-07-01T13:40:44Z</time>
      </trkpt>
      <trkpt lat="42.055855" lon="2.642748">
        <ele>321.28394</ele>
        <time>2021-07-01T13:40:45Z</time>
      </trkpt>
      <trkpt lat="42.055855" lon="2.642748">
        <ele>321.28296</ele>
        <time>2021-07-01T13:40:46Z</time>
      </trkpt>
      <trkpt lat="42.055855" lon="2.642748">
        <ele>321.08508</ele>
        <time>2021-07-01T13:40:47Z</time>
      </trkpt>
      <trkpt lat="42.055855" lon="2.642748">
        <ele>321.70789</ele>
        <time>2021-07-01T13:40:48Z</time>
      </trkpt>
      <trkpt lat="42.055855" lon="2.642748">
        <ele>321.87762</ele>
        <time>2021-07-01T13:40:49Z</time>
      </trkpt>
      <trkpt lat="42.055855" lon="2.642761">
        <ele>321.07764</ele>
        <time>2021-07-01T13:40:50Z</time>
      </trkpt>
      <trkpt lat="42.055855" lon="2.642761">
        <ele>321.29321</ele>
        <time>2021-07-01T13:40:51Z</time>
      </trkpt>
      <trkpt lat="42.055855" lon="2.642761">
        <ele>321.08923</ele>
        <time>2021-07-01T13:40:52Z</time>
      </trkpt>
      <trkpt lat="42.055855" lon="2.642760">
        <ele>320.62158</ele>
        <time>2021-07-01T13:40:53Z</time>
      </trkpt>
      <trkpt lat="42.055855" lon="2.642760">
        <ele>320.38721</ele>
        <time>2021-07-01T13:40:54Z</time>
      </trkpt>
      <trkpt lat="42.055851" lon="2.642759">
        <ele>320.25940</ele>
        <time>2021-07-01T13:40:55Z</time>
      </trkpt>
      <trkpt lat="42.055851" lon="2.642759">
        <ele>319.46436</ele>
        <time>2021-07-01T13:40:56Z</time>
      </trkpt>
      <trkpt lat="42.055851" lon="2.642759">
        <ele>318.62122</ele>
        <time>2021-07-01T13:40:57Z</time>
      </trkpt>
      <trkpt lat="42.055851" lon="2.642774">
        <ele>319.30505</ele>
        <time>2021-07-01T13:40:58Z</time>
      </trkpt>
      <trkpt lat="42.055847" lon="2.642775">
        <ele>320.01624</ele>
        <time>2021-07-01T13:40:59Z</time>
      </trkpt>
      <trkpt lat="42.055847" lon="2.642775">
        <ele>320.66650</ele>
        <time>2021-07-01T13:41:00Z</time>
      </trkpt>
      <trkpt lat="42.055843" lon="2.642772">
        <ele>320.04211</ele>
        <time>2021-07-01T13:41:01Z</time>
      </trkpt>
      <trkpt lat="42.055843" lon="2.642772">
        <ele>318.76306</ele>
        <time>2021-07-01T13:41:02Z</time>
      </trkpt>
      <trkpt lat="42.055843" lon="2.642772">
        <ele>317.58875</ele>
        <time>2021-07-01T13:41:03Z</time>
      </trkpt>
      <trkpt lat="42.055843" lon="2.642772">
        <ele>319.06165</ele>
        <time>2021-07-01T13:41:04Z</time>
      </trkpt>
      <trkpt lat="42.055843" lon="2.642772">
        <ele>320.74469</ele>
        <time>2021-07-01T13:41:05Z</time>
      </trkpt>
      <trkpt lat="42.055843" lon="2.642772">
        <ele>321.41046</ele>
        <time>2021-07-01T13:41:06Z</time>
      </trkpt>
      <trkpt lat="42.055843" lon="2.642772">
        <ele>321.79492</ele>
        <time>2021-07-01T13:41:07Z</time>
      </trkpt>
      <trkpt lat="42.055843" lon="2.642772">
        <ele>319.32581</ele>
        <time>2021-07-01T13:41:08Z</time>
      </trkpt>
      <trkpt lat="42.055843" lon="2.642772">
        <ele>318.70215</ele>
        <time>2021-07-01T13:41:09Z</time>
      </trkpt>
      <trkpt lat="42.055843" lon="2.642772">
        <ele>318.30237</ele>
        <time>2021-07-01T13:41:10Z</time>
      </trkpt>
      <trkpt lat="42.055843" lon="2.642772">
        <ele>310.39020</ele>
        <time>2021-07-01T13:41:11Z</time>
      </trkpt>
      <trkpt lat="42.055843" lon="2.642772">
        <ele>310.37799</ele>
        <time>2021-07-01T13:41:12Z</time>
      </trkpt>
      <trkpt lat="42.055843" lon="2.642772">
        <ele>313.21301</ele>
        <time>2021-07-01T13:41:13Z</time>
      </trkpt>
      <trkpt lat="42.055843" lon="2.642772">
        <ele>314.22034</ele>
        <time>2021-07-01T13:41:14Z</time>
      </trkpt>
      <trkpt lat="42.055843" lon="2.642772">
        <ele>314.56396</ele>
        <time>2021-07-01T13:41:15Z</time>
      </trkpt>
      <trkpt lat="42.055878" lon="2.642776">
        <ele>316.54187</ele>
        <time>2021-07-01T13:41:16Z</time>
      </trkpt>
      <trkpt lat="42.055878" lon="2.642776">
        <ele>315.34656</ele>
        <time>2021-07-01T13:41:17Z</time>
      </trkpt>
      <trkpt lat="42.055878" lon="2.642776">
        <ele>314.84680</ele>
        <time>2021-07-01T13:41:18Z</time>
      </trkpt>
      <trkpt lat="42.055878" lon="2.642776">
        <ele>311.47556</ele>
        <time>2021-07-01T13:41:19Z</time>
      </trkpt>
      <trkpt lat="42.055878" lon="2.642776">
        <ele>311.56522</ele>
        <time>2021-07-01T13:41:20Z</time>
      </trkpt>
      <trkpt lat="42.055878" lon="2.642776">
        <ele>312.44958</ele>
        <time>2021-07-01T13:41:21Z</time>
      </trkpt>
      <trkpt lat="42.055878" lon="2.642776">
        <ele>312.62964</ele>
        <time>2021-07-01T13:41:22Z</time>
      </trkpt>
      <trkpt lat="42.055862" lon="2.642759">
        <ele>312.71765</ele>
        <time>2021-07-01T13:41:23Z</time>
      </trkpt>
      <trkpt lat="42.055859" lon="2.642756">
        <ele>312.66211</ele>
        <time>2021-07-01T13:41:24Z</time>
      </trkpt>
      <trkpt lat="42.055859" lon="2.642756">
        <ele>312.65704</ele>
        <time>2021-07-01T13:41:25Z</time>
      </trkpt>
      <trkpt lat="42.055859" lon="2.642756">
        <ele>312.76978</ele>
        <time>2021-07-01T13:41:26Z</time>
      </trkpt>
      <trkpt lat="42.055859" lon="2.642756">
        <ele>310.10260</ele>
        <time>2021-07-01T13:41:27Z</time>
      </trkpt>
      <trkpt lat="42.055801" lon="2.642754">
        <ele>311.35315</ele>
        <time>2021-07-01T13:41:28Z</time>
      </trkpt>
      <trkpt lat="42.055801" lon="2.642754">
        <ele>312.63611</ele>
        <time>2021-07-01T13:41:29Z</time>
      </trkpt>
      <trkpt lat="42.055801" lon="2.642754">
        <ele>313.74243</ele>
        <time>2021-07-01T13:41:30Z</time>
      </trkpt>
      <trkpt lat="42.055801" lon="2.642754">
        <ele>313.16418</ele>
        <time>2021-07-01T13:41:31Z</time>
      </trkpt>
      <trkpt lat="42.055801" lon="2.642754">
        <ele>311.93036</ele>
        <time>2021-07-01T13:41:32Z</time>
      </trkpt>
      <trkpt lat="42.055801" lon="2.642754">
        <ele>311.92126</ele>
        <time>2021-07-01T13:41:33Z</time>
      </trkpt>
      <trkpt lat="42.055851" lon="2.642774">
        <ele>312.17004</ele>
        <time>2021-07-01T13:41:34Z</time>
      </trkpt>
      <trkpt lat="42.055851" lon="2.642774">
        <ele>311.92844</ele>
        <time>2021-07-01T13:41:35Z</time>
      </trkpt>
      <trkpt lat="42.055851" lon="2.642774">
        <ele>312.82520</ele>
        <time>2021-07-01T13:41:36Z</time>
      </trkpt>
      <trkpt lat="42.055851" lon="2.642774">
        <ele>313.56897</ele>
        <time>2021-07-01T13:41:37Z</time>
      </trkpt>
      <trkpt lat="42.055859" lon="2.642772">
        <ele>315.52271</ele>
        <time>2021-07-01T13:41:38Z</time>
      </trkpt>
      <trkpt lat="42.055859" lon="2.642772">
        <ele>315.88068</ele>
        <time>2021-07-01T13:41:39Z</time>
      </trkpt>
      <trkpt lat="42.055859" lon="2.642772">
        <ele>317.10071</ele>
        <time>2021-07-01T13:41:40Z</time>
      </trkpt>
      <trkpt lat="42.055859" lon="2.642772">
        <ele>317.15271</ele>
        <time>2021-07-01T13:41:41Z</time>
      </trkpt>
      <trkpt lat="42.055885" lon="2.642786">
        <ele>312.03311</ele>
        <time>2021-07-01T13:41:42Z</time>
      </trkpt>
      <trkpt lat="42.055885" lon="2.642786">
        <ele>312.03622</ele>
        <time>2021-07-01T13:41:43Z</time>
      </trkpt>
      <trkpt lat="42.055885" lon="2.642786">
        <ele>315.44873</ele>
        <time>2021-07-01T13:41:44Z</time>
      </trkpt>
      <trkpt lat="42.055885" lon="2.642786">
        <ele>317.73242</ele>
        <time>2021-07-01T13:41:45Z</time>
      </trkpt>
      <trkpt lat="42.055885" lon="2.642786">
        <ele>318.98987</ele>
        <time>2021-07-01T13:41:46Z</time>
      </trkpt>
      <trkpt lat="42.055885" lon="2.642786">
        <ele>312.55270</ele>
        <time>2021-07-01T13:41:47Z</time>
      </trkpt>
      <trkpt lat="42.055885" lon="2.642786">
        <ele>317.26270</ele>
        <time>2021-07-01T13:41:48Z</time>
      </trkpt>
      <trkpt lat="42.055885" lon="2.642786">
        <ele>319.22986</ele>
        <time>2021-07-01T13:41:49Z</time>
      </trkpt>
      <trkpt lat="42.055885" lon="2.642786">
        <ele>320.49500</ele>
        <time>2021-07-01T13:41:50Z</time>
      </trkpt>
      <trkpt lat="42.055885" lon="2.642786">
        <ele>321.06567</ele>
        <time>2021-07-01T13:41:51Z</time>
      </trkpt>
      <trkpt lat="42.055885" lon="2.642786">
        <ele>321.58636</ele>
        <time>2021-07-01T13:41:52Z</time>
      </trkpt>
      <trkpt lat="42.055885" lon="2.642786">
        <ele>321.62408</ele>
        <time>2021-07-01T13:41:53Z</time>
      </trkpt>
      <trkpt lat="42.055885" lon="2.642786">
        <ele>321.15717</ele>
        <time>2021-07-01T13:41:54Z</time>
      </trkpt>
      <trkpt lat="42.055882" lon="2.642817">
        <ele>322.21521</ele>
        <time>2021-07-01T13:41:55Z</time>
      </trkpt>
      <trkpt lat="42.055882" lon="2.642817">
        <ele>321.71924</ele>
        <time>2021-07-01T13:41:56Z</time>
      </trkpt>
      <trkpt lat="42.055882" lon="2.642817">
        <ele>322.00366</ele>
        <time>2021-07-01T13:41:57Z</time>
      </trkpt>
      <trkpt lat="42.055882" lon="2.642817">
        <ele>321.49823</ele>
        <time>2021-07-01T13:41:58Z</time>
      </trkpt>
      <trkpt lat="42.055882" lon="2.642817">
        <ele>314.50290</ele>
        <time>2021-07-01T13:41:59Z</time>
      </trkpt>
      <trkpt lat="42.055882" lon="2.642817">
        <ele>317.56006</ele>
        <time>2021-07-01T13:42:00Z</time>
      </trkpt>
      <trkpt lat="42.055882" lon="2.642817">
        <ele>318.72046</ele>
        <time>2021-07-01T13:42:01Z</time>
      </trkpt>
      <trkpt lat="42.055882" lon="2.642817">
        <ele>320.04889</ele>
        <time>2021-07-01T13:42:02Z</time>
      </trkpt>
      <trkpt lat="42.055882" lon="2.642817">
        <ele>320.54797</ele>
        <time>2021-07-01T13:42:03Z</time>
      </trkpt>
      <trkpt lat="42.055882" lon="2.642817">
        <ele>321.40442</ele>
        <time>2021-07-01T13:42:04Z</time>
      </trkpt>
      <trkpt lat="42.055882" lon="2.642817">
        <ele>321.48169</ele>
        <time>2021-07-01T13:42:05Z</time>
      </trkpt>
      <trkpt lat="42.055882" lon="2.642817">
        <ele>321.03540</ele>
        <time>2021-07-01T13:42:06Z</time>
      </trkpt>
      <trkpt lat="42.055882" lon="2.642817">
        <ele>321.33643</ele>
        <time>2021-07-01T13:42:07Z</time>
      </trkpt>
      <trkpt lat="42.055882" lon="2.642817">
        <ele>320.90344</ele>
        <time>2021-07-01T13:42:08Z</time>
      </trkpt>
      <trkpt lat="42.055874" lon="2.642867">
        <ele>320.58154</ele>
        <time>2021-07-01T13:42:09Z</time>
      </trkpt>
      <trkpt lat="42.055866" lon="2.642839">
        <ele>319.85474</ele>
        <time>2021-07-01T13:42:10Z</time>
      </trkpt>
      <trkpt lat="42.055866" lon="2.642839">
        <ele>320.39368</ele>
        <time>2021-07-01T13:42:11Z</time>
      </trkpt>
      <trkpt lat="42.055866" lon="2.642839">
        <ele>321.47681</ele>
        <time>2021-07-01T13:42:12Z</time>
      </trkpt>
      <trkpt lat="42.055878" lon="2.642839">
        <ele>320.04150</ele>
        <time>2021-07-01T13:42:13Z</time>
      </trkpt>
      <trkpt lat="42.055878" lon="2.642839">
        <ele>320.09741</ele>
        <time>2021-07-01T13:42:14Z</time>
      </trkpt>
      <trkpt lat="42.055878" lon="2.642839">
        <ele>319.85968</ele>
        <time>2021-07-01T13:42:15Z</time>
      </trkpt>
      <trkpt lat="42.055878" lon="2.642839">
        <ele>319.87628</ele>
        <time>2021-07-01T13:42:16Z</time>
      </trkpt>
      <trkpt lat="42.055878" lon="2.642839">
        <ele>322.17334</ele>
        <time>2021-07-01T13:42:17Z</time>
      </trkpt>
      <trkpt lat="42.055878" lon="2.642839">
        <ele>321.51196</ele>
        <time>2021-07-01T13:42:18Z</time>
      </trkpt>
      <trkpt lat="42.055904" lon="2.642832">
        <ele>322.67212</ele>
        <time>2021-07-01T13:42:19Z</time>
      </trkpt>
      <trkpt lat="42.055904" lon="2.642832">
        <ele>323.48328</ele>
        <time>2021-07-01T13:42:20Z</time>
      </trkpt>
      <trkpt lat="42.055904" lon="2.642832">
        <ele>322.03857</ele>
        <time>2021-07-01T13:42:21Z</time>
      </trkpt>
      <trkpt lat="42.055908" lon="2.642819">
        <ele>322.00500</ele>
        <time>2021-07-01T13:42:22Z</time>
      </trkpt>
      <trkpt lat="42.055908" lon="2.642819">
        <ele>320.76965</ele>
        <time>2021-07-01T13:42:23Z</time>
      </trkpt>
      <trkpt lat="42.055916" lon="2.642821">
        <ele>319.42572</ele>
        <time>2021-07-01T13:42:24Z</time>
      </trkpt>
      <trkpt lat="42.055916" lon="2.642821">
        <ele>319.98145</ele>
        <time>2021-07-01T13:42:25Z</time>
      </trkpt>
      <trkpt lat="42.055866" lon="2.642782">
        <ele>319.79468</ele>
        <time>2021-07-01T13:42:26Z</time>
      </trkpt>
      <trkpt lat="42.055866" lon="2.642782">
        <ele>319.78601</ele>
        <time>2021-07-01T13:42:27Z</time>
      </trkpt>
      <trkpt lat="42.055866" lon="2.642782">
        <ele>319.80560</ele>
        <time>2021-07-01T13:42:28Z</time>
      </trkpt>
      <trkpt lat="42.055866" lon="2.642782">
        <ele>320.77600</ele>
        <time>2021-07-01T13:42:29Z</time>
      </trkpt>
      <trkpt lat="42.055866" lon="2.642791">
        <ele>319.44873</ele>
        <time>2021-07-01T13:42:30Z</time>
      </trkpt>
      <trkpt lat="42.055866" lon="2.642791">
        <ele>320.51782</ele>
        <time>2021-07-01T13:42:31Z</time>
      </trkpt>
      <trkpt lat="42.055866" lon="2.642791">
        <ele>321.96252</ele>
        <time>2021-07-01T13:42:32Z</time>
      </trkpt>
      <trkpt lat="42.055878" lon="2.642802">
        <ele>322.54395</ele>
        <time>2021-07-01T13:42:33Z</time>
      </trkpt>
      <trkpt lat="42.055882" lon="2.642809">
        <ele>322.81281</ele>
        <time>2021-07-01T13:42:34Z</time>
      </trkpt>
      <trkpt lat="42.055882" lon="2.642809">
        <ele>324.40948</ele>
        <time>2021-07-01T13:42:35Z</time>
      </trkpt>
      <trkpt lat="42.055882" lon="2.642828">
        <ele>323.57751</ele>
        <time>2021-07-01T13:42:36Z</time>
      </trkpt>
      <trkpt lat="42.055878" lon="2.642828">
        <ele>324.43506</ele>
        <time>2021-07-01T13:42:37Z</time>
      </trkpt>
      <trkpt lat="42.055889" lon="2.642824">
        <ele>324.53186</ele>
        <time>2021-07-01T13:42:38Z</time>
      </trkpt>
      <trkpt lat="42.055904" lon="2.642826">
        <ele>324.48401</ele>
        <time>2021-07-01T13:42:39Z</time>
      </trkpt>
      <trkpt lat="42.055904" lon="2.642826">
        <ele>324.64746</ele>
        <time>2021-07-01T13:42:40Z</time>
      </trkpt>
      <trkpt lat="42.055904" lon="2.642818">
        <ele>323.92999</ele>
        <time>2021-07-01T13:42:41Z</time>
      </trkpt>
      <trkpt lat="42.055893" lon="2.642819">
        <ele>323.34802</ele>
        <time>2021-07-01T13:42:42Z</time>
      </trkpt>
      <trkpt lat="42.055893" lon="2.642819">
        <ele>320.83606</ele>
        <time>2021-07-01T13:42:43Z</time>
      </trkpt>
      <trkpt lat="42.055893" lon="2.642819">
        <ele>319.17554</ele>
        <time>2021-07-01T13:42:44Z</time>
      </trkpt>
      <trkpt lat="42.055893" lon="2.642819">
        <ele>319.60388</ele>
        <time>2021-07-01T13:42:45Z</time>
      </trkpt>
      <trkpt lat="42.055893" lon="2.642819">
        <ele>319.60699</ele>
        <time>2021-07-01T13:42:46Z</time>
      </trkpt>
      <trkpt lat="42.055893" lon="2.642819">
        <ele>318.66052</ele>
        <time>2021-07-01T13:42:47Z</time>
      </trkpt>
      <trkpt lat="42.055893" lon="2.642819">
        <ele>318.69366</ele>
        <time>2021-07-01T13:42:48Z</time>
      </trkpt>
      <trkpt lat="42.055893" lon="2.642819">
        <ele>318.90729</ele>
        <time>2021-07-01T13:42:49Z</time>
      </trkpt>
      <trkpt lat="42.055893" lon="2.642819">
        <ele>318.56653</ele>
        <time>2021-07-01T13:42:50Z</time>
      </trkpt>
      <trkpt lat="42.055897" lon="2.642829">
        <ele>318.02985</ele>
        <time>2021-07-01T13:42:54Z</time>
      </trkpt>
      <trkpt lat="42.055897" lon="2.642829">
        <ele>315.44373</ele>
        <time>2021-07-01T13:42:55Z</time>
      </trkpt>
      <trkpt lat="42.055889" lon="2.642828">
        <ele>314.98157</ele>
        <time>2021-07-01T13:42:59Z</time>
      </trkpt>
      <trkpt lat="42.055885" lon="2.642821">
        <ele>318.39429</ele>
        <time>2021-07-01T13:43:08Z</time>
      </trkpt>
      <trkpt lat="42.055885" lon="2.642821">
        <ele>318.98657</ele>
        <time>2021-07-01T13:43:09Z</time>
      </trkpt>
      <trkpt lat="42.055885" lon="2.642821">
        <ele>318.99127</ele>
        <time>2021-07-01T13:43:10Z</time>
      </trkpt>
      <trkpt lat="42.055885" lon="2.642821">
        <ele>318.33020</ele>
        <time>2021-07-01T13:43:11Z</time>
      </trkpt>
      <trkpt lat="42.055912" lon="2.642865">
        <ele>318.33020</ele>
        <time>2021-07-01T13:43:12Z</time>
      </trkpt>
      <trkpt lat="42.055912" lon="2.642865">
        <ele>317.90588</ele>
        <time>2021-07-01T13:43:13Z</time>
      </trkpt>
      <trkpt lat="42.055912" lon="2.642865">
        <ele>315.09833</ele>
        <time>2021-07-01T13:43:14Z</time>
      </trkpt>
      <trkpt lat="42.055912" lon="2.642865">
        <ele>314.94983</ele>
        <time>2021-07-01T13:43:15Z</time>
      </trkpt>
      <trkpt lat="42.055912" lon="2.642865">
        <ele>315.27515</ele>
        <time>2021-07-01T13:43:16Z</time>
      </trkpt>
      <trkpt lat="42.055912" lon="2.642865">
        <ele>314.70001</ele>
        <time>2021-07-01T13:43:17Z</time>
      </trkpt>
      <trkpt lat="42.055889" lon="2.642867">
        <ele>314.74185</ele>
        <time>2021-07-01T13:43:18Z</time>
      </trkpt>
      <trkpt lat="42.055885" lon="2.642865">
        <ele>314.64981</ele>
        <time>2021-07-01T13:43:19Z</time>
      </trkpt>
      <trkpt lat="42.055878" lon="2.642863">
        <ele>314.64981</ele>
        <time>2021-07-01T13:43:20Z</time>
      </trkpt>
      <trkpt lat="42.055878" lon="2.642863">
        <ele>315.52368</ele>
        <time>2021-07-01T13:43:23Z</time>
      </trkpt>
      <trkpt lat="42.055878" lon="2.642863">
        <ele>315.52368</ele>
        <time>2021-07-01T13:43:23Z</time>
      </trkpt>
      <trkpt lat="42.055878" lon="2.642863">
        <ele>315.52368</ele>
        <time>2021-07-01T13:43:23Z</time>
      </trkpt>
      <trkpt lat="42.055878" lon="2.642863">
        <ele>315.99933</ele>
        <time>2021-07-01T13:43:24Z</time>
      </trkpt>
      <trkpt lat="42.055866" lon="2.642857">
        <ele>316.19989</ele>
        <time>2021-07-01T13:43:25Z</time>
      </trkpt>
      <trkpt lat="42.055866" lon="2.642857">
        <ele>316.42249</ele>
        <time>2021-07-01T13:43:27Z</time>
      </trkpt>
      <trkpt lat="42.055870" lon="2.642857">
        <ele>316.48035</ele>
        <time>2021-07-01T13:43:27Z</time>
      </trkpt>
      <trkpt lat="42.055870" lon="2.642857">
        <ele>316.48035</ele>
        <time>2021-07-01T13:43:28Z</time>
      </trkpt>
      <trkpt lat="42.055870" lon="2.642857">
        <ele>316.93225</ele>
        <time>2021-07-01T13:43:29Z</time>
      </trkpt>
    </trkseg>
  </trk>
</gpx>
